<?xml version="1.0" encoding="UTF-8" standalone="no" ?>
<gpx xmlns="http://www.topografix.com/GPX/1/1" xmlns:xsi="http://www.w3.org/2001/XMLSchema-instance" xsi:schemaLocation="http://www.topografix.com/GPX/1/1 http://www.topografix.com/GPX/1/1/gpx.xsd" version="1.1" creator="VisuGPX - https://www.visugpx.com">
  <metadata>
    <name>J4 Voie Bleue : Gray - Baulay</name>
    <desc><![CDATA[Voie Bleue réalisée dans le sens Sud (Lyon) Nord (Apach)

Pour l'itinéraire complet, suivre le [url=https://www.visugpx.com/membres/33867/voie-bleue/]dossier suivant[/url].]]></desc>
  </metadata>
  <trk>
    <name><![CDATA[Vélo sur route, 2026-05-16]]></name>
    <trkseg>
      <trkpt lat="47.45202" lon="5.60206">
        <ele>190.7998</ele>
        <time>2026-05-16T09:23:16+02:00</time>
      </trkpt>
      <trkpt lat="47.45204" lon="5.60202">
        <ele>190.7998</ele>
        <time>2026-05-16T09:23:17+02:00</time>
      </trkpt>
      <trkpt lat="47.45205" lon="5.60198">
        <ele>191</ele>
        <time>2026-05-16T09:23:18+02:00</time>
      </trkpt>
      <trkpt lat="47.45207" lon="5.60194">
        <ele>190.90039</ele>
        <time>2026-05-16T09:23:19+02:00</time>
      </trkpt>
      <trkpt lat="47.45209" lon="5.60191">
        <ele>191.10059</ele>
        <time>2026-05-16T09:23:20+02:00</time>
      </trkpt>
      <trkpt lat="47.45212" lon="5.60188">
        <ele>191</ele>
        <time>2026-05-16T09:23:21+02:00</time>
      </trkpt>
      <trkpt lat="47.45215" lon="5.60186">
        <ele>191</ele>
        <time>2026-05-16T09:23:22+02:00</time>
      </trkpt>
      <trkpt lat="47.45218" lon="5.60183">
        <ele>191</ele>
        <time>2026-05-16T09:23:23+02:00</time>
      </trkpt>
      <trkpt lat="47.45221" lon="5.6018">
        <ele>191.10059</ele>
        <time>2026-05-16T09:23:24+02:00</time>
      </trkpt>
      <trkpt lat="47.45223" lon="5.60176">
        <ele>191.10059</ele>
        <time>2026-05-16T09:23:25+02:00</time>
      </trkpt>
      <trkpt lat="47.45226" lon="5.60173">
        <ele>191.2002</ele>
        <time>2026-05-16T09:23:26+02:00</time>
      </trkpt>
      <trkpt lat="47.45229" lon="5.60171">
        <ele>191.2002</ele>
        <time>2026-05-16T09:23:27+02:00</time>
      </trkpt>
      <trkpt lat="47.45232" lon="5.6017">
        <ele>191.10059</ele>
        <time>2026-05-16T09:23:28+02:00</time>
      </trkpt>
      <trkpt lat="47.45235" lon="5.60169">
        <ele>191.10059</ele>
        <time>2026-05-16T09:23:29+02:00</time>
      </trkpt>
      <trkpt lat="47.45238" lon="5.60168">
        <ele>191.10059</ele>
        <time>2026-05-16T09:23:30+02:00</time>
      </trkpt>
      <trkpt lat="47.4524" lon="5.60166">
        <ele>191.10059</ele>
        <time>2026-05-16T09:23:31+02:00</time>
      </trkpt>
      <trkpt lat="47.45242" lon="5.60164">
        <ele>191.2002</ele>
        <time>2026-05-16T09:23:32+02:00</time>
      </trkpt>
      <trkpt lat="47.45244" lon="5.6016">
        <ele>191.2002</ele>
        <time>2026-05-16T09:23:33+02:00</time>
      </trkpt>
      <trkpt lat="47.45244" lon="5.60157">
        <ele>191.2002</ele>
        <time>2026-05-16T09:23:34+02:00</time>
      </trkpt>
      <trkpt lat="47.45243" lon="5.60153">
        <ele>191.2998</ele>
        <time>2026-05-16T09:23:35+02:00</time>
      </trkpt>
      <trkpt lat="47.45243" lon="5.6015">
        <ele>191.2998</ele>
        <time>2026-05-16T09:23:36+02:00</time>
      </trkpt>
      <trkpt lat="47.45242" lon="5.60146">
        <ele>191.2998</ele>
        <time>2026-05-16T09:23:37+02:00</time>
      </trkpt>
      <trkpt lat="47.45242" lon="5.60142">
        <ele>191.2998</ele>
        <time>2026-05-16T09:23:38+02:00</time>
      </trkpt>
      <trkpt lat="47.45241" lon="5.60138">
        <ele>191.2998</ele>
        <time>2026-05-16T09:23:39+02:00</time>
      </trkpt>
      <trkpt lat="47.4524" lon="5.60134">
        <ele>191.2998</ele>
        <time>2026-05-16T09:23:40+02:00</time>
      </trkpt>
      <trkpt lat="47.45238" lon="5.60129">
        <ele>191.2998</ele>
        <time>2026-05-16T09:23:41+02:00</time>
      </trkpt>
      <trkpt lat="47.45237" lon="5.60125">
        <ele>191.2998</ele>
        <time>2026-05-16T09:23:42+02:00</time>
      </trkpt>
      <trkpt lat="47.45236" lon="5.6012">
        <ele>191.2998</ele>
        <time>2026-05-16T09:23:43+02:00</time>
      </trkpt>
      <trkpt lat="47.45235" lon="5.60116">
        <ele>191.2998</ele>
        <time>2026-05-16T09:23:44+02:00</time>
      </trkpt>
      <trkpt lat="47.45234" lon="5.60111">
        <ele>191.2998</ele>
        <time>2026-05-16T09:23:45+02:00</time>
      </trkpt>
      <trkpt lat="47.45232" lon="5.60106">
        <ele>191.2998</ele>
        <time>2026-05-16T09:23:46+02:00</time>
      </trkpt>
      <trkpt lat="47.45231" lon="5.60101">
        <ele>191.2002</ele>
        <time>2026-05-16T09:23:47+02:00</time>
      </trkpt>
      <trkpt lat="47.4523" lon="5.60096">
        <ele>191.2002</ele>
        <time>2026-05-16T09:23:48+02:00</time>
      </trkpt>
      <trkpt lat="47.45229" lon="5.60091">
        <ele>191.2002</ele>
        <time>2026-05-16T09:23:49+02:00</time>
      </trkpt>
      <trkpt lat="47.45228" lon="5.60086">
        <ele>191.10059</ele>
        <time>2026-05-16T09:23:50+02:00</time>
      </trkpt>
      <trkpt lat="47.45226" lon="5.60081">
        <ele>191.10059</ele>
        <time>2026-05-16T09:23:51+02:00</time>
      </trkpt>
      <trkpt lat="47.45225" lon="5.60075">
        <ele>191</ele>
        <time>2026-05-16T09:23:52+02:00</time>
      </trkpt>
      <trkpt lat="47.45223" lon="5.6007">
        <ele>190.90039</ele>
        <time>2026-05-16T09:23:53+02:00</time>
      </trkpt>
      <trkpt lat="47.45222" lon="5.60065">
        <ele>190.90039</ele>
        <time>2026-05-16T09:23:54+02:00</time>
      </trkpt>
      <trkpt lat="47.4522" lon="5.60059">
        <ele>190.7002</ele>
        <time>2026-05-16T09:23:55+02:00</time>
      </trkpt>
      <trkpt lat="47.45219" lon="5.60054">
        <ele>190.7002</ele>
        <time>2026-05-16T09:23:56+02:00</time>
      </trkpt>
      <trkpt lat="47.45217" lon="5.60048">
        <ele>190.40039</ele>
        <time>2026-05-16T09:23:57+02:00</time>
      </trkpt>
      <trkpt lat="47.45216" lon="5.60043">
        <ele>190.10059</ele>
        <time>2026-05-16T09:23:58+02:00</time>
      </trkpt>
      <trkpt lat="47.45214" lon="5.60037">
        <ele>190.10059</ele>
        <time>2026-05-16T09:23:59+02:00</time>
      </trkpt>
      <trkpt lat="47.45212" lon="5.60031">
        <ele>189.7998</ele>
        <time>2026-05-16T09:24:00+02:00</time>
      </trkpt>
      <trkpt lat="47.4521" lon="5.60026">
        <ele>189.7002</ele>
        <time>2026-05-16T09:24:01+02:00</time>
      </trkpt>
      <trkpt lat="47.45209" lon="5.6002">
        <ele>189.7002</ele>
        <time>2026-05-16T09:24:02+02:00</time>
      </trkpt>
      <trkpt lat="47.45207" lon="5.60016">
        <ele>189.40039</ele>
        <time>2026-05-16T09:24:03+02:00</time>
      </trkpt>
      <trkpt lat="47.45205" lon="5.60011">
        <ele>189.60059</ele>
        <time>2026-05-16T09:24:04+02:00</time>
      </trkpt>
      <trkpt lat="47.45204" lon="5.60006">
        <ele>189.40039</ele>
        <time>2026-05-16T09:24:05+02:00</time>
      </trkpt>
      <trkpt lat="47.45202" lon="5.60001">
        <ele>189.2998</ele>
        <time>2026-05-16T09:24:06+02:00</time>
      </trkpt>
      <trkpt lat="47.452" lon="5.59995">
        <ele>189.5</ele>
        <time>2026-05-16T09:24:07+02:00</time>
      </trkpt>
      <trkpt lat="47.45199" lon="5.59989">
        <ele>189.5</ele>
        <time>2026-05-16T09:24:08+02:00</time>
      </trkpt>
      <trkpt lat="47.45197" lon="5.59983">
        <ele>189.60059</ele>
        <time>2026-05-16T09:24:09+02:00</time>
      </trkpt>
      <trkpt lat="47.45195" lon="5.59977">
        <ele>189.60059</ele>
        <time>2026-05-16T09:24:10+02:00</time>
      </trkpt>
      <trkpt lat="47.45193" lon="5.59971">
        <ele>189.90039</ele>
        <time>2026-05-16T09:24:11+02:00</time>
      </trkpt>
      <trkpt lat="47.45191" lon="5.59965">
        <ele>190</ele>
        <time>2026-05-16T09:24:12+02:00</time>
      </trkpt>
      <trkpt lat="47.4519" lon="5.59959">
        <ele>190.2002</ele>
        <time>2026-05-16T09:24:13+02:00</time>
      </trkpt>
      <trkpt lat="47.45188" lon="5.59953">
        <ele>190.2998</ele>
        <time>2026-05-16T09:24:14+02:00</time>
      </trkpt>
      <trkpt lat="47.45186" lon="5.59947">
        <ele>190.5</ele>
        <time>2026-05-16T09:24:15+02:00</time>
      </trkpt>
      <trkpt lat="47.45184" lon="5.59941">
        <ele>190.60059</ele>
        <time>2026-05-16T09:24:16+02:00</time>
      </trkpt>
      <trkpt lat="47.45183" lon="5.59935">
        <ele>190.60059</ele>
        <time>2026-05-16T09:24:17+02:00</time>
      </trkpt>
      <trkpt lat="47.45181" lon="5.59929">
        <ele>190.7002</ele>
        <time>2026-05-16T09:24:18+02:00</time>
      </trkpt>
      <trkpt lat="47.4518" lon="5.59924">
        <ele>190.60059</ele>
        <time>2026-05-16T09:24:19+02:00</time>
      </trkpt>
      <trkpt lat="47.45179" lon="5.59919">
        <ele>190.60059</ele>
        <time>2026-05-16T09:24:20+02:00</time>
      </trkpt>
      <trkpt lat="47.45179" lon="5.59913">
        <ele>190.40039</ele>
        <time>2026-05-16T09:24:21+02:00</time>
      </trkpt>
      <trkpt lat="47.45177" lon="5.59908">
        <ele>190.60059</ele>
        <time>2026-05-16T09:24:22+02:00</time>
      </trkpt>
      <trkpt lat="47.45175" lon="5.59903">
        <ele>190.5</ele>
        <time>2026-05-16T09:24:23+02:00</time>
      </trkpt>
      <trkpt lat="47.45173" lon="5.59898">
        <ele>190.5</ele>
        <time>2026-05-16T09:24:24+02:00</time>
      </trkpt>
      <trkpt lat="47.4517" lon="5.59893">
        <ele>190.7998</ele>
        <time>2026-05-16T09:24:25+02:00</time>
      </trkpt>
      <trkpt lat="47.45167" lon="5.59889">
        <ele>191</ele>
        <time>2026-05-16T09:24:26+02:00</time>
      </trkpt>
      <trkpt lat="47.45164" lon="5.59885">
        <ele>191.2998</ele>
        <time>2026-05-16T09:24:27+02:00</time>
      </trkpt>
      <trkpt lat="47.45161" lon="5.59881">
        <ele>191.5</ele>
        <time>2026-05-16T09:24:28+02:00</time>
      </trkpt>
      <trkpt lat="47.45157" lon="5.59877">
        <ele>191.7002</ele>
        <time>2026-05-16T09:24:29+02:00</time>
      </trkpt>
      <trkpt lat="47.45154" lon="5.59873">
        <ele>191.7998</ele>
        <time>2026-05-16T09:24:30+02:00</time>
      </trkpt>
      <trkpt lat="47.45151" lon="5.59869">
        <ele>192</ele>
        <time>2026-05-16T09:24:31+02:00</time>
      </trkpt>
      <trkpt lat="47.45147" lon="5.59866">
        <ele>192.2002</ele>
        <time>2026-05-16T09:24:32+02:00</time>
      </trkpt>
      <trkpt lat="47.45144" lon="5.59862">
        <ele>192.2002</ele>
        <time>2026-05-16T09:24:33+02:00</time>
      </trkpt>
      <trkpt lat="47.4514" lon="5.59858">
        <ele>192.40039</ele>
        <time>2026-05-16T09:24:34+02:00</time>
      </trkpt>
      <trkpt lat="47.45137" lon="5.59854">
        <ele>192.2998</ele>
        <time>2026-05-16T09:24:35+02:00</time>
      </trkpt>
      <trkpt lat="47.45133" lon="5.59849">
        <ele>192.7002</ele>
        <time>2026-05-16T09:24:36+02:00</time>
      </trkpt>
      <trkpt lat="47.4513" lon="5.59845">
        <ele>193.2998</ele>
        <time>2026-05-16T09:24:37+02:00</time>
      </trkpt>
      <trkpt lat="47.45126" lon="5.59841">
        <ele>193.2998</ele>
        <time>2026-05-16T09:24:38+02:00</time>
      </trkpt>
      <trkpt lat="47.45123" lon="5.59837">
        <ele>193.60059</ele>
        <time>2026-05-16T09:24:39+02:00</time>
      </trkpt>
      <trkpt lat="47.4512" lon="5.59833">
        <ele>193.60059</ele>
        <time>2026-05-16T09:24:40+02:00</time>
      </trkpt>
      <trkpt lat="47.45116" lon="5.59829">
        <ele>193.60059</ele>
        <time>2026-05-16T09:24:41+02:00</time>
      </trkpt>
      <trkpt lat="47.45113" lon="5.59824">
        <ele>194</ele>
        <time>2026-05-16T09:24:42+02:00</time>
      </trkpt>
      <trkpt lat="47.45109" lon="5.5982">
        <ele>193.5</ele>
        <time>2026-05-16T09:24:43+02:00</time>
      </trkpt>
      <trkpt lat="47.45105" lon="5.59817">
        <ele>194.2002</ele>
        <time>2026-05-16T09:24:44+02:00</time>
      </trkpt>
      <trkpt lat="47.45101" lon="5.59813">
        <ele>194.7002</ele>
        <time>2026-05-16T09:24:45+02:00</time>
      </trkpt>
      <trkpt lat="47.45097" lon="5.59809">
        <ele>194.7002</ele>
        <time>2026-05-16T09:24:46+02:00</time>
      </trkpt>
      <trkpt lat="47.45093" lon="5.59806">
        <ele>195.10059</ele>
        <time>2026-05-16T09:24:47+02:00</time>
      </trkpt>
      <trkpt lat="47.4509" lon="5.59802">
        <ele>195.2002</ele>
        <time>2026-05-16T09:24:48+02:00</time>
      </trkpt>
      <trkpt lat="47.45086" lon="5.59798">
        <ele>195.2002</ele>
        <time>2026-05-16T09:24:49+02:00</time>
      </trkpt>
      <trkpt lat="47.45083" lon="5.59793">
        <ele>194.90039</ele>
        <time>2026-05-16T09:24:50+02:00</time>
      </trkpt>
      <trkpt lat="47.4508" lon="5.59789">
        <ele>194.90039</ele>
        <time>2026-05-16T09:24:51+02:00</time>
      </trkpt>
      <trkpt lat="47.45077" lon="5.59785">
        <ele>194.5</ele>
        <time>2026-05-16T09:24:52+02:00</time>
      </trkpt>
      <trkpt lat="47.45073" lon="5.59781">
        <ele>194.5</ele>
        <time>2026-05-16T09:24:53+02:00</time>
      </trkpt>
      <trkpt lat="47.4507" lon="5.59776">
        <ele>194.2002</ele>
        <time>2026-05-16T09:24:54+02:00</time>
      </trkpt>
      <trkpt lat="47.45067" lon="5.59771">
        <ele>193.90039</ele>
        <time>2026-05-16T09:24:55+02:00</time>
      </trkpt>
      <trkpt lat="47.45064" lon="5.59767">
        <ele>193.90039</ele>
        <time>2026-05-16T09:24:56+02:00</time>
      </trkpt>
      <trkpt lat="47.4506" lon="5.59762">
        <ele>193.60059</ele>
        <time>2026-05-16T09:24:57+02:00</time>
      </trkpt>
      <trkpt lat="47.45057" lon="5.59757">
        <ele>193.5</ele>
        <time>2026-05-16T09:24:58+02:00</time>
      </trkpt>
      <trkpt lat="47.45054" lon="5.59752">
        <ele>193.10059</ele>
        <time>2026-05-16T09:24:59+02:00</time>
      </trkpt>
      <trkpt lat="47.45051" lon="5.59747">
        <ele>193.10059</ele>
        <time>2026-05-16T09:25:00+02:00</time>
      </trkpt>
      <trkpt lat="47.45048" lon="5.59743">
        <ele>192.7998</ele>
        <time>2026-05-16T09:25:01+02:00</time>
      </trkpt>
      <trkpt lat="47.45044" lon="5.59738">
        <ele>192.7998</ele>
        <time>2026-05-16T09:25:02+02:00</time>
      </trkpt>
      <trkpt lat="47.4504" lon="5.59734">
        <ele>192.60059</ele>
        <time>2026-05-16T09:25:03+02:00</time>
      </trkpt>
      <trkpt lat="47.45037" lon="5.59729">
        <ele>192.40039</ele>
        <time>2026-05-16T09:25:04+02:00</time>
      </trkpt>
      <trkpt lat="47.45033" lon="5.59725">
        <ele>192.40039</ele>
        <time>2026-05-16T09:25:05+02:00</time>
      </trkpt>
      <trkpt lat="47.4503" lon="5.59721">
        <ele>192.10059</ele>
        <time>2026-05-16T09:25:06+02:00</time>
      </trkpt>
      <trkpt lat="47.45026" lon="5.59717">
        <ele>192</ele>
        <time>2026-05-16T09:25:07+02:00</time>
      </trkpt>
      <trkpt lat="47.45023" lon="5.59713">
        <ele>192</ele>
        <time>2026-05-16T09:25:08+02:00</time>
      </trkpt>
      <trkpt lat="47.45019" lon="5.5971">
        <ele>191.90039</ele>
        <time>2026-05-16T09:25:09+02:00</time>
      </trkpt>
      <trkpt lat="47.45015" lon="5.59706">
        <ele>191.90039</ele>
        <time>2026-05-16T09:25:10+02:00</time>
      </trkpt>
      <trkpt lat="47.45012" lon="5.59703">
        <ele>191.7002</ele>
        <time>2026-05-16T09:25:11+02:00</time>
      </trkpt>
      <trkpt lat="47.45008" lon="5.597">
        <ele>191.60059</ele>
        <time>2026-05-16T09:25:12+02:00</time>
      </trkpt>
      <trkpt lat="47.45004" lon="5.59697">
        <ele>191.60059</ele>
        <time>2026-05-16T09:25:13+02:00</time>
      </trkpt>
      <trkpt lat="47.45001" lon="5.59695">
        <ele>191.5</ele>
        <time>2026-05-16T09:25:14+02:00</time>
      </trkpt>
      <trkpt lat="47.44997" lon="5.59692">
        <ele>191.40039</ele>
        <time>2026-05-16T09:25:15+02:00</time>
      </trkpt>
      <trkpt lat="47.44993" lon="5.5969">
        <ele>191.40039</ele>
        <time>2026-05-16T09:25:16+02:00</time>
      </trkpt>
      <trkpt lat="47.44989" lon="5.59688">
        <ele>191.2998</ele>
        <time>2026-05-16T09:25:17+02:00</time>
      </trkpt>
      <trkpt lat="47.44985" lon="5.59686">
        <ele>191.10059</ele>
        <time>2026-05-16T09:25:18+02:00</time>
      </trkpt>
      <trkpt lat="47.44981" lon="5.59684">
        <ele>191.2002</ele>
        <time>2026-05-16T09:25:19+02:00</time>
      </trkpt>
      <trkpt lat="47.44977" lon="5.59683">
        <ele>191</ele>
        <time>2026-05-16T09:25:20+02:00</time>
      </trkpt>
      <trkpt lat="47.44973" lon="5.59682">
        <ele>190.90039</ele>
        <time>2026-05-16T09:25:21+02:00</time>
      </trkpt>
      <trkpt lat="47.44969" lon="5.59681">
        <ele>190.90039</ele>
        <time>2026-05-16T09:25:22+02:00</time>
      </trkpt>
      <trkpt lat="47.44964" lon="5.59681">
        <ele>190.90039</ele>
        <time>2026-05-16T09:25:23+02:00</time>
      </trkpt>
      <trkpt lat="47.4496" lon="5.59681">
        <ele>190.7998</ele>
        <time>2026-05-16T09:25:24+02:00</time>
      </trkpt>
      <trkpt lat="47.44956" lon="5.59681">
        <ele>190.7002</ele>
        <time>2026-05-16T09:25:25+02:00</time>
      </trkpt>
      <trkpt lat="47.44951" lon="5.59681">
        <ele>190.60059</ele>
        <time>2026-05-16T09:25:26+02:00</time>
      </trkpt>
      <trkpt lat="47.44947" lon="5.59681">
        <ele>190.60059</ele>
        <time>2026-05-16T09:25:27+02:00</time>
      </trkpt>
      <trkpt lat="47.44943" lon="5.5968">
        <ele>190.60059</ele>
        <time>2026-05-16T09:25:28+02:00</time>
      </trkpt>
      <trkpt lat="47.44938" lon="5.5968">
        <ele>190.5</ele>
        <time>2026-05-16T09:25:29+02:00</time>
      </trkpt>
      <trkpt lat="47.44934" lon="5.5968">
        <ele>190.5</ele>
        <time>2026-05-16T09:25:30+02:00</time>
      </trkpt>
      <trkpt lat="47.44929" lon="5.59679">
        <ele>190.5</ele>
        <time>2026-05-16T09:25:31+02:00</time>
      </trkpt>
      <trkpt lat="47.44925" lon="5.59678">
        <ele>190.40039</ele>
        <time>2026-05-16T09:25:32+02:00</time>
      </trkpt>
      <trkpt lat="47.44921" lon="5.59676">
        <ele>190.40039</ele>
        <time>2026-05-16T09:25:33+02:00</time>
      </trkpt>
      <trkpt lat="47.44917" lon="5.59674">
        <ele>190.40039</ele>
        <time>2026-05-16T09:25:34+02:00</time>
      </trkpt>
      <trkpt lat="47.44913" lon="5.59672">
        <ele>190.40039</ele>
        <time>2026-05-16T09:25:35+02:00</time>
      </trkpt>
      <trkpt lat="47.44909" lon="5.59669">
        <ele>190.40039</ele>
        <time>2026-05-16T09:25:36+02:00</time>
      </trkpt>
      <trkpt lat="47.44906" lon="5.59665">
        <ele>190.40039</ele>
        <time>2026-05-16T09:25:37+02:00</time>
      </trkpt>
      <trkpt lat="47.44902" lon="5.5966">
        <ele>190.40039</ele>
        <time>2026-05-16T09:25:38+02:00</time>
      </trkpt>
      <trkpt lat="47.44898" lon="5.59655">
        <ele>190.40039</ele>
        <time>2026-05-16T09:25:39+02:00</time>
      </trkpt>
      <trkpt lat="47.44895" lon="5.59651">
        <ele>190.40039</ele>
        <time>2026-05-16T09:25:40+02:00</time>
      </trkpt>
      <trkpt lat="47.44891" lon="5.59646">
        <ele>190.40039</ele>
        <time>2026-05-16T09:25:41+02:00</time>
      </trkpt>
      <trkpt lat="47.44888" lon="5.59642">
        <ele>190.40039</ele>
        <time>2026-05-16T09:25:42+02:00</time>
      </trkpt>
      <trkpt lat="47.44885" lon="5.59638">
        <ele>190.5</ele>
        <time>2026-05-16T09:25:43+02:00</time>
      </trkpt>
      <trkpt lat="47.44882" lon="5.59634">
        <ele>190.5</ele>
        <time>2026-05-16T09:25:44+02:00</time>
      </trkpt>
      <trkpt lat="47.44879" lon="5.5963">
        <ele>190.40039</ele>
        <time>2026-05-16T09:25:45+02:00</time>
      </trkpt>
      <trkpt lat="47.44877" lon="5.59626">
        <ele>190.40039</ele>
        <time>2026-05-16T09:25:46+02:00</time>
      </trkpt>
      <trkpt lat="47.44875" lon="5.59623">
        <ele>190.40039</ele>
        <time>2026-05-16T09:25:47+02:00</time>
      </trkpt>
      <trkpt lat="47.44872" lon="5.59621">
        <ele>190.40039</ele>
        <time>2026-05-16T09:25:48+02:00</time>
      </trkpt>
      <trkpt lat="47.44869" lon="5.59621">
        <ele>190.5</ele>
        <time>2026-05-16T09:25:49+02:00</time>
      </trkpt>
      <trkpt lat="47.44867" lon="5.59622">
        <ele>190.5</ele>
        <time>2026-05-16T09:25:50+02:00</time>
      </trkpt>
      <trkpt lat="47.44864" lon="5.59625">
        <ele>190.5</ele>
        <time>2026-05-16T09:25:51+02:00</time>
      </trkpt>
      <trkpt lat="47.44862" lon="5.59629">
        <ele>190.5</ele>
        <time>2026-05-16T09:25:52+02:00</time>
      </trkpt>
      <trkpt lat="47.4486" lon="5.59633">
        <ele>190.5</ele>
        <time>2026-05-16T09:25:53+02:00</time>
      </trkpt>
      <trkpt lat="47.44858" lon="5.59638">
        <ele>190.60059</ele>
        <time>2026-05-16T09:25:54+02:00</time>
      </trkpt>
      <trkpt lat="47.44855" lon="5.59642">
        <ele>190.60059</ele>
        <time>2026-05-16T09:25:55+02:00</time>
      </trkpt>
      <trkpt lat="47.44853" lon="5.59647">
        <ele>190.60059</ele>
        <time>2026-05-16T09:25:56+02:00</time>
      </trkpt>
      <trkpt lat="47.4485" lon="5.59652">
        <ele>190.60059</ele>
        <time>2026-05-16T09:25:57+02:00</time>
      </trkpt>
      <trkpt lat="47.44849" lon="5.59657">
        <ele>190.60059</ele>
        <time>2026-05-16T09:25:58+02:00</time>
      </trkpt>
      <trkpt lat="47.44847" lon="5.59662">
        <ele>190.60059</ele>
        <time>2026-05-16T09:25:59+02:00</time>
      </trkpt>
      <trkpt lat="47.44845" lon="5.59668">
        <ele>190.60059</ele>
        <time>2026-05-16T09:26:00+02:00</time>
      </trkpt>
      <trkpt lat="47.44844" lon="5.59673">
        <ele>190.60059</ele>
        <time>2026-05-16T09:26:01+02:00</time>
      </trkpt>
      <trkpt lat="47.44843" lon="5.59678">
        <ele>190.60059</ele>
        <time>2026-05-16T09:26:02+02:00</time>
      </trkpt>
      <trkpt lat="47.44842" lon="5.59683">
        <ele>190.60059</ele>
        <time>2026-05-16T09:26:03+02:00</time>
      </trkpt>
      <trkpt lat="47.44841" lon="5.59688">
        <ele>190.60059</ele>
        <time>2026-05-16T09:26:04+02:00</time>
      </trkpt>
      <trkpt lat="47.44841" lon="5.59693">
        <ele>190.60059</ele>
        <time>2026-05-16T09:26:05+02:00</time>
      </trkpt>
      <trkpt lat="47.4484" lon="5.59696">
        <ele>190.60059</ele>
        <time>2026-05-16T09:26:06+02:00</time>
      </trkpt>
      <trkpt lat="47.44839" lon="5.597">
        <ele>190.60059</ele>
        <time>2026-05-16T09:26:07+02:00</time>
      </trkpt>
      <trkpt lat="47.44838" lon="5.59703">
        <ele>190.60059</ele>
        <time>2026-05-16T09:26:08+02:00</time>
      </trkpt>
      <trkpt lat="47.44838" lon="5.59707">
        <ele>190.60059</ele>
        <time>2026-05-16T09:26:09+02:00</time>
      </trkpt>
      <trkpt lat="47.44838" lon="5.5971">
        <ele>190.60059</ele>
        <time>2026-05-16T09:26:10+02:00</time>
      </trkpt>
      <trkpt lat="47.44837" lon="5.59712">
        <ele>190.5</ele>
        <time>2026-05-16T09:26:11+02:00</time>
      </trkpt>
      <trkpt lat="47.44837" lon="5.59714">
        <ele>190.5</ele>
        <time>2026-05-16T09:26:12+02:00</time>
      </trkpt>
      <trkpt lat="47.44836" lon="5.59716">
        <ele>190.5</ele>
        <time>2026-05-16T09:26:13+02:00</time>
      </trkpt>
      <trkpt lat="47.44836" lon="5.59718">
        <ele>190.5</ele>
        <time>2026-05-16T09:26:14+02:00</time>
      </trkpt>
      <trkpt lat="47.44835" lon="5.5972">
        <ele>190.5</ele>
        <time>2026-05-16T09:26:15+02:00</time>
      </trkpt>
      <trkpt lat="47.44834" lon="5.5972">
        <ele>190.5</ele>
        <time>2026-05-16T09:26:16+02:00</time>
      </trkpt>
      <trkpt lat="47.44832" lon="5.59719">
        <ele>190.5</ele>
        <time>2026-05-16T09:26:17+02:00</time>
      </trkpt>
      <trkpt lat="47.4483" lon="5.59719">
        <ele>190.5</ele>
        <time>2026-05-16T09:26:18+02:00</time>
      </trkpt>
      <trkpt lat="47.44828" lon="5.59718">
        <ele>190.5</ele>
        <time>2026-05-16T09:26:19+02:00</time>
      </trkpt>
      <trkpt lat="47.44827" lon="5.59718">
        <ele>190.5</ele>
        <time>2026-05-16T09:26:20+02:00</time>
      </trkpt>
      <trkpt lat="47.44826" lon="5.59719">
        <ele>190.5</ele>
        <time>2026-05-16T09:26:21+02:00</time>
      </trkpt>
      <trkpt lat="47.44825" lon="5.59719">
        <ele>190.5</ele>
        <time>2026-05-16T09:26:22+02:00</time>
      </trkpt>
      <trkpt lat="47.44825" lon="5.59719">
        <ele>190.5</ele>
        <time>2026-05-16T09:26:23+02:00</time>
      </trkpt>
      <trkpt lat="47.44825" lon="5.59719">
        <ele>190.5</ele>
        <time>2026-05-16T09:26:24+02:00</time>
      </trkpt>
      <trkpt lat="47.44817" lon="5.5971">
        <ele>190.5</ele>
        <time>2026-05-16T09:26:30+02:00</time>
      </trkpt>
      <trkpt lat="47.44817" lon="5.59709">
        <ele>190.5</ele>
        <time>2026-05-16T09:26:31+02:00</time>
      </trkpt>
      <trkpt lat="47.44817" lon="5.59709">
        <ele>190.5</ele>
        <time>2026-05-16T09:26:32+02:00</time>
      </trkpt>
      <trkpt lat="47.44817" lon="5.59709">
        <ele>190.5</ele>
        <time>2026-05-16T09:26:33+02:00</time>
      </trkpt>
      <trkpt lat="47.45249" lon="5.60169">
        <ele>191.10059</ele>
        <time>2026-05-16T09:45:11+02:00</time>
      </trkpt>
      <trkpt lat="47.4525" lon="5.60174">
        <ele>191</ele>
        <time>2026-05-16T09:45:12+02:00</time>
      </trkpt>
      <trkpt lat="47.45252" lon="5.6018">
        <ele>191</ele>
        <time>2026-05-16T09:45:13+02:00</time>
      </trkpt>
      <trkpt lat="47.45254" lon="5.60186">
        <ele>190.90039</ele>
        <time>2026-05-16T09:45:14+02:00</time>
      </trkpt>
      <trkpt lat="47.45255" lon="5.60192">
        <ele>190.7002</ele>
        <time>2026-05-16T09:45:15+02:00</time>
      </trkpt>
      <trkpt lat="47.45257" lon="5.60198">
        <ele>190.7002</ele>
        <time>2026-05-16T09:45:16+02:00</time>
      </trkpt>
      <trkpt lat="47.45258" lon="5.60205">
        <ele>190.5</ele>
        <time>2026-05-16T09:45:17+02:00</time>
      </trkpt>
      <trkpt lat="47.4526" lon="5.60212">
        <ele>190.40039</ele>
        <time>2026-05-16T09:45:18+02:00</time>
      </trkpt>
      <trkpt lat="47.45263" lon="5.60219">
        <ele>190.2002</ele>
        <time>2026-05-16T09:45:19+02:00</time>
      </trkpt>
      <trkpt lat="47.45265" lon="5.60225">
        <ele>190.2998</ele>
        <time>2026-05-16T09:45:20+02:00</time>
      </trkpt>
      <trkpt lat="47.45268" lon="5.60232">
        <ele>190.2002</ele>
        <time>2026-05-16T09:45:21+02:00</time>
      </trkpt>
      <trkpt lat="47.4527" lon="5.60238">
        <ele>190.2998</ele>
        <time>2026-05-16T09:45:22+02:00</time>
      </trkpt>
      <trkpt lat="47.45273" lon="5.60245">
        <ele>190.2998</ele>
        <time>2026-05-16T09:45:23+02:00</time>
      </trkpt>
      <trkpt lat="47.45274" lon="5.60252">
        <ele>190.40039</ele>
        <time>2026-05-16T09:45:24+02:00</time>
      </trkpt>
      <trkpt lat="47.45276" lon="5.60259">
        <ele>190.40039</ele>
        <time>2026-05-16T09:45:25+02:00</time>
      </trkpt>
      <trkpt lat="47.45279" lon="5.60266">
        <ele>190.60059</ele>
        <time>2026-05-16T09:45:26+02:00</time>
      </trkpt>
      <trkpt lat="47.45281" lon="5.60273">
        <ele>190.7998</ele>
        <time>2026-05-16T09:45:27+02:00</time>
      </trkpt>
      <trkpt lat="47.45282" lon="5.6028">
        <ele>191</ele>
        <time>2026-05-16T09:45:28+02:00</time>
      </trkpt>
      <trkpt lat="47.45284" lon="5.60287">
        <ele>191.2002</ele>
        <time>2026-05-16T09:45:29+02:00</time>
      </trkpt>
      <trkpt lat="47.45286" lon="5.60294">
        <ele>191.2002</ele>
        <time>2026-05-16T09:45:30+02:00</time>
      </trkpt>
      <trkpt lat="47.45288" lon="5.60301">
        <ele>191.40039</ele>
        <time>2026-05-16T09:45:31+02:00</time>
      </trkpt>
      <trkpt lat="47.4529" lon="5.60308">
        <ele>191.60059</ele>
        <time>2026-05-16T09:45:32+02:00</time>
      </trkpt>
      <trkpt lat="47.45292" lon="5.60315">
        <ele>191.7998</ele>
        <time>2026-05-16T09:45:33+02:00</time>
      </trkpt>
      <trkpt lat="47.45294" lon="5.60322">
        <ele>191.7998</ele>
        <time>2026-05-16T09:45:34+02:00</time>
      </trkpt>
      <trkpt lat="47.45296" lon="5.60329">
        <ele>191.90039</ele>
        <time>2026-05-16T09:45:35+02:00</time>
      </trkpt>
      <trkpt lat="47.45298" lon="5.60336">
        <ele>191.90039</ele>
        <time>2026-05-16T09:45:36+02:00</time>
      </trkpt>
      <trkpt lat="47.453" lon="5.60344">
        <ele>191.7998</ele>
        <time>2026-05-16T09:45:37+02:00</time>
      </trkpt>
      <trkpt lat="47.45302" lon="5.60351">
        <ele>191.7998</ele>
        <time>2026-05-16T09:45:38+02:00</time>
      </trkpt>
      <trkpt lat="47.45304" lon="5.60359">
        <ele>191.90039</ele>
        <time>2026-05-16T09:45:39+02:00</time>
      </trkpt>
      <trkpt lat="47.45307" lon="5.60366">
        <ele>191.7998</ele>
        <time>2026-05-16T09:45:40+02:00</time>
      </trkpt>
      <trkpt lat="47.45309" lon="5.60373">
        <ele>191.7998</ele>
        <time>2026-05-16T09:45:41+02:00</time>
      </trkpt>
      <trkpt lat="47.45312" lon="5.6038">
        <ele>191.7002</ele>
        <time>2026-05-16T09:45:42+02:00</time>
      </trkpt>
      <trkpt lat="47.45315" lon="5.60387">
        <ele>191.7002</ele>
        <time>2026-05-16T09:45:43+02:00</time>
      </trkpt>
      <trkpt lat="47.45318" lon="5.60393">
        <ele>191.40039</ele>
        <time>2026-05-16T09:45:44+02:00</time>
      </trkpt>
      <trkpt lat="47.45323" lon="5.60396">
        <ele>191.40039</ele>
        <time>2026-05-16T09:45:45+02:00</time>
      </trkpt>
      <trkpt lat="47.45329" lon="5.60398">
        <ele>191</ele>
        <time>2026-05-16T09:45:46+02:00</time>
      </trkpt>
      <trkpt lat="47.45334" lon="5.60399">
        <ele>191</ele>
        <time>2026-05-16T09:45:47+02:00</time>
      </trkpt>
      <trkpt lat="47.4534" lon="5.60399">
        <ele>190.90039</ele>
        <time>2026-05-16T09:45:48+02:00</time>
      </trkpt>
      <trkpt lat="47.45345" lon="5.60397">
        <ele>191.10059</ele>
        <time>2026-05-16T09:45:49+02:00</time>
      </trkpt>
      <trkpt lat="47.4535" lon="5.60394">
        <ele>191</ele>
        <time>2026-05-16T09:45:50+02:00</time>
      </trkpt>
      <trkpt lat="47.45355" lon="5.6039">
        <ele>190.90039</ele>
        <time>2026-05-16T09:45:51+02:00</time>
      </trkpt>
      <trkpt lat="47.45359" lon="5.60386">
        <ele>191</ele>
        <time>2026-05-16T09:45:52+02:00</time>
      </trkpt>
      <trkpt lat="47.45364" lon="5.60383">
        <ele>190.90039</ele>
        <time>2026-05-16T09:45:53+02:00</time>
      </trkpt>
      <trkpt lat="47.45368" lon="5.6038">
        <ele>190.90039</ele>
        <time>2026-05-16T09:45:54+02:00</time>
      </trkpt>
      <trkpt lat="47.4537" lon="5.60377">
        <ele>190.90039</ele>
        <time>2026-05-16T09:45:55+02:00</time>
      </trkpt>
      <trkpt lat="47.45373" lon="5.60375">
        <ele>190.90039</ele>
        <time>2026-05-16T09:45:56+02:00</time>
      </trkpt>
      <trkpt lat="47.45375" lon="5.60374">
        <ele>190.7002</ele>
        <time>2026-05-16T09:45:57+02:00</time>
      </trkpt>
      <trkpt lat="47.45376" lon="5.60372">
        <ele>190.7002</ele>
        <time>2026-05-16T09:45:58+02:00</time>
      </trkpt>
      <trkpt lat="47.45378" lon="5.60371">
        <ele>190.7998</ele>
        <time>2026-05-16T09:45:59+02:00</time>
      </trkpt>
      <trkpt lat="47.45379" lon="5.60371">
        <ele>190.7998</ele>
        <time>2026-05-16T09:46:00+02:00</time>
      </trkpt>
      <trkpt lat="47.4538" lon="5.60371">
        <ele>190.7998</ele>
        <time>2026-05-16T09:46:01+02:00</time>
      </trkpt>
      <trkpt lat="47.4538" lon="5.6037">
        <ele>190.7998</ele>
        <time>2026-05-16T09:46:02+02:00</time>
      </trkpt>
      <trkpt lat="47.45381" lon="5.6037">
        <ele>190.60059</ele>
        <time>2026-05-16T09:46:03+02:00</time>
      </trkpt>
      <trkpt lat="47.45381" lon="5.6037">
        <ele>190.60059</ele>
        <time>2026-05-16T09:46:04+02:00</time>
      </trkpt>
      <trkpt lat="47.45402" lon="5.6036">
        <ele>190.40039</ele>
        <time>2026-05-16T09:47:05+02:00</time>
      </trkpt>
      <trkpt lat="47.45406" lon="5.60361">
        <ele>190.2002</ele>
        <time>2026-05-16T09:47:06+02:00</time>
      </trkpt>
      <trkpt lat="47.4541" lon="5.60362">
        <ele>190</ele>
        <time>2026-05-16T09:47:07+02:00</time>
      </trkpt>
      <trkpt lat="47.45413" lon="5.60365">
        <ele>189.5</ele>
        <time>2026-05-16T09:47:08+02:00</time>
      </trkpt>
      <trkpt lat="47.45416" lon="5.60369">
        <ele>189.2002</ele>
        <time>2026-05-16T09:47:09+02:00</time>
      </trkpt>
      <trkpt lat="47.45419" lon="5.60373">
        <ele>188.7998</ele>
        <time>2026-05-16T09:47:10+02:00</time>
      </trkpt>
      <trkpt lat="47.45422" lon="5.60378">
        <ele>188.60059</ele>
        <time>2026-05-16T09:47:11+02:00</time>
      </trkpt>
      <trkpt lat="47.45425" lon="5.60382">
        <ele>188.40039</ele>
        <time>2026-05-16T09:47:12+02:00</time>
      </trkpt>
      <trkpt lat="47.45429" lon="5.60387">
        <ele>188.40039</ele>
        <time>2026-05-16T09:47:13+02:00</time>
      </trkpt>
      <trkpt lat="47.45432" lon="5.60392">
        <ele>188.2002</ele>
        <time>2026-05-16T09:47:14+02:00</time>
      </trkpt>
      <trkpt lat="47.45436" lon="5.60396">
        <ele>188.40039</ele>
        <time>2026-05-16T09:47:15+02:00</time>
      </trkpt>
      <trkpt lat="47.4544" lon="5.604">
        <ele>188.60059</ele>
        <time>2026-05-16T09:47:16+02:00</time>
      </trkpt>
      <trkpt lat="47.45443" lon="5.60405">
        <ele>188.60059</ele>
        <time>2026-05-16T09:47:17+02:00</time>
      </trkpt>
      <trkpt lat="47.45448" lon="5.60409">
        <ele>189.10059</ele>
        <time>2026-05-16T09:47:18+02:00</time>
      </trkpt>
      <trkpt lat="47.45451" lon="5.60414">
        <ele>189.40039</ele>
        <time>2026-05-16T09:47:19+02:00</time>
      </trkpt>
      <trkpt lat="47.45456" lon="5.60418">
        <ele>189.7002</ele>
        <time>2026-05-16T09:47:20+02:00</time>
      </trkpt>
      <trkpt lat="47.45459" lon="5.60422">
        <ele>189.7002</ele>
        <time>2026-05-16T09:47:21+02:00</time>
      </trkpt>
      <trkpt lat="47.45464" lon="5.60427">
        <ele>189.7998</ele>
        <time>2026-05-16T09:47:22+02:00</time>
      </trkpt>
      <trkpt lat="47.45468" lon="5.60431">
        <ele>189.7998</ele>
        <time>2026-05-16T09:47:23+02:00</time>
      </trkpt>
      <trkpt lat="47.45472" lon="5.60435">
        <ele>189.7998</ele>
        <time>2026-05-16T09:47:24+02:00</time>
      </trkpt>
      <trkpt lat="47.45476" lon="5.6044">
        <ele>189.90039</ele>
        <time>2026-05-16T09:47:25+02:00</time>
      </trkpt>
      <trkpt lat="47.4548" lon="5.60444">
        <ele>190</ele>
        <time>2026-05-16T09:47:26+02:00</time>
      </trkpt>
      <trkpt lat="47.45485" lon="5.60447">
        <ele>189.90039</ele>
        <time>2026-05-16T09:47:27+02:00</time>
      </trkpt>
      <trkpt lat="47.45489" lon="5.60451">
        <ele>189.90039</ele>
        <time>2026-05-16T09:47:28+02:00</time>
      </trkpt>
      <trkpt lat="47.45494" lon="5.60455">
        <ele>189.90039</ele>
        <time>2026-05-16T09:47:29+02:00</time>
      </trkpt>
      <trkpt lat="47.45498" lon="5.6046">
        <ele>190</ele>
        <time>2026-05-16T09:47:30+02:00</time>
      </trkpt>
      <trkpt lat="47.45503" lon="5.60464">
        <ele>190.10059</ele>
        <time>2026-05-16T09:47:31+02:00</time>
      </trkpt>
      <trkpt lat="47.45507" lon="5.60468">
        <ele>190.2998</ele>
        <time>2026-05-16T09:47:32+02:00</time>
      </trkpt>
      <trkpt lat="47.45512" lon="5.60472">
        <ele>190.40039</ele>
        <time>2026-05-16T09:47:33+02:00</time>
      </trkpt>
      <trkpt lat="47.45516" lon="5.60475">
        <ele>190.7002</ele>
        <time>2026-05-16T09:47:34+02:00</time>
      </trkpt>
      <trkpt lat="47.45521" lon="5.60479">
        <ele>190.7998</ele>
        <time>2026-05-16T09:47:35+02:00</time>
      </trkpt>
      <trkpt lat="47.45525" lon="5.60483">
        <ele>190.7998</ele>
        <time>2026-05-16T09:47:36+02:00</time>
      </trkpt>
      <trkpt lat="47.4553" lon="5.60487">
        <ele>190.90039</ele>
        <time>2026-05-16T09:47:37+02:00</time>
      </trkpt>
      <trkpt lat="47.45535" lon="5.60491">
        <ele>191</ele>
        <time>2026-05-16T09:47:38+02:00</time>
      </trkpt>
      <trkpt lat="47.45539" lon="5.60496">
        <ele>190.90039</ele>
        <time>2026-05-16T09:47:39+02:00</time>
      </trkpt>
      <trkpt lat="47.45543" lon="5.605">
        <ele>190.90039</ele>
        <time>2026-05-16T09:47:40+02:00</time>
      </trkpt>
      <trkpt lat="47.45548" lon="5.60504">
        <ele>190.7998</ele>
        <time>2026-05-16T09:47:41+02:00</time>
      </trkpt>
      <trkpt lat="47.45553" lon="5.60507">
        <ele>190.90039</ele>
        <time>2026-05-16T09:47:42+02:00</time>
      </trkpt>
      <trkpt lat="47.45558" lon="5.6051">
        <ele>190.7998</ele>
        <time>2026-05-16T09:47:43+02:00</time>
      </trkpt>
      <trkpt lat="47.45563" lon="5.60514">
        <ele>190.90039</ele>
        <time>2026-05-16T09:47:44+02:00</time>
      </trkpt>
      <trkpt lat="47.45567" lon="5.60518">
        <ele>190.7002</ele>
        <time>2026-05-16T09:47:45+02:00</time>
      </trkpt>
      <trkpt lat="47.45572" lon="5.60522">
        <ele>190.7002</ele>
        <time>2026-05-16T09:47:46+02:00</time>
      </trkpt>
      <trkpt lat="47.45576" lon="5.60527">
        <ele>190.5</ele>
        <time>2026-05-16T09:47:47+02:00</time>
      </trkpt>
      <trkpt lat="47.4558" lon="5.60532">
        <ele>190.5</ele>
        <time>2026-05-16T09:47:48+02:00</time>
      </trkpt>
      <trkpt lat="47.45584" lon="5.60538">
        <ele>190.2998</ele>
        <time>2026-05-16T09:47:49+02:00</time>
      </trkpt>
      <trkpt lat="47.45587" lon="5.60544">
        <ele>190.10059</ele>
        <time>2026-05-16T09:47:50+02:00</time>
      </trkpt>
      <trkpt lat="47.4559" lon="5.60551">
        <ele>190.10059</ele>
        <time>2026-05-16T09:47:51+02:00</time>
      </trkpt>
      <trkpt lat="47.45591" lon="5.60559">
        <ele>189.7998</ele>
        <time>2026-05-16T09:47:52+02:00</time>
      </trkpt>
      <trkpt lat="47.45592" lon="5.60567">
        <ele>189.5</ele>
        <time>2026-05-16T09:47:53+02:00</time>
      </trkpt>
      <trkpt lat="47.45594" lon="5.60575">
        <ele>189.2998</ele>
        <time>2026-05-16T09:47:54+02:00</time>
      </trkpt>
      <trkpt lat="47.45595" lon="5.60582">
        <ele>189</ele>
        <time>2026-05-16T09:47:55+02:00</time>
      </trkpt>
      <trkpt lat="47.45596" lon="5.6059">
        <ele>188.7998</ele>
        <time>2026-05-16T09:47:56+02:00</time>
      </trkpt>
      <trkpt lat="47.45597" lon="5.60598">
        <ele>188.7002</ele>
        <time>2026-05-16T09:47:57+02:00</time>
      </trkpt>
      <trkpt lat="47.45598" lon="5.60605">
        <ele>188.60059</ele>
        <time>2026-05-16T09:47:58+02:00</time>
      </trkpt>
      <trkpt lat="47.45599" lon="5.60613">
        <ele>188.60059</ele>
        <time>2026-05-16T09:47:59+02:00</time>
      </trkpt>
      <trkpt lat="47.45601" lon="5.6062">
        <ele>188.60059</ele>
        <time>2026-05-16T09:48:00+02:00</time>
      </trkpt>
      <trkpt lat="47.45602" lon="5.60628">
        <ele>188.60059</ele>
        <time>2026-05-16T09:48:01+02:00</time>
      </trkpt>
      <trkpt lat="47.45603" lon="5.60636">
        <ele>188.60059</ele>
        <time>2026-05-16T09:48:02+02:00</time>
      </trkpt>
      <trkpt lat="47.45604" lon="5.60643">
        <ele>188.60059</ele>
        <time>2026-05-16T09:48:03+02:00</time>
      </trkpt>
      <trkpt lat="47.45606" lon="5.60651">
        <ele>188.60059</ele>
        <time>2026-05-16T09:48:04+02:00</time>
      </trkpt>
      <trkpt lat="47.45607" lon="5.60659">
        <ele>188.7002</ele>
        <time>2026-05-16T09:48:05+02:00</time>
      </trkpt>
      <trkpt lat="47.45608" lon="5.60666">
        <ele>188.7002</ele>
        <time>2026-05-16T09:48:06+02:00</time>
      </trkpt>
      <trkpt lat="47.45609" lon="5.60674">
        <ele>188.7998</ele>
        <time>2026-05-16T09:48:07+02:00</time>
      </trkpt>
      <trkpt lat="47.45611" lon="5.60682">
        <ele>188.90039</ele>
        <time>2026-05-16T09:48:08+02:00</time>
      </trkpt>
      <trkpt lat="47.45612" lon="5.6069">
        <ele>189</ele>
        <time>2026-05-16T09:48:09+02:00</time>
      </trkpt>
      <trkpt lat="47.45613" lon="5.60698">
        <ele>189.2002</ele>
        <time>2026-05-16T09:48:10+02:00</time>
      </trkpt>
      <trkpt lat="47.45614" lon="5.60706">
        <ele>189.2002</ele>
        <time>2026-05-16T09:48:11+02:00</time>
      </trkpt>
      <trkpt lat="47.45615" lon="5.60713">
        <ele>189.2998</ele>
        <time>2026-05-16T09:48:12+02:00</time>
      </trkpt>
      <trkpt lat="47.45617" lon="5.60721">
        <ele>189.40039</ele>
        <time>2026-05-16T09:48:13+02:00</time>
      </trkpt>
      <trkpt lat="47.45618" lon="5.60729">
        <ele>189.5</ele>
        <time>2026-05-16T09:48:14+02:00</time>
      </trkpt>
      <trkpt lat="47.45619" lon="5.60736">
        <ele>189.5</ele>
        <time>2026-05-16T09:48:15+02:00</time>
      </trkpt>
      <trkpt lat="47.4562" lon="5.60744">
        <ele>189.60059</ele>
        <time>2026-05-16T09:48:16+02:00</time>
      </trkpt>
      <trkpt lat="47.45621" lon="5.60751">
        <ele>189.60059</ele>
        <time>2026-05-16T09:48:17+02:00</time>
      </trkpt>
      <trkpt lat="47.45622" lon="5.60759">
        <ele>189.7002</ele>
        <time>2026-05-16T09:48:18+02:00</time>
      </trkpt>
      <trkpt lat="47.45623" lon="5.60766">
        <ele>189.7002</ele>
        <time>2026-05-16T09:48:19+02:00</time>
      </trkpt>
      <trkpt lat="47.45625" lon="5.60774">
        <ele>189.7002</ele>
        <time>2026-05-16T09:48:20+02:00</time>
      </trkpt>
      <trkpt lat="47.45626" lon="5.60781">
        <ele>189.7002</ele>
        <time>2026-05-16T09:48:21+02:00</time>
      </trkpt>
      <trkpt lat="47.45627" lon="5.60788">
        <ele>189.7002</ele>
        <time>2026-05-16T09:48:22+02:00</time>
      </trkpt>
      <trkpt lat="47.45628" lon="5.60796">
        <ele>189.7002</ele>
        <time>2026-05-16T09:48:23+02:00</time>
      </trkpt>
      <trkpt lat="47.45629" lon="5.60803">
        <ele>189.7998</ele>
        <time>2026-05-16T09:48:24+02:00</time>
      </trkpt>
      <trkpt lat="47.4563" lon="5.60811">
        <ele>189.7998</ele>
        <time>2026-05-16T09:48:25+02:00</time>
      </trkpt>
      <trkpt lat="47.45632" lon="5.60818">
        <ele>189.90039</ele>
        <time>2026-05-16T09:48:26+02:00</time>
      </trkpt>
      <trkpt lat="47.45633" lon="5.60826">
        <ele>189.90039</ele>
        <time>2026-05-16T09:48:27+02:00</time>
      </trkpt>
      <trkpt lat="47.45634" lon="5.60834">
        <ele>190</ele>
        <time>2026-05-16T09:48:28+02:00</time>
      </trkpt>
      <trkpt lat="47.45635" lon="5.60842">
        <ele>190.10059</ele>
        <time>2026-05-16T09:48:29+02:00</time>
      </trkpt>
      <trkpt lat="47.45636" lon="5.6085">
        <ele>190.2998</ele>
        <time>2026-05-16T09:48:30+02:00</time>
      </trkpt>
      <trkpt lat="47.45638" lon="5.60858">
        <ele>190.40039</ele>
        <time>2026-05-16T09:48:31+02:00</time>
      </trkpt>
      <trkpt lat="47.45639" lon="5.60865">
        <ele>190.5</ele>
        <time>2026-05-16T09:48:32+02:00</time>
      </trkpt>
      <trkpt lat="47.4564" lon="5.60873">
        <ele>190.7002</ele>
        <time>2026-05-16T09:48:33+02:00</time>
      </trkpt>
      <trkpt lat="47.45641" lon="5.60881">
        <ele>190.7998</ele>
        <time>2026-05-16T09:48:34+02:00</time>
      </trkpt>
      <trkpt lat="47.45642" lon="5.60889">
        <ele>191.2002</ele>
        <time>2026-05-16T09:48:35+02:00</time>
      </trkpt>
      <trkpt lat="47.45643" lon="5.60897">
        <ele>191.40039</ele>
        <time>2026-05-16T09:48:36+02:00</time>
      </trkpt>
      <trkpt lat="47.45645" lon="5.60905">
        <ele>191.5</ele>
        <time>2026-05-16T09:48:37+02:00</time>
      </trkpt>
      <trkpt lat="47.45646" lon="5.60913">
        <ele>191.5</ele>
        <time>2026-05-16T09:48:38+02:00</time>
      </trkpt>
      <trkpt lat="47.45647" lon="5.60921">
        <ele>191.60059</ele>
        <time>2026-05-16T09:48:39+02:00</time>
      </trkpt>
      <trkpt lat="47.45648" lon="5.60928">
        <ele>191.90039</ele>
        <time>2026-05-16T09:48:40+02:00</time>
      </trkpt>
      <trkpt lat="47.45649" lon="5.60936">
        <ele>192</ele>
        <time>2026-05-16T09:48:41+02:00</time>
      </trkpt>
      <trkpt lat="47.4565" lon="5.60944">
        <ele>192.10059</ele>
        <time>2026-05-16T09:48:42+02:00</time>
      </trkpt>
      <trkpt lat="47.45652" lon="5.60951">
        <ele>192.2002</ele>
        <time>2026-05-16T09:48:43+02:00</time>
      </trkpt>
      <trkpt lat="47.45653" lon="5.60959">
        <ele>192.2002</ele>
        <time>2026-05-16T09:48:44+02:00</time>
      </trkpt>
      <trkpt lat="47.45654" lon="5.60967">
        <ele>192.5</ele>
        <time>2026-05-16T09:48:45+02:00</time>
      </trkpt>
      <trkpt lat="47.45656" lon="5.60974">
        <ele>192.5</ele>
        <time>2026-05-16T09:48:46+02:00</time>
      </trkpt>
      <trkpt lat="47.45657" lon="5.60981">
        <ele>192.5</ele>
        <time>2026-05-16T09:48:47+02:00</time>
      </trkpt>
      <trkpt lat="47.45658" lon="5.60989">
        <ele>192.5</ele>
        <time>2026-05-16T09:48:48+02:00</time>
      </trkpt>
      <trkpt lat="47.45659" lon="5.60997">
        <ele>192</ele>
        <time>2026-05-16T09:48:49+02:00</time>
      </trkpt>
      <trkpt lat="47.4566" lon="5.61004">
        <ele>190.7002</ele>
        <time>2026-05-16T09:48:50+02:00</time>
      </trkpt>
      <trkpt lat="47.45662" lon="5.61012">
        <ele>189.5</ele>
        <time>2026-05-16T09:48:51+02:00</time>
      </trkpt>
      <trkpt lat="47.45662" lon="5.6102">
        <ele>188.90039</ele>
        <time>2026-05-16T09:48:52+02:00</time>
      </trkpt>
      <trkpt lat="47.45664" lon="5.61028">
        <ele>188.60059</ele>
        <time>2026-05-16T09:48:53+02:00</time>
      </trkpt>
      <trkpt lat="47.45665" lon="5.61036">
        <ele>188.2998</ele>
        <time>2026-05-16T09:48:54+02:00</time>
      </trkpt>
      <trkpt lat="47.45665" lon="5.61044">
        <ele>188.40039</ele>
        <time>2026-05-16T09:48:55+02:00</time>
      </trkpt>
      <trkpt lat="47.45666" lon="5.61052">
        <ele>188.40039</ele>
        <time>2026-05-16T09:48:56+02:00</time>
      </trkpt>
      <trkpt lat="47.45665" lon="5.6106">
        <ele>188.40039</ele>
        <time>2026-05-16T09:48:57+02:00</time>
      </trkpt>
      <trkpt lat="47.45665" lon="5.61068">
        <ele>188.40039</ele>
        <time>2026-05-16T09:48:58+02:00</time>
      </trkpt>
      <trkpt lat="47.45665" lon="5.61077">
        <ele>188.40039</ele>
        <time>2026-05-16T09:48:59+02:00</time>
      </trkpt>
      <trkpt lat="47.45664" lon="5.61085">
        <ele>188.7002</ele>
        <time>2026-05-16T09:49:00+02:00</time>
      </trkpt>
      <trkpt lat="47.45663" lon="5.61094">
        <ele>188.7002</ele>
        <time>2026-05-16T09:49:01+02:00</time>
      </trkpt>
      <trkpt lat="47.45662" lon="5.61102">
        <ele>188.7002</ele>
        <time>2026-05-16T09:49:02+02:00</time>
      </trkpt>
      <trkpt lat="47.45662" lon="5.6111">
        <ele>188.7002</ele>
        <time>2026-05-16T09:49:03+02:00</time>
      </trkpt>
      <trkpt lat="47.45662" lon="5.61119">
        <ele>188.7002</ele>
        <time>2026-05-16T09:49:04+02:00</time>
      </trkpt>
      <trkpt lat="47.45661" lon="5.61127">
        <ele>188.90039</ele>
        <time>2026-05-16T09:49:05+02:00</time>
      </trkpt>
      <trkpt lat="47.45661" lon="5.61136">
        <ele>189.2002</ele>
        <time>2026-05-16T09:49:06+02:00</time>
      </trkpt>
      <trkpt lat="47.45661" lon="5.61144">
        <ele>189.40039</ele>
        <time>2026-05-16T09:49:07+02:00</time>
      </trkpt>
      <trkpt lat="47.45661" lon="5.61153">
        <ele>189.5</ele>
        <time>2026-05-16T09:49:08+02:00</time>
      </trkpt>
      <trkpt lat="47.45661" lon="5.61161">
        <ele>189.5</ele>
        <time>2026-05-16T09:49:09+02:00</time>
      </trkpt>
      <trkpt lat="47.45661" lon="5.6117">
        <ele>189.60059</ele>
        <time>2026-05-16T09:49:10+02:00</time>
      </trkpt>
      <trkpt lat="47.45661" lon="5.61178">
        <ele>189.60059</ele>
        <time>2026-05-16T09:49:11+02:00</time>
      </trkpt>
      <trkpt lat="47.45661" lon="5.61187">
        <ele>189.5</ele>
        <time>2026-05-16T09:49:12+02:00</time>
      </trkpt>
      <trkpt lat="47.45661" lon="5.61195">
        <ele>189.5</ele>
        <time>2026-05-16T09:49:13+02:00</time>
      </trkpt>
      <trkpt lat="47.45662" lon="5.61204">
        <ele>189.10059</ele>
        <time>2026-05-16T09:49:14+02:00</time>
      </trkpt>
      <trkpt lat="47.45662" lon="5.61212">
        <ele>189.10059</ele>
        <time>2026-05-16T09:49:15+02:00</time>
      </trkpt>
      <trkpt lat="47.45662" lon="5.61221">
        <ele>188.90039</ele>
        <time>2026-05-16T09:49:16+02:00</time>
      </trkpt>
      <trkpt lat="47.45663" lon="5.61229">
        <ele>188.7998</ele>
        <time>2026-05-16T09:49:17+02:00</time>
      </trkpt>
      <trkpt lat="47.45664" lon="5.61238">
        <ele>188.60059</ele>
        <time>2026-05-16T09:49:18+02:00</time>
      </trkpt>
      <trkpt lat="47.45664" lon="5.61246">
        <ele>188.5</ele>
        <time>2026-05-16T09:49:19+02:00</time>
      </trkpt>
      <trkpt lat="47.45665" lon="5.61255">
        <ele>188.5</ele>
        <time>2026-05-16T09:49:20+02:00</time>
      </trkpt>
      <trkpt lat="47.45665" lon="5.61263">
        <ele>188.5</ele>
        <time>2026-05-16T09:49:21+02:00</time>
      </trkpt>
      <trkpt lat="47.45665" lon="5.61272">
        <ele>188.5</ele>
        <time>2026-05-16T09:49:22+02:00</time>
      </trkpt>
      <trkpt lat="47.45666" lon="5.6128">
        <ele>188.5</ele>
        <time>2026-05-16T09:49:23+02:00</time>
      </trkpt>
      <trkpt lat="47.45666" lon="5.61289">
        <ele>188.5</ele>
        <time>2026-05-16T09:49:24+02:00</time>
      </trkpt>
      <trkpt lat="47.45667" lon="5.61297">
        <ele>188.5</ele>
        <time>2026-05-16T09:49:25+02:00</time>
      </trkpt>
      <trkpt lat="47.45668" lon="5.61305">
        <ele>188.5</ele>
        <time>2026-05-16T09:49:26+02:00</time>
      </trkpt>
      <trkpt lat="47.45668" lon="5.61314">
        <ele>188.5</ele>
        <time>2026-05-16T09:49:27+02:00</time>
      </trkpt>
      <trkpt lat="47.45669" lon="5.61322">
        <ele>188.5</ele>
        <time>2026-05-16T09:49:28+02:00</time>
      </trkpt>
      <trkpt lat="47.4567" lon="5.6133">
        <ele>188.5</ele>
        <time>2026-05-16T09:49:29+02:00</time>
      </trkpt>
      <trkpt lat="47.45672" lon="5.61338">
        <ele>188.5</ele>
        <time>2026-05-16T09:49:30+02:00</time>
      </trkpt>
      <trkpt lat="47.45673" lon="5.61346">
        <ele>188.60059</ele>
        <time>2026-05-16T09:49:31+02:00</time>
      </trkpt>
      <trkpt lat="47.45675" lon="5.61354">
        <ele>188.60059</ele>
        <time>2026-05-16T09:49:32+02:00</time>
      </trkpt>
      <trkpt lat="47.45677" lon="5.61362">
        <ele>188.60059</ele>
        <time>2026-05-16T09:49:33+02:00</time>
      </trkpt>
      <trkpt lat="47.4568" lon="5.6137">
        <ele>188.60059</ele>
        <time>2026-05-16T09:49:34+02:00</time>
      </trkpt>
      <trkpt lat="47.45682" lon="5.61378">
        <ele>188.7002</ele>
        <time>2026-05-16T09:49:35+02:00</time>
      </trkpt>
      <trkpt lat="47.45684" lon="5.61385">
        <ele>188.7998</ele>
        <time>2026-05-16T09:49:36+02:00</time>
      </trkpt>
      <trkpt lat="47.45686" lon="5.61393">
        <ele>189.10059</ele>
        <time>2026-05-16T09:49:37+02:00</time>
      </trkpt>
      <trkpt lat="47.45689" lon="5.61401">
        <ele>189</ele>
        <time>2026-05-16T09:49:38+02:00</time>
      </trkpt>
      <trkpt lat="47.45691" lon="5.61409">
        <ele>189.2998</ele>
        <time>2026-05-16T09:49:39+02:00</time>
      </trkpt>
      <trkpt lat="47.45693" lon="5.61417">
        <ele>189.5</ele>
        <time>2026-05-16T09:49:40+02:00</time>
      </trkpt>
      <trkpt lat="47.45695" lon="5.61425">
        <ele>189.2998</ele>
        <time>2026-05-16T09:49:41+02:00</time>
      </trkpt>
      <trkpt lat="47.45698" lon="5.61433">
        <ele>189.2998</ele>
        <time>2026-05-16T09:49:42+02:00</time>
      </trkpt>
      <trkpt lat="47.457" lon="5.6144">
        <ele>189.10059</ele>
        <time>2026-05-16T09:49:43+02:00</time>
      </trkpt>
      <trkpt lat="47.45702" lon="5.61448">
        <ele>189.10059</ele>
        <time>2026-05-16T09:49:44+02:00</time>
      </trkpt>
      <trkpt lat="47.45705" lon="5.61455">
        <ele>189.2002</ele>
        <time>2026-05-16T09:49:45+02:00</time>
      </trkpt>
      <trkpt lat="47.45707" lon="5.61463">
        <ele>189.10059</ele>
        <time>2026-05-16T09:49:46+02:00</time>
      </trkpt>
      <trkpt lat="47.4571" lon="5.6147">
        <ele>189.10059</ele>
        <time>2026-05-16T09:49:47+02:00</time>
      </trkpt>
      <trkpt lat="47.45712" lon="5.61478">
        <ele>189.10059</ele>
        <time>2026-05-16T09:49:48+02:00</time>
      </trkpt>
      <trkpt lat="47.45715" lon="5.61485">
        <ele>189.10059</ele>
        <time>2026-05-16T09:49:49+02:00</time>
      </trkpt>
      <trkpt lat="47.45717" lon="5.61493">
        <ele>189.2002</ele>
        <time>2026-05-16T09:49:50+02:00</time>
      </trkpt>
      <trkpt lat="47.45719" lon="5.61501">
        <ele>189.2002</ele>
        <time>2026-05-16T09:49:51+02:00</time>
      </trkpt>
      <trkpt lat="47.4572" lon="5.61509">
        <ele>189.2998</ele>
        <time>2026-05-16T09:49:52+02:00</time>
      </trkpt>
      <trkpt lat="47.45721" lon="5.61517">
        <ele>189.2998</ele>
        <time>2026-05-16T09:49:53+02:00</time>
      </trkpt>
      <trkpt lat="47.45722" lon="5.61526">
        <ele>189.2998</ele>
        <time>2026-05-16T09:49:54+02:00</time>
      </trkpt>
      <trkpt lat="47.45724" lon="5.61534">
        <ele>189.2998</ele>
        <time>2026-05-16T09:49:55+02:00</time>
      </trkpt>
      <trkpt lat="47.45725" lon="5.61542">
        <ele>189.2998</ele>
        <time>2026-05-16T09:49:56+02:00</time>
      </trkpt>
      <trkpt lat="47.45726" lon="5.61551">
        <ele>189.2998</ele>
        <time>2026-05-16T09:49:57+02:00</time>
      </trkpt>
      <trkpt lat="47.45727" lon="5.61559">
        <ele>189.2998</ele>
        <time>2026-05-16T09:49:58+02:00</time>
      </trkpt>
      <trkpt lat="47.45727" lon="5.61567">
        <ele>189.2998</ele>
        <time>2026-05-16T09:49:59+02:00</time>
      </trkpt>
      <trkpt lat="47.45728" lon="5.61576">
        <ele>189.2998</ele>
        <time>2026-05-16T09:50:00+02:00</time>
      </trkpt>
      <trkpt lat="47.45729" lon="5.61584">
        <ele>189.2998</ele>
        <time>2026-05-16T09:50:01+02:00</time>
      </trkpt>
      <trkpt lat="47.4573" lon="5.61592">
        <ele>189.2998</ele>
        <time>2026-05-16T09:50:02+02:00</time>
      </trkpt>
      <trkpt lat="47.45731" lon="5.616">
        <ele>189.2998</ele>
        <time>2026-05-16T09:50:03+02:00</time>
      </trkpt>
      <trkpt lat="47.45732" lon="5.61608">
        <ele>189.2998</ele>
        <time>2026-05-16T09:50:04+02:00</time>
      </trkpt>
      <trkpt lat="47.45734" lon="5.61616">
        <ele>189.2002</ele>
        <time>2026-05-16T09:50:05+02:00</time>
      </trkpt>
      <trkpt lat="47.45735" lon="5.61624">
        <ele>189.2002</ele>
        <time>2026-05-16T09:50:06+02:00</time>
      </trkpt>
      <trkpt lat="47.45737" lon="5.61631">
        <ele>189.2002</ele>
        <time>2026-05-16T09:50:07+02:00</time>
      </trkpt>
      <trkpt lat="47.45739" lon="5.61639">
        <ele>189.2002</ele>
        <time>2026-05-16T09:50:08+02:00</time>
      </trkpt>
      <trkpt lat="47.45743" lon="5.61645">
        <ele>189.2002</ele>
        <time>2026-05-16T09:50:09+02:00</time>
      </trkpt>
      <trkpt lat="47.45747" lon="5.61649">
        <ele>189.10059</ele>
        <time>2026-05-16T09:50:10+02:00</time>
      </trkpt>
      <trkpt lat="47.45752" lon="5.61652">
        <ele>189.10059</ele>
        <time>2026-05-16T09:50:11+02:00</time>
      </trkpt>
      <trkpt lat="47.45757" lon="5.61653">
        <ele>189.10059</ele>
        <time>2026-05-16T09:50:12+02:00</time>
      </trkpt>
      <trkpt lat="47.45762" lon="5.61653">
        <ele>189.10059</ele>
        <time>2026-05-16T09:50:13+02:00</time>
      </trkpt>
      <trkpt lat="47.45767" lon="5.61652">
        <ele>189.2002</ele>
        <time>2026-05-16T09:50:14+02:00</time>
      </trkpt>
      <trkpt lat="47.45772" lon="5.61653">
        <ele>189.2002</ele>
        <time>2026-05-16T09:50:15+02:00</time>
      </trkpt>
      <trkpt lat="47.45776" lon="5.61655">
        <ele>189.2998</ele>
        <time>2026-05-16T09:50:16+02:00</time>
      </trkpt>
      <trkpt lat="47.45781" lon="5.61658">
        <ele>189.2002</ele>
        <time>2026-05-16T09:50:17+02:00</time>
      </trkpt>
      <trkpt lat="47.45785" lon="5.61663">
        <ele>189.2002</ele>
        <time>2026-05-16T09:50:18+02:00</time>
      </trkpt>
      <trkpt lat="47.45789" lon="5.61668">
        <ele>189.2002</ele>
        <time>2026-05-16T09:50:19+02:00</time>
      </trkpt>
      <trkpt lat="47.45793" lon="5.61674">
        <ele>189.10059</ele>
        <time>2026-05-16T09:50:20+02:00</time>
      </trkpt>
      <trkpt lat="47.45797" lon="5.6168">
        <ele>189.10059</ele>
        <time>2026-05-16T09:50:21+02:00</time>
      </trkpt>
      <trkpt lat="47.458" lon="5.61686">
        <ele>189.10059</ele>
        <time>2026-05-16T09:50:22+02:00</time>
      </trkpt>
      <trkpt lat="47.45804" lon="5.61692">
        <ele>189.10059</ele>
        <time>2026-05-16T09:50:23+02:00</time>
      </trkpt>
      <trkpt lat="47.45808" lon="5.61698">
        <ele>189.10059</ele>
        <time>2026-05-16T09:50:24+02:00</time>
      </trkpt>
      <trkpt lat="47.45812" lon="5.61704">
        <ele>189</ele>
        <time>2026-05-16T09:50:25+02:00</time>
      </trkpt>
      <trkpt lat="47.45816" lon="5.6171">
        <ele>188.90039</ele>
        <time>2026-05-16T09:50:26+02:00</time>
      </trkpt>
      <trkpt lat="47.4582" lon="5.61715">
        <ele>189</ele>
        <time>2026-05-16T09:50:27+02:00</time>
      </trkpt>
      <trkpt lat="47.45825" lon="5.6172">
        <ele>189.10059</ele>
        <time>2026-05-16T09:50:28+02:00</time>
      </trkpt>
      <trkpt lat="47.4583" lon="5.61726">
        <ele>189.10059</ele>
        <time>2026-05-16T09:50:29+02:00</time>
      </trkpt>
      <trkpt lat="47.45834" lon="5.61731">
        <ele>189.2002</ele>
        <time>2026-05-16T09:50:30+02:00</time>
      </trkpt>
      <trkpt lat="47.45838" lon="5.61736">
        <ele>189.2002</ele>
        <time>2026-05-16T09:50:31+02:00</time>
      </trkpt>
      <trkpt lat="47.45843" lon="5.61741">
        <ele>189.10059</ele>
        <time>2026-05-16T09:50:32+02:00</time>
      </trkpt>
      <trkpt lat="47.45848" lon="5.61746">
        <ele>189.10059</ele>
        <time>2026-05-16T09:50:33+02:00</time>
      </trkpt>
      <trkpt lat="47.45852" lon="5.61751">
        <ele>189.10059</ele>
        <time>2026-05-16T09:50:34+02:00</time>
      </trkpt>
      <trkpt lat="47.45858" lon="5.61755">
        <ele>189.10059</ele>
        <time>2026-05-16T09:50:35+02:00</time>
      </trkpt>
      <trkpt lat="47.45863" lon="5.61759">
        <ele>189.10059</ele>
        <time>2026-05-16T09:50:36+02:00</time>
      </trkpt>
      <trkpt lat="47.45868" lon="5.61764">
        <ele>189.10059</ele>
        <time>2026-05-16T09:50:37+02:00</time>
      </trkpt>
      <trkpt lat="47.45873" lon="5.61768">
        <ele>189.10059</ele>
        <time>2026-05-16T09:50:38+02:00</time>
      </trkpt>
      <trkpt lat="47.45878" lon="5.61771">
        <ele>189.10059</ele>
        <time>2026-05-16T09:50:39+02:00</time>
      </trkpt>
      <trkpt lat="47.45883" lon="5.61775">
        <ele>189.10059</ele>
        <time>2026-05-16T09:50:40+02:00</time>
      </trkpt>
      <trkpt lat="47.45888" lon="5.61779">
        <ele>189.10059</ele>
        <time>2026-05-16T09:50:41+02:00</time>
      </trkpt>
      <trkpt lat="47.45894" lon="5.61782">
        <ele>189.10059</ele>
        <time>2026-05-16T09:50:42+02:00</time>
      </trkpt>
      <trkpt lat="47.45899" lon="5.61786">
        <ele>189.10059</ele>
        <time>2026-05-16T09:50:43+02:00</time>
      </trkpt>
      <trkpt lat="47.45915" lon="5.61795">
        <ele>189.2998</ele>
        <time>2026-05-16T09:50:44+02:00</time>
      </trkpt>
      <trkpt lat="47.4592" lon="5.61797">
        <ele>189.40039</ele>
        <time>2026-05-16T09:50:45+02:00</time>
      </trkpt>
      <trkpt lat="47.45926" lon="5.61799">
        <ele>189.40039</ele>
        <time>2026-05-16T09:50:46+02:00</time>
      </trkpt>
      <trkpt lat="47.45931" lon="5.61801">
        <ele>189.2998</ele>
        <time>2026-05-16T09:50:47+02:00</time>
      </trkpt>
      <trkpt lat="47.45937" lon="5.61803">
        <ele>189.2002</ele>
        <time>2026-05-16T09:50:48+02:00</time>
      </trkpt>
      <trkpt lat="47.45942" lon="5.61804">
        <ele>189.2002</ele>
        <time>2026-05-16T09:50:49+02:00</time>
      </trkpt>
      <trkpt lat="47.45947" lon="5.61806">
        <ele>189.2998</ele>
        <time>2026-05-16T09:50:50+02:00</time>
      </trkpt>
      <trkpt lat="47.45953" lon="5.61808">
        <ele>189.2998</ele>
        <time>2026-05-16T09:50:51+02:00</time>
      </trkpt>
      <trkpt lat="47.45958" lon="5.61809">
        <ele>189.2998</ele>
        <time>2026-05-16T09:50:52+02:00</time>
      </trkpt>
      <trkpt lat="47.45964" lon="5.61811">
        <ele>189.2998</ele>
        <time>2026-05-16T09:50:53+02:00</time>
      </trkpt>
      <trkpt lat="47.4597" lon="5.61812">
        <ele>189.2998</ele>
        <time>2026-05-16T09:50:54+02:00</time>
      </trkpt>
      <trkpt lat="47.45975" lon="5.61813">
        <ele>189.2998</ele>
        <time>2026-05-16T09:50:55+02:00</time>
      </trkpt>
      <trkpt lat="47.45981" lon="5.61815">
        <ele>189.60059</ele>
        <time>2026-05-16T09:50:56+02:00</time>
      </trkpt>
      <trkpt lat="47.45986" lon="5.61817">
        <ele>189.60059</ele>
        <time>2026-05-16T09:50:57+02:00</time>
      </trkpt>
      <trkpt lat="47.45992" lon="5.6182">
        <ele>189.7002</ele>
        <time>2026-05-16T09:50:58+02:00</time>
      </trkpt>
      <trkpt lat="47.45997" lon="5.61824">
        <ele>189.7998</ele>
        <time>2026-05-16T09:50:59+02:00</time>
      </trkpt>
      <trkpt lat="47.46002" lon="5.61828">
        <ele>189.90039</ele>
        <time>2026-05-16T09:51:00+02:00</time>
      </trkpt>
      <trkpt lat="47.46006" lon="5.61833">
        <ele>190</ele>
        <time>2026-05-16T09:51:01+02:00</time>
      </trkpt>
      <trkpt lat="47.46011" lon="5.61838">
        <ele>190.10059</ele>
        <time>2026-05-16T09:51:02+02:00</time>
      </trkpt>
      <trkpt lat="47.46015" lon="5.61843">
        <ele>190.2998</ele>
        <time>2026-05-16T09:51:03+02:00</time>
      </trkpt>
      <trkpt lat="47.4602" lon="5.61848">
        <ele>190.40039</ele>
        <time>2026-05-16T09:51:04+02:00</time>
      </trkpt>
      <trkpt lat="47.46024" lon="5.61853">
        <ele>190.40039</ele>
        <time>2026-05-16T09:51:05+02:00</time>
      </trkpt>
      <trkpt lat="47.46029" lon="5.61858">
        <ele>190.40039</ele>
        <time>2026-05-16T09:51:06+02:00</time>
      </trkpt>
      <trkpt lat="47.46034" lon="5.61863">
        <ele>190.5</ele>
        <time>2026-05-16T09:51:07+02:00</time>
      </trkpt>
      <trkpt lat="47.46038" lon="5.61868">
        <ele>190.60059</ele>
        <time>2026-05-16T09:51:08+02:00</time>
      </trkpt>
      <trkpt lat="47.46043" lon="5.61873">
        <ele>190.7002</ele>
        <time>2026-05-16T09:51:09+02:00</time>
      </trkpt>
      <trkpt lat="47.46047" lon="5.61879">
        <ele>190.60059</ele>
        <time>2026-05-16T09:51:10+02:00</time>
      </trkpt>
      <trkpt lat="47.46052" lon="5.61884">
        <ele>190.60059</ele>
        <time>2026-05-16T09:51:11+02:00</time>
      </trkpt>
      <trkpt lat="47.46056" lon="5.61889">
        <ele>190.7002</ele>
        <time>2026-05-16T09:51:12+02:00</time>
      </trkpt>
      <trkpt lat="47.46061" lon="5.61894">
        <ele>190.7998</ele>
        <time>2026-05-16T09:51:13+02:00</time>
      </trkpt>
      <trkpt lat="47.46066" lon="5.61899">
        <ele>190.7998</ele>
        <time>2026-05-16T09:51:14+02:00</time>
      </trkpt>
      <trkpt lat="47.46071" lon="5.61904">
        <ele>190.7998</ele>
        <time>2026-05-16T09:51:15+02:00</time>
      </trkpt>
      <trkpt lat="47.46076" lon="5.61909">
        <ele>190.7998</ele>
        <time>2026-05-16T09:51:16+02:00</time>
      </trkpt>
      <trkpt lat="47.46081" lon="5.61914">
        <ele>190.7002</ele>
        <time>2026-05-16T09:51:17+02:00</time>
      </trkpt>
      <trkpt lat="47.46085" lon="5.6192">
        <ele>190.60059</ele>
        <time>2026-05-16T09:51:18+02:00</time>
      </trkpt>
      <trkpt lat="47.46089" lon="5.61925">
        <ele>190.5</ele>
        <time>2026-05-16T09:51:19+02:00</time>
      </trkpt>
      <trkpt lat="47.46094" lon="5.61931">
        <ele>190.5</ele>
        <time>2026-05-16T09:51:20+02:00</time>
      </trkpt>
      <trkpt lat="47.46097" lon="5.61937">
        <ele>190.2998</ele>
        <time>2026-05-16T09:51:21+02:00</time>
      </trkpt>
      <trkpt lat="47.46101" lon="5.61944">
        <ele>190.2002</ele>
        <time>2026-05-16T09:51:22+02:00</time>
      </trkpt>
      <trkpt lat="47.46104" lon="5.61951">
        <ele>190.10059</ele>
        <time>2026-05-16T09:51:23+02:00</time>
      </trkpt>
      <trkpt lat="47.46107" lon="5.61958">
        <ele>190</ele>
        <time>2026-05-16T09:51:24+02:00</time>
      </trkpt>
      <trkpt lat="47.4611" lon="5.61966">
        <ele>190</ele>
        <time>2026-05-16T09:51:25+02:00</time>
      </trkpt>
      <trkpt lat="47.46113" lon="5.61973">
        <ele>189.7998</ele>
        <time>2026-05-16T09:51:26+02:00</time>
      </trkpt>
      <trkpt lat="47.46115" lon="5.61981">
        <ele>189.7998</ele>
        <time>2026-05-16T09:51:27+02:00</time>
      </trkpt>
      <trkpt lat="47.46118" lon="5.61989">
        <ele>189.7002</ele>
        <time>2026-05-16T09:51:28+02:00</time>
      </trkpt>
      <trkpt lat="47.46121" lon="5.61996">
        <ele>189.60059</ele>
        <time>2026-05-16T09:51:29+02:00</time>
      </trkpt>
      <trkpt lat="47.46124" lon="5.62004">
        <ele>189.5</ele>
        <time>2026-05-16T09:51:30+02:00</time>
      </trkpt>
      <trkpt lat="47.46126" lon="5.62011">
        <ele>189.40039</ele>
        <time>2026-05-16T09:51:31+02:00</time>
      </trkpt>
      <trkpt lat="47.46129" lon="5.62018">
        <ele>189.40039</ele>
        <time>2026-05-16T09:51:32+02:00</time>
      </trkpt>
      <trkpt lat="47.46132" lon="5.62025">
        <ele>189.2998</ele>
        <time>2026-05-16T09:51:33+02:00</time>
      </trkpt>
      <trkpt lat="47.46135" lon="5.62033">
        <ele>189.10059</ele>
        <time>2026-05-16T09:51:34+02:00</time>
      </trkpt>
      <trkpt lat="47.46137" lon="5.6204">
        <ele>189</ele>
        <time>2026-05-16T09:51:35+02:00</time>
      </trkpt>
      <trkpt lat="47.4614" lon="5.62047">
        <ele>188.90039</ele>
        <time>2026-05-16T09:51:36+02:00</time>
      </trkpt>
      <trkpt lat="47.46143" lon="5.62055">
        <ele>188.7998</ele>
        <time>2026-05-16T09:51:37+02:00</time>
      </trkpt>
      <trkpt lat="47.46145" lon="5.62062">
        <ele>188.7998</ele>
        <time>2026-05-16T09:51:38+02:00</time>
      </trkpt>
      <trkpt lat="47.46148" lon="5.62069">
        <ele>188.60059</ele>
        <time>2026-05-16T09:51:39+02:00</time>
      </trkpt>
      <trkpt lat="47.46151" lon="5.62077">
        <ele>188.60059</ele>
        <time>2026-05-16T09:51:40+02:00</time>
      </trkpt>
      <trkpt lat="47.46153" lon="5.62084">
        <ele>188.5</ele>
        <time>2026-05-16T09:51:41+02:00</time>
      </trkpt>
      <trkpt lat="47.46156" lon="5.62092">
        <ele>188.5</ele>
        <time>2026-05-16T09:51:42+02:00</time>
      </trkpt>
      <trkpt lat="47.46158" lon="5.62099">
        <ele>188.60059</ele>
        <time>2026-05-16T09:51:43+02:00</time>
      </trkpt>
      <trkpt lat="47.46161" lon="5.62106">
        <ele>188.60059</ele>
        <time>2026-05-16T09:51:44+02:00</time>
      </trkpt>
      <trkpt lat="47.46164" lon="5.62114">
        <ele>188.7002</ele>
        <time>2026-05-16T09:51:45+02:00</time>
      </trkpt>
      <trkpt lat="47.46166" lon="5.62121">
        <ele>188.7002</ele>
        <time>2026-05-16T09:51:46+02:00</time>
      </trkpt>
      <trkpt lat="47.46169" lon="5.62128">
        <ele>188.7002</ele>
        <time>2026-05-16T09:51:47+02:00</time>
      </trkpt>
      <trkpt lat="47.46171" lon="5.62136">
        <ele>188.7998</ele>
        <time>2026-05-16T09:51:48+02:00</time>
      </trkpt>
      <trkpt lat="47.46174" lon="5.62143">
        <ele>188.90039</ele>
        <time>2026-05-16T09:51:49+02:00</time>
      </trkpt>
      <trkpt lat="47.46177" lon="5.6215">
        <ele>188.90039</ele>
        <time>2026-05-16T09:51:50+02:00</time>
      </trkpt>
      <trkpt lat="47.46179" lon="5.62157">
        <ele>188.90039</ele>
        <time>2026-05-16T09:51:51+02:00</time>
      </trkpt>
      <trkpt lat="47.46182" lon="5.62164">
        <ele>188.90039</ele>
        <time>2026-05-16T09:51:52+02:00</time>
      </trkpt>
      <trkpt lat="47.46185" lon="5.62171">
        <ele>188.90039</ele>
        <time>2026-05-16T09:51:53+02:00</time>
      </trkpt>
      <trkpt lat="47.46187" lon="5.62179">
        <ele>188.90039</ele>
        <time>2026-05-16T09:51:54+02:00</time>
      </trkpt>
      <trkpt lat="47.4619" lon="5.62186">
        <ele>188.7998</ele>
        <time>2026-05-16T09:51:55+02:00</time>
      </trkpt>
      <trkpt lat="47.46193" lon="5.62193">
        <ele>188.60059</ele>
        <time>2026-05-16T09:51:56+02:00</time>
      </trkpt>
      <trkpt lat="47.46195" lon="5.622">
        <ele>188.60059</ele>
        <time>2026-05-16T09:51:57+02:00</time>
      </trkpt>
      <trkpt lat="47.46198" lon="5.62207">
        <ele>188.60059</ele>
        <time>2026-05-16T09:51:58+02:00</time>
      </trkpt>
      <trkpt lat="47.462" lon="5.62214">
        <ele>188.5</ele>
        <time>2026-05-16T09:51:59+02:00</time>
      </trkpt>
      <trkpt lat="47.46203" lon="5.62221">
        <ele>188.40039</ele>
        <time>2026-05-16T09:52:00+02:00</time>
      </trkpt>
      <trkpt lat="47.46206" lon="5.62229">
        <ele>188.2998</ele>
        <time>2026-05-16T09:52:01+02:00</time>
      </trkpt>
      <trkpt lat="47.46208" lon="5.62236">
        <ele>188.2998</ele>
        <time>2026-05-16T09:52:02+02:00</time>
      </trkpt>
      <trkpt lat="47.46211" lon="5.62243">
        <ele>188.2002</ele>
        <time>2026-05-16T09:52:03+02:00</time>
      </trkpt>
      <trkpt lat="47.46214" lon="5.6225">
        <ele>188.2002</ele>
        <time>2026-05-16T09:52:04+02:00</time>
      </trkpt>
      <trkpt lat="47.46216" lon="5.62258">
        <ele>188.2998</ele>
        <time>2026-05-16T09:52:05+02:00</time>
      </trkpt>
      <trkpt lat="47.46219" lon="5.62265">
        <ele>188.2998</ele>
        <time>2026-05-16T09:52:06+02:00</time>
      </trkpt>
      <trkpt lat="47.46222" lon="5.62272">
        <ele>188.2998</ele>
        <time>2026-05-16T09:52:07+02:00</time>
      </trkpt>
      <trkpt lat="47.46225" lon="5.62279">
        <ele>188.5</ele>
        <time>2026-05-16T09:52:08+02:00</time>
      </trkpt>
      <trkpt lat="47.46227" lon="5.62286">
        <ele>188.7002</ele>
        <time>2026-05-16T09:52:09+02:00</time>
      </trkpt>
      <trkpt lat="47.4623" lon="5.62294">
        <ele>188.7998</ele>
        <time>2026-05-16T09:52:10+02:00</time>
      </trkpt>
      <trkpt lat="47.46233" lon="5.62301">
        <ele>188.7998</ele>
        <time>2026-05-16T09:52:11+02:00</time>
      </trkpt>
      <trkpt lat="47.46235" lon="5.62309">
        <ele>188.90039</ele>
        <time>2026-05-16T09:52:12+02:00</time>
      </trkpt>
      <trkpt lat="47.46238" lon="5.62316">
        <ele>189</ele>
        <time>2026-05-16T09:52:13+02:00</time>
      </trkpt>
      <trkpt lat="47.46241" lon="5.62324">
        <ele>189.10059</ele>
        <time>2026-05-16T09:52:14+02:00</time>
      </trkpt>
      <trkpt lat="47.46243" lon="5.62331">
        <ele>189.2002</ele>
        <time>2026-05-16T09:52:15+02:00</time>
      </trkpt>
      <trkpt lat="47.46246" lon="5.62338">
        <ele>189.2002</ele>
        <time>2026-05-16T09:52:16+02:00</time>
      </trkpt>
      <trkpt lat="47.46249" lon="5.62346">
        <ele>189.10059</ele>
        <time>2026-05-16T09:52:17+02:00</time>
      </trkpt>
      <trkpt lat="47.46252" lon="5.62353">
        <ele>189.2002</ele>
        <time>2026-05-16T09:52:18+02:00</time>
      </trkpt>
      <trkpt lat="47.46254" lon="5.6236">
        <ele>189.10059</ele>
        <time>2026-05-16T09:52:19+02:00</time>
      </trkpt>
      <trkpt lat="47.46257" lon="5.62368">
        <ele>189</ele>
        <time>2026-05-16T09:52:20+02:00</time>
      </trkpt>
      <trkpt lat="47.4626" lon="5.62375">
        <ele>188.90039</ele>
        <time>2026-05-16T09:52:21+02:00</time>
      </trkpt>
      <trkpt lat="47.46262" lon="5.62383">
        <ele>188.7998</ele>
        <time>2026-05-16T09:52:22+02:00</time>
      </trkpt>
      <trkpt lat="47.46265" lon="5.6239">
        <ele>188.7998</ele>
        <time>2026-05-16T09:52:23+02:00</time>
      </trkpt>
      <trkpt lat="47.46268" lon="5.62398">
        <ele>188.7002</ele>
        <time>2026-05-16T09:52:24+02:00</time>
      </trkpt>
      <trkpt lat="47.46271" lon="5.62405">
        <ele>188.7002</ele>
        <time>2026-05-16T09:52:25+02:00</time>
      </trkpt>
      <trkpt lat="47.46273" lon="5.62412">
        <ele>188.7002</ele>
        <time>2026-05-16T09:52:26+02:00</time>
      </trkpt>
      <trkpt lat="47.46276" lon="5.6242">
        <ele>188.7002</ele>
        <time>2026-05-16T09:52:27+02:00</time>
      </trkpt>
      <trkpt lat="47.46279" lon="5.62427">
        <ele>188.7002</ele>
        <time>2026-05-16T09:52:28+02:00</time>
      </trkpt>
      <trkpt lat="47.46281" lon="5.62434">
        <ele>188.7998</ele>
        <time>2026-05-16T09:52:29+02:00</time>
      </trkpt>
      <trkpt lat="47.46284" lon="5.62442">
        <ele>188.90039</ele>
        <time>2026-05-16T09:52:30+02:00</time>
      </trkpt>
      <trkpt lat="47.46287" lon="5.62449">
        <ele>188.90039</ele>
        <time>2026-05-16T09:52:31+02:00</time>
      </trkpt>
      <trkpt lat="47.46289" lon="5.62456">
        <ele>188.90039</ele>
        <time>2026-05-16T09:52:32+02:00</time>
      </trkpt>
      <trkpt lat="47.46292" lon="5.62463">
        <ele>189</ele>
        <time>2026-05-16T09:52:33+02:00</time>
      </trkpt>
      <trkpt lat="47.46295" lon="5.6247">
        <ele>189.10059</ele>
        <time>2026-05-16T09:52:34+02:00</time>
      </trkpt>
      <trkpt lat="47.46297" lon="5.62477">
        <ele>189.10059</ele>
        <time>2026-05-16T09:52:35+02:00</time>
      </trkpt>
      <trkpt lat="47.463" lon="5.62485">
        <ele>189.2002</ele>
        <time>2026-05-16T09:52:36+02:00</time>
      </trkpt>
      <trkpt lat="47.46303" lon="5.62492">
        <ele>189.2998</ele>
        <time>2026-05-16T09:52:37+02:00</time>
      </trkpt>
      <trkpt lat="47.46305" lon="5.62499">
        <ele>189.2998</ele>
        <time>2026-05-16T09:52:38+02:00</time>
      </trkpt>
      <trkpt lat="47.46308" lon="5.62506">
        <ele>189.2998</ele>
        <time>2026-05-16T09:52:39+02:00</time>
      </trkpt>
      <trkpt lat="47.4631" lon="5.62514">
        <ele>189.40039</ele>
        <time>2026-05-16T09:52:40+02:00</time>
      </trkpt>
      <trkpt lat="47.46313" lon="5.62521">
        <ele>189.5</ele>
        <time>2026-05-16T09:52:41+02:00</time>
      </trkpt>
      <trkpt lat="47.46316" lon="5.62528">
        <ele>189.60059</ele>
        <time>2026-05-16T09:52:42+02:00</time>
      </trkpt>
      <trkpt lat="47.46318" lon="5.62535">
        <ele>189.7002</ele>
        <time>2026-05-16T09:52:43+02:00</time>
      </trkpt>
      <trkpt lat="47.46321" lon="5.62543">
        <ele>189.7998</ele>
        <time>2026-05-16T09:52:44+02:00</time>
      </trkpt>
      <trkpt lat="47.46324" lon="5.6255">
        <ele>189.7998</ele>
        <time>2026-05-16T09:52:45+02:00</time>
      </trkpt>
      <trkpt lat="47.46326" lon="5.62557">
        <ele>189.90039</ele>
        <time>2026-05-16T09:52:46+02:00</time>
      </trkpt>
      <trkpt lat="47.46329" lon="5.62564">
        <ele>190</ele>
        <time>2026-05-16T09:52:47+02:00</time>
      </trkpt>
      <trkpt lat="47.46332" lon="5.62572">
        <ele>190.10059</ele>
        <time>2026-05-16T09:52:48+02:00</time>
      </trkpt>
      <trkpt lat="47.46334" lon="5.62579">
        <ele>190.2002</ele>
        <time>2026-05-16T09:52:49+02:00</time>
      </trkpt>
      <trkpt lat="47.46337" lon="5.62586">
        <ele>190.2002</ele>
        <time>2026-05-16T09:52:50+02:00</time>
      </trkpt>
      <trkpt lat="47.4634" lon="5.62593">
        <ele>190.2002</ele>
        <time>2026-05-16T09:52:51+02:00</time>
      </trkpt>
      <trkpt lat="47.46343" lon="5.62601">
        <ele>190.2002</ele>
        <time>2026-05-16T09:52:52+02:00</time>
      </trkpt>
      <trkpt lat="47.46346" lon="5.62608">
        <ele>190.2002</ele>
        <time>2026-05-16T09:52:53+02:00</time>
      </trkpt>
      <trkpt lat="47.46348" lon="5.62616">
        <ele>190.2002</ele>
        <time>2026-05-16T09:52:54+02:00</time>
      </trkpt>
      <trkpt lat="47.46351" lon="5.62623">
        <ele>190.2002</ele>
        <time>2026-05-16T09:52:55+02:00</time>
      </trkpt>
      <trkpt lat="47.46354" lon="5.62631">
        <ele>190.2002</ele>
        <time>2026-05-16T09:52:56+02:00</time>
      </trkpt>
      <trkpt lat="47.46356" lon="5.62638">
        <ele>190.2002</ele>
        <time>2026-05-16T09:52:57+02:00</time>
      </trkpt>
      <trkpt lat="47.46359" lon="5.62645">
        <ele>190.2002</ele>
        <time>2026-05-16T09:52:58+02:00</time>
      </trkpt>
      <trkpt lat="47.46362" lon="5.62652">
        <ele>190.2002</ele>
        <time>2026-05-16T09:52:59+02:00</time>
      </trkpt>
      <trkpt lat="47.46364" lon="5.6266">
        <ele>190.2002</ele>
        <time>2026-05-16T09:53:00+02:00</time>
      </trkpt>
      <trkpt lat="47.46367" lon="5.62667">
        <ele>190.2998</ele>
        <time>2026-05-16T09:53:01+02:00</time>
      </trkpt>
      <trkpt lat="47.46369" lon="5.62674">
        <ele>190.2998</ele>
        <time>2026-05-16T09:53:02+02:00</time>
      </trkpt>
      <trkpt lat="47.46372" lon="5.62681">
        <ele>190.40039</ele>
        <time>2026-05-16T09:53:03+02:00</time>
      </trkpt>
      <trkpt lat="47.46375" lon="5.62688">
        <ele>190.2998</ele>
        <time>2026-05-16T09:53:04+02:00</time>
      </trkpt>
      <trkpt lat="47.46377" lon="5.62695">
        <ele>190.2998</ele>
        <time>2026-05-16T09:53:05+02:00</time>
      </trkpt>
      <trkpt lat="47.4638" lon="5.62702">
        <ele>190.2998</ele>
        <time>2026-05-16T09:53:06+02:00</time>
      </trkpt>
      <trkpt lat="47.46383" lon="5.62709">
        <ele>190.2998</ele>
        <time>2026-05-16T09:53:07+02:00</time>
      </trkpt>
      <trkpt lat="47.46386" lon="5.62717">
        <ele>190.2998</ele>
        <time>2026-05-16T09:53:08+02:00</time>
      </trkpt>
      <trkpt lat="47.46388" lon="5.62724">
        <ele>190.2998</ele>
        <time>2026-05-16T09:53:09+02:00</time>
      </trkpt>
      <trkpt lat="47.46391" lon="5.62731">
        <ele>190.2998</ele>
        <time>2026-05-16T09:53:10+02:00</time>
      </trkpt>
      <trkpt lat="47.46394" lon="5.62738">
        <ele>190.2998</ele>
        <time>2026-05-16T09:53:11+02:00</time>
      </trkpt>
      <trkpt lat="47.46396" lon="5.62746">
        <ele>190.2998</ele>
        <time>2026-05-16T09:53:12+02:00</time>
      </trkpt>
      <trkpt lat="47.46399" lon="5.62753">
        <ele>190.2998</ele>
        <time>2026-05-16T09:53:13+02:00</time>
      </trkpt>
      <trkpt lat="47.46401" lon="5.6276">
        <ele>190.2002</ele>
        <time>2026-05-16T09:53:14+02:00</time>
      </trkpt>
      <trkpt lat="47.46404" lon="5.62768">
        <ele>190.10059</ele>
        <time>2026-05-16T09:53:15+02:00</time>
      </trkpt>
      <trkpt lat="47.46407" lon="5.62775">
        <ele>190.10059</ele>
        <time>2026-05-16T09:53:16+02:00</time>
      </trkpt>
      <trkpt lat="47.4641" lon="5.62783">
        <ele>190.10059</ele>
        <time>2026-05-16T09:53:17+02:00</time>
      </trkpt>
      <trkpt lat="47.46412" lon="5.6279">
        <ele>190</ele>
        <time>2026-05-16T09:53:18+02:00</time>
      </trkpt>
      <trkpt lat="47.46415" lon="5.62797">
        <ele>189.90039</ele>
        <time>2026-05-16T09:53:19+02:00</time>
      </trkpt>
      <trkpt lat="47.46418" lon="5.62805">
        <ele>189.7002</ele>
        <time>2026-05-16T09:53:20+02:00</time>
      </trkpt>
      <trkpt lat="47.4642" lon="5.62812">
        <ele>189.60059</ele>
        <time>2026-05-16T09:53:21+02:00</time>
      </trkpt>
      <trkpt lat="47.46423" lon="5.62819">
        <ele>189.60059</ele>
        <time>2026-05-16T09:53:22+02:00</time>
      </trkpt>
      <trkpt lat="47.46426" lon="5.62827">
        <ele>189.60059</ele>
        <time>2026-05-16T09:53:23+02:00</time>
      </trkpt>
      <trkpt lat="47.46428" lon="5.62834">
        <ele>189.60059</ele>
        <time>2026-05-16T09:53:24+02:00</time>
      </trkpt>
      <trkpt lat="47.46431" lon="5.62841">
        <ele>189.7002</ele>
        <time>2026-05-16T09:53:25+02:00</time>
      </trkpt>
      <trkpt lat="47.46434" lon="5.62848">
        <ele>189.7002</ele>
        <time>2026-05-16T09:53:26+02:00</time>
      </trkpt>
      <trkpt lat="47.46436" lon="5.62856">
        <ele>189.60059</ele>
        <time>2026-05-16T09:53:27+02:00</time>
      </trkpt>
      <trkpt lat="47.46439" lon="5.62863">
        <ele>189.7002</ele>
        <time>2026-05-16T09:53:28+02:00</time>
      </trkpt>
      <trkpt lat="47.46441" lon="5.62871">
        <ele>189.7002</ele>
        <time>2026-05-16T09:53:29+02:00</time>
      </trkpt>
      <trkpt lat="47.46444" lon="5.62878">
        <ele>189.7998</ele>
        <time>2026-05-16T09:53:30+02:00</time>
      </trkpt>
      <trkpt lat="47.46447" lon="5.62886">
        <ele>189.7998</ele>
        <time>2026-05-16T09:53:31+02:00</time>
      </trkpt>
      <trkpt lat="47.46449" lon="5.62893">
        <ele>189.7998</ele>
        <time>2026-05-16T09:53:32+02:00</time>
      </trkpt>
      <trkpt lat="47.46452" lon="5.629">
        <ele>189.7998</ele>
        <time>2026-05-16T09:53:33+02:00</time>
      </trkpt>
      <trkpt lat="47.46455" lon="5.62908">
        <ele>189.7998</ele>
        <time>2026-05-16T09:53:34+02:00</time>
      </trkpt>
      <trkpt lat="47.46458" lon="5.62915">
        <ele>189.7998</ele>
        <time>2026-05-16T09:53:35+02:00</time>
      </trkpt>
      <trkpt lat="47.4646" lon="5.62922">
        <ele>189.90039</ele>
        <time>2026-05-16T09:53:36+02:00</time>
      </trkpt>
      <trkpt lat="47.46463" lon="5.62929">
        <ele>189.90039</ele>
        <time>2026-05-16T09:53:37+02:00</time>
      </trkpt>
      <trkpt lat="47.46466" lon="5.62936">
        <ele>190</ele>
        <time>2026-05-16T09:53:38+02:00</time>
      </trkpt>
      <trkpt lat="47.46468" lon="5.62944">
        <ele>190</ele>
        <time>2026-05-16T09:53:39+02:00</time>
      </trkpt>
      <trkpt lat="47.46471" lon="5.62951">
        <ele>190</ele>
        <time>2026-05-16T09:53:40+02:00</time>
      </trkpt>
      <trkpt lat="47.46474" lon="5.62958">
        <ele>190.10059</ele>
        <time>2026-05-16T09:53:41+02:00</time>
      </trkpt>
      <trkpt lat="47.46476" lon="5.62966">
        <ele>190.10059</ele>
        <time>2026-05-16T09:53:42+02:00</time>
      </trkpt>
      <trkpt lat="47.46479" lon="5.62973">
        <ele>190.2002</ele>
        <time>2026-05-16T09:53:43+02:00</time>
      </trkpt>
      <trkpt lat="47.46481" lon="5.6298">
        <ele>190.2002</ele>
        <time>2026-05-16T09:53:44+02:00</time>
      </trkpt>
      <trkpt lat="47.46484" lon="5.62987">
        <ele>190.2002</ele>
        <time>2026-05-16T09:53:45+02:00</time>
      </trkpt>
      <trkpt lat="47.46487" lon="5.62994">
        <ele>190.2002</ele>
        <time>2026-05-16T09:53:46+02:00</time>
      </trkpt>
      <trkpt lat="47.46489" lon="5.63001">
        <ele>190.2002</ele>
        <time>2026-05-16T09:53:47+02:00</time>
      </trkpt>
      <trkpt lat="47.46493" lon="5.63008">
        <ele>190.10059</ele>
        <time>2026-05-16T09:53:48+02:00</time>
      </trkpt>
      <trkpt lat="47.46495" lon="5.63016">
        <ele>190.10059</ele>
        <time>2026-05-16T09:53:49+02:00</time>
      </trkpt>
      <trkpt lat="47.46497" lon="5.63023">
        <ele>190.10059</ele>
        <time>2026-05-16T09:53:50+02:00</time>
      </trkpt>
      <trkpt lat="47.465" lon="5.6303">
        <ele>190</ele>
        <time>2026-05-16T09:53:51+02:00</time>
      </trkpt>
      <trkpt lat="47.46503" lon="5.63037">
        <ele>190</ele>
        <time>2026-05-16T09:53:52+02:00</time>
      </trkpt>
      <trkpt lat="47.46505" lon="5.63044">
        <ele>189.90039</ele>
        <time>2026-05-16T09:53:53+02:00</time>
      </trkpt>
      <trkpt lat="47.46508" lon="5.63051">
        <ele>190</ele>
        <time>2026-05-16T09:53:54+02:00</time>
      </trkpt>
      <trkpt lat="47.4651" lon="5.63058">
        <ele>189.90039</ele>
        <time>2026-05-16T09:53:55+02:00</time>
      </trkpt>
      <trkpt lat="47.46513" lon="5.63064">
        <ele>190.10059</ele>
        <time>2026-05-16T09:53:56+02:00</time>
      </trkpt>
      <trkpt lat="47.46515" lon="5.63071">
        <ele>190</ele>
        <time>2026-05-16T09:53:57+02:00</time>
      </trkpt>
      <trkpt lat="47.46518" lon="5.63078">
        <ele>190.2002</ele>
        <time>2026-05-16T09:53:58+02:00</time>
      </trkpt>
      <trkpt lat="47.46521" lon="5.63085">
        <ele>190.2002</ele>
        <time>2026-05-16T09:53:59+02:00</time>
      </trkpt>
      <trkpt lat="47.46523" lon="5.63092">
        <ele>190.2002</ele>
        <time>2026-05-16T09:54:00+02:00</time>
      </trkpt>
      <trkpt lat="47.46526" lon="5.63099">
        <ele>190.40039</ele>
        <time>2026-05-16T09:54:01+02:00</time>
      </trkpt>
      <trkpt lat="47.46528" lon="5.63106">
        <ele>190.40039</ele>
        <time>2026-05-16T09:54:02+02:00</time>
      </trkpt>
      <trkpt lat="47.46531" lon="5.63113">
        <ele>190.60059</ele>
        <time>2026-05-16T09:54:03+02:00</time>
      </trkpt>
      <trkpt lat="47.46533" lon="5.6312">
        <ele>190.60059</ele>
        <time>2026-05-16T09:54:04+02:00</time>
      </trkpt>
      <trkpt lat="47.46536" lon="5.63127">
        <ele>190.7002</ele>
        <time>2026-05-16T09:54:05+02:00</time>
      </trkpt>
      <trkpt lat="47.46539" lon="5.63134">
        <ele>190.7002</ele>
        <time>2026-05-16T09:54:06+02:00</time>
      </trkpt>
      <trkpt lat="47.46541" lon="5.63141">
        <ele>190.7002</ele>
        <time>2026-05-16T09:54:07+02:00</time>
      </trkpt>
      <trkpt lat="47.46544" lon="5.63148">
        <ele>190.7998</ele>
        <time>2026-05-16T09:54:08+02:00</time>
      </trkpt>
      <trkpt lat="47.46546" lon="5.63155">
        <ele>190.7998</ele>
        <time>2026-05-16T09:54:09+02:00</time>
      </trkpt>
      <trkpt lat="47.46549" lon="5.63162">
        <ele>190.90039</ele>
        <time>2026-05-16T09:54:10+02:00</time>
      </trkpt>
      <trkpt lat="47.46551" lon="5.63169">
        <ele>190.90039</ele>
        <time>2026-05-16T09:54:11+02:00</time>
      </trkpt>
      <trkpt lat="47.46554" lon="5.63176">
        <ele>190.90039</ele>
        <time>2026-05-16T09:54:12+02:00</time>
      </trkpt>
      <trkpt lat="47.46557" lon="5.63183">
        <ele>191</ele>
        <time>2026-05-16T09:54:13+02:00</time>
      </trkpt>
      <trkpt lat="47.46559" lon="5.6319">
        <ele>191</ele>
        <time>2026-05-16T09:54:14+02:00</time>
      </trkpt>
      <trkpt lat="47.46562" lon="5.63198">
        <ele>191</ele>
        <time>2026-05-16T09:54:15+02:00</time>
      </trkpt>
      <trkpt lat="47.46564" lon="5.63205">
        <ele>191</ele>
        <time>2026-05-16T09:54:16+02:00</time>
      </trkpt>
      <trkpt lat="47.46567" lon="5.63212">
        <ele>191</ele>
        <time>2026-05-16T09:54:17+02:00</time>
      </trkpt>
      <trkpt lat="47.4657" lon="5.6322">
        <ele>191</ele>
        <time>2026-05-16T09:54:18+02:00</time>
      </trkpt>
      <trkpt lat="47.46572" lon="5.63227">
        <ele>191</ele>
        <time>2026-05-16T09:54:19+02:00</time>
      </trkpt>
      <trkpt lat="47.46575" lon="5.63234">
        <ele>191</ele>
        <time>2026-05-16T09:54:20+02:00</time>
      </trkpt>
      <trkpt lat="47.46578" lon="5.63241">
        <ele>191</ele>
        <time>2026-05-16T09:54:21+02:00</time>
      </trkpt>
      <trkpt lat="47.46581" lon="5.63248">
        <ele>190.90039</ele>
        <time>2026-05-16T09:54:22+02:00</time>
      </trkpt>
      <trkpt lat="47.46583" lon="5.63256">
        <ele>190.7998</ele>
        <time>2026-05-16T09:54:23+02:00</time>
      </trkpt>
      <trkpt lat="47.46586" lon="5.63263">
        <ele>190.7998</ele>
        <time>2026-05-16T09:54:24+02:00</time>
      </trkpt>
      <trkpt lat="47.46589" lon="5.6327">
        <ele>190.7002</ele>
        <time>2026-05-16T09:54:25+02:00</time>
      </trkpt>
      <trkpt lat="47.46592" lon="5.63277">
        <ele>190.7002</ele>
        <time>2026-05-16T09:54:26+02:00</time>
      </trkpt>
      <trkpt lat="47.46595" lon="5.63284">
        <ele>190.60059</ele>
        <time>2026-05-16T09:54:27+02:00</time>
      </trkpt>
      <trkpt lat="47.46598" lon="5.6329">
        <ele>190.60059</ele>
        <time>2026-05-16T09:54:28+02:00</time>
      </trkpt>
      <trkpt lat="47.46602" lon="5.63296">
        <ele>190.60059</ele>
        <time>2026-05-16T09:54:29+02:00</time>
      </trkpt>
      <trkpt lat="47.46605" lon="5.63303">
        <ele>190.5</ele>
        <time>2026-05-16T09:54:30+02:00</time>
      </trkpt>
      <trkpt lat="47.46608" lon="5.63309">
        <ele>190.5</ele>
        <time>2026-05-16T09:54:31+02:00</time>
      </trkpt>
      <trkpt lat="47.46612" lon="5.63317">
        <ele>190.5</ele>
        <time>2026-05-16T09:54:32+02:00</time>
      </trkpt>
      <trkpt lat="47.46615" lon="5.63324">
        <ele>190.5</ele>
        <time>2026-05-16T09:54:33+02:00</time>
      </trkpt>
      <trkpt lat="47.46618" lon="5.63331">
        <ele>190.60059</ele>
        <time>2026-05-16T09:54:34+02:00</time>
      </trkpt>
      <trkpt lat="47.46621" lon="5.63339">
        <ele>190.5</ele>
        <time>2026-05-16T09:54:35+02:00</time>
      </trkpt>
      <trkpt lat="47.46623" lon="5.63346">
        <ele>190.5</ele>
        <time>2026-05-16T09:54:36+02:00</time>
      </trkpt>
      <trkpt lat="47.46626" lon="5.63354">
        <ele>190.5</ele>
        <time>2026-05-16T09:54:37+02:00</time>
      </trkpt>
      <trkpt lat="47.46629" lon="5.63361">
        <ele>190.5</ele>
        <time>2026-05-16T09:54:38+02:00</time>
      </trkpt>
      <trkpt lat="47.46631" lon="5.63368">
        <ele>190.40039</ele>
        <time>2026-05-16T09:54:39+02:00</time>
      </trkpt>
      <trkpt lat="47.46634" lon="5.63375">
        <ele>190.40039</ele>
        <time>2026-05-16T09:54:40+02:00</time>
      </trkpt>
      <trkpt lat="47.46636" lon="5.63383">
        <ele>190.2998</ele>
        <time>2026-05-16T09:54:41+02:00</time>
      </trkpt>
      <trkpt lat="47.46639" lon="5.6339">
        <ele>190.2002</ele>
        <time>2026-05-16T09:54:42+02:00</time>
      </trkpt>
      <trkpt lat="47.46641" lon="5.63397">
        <ele>190.2002</ele>
        <time>2026-05-16T09:54:43+02:00</time>
      </trkpt>
      <trkpt lat="47.46644" lon="5.63404">
        <ele>190.10059</ele>
        <time>2026-05-16T09:54:44+02:00</time>
      </trkpt>
      <trkpt lat="47.46647" lon="5.63411">
        <ele>190.10059</ele>
        <time>2026-05-16T09:54:45+02:00</time>
      </trkpt>
      <trkpt lat="47.46649" lon="5.63418">
        <ele>190.10059</ele>
        <time>2026-05-16T09:54:46+02:00</time>
      </trkpt>
      <trkpt lat="47.46652" lon="5.63425">
        <ele>190.2002</ele>
        <time>2026-05-16T09:54:47+02:00</time>
      </trkpt>
      <trkpt lat="47.46654" lon="5.63432">
        <ele>190.2002</ele>
        <time>2026-05-16T09:54:48+02:00</time>
      </trkpt>
      <trkpt lat="47.46657" lon="5.63438">
        <ele>190.2002</ele>
        <time>2026-05-16T09:54:49+02:00</time>
      </trkpt>
      <trkpt lat="47.4666" lon="5.63445">
        <ele>190.2002</ele>
        <time>2026-05-16T09:54:50+02:00</time>
      </trkpt>
      <trkpt lat="47.46662" lon="5.63452">
        <ele>190.2002</ele>
        <time>2026-05-16T09:54:51+02:00</time>
      </trkpt>
      <trkpt lat="47.46665" lon="5.63459">
        <ele>190.2998</ele>
        <time>2026-05-16T09:54:52+02:00</time>
      </trkpt>
      <trkpt lat="47.46668" lon="5.63467">
        <ele>190.2998</ele>
        <time>2026-05-16T09:54:53+02:00</time>
      </trkpt>
      <trkpt lat="47.4667" lon="5.63474">
        <ele>190.40039</ele>
        <time>2026-05-16T09:54:54+02:00</time>
      </trkpt>
      <trkpt lat="47.46673" lon="5.63481">
        <ele>190.40039</ele>
        <time>2026-05-16T09:54:55+02:00</time>
      </trkpt>
      <trkpt lat="47.46676" lon="5.63488">
        <ele>190.5</ele>
        <time>2026-05-16T09:54:56+02:00</time>
      </trkpt>
      <trkpt lat="47.46678" lon="5.63495">
        <ele>190.5</ele>
        <time>2026-05-16T09:54:57+02:00</time>
      </trkpt>
      <trkpt lat="47.46681" lon="5.63502">
        <ele>190.60059</ele>
        <time>2026-05-16T09:54:58+02:00</time>
      </trkpt>
      <trkpt lat="47.46683" lon="5.63509">
        <ele>190.5</ele>
        <time>2026-05-16T09:54:59+02:00</time>
      </trkpt>
      <trkpt lat="47.46686" lon="5.63517">
        <ele>190.60059</ele>
        <time>2026-05-16T09:55:00+02:00</time>
      </trkpt>
      <trkpt lat="47.46689" lon="5.63524">
        <ele>190.5</ele>
        <time>2026-05-16T09:55:01+02:00</time>
      </trkpt>
      <trkpt lat="47.46691" lon="5.63531">
        <ele>190.40039</ele>
        <time>2026-05-16T09:55:02+02:00</time>
      </trkpt>
      <trkpt lat="47.46694" lon="5.63539">
        <ele>190.5</ele>
        <time>2026-05-16T09:55:03+02:00</time>
      </trkpt>
      <trkpt lat="47.46697" lon="5.63546">
        <ele>190.5</ele>
        <time>2026-05-16T09:55:04+02:00</time>
      </trkpt>
      <trkpt lat="47.46699" lon="5.63553">
        <ele>190.5</ele>
        <time>2026-05-16T09:55:05+02:00</time>
      </trkpt>
      <trkpt lat="47.46702" lon="5.63561">
        <ele>190.40039</ele>
        <time>2026-05-16T09:55:06+02:00</time>
      </trkpt>
      <trkpt lat="47.46705" lon="5.63568">
        <ele>190.5</ele>
        <time>2026-05-16T09:55:07+02:00</time>
      </trkpt>
      <trkpt lat="47.46707" lon="5.63575">
        <ele>190.40039</ele>
        <time>2026-05-16T09:55:08+02:00</time>
      </trkpt>
      <trkpt lat="47.4671" lon="5.63582">
        <ele>190.5</ele>
        <time>2026-05-16T09:55:09+02:00</time>
      </trkpt>
      <trkpt lat="47.46712" lon="5.63589">
        <ele>190.5</ele>
        <time>2026-05-16T09:55:10+02:00</time>
      </trkpt>
      <trkpt lat="47.46715" lon="5.63596">
        <ele>190.5</ele>
        <time>2026-05-16T09:55:11+02:00</time>
      </trkpt>
      <trkpt lat="47.46718" lon="5.63603">
        <ele>190.5</ele>
        <time>2026-05-16T09:55:12+02:00</time>
      </trkpt>
      <trkpt lat="47.4672" lon="5.6361">
        <ele>190.40039</ele>
        <time>2026-05-16T09:55:13+02:00</time>
      </trkpt>
      <trkpt lat="47.46723" lon="5.63618">
        <ele>190.5</ele>
        <time>2026-05-16T09:55:14+02:00</time>
      </trkpt>
      <trkpt lat="47.46726" lon="5.63625">
        <ele>190.5</ele>
        <time>2026-05-16T09:55:15+02:00</time>
      </trkpt>
      <trkpt lat="47.46728" lon="5.63632">
        <ele>190.60059</ele>
        <time>2026-05-16T09:55:16+02:00</time>
      </trkpt>
      <trkpt lat="47.46731" lon="5.63639">
        <ele>190.60059</ele>
        <time>2026-05-16T09:55:17+02:00</time>
      </trkpt>
      <trkpt lat="47.46734" lon="5.63646">
        <ele>190.7002</ele>
        <time>2026-05-16T09:55:18+02:00</time>
      </trkpt>
      <trkpt lat="47.46736" lon="5.63653">
        <ele>190.7002</ele>
        <time>2026-05-16T09:55:19+02:00</time>
      </trkpt>
      <trkpt lat="47.46739" lon="5.6366">
        <ele>190.7998</ele>
        <time>2026-05-16T09:55:20+02:00</time>
      </trkpt>
      <trkpt lat="47.46741" lon="5.63667">
        <ele>190.7998</ele>
        <time>2026-05-16T09:55:21+02:00</time>
      </trkpt>
      <trkpt lat="47.46744" lon="5.63674">
        <ele>191</ele>
        <time>2026-05-16T09:55:22+02:00</time>
      </trkpt>
      <trkpt lat="47.46746" lon="5.63681">
        <ele>191</ele>
        <time>2026-05-16T09:55:23+02:00</time>
      </trkpt>
      <trkpt lat="47.46748" lon="5.63688">
        <ele>191.10059</ele>
        <time>2026-05-16T09:55:24+02:00</time>
      </trkpt>
      <trkpt lat="47.46751" lon="5.63694">
        <ele>191.40039</ele>
        <time>2026-05-16T09:55:25+02:00</time>
      </trkpt>
      <trkpt lat="47.46753" lon="5.63699">
        <ele>191.40039</ele>
        <time>2026-05-16T09:55:26+02:00</time>
      </trkpt>
      <trkpt lat="47.46757" lon="5.63702">
        <ele>191.60059</ele>
        <time>2026-05-16T09:55:27+02:00</time>
      </trkpt>
      <trkpt lat="47.46761" lon="5.63703">
        <ele>191.60059</ele>
        <time>2026-05-16T09:55:28+02:00</time>
      </trkpt>
      <trkpt lat="47.46765" lon="5.63702">
        <ele>191.90039</ele>
        <time>2026-05-16T09:55:29+02:00</time>
      </trkpt>
      <trkpt lat="47.46769" lon="5.637">
        <ele>192</ele>
        <time>2026-05-16T09:55:30+02:00</time>
      </trkpt>
      <trkpt lat="47.46773" lon="5.63698">
        <ele>192.2998</ele>
        <time>2026-05-16T09:55:31+02:00</time>
      </trkpt>
      <trkpt lat="47.46777" lon="5.63695">
        <ele>192.2998</ele>
        <time>2026-05-16T09:55:32+02:00</time>
      </trkpt>
      <trkpt lat="47.46781" lon="5.63692">
        <ele>192.40039</ele>
        <time>2026-05-16T09:55:33+02:00</time>
      </trkpt>
      <trkpt lat="47.46784" lon="5.63688">
        <ele>192.40039</ele>
        <time>2026-05-16T09:55:34+02:00</time>
      </trkpt>
      <trkpt lat="47.46788" lon="5.63686">
        <ele>192.7002</ele>
        <time>2026-05-16T09:55:35+02:00</time>
      </trkpt>
      <trkpt lat="47.46791" lon="5.63683">
        <ele>192.7998</ele>
        <time>2026-05-16T09:55:36+02:00</time>
      </trkpt>
      <trkpt lat="47.46795" lon="5.6368">
        <ele>192.7998</ele>
        <time>2026-05-16T09:55:37+02:00</time>
      </trkpt>
      <trkpt lat="47.46798" lon="5.63677">
        <ele>193.10059</ele>
        <time>2026-05-16T09:55:38+02:00</time>
      </trkpt>
      <trkpt lat="47.46802" lon="5.63674">
        <ele>193.2002</ele>
        <time>2026-05-16T09:55:39+02:00</time>
      </trkpt>
      <trkpt lat="47.46806" lon="5.63671">
        <ele>193.2002</ele>
        <time>2026-05-16T09:55:40+02:00</time>
      </trkpt>
      <trkpt lat="47.4681" lon="5.63669">
        <ele>193.40039</ele>
        <time>2026-05-16T09:55:41+02:00</time>
      </trkpt>
      <trkpt lat="47.46813" lon="5.63666">
        <ele>193.2998</ele>
        <time>2026-05-16T09:55:42+02:00</time>
      </trkpt>
      <trkpt lat="47.46817" lon="5.63664">
        <ele>193.5</ele>
        <time>2026-05-16T09:55:43+02:00</time>
      </trkpt>
      <trkpt lat="47.46821" lon="5.63662">
        <ele>193.60059</ele>
        <time>2026-05-16T09:55:44+02:00</time>
      </trkpt>
      <trkpt lat="47.46824" lon="5.63661">
        <ele>193.60059</ele>
        <time>2026-05-16T09:55:45+02:00</time>
      </trkpt>
      <trkpt lat="47.46828" lon="5.63659">
        <ele>193.60059</ele>
        <time>2026-05-16T09:55:46+02:00</time>
      </trkpt>
      <trkpt lat="47.46831" lon="5.63658">
        <ele>193.40039</ele>
        <time>2026-05-16T09:55:47+02:00</time>
      </trkpt>
      <trkpt lat="47.46835" lon="5.63656">
        <ele>193.40039</ele>
        <time>2026-05-16T09:55:48+02:00</time>
      </trkpt>
      <trkpt lat="47.46838" lon="5.63655">
        <ele>193.2998</ele>
        <time>2026-05-16T09:55:49+02:00</time>
      </trkpt>
      <trkpt lat="47.4684" lon="5.63656">
        <ele>193.2998</ele>
        <time>2026-05-16T09:55:50+02:00</time>
      </trkpt>
      <trkpt lat="47.46842" lon="5.63658">
        <ele>193.2998</ele>
        <time>2026-05-16T09:55:51+02:00</time>
      </trkpt>
      <trkpt lat="47.46843" lon="5.63661">
        <ele>193.40039</ele>
        <time>2026-05-16T09:55:52+02:00</time>
      </trkpt>
      <trkpt lat="47.46844" lon="5.63665">
        <ele>193.40039</ele>
        <time>2026-05-16T09:55:53+02:00</time>
      </trkpt>
      <trkpt lat="47.46845" lon="5.63671">
        <ele>193.5</ele>
        <time>2026-05-16T09:55:54+02:00</time>
      </trkpt>
      <trkpt lat="47.46847" lon="5.63679">
        <ele>193.7002</ele>
        <time>2026-05-16T09:55:55+02:00</time>
      </trkpt>
      <trkpt lat="47.46848" lon="5.63687">
        <ele>193.7998</ele>
        <time>2026-05-16T09:55:56+02:00</time>
      </trkpt>
      <trkpt lat="47.46849" lon="5.63695">
        <ele>193.90039</ele>
        <time>2026-05-16T09:55:57+02:00</time>
      </trkpt>
      <trkpt lat="47.46851" lon="5.63705">
        <ele>194</ele>
        <time>2026-05-16T09:55:58+02:00</time>
      </trkpt>
      <trkpt lat="47.46853" lon="5.63714">
        <ele>194.2002</ele>
        <time>2026-05-16T09:55:59+02:00</time>
      </trkpt>
      <trkpt lat="47.46855" lon="5.63724">
        <ele>194.10059</ele>
        <time>2026-05-16T09:56:00+02:00</time>
      </trkpt>
      <trkpt lat="47.46856" lon="5.63733">
        <ele>194.2002</ele>
        <time>2026-05-16T09:56:01+02:00</time>
      </trkpt>
      <trkpt lat="47.46858" lon="5.63742">
        <ele>194.2998</ele>
        <time>2026-05-16T09:56:02+02:00</time>
      </trkpt>
      <trkpt lat="47.4686" lon="5.63751">
        <ele>194.40039</ele>
        <time>2026-05-16T09:56:03+02:00</time>
      </trkpt>
      <trkpt lat="47.46862" lon="5.6376">
        <ele>193.5</ele>
        <time>2026-05-16T09:56:04+02:00</time>
      </trkpt>
      <trkpt lat="47.46863" lon="5.63769">
        <ele>193.60059</ele>
        <time>2026-05-16T09:56:05+02:00</time>
      </trkpt>
      <trkpt lat="47.46865" lon="5.63776">
        <ele>193.7002</ele>
        <time>2026-05-16T09:56:06+02:00</time>
      </trkpt>
      <trkpt lat="47.46867" lon="5.63784">
        <ele>192.2002</ele>
        <time>2026-05-16T09:56:07+02:00</time>
      </trkpt>
      <trkpt lat="47.46868" lon="5.63791">
        <ele>192.7002</ele>
        <time>2026-05-16T09:56:08+02:00</time>
      </trkpt>
      <trkpt lat="47.46869" lon="5.63799">
        <ele>193</ele>
        <time>2026-05-16T09:56:09+02:00</time>
      </trkpt>
      <trkpt lat="47.46871" lon="5.63805">
        <ele>193.10059</ele>
        <time>2026-05-16T09:56:10+02:00</time>
      </trkpt>
      <trkpt lat="47.46871" lon="5.63812">
        <ele>193.10059</ele>
        <time>2026-05-16T09:56:11+02:00</time>
      </trkpt>
      <trkpt lat="47.46872" lon="5.6382">
        <ele>192</ele>
        <time>2026-05-16T09:56:12+02:00</time>
      </trkpt>
      <trkpt lat="47.46873" lon="5.63827">
        <ele>192</ele>
        <time>2026-05-16T09:56:13+02:00</time>
      </trkpt>
      <trkpt lat="47.46874" lon="5.63835">
        <ele>191.90039</ele>
        <time>2026-05-16T09:56:14+02:00</time>
      </trkpt>
      <trkpt lat="47.46875" lon="5.63842">
        <ele>191.7998</ele>
        <time>2026-05-16T09:56:15+02:00</time>
      </trkpt>
      <trkpt lat="47.46875" lon="5.63849">
        <ele>191.7002</ele>
        <time>2026-05-16T09:56:16+02:00</time>
      </trkpt>
      <trkpt lat="47.46876" lon="5.63856">
        <ele>191.7002</ele>
        <time>2026-05-16T09:56:17+02:00</time>
      </trkpt>
      <trkpt lat="47.46876" lon="5.63863">
        <ele>191.60059</ele>
        <time>2026-05-16T09:56:18+02:00</time>
      </trkpt>
      <trkpt lat="47.46876" lon="5.6387">
        <ele>191.40039</ele>
        <time>2026-05-16T09:56:19+02:00</time>
      </trkpt>
      <trkpt lat="47.46875" lon="5.63878">
        <ele>191.2002</ele>
        <time>2026-05-16T09:56:20+02:00</time>
      </trkpt>
      <trkpt lat="47.46874" lon="5.63886">
        <ele>191</ele>
        <time>2026-05-16T09:56:21+02:00</time>
      </trkpt>
      <trkpt lat="47.46873" lon="5.63894">
        <ele>190.7998</ele>
        <time>2026-05-16T09:56:22+02:00</time>
      </trkpt>
      <trkpt lat="47.46871" lon="5.63903">
        <ele>191.2998</ele>
        <time>2026-05-16T09:56:23+02:00</time>
      </trkpt>
      <trkpt lat="47.46871" lon="5.63911">
        <ele>190.7002</ele>
        <time>2026-05-16T09:56:24+02:00</time>
      </trkpt>
      <trkpt lat="47.46869" lon="5.63919">
        <ele>189.90039</ele>
        <time>2026-05-16T09:56:25+02:00</time>
      </trkpt>
      <trkpt lat="47.46868" lon="5.63927">
        <ele>189</ele>
        <time>2026-05-16T09:56:26+02:00</time>
      </trkpt>
      <trkpt lat="47.46868" lon="5.63936">
        <ele>188.40039</ele>
        <time>2026-05-16T09:56:27+02:00</time>
      </trkpt>
      <trkpt lat="47.46867" lon="5.63944">
        <ele>188.5</ele>
        <time>2026-05-16T09:56:28+02:00</time>
      </trkpt>
      <trkpt lat="47.46866" lon="5.63952">
        <ele>189.40039</ele>
        <time>2026-05-16T09:56:29+02:00</time>
      </trkpt>
      <trkpt lat="47.46866" lon="5.6396">
        <ele>190.2998</ele>
        <time>2026-05-16T09:56:30+02:00</time>
      </trkpt>
      <trkpt lat="47.46866" lon="5.63968">
        <ele>190.7998</ele>
        <time>2026-05-16T09:56:31+02:00</time>
      </trkpt>
      <trkpt lat="47.46866" lon="5.63976">
        <ele>190.7998</ele>
        <time>2026-05-16T09:56:32+02:00</time>
      </trkpt>
      <trkpt lat="47.46866" lon="5.63984">
        <ele>191</ele>
        <time>2026-05-16T09:56:33+02:00</time>
      </trkpt>
      <trkpt lat="47.46867" lon="5.63992">
        <ele>190.60059</ele>
        <time>2026-05-16T09:56:34+02:00</time>
      </trkpt>
      <trkpt lat="47.46867" lon="5.64001">
        <ele>190.5</ele>
        <time>2026-05-16T09:56:35+02:00</time>
      </trkpt>
      <trkpt lat="47.46868" lon="5.64009">
        <ele>190.5</ele>
        <time>2026-05-16T09:56:36+02:00</time>
      </trkpt>
      <trkpt lat="47.46868" lon="5.64017">
        <ele>190.5</ele>
        <time>2026-05-16T09:56:37+02:00</time>
      </trkpt>
      <trkpt lat="47.46869" lon="5.64025">
        <ele>190.5</ele>
        <time>2026-05-16T09:56:38+02:00</time>
      </trkpt>
      <trkpt lat="47.4687" lon="5.64033">
        <ele>190.5</ele>
        <time>2026-05-16T09:56:39+02:00</time>
      </trkpt>
      <trkpt lat="47.46871" lon="5.64041">
        <ele>190.5</ele>
        <time>2026-05-16T09:56:40+02:00</time>
      </trkpt>
      <trkpt lat="47.46872" lon="5.64049">
        <ele>190.10059</ele>
        <time>2026-05-16T09:56:41+02:00</time>
      </trkpt>
      <trkpt lat="47.46873" lon="5.64057">
        <ele>190.2002</ele>
        <time>2026-05-16T09:56:42+02:00</time>
      </trkpt>
      <trkpt lat="47.46874" lon="5.64064">
        <ele>190.2002</ele>
        <time>2026-05-16T09:56:43+02:00</time>
      </trkpt>
      <trkpt lat="47.46875" lon="5.64072">
        <ele>190.2002</ele>
        <time>2026-05-16T09:56:44+02:00</time>
      </trkpt>
      <trkpt lat="47.46876" lon="5.6408">
        <ele>190.2998</ele>
        <time>2026-05-16T09:56:45+02:00</time>
      </trkpt>
      <trkpt lat="47.46877" lon="5.64088">
        <ele>190.2998</ele>
        <time>2026-05-16T09:56:46+02:00</time>
      </trkpt>
      <trkpt lat="47.46879" lon="5.64095">
        <ele>189.7998</ele>
        <time>2026-05-16T09:56:47+02:00</time>
      </trkpt>
      <trkpt lat="47.4688" lon="5.64103">
        <ele>189.90039</ele>
        <time>2026-05-16T09:56:48+02:00</time>
      </trkpt>
      <trkpt lat="47.46881" lon="5.64111">
        <ele>189.90039</ele>
        <time>2026-05-16T09:56:49+02:00</time>
      </trkpt>
      <trkpt lat="47.46883" lon="5.64118">
        <ele>189.90039</ele>
        <time>2026-05-16T09:56:50+02:00</time>
      </trkpt>
      <trkpt lat="47.46884" lon="5.64126">
        <ele>189.5</ele>
        <time>2026-05-16T09:56:51+02:00</time>
      </trkpt>
      <trkpt lat="47.46885" lon="5.64134">
        <ele>189.60059</ele>
        <time>2026-05-16T09:56:52+02:00</time>
      </trkpt>
      <trkpt lat="47.46887" lon="5.64141">
        <ele>189.7002</ele>
        <time>2026-05-16T09:56:53+02:00</time>
      </trkpt>
      <trkpt lat="47.46888" lon="5.64149">
        <ele>189.7998</ele>
        <time>2026-05-16T09:56:54+02:00</time>
      </trkpt>
      <trkpt lat="47.4689" lon="5.64156">
        <ele>189.60059</ele>
        <time>2026-05-16T09:56:55+02:00</time>
      </trkpt>
      <trkpt lat="47.46891" lon="5.64163">
        <ele>189.7998</ele>
        <time>2026-05-16T09:56:56+02:00</time>
      </trkpt>
      <trkpt lat="47.46893" lon="5.64171">
        <ele>190.10059</ele>
        <time>2026-05-16T09:56:57+02:00</time>
      </trkpt>
      <trkpt lat="47.46895" lon="5.64178">
        <ele>190.60059</ele>
        <time>2026-05-16T09:56:58+02:00</time>
      </trkpt>
      <trkpt lat="47.46896" lon="5.64186">
        <ele>190.7998</ele>
        <time>2026-05-16T09:56:59+02:00</time>
      </trkpt>
      <trkpt lat="47.46898" lon="5.64193">
        <ele>191.2998</ele>
        <time>2026-05-16T09:57:00+02:00</time>
      </trkpt>
      <trkpt lat="47.469" lon="5.642">
        <ele>191.7998</ele>
        <time>2026-05-16T09:57:01+02:00</time>
      </trkpt>
      <trkpt lat="47.46902" lon="5.64208">
        <ele>191.2002</ele>
        <time>2026-05-16T09:57:02+02:00</time>
      </trkpt>
      <trkpt lat="47.46904" lon="5.64215">
        <ele>191.7002</ele>
        <time>2026-05-16T09:57:03+02:00</time>
      </trkpt>
      <trkpt lat="47.46906" lon="5.64222">
        <ele>192.10059</ele>
        <time>2026-05-16T09:57:04+02:00</time>
      </trkpt>
      <trkpt lat="47.46909" lon="5.64228">
        <ele>192</ele>
        <time>2026-05-16T09:57:05+02:00</time>
      </trkpt>
      <trkpt lat="47.46911" lon="5.64236">
        <ele>192.5</ele>
        <time>2026-05-16T09:57:06+02:00</time>
      </trkpt>
      <trkpt lat="47.46913" lon="5.64243">
        <ele>192.2998</ele>
        <time>2026-05-16T09:57:07+02:00</time>
      </trkpt>
      <trkpt lat="47.46916" lon="5.6425">
        <ele>192.2998</ele>
        <time>2026-05-16T09:57:08+02:00</time>
      </trkpt>
      <trkpt lat="47.46918" lon="5.64257">
        <ele>192.7998</ele>
        <time>2026-05-16T09:57:09+02:00</time>
      </trkpt>
      <trkpt lat="47.46921" lon="5.64264">
        <ele>192.90039</ele>
        <time>2026-05-16T09:57:10+02:00</time>
      </trkpt>
      <trkpt lat="47.46924" lon="5.64271">
        <ele>193.40039</ele>
        <time>2026-05-16T09:57:11+02:00</time>
      </trkpt>
      <trkpt lat="47.46927" lon="5.64277">
        <ele>193.5</ele>
        <time>2026-05-16T09:57:12+02:00</time>
      </trkpt>
      <trkpt lat="47.4693" lon="5.64284">
        <ele>193.10059</ele>
        <time>2026-05-16T09:57:13+02:00</time>
      </trkpt>
      <trkpt lat="47.46933" lon="5.6429">
        <ele>193.7998</ele>
        <time>2026-05-16T09:57:14+02:00</time>
      </trkpt>
      <trkpt lat="47.46937" lon="5.64296">
        <ele>194.10059</ele>
        <time>2026-05-16T09:57:15+02:00</time>
      </trkpt>
      <trkpt lat="47.46941" lon="5.64302">
        <ele>194.10059</ele>
        <time>2026-05-16T09:57:16+02:00</time>
      </trkpt>
      <trkpt lat="47.46945" lon="5.64308">
        <ele>194.2002</ele>
        <time>2026-05-16T09:57:17+02:00</time>
      </trkpt>
      <trkpt lat="47.46949" lon="5.64314">
        <ele>194.40039</ele>
        <time>2026-05-16T09:57:18+02:00</time>
      </trkpt>
      <trkpt lat="47.46953" lon="5.6432">
        <ele>194.60059</ele>
        <time>2026-05-16T09:57:19+02:00</time>
      </trkpt>
      <trkpt lat="47.46957" lon="5.64325">
        <ele>194.7002</ele>
        <time>2026-05-16T09:57:20+02:00</time>
      </trkpt>
      <trkpt lat="47.46961" lon="5.64331">
        <ele>194.90039</ele>
        <time>2026-05-16T09:57:21+02:00</time>
      </trkpt>
      <trkpt lat="47.46964" lon="5.64336">
        <ele>194.90039</ele>
        <time>2026-05-16T09:57:22+02:00</time>
      </trkpt>
      <trkpt lat="47.46969" lon="5.64341">
        <ele>194.90039</ele>
        <time>2026-05-16T09:57:23+02:00</time>
      </trkpt>
      <trkpt lat="47.46972" lon="5.64346">
        <ele>194.60059</ele>
        <time>2026-05-16T09:57:24+02:00</time>
      </trkpt>
      <trkpt lat="47.46977" lon="5.64351">
        <ele>194.40039</ele>
        <time>2026-05-16T09:57:25+02:00</time>
      </trkpt>
      <trkpt lat="47.46981" lon="5.64357">
        <ele>194.40039</ele>
        <time>2026-05-16T09:57:26+02:00</time>
      </trkpt>
      <trkpt lat="47.46985" lon="5.64362">
        <ele>194.2998</ele>
        <time>2026-05-16T09:57:27+02:00</time>
      </trkpt>
      <trkpt lat="47.46989" lon="5.64367">
        <ele>194.10059</ele>
        <time>2026-05-16T09:57:28+02:00</time>
      </trkpt>
      <trkpt lat="47.46993" lon="5.64372">
        <ele>194</ele>
        <time>2026-05-16T09:57:29+02:00</time>
      </trkpt>
      <trkpt lat="47.46997" lon="5.64377">
        <ele>193.7002</ele>
        <time>2026-05-16T09:57:30+02:00</time>
      </trkpt>
      <trkpt lat="47.47001" lon="5.64382">
        <ele>193.2002</ele>
        <time>2026-05-16T09:57:31+02:00</time>
      </trkpt>
      <trkpt lat="47.47005" lon="5.64385">
        <ele>193.2002</ele>
        <time>2026-05-16T09:57:32+02:00</time>
      </trkpt>
      <trkpt lat="47.47009" lon="5.6439">
        <ele>192.90039</ele>
        <time>2026-05-16T09:57:33+02:00</time>
      </trkpt>
      <trkpt lat="47.47013" lon="5.64395">
        <ele>192.60059</ele>
        <time>2026-05-16T09:57:34+02:00</time>
      </trkpt>
      <trkpt lat="47.47017" lon="5.644">
        <ele>192.2998</ele>
        <time>2026-05-16T09:57:35+02:00</time>
      </trkpt>
      <trkpt lat="47.47022" lon="5.64405">
        <ele>192.2998</ele>
        <time>2026-05-16T09:57:36+02:00</time>
      </trkpt>
      <trkpt lat="47.47026" lon="5.64409">
        <ele>191.60059</ele>
        <time>2026-05-16T09:57:37+02:00</time>
      </trkpt>
      <trkpt lat="47.4703" lon="5.64414">
        <ele>190.7998</ele>
        <time>2026-05-16T09:57:38+02:00</time>
      </trkpt>
      <trkpt lat="47.47035" lon="5.64418">
        <ele>190.10059</ele>
        <time>2026-05-16T09:57:39+02:00</time>
      </trkpt>
      <trkpt lat="47.4704" lon="5.64422">
        <ele>189.7998</ele>
        <time>2026-05-16T09:57:40+02:00</time>
      </trkpt>
      <trkpt lat="47.47045" lon="5.64426">
        <ele>190</ele>
        <time>2026-05-16T09:57:41+02:00</time>
      </trkpt>
      <trkpt lat="47.47049" lon="5.6443">
        <ele>189.7998</ele>
        <time>2026-05-16T09:57:42+02:00</time>
      </trkpt>
      <trkpt lat="47.47054" lon="5.64433">
        <ele>190</ele>
        <time>2026-05-16T09:57:43+02:00</time>
      </trkpt>
      <trkpt lat="47.47059" lon="5.64436">
        <ele>189.7998</ele>
        <time>2026-05-16T09:57:44+02:00</time>
      </trkpt>
      <trkpt lat="47.47065" lon="5.6444">
        <ele>189.7998</ele>
        <time>2026-05-16T09:57:45+02:00</time>
      </trkpt>
      <trkpt lat="47.4707" lon="5.64442">
        <ele>189.60059</ele>
        <time>2026-05-16T09:57:46+02:00</time>
      </trkpt>
      <trkpt lat="47.47075" lon="5.64445">
        <ele>189.40039</ele>
        <time>2026-05-16T09:57:47+02:00</time>
      </trkpt>
      <trkpt lat="47.4708" lon="5.64447">
        <ele>189.40039</ele>
        <time>2026-05-16T09:57:48+02:00</time>
      </trkpt>
      <trkpt lat="47.47085" lon="5.64449">
        <ele>189.2998</ele>
        <time>2026-05-16T09:57:49+02:00</time>
      </trkpt>
      <trkpt lat="47.47091" lon="5.64451">
        <ele>189.2002</ele>
        <time>2026-05-16T09:57:50+02:00</time>
      </trkpt>
      <trkpt lat="47.47096" lon="5.64453">
        <ele>189.2998</ele>
        <time>2026-05-16T09:57:51+02:00</time>
      </trkpt>
      <trkpt lat="47.47101" lon="5.64455">
        <ele>189.60059</ele>
        <time>2026-05-16T09:57:52+02:00</time>
      </trkpt>
      <trkpt lat="47.47106" lon="5.64457">
        <ele>190.2998</ele>
        <time>2026-05-16T09:57:53+02:00</time>
      </trkpt>
      <trkpt lat="47.47112" lon="5.64459">
        <ele>190.40039</ele>
        <time>2026-05-16T09:57:54+02:00</time>
      </trkpt>
      <trkpt lat="47.47117" lon="5.64461">
        <ele>190.5</ele>
        <time>2026-05-16T09:57:55+02:00</time>
      </trkpt>
      <trkpt lat="47.47122" lon="5.64463">
        <ele>190.60059</ele>
        <time>2026-05-16T09:57:56+02:00</time>
      </trkpt>
      <trkpt lat="47.47127" lon="5.64466">
        <ele>191.5</ele>
        <time>2026-05-16T09:57:57+02:00</time>
      </trkpt>
      <trkpt lat="47.47133" lon="5.64468">
        <ele>191.40039</ele>
        <time>2026-05-16T09:57:58+02:00</time>
      </trkpt>
      <trkpt lat="47.47138" lon="5.64469">
        <ele>191.40039</ele>
        <time>2026-05-16T09:57:59+02:00</time>
      </trkpt>
      <trkpt lat="47.47143" lon="5.64472">
        <ele>191</ele>
        <time>2026-05-16T09:58:00+02:00</time>
      </trkpt>
      <trkpt lat="47.47148" lon="5.64474">
        <ele>190.5</ele>
        <time>2026-05-16T09:58:01+02:00</time>
      </trkpt>
      <trkpt lat="47.47154" lon="5.64476">
        <ele>190.2998</ele>
        <time>2026-05-16T09:58:02+02:00</time>
      </trkpt>
      <trkpt lat="47.47159" lon="5.64478">
        <ele>190.10059</ele>
        <time>2026-05-16T09:58:03+02:00</time>
      </trkpt>
      <trkpt lat="47.47164" lon="5.64481">
        <ele>190.2002</ele>
        <time>2026-05-16T09:58:04+02:00</time>
      </trkpt>
      <trkpt lat="47.47169" lon="5.64483">
        <ele>191.10059</ele>
        <time>2026-05-16T09:58:05+02:00</time>
      </trkpt>
      <trkpt lat="47.47175" lon="5.64484">
        <ele>191.2002</ele>
        <time>2026-05-16T09:58:06+02:00</time>
      </trkpt>
      <trkpt lat="47.4718" lon="5.64486">
        <ele>191.2002</ele>
        <time>2026-05-16T09:58:07+02:00</time>
      </trkpt>
      <trkpt lat="47.47185" lon="5.64488">
        <ele>191</ele>
        <time>2026-05-16T09:58:08+02:00</time>
      </trkpt>
      <trkpt lat="47.47191" lon="5.6449">
        <ele>191</ele>
        <time>2026-05-16T09:58:09+02:00</time>
      </trkpt>
      <trkpt lat="47.47196" lon="5.64492">
        <ele>191.7998</ele>
        <time>2026-05-16T09:58:10+02:00</time>
      </trkpt>
      <trkpt lat="47.47202" lon="5.64494">
        <ele>191.5</ele>
        <time>2026-05-16T09:58:11+02:00</time>
      </trkpt>
      <trkpt lat="47.47207" lon="5.64497">
        <ele>191.2002</ele>
        <time>2026-05-16T09:58:12+02:00</time>
      </trkpt>
      <trkpt lat="47.47213" lon="5.64499">
        <ele>190.7002</ele>
        <time>2026-05-16T09:58:13+02:00</time>
      </trkpt>
      <trkpt lat="47.47218" lon="5.64501">
        <ele>190.7002</ele>
        <time>2026-05-16T09:58:14+02:00</time>
      </trkpt>
      <trkpt lat="47.47223" lon="5.64504">
        <ele>190.2998</ele>
        <time>2026-05-16T09:58:15+02:00</time>
      </trkpt>
      <trkpt lat="47.47229" lon="5.64505">
        <ele>190.10059</ele>
        <time>2026-05-16T09:58:16+02:00</time>
      </trkpt>
      <trkpt lat="47.47234" lon="5.64507">
        <ele>190.2998</ele>
        <time>2026-05-16T09:58:17+02:00</time>
      </trkpt>
      <trkpt lat="47.47239" lon="5.64509">
        <ele>191.2998</ele>
        <time>2026-05-16T09:58:18+02:00</time>
      </trkpt>
      <trkpt lat="47.47245" lon="5.64512">
        <ele>191.5</ele>
        <time>2026-05-16T09:58:19+02:00</time>
      </trkpt>
      <trkpt lat="47.4725" lon="5.64514">
        <ele>191.5</ele>
        <time>2026-05-16T09:58:20+02:00</time>
      </trkpt>
      <trkpt lat="47.47256" lon="5.64516">
        <ele>191.5</ele>
        <time>2026-05-16T09:58:21+02:00</time>
      </trkpt>
      <trkpt lat="47.47262" lon="5.64518">
        <ele>192.7998</ele>
        <time>2026-05-16T09:58:22+02:00</time>
      </trkpt>
      <trkpt lat="47.47267" lon="5.64521">
        <ele>192.7002</ele>
        <time>2026-05-16T09:58:23+02:00</time>
      </trkpt>
      <trkpt lat="47.47272" lon="5.64523">
        <ele>192.40039</ele>
        <time>2026-05-16T09:58:24+02:00</time>
      </trkpt>
      <trkpt lat="47.47278" lon="5.64525">
        <ele>192.40039</ele>
        <time>2026-05-16T09:58:25+02:00</time>
      </trkpt>
      <trkpt lat="47.47284" lon="5.64528">
        <ele>191.60059</ele>
        <time>2026-05-16T09:58:26+02:00</time>
      </trkpt>
      <trkpt lat="47.47289" lon="5.64531">
        <ele>191.60059</ele>
        <time>2026-05-16T09:58:27+02:00</time>
      </trkpt>
      <trkpt lat="47.47295" lon="5.64534">
        <ele>190.7002</ele>
        <time>2026-05-16T09:58:28+02:00</time>
      </trkpt>
      <trkpt lat="47.473" lon="5.64536">
        <ele>191.10059</ele>
        <time>2026-05-16T09:58:29+02:00</time>
      </trkpt>
      <trkpt lat="47.47305" lon="5.64539">
        <ele>190.90039</ele>
        <time>2026-05-16T09:58:30+02:00</time>
      </trkpt>
      <trkpt lat="47.47311" lon="5.64543">
        <ele>191.40039</ele>
        <time>2026-05-16T09:58:31+02:00</time>
      </trkpt>
      <trkpt lat="47.47316" lon="5.64546">
        <ele>191.10059</ele>
        <time>2026-05-16T09:58:32+02:00</time>
      </trkpt>
      <trkpt lat="47.47321" lon="5.6455">
        <ele>190.7998</ele>
        <time>2026-05-16T09:58:33+02:00</time>
      </trkpt>
      <trkpt lat="47.47326" lon="5.64554">
        <ele>191</ele>
        <time>2026-05-16T09:58:34+02:00</time>
      </trkpt>
      <trkpt lat="47.47331" lon="5.64558">
        <ele>190.60059</ele>
        <time>2026-05-16T09:58:35+02:00</time>
      </trkpt>
      <trkpt lat="47.47335" lon="5.64562">
        <ele>191.10059</ele>
        <time>2026-05-16T09:58:36+02:00</time>
      </trkpt>
      <trkpt lat="47.47339" lon="5.64567">
        <ele>190.7998</ele>
        <time>2026-05-16T09:58:37+02:00</time>
      </trkpt>
      <trkpt lat="47.47344" lon="5.64572">
        <ele>191.2002</ele>
        <time>2026-05-16T09:58:38+02:00</time>
      </trkpt>
      <trkpt lat="47.47348" lon="5.64577">
        <ele>190.7998</ele>
        <time>2026-05-16T09:58:39+02:00</time>
      </trkpt>
      <trkpt lat="47.47353" lon="5.64582">
        <ele>191.5</ele>
        <time>2026-05-16T09:58:40+02:00</time>
      </trkpt>
      <trkpt lat="47.47357" lon="5.64587">
        <ele>191.60059</ele>
        <time>2026-05-16T09:58:41+02:00</time>
      </trkpt>
      <trkpt lat="47.47361" lon="5.64592">
        <ele>191.10059</ele>
        <time>2026-05-16T09:58:42+02:00</time>
      </trkpt>
      <trkpt lat="47.47365" lon="5.64597">
        <ele>191.40039</ele>
        <time>2026-05-16T09:58:43+02:00</time>
      </trkpt>
      <trkpt lat="47.47369" lon="5.64602">
        <ele>191.40039</ele>
        <time>2026-05-16T09:58:44+02:00</time>
      </trkpt>
      <trkpt lat="47.47373" lon="5.64608">
        <ele>192</ele>
        <time>2026-05-16T09:58:45+02:00</time>
      </trkpt>
      <trkpt lat="47.47377" lon="5.64614">
        <ele>192.60059</ele>
        <time>2026-05-16T09:58:46+02:00</time>
      </trkpt>
      <trkpt lat="47.47381" lon="5.6462">
        <ele>193.40039</ele>
        <time>2026-05-16T09:58:47+02:00</time>
      </trkpt>
      <trkpt lat="47.47384" lon="5.64627">
        <ele>192.7998</ele>
        <time>2026-05-16T09:58:48+02:00</time>
      </trkpt>
      <trkpt lat="47.47388" lon="5.64633">
        <ele>193.40039</ele>
        <time>2026-05-16T09:58:49+02:00</time>
      </trkpt>
      <trkpt lat="47.47391" lon="5.64639">
        <ele>193.2002</ele>
        <time>2026-05-16T09:58:50+02:00</time>
      </trkpt>
      <trkpt lat="47.47394" lon="5.64645">
        <ele>192.2998</ele>
        <time>2026-05-16T09:58:51+02:00</time>
      </trkpt>
      <trkpt lat="47.47397" lon="5.64651">
        <ele>192.7002</ele>
        <time>2026-05-16T09:58:52+02:00</time>
      </trkpt>
      <trkpt lat="47.474" lon="5.64657">
        <ele>192.10059</ele>
        <time>2026-05-16T09:58:53+02:00</time>
      </trkpt>
      <trkpt lat="47.47403" lon="5.64663">
        <ele>192.60059</ele>
        <time>2026-05-16T09:58:54+02:00</time>
      </trkpt>
      <trkpt lat="47.47405" lon="5.64669">
        <ele>192.60059</ele>
        <time>2026-05-16T09:58:55+02:00</time>
      </trkpt>
      <trkpt lat="47.47408" lon="5.64675">
        <ele>193</ele>
        <time>2026-05-16T09:58:56+02:00</time>
      </trkpt>
      <trkpt lat="47.4741" lon="5.64681">
        <ele>193.7002</ele>
        <time>2026-05-16T09:58:57+02:00</time>
      </trkpt>
      <trkpt lat="47.47413" lon="5.64687">
        <ele>193.2998</ele>
        <time>2026-05-16T09:58:58+02:00</time>
      </trkpt>
      <trkpt lat="47.47415" lon="5.64694">
        <ele>193.5</ele>
        <time>2026-05-16T09:58:59+02:00</time>
      </trkpt>
      <trkpt lat="47.47417" lon="5.64701">
        <ele>193.5</ele>
        <time>2026-05-16T09:59:00+02:00</time>
      </trkpt>
      <trkpt lat="47.47419" lon="5.64707">
        <ele>192.60059</ele>
        <time>2026-05-16T09:59:01+02:00</time>
      </trkpt>
      <trkpt lat="47.47421" lon="5.64714">
        <ele>192.60059</ele>
        <time>2026-05-16T09:59:02+02:00</time>
      </trkpt>
      <trkpt lat="47.47424" lon="5.6472">
        <ele>191.5</ele>
        <time>2026-05-16T09:59:03+02:00</time>
      </trkpt>
      <trkpt lat="47.47427" lon="5.64727">
        <ele>191.40039</ele>
        <time>2026-05-16T09:59:04+02:00</time>
      </trkpt>
      <trkpt lat="47.47429" lon="5.64734">
        <ele>190.2002</ele>
        <time>2026-05-16T09:59:05+02:00</time>
      </trkpt>
      <trkpt lat="47.47432" lon="5.64741">
        <ele>189.90039</ele>
        <time>2026-05-16T09:59:06+02:00</time>
      </trkpt>
      <trkpt lat="47.47434" lon="5.64748">
        <ele>189.90039</ele>
        <time>2026-05-16T09:59:07+02:00</time>
      </trkpt>
      <trkpt lat="47.47437" lon="5.64755">
        <ele>189.10059</ele>
        <time>2026-05-16T09:59:08+02:00</time>
      </trkpt>
      <trkpt lat="47.47439" lon="5.64762">
        <ele>189.40039</ele>
        <time>2026-05-16T09:59:09+02:00</time>
      </trkpt>
      <trkpt lat="47.47442" lon="5.6477">
        <ele>189.90039</ele>
        <time>2026-05-16T09:59:10+02:00</time>
      </trkpt>
      <trkpt lat="47.47445" lon="5.64777">
        <ele>190.7002</ele>
        <time>2026-05-16T09:59:11+02:00</time>
      </trkpt>
      <trkpt lat="47.47447" lon="5.64784">
        <ele>190.2998</ele>
        <time>2026-05-16T09:59:12+02:00</time>
      </trkpt>
      <trkpt lat="47.47449" lon="5.64791">
        <ele>190.2998</ele>
        <time>2026-05-16T09:59:13+02:00</time>
      </trkpt>
      <trkpt lat="47.47452" lon="5.64799">
        <ele>189.5</ele>
        <time>2026-05-16T09:59:14+02:00</time>
      </trkpt>
      <trkpt lat="47.47454" lon="5.64805">
        <ele>189.2998</ele>
        <time>2026-05-16T09:59:15+02:00</time>
      </trkpt>
      <trkpt lat="47.47457" lon="5.64812">
        <ele>189.10059</ele>
        <time>2026-05-16T09:59:16+02:00</time>
      </trkpt>
      <trkpt lat="47.47459" lon="5.64819">
        <ele>188.7002</ele>
        <time>2026-05-16T09:59:17+02:00</time>
      </trkpt>
      <trkpt lat="47.47461" lon="5.64826">
        <ele>188.7002</ele>
        <time>2026-05-16T09:59:18+02:00</time>
      </trkpt>
      <trkpt lat="47.47464" lon="5.64834">
        <ele>188.7998</ele>
        <time>2026-05-16T09:59:19+02:00</time>
      </trkpt>
      <trkpt lat="47.47466" lon="5.64841">
        <ele>189.10059</ele>
        <time>2026-05-16T09:59:20+02:00</time>
      </trkpt>
      <trkpt lat="47.47468" lon="5.64849">
        <ele>189.2998</ele>
        <time>2026-05-16T09:59:21+02:00</time>
      </trkpt>
      <trkpt lat="47.4747" lon="5.64856">
        <ele>189.2998</ele>
        <time>2026-05-16T09:59:22+02:00</time>
      </trkpt>
      <trkpt lat="47.47472" lon="5.64863">
        <ele>189.2998</ele>
        <time>2026-05-16T09:59:23+02:00</time>
      </trkpt>
      <trkpt lat="47.47474" lon="5.64871">
        <ele>189.2998</ele>
        <time>2026-05-16T09:59:24+02:00</time>
      </trkpt>
      <trkpt lat="47.47476" lon="5.64879">
        <ele>189.10059</ele>
        <time>2026-05-16T09:59:25+02:00</time>
      </trkpt>
      <trkpt lat="47.47478" lon="5.64886">
        <ele>189.10059</ele>
        <time>2026-05-16T09:59:26+02:00</time>
      </trkpt>
      <trkpt lat="47.4748" lon="5.64893">
        <ele>189.10059</ele>
        <time>2026-05-16T09:59:27+02:00</time>
      </trkpt>
      <trkpt lat="47.47481" lon="5.64901">
        <ele>188.7998</ele>
        <time>2026-05-16T09:59:28+02:00</time>
      </trkpt>
      <trkpt lat="47.47483" lon="5.64908">
        <ele>188.7998</ele>
        <time>2026-05-16T09:59:29+02:00</time>
      </trkpt>
      <trkpt lat="47.47485" lon="5.64915">
        <ele>188.7002</ele>
        <time>2026-05-16T09:59:30+02:00</time>
      </trkpt>
      <trkpt lat="47.47487" lon="5.64923">
        <ele>188.60059</ele>
        <time>2026-05-16T09:59:31+02:00</time>
      </trkpt>
      <trkpt lat="47.47489" lon="5.6493">
        <ele>188.60059</ele>
        <time>2026-05-16T09:59:32+02:00</time>
      </trkpt>
      <trkpt lat="47.47491" lon="5.64937">
        <ele>188.60059</ele>
        <time>2026-05-16T09:59:33+02:00</time>
      </trkpt>
      <trkpt lat="47.47493" lon="5.64945">
        <ele>188.7002</ele>
        <time>2026-05-16T09:59:34+02:00</time>
      </trkpt>
      <trkpt lat="47.47495" lon="5.64953">
        <ele>188.7998</ele>
        <time>2026-05-16T09:59:35+02:00</time>
      </trkpt>
      <trkpt lat="47.47497" lon="5.6496">
        <ele>189.2002</ele>
        <time>2026-05-16T09:59:36+02:00</time>
      </trkpt>
      <trkpt lat="47.47498" lon="5.64968">
        <ele>189.7002</ele>
        <time>2026-05-16T09:59:37+02:00</time>
      </trkpt>
      <trkpt lat="47.475" lon="5.64976">
        <ele>189.7998</ele>
        <time>2026-05-16T09:59:38+02:00</time>
      </trkpt>
      <trkpt lat="47.47502" lon="5.64983">
        <ele>190</ele>
        <time>2026-05-16T09:59:39+02:00</time>
      </trkpt>
      <trkpt lat="47.47503" lon="5.64992">
        <ele>190.10059</ele>
        <time>2026-05-16T09:59:40+02:00</time>
      </trkpt>
      <trkpt lat="47.47503" lon="5.65">
        <ele>190.10059</ele>
        <time>2026-05-16T09:59:41+02:00</time>
      </trkpt>
      <trkpt lat="47.47505" lon="5.65008">
        <ele>189.60059</ele>
        <time>2026-05-16T09:59:42+02:00</time>
      </trkpt>
      <trkpt lat="47.47505" lon="5.65016">
        <ele>189.60059</ele>
        <time>2026-05-16T09:59:43+02:00</time>
      </trkpt>
      <trkpt lat="47.47505" lon="5.65025">
        <ele>189.60059</ele>
        <time>2026-05-16T09:59:44+02:00</time>
      </trkpt>
      <trkpt lat="47.47506" lon="5.65033">
        <ele>189.60059</ele>
        <time>2026-05-16T09:59:45+02:00</time>
      </trkpt>
      <trkpt lat="47.47506" lon="5.65041">
        <ele>189.5</ele>
        <time>2026-05-16T09:59:46+02:00</time>
      </trkpt>
      <trkpt lat="47.47506" lon="5.6505">
        <ele>189.5</ele>
        <time>2026-05-16T09:59:47+02:00</time>
      </trkpt>
      <trkpt lat="47.47506" lon="5.65058">
        <ele>189.5</ele>
        <time>2026-05-16T09:59:48+02:00</time>
      </trkpt>
      <trkpt lat="47.47507" lon="5.65066">
        <ele>189.5</ele>
        <time>2026-05-16T09:59:49+02:00</time>
      </trkpt>
      <trkpt lat="47.47506" lon="5.65074">
        <ele>189.40039</ele>
        <time>2026-05-16T09:59:50+02:00</time>
      </trkpt>
      <trkpt lat="47.47506" lon="5.65083">
        <ele>189.40039</ele>
        <time>2026-05-16T09:59:51+02:00</time>
      </trkpt>
      <trkpt lat="47.47505" lon="5.65091">
        <ele>189.2998</ele>
        <time>2026-05-16T09:59:52+02:00</time>
      </trkpt>
      <trkpt lat="47.47504" lon="5.651">
        <ele>189.40039</ele>
        <time>2026-05-16T09:59:53+02:00</time>
      </trkpt>
      <trkpt lat="47.47503" lon="5.65108">
        <ele>189.2002</ele>
        <time>2026-05-16T09:59:54+02:00</time>
      </trkpt>
      <trkpt lat="47.47501" lon="5.65117">
        <ele>189.10059</ele>
        <time>2026-05-16T09:59:55+02:00</time>
      </trkpt>
      <trkpt lat="47.475" lon="5.65125">
        <ele>189</ele>
        <time>2026-05-16T09:59:56+02:00</time>
      </trkpt>
      <trkpt lat="47.47498" lon="5.65133">
        <ele>189.10059</ele>
        <time>2026-05-16T09:59:57+02:00</time>
      </trkpt>
      <trkpt lat="47.47496" lon="5.65141">
        <ele>189</ele>
        <time>2026-05-16T09:59:58+02:00</time>
      </trkpt>
      <trkpt lat="47.47494" lon="5.65149">
        <ele>189</ele>
        <time>2026-05-16T09:59:59+02:00</time>
      </trkpt>
      <trkpt lat="47.47493" lon="5.65157">
        <ele>189</ele>
        <time>2026-05-16T10:00:00+02:00</time>
      </trkpt>
      <trkpt lat="47.47491" lon="5.65166">
        <ele>189.10059</ele>
        <time>2026-05-16T10:00:01+02:00</time>
      </trkpt>
      <trkpt lat="47.47489" lon="5.65174">
        <ele>189</ele>
        <time>2026-05-16T10:00:02+02:00</time>
      </trkpt>
      <trkpt lat="47.47488" lon="5.65182">
        <ele>189</ele>
        <time>2026-05-16T10:00:03+02:00</time>
      </trkpt>
      <trkpt lat="47.47486" lon="5.6519">
        <ele>189.10059</ele>
        <time>2026-05-16T10:00:04+02:00</time>
      </trkpt>
      <trkpt lat="47.47484" lon="5.65197">
        <ele>188.90039</ele>
        <time>2026-05-16T10:00:05+02:00</time>
      </trkpt>
      <trkpt lat="47.47482" lon="5.65205">
        <ele>188.90039</ele>
        <time>2026-05-16T10:00:06+02:00</time>
      </trkpt>
      <trkpt lat="47.4748" lon="5.65213">
        <ele>189</ele>
        <time>2026-05-16T10:00:07+02:00</time>
      </trkpt>
      <trkpt lat="47.47479" lon="5.6522">
        <ele>189</ele>
        <time>2026-05-16T10:00:08+02:00</time>
      </trkpt>
      <trkpt lat="47.47477" lon="5.65228">
        <ele>188.7998</ele>
        <time>2026-05-16T10:00:09+02:00</time>
      </trkpt>
      <trkpt lat="47.47475" lon="5.65235">
        <ele>188.7998</ele>
        <time>2026-05-16T10:00:10+02:00</time>
      </trkpt>
      <trkpt lat="47.47473" lon="5.65243">
        <ele>188.60059</ele>
        <time>2026-05-16T10:00:11+02:00</time>
      </trkpt>
      <trkpt lat="47.47471" lon="5.6525">
        <ele>188.5</ele>
        <time>2026-05-16T10:00:12+02:00</time>
      </trkpt>
      <trkpt lat="47.47468" lon="5.65258">
        <ele>188.60059</ele>
        <time>2026-05-16T10:00:13+02:00</time>
      </trkpt>
      <trkpt lat="47.47465" lon="5.65265">
        <ele>188.5</ele>
        <time>2026-05-16T10:00:14+02:00</time>
      </trkpt>
      <trkpt lat="47.47461" lon="5.65271">
        <ele>188.60059</ele>
        <time>2026-05-16T10:00:15+02:00</time>
      </trkpt>
      <trkpt lat="47.47458" lon="5.65278">
        <ele>188.40039</ele>
        <time>2026-05-16T10:00:16+02:00</time>
      </trkpt>
      <trkpt lat="47.47454" lon="5.65284">
        <ele>188.40039</ele>
        <time>2026-05-16T10:00:17+02:00</time>
      </trkpt>
      <trkpt lat="47.4745" lon="5.6529">
        <ele>188.2998</ele>
        <time>2026-05-16T10:00:18+02:00</time>
      </trkpt>
      <trkpt lat="47.47446" lon="5.65295">
        <ele>188.2998</ele>
        <time>2026-05-16T10:00:19+02:00</time>
      </trkpt>
      <trkpt lat="47.47441" lon="5.653">
        <ele>188.2998</ele>
        <time>2026-05-16T10:00:20+02:00</time>
      </trkpt>
      <trkpt lat="47.47437" lon="5.65304">
        <ele>188.2998</ele>
        <time>2026-05-16T10:00:21+02:00</time>
      </trkpt>
      <trkpt lat="47.47432" lon="5.65308">
        <ele>188.40039</ele>
        <time>2026-05-16T10:00:22+02:00</time>
      </trkpt>
      <trkpt lat="47.47427" lon="5.65312">
        <ele>188.40039</ele>
        <time>2026-05-16T10:00:23+02:00</time>
      </trkpt>
      <trkpt lat="47.47422" lon="5.65316">
        <ele>188.40039</ele>
        <time>2026-05-16T10:00:24+02:00</time>
      </trkpt>
      <trkpt lat="47.47416" lon="5.65319">
        <ele>188.40039</ele>
        <time>2026-05-16T10:00:25+02:00</time>
      </trkpt>
      <trkpt lat="47.47411" lon="5.65321">
        <ele>188.40039</ele>
        <time>2026-05-16T10:00:26+02:00</time>
      </trkpt>
      <trkpt lat="47.47406" lon="5.65324">
        <ele>188.40039</ele>
        <time>2026-05-16T10:00:27+02:00</time>
      </trkpt>
      <trkpt lat="47.47401" lon="5.65326">
        <ele>188.40039</ele>
        <time>2026-05-16T10:00:28+02:00</time>
      </trkpt>
      <trkpt lat="47.47396" lon="5.65328">
        <ele>188.40039</ele>
        <time>2026-05-16T10:00:29+02:00</time>
      </trkpt>
      <trkpt lat="47.4739" lon="5.6533">
        <ele>188.40039</ele>
        <time>2026-05-16T10:00:30+02:00</time>
      </trkpt>
      <trkpt lat="47.47385" lon="5.65331">
        <ele>188.40039</ele>
        <time>2026-05-16T10:00:31+02:00</time>
      </trkpt>
      <trkpt lat="47.47379" lon="5.65333">
        <ele>188.40039</ele>
        <time>2026-05-16T10:00:32+02:00</time>
      </trkpt>
      <trkpt lat="47.47374" lon="5.65334">
        <ele>188.40039</ele>
        <time>2026-05-16T10:00:33+02:00</time>
      </trkpt>
      <trkpt lat="47.47368" lon="5.65335">
        <ele>188.40039</ele>
        <time>2026-05-16T10:00:34+02:00</time>
      </trkpt>
      <trkpt lat="47.47363" lon="5.65337">
        <ele>188.40039</ele>
        <time>2026-05-16T10:00:35+02:00</time>
      </trkpt>
      <trkpt lat="47.47357" lon="5.65338">
        <ele>188.40039</ele>
        <time>2026-05-16T10:00:36+02:00</time>
      </trkpt>
      <trkpt lat="47.47351" lon="5.65339">
        <ele>188.40039</ele>
        <time>2026-05-16T10:00:37+02:00</time>
      </trkpt>
      <trkpt lat="47.47346" lon="5.6534">
        <ele>188.40039</ele>
        <time>2026-05-16T10:00:38+02:00</time>
      </trkpt>
      <trkpt lat="47.4734" lon="5.6534">
        <ele>188.40039</ele>
        <time>2026-05-16T10:00:39+02:00</time>
      </trkpt>
      <trkpt lat="47.47334" lon="5.65341">
        <ele>188.40039</ele>
        <time>2026-05-16T10:00:40+02:00</time>
      </trkpt>
      <trkpt lat="47.47329" lon="5.65342">
        <ele>188.40039</ele>
        <time>2026-05-16T10:00:41+02:00</time>
      </trkpt>
      <trkpt lat="47.47324" lon="5.65343">
        <ele>188.40039</ele>
        <time>2026-05-16T10:00:42+02:00</time>
      </trkpt>
      <trkpt lat="47.47318" lon="5.65344">
        <ele>188.40039</ele>
        <time>2026-05-16T10:00:43+02:00</time>
      </trkpt>
      <trkpt lat="47.47313" lon="5.65344">
        <ele>188.40039</ele>
        <time>2026-05-16T10:00:44+02:00</time>
      </trkpt>
      <trkpt lat="47.47307" lon="5.65345">
        <ele>188.2998</ele>
        <time>2026-05-16T10:00:45+02:00</time>
      </trkpt>
      <trkpt lat="47.47302" lon="5.65346">
        <ele>188.2998</ele>
        <time>2026-05-16T10:00:46+02:00</time>
      </trkpt>
      <trkpt lat="47.47297" lon="5.65347">
        <ele>188.2998</ele>
        <time>2026-05-16T10:00:47+02:00</time>
      </trkpt>
      <trkpt lat="47.47291" lon="5.65349">
        <ele>188.2998</ele>
        <time>2026-05-16T10:00:48+02:00</time>
      </trkpt>
      <trkpt lat="47.47286" lon="5.6535">
        <ele>188.2998</ele>
        <time>2026-05-16T10:00:49+02:00</time>
      </trkpt>
      <trkpt lat="47.4728" lon="5.65351">
        <ele>188.2998</ele>
        <time>2026-05-16T10:00:50+02:00</time>
      </trkpt>
      <trkpt lat="47.47275" lon="5.65353">
        <ele>188.2998</ele>
        <time>2026-05-16T10:00:51+02:00</time>
      </trkpt>
      <trkpt lat="47.4727" lon="5.65354">
        <ele>188.2998</ele>
        <time>2026-05-16T10:00:52+02:00</time>
      </trkpt>
      <trkpt lat="47.47264" lon="5.65356">
        <ele>188.2998</ele>
        <time>2026-05-16T10:00:53+02:00</time>
      </trkpt>
      <trkpt lat="47.47259" lon="5.65359">
        <ele>188.40039</ele>
        <time>2026-05-16T10:00:54+02:00</time>
      </trkpt>
      <trkpt lat="47.47254" lon="5.65361">
        <ele>188.2998</ele>
        <time>2026-05-16T10:00:55+02:00</time>
      </trkpt>
      <trkpt lat="47.47249" lon="5.65364">
        <ele>188.2998</ele>
        <time>2026-05-16T10:00:56+02:00</time>
      </trkpt>
      <trkpt lat="47.47244" lon="5.65367">
        <ele>188.2998</ele>
        <time>2026-05-16T10:00:57+02:00</time>
      </trkpt>
      <trkpt lat="47.47239" lon="5.65371">
        <ele>188.2998</ele>
        <time>2026-05-16T10:00:58+02:00</time>
      </trkpt>
      <trkpt lat="47.47235" lon="5.65375">
        <ele>188.40039</ele>
        <time>2026-05-16T10:00:59+02:00</time>
      </trkpt>
      <trkpt lat="47.4723" lon="5.65379">
        <ele>188.5</ele>
        <time>2026-05-16T10:01:00+02:00</time>
      </trkpt>
      <trkpt lat="47.47226" lon="5.65384">
        <ele>188.40039</ele>
        <time>2026-05-16T10:01:01+02:00</time>
      </trkpt>
      <trkpt lat="47.47221" lon="5.65388">
        <ele>188.5</ele>
        <time>2026-05-16T10:01:02+02:00</time>
      </trkpt>
      <trkpt lat="47.47217" lon="5.65392">
        <ele>188.7002</ele>
        <time>2026-05-16T10:01:03+02:00</time>
      </trkpt>
      <trkpt lat="47.47213" lon="5.65397">
        <ele>188.60059</ele>
        <time>2026-05-16T10:01:04+02:00</time>
      </trkpt>
      <trkpt lat="47.47209" lon="5.65402">
        <ele>188.5</ele>
        <time>2026-05-16T10:01:05+02:00</time>
      </trkpt>
      <trkpt lat="47.47205" lon="5.65407">
        <ele>188.7998</ele>
        <time>2026-05-16T10:01:06+02:00</time>
      </trkpt>
      <trkpt lat="47.47201" lon="5.65413">
        <ele>188.7998</ele>
        <time>2026-05-16T10:01:07+02:00</time>
      </trkpt>
      <trkpt lat="47.47197" lon="5.65419">
        <ele>188.60059</ele>
        <time>2026-05-16T10:01:08+02:00</time>
      </trkpt>
      <trkpt lat="47.47193" lon="5.65424">
        <ele>188.7998</ele>
        <time>2026-05-16T10:01:09+02:00</time>
      </trkpt>
      <trkpt lat="47.4719" lon="5.6543">
        <ele>188.7998</ele>
        <time>2026-05-16T10:01:10+02:00</time>
      </trkpt>
      <trkpt lat="47.47186" lon="5.65436">
        <ele>188.7002</ele>
        <time>2026-05-16T10:01:11+02:00</time>
      </trkpt>
      <trkpt lat="47.47183" lon="5.65442">
        <ele>189.10059</ele>
        <time>2026-05-16T10:01:12+02:00</time>
      </trkpt>
      <trkpt lat="47.4718" lon="5.65449">
        <ele>189</ele>
        <time>2026-05-16T10:01:13+02:00</time>
      </trkpt>
      <trkpt lat="47.47177" lon="5.65455">
        <ele>189.2998</ele>
        <time>2026-05-16T10:01:14+02:00</time>
      </trkpt>
      <trkpt lat="47.47174" lon="5.65462">
        <ele>189.10059</ele>
        <time>2026-05-16T10:01:15+02:00</time>
      </trkpt>
      <trkpt lat="47.47172" lon="5.65468">
        <ele>189.7002</ele>
        <time>2026-05-16T10:01:16+02:00</time>
      </trkpt>
      <trkpt lat="47.47169" lon="5.65474">
        <ele>189.5</ele>
        <time>2026-05-16T10:01:17+02:00</time>
      </trkpt>
      <trkpt lat="47.47167" lon="5.65481">
        <ele>189.7998</ele>
        <time>2026-05-16T10:01:18+02:00</time>
      </trkpt>
      <trkpt lat="47.47164" lon="5.65488">
        <ele>189.5</ele>
        <time>2026-05-16T10:01:19+02:00</time>
      </trkpt>
      <trkpt lat="47.47162" lon="5.65495">
        <ele>189.5</ele>
        <time>2026-05-16T10:01:20+02:00</time>
      </trkpt>
      <trkpt lat="47.47159" lon="5.65502">
        <ele>189.90039</ele>
        <time>2026-05-16T10:01:21+02:00</time>
      </trkpt>
      <trkpt lat="47.47157" lon="5.65508">
        <ele>189.7002</ele>
        <time>2026-05-16T10:01:22+02:00</time>
      </trkpt>
      <trkpt lat="47.47156" lon="5.65515">
        <ele>189.5</ele>
        <time>2026-05-16T10:01:23+02:00</time>
      </trkpt>
      <trkpt lat="47.47154" lon="5.65521">
        <ele>190.2998</ele>
        <time>2026-05-16T10:01:24+02:00</time>
      </trkpt>
      <trkpt lat="47.47152" lon="5.65529">
        <ele>190.10059</ele>
        <time>2026-05-16T10:01:25+02:00</time>
      </trkpt>
      <trkpt lat="47.47151" lon="5.65536">
        <ele>189.90039</ele>
        <time>2026-05-16T10:01:26+02:00</time>
      </trkpt>
      <trkpt lat="47.47149" lon="5.65543">
        <ele>189.90039</ele>
        <time>2026-05-16T10:01:27+02:00</time>
      </trkpt>
      <trkpt lat="47.47148" lon="5.6555">
        <ele>189.5</ele>
        <time>2026-05-16T10:01:28+02:00</time>
      </trkpt>
      <trkpt lat="47.47148" lon="5.65558">
        <ele>189.2002</ele>
        <time>2026-05-16T10:01:29+02:00</time>
      </trkpt>
      <trkpt lat="47.47147" lon="5.65565">
        <ele>188.90039</ele>
        <time>2026-05-16T10:01:30+02:00</time>
      </trkpt>
      <trkpt lat="47.47147" lon="5.65572">
        <ele>188.90039</ele>
        <time>2026-05-16T10:01:31+02:00</time>
      </trkpt>
      <trkpt lat="47.47146" lon="5.6558">
        <ele>188.7002</ele>
        <time>2026-05-16T10:01:32+02:00</time>
      </trkpt>
      <trkpt lat="47.47146" lon="5.65587">
        <ele>188.60059</ele>
        <time>2026-05-16T10:01:33+02:00</time>
      </trkpt>
      <trkpt lat="47.47145" lon="5.65594">
        <ele>188.5</ele>
        <time>2026-05-16T10:01:34+02:00</time>
      </trkpt>
      <trkpt lat="47.47145" lon="5.65601">
        <ele>188.5</ele>
        <time>2026-05-16T10:01:35+02:00</time>
      </trkpt>
      <trkpt lat="47.47144" lon="5.65609">
        <ele>188.5</ele>
        <time>2026-05-16T10:01:36+02:00</time>
      </trkpt>
      <trkpt lat="47.47144" lon="5.65616">
        <ele>188.40039</ele>
        <time>2026-05-16T10:01:37+02:00</time>
      </trkpt>
      <trkpt lat="47.47144" lon="5.65624">
        <ele>188.40039</ele>
        <time>2026-05-16T10:01:38+02:00</time>
      </trkpt>
      <trkpt lat="47.47143" lon="5.65631">
        <ele>188.40039</ele>
        <time>2026-05-16T10:01:39+02:00</time>
      </trkpt>
      <trkpt lat="47.47143" lon="5.65639">
        <ele>188.40039</ele>
        <time>2026-05-16T10:01:40+02:00</time>
      </trkpt>
      <trkpt lat="47.47144" lon="5.65646">
        <ele>188.40039</ele>
        <time>2026-05-16T10:01:41+02:00</time>
      </trkpt>
      <trkpt lat="47.47144" lon="5.65654">
        <ele>188.40039</ele>
        <time>2026-05-16T10:01:42+02:00</time>
      </trkpt>
      <trkpt lat="47.47144" lon="5.65661">
        <ele>188.40039</ele>
        <time>2026-05-16T10:01:43+02:00</time>
      </trkpt>
      <trkpt lat="47.47145" lon="5.65669">
        <ele>188.7002</ele>
        <time>2026-05-16T10:01:44+02:00</time>
      </trkpt>
      <trkpt lat="47.47146" lon="5.65676">
        <ele>189.2998</ele>
        <time>2026-05-16T10:01:45+02:00</time>
      </trkpt>
      <trkpt lat="47.47147" lon="5.65683">
        <ele>189.2998</ele>
        <time>2026-05-16T10:01:46+02:00</time>
      </trkpt>
      <trkpt lat="47.47148" lon="5.6569">
        <ele>191</ele>
        <time>2026-05-16T10:01:47+02:00</time>
      </trkpt>
      <trkpt lat="47.47149" lon="5.65697">
        <ele>192.7002</ele>
        <time>2026-05-16T10:01:48+02:00</time>
      </trkpt>
      <trkpt lat="47.4715" lon="5.65704">
        <ele>194.5</ele>
        <time>2026-05-16T10:01:49+02:00</time>
      </trkpt>
      <trkpt lat="47.47151" lon="5.65711">
        <ele>193.5</ele>
        <time>2026-05-16T10:01:50+02:00</time>
      </trkpt>
      <trkpt lat="47.47152" lon="5.65718">
        <ele>193.5</ele>
        <time>2026-05-16T10:01:51+02:00</time>
      </trkpt>
      <trkpt lat="47.47153" lon="5.65725">
        <ele>194.2002</ele>
        <time>2026-05-16T10:01:52+02:00</time>
      </trkpt>
      <trkpt lat="47.47155" lon="5.65733">
        <ele>194.7998</ele>
        <time>2026-05-16T10:01:53+02:00</time>
      </trkpt>
      <trkpt lat="47.47156" lon="5.6574">
        <ele>193</ele>
        <time>2026-05-16T10:01:54+02:00</time>
      </trkpt>
      <trkpt lat="47.47157" lon="5.65747">
        <ele>192.5</ele>
        <time>2026-05-16T10:01:55+02:00</time>
      </trkpt>
      <trkpt lat="47.47159" lon="5.65754">
        <ele>191.10059</ele>
        <time>2026-05-16T10:01:56+02:00</time>
      </trkpt>
      <trkpt lat="47.47161" lon="5.65761">
        <ele>191.10059</ele>
        <time>2026-05-16T10:01:57+02:00</time>
      </trkpt>
      <trkpt lat="47.47163" lon="5.65767">
        <ele>188.7002</ele>
        <time>2026-05-16T10:01:58+02:00</time>
      </trkpt>
      <trkpt lat="47.47165" lon="5.65774">
        <ele>188.2998</ele>
        <time>2026-05-16T10:01:59+02:00</time>
      </trkpt>
      <trkpt lat="47.47167" lon="5.65781">
        <ele>190.7002</ele>
        <time>2026-05-16T10:02:00+02:00</time>
      </trkpt>
      <trkpt lat="47.47169" lon="5.65788">
        <ele>193.2998</ele>
        <time>2026-05-16T10:02:01+02:00</time>
      </trkpt>
      <trkpt lat="47.47171" lon="5.65795">
        <ele>193.2998</ele>
        <time>2026-05-16T10:02:02+02:00</time>
      </trkpt>
      <trkpt lat="47.47173" lon="5.65802">
        <ele>196.40039</ele>
        <time>2026-05-16T10:02:03+02:00</time>
      </trkpt>
      <trkpt lat="47.47176" lon="5.65809">
        <ele>195.2002</ele>
        <time>2026-05-16T10:02:04+02:00</time>
      </trkpt>
      <trkpt lat="47.47178" lon="5.65815">
        <ele>195.7998</ele>
        <time>2026-05-16T10:02:05+02:00</time>
      </trkpt>
      <trkpt lat="47.47181" lon="5.65822">
        <ele>193.7002</ele>
        <time>2026-05-16T10:02:06+02:00</time>
      </trkpt>
      <trkpt lat="47.47183" lon="5.65829">
        <ele>193.7002</ele>
        <time>2026-05-16T10:02:07+02:00</time>
      </trkpt>
      <trkpt lat="47.47185" lon="5.65836">
        <ele>192.60059</ele>
        <time>2026-05-16T10:02:08+02:00</time>
      </trkpt>
      <trkpt lat="47.47188" lon="5.65843">
        <ele>193</ele>
        <time>2026-05-16T10:02:09+02:00</time>
      </trkpt>
      <trkpt lat="47.47189" lon="5.6585">
        <ele>193</ele>
        <time>2026-05-16T10:02:10+02:00</time>
      </trkpt>
      <trkpt lat="47.47192" lon="5.65857">
        <ele>192.2998</ele>
        <time>2026-05-16T10:02:11+02:00</time>
      </trkpt>
      <trkpt lat="47.47194" lon="5.65864">
        <ele>192.2998</ele>
        <time>2026-05-16T10:02:12+02:00</time>
      </trkpt>
      <trkpt lat="47.47196" lon="5.65871">
        <ele>192.60059</ele>
        <time>2026-05-16T10:02:13+02:00</time>
      </trkpt>
      <trkpt lat="47.47199" lon="5.65877">
        <ele>192.90039</ele>
        <time>2026-05-16T10:02:14+02:00</time>
      </trkpt>
      <trkpt lat="47.47201" lon="5.65884">
        <ele>194.2002</ele>
        <time>2026-05-16T10:02:15+02:00</time>
      </trkpt>
      <trkpt lat="47.47204" lon="5.65891">
        <ele>194.60059</ele>
        <time>2026-05-16T10:02:16+02:00</time>
      </trkpt>
      <trkpt lat="47.47206" lon="5.65898">
        <ele>194.60059</ele>
        <time>2026-05-16T10:02:17+02:00</time>
      </trkpt>
      <trkpt lat="47.47209" lon="5.65904">
        <ele>194.5</ele>
        <time>2026-05-16T10:02:18+02:00</time>
      </trkpt>
      <trkpt lat="47.47212" lon="5.6591">
        <ele>195.2002</ele>
        <time>2026-05-16T10:02:19+02:00</time>
      </trkpt>
      <trkpt lat="47.47215" lon="5.65916">
        <ele>194.2998</ele>
        <time>2026-05-16T10:02:20+02:00</time>
      </trkpt>
      <trkpt lat="47.47218" lon="5.65923">
        <ele>195</ele>
        <time>2026-05-16T10:02:21+02:00</time>
      </trkpt>
      <trkpt lat="47.47221" lon="5.65929">
        <ele>194.5</ele>
        <time>2026-05-16T10:02:22+02:00</time>
      </trkpt>
      <trkpt lat="47.47224" lon="5.65935">
        <ele>194.7998</ele>
        <time>2026-05-16T10:02:23+02:00</time>
      </trkpt>
      <trkpt lat="47.47227" lon="5.65941">
        <ele>193.5</ele>
        <time>2026-05-16T10:02:24+02:00</time>
      </trkpt>
      <trkpt lat="47.4723" lon="5.65947">
        <ele>193.90039</ele>
        <time>2026-05-16T10:02:25+02:00</time>
      </trkpt>
      <trkpt lat="47.47234" lon="5.65952">
        <ele>193.90039</ele>
        <time>2026-05-16T10:02:26+02:00</time>
      </trkpt>
      <trkpt lat="47.47237" lon="5.65957">
        <ele>193.90039</ele>
        <time>2026-05-16T10:02:27+02:00</time>
      </trkpt>
      <trkpt lat="47.47241" lon="5.65962">
        <ele>194</ele>
        <time>2026-05-16T10:02:28+02:00</time>
      </trkpt>
      <trkpt lat="47.47244" lon="5.65968">
        <ele>193.2998</ele>
        <time>2026-05-16T10:02:29+02:00</time>
      </trkpt>
      <trkpt lat="47.47247" lon="5.65973">
        <ele>193.2998</ele>
        <time>2026-05-16T10:02:30+02:00</time>
      </trkpt>
      <trkpt lat="47.47251" lon="5.65978">
        <ele>192</ele>
        <time>2026-05-16T10:02:31+02:00</time>
      </trkpt>
      <trkpt lat="47.47254" lon="5.65982">
        <ele>192</ele>
        <time>2026-05-16T10:02:32+02:00</time>
      </trkpt>
      <trkpt lat="47.47258" lon="5.65986">
        <ele>190.7002</ele>
        <time>2026-05-16T10:02:33+02:00</time>
      </trkpt>
      <trkpt lat="47.47261" lon="5.6599">
        <ele>190.2002</ele>
        <time>2026-05-16T10:02:34+02:00</time>
      </trkpt>
      <trkpt lat="47.47264" lon="5.65995">
        <ele>190.2002</ele>
        <time>2026-05-16T10:02:35+02:00</time>
      </trkpt>
      <trkpt lat="47.47268" lon="5.66">
        <ele>190.10059</ele>
        <time>2026-05-16T10:02:36+02:00</time>
      </trkpt>
      <trkpt lat="47.47272" lon="5.66005">
        <ele>190.60059</ele>
        <time>2026-05-16T10:02:37+02:00</time>
      </trkpt>
      <trkpt lat="47.47276" lon="5.6601">
        <ele>190.60059</ele>
        <time>2026-05-16T10:02:38+02:00</time>
      </trkpt>
      <trkpt lat="47.4728" lon="5.66015">
        <ele>190.90039</ele>
        <time>2026-05-16T10:02:39+02:00</time>
      </trkpt>
      <trkpt lat="47.47284" lon="5.6602">
        <ele>190.90039</ele>
        <time>2026-05-16T10:02:40+02:00</time>
      </trkpt>
      <trkpt lat="47.47289" lon="5.66025">
        <ele>190.90039</ele>
        <time>2026-05-16T10:02:41+02:00</time>
      </trkpt>
      <trkpt lat="47.47294" lon="5.66031">
        <ele>191.10059</ele>
        <time>2026-05-16T10:02:42+02:00</time>
      </trkpt>
      <trkpt lat="47.47298" lon="5.66037">
        <ele>191.5</ele>
        <time>2026-05-16T10:02:43+02:00</time>
      </trkpt>
      <trkpt lat="47.47302" lon="5.66042">
        <ele>191.10059</ele>
        <time>2026-05-16T10:02:44+02:00</time>
      </trkpt>
      <trkpt lat="47.47307" lon="5.66047">
        <ele>191.90039</ele>
        <time>2026-05-16T10:02:45+02:00</time>
      </trkpt>
      <trkpt lat="47.47311" lon="5.66052">
        <ele>191.5</ele>
        <time>2026-05-16T10:02:46+02:00</time>
      </trkpt>
      <trkpt lat="47.47315" lon="5.66058">
        <ele>191.60059</ele>
        <time>2026-05-16T10:02:47+02:00</time>
      </trkpt>
      <trkpt lat="47.47319" lon="5.66064">
        <ele>191.60059</ele>
        <time>2026-05-16T10:02:48+02:00</time>
      </trkpt>
      <trkpt lat="47.47323" lon="5.6607">
        <ele>191.60059</ele>
        <time>2026-05-16T10:02:49+02:00</time>
      </trkpt>
      <trkpt lat="47.47327" lon="5.66075">
        <ele>192.10059</ele>
        <time>2026-05-16T10:02:50+02:00</time>
      </trkpt>
      <trkpt lat="47.47331" lon="5.66081">
        <ele>192.60059</ele>
        <time>2026-05-16T10:02:51+02:00</time>
      </trkpt>
      <trkpt lat="47.47335" lon="5.66087">
        <ele>192.60059</ele>
        <time>2026-05-16T10:02:52+02:00</time>
      </trkpt>
      <trkpt lat="47.47339" lon="5.66092">
        <ele>192.60059</ele>
        <time>2026-05-16T10:02:53+02:00</time>
      </trkpt>
      <trkpt lat="47.47343" lon="5.66098">
        <ele>192.10059</ele>
        <time>2026-05-16T10:02:54+02:00</time>
      </trkpt>
      <trkpt lat="47.47347" lon="5.66104">
        <ele>192.10059</ele>
        <time>2026-05-16T10:02:55+02:00</time>
      </trkpt>
      <trkpt lat="47.47352" lon="5.66109">
        <ele>191.60059</ele>
        <time>2026-05-16T10:02:56+02:00</time>
      </trkpt>
      <trkpt lat="47.47355" lon="5.66115">
        <ele>191.40039</ele>
        <time>2026-05-16T10:02:57+02:00</time>
      </trkpt>
      <trkpt lat="47.4736" lon="5.6612">
        <ele>191.10059</ele>
        <time>2026-05-16T10:02:58+02:00</time>
      </trkpt>
      <trkpt lat="47.47364" lon="5.66126">
        <ele>191.60059</ele>
        <time>2026-05-16T10:02:59+02:00</time>
      </trkpt>
      <trkpt lat="47.47369" lon="5.66131">
        <ele>192.2002</ele>
        <time>2026-05-16T10:03:00+02:00</time>
      </trkpt>
      <trkpt lat="47.47373" lon="5.66137">
        <ele>192</ele>
        <time>2026-05-16T10:03:01+02:00</time>
      </trkpt>
      <trkpt lat="47.47378" lon="5.66143">
        <ele>192.7002</ele>
        <time>2026-05-16T10:03:02+02:00</time>
      </trkpt>
      <trkpt lat="47.47383" lon="5.66149">
        <ele>193.10059</ele>
        <time>2026-05-16T10:03:03+02:00</time>
      </trkpt>
      <trkpt lat="47.47388" lon="5.66155">
        <ele>193.10059</ele>
        <time>2026-05-16T10:03:04+02:00</time>
      </trkpt>
      <trkpt lat="47.47393" lon="5.6616">
        <ele>193.10059</ele>
        <time>2026-05-16T10:03:05+02:00</time>
      </trkpt>
      <trkpt lat="47.47398" lon="5.66166">
        <ele>193.5</ele>
        <time>2026-05-16T10:03:06+02:00</time>
      </trkpt>
      <trkpt lat="47.47402" lon="5.66171">
        <ele>193</ele>
        <time>2026-05-16T10:03:07+02:00</time>
      </trkpt>
      <trkpt lat="47.47407" lon="5.66175">
        <ele>193.5</ele>
        <time>2026-05-16T10:03:08+02:00</time>
      </trkpt>
      <trkpt lat="47.47411" lon="5.6618">
        <ele>193.5</ele>
        <time>2026-05-16T10:03:09+02:00</time>
      </trkpt>
      <trkpt lat="47.47416" lon="5.66185">
        <ele>193.2998</ele>
        <time>2026-05-16T10:03:10+02:00</time>
      </trkpt>
      <trkpt lat="47.4742" lon="5.6619">
        <ele>192.2002</ele>
        <time>2026-05-16T10:03:11+02:00</time>
      </trkpt>
      <trkpt lat="47.47424" lon="5.66195">
        <ele>192.5</ele>
        <time>2026-05-16T10:03:12+02:00</time>
      </trkpt>
      <trkpt lat="47.47429" lon="5.66199">
        <ele>192</ele>
        <time>2026-05-16T10:03:13+02:00</time>
      </trkpt>
      <trkpt lat="47.47434" lon="5.66204">
        <ele>193.2002</ele>
        <time>2026-05-16T10:03:14+02:00</time>
      </trkpt>
      <trkpt lat="47.47438" lon="5.66209">
        <ele>193.40039</ele>
        <time>2026-05-16T10:03:15+02:00</time>
      </trkpt>
      <trkpt lat="47.47442" lon="5.66213">
        <ele>192.60059</ele>
        <time>2026-05-16T10:03:16+02:00</time>
      </trkpt>
      <trkpt lat="47.47447" lon="5.66218">
        <ele>192.5</ele>
        <time>2026-05-16T10:03:17+02:00</time>
      </trkpt>
      <trkpt lat="47.47451" lon="5.66223">
        <ele>192.5</ele>
        <time>2026-05-16T10:03:18+02:00</time>
      </trkpt>
      <trkpt lat="47.47455" lon="5.66227">
        <ele>192.7002</ele>
        <time>2026-05-16T10:03:19+02:00</time>
      </trkpt>
      <trkpt lat="47.4746" lon="5.66232">
        <ele>192.2998</ele>
        <time>2026-05-16T10:03:20+02:00</time>
      </trkpt>
      <trkpt lat="47.47464" lon="5.66236">
        <ele>192.7002</ele>
        <time>2026-05-16T10:03:21+02:00</time>
      </trkpt>
      <trkpt lat="47.47468" lon="5.66242">
        <ele>192.7002</ele>
        <time>2026-05-16T10:03:22+02:00</time>
      </trkpt>
      <trkpt lat="47.47473" lon="5.66247">
        <ele>192.7998</ele>
        <time>2026-05-16T10:03:23+02:00</time>
      </trkpt>
      <trkpt lat="47.47477" lon="5.66251">
        <ele>192.7002</ele>
        <time>2026-05-16T10:03:24+02:00</time>
      </trkpt>
      <trkpt lat="47.47481" lon="5.66256">
        <ele>192.2002</ele>
        <time>2026-05-16T10:03:25+02:00</time>
      </trkpt>
      <trkpt lat="47.47485" lon="5.66262">
        <ele>192.7002</ele>
        <time>2026-05-16T10:03:26+02:00</time>
      </trkpt>
      <trkpt lat="47.4749" lon="5.66267">
        <ele>192.40039</ele>
        <time>2026-05-16T10:03:27+02:00</time>
      </trkpt>
      <trkpt lat="47.47493" lon="5.66273">
        <ele>192.7002</ele>
        <time>2026-05-16T10:03:28+02:00</time>
      </trkpt>
      <trkpt lat="47.47498" lon="5.66278">
        <ele>192.90039</ele>
        <time>2026-05-16T10:03:29+02:00</time>
      </trkpt>
      <trkpt lat="47.47502" lon="5.66284">
        <ele>192.7002</ele>
        <time>2026-05-16T10:03:30+02:00</time>
      </trkpt>
      <trkpt lat="47.47506" lon="5.6629">
        <ele>192.5</ele>
        <time>2026-05-16T10:03:31+02:00</time>
      </trkpt>
      <trkpt lat="47.47509" lon="5.66296">
        <ele>192.7002</ele>
        <time>2026-05-16T10:03:32+02:00</time>
      </trkpt>
      <trkpt lat="47.47513" lon="5.66302">
        <ele>192.60059</ele>
        <time>2026-05-16T10:03:33+02:00</time>
      </trkpt>
      <trkpt lat="47.47516" lon="5.66308">
        <ele>192.90039</ele>
        <time>2026-05-16T10:03:34+02:00</time>
      </trkpt>
      <trkpt lat="47.47519" lon="5.66315">
        <ele>193.10059</ele>
        <time>2026-05-16T10:03:35+02:00</time>
      </trkpt>
      <trkpt lat="47.47522" lon="5.66322">
        <ele>193</ele>
        <time>2026-05-16T10:03:36+02:00</time>
      </trkpt>
      <trkpt lat="47.47525" lon="5.66329">
        <ele>192.90039</ele>
        <time>2026-05-16T10:03:37+02:00</time>
      </trkpt>
      <trkpt lat="47.47528" lon="5.66335">
        <ele>192.10059</ele>
        <time>2026-05-16T10:03:38+02:00</time>
      </trkpt>
      <trkpt lat="47.47531" lon="5.66342">
        <ele>192.10059</ele>
        <time>2026-05-16T10:03:39+02:00</time>
      </trkpt>
      <trkpt lat="47.47534" lon="5.66349">
        <ele>191.10059</ele>
        <time>2026-05-16T10:03:40+02:00</time>
      </trkpt>
      <trkpt lat="47.47537" lon="5.66356">
        <ele>191.60059</ele>
        <time>2026-05-16T10:03:41+02:00</time>
      </trkpt>
      <trkpt lat="47.4754" lon="5.66362">
        <ele>190.60059</ele>
        <time>2026-05-16T10:03:42+02:00</time>
      </trkpt>
      <trkpt lat="47.47543" lon="5.66369">
        <ele>191.2998</ele>
        <time>2026-05-16T10:03:43+02:00</time>
      </trkpt>
      <trkpt lat="47.47546" lon="5.66376">
        <ele>191.40039</ele>
        <time>2026-05-16T10:03:44+02:00</time>
      </trkpt>
      <trkpt lat="47.47549" lon="5.66383">
        <ele>192.10059</ele>
        <time>2026-05-16T10:03:45+02:00</time>
      </trkpt>
      <trkpt lat="47.47551" lon="5.6639">
        <ele>192.2002</ele>
        <time>2026-05-16T10:03:46+02:00</time>
      </trkpt>
      <trkpt lat="47.47554" lon="5.66396">
        <ele>192.2002</ele>
        <time>2026-05-16T10:03:47+02:00</time>
      </trkpt>
      <trkpt lat="47.47556" lon="5.66403">
        <ele>192.7002</ele>
        <time>2026-05-16T10:03:48+02:00</time>
      </trkpt>
      <trkpt lat="47.47559" lon="5.6641">
        <ele>192</ele>
        <time>2026-05-16T10:03:49+02:00</time>
      </trkpt>
      <trkpt lat="47.47561" lon="5.66416">
        <ele>192.10059</ele>
        <time>2026-05-16T10:03:50+02:00</time>
      </trkpt>
      <trkpt lat="47.47564" lon="5.66423">
        <ele>190.60059</ele>
        <time>2026-05-16T10:03:51+02:00</time>
      </trkpt>
      <trkpt lat="47.47566" lon="5.66431">
        <ele>190.60059</ele>
        <time>2026-05-16T10:03:52+02:00</time>
      </trkpt>
      <trkpt lat="47.47569" lon="5.66438">
        <ele>189.40039</ele>
        <time>2026-05-16T10:03:53+02:00</time>
      </trkpt>
      <trkpt lat="47.47571" lon="5.66446">
        <ele>189.2998</ele>
        <time>2026-05-16T10:03:54+02:00</time>
      </trkpt>
      <trkpt lat="47.47573" lon="5.66453">
        <ele>189.2002</ele>
        <time>2026-05-16T10:03:55+02:00</time>
      </trkpt>
      <trkpt lat="47.47575" lon="5.6646">
        <ele>188.90039</ele>
        <time>2026-05-16T10:03:56+02:00</time>
      </trkpt>
      <trkpt lat="47.47577" lon="5.66467">
        <ele>189</ele>
        <time>2026-05-16T10:03:57+02:00</time>
      </trkpt>
      <trkpt lat="47.4758" lon="5.66475">
        <ele>189.90039</ele>
        <time>2026-05-16T10:03:58+02:00</time>
      </trkpt>
      <trkpt lat="47.47582" lon="5.66483">
        <ele>191</ele>
        <time>2026-05-16T10:03:59+02:00</time>
      </trkpt>
      <trkpt lat="47.47584" lon="5.6649">
        <ele>191</ele>
        <time>2026-05-16T10:04:00+02:00</time>
      </trkpt>
      <trkpt lat="47.47587" lon="5.66498">
        <ele>191.2998</ele>
        <time>2026-05-16T10:04:01+02:00</time>
      </trkpt>
      <trkpt lat="47.47589" lon="5.66505">
        <ele>191.7998</ele>
        <time>2026-05-16T10:04:02+02:00</time>
      </trkpt>
      <trkpt lat="47.47591" lon="5.66513">
        <ele>192.10059</ele>
        <time>2026-05-16T10:04:03+02:00</time>
      </trkpt>
      <trkpt lat="47.47593" lon="5.6652">
        <ele>191.10059</ele>
        <time>2026-05-16T10:04:04+02:00</time>
      </trkpt>
      <trkpt lat="47.47596" lon="5.66528">
        <ele>191.2998</ele>
        <time>2026-05-16T10:04:05+02:00</time>
      </trkpt>
      <trkpt lat="47.47598" lon="5.66536">
        <ele>191.10059</ele>
        <time>2026-05-16T10:04:06+02:00</time>
      </trkpt>
      <trkpt lat="47.47601" lon="5.66544">
        <ele>191.90039</ele>
        <time>2026-05-16T10:04:07+02:00</time>
      </trkpt>
      <trkpt lat="47.47605" lon="5.66551">
        <ele>191.40039</ele>
        <time>2026-05-16T10:04:08+02:00</time>
      </trkpt>
      <trkpt lat="47.47608" lon="5.66559">
        <ele>192.2002</ele>
        <time>2026-05-16T10:04:09+02:00</time>
      </trkpt>
      <trkpt lat="47.47611" lon="5.66566">
        <ele>191.90039</ele>
        <time>2026-05-16T10:04:10+02:00</time>
      </trkpt>
      <trkpt lat="47.47613" lon="5.66573">
        <ele>192.10059</ele>
        <time>2026-05-16T10:04:11+02:00</time>
      </trkpt>
      <trkpt lat="47.47616" lon="5.66581">
        <ele>190.90039</ele>
        <time>2026-05-16T10:04:12+02:00</time>
      </trkpt>
      <trkpt lat="47.47619" lon="5.66589">
        <ele>190.7998</ele>
        <time>2026-05-16T10:04:13+02:00</time>
      </trkpt>
      <trkpt lat="47.47622" lon="5.66596">
        <ele>190.10059</ele>
        <time>2026-05-16T10:04:14+02:00</time>
      </trkpt>
      <trkpt lat="47.47625" lon="5.66603">
        <ele>190.5</ele>
        <time>2026-05-16T10:04:15+02:00</time>
      </trkpt>
      <trkpt lat="47.47628" lon="5.6661">
        <ele>190.2002</ele>
        <time>2026-05-16T10:04:16+02:00</time>
      </trkpt>
      <trkpt lat="47.47631" lon="5.66617">
        <ele>190.7002</ele>
        <time>2026-05-16T10:04:17+02:00</time>
      </trkpt>
      <trkpt lat="47.47634" lon="5.66625">
        <ele>190.7998</ele>
        <time>2026-05-16T10:04:18+02:00</time>
      </trkpt>
      <trkpt lat="47.47637" lon="5.66632">
        <ele>191</ele>
        <time>2026-05-16T10:04:19+02:00</time>
      </trkpt>
      <trkpt lat="47.4764" lon="5.66639">
        <ele>190.40039</ele>
        <time>2026-05-16T10:04:20+02:00</time>
      </trkpt>
      <trkpt lat="47.47643" lon="5.66646">
        <ele>190.40039</ele>
        <time>2026-05-16T10:04:21+02:00</time>
      </trkpt>
      <trkpt lat="47.47646" lon="5.66653">
        <ele>189.7998</ele>
        <time>2026-05-16T10:04:22+02:00</time>
      </trkpt>
      <trkpt lat="47.47648" lon="5.6666">
        <ele>189.90039</ele>
        <time>2026-05-16T10:04:23+02:00</time>
      </trkpt>
      <trkpt lat="47.47651" lon="5.66667">
        <ele>189.7998</ele>
        <time>2026-05-16T10:04:24+02:00</time>
      </trkpt>
      <trkpt lat="47.47654" lon="5.66674">
        <ele>190.2002</ele>
        <time>2026-05-16T10:04:25+02:00</time>
      </trkpt>
      <trkpt lat="47.47657" lon="5.66681">
        <ele>190.2998</ele>
        <time>2026-05-16T10:04:26+02:00</time>
      </trkpt>
      <trkpt lat="47.4766" lon="5.66688">
        <ele>190.2998</ele>
        <time>2026-05-16T10:04:27+02:00</time>
      </trkpt>
      <trkpt lat="47.47663" lon="5.66695">
        <ele>190.2002</ele>
        <time>2026-05-16T10:04:28+02:00</time>
      </trkpt>
      <trkpt lat="47.47666" lon="5.66702">
        <ele>190.2998</ele>
        <time>2026-05-16T10:04:29+02:00</time>
      </trkpt>
      <trkpt lat="47.47669" lon="5.6671">
        <ele>190.10059</ele>
        <time>2026-05-16T10:04:30+02:00</time>
      </trkpt>
      <trkpt lat="47.47672" lon="5.66717">
        <ele>190.2998</ele>
        <time>2026-05-16T10:04:31+02:00</time>
      </trkpt>
      <trkpt lat="47.47675" lon="5.66724">
        <ele>190.2998</ele>
        <time>2026-05-16T10:04:32+02:00</time>
      </trkpt>
      <trkpt lat="47.47677" lon="5.66732">
        <ele>190.7002</ele>
        <time>2026-05-16T10:04:33+02:00</time>
      </trkpt>
      <trkpt lat="47.4768" lon="5.66739">
        <ele>190.60059</ele>
        <time>2026-05-16T10:04:34+02:00</time>
      </trkpt>
      <trkpt lat="47.47683" lon="5.66746">
        <ele>191.2998</ele>
        <time>2026-05-16T10:04:35+02:00</time>
      </trkpt>
      <trkpt lat="47.47687" lon="5.66753">
        <ele>191.60059</ele>
        <time>2026-05-16T10:04:36+02:00</time>
      </trkpt>
      <trkpt lat="47.4769" lon="5.6676">
        <ele>191.7002</ele>
        <time>2026-05-16T10:04:37+02:00</time>
      </trkpt>
      <trkpt lat="47.47693" lon="5.66767">
        <ele>192</ele>
        <time>2026-05-16T10:04:38+02:00</time>
      </trkpt>
      <trkpt lat="47.47696" lon="5.66774">
        <ele>191.7998</ele>
        <time>2026-05-16T10:04:39+02:00</time>
      </trkpt>
      <trkpt lat="47.47699" lon="5.66781">
        <ele>192</ele>
        <time>2026-05-16T10:04:40+02:00</time>
      </trkpt>
      <trkpt lat="47.47714" lon="5.66808">
        <ele>192.2002</ele>
        <time>2026-05-16T10:04:41+02:00</time>
      </trkpt>
      <trkpt lat="47.47718" lon="5.66814">
        <ele>192.60059</ele>
        <time>2026-05-16T10:04:42+02:00</time>
      </trkpt>
      <trkpt lat="47.47722" lon="5.6682">
        <ele>192.7998</ele>
        <time>2026-05-16T10:04:43+02:00</time>
      </trkpt>
      <trkpt lat="47.47726" lon="5.66826">
        <ele>192.90039</ele>
        <time>2026-05-16T10:04:44+02:00</time>
      </trkpt>
      <trkpt lat="47.4773" lon="5.66831">
        <ele>192.90039</ele>
        <time>2026-05-16T10:04:45+02:00</time>
      </trkpt>
      <trkpt lat="47.47734" lon="5.66837">
        <ele>193.2002</ele>
        <time>2026-05-16T10:04:46+02:00</time>
      </trkpt>
      <trkpt lat="47.47738" lon="5.66842">
        <ele>193.10059</ele>
        <time>2026-05-16T10:04:47+02:00</time>
      </trkpt>
      <trkpt lat="47.47742" lon="5.66847">
        <ele>193.90039</ele>
        <time>2026-05-16T10:04:48+02:00</time>
      </trkpt>
      <trkpt lat="47.47746" lon="5.66852">
        <ele>194.2998</ele>
        <time>2026-05-16T10:04:49+02:00</time>
      </trkpt>
      <trkpt lat="47.47751" lon="5.66857">
        <ele>194.5</ele>
        <time>2026-05-16T10:04:50+02:00</time>
      </trkpt>
      <trkpt lat="47.47754" lon="5.66862">
        <ele>194.7998</ele>
        <time>2026-05-16T10:04:51+02:00</time>
      </trkpt>
      <trkpt lat="47.47759" lon="5.66867">
        <ele>194.7998</ele>
        <time>2026-05-16T10:04:52+02:00</time>
      </trkpt>
      <trkpt lat="47.47764" lon="5.66872">
        <ele>194.7998</ele>
        <time>2026-05-16T10:04:53+02:00</time>
      </trkpt>
      <trkpt lat="47.47768" lon="5.66877">
        <ele>194.7998</ele>
        <time>2026-05-16T10:04:54+02:00</time>
      </trkpt>
      <trkpt lat="47.47772" lon="5.66881">
        <ele>194.7002</ele>
        <time>2026-05-16T10:04:55+02:00</time>
      </trkpt>
      <trkpt lat="47.47777" lon="5.66886">
        <ele>194.90039</ele>
        <time>2026-05-16T10:04:56+02:00</time>
      </trkpt>
      <trkpt lat="47.47781" lon="5.66891">
        <ele>194.90039</ele>
        <time>2026-05-16T10:04:57+02:00</time>
      </trkpt>
      <trkpt lat="47.47786" lon="5.66895">
        <ele>195</ele>
        <time>2026-05-16T10:04:58+02:00</time>
      </trkpt>
      <trkpt lat="47.47791" lon="5.66898">
        <ele>194.90039</ele>
        <time>2026-05-16T10:04:59+02:00</time>
      </trkpt>
      <trkpt lat="47.47796" lon="5.66901">
        <ele>194.5</ele>
        <time>2026-05-16T10:05:00+02:00</time>
      </trkpt>
      <trkpt lat="47.47801" lon="5.66905">
        <ele>193.2998</ele>
        <time>2026-05-16T10:05:01+02:00</time>
      </trkpt>
      <trkpt lat="47.47806" lon="5.66908">
        <ele>192.10059</ele>
        <time>2026-05-16T10:05:02+02:00</time>
      </trkpt>
      <trkpt lat="47.47811" lon="5.6691">
        <ele>192.10059</ele>
        <time>2026-05-16T10:05:03+02:00</time>
      </trkpt>
      <trkpt lat="47.47816" lon="5.66914">
        <ele>191.2002</ele>
        <time>2026-05-16T10:05:04+02:00</time>
      </trkpt>
      <trkpt lat="47.47822" lon="5.66917">
        <ele>190.90039</ele>
        <time>2026-05-16T10:05:05+02:00</time>
      </trkpt>
      <trkpt lat="47.47827" lon="5.6692">
        <ele>190.7002</ele>
        <time>2026-05-16T10:05:06+02:00</time>
      </trkpt>
      <trkpt lat="47.47831" lon="5.66923">
        <ele>191.2998</ele>
        <time>2026-05-16T10:05:07+02:00</time>
      </trkpt>
      <trkpt lat="47.47836" lon="5.66926">
        <ele>191.2002</ele>
        <time>2026-05-16T10:05:08+02:00</time>
      </trkpt>
      <trkpt lat="47.47841" lon="5.66929">
        <ele>191.7998</ele>
        <time>2026-05-16T10:05:09+02:00</time>
      </trkpt>
      <trkpt lat="47.47846" lon="5.66932">
        <ele>191.7998</ele>
        <time>2026-05-16T10:05:10+02:00</time>
      </trkpt>
      <trkpt lat="47.47851" lon="5.66935">
        <ele>191.60059</ele>
        <time>2026-05-16T10:05:11+02:00</time>
      </trkpt>
      <trkpt lat="47.47856" lon="5.66937">
        <ele>191.2998</ele>
        <time>2026-05-16T10:05:12+02:00</time>
      </trkpt>
      <trkpt lat="47.47861" lon="5.6694">
        <ele>191.40039</ele>
        <time>2026-05-16T10:05:13+02:00</time>
      </trkpt>
      <trkpt lat="47.47866" lon="5.66943">
        <ele>191</ele>
        <time>2026-05-16T10:05:14+02:00</time>
      </trkpt>
      <trkpt lat="47.47871" lon="5.66946">
        <ele>190.5</ele>
        <time>2026-05-16T10:05:15+02:00</time>
      </trkpt>
      <trkpt lat="47.47876" lon="5.66949">
        <ele>190.10059</ele>
        <time>2026-05-16T10:05:16+02:00</time>
      </trkpt>
      <trkpt lat="47.47881" lon="5.66951">
        <ele>190.10059</ele>
        <time>2026-05-16T10:05:17+02:00</time>
      </trkpt>
      <trkpt lat="47.47886" lon="5.66954">
        <ele>189.7998</ele>
        <time>2026-05-16T10:05:18+02:00</time>
      </trkpt>
      <trkpt lat="47.47892" lon="5.66956">
        <ele>189.90039</ele>
        <time>2026-05-16T10:05:19+02:00</time>
      </trkpt>
      <trkpt lat="47.47897" lon="5.66959">
        <ele>190</ele>
        <time>2026-05-16T10:05:20+02:00</time>
      </trkpt>
      <trkpt lat="47.47902" lon="5.66962">
        <ele>190</ele>
        <time>2026-05-16T10:05:21+02:00</time>
      </trkpt>
      <trkpt lat="47.47908" lon="5.66964">
        <ele>190.40039</ele>
        <time>2026-05-16T10:05:22+02:00</time>
      </trkpt>
      <trkpt lat="47.47913" lon="5.66967">
        <ele>190.2998</ele>
        <time>2026-05-16T10:05:23+02:00</time>
      </trkpt>
      <trkpt lat="47.47918" lon="5.66969">
        <ele>189.7998</ele>
        <time>2026-05-16T10:05:24+02:00</time>
      </trkpt>
      <trkpt lat="47.47923" lon="5.66972">
        <ele>189.5</ele>
        <time>2026-05-16T10:05:25+02:00</time>
      </trkpt>
      <trkpt lat="47.47929" lon="5.66974">
        <ele>189.2002</ele>
        <time>2026-05-16T10:05:26+02:00</time>
      </trkpt>
      <trkpt lat="47.47934" lon="5.66977">
        <ele>189.2002</ele>
        <time>2026-05-16T10:05:27+02:00</time>
      </trkpt>
      <trkpt lat="47.47939" lon="5.6698">
        <ele>189.2002</ele>
        <time>2026-05-16T10:05:28+02:00</time>
      </trkpt>
      <trkpt lat="47.47944" lon="5.66982">
        <ele>190</ele>
        <time>2026-05-16T10:05:29+02:00</time>
      </trkpt>
      <trkpt lat="47.47949" lon="5.66985">
        <ele>190.2998</ele>
        <time>2026-05-16T10:05:30+02:00</time>
      </trkpt>
      <trkpt lat="47.47954" lon="5.66988">
        <ele>190.40039</ele>
        <time>2026-05-16T10:05:31+02:00</time>
      </trkpt>
      <trkpt lat="47.47959" lon="5.6699">
        <ele>191</ele>
        <time>2026-05-16T10:05:32+02:00</time>
      </trkpt>
      <trkpt lat="47.47964" lon="5.66992">
        <ele>190.7998</ele>
        <time>2026-05-16T10:05:33+02:00</time>
      </trkpt>
      <trkpt lat="47.47969" lon="5.66994">
        <ele>190.5</ele>
        <time>2026-05-16T10:05:34+02:00</time>
      </trkpt>
      <trkpt lat="47.47975" lon="5.66997">
        <ele>190.2002</ele>
        <time>2026-05-16T10:05:35+02:00</time>
      </trkpt>
      <trkpt lat="47.4798" lon="5.66999">
        <ele>190.2002</ele>
        <time>2026-05-16T10:05:36+02:00</time>
      </trkpt>
      <trkpt lat="47.47986" lon="5.67">
        <ele>189.5</ele>
        <time>2026-05-16T10:05:37+02:00</time>
      </trkpt>
      <trkpt lat="47.47991" lon="5.67002">
        <ele>189.5</ele>
        <time>2026-05-16T10:05:38+02:00</time>
      </trkpt>
      <trkpt lat="47.47996" lon="5.67004">
        <ele>189</ele>
        <time>2026-05-16T10:05:39+02:00</time>
      </trkpt>
      <trkpt lat="47.48002" lon="5.67005">
        <ele>188.7002</ele>
        <time>2026-05-16T10:05:40+02:00</time>
      </trkpt>
      <trkpt lat="47.48007" lon="5.67005">
        <ele>188.90039</ele>
        <time>2026-05-16T10:05:41+02:00</time>
      </trkpt>
      <trkpt lat="47.48013" lon="5.67005">
        <ele>189.40039</ele>
        <time>2026-05-16T10:05:42+02:00</time>
      </trkpt>
      <trkpt lat="47.48019" lon="5.67005">
        <ele>189.90039</ele>
        <time>2026-05-16T10:05:43+02:00</time>
      </trkpt>
      <trkpt lat="47.48024" lon="5.67004">
        <ele>190.2002</ele>
        <time>2026-05-16T10:05:44+02:00</time>
      </trkpt>
      <trkpt lat="47.4803" lon="5.67004">
        <ele>190.2002</ele>
        <time>2026-05-16T10:05:45+02:00</time>
      </trkpt>
      <trkpt lat="47.48036" lon="5.67003">
        <ele>190.2998</ele>
        <time>2026-05-16T10:05:46+02:00</time>
      </trkpt>
      <trkpt lat="47.48041" lon="5.67002">
        <ele>190.2998</ele>
        <time>2026-05-16T10:05:47+02:00</time>
      </trkpt>
      <trkpt lat="47.48047" lon="5.67001">
        <ele>190.40039</ele>
        <time>2026-05-16T10:05:48+02:00</time>
      </trkpt>
      <trkpt lat="47.48052" lon="5.67">
        <ele>190.40039</ele>
        <time>2026-05-16T10:05:49+02:00</time>
      </trkpt>
      <trkpt lat="47.48058" lon="5.66999">
        <ele>190.40039</ele>
        <time>2026-05-16T10:05:50+02:00</time>
      </trkpt>
      <trkpt lat="47.48063" lon="5.66997">
        <ele>189.7002</ele>
        <time>2026-05-16T10:05:51+02:00</time>
      </trkpt>
      <trkpt lat="47.48069" lon="5.66995">
        <ele>189.7998</ele>
        <time>2026-05-16T10:05:52+02:00</time>
      </trkpt>
      <trkpt lat="47.48074" lon="5.66994">
        <ele>189.7998</ele>
        <time>2026-05-16T10:05:53+02:00</time>
      </trkpt>
      <trkpt lat="47.4808" lon="5.66992">
        <ele>189.90039</ele>
        <time>2026-05-16T10:05:54+02:00</time>
      </trkpt>
      <trkpt lat="47.48085" lon="5.66991">
        <ele>189.90039</ele>
        <time>2026-05-16T10:05:55+02:00</time>
      </trkpt>
      <trkpt lat="47.48091" lon="5.66989">
        <ele>190</ele>
        <time>2026-05-16T10:05:56+02:00</time>
      </trkpt>
      <trkpt lat="47.48096" lon="5.66988">
        <ele>189.5</ele>
        <time>2026-05-16T10:05:57+02:00</time>
      </trkpt>
      <trkpt lat="47.48102" lon="5.66986">
        <ele>189.60059</ele>
        <time>2026-05-16T10:05:58+02:00</time>
      </trkpt>
      <trkpt lat="47.48107" lon="5.66985">
        <ele>189.60059</ele>
        <time>2026-05-16T10:05:59+02:00</time>
      </trkpt>
      <trkpt lat="47.48113" lon="5.66984">
        <ele>189.60059</ele>
        <time>2026-05-16T10:06:00+02:00</time>
      </trkpt>
      <trkpt lat="47.48118" lon="5.66982">
        <ele>189.7002</ele>
        <time>2026-05-16T10:06:01+02:00</time>
      </trkpt>
      <trkpt lat="47.48124" lon="5.66982">
        <ele>189.7002</ele>
        <time>2026-05-16T10:06:02+02:00</time>
      </trkpt>
      <trkpt lat="47.48129" lon="5.66981">
        <ele>189.7002</ele>
        <time>2026-05-16T10:06:03+02:00</time>
      </trkpt>
      <trkpt lat="47.48136" lon="5.66981">
        <ele>189.7998</ele>
        <time>2026-05-16T10:06:04+02:00</time>
      </trkpt>
      <trkpt lat="47.48141" lon="5.66981">
        <ele>189.7998</ele>
        <time>2026-05-16T10:06:05+02:00</time>
      </trkpt>
      <trkpt lat="47.48146" lon="5.66982">
        <ele>189.7998</ele>
        <time>2026-05-16T10:06:06+02:00</time>
      </trkpt>
      <trkpt lat="47.48152" lon="5.66984">
        <ele>189.90039</ele>
        <time>2026-05-16T10:06:07+02:00</time>
      </trkpt>
      <trkpt lat="47.48157" lon="5.66984">
        <ele>189.90039</ele>
        <time>2026-05-16T10:06:08+02:00</time>
      </trkpt>
      <trkpt lat="47.48163" lon="5.66985">
        <ele>189.90039</ele>
        <time>2026-05-16T10:06:09+02:00</time>
      </trkpt>
      <trkpt lat="47.48168" lon="5.66986">
        <ele>189.90039</ele>
        <time>2026-05-16T10:06:10+02:00</time>
      </trkpt>
      <trkpt lat="47.48174" lon="5.66987">
        <ele>190</ele>
        <time>2026-05-16T10:06:11+02:00</time>
      </trkpt>
      <trkpt lat="47.4818" lon="5.66988">
        <ele>190</ele>
        <time>2026-05-16T10:06:12+02:00</time>
      </trkpt>
      <trkpt lat="47.48185" lon="5.66989">
        <ele>190.7998</ele>
        <time>2026-05-16T10:06:13+02:00</time>
      </trkpt>
      <trkpt lat="47.48191" lon="5.66989">
        <ele>190.90039</ele>
        <time>2026-05-16T10:06:14+02:00</time>
      </trkpt>
      <trkpt lat="47.48197" lon="5.66989">
        <ele>190.90039</ele>
        <time>2026-05-16T10:06:15+02:00</time>
      </trkpt>
      <trkpt lat="47.48203" lon="5.6699">
        <ele>190.90039</ele>
        <time>2026-05-16T10:06:16+02:00</time>
      </trkpt>
      <trkpt lat="47.48208" lon="5.6699">
        <ele>190.90039</ele>
        <time>2026-05-16T10:06:17+02:00</time>
      </trkpt>
      <trkpt lat="47.48214" lon="5.6699">
        <ele>190.7998</ele>
        <time>2026-05-16T10:06:18+02:00</time>
      </trkpt>
      <trkpt lat="47.4822" lon="5.66991">
        <ele>190.7002</ele>
        <time>2026-05-16T10:06:19+02:00</time>
      </trkpt>
      <trkpt lat="47.48226" lon="5.66991">
        <ele>190.60059</ele>
        <time>2026-05-16T10:06:20+02:00</time>
      </trkpt>
      <trkpt lat="47.48232" lon="5.66991">
        <ele>190.40039</ele>
        <time>2026-05-16T10:06:21+02:00</time>
      </trkpt>
      <trkpt lat="47.48237" lon="5.66992">
        <ele>190.2002</ele>
        <time>2026-05-16T10:06:22+02:00</time>
      </trkpt>
      <trkpt lat="47.48243" lon="5.66992">
        <ele>189.90039</ele>
        <time>2026-05-16T10:06:23+02:00</time>
      </trkpt>
      <trkpt lat="47.48249" lon="5.66992">
        <ele>189.7998</ele>
        <time>2026-05-16T10:06:24+02:00</time>
      </trkpt>
      <trkpt lat="47.48255" lon="5.66993">
        <ele>189.7002</ele>
        <time>2026-05-16T10:06:25+02:00</time>
      </trkpt>
      <trkpt lat="47.4826" lon="5.66993">
        <ele>189.60059</ele>
        <time>2026-05-16T10:06:26+02:00</time>
      </trkpt>
      <trkpt lat="47.48266" lon="5.66993">
        <ele>189.60059</ele>
        <time>2026-05-16T10:06:27+02:00</time>
      </trkpt>
      <trkpt lat="47.48272" lon="5.66994">
        <ele>189.5</ele>
        <time>2026-05-16T10:06:28+02:00</time>
      </trkpt>
      <trkpt lat="47.48277" lon="5.66994">
        <ele>189.5</ele>
        <time>2026-05-16T10:06:29+02:00</time>
      </trkpt>
      <trkpt lat="47.48283" lon="5.66995">
        <ele>189.40039</ele>
        <time>2026-05-16T10:06:30+02:00</time>
      </trkpt>
      <trkpt lat="47.48289" lon="5.66995">
        <ele>189.40039</ele>
        <time>2026-05-16T10:06:31+02:00</time>
      </trkpt>
      <trkpt lat="47.48295" lon="5.66996">
        <ele>189.2998</ele>
        <time>2026-05-16T10:06:32+02:00</time>
      </trkpt>
      <trkpt lat="47.483" lon="5.66996">
        <ele>189.2998</ele>
        <time>2026-05-16T10:06:33+02:00</time>
      </trkpt>
      <trkpt lat="47.48306" lon="5.66996">
        <ele>189.2002</ele>
        <time>2026-05-16T10:06:34+02:00</time>
      </trkpt>
      <trkpt lat="47.48312" lon="5.66997">
        <ele>189.2002</ele>
        <time>2026-05-16T10:06:35+02:00</time>
      </trkpt>
      <trkpt lat="47.48317" lon="5.66997">
        <ele>189.2002</ele>
        <time>2026-05-16T10:06:36+02:00</time>
      </trkpt>
      <trkpt lat="47.48322" lon="5.66997">
        <ele>189.2002</ele>
        <time>2026-05-16T10:06:37+02:00</time>
      </trkpt>
      <trkpt lat="47.48328" lon="5.66998">
        <ele>189.7002</ele>
        <time>2026-05-16T10:06:38+02:00</time>
      </trkpt>
      <trkpt lat="47.48333" lon="5.66998">
        <ele>189.7002</ele>
        <time>2026-05-16T10:06:39+02:00</time>
      </trkpt>
      <trkpt lat="47.48339" lon="5.66998">
        <ele>189.90039</ele>
        <time>2026-05-16T10:06:40+02:00</time>
      </trkpt>
      <trkpt lat="47.48345" lon="5.66998">
        <ele>189.90039</ele>
        <time>2026-05-16T10:06:41+02:00</time>
      </trkpt>
      <trkpt lat="47.4835" lon="5.66999">
        <ele>189.7998</ele>
        <time>2026-05-16T10:06:42+02:00</time>
      </trkpt>
      <trkpt lat="47.48355" lon="5.67">
        <ele>189.7998</ele>
        <time>2026-05-16T10:06:43+02:00</time>
      </trkpt>
      <trkpt lat="47.48361" lon="5.67">
        <ele>189.7998</ele>
        <time>2026-05-16T10:06:44+02:00</time>
      </trkpt>
      <trkpt lat="47.48366" lon="5.67001">
        <ele>189.7002</ele>
        <time>2026-05-16T10:06:45+02:00</time>
      </trkpt>
      <trkpt lat="47.48371" lon="5.67002">
        <ele>189.7002</ele>
        <time>2026-05-16T10:06:46+02:00</time>
      </trkpt>
      <trkpt lat="47.48376" lon="5.67003">
        <ele>189.7002</ele>
        <time>2026-05-16T10:06:47+02:00</time>
      </trkpt>
      <trkpt lat="47.48381" lon="5.67005">
        <ele>189.60059</ele>
        <time>2026-05-16T10:06:48+02:00</time>
      </trkpt>
      <trkpt lat="47.48386" lon="5.67006">
        <ele>189.60059</ele>
        <time>2026-05-16T10:06:49+02:00</time>
      </trkpt>
      <trkpt lat="47.48391" lon="5.67009">
        <ele>190.2998</ele>
        <time>2026-05-16T10:06:50+02:00</time>
      </trkpt>
      <trkpt lat="47.48396" lon="5.67011">
        <ele>190.40039</ele>
        <time>2026-05-16T10:06:51+02:00</time>
      </trkpt>
      <trkpt lat="47.484" lon="5.67013">
        <ele>190.40039</ele>
        <time>2026-05-16T10:06:52+02:00</time>
      </trkpt>
      <trkpt lat="47.48405" lon="5.67016">
        <ele>191.2002</ele>
        <time>2026-05-16T10:06:53+02:00</time>
      </trkpt>
      <trkpt lat="47.4841" lon="5.67018">
        <ele>190.90039</ele>
        <time>2026-05-16T10:06:54+02:00</time>
      </trkpt>
      <trkpt lat="47.48415" lon="5.67021">
        <ele>190.40039</ele>
        <time>2026-05-16T10:06:55+02:00</time>
      </trkpt>
      <trkpt lat="47.4842" lon="5.67023">
        <ele>190.40039</ele>
        <time>2026-05-16T10:06:56+02:00</time>
      </trkpt>
      <trkpt lat="47.48425" lon="5.67026">
        <ele>190.2002</ele>
        <time>2026-05-16T10:06:57+02:00</time>
      </trkpt>
      <trkpt lat="47.4843" lon="5.67028">
        <ele>189.60059</ele>
        <time>2026-05-16T10:06:58+02:00</time>
      </trkpt>
      <trkpt lat="47.48435" lon="5.6703">
        <ele>189.2998</ele>
        <time>2026-05-16T10:06:59+02:00</time>
      </trkpt>
      <trkpt lat="47.4844" lon="5.67031">
        <ele>189</ele>
        <time>2026-05-16T10:07:00+02:00</time>
      </trkpt>
      <trkpt lat="47.48445" lon="5.67033">
        <ele>189.2998</ele>
        <time>2026-05-16T10:07:01+02:00</time>
      </trkpt>
      <trkpt lat="47.4845" lon="5.67035">
        <ele>189.2998</ele>
        <time>2026-05-16T10:07:02+02:00</time>
      </trkpt>
      <trkpt lat="47.48455" lon="5.67036">
        <ele>189.2998</ele>
        <time>2026-05-16T10:07:03+02:00</time>
      </trkpt>
      <trkpt lat="47.4846" lon="5.67036">
        <ele>189.40039</ele>
        <time>2026-05-16T10:07:04+02:00</time>
      </trkpt>
      <trkpt lat="47.48465" lon="5.67037">
        <ele>189.5</ele>
        <time>2026-05-16T10:07:05+02:00</time>
      </trkpt>
      <trkpt lat="47.4847" lon="5.67037">
        <ele>189.60059</ele>
        <time>2026-05-16T10:07:06+02:00</time>
      </trkpt>
      <trkpt lat="47.48475" lon="5.67037">
        <ele>189.7002</ele>
        <time>2026-05-16T10:07:07+02:00</time>
      </trkpt>
      <trkpt lat="47.48481" lon="5.67037">
        <ele>189.90039</ele>
        <time>2026-05-16T10:07:08+02:00</time>
      </trkpt>
      <trkpt lat="47.48486" lon="5.67036">
        <ele>190</ele>
        <time>2026-05-16T10:07:09+02:00</time>
      </trkpt>
      <trkpt lat="47.48491" lon="5.67036">
        <ele>190.2002</ele>
        <time>2026-05-16T10:07:10+02:00</time>
      </trkpt>
      <trkpt lat="47.48496" lon="5.67036">
        <ele>190.2002</ele>
        <time>2026-05-16T10:07:11+02:00</time>
      </trkpt>
      <trkpt lat="47.48501" lon="5.67035">
        <ele>190.40039</ele>
        <time>2026-05-16T10:07:12+02:00</time>
      </trkpt>
      <trkpt lat="47.48506" lon="5.67034">
        <ele>190.40039</ele>
        <time>2026-05-16T10:07:13+02:00</time>
      </trkpt>
      <trkpt lat="47.48511" lon="5.67034">
        <ele>190.5</ele>
        <time>2026-05-16T10:07:14+02:00</time>
      </trkpt>
      <trkpt lat="47.48516" lon="5.67032">
        <ele>190.7002</ele>
        <time>2026-05-16T10:07:15+02:00</time>
      </trkpt>
      <trkpt lat="47.48521" lon="5.6703">
        <ele>189.2998</ele>
        <time>2026-05-16T10:07:16+02:00</time>
      </trkpt>
      <trkpt lat="47.48525" lon="5.67028">
        <ele>189.2998</ele>
        <time>2026-05-16T10:07:17+02:00</time>
      </trkpt>
      <trkpt lat="47.4853" lon="5.67026">
        <ele>190.2998</ele>
        <time>2026-05-16T10:07:18+02:00</time>
      </trkpt>
      <trkpt lat="47.48535" lon="5.67023">
        <ele>190.90039</ele>
        <time>2026-05-16T10:07:19+02:00</time>
      </trkpt>
      <trkpt lat="47.48539" lon="5.67021">
        <ele>192.2002</ele>
        <time>2026-05-16T10:07:20+02:00</time>
      </trkpt>
      <trkpt lat="47.48544" lon="5.67018">
        <ele>192.7998</ele>
        <time>2026-05-16T10:07:21+02:00</time>
      </trkpt>
      <trkpt lat="47.48549" lon="5.67016">
        <ele>193.2998</ele>
        <time>2026-05-16T10:07:22+02:00</time>
      </trkpt>
      <trkpt lat="47.48554" lon="5.67013">
        <ele>192.60059</ele>
        <time>2026-05-16T10:07:23+02:00</time>
      </trkpt>
      <trkpt lat="47.48559" lon="5.67011">
        <ele>192.90039</ele>
        <time>2026-05-16T10:07:24+02:00</time>
      </trkpt>
      <trkpt lat="47.48563" lon="5.67008">
        <ele>193.2002</ele>
        <time>2026-05-16T10:07:25+02:00</time>
      </trkpt>
      <trkpt lat="47.48568" lon="5.67006">
        <ele>192.2002</ele>
        <time>2026-05-16T10:07:26+02:00</time>
      </trkpt>
      <trkpt lat="47.48573" lon="5.67003">
        <ele>192.2002</ele>
        <time>2026-05-16T10:07:27+02:00</time>
      </trkpt>
      <trkpt lat="47.48577" lon="5.67001">
        <ele>192.2002</ele>
        <time>2026-05-16T10:07:28+02:00</time>
      </trkpt>
      <trkpt lat="47.48582" lon="5.66999">
        <ele>192.2002</ele>
        <time>2026-05-16T10:07:29+02:00</time>
      </trkpt>
      <trkpt lat="47.48587" lon="5.66996">
        <ele>191.2002</ele>
        <time>2026-05-16T10:07:30+02:00</time>
      </trkpt>
      <trkpt lat="47.48592" lon="5.66994">
        <ele>191.40039</ele>
        <time>2026-05-16T10:07:31+02:00</time>
      </trkpt>
      <trkpt lat="47.48597" lon="5.66992">
        <ele>191.7002</ele>
        <time>2026-05-16T10:07:32+02:00</time>
      </trkpt>
      <trkpt lat="47.48602" lon="5.66991">
        <ele>191.90039</ele>
        <time>2026-05-16T10:07:33+02:00</time>
      </trkpt>
      <trkpt lat="47.48607" lon="5.6699">
        <ele>192.10059</ele>
        <time>2026-05-16T10:07:34+02:00</time>
      </trkpt>
      <trkpt lat="47.48612" lon="5.66988">
        <ele>190.7002</ele>
        <time>2026-05-16T10:07:35+02:00</time>
      </trkpt>
      <trkpt lat="47.48617" lon="5.66988">
        <ele>190.7998</ele>
        <time>2026-05-16T10:07:36+02:00</time>
      </trkpt>
      <trkpt lat="47.48621" lon="5.66987">
        <ele>190.90039</ele>
        <time>2026-05-16T10:07:37+02:00</time>
      </trkpt>
      <trkpt lat="47.48626" lon="5.66986">
        <ele>190.90039</ele>
        <time>2026-05-16T10:07:38+02:00</time>
      </trkpt>
      <trkpt lat="47.48631" lon="5.66985">
        <ele>191</ele>
        <time>2026-05-16T10:07:39+02:00</time>
      </trkpt>
      <trkpt lat="47.48636" lon="5.66984">
        <ele>191</ele>
        <time>2026-05-16T10:07:40+02:00</time>
      </trkpt>
      <trkpt lat="47.48641" lon="5.66983">
        <ele>191</ele>
        <time>2026-05-16T10:07:41+02:00</time>
      </trkpt>
      <trkpt lat="47.48646" lon="5.66982">
        <ele>191.10059</ele>
        <time>2026-05-16T10:07:42+02:00</time>
      </trkpt>
      <trkpt lat="47.48651" lon="5.66981">
        <ele>191.10059</ele>
        <time>2026-05-16T10:07:43+02:00</time>
      </trkpt>
      <trkpt lat="47.48656" lon="5.66981">
        <ele>191.2002</ele>
        <time>2026-05-16T10:07:44+02:00</time>
      </trkpt>
      <trkpt lat="47.48661" lon="5.6698">
        <ele>190.2998</ele>
        <time>2026-05-16T10:07:45+02:00</time>
      </trkpt>
      <trkpt lat="47.48666" lon="5.66979">
        <ele>190.40039</ele>
        <time>2026-05-16T10:07:46+02:00</time>
      </trkpt>
      <trkpt lat="47.48671" lon="5.66978">
        <ele>190.5</ele>
        <time>2026-05-16T10:07:47+02:00</time>
      </trkpt>
      <trkpt lat="47.48676" lon="5.66978">
        <ele>190.60059</ele>
        <time>2026-05-16T10:07:48+02:00</time>
      </trkpt>
      <trkpt lat="47.48681" lon="5.66977">
        <ele>190.60059</ele>
        <time>2026-05-16T10:07:49+02:00</time>
      </trkpt>
      <trkpt lat="47.48686" lon="5.66976">
        <ele>190.7998</ele>
        <time>2026-05-16T10:07:50+02:00</time>
      </trkpt>
      <trkpt lat="47.48691" lon="5.66976">
        <ele>190.90039</ele>
        <time>2026-05-16T10:07:51+02:00</time>
      </trkpt>
      <trkpt lat="47.48696" lon="5.66975">
        <ele>190.90039</ele>
        <time>2026-05-16T10:07:52+02:00</time>
      </trkpt>
      <trkpt lat="47.487" lon="5.66974">
        <ele>190.7002</ele>
        <time>2026-05-16T10:07:53+02:00</time>
      </trkpt>
      <trkpt lat="47.48705" lon="5.66974">
        <ele>189.90039</ele>
        <time>2026-05-16T10:07:54+02:00</time>
      </trkpt>
      <trkpt lat="47.4871" lon="5.66972">
        <ele>189.90039</ele>
        <time>2026-05-16T10:07:55+02:00</time>
      </trkpt>
      <trkpt lat="47.48714" lon="5.66971">
        <ele>188.7002</ele>
        <time>2026-05-16T10:07:56+02:00</time>
      </trkpt>
      <trkpt lat="47.48719" lon="5.66968">
        <ele>188.7002</ele>
        <time>2026-05-16T10:07:57+02:00</time>
      </trkpt>
      <trkpt lat="47.48723" lon="5.66966">
        <ele>189.40039</ele>
        <time>2026-05-16T10:07:58+02:00</time>
      </trkpt>
      <trkpt lat="47.48728" lon="5.66963">
        <ele>190.90039</ele>
        <time>2026-05-16T10:07:59+02:00</time>
      </trkpt>
      <trkpt lat="47.48733" lon="5.6696">
        <ele>190.90039</ele>
        <time>2026-05-16T10:08:00+02:00</time>
      </trkpt>
      <trkpt lat="47.48737" lon="5.66957">
        <ele>192.40039</ele>
        <time>2026-05-16T10:08:01+02:00</time>
      </trkpt>
      <trkpt lat="47.48742" lon="5.66954">
        <ele>191.7998</ele>
        <time>2026-05-16T10:08:02+02:00</time>
      </trkpt>
      <trkpt lat="47.48747" lon="5.6695">
        <ele>192</ele>
        <time>2026-05-16T10:08:03+02:00</time>
      </trkpt>
      <trkpt lat="47.48752" lon="5.66947">
        <ele>192.10059</ele>
        <time>2026-05-16T10:08:04+02:00</time>
      </trkpt>
      <trkpt lat="47.48757" lon="5.66943">
        <ele>190.7998</ele>
        <time>2026-05-16T10:08:05+02:00</time>
      </trkpt>
      <trkpt lat="47.48762" lon="5.66939">
        <ele>190.7998</ele>
        <time>2026-05-16T10:08:06+02:00</time>
      </trkpt>
      <trkpt lat="47.48766" lon="5.66935">
        <ele>190</ele>
        <time>2026-05-16T10:08:07+02:00</time>
      </trkpt>
      <trkpt lat="47.48771" lon="5.66931">
        <ele>190.10059</ele>
        <time>2026-05-16T10:08:08+02:00</time>
      </trkpt>
      <trkpt lat="47.48775" lon="5.66928">
        <ele>189.5</ele>
        <time>2026-05-16T10:08:09+02:00</time>
      </trkpt>
      <trkpt lat="47.4878" lon="5.66924">
        <ele>189.5</ele>
        <time>2026-05-16T10:08:10+02:00</time>
      </trkpt>
      <trkpt lat="47.48785" lon="5.66921">
        <ele>189.60059</ele>
        <time>2026-05-16T10:08:11+02:00</time>
      </trkpt>
      <trkpt lat="47.48789" lon="5.66918">
        <ele>189.2002</ele>
        <time>2026-05-16T10:08:12+02:00</time>
      </trkpt>
      <trkpt lat="47.48794" lon="5.66914">
        <ele>189.2998</ele>
        <time>2026-05-16T10:08:13+02:00</time>
      </trkpt>
      <trkpt lat="47.48799" lon="5.66911">
        <ele>189.2002</ele>
        <time>2026-05-16T10:08:14+02:00</time>
      </trkpt>
      <trkpt lat="47.48804" lon="5.66907">
        <ele>189.5</ele>
        <time>2026-05-16T10:08:15+02:00</time>
      </trkpt>
      <trkpt lat="47.48809" lon="5.66904">
        <ele>189.5</ele>
        <time>2026-05-16T10:08:16+02:00</time>
      </trkpt>
      <trkpt lat="47.48814" lon="5.66901">
        <ele>189.2998</ele>
        <time>2026-05-16T10:08:17+02:00</time>
      </trkpt>
      <trkpt lat="47.48819" lon="5.66897">
        <ele>189.40039</ele>
        <time>2026-05-16T10:08:18+02:00</time>
      </trkpt>
      <trkpt lat="47.48824" lon="5.66894">
        <ele>189.2002</ele>
        <time>2026-05-16T10:08:19+02:00</time>
      </trkpt>
      <trkpt lat="47.48829" lon="5.6689">
        <ele>189.2998</ele>
        <time>2026-05-16T10:08:20+02:00</time>
      </trkpt>
      <trkpt lat="47.48834" lon="5.66886">
        <ele>189.40039</ele>
        <time>2026-05-16T10:08:21+02:00</time>
      </trkpt>
      <trkpt lat="47.48839" lon="5.66882">
        <ele>189.10059</ele>
        <time>2026-05-16T10:08:22+02:00</time>
      </trkpt>
      <trkpt lat="47.48844" lon="5.66879">
        <ele>189.2002</ele>
        <time>2026-05-16T10:08:23+02:00</time>
      </trkpt>
      <trkpt lat="47.48849" lon="5.66875">
        <ele>188.7998</ele>
        <time>2026-05-16T10:08:24+02:00</time>
      </trkpt>
      <trkpt lat="47.48854" lon="5.66872">
        <ele>188.90039</ele>
        <time>2026-05-16T10:08:25+02:00</time>
      </trkpt>
      <trkpt lat="47.48858" lon="5.66869">
        <ele>189</ele>
        <time>2026-05-16T10:08:26+02:00</time>
      </trkpt>
      <trkpt lat="47.48863" lon="5.66865">
        <ele>188.90039</ele>
        <time>2026-05-16T10:08:27+02:00</time>
      </trkpt>
      <trkpt lat="47.48868" lon="5.66862">
        <ele>189.10059</ele>
        <time>2026-05-16T10:08:28+02:00</time>
      </trkpt>
      <trkpt lat="47.48873" lon="5.66858">
        <ele>189</ele>
        <time>2026-05-16T10:08:29+02:00</time>
      </trkpt>
      <trkpt lat="47.48878" lon="5.66855">
        <ele>189</ele>
        <time>2026-05-16T10:08:30+02:00</time>
      </trkpt>
      <trkpt lat="47.48883" lon="5.66851">
        <ele>188.90039</ele>
        <time>2026-05-16T10:08:31+02:00</time>
      </trkpt>
      <trkpt lat="47.48888" lon="5.66848">
        <ele>188.90039</ele>
        <time>2026-05-16T10:08:32+02:00</time>
      </trkpt>
      <trkpt lat="47.48893" lon="5.66845">
        <ele>189</ele>
        <time>2026-05-16T10:08:33+02:00</time>
      </trkpt>
      <trkpt lat="47.48898" lon="5.66841">
        <ele>188.7998</ele>
        <time>2026-05-16T10:08:34+02:00</time>
      </trkpt>
      <trkpt lat="47.48903" lon="5.66837">
        <ele>189</ele>
        <time>2026-05-16T10:08:35+02:00</time>
      </trkpt>
      <trkpt lat="47.48908" lon="5.66834">
        <ele>188.7002</ele>
        <time>2026-05-16T10:08:36+02:00</time>
      </trkpt>
      <trkpt lat="47.48913" lon="5.6683">
        <ele>188.90039</ele>
        <time>2026-05-16T10:08:37+02:00</time>
      </trkpt>
      <trkpt lat="47.48918" lon="5.66826">
        <ele>189</ele>
        <time>2026-05-16T10:08:38+02:00</time>
      </trkpt>
      <trkpt lat="47.48923" lon="5.66822">
        <ele>188.90039</ele>
        <time>2026-05-16T10:08:39+02:00</time>
      </trkpt>
      <trkpt lat="47.48928" lon="5.66819">
        <ele>189</ele>
        <time>2026-05-16T10:08:40+02:00</time>
      </trkpt>
      <trkpt lat="47.48933" lon="5.66815">
        <ele>188.7998</ele>
        <time>2026-05-16T10:08:41+02:00</time>
      </trkpt>
      <trkpt lat="47.48938" lon="5.66811">
        <ele>188.90039</ele>
        <time>2026-05-16T10:08:42+02:00</time>
      </trkpt>
      <trkpt lat="47.48943" lon="5.66807">
        <ele>188.7002</ele>
        <time>2026-05-16T10:08:43+02:00</time>
      </trkpt>
      <trkpt lat="47.48948" lon="5.66802">
        <ele>188.7002</ele>
        <time>2026-05-16T10:08:44+02:00</time>
      </trkpt>
      <trkpt lat="47.48952" lon="5.66798">
        <ele>188.5</ele>
        <time>2026-05-16T10:08:45+02:00</time>
      </trkpt>
      <trkpt lat="47.48957" lon="5.66793">
        <ele>188.60059</ele>
        <time>2026-05-16T10:08:46+02:00</time>
      </trkpt>
      <trkpt lat="47.48961" lon="5.66788">
        <ele>188.5</ele>
        <time>2026-05-16T10:08:47+02:00</time>
      </trkpt>
      <trkpt lat="47.48965" lon="5.66783">
        <ele>188.5</ele>
        <time>2026-05-16T10:08:48+02:00</time>
      </trkpt>
      <trkpt lat="47.48969" lon="5.66777">
        <ele>188.5</ele>
        <time>2026-05-16T10:08:49+02:00</time>
      </trkpt>
      <trkpt lat="47.48972" lon="5.66771">
        <ele>188.60059</ele>
        <time>2026-05-16T10:08:50+02:00</time>
      </trkpt>
      <trkpt lat="47.48976" lon="5.66765">
        <ele>188.5</ele>
        <time>2026-05-16T10:08:51+02:00</time>
      </trkpt>
      <trkpt lat="47.48979" lon="5.66759">
        <ele>188.5</ele>
        <time>2026-05-16T10:08:52+02:00</time>
      </trkpt>
      <trkpt lat="47.48982" lon="5.66752">
        <ele>188.40039</ele>
        <time>2026-05-16T10:08:53+02:00</time>
      </trkpt>
      <trkpt lat="47.48985" lon="5.66746">
        <ele>188.5</ele>
        <time>2026-05-16T10:08:54+02:00</time>
      </trkpt>
      <trkpt lat="47.48988" lon="5.66739">
        <ele>188.40039</ele>
        <time>2026-05-16T10:08:55+02:00</time>
      </trkpt>
      <trkpt lat="47.48992" lon="5.66733">
        <ele>188.5</ele>
        <time>2026-05-16T10:08:56+02:00</time>
      </trkpt>
      <trkpt lat="47.48995" lon="5.66726">
        <ele>188.40039</ele>
        <time>2026-05-16T10:08:57+02:00</time>
      </trkpt>
      <trkpt lat="47.48998" lon="5.66719">
        <ele>188.40039</ele>
        <time>2026-05-16T10:08:58+02:00</time>
      </trkpt>
      <trkpt lat="47.49001" lon="5.66713">
        <ele>188.40039</ele>
        <time>2026-05-16T10:08:59+02:00</time>
      </trkpt>
      <trkpt lat="47.49005" lon="5.66706">
        <ele>188.40039</ele>
        <time>2026-05-16T10:09:00+02:00</time>
      </trkpt>
      <trkpt lat="47.49008" lon="5.66699">
        <ele>188.60059</ele>
        <time>2026-05-16T10:09:01+02:00</time>
      </trkpt>
      <trkpt lat="47.49012" lon="5.66693">
        <ele>188.5</ele>
        <time>2026-05-16T10:09:02+02:00</time>
      </trkpt>
      <trkpt lat="47.49014" lon="5.66686">
        <ele>188.7002</ele>
        <time>2026-05-16T10:09:03+02:00</time>
      </trkpt>
      <trkpt lat="47.49018" lon="5.6668">
        <ele>189</ele>
        <time>2026-05-16T10:09:04+02:00</time>
      </trkpt>
      <trkpt lat="47.49021" lon="5.66673">
        <ele>188.7998</ele>
        <time>2026-05-16T10:09:05+02:00</time>
      </trkpt>
      <trkpt lat="47.49024" lon="5.66667">
        <ele>188.7002</ele>
        <time>2026-05-16T10:09:06+02:00</time>
      </trkpt>
      <trkpt lat="47.49027" lon="5.66661">
        <ele>188.7002</ele>
        <time>2026-05-16T10:09:07+02:00</time>
      </trkpt>
      <trkpt lat="47.4903" lon="5.66654">
        <ele>188.7998</ele>
        <time>2026-05-16T10:09:08+02:00</time>
      </trkpt>
      <trkpt lat="47.49033" lon="5.66648">
        <ele>188.7998</ele>
        <time>2026-05-16T10:09:09+02:00</time>
      </trkpt>
      <trkpt lat="47.49037" lon="5.66641">
        <ele>188.90039</ele>
        <time>2026-05-16T10:09:10+02:00</time>
      </trkpt>
      <trkpt lat="47.4904" lon="5.66635">
        <ele>188.7002</ele>
        <time>2026-05-16T10:09:11+02:00</time>
      </trkpt>
      <trkpt lat="47.49042" lon="5.66628">
        <ele>188.60059</ele>
        <time>2026-05-16T10:09:12+02:00</time>
      </trkpt>
      <trkpt lat="47.49045" lon="5.66621">
        <ele>188.60059</ele>
        <time>2026-05-16T10:09:13+02:00</time>
      </trkpt>
      <trkpt lat="47.49048" lon="5.66615">
        <ele>188.7002</ele>
        <time>2026-05-16T10:09:14+02:00</time>
      </trkpt>
      <trkpt lat="47.49051" lon="5.66608">
        <ele>188.5</ele>
        <time>2026-05-16T10:09:15+02:00</time>
      </trkpt>
      <trkpt lat="47.49054" lon="5.66601">
        <ele>188.60059</ele>
        <time>2026-05-16T10:09:16+02:00</time>
      </trkpt>
      <trkpt lat="47.49057" lon="5.66594">
        <ele>188.5</ele>
        <time>2026-05-16T10:09:17+02:00</time>
      </trkpt>
      <trkpt lat="47.4906" lon="5.66588">
        <ele>188.60059</ele>
        <time>2026-05-16T10:09:18+02:00</time>
      </trkpt>
      <trkpt lat="47.49062" lon="5.66581">
        <ele>188.40039</ele>
        <time>2026-05-16T10:09:19+02:00</time>
      </trkpt>
      <trkpt lat="47.49065" lon="5.66574">
        <ele>188.40039</ele>
        <time>2026-05-16T10:09:20+02:00</time>
      </trkpt>
      <trkpt lat="47.49067" lon="5.66567">
        <ele>188.40039</ele>
        <time>2026-05-16T10:09:21+02:00</time>
      </trkpt>
      <trkpt lat="47.4907" lon="5.66561">
        <ele>188.40039</ele>
        <time>2026-05-16T10:09:22+02:00</time>
      </trkpt>
      <trkpt lat="47.49072" lon="5.66554">
        <ele>188.40039</ele>
        <time>2026-05-16T10:09:23+02:00</time>
      </trkpt>
      <trkpt lat="47.49075" lon="5.66547">
        <ele>188.40039</ele>
        <time>2026-05-16T10:09:24+02:00</time>
      </trkpt>
      <trkpt lat="47.49077" lon="5.6654">
        <ele>188.2998</ele>
        <time>2026-05-16T10:09:25+02:00</time>
      </trkpt>
      <trkpt lat="47.49079" lon="5.66534">
        <ele>188.40039</ele>
        <time>2026-05-16T10:09:26+02:00</time>
      </trkpt>
      <trkpt lat="47.49082" lon="5.66528">
        <ele>188.40039</ele>
        <time>2026-05-16T10:09:27+02:00</time>
      </trkpt>
      <trkpt lat="47.49084" lon="5.66521">
        <ele>188.40039</ele>
        <time>2026-05-16T10:09:28+02:00</time>
      </trkpt>
      <trkpt lat="47.49086" lon="5.66514">
        <ele>188.40039</ele>
        <time>2026-05-16T10:09:29+02:00</time>
      </trkpt>
      <trkpt lat="47.49088" lon="5.66508">
        <ele>188.40039</ele>
        <time>2026-05-16T10:09:30+02:00</time>
      </trkpt>
      <trkpt lat="47.4909" lon="5.66501">
        <ele>188.40039</ele>
        <time>2026-05-16T10:09:31+02:00</time>
      </trkpt>
      <trkpt lat="47.49092" lon="5.66494">
        <ele>188.40039</ele>
        <time>2026-05-16T10:09:32+02:00</time>
      </trkpt>
      <trkpt lat="47.49094" lon="5.66487">
        <ele>188.2998</ele>
        <time>2026-05-16T10:09:33+02:00</time>
      </trkpt>
      <trkpt lat="47.49096" lon="5.6648">
        <ele>188.2998</ele>
        <time>2026-05-16T10:09:34+02:00</time>
      </trkpt>
      <trkpt lat="47.49099" lon="5.66473">
        <ele>188.2998</ele>
        <time>2026-05-16T10:09:35+02:00</time>
      </trkpt>
      <trkpt lat="47.49101" lon="5.66465">
        <ele>188.40039</ele>
        <time>2026-05-16T10:09:36+02:00</time>
      </trkpt>
      <trkpt lat="47.49103" lon="5.66458">
        <ele>188.40039</ele>
        <time>2026-05-16T10:09:37+02:00</time>
      </trkpt>
      <trkpt lat="47.49105" lon="5.66451">
        <ele>188.40039</ele>
        <time>2026-05-16T10:09:38+02:00</time>
      </trkpt>
      <trkpt lat="47.49107" lon="5.66443">
        <ele>188.40039</ele>
        <time>2026-05-16T10:09:39+02:00</time>
      </trkpt>
      <trkpt lat="47.4911" lon="5.66436">
        <ele>188.40039</ele>
        <time>2026-05-16T10:09:40+02:00</time>
      </trkpt>
      <trkpt lat="47.49112" lon="5.66429">
        <ele>188.2998</ele>
        <time>2026-05-16T10:09:41+02:00</time>
      </trkpt>
      <trkpt lat="47.49114" lon="5.66421">
        <ele>188.2998</ele>
        <time>2026-05-16T10:09:42+02:00</time>
      </trkpt>
      <trkpt lat="47.49116" lon="5.66414">
        <ele>188.2998</ele>
        <time>2026-05-16T10:09:43+02:00</time>
      </trkpt>
      <trkpt lat="47.49119" lon="5.66406">
        <ele>188.2998</ele>
        <time>2026-05-16T10:09:44+02:00</time>
      </trkpt>
      <trkpt lat="47.49121" lon="5.66399">
        <ele>188.2998</ele>
        <time>2026-05-16T10:09:45+02:00</time>
      </trkpt>
      <trkpt lat="47.49123" lon="5.66391">
        <ele>188.40039</ele>
        <time>2026-05-16T10:09:46+02:00</time>
      </trkpt>
      <trkpt lat="47.49125" lon="5.66384">
        <ele>188.40039</ele>
        <time>2026-05-16T10:09:47+02:00</time>
      </trkpt>
      <trkpt lat="47.49127" lon="5.66377">
        <ele>188.40039</ele>
        <time>2026-05-16T10:09:48+02:00</time>
      </trkpt>
      <trkpt lat="47.4913" lon="5.6637">
        <ele>188.5</ele>
        <time>2026-05-16T10:09:49+02:00</time>
      </trkpt>
      <trkpt lat="47.49132" lon="5.66363">
        <ele>188.5</ele>
        <time>2026-05-16T10:09:50+02:00</time>
      </trkpt>
      <trkpt lat="47.49135" lon="5.66356">
        <ele>188.60059</ele>
        <time>2026-05-16T10:09:51+02:00</time>
      </trkpt>
      <trkpt lat="47.49137" lon="5.66349">
        <ele>188.5</ele>
        <time>2026-05-16T10:09:52+02:00</time>
      </trkpt>
      <trkpt lat="47.4914" lon="5.66342">
        <ele>188.40039</ele>
        <time>2026-05-16T10:09:53+02:00</time>
      </trkpt>
      <trkpt lat="47.49143" lon="5.66335">
        <ele>188.40039</ele>
        <time>2026-05-16T10:09:54+02:00</time>
      </trkpt>
      <trkpt lat="47.49146" lon="5.66328">
        <ele>188.40039</ele>
        <time>2026-05-16T10:09:55+02:00</time>
      </trkpt>
      <trkpt lat="47.49149" lon="5.66321">
        <ele>188.40039</ele>
        <time>2026-05-16T10:09:56+02:00</time>
      </trkpt>
      <trkpt lat="47.49152" lon="5.66314">
        <ele>188.40039</ele>
        <time>2026-05-16T10:09:57+02:00</time>
      </trkpt>
      <trkpt lat="47.49155" lon="5.66307">
        <ele>188.2998</ele>
        <time>2026-05-16T10:09:58+02:00</time>
      </trkpt>
      <trkpt lat="47.49158" lon="5.663">
        <ele>188.2998</ele>
        <time>2026-05-16T10:09:59+02:00</time>
      </trkpt>
      <trkpt lat="47.49161" lon="5.66294">
        <ele>188.2998</ele>
        <time>2026-05-16T10:10:00+02:00</time>
      </trkpt>
      <trkpt lat="47.49165" lon="5.66288">
        <ele>188.40039</ele>
        <time>2026-05-16T10:10:01+02:00</time>
      </trkpt>
      <trkpt lat="47.49168" lon="5.66281">
        <ele>188.40039</ele>
        <time>2026-05-16T10:10:02+02:00</time>
      </trkpt>
      <trkpt lat="47.49172" lon="5.66275">
        <ele>188.5</ele>
        <time>2026-05-16T10:10:03+02:00</time>
      </trkpt>
      <trkpt lat="47.49175" lon="5.66269">
        <ele>188.7998</ele>
        <time>2026-05-16T10:10:04+02:00</time>
      </trkpt>
      <trkpt lat="47.49179" lon="5.66262">
        <ele>188.7002</ele>
        <time>2026-05-16T10:10:05+02:00</time>
      </trkpt>
      <trkpt lat="47.49182" lon="5.66256">
        <ele>188.7002</ele>
        <time>2026-05-16T10:10:06+02:00</time>
      </trkpt>
      <trkpt lat="47.49186" lon="5.6625">
        <ele>188.5</ele>
        <time>2026-05-16T10:10:07+02:00</time>
      </trkpt>
      <trkpt lat="47.49189" lon="5.66243">
        <ele>188.7002</ele>
        <time>2026-05-16T10:10:08+02:00</time>
      </trkpt>
      <trkpt lat="47.49193" lon="5.66237">
        <ele>188.7002</ele>
        <time>2026-05-16T10:10:09+02:00</time>
      </trkpt>
      <trkpt lat="47.49196" lon="5.66231">
        <ele>188.60059</ele>
        <time>2026-05-16T10:10:10+02:00</time>
      </trkpt>
      <trkpt lat="47.492" lon="5.66225">
        <ele>188.7002</ele>
        <time>2026-05-16T10:10:11+02:00</time>
      </trkpt>
      <trkpt lat="47.49204" lon="5.66218">
        <ele>188.7998</ele>
        <time>2026-05-16T10:10:12+02:00</time>
      </trkpt>
      <trkpt lat="47.49207" lon="5.66212">
        <ele>188.60059</ele>
        <time>2026-05-16T10:10:13+02:00</time>
      </trkpt>
      <trkpt lat="47.49211" lon="5.66205">
        <ele>188.60059</ele>
        <time>2026-05-16T10:10:14+02:00</time>
      </trkpt>
      <trkpt lat="47.49214" lon="5.66198">
        <ele>188.5</ele>
        <time>2026-05-16T10:10:15+02:00</time>
      </trkpt>
      <trkpt lat="47.49218" lon="5.66192">
        <ele>188.60059</ele>
        <time>2026-05-16T10:10:16+02:00</time>
      </trkpt>
      <trkpt lat="47.49222" lon="5.66186">
        <ele>188.7002</ele>
        <time>2026-05-16T10:10:17+02:00</time>
      </trkpt>
      <trkpt lat="47.49225" lon="5.66179">
        <ele>188.5</ele>
        <time>2026-05-16T10:10:18+02:00</time>
      </trkpt>
      <trkpt lat="47.49229" lon="5.66173">
        <ele>188.5</ele>
        <time>2026-05-16T10:10:19+02:00</time>
      </trkpt>
      <trkpt lat="47.49233" lon="5.66167">
        <ele>188.7002</ele>
        <time>2026-05-16T10:10:20+02:00</time>
      </trkpt>
      <trkpt lat="47.49236" lon="5.6616">
        <ele>188.5</ele>
        <time>2026-05-16T10:10:21+02:00</time>
      </trkpt>
      <trkpt lat="47.49239" lon="5.66154">
        <ele>188.60059</ele>
        <time>2026-05-16T10:10:22+02:00</time>
      </trkpt>
      <trkpt lat="47.49243" lon="5.66147">
        <ele>188.5</ele>
        <time>2026-05-16T10:10:23+02:00</time>
      </trkpt>
      <trkpt lat="47.49247" lon="5.66141">
        <ele>188.60059</ele>
        <time>2026-05-16T10:10:24+02:00</time>
      </trkpt>
      <trkpt lat="47.49251" lon="5.66135">
        <ele>188.60059</ele>
        <time>2026-05-16T10:10:25+02:00</time>
      </trkpt>
      <trkpt lat="47.49254" lon="5.66129">
        <ele>188.40039</ele>
        <time>2026-05-16T10:10:26+02:00</time>
      </trkpt>
      <trkpt lat="47.49259" lon="5.66124">
        <ele>188.60059</ele>
        <time>2026-05-16T10:10:27+02:00</time>
      </trkpt>
      <trkpt lat="47.49262" lon="5.66118">
        <ele>188.7002</ele>
        <time>2026-05-16T10:10:28+02:00</time>
      </trkpt>
      <trkpt lat="47.49266" lon="5.66113">
        <ele>188.5</ele>
        <time>2026-05-16T10:10:29+02:00</time>
      </trkpt>
      <trkpt lat="47.4927" lon="5.66107">
        <ele>188.7002</ele>
        <time>2026-05-16T10:10:30+02:00</time>
      </trkpt>
      <trkpt lat="47.49274" lon="5.66102">
        <ele>188.7002</ele>
        <time>2026-05-16T10:10:31+02:00</time>
      </trkpt>
      <trkpt lat="47.49278" lon="5.66096">
        <ele>188.5</ele>
        <time>2026-05-16T10:10:32+02:00</time>
      </trkpt>
      <trkpt lat="47.49282" lon="5.6609">
        <ele>188.7002</ele>
        <time>2026-05-16T10:10:33+02:00</time>
      </trkpt>
      <trkpt lat="47.49286" lon="5.66085">
        <ele>188.7998</ele>
        <time>2026-05-16T10:10:34+02:00</time>
      </trkpt>
      <trkpt lat="47.4929" lon="5.66079">
        <ele>188.60059</ele>
        <time>2026-05-16T10:10:35+02:00</time>
      </trkpt>
      <trkpt lat="47.49294" lon="5.66074">
        <ele>188.7998</ele>
        <time>2026-05-16T10:10:36+02:00</time>
      </trkpt>
      <trkpt lat="47.49298" lon="5.66068">
        <ele>188.7998</ele>
        <time>2026-05-16T10:10:37+02:00</time>
      </trkpt>
      <trkpt lat="47.49302" lon="5.66063">
        <ele>188.7998</ele>
        <time>2026-05-16T10:10:38+02:00</time>
      </trkpt>
      <trkpt lat="47.49306" lon="5.66057">
        <ele>188.7998</ele>
        <time>2026-05-16T10:10:39+02:00</time>
      </trkpt>
      <trkpt lat="47.4931" lon="5.66051">
        <ele>188.90039</ele>
        <time>2026-05-16T10:10:40+02:00</time>
      </trkpt>
      <trkpt lat="47.49314" lon="5.66046">
        <ele>189.10059</ele>
        <time>2026-05-16T10:10:41+02:00</time>
      </trkpt>
      <trkpt lat="47.49318" lon="5.6604">
        <ele>188.7998</ele>
        <time>2026-05-16T10:10:42+02:00</time>
      </trkpt>
      <trkpt lat="47.49323" lon="5.66034">
        <ele>188.7998</ele>
        <time>2026-05-16T10:10:43+02:00</time>
      </trkpt>
      <trkpt lat="47.49327" lon="5.66029">
        <ele>189.10059</ele>
        <time>2026-05-16T10:10:44+02:00</time>
      </trkpt>
      <trkpt lat="47.49331" lon="5.66024">
        <ele>188.90039</ele>
        <time>2026-05-16T10:10:45+02:00</time>
      </trkpt>
      <trkpt lat="47.49335" lon="5.66018">
        <ele>188.90039</ele>
        <time>2026-05-16T10:10:46+02:00</time>
      </trkpt>
      <trkpt lat="47.49339" lon="5.66014">
        <ele>189.10059</ele>
        <time>2026-05-16T10:10:47+02:00</time>
      </trkpt>
      <trkpt lat="47.49344" lon="5.6601">
        <ele>189</ele>
        <time>2026-05-16T10:10:48+02:00</time>
      </trkpt>
      <trkpt lat="47.49349" lon="5.66007">
        <ele>189.2002</ele>
        <time>2026-05-16T10:10:49+02:00</time>
      </trkpt>
      <trkpt lat="47.49353" lon="5.66004">
        <ele>189.2002</ele>
        <time>2026-05-16T10:10:50+02:00</time>
      </trkpt>
      <trkpt lat="47.49356" lon="5.66003">
        <ele>189.5</ele>
        <time>2026-05-16T10:10:51+02:00</time>
      </trkpt>
      <trkpt lat="47.49359" lon="5.66001">
        <ele>189.2998</ele>
        <time>2026-05-16T10:10:52+02:00</time>
      </trkpt>
      <trkpt lat="47.49362" lon="5.65999">
        <ele>189.5</ele>
        <time>2026-05-16T10:10:53+02:00</time>
      </trkpt>
      <trkpt lat="47.49365" lon="5.65995">
        <ele>189.5</ele>
        <time>2026-05-16T10:10:54+02:00</time>
      </trkpt>
      <trkpt lat="47.49366" lon="5.6599">
        <ele>189.2002</ele>
        <time>2026-05-16T10:10:55+02:00</time>
      </trkpt>
      <trkpt lat="47.49367" lon="5.65986">
        <ele>189.40039</ele>
        <time>2026-05-16T10:10:56+02:00</time>
      </trkpt>
      <trkpt lat="47.49368" lon="5.65981">
        <ele>189.10059</ele>
        <time>2026-05-16T10:10:57+02:00</time>
      </trkpt>
      <trkpt lat="47.4937" lon="5.65976">
        <ele>188.7998</ele>
        <time>2026-05-16T10:10:58+02:00</time>
      </trkpt>
      <trkpt lat="47.49373" lon="5.65972">
        <ele>188.90039</ele>
        <time>2026-05-16T10:10:59+02:00</time>
      </trkpt>
      <trkpt lat="47.49376" lon="5.65968">
        <ele>188.90039</ele>
        <time>2026-05-16T10:11:00+02:00</time>
      </trkpt>
      <trkpt lat="47.49379" lon="5.65964">
        <ele>188.7002</ele>
        <time>2026-05-16T10:11:01+02:00</time>
      </trkpt>
      <trkpt lat="47.49382" lon="5.65959">
        <ele>188.7002</ele>
        <time>2026-05-16T10:11:02+02:00</time>
      </trkpt>
      <trkpt lat="47.49386" lon="5.65955">
        <ele>188.7002</ele>
        <time>2026-05-16T10:11:03+02:00</time>
      </trkpt>
      <trkpt lat="47.49389" lon="5.6595">
        <ele>188.5</ele>
        <time>2026-05-16T10:11:04+02:00</time>
      </trkpt>
      <trkpt lat="47.49392" lon="5.65944">
        <ele>188.7002</ele>
        <time>2026-05-16T10:11:05+02:00</time>
      </trkpt>
      <trkpt lat="47.49396" lon="5.65939">
        <ele>188.7002</ele>
        <time>2026-05-16T10:11:06+02:00</time>
      </trkpt>
      <trkpt lat="47.494" lon="5.65934">
        <ele>188.7002</ele>
        <time>2026-05-16T10:11:07+02:00</time>
      </trkpt>
      <trkpt lat="47.49404" lon="5.65929">
        <ele>188.7002</ele>
        <time>2026-05-16T10:11:08+02:00</time>
      </trkpt>
      <trkpt lat="47.49408" lon="5.65924">
        <ele>188.7002</ele>
        <time>2026-05-16T10:11:09+02:00</time>
      </trkpt>
      <trkpt lat="47.49412" lon="5.6592">
        <ele>188.7002</ele>
        <time>2026-05-16T10:11:10+02:00</time>
      </trkpt>
      <trkpt lat="47.49416" lon="5.65915">
        <ele>188.7002</ele>
        <time>2026-05-16T10:11:11+02:00</time>
      </trkpt>
      <trkpt lat="47.4942" lon="5.6591">
        <ele>188.7998</ele>
        <time>2026-05-16T10:11:12+02:00</time>
      </trkpt>
      <trkpt lat="47.49423" lon="5.65904">
        <ele>188.7002</ele>
        <time>2026-05-16T10:11:13+02:00</time>
      </trkpt>
      <trkpt lat="47.49428" lon="5.65899">
        <ele>188.7998</ele>
        <time>2026-05-16T10:11:14+02:00</time>
      </trkpt>
      <trkpt lat="47.49431" lon="5.65893">
        <ele>188.60059</ele>
        <time>2026-05-16T10:11:15+02:00</time>
      </trkpt>
      <trkpt lat="47.49434" lon="5.65887">
        <ele>188.40039</ele>
        <time>2026-05-16T10:11:16+02:00</time>
      </trkpt>
      <trkpt lat="47.49438" lon="5.65881">
        <ele>188.40039</ele>
        <time>2026-05-16T10:11:17+02:00</time>
      </trkpt>
      <trkpt lat="47.49442" lon="5.65876">
        <ele>188.40039</ele>
        <time>2026-05-16T10:11:18+02:00</time>
      </trkpt>
      <trkpt lat="47.49446" lon="5.6587">
        <ele>188.40039</ele>
        <time>2026-05-16T10:11:19+02:00</time>
      </trkpt>
      <trkpt lat="47.49449" lon="5.65864">
        <ele>188.40039</ele>
        <time>2026-05-16T10:11:20+02:00</time>
      </trkpt>
      <trkpt lat="47.49453" lon="5.65857">
        <ele>188.40039</ele>
        <time>2026-05-16T10:11:21+02:00</time>
      </trkpt>
      <trkpt lat="47.49457" lon="5.65851">
        <ele>188.40039</ele>
        <time>2026-05-16T10:11:22+02:00</time>
      </trkpt>
      <trkpt lat="47.4946" lon="5.65845">
        <ele>188.40039</ele>
        <time>2026-05-16T10:11:23+02:00</time>
      </trkpt>
      <trkpt lat="47.49464" lon="5.65838">
        <ele>188.40039</ele>
        <time>2026-05-16T10:11:24+02:00</time>
      </trkpt>
      <trkpt lat="47.49468" lon="5.65832">
        <ele>188.40039</ele>
        <time>2026-05-16T10:11:25+02:00</time>
      </trkpt>
      <trkpt lat="47.49471" lon="5.65826">
        <ele>188.5</ele>
        <time>2026-05-16T10:11:26+02:00</time>
      </trkpt>
      <trkpt lat="47.49475" lon="5.6582">
        <ele>188.40039</ele>
        <time>2026-05-16T10:11:27+02:00</time>
      </trkpt>
      <trkpt lat="47.49479" lon="5.65814">
        <ele>188.40039</ele>
        <time>2026-05-16T10:11:28+02:00</time>
      </trkpt>
      <trkpt lat="47.49483" lon="5.65808">
        <ele>188.40039</ele>
        <time>2026-05-16T10:11:29+02:00</time>
      </trkpt>
      <trkpt lat="47.49487" lon="5.65802">
        <ele>188.40039</ele>
        <time>2026-05-16T10:11:30+02:00</time>
      </trkpt>
      <trkpt lat="47.4949" lon="5.65796">
        <ele>188.5</ele>
        <time>2026-05-16T10:11:31+02:00</time>
      </trkpt>
      <trkpt lat="47.49494" lon="5.65791">
        <ele>188.5</ele>
        <time>2026-05-16T10:11:32+02:00</time>
      </trkpt>
      <trkpt lat="47.49498" lon="5.65784">
        <ele>188.40039</ele>
        <time>2026-05-16T10:11:33+02:00</time>
      </trkpt>
      <trkpt lat="47.49503" lon="5.65778">
        <ele>188.40039</ele>
        <time>2026-05-16T10:11:34+02:00</time>
      </trkpt>
      <trkpt lat="47.49507" lon="5.65773">
        <ele>188.40039</ele>
        <time>2026-05-16T10:11:35+02:00</time>
      </trkpt>
      <trkpt lat="47.4951" lon="5.65767">
        <ele>188.40039</ele>
        <time>2026-05-16T10:11:36+02:00</time>
      </trkpt>
      <trkpt lat="47.49514" lon="5.65761">
        <ele>188.5</ele>
        <time>2026-05-16T10:11:37+02:00</time>
      </trkpt>
      <trkpt lat="47.49518" lon="5.65755">
        <ele>188.60059</ele>
        <time>2026-05-16T10:11:38+02:00</time>
      </trkpt>
      <trkpt lat="47.49521" lon="5.6575">
        <ele>188.40039</ele>
        <time>2026-05-16T10:11:39+02:00</time>
      </trkpt>
      <trkpt lat="47.49524" lon="5.65744">
        <ele>188.40039</ele>
        <time>2026-05-16T10:11:40+02:00</time>
      </trkpt>
      <trkpt lat="47.49528" lon="5.65738">
        <ele>188.40039</ele>
        <time>2026-05-16T10:11:41+02:00</time>
      </trkpt>
      <trkpt lat="47.49532" lon="5.65732">
        <ele>188.5</ele>
        <time>2026-05-16T10:11:42+02:00</time>
      </trkpt>
      <trkpt lat="47.49536" lon="5.65726">
        <ele>188.5</ele>
        <time>2026-05-16T10:11:43+02:00</time>
      </trkpt>
      <trkpt lat="47.49539" lon="5.6572">
        <ele>188.5</ele>
        <time>2026-05-16T10:11:44+02:00</time>
      </trkpt>
      <trkpt lat="47.49543" lon="5.65714">
        <ele>188.5</ele>
        <time>2026-05-16T10:11:45+02:00</time>
      </trkpt>
      <trkpt lat="47.49547" lon="5.65707">
        <ele>188.40039</ele>
        <time>2026-05-16T10:11:46+02:00</time>
      </trkpt>
      <trkpt lat="47.4955" lon="5.65701">
        <ele>188.40039</ele>
        <time>2026-05-16T10:11:47+02:00</time>
      </trkpt>
      <trkpt lat="47.49554" lon="5.65695">
        <ele>188.60059</ele>
        <time>2026-05-16T10:11:48+02:00</time>
      </trkpt>
      <trkpt lat="47.49558" lon="5.65688">
        <ele>188.60059</ele>
        <time>2026-05-16T10:11:49+02:00</time>
      </trkpt>
      <trkpt lat="47.49561" lon="5.65682">
        <ele>188.40039</ele>
        <time>2026-05-16T10:11:50+02:00</time>
      </trkpt>
      <trkpt lat="47.49564" lon="5.65676">
        <ele>188.5</ele>
        <time>2026-05-16T10:11:51+02:00</time>
      </trkpt>
      <trkpt lat="47.49568" lon="5.6567">
        <ele>188.2998</ele>
        <time>2026-05-16T10:11:52+02:00</time>
      </trkpt>
      <trkpt lat="47.49571" lon="5.65664">
        <ele>188.5</ele>
        <time>2026-05-16T10:11:53+02:00</time>
      </trkpt>
      <trkpt lat="47.49575" lon="5.65658">
        <ele>188.5</ele>
        <time>2026-05-16T10:11:54+02:00</time>
      </trkpt>
      <trkpt lat="47.49579" lon="5.65652">
        <ele>188.5</ele>
        <time>2026-05-16T10:11:55+02:00</time>
      </trkpt>
      <trkpt lat="47.49582" lon="5.65646">
        <ele>188.5</ele>
        <time>2026-05-16T10:11:56+02:00</time>
      </trkpt>
      <trkpt lat="47.49586" lon="5.6564">
        <ele>188.2998</ele>
        <time>2026-05-16T10:11:57+02:00</time>
      </trkpt>
      <trkpt lat="47.49589" lon="5.65634">
        <ele>188.40039</ele>
        <time>2026-05-16T10:11:58+02:00</time>
      </trkpt>
      <trkpt lat="47.49593" lon="5.65628">
        <ele>188.5</ele>
        <time>2026-05-16T10:11:59+02:00</time>
      </trkpt>
      <trkpt lat="47.49596" lon="5.65622">
        <ele>188.5</ele>
        <time>2026-05-16T10:12:00+02:00</time>
      </trkpt>
      <trkpt lat="47.496" lon="5.65615">
        <ele>188.40039</ele>
        <time>2026-05-16T10:12:01+02:00</time>
      </trkpt>
      <trkpt lat="47.49603" lon="5.65609">
        <ele>188.40039</ele>
        <time>2026-05-16T10:12:02+02:00</time>
      </trkpt>
      <trkpt lat="47.49606" lon="5.65603">
        <ele>188.2998</ele>
        <time>2026-05-16T10:12:03+02:00</time>
      </trkpt>
      <trkpt lat="47.4961" lon="5.65597">
        <ele>188.40039</ele>
        <time>2026-05-16T10:12:04+02:00</time>
      </trkpt>
      <trkpt lat="47.49613" lon="5.65591">
        <ele>188.40039</ele>
        <time>2026-05-16T10:12:05+02:00</time>
      </trkpt>
      <trkpt lat="47.49616" lon="5.65585">
        <ele>188.7002</ele>
        <time>2026-05-16T10:12:06+02:00</time>
      </trkpt>
      <trkpt lat="47.49619" lon="5.65579">
        <ele>188.7002</ele>
        <time>2026-05-16T10:12:07+02:00</time>
      </trkpt>
      <trkpt lat="47.49622" lon="5.65573">
        <ele>189.2998</ele>
        <time>2026-05-16T10:12:08+02:00</time>
      </trkpt>
      <trkpt lat="47.49625" lon="5.65568">
        <ele>189.2002</ele>
        <time>2026-05-16T10:12:09+02:00</time>
      </trkpt>
      <trkpt lat="47.49628" lon="5.65562">
        <ele>189.40039</ele>
        <time>2026-05-16T10:12:10+02:00</time>
      </trkpt>
      <trkpt lat="47.49631" lon="5.65557">
        <ele>189.40039</ele>
        <time>2026-05-16T10:12:11+02:00</time>
      </trkpt>
      <trkpt lat="47.49634" lon="5.65551">
        <ele>189.40039</ele>
        <time>2026-05-16T10:12:12+02:00</time>
      </trkpt>
      <trkpt lat="47.49637" lon="5.65546">
        <ele>189</ele>
        <time>2026-05-16T10:12:13+02:00</time>
      </trkpt>
      <trkpt lat="47.49639" lon="5.6554">
        <ele>189.5</ele>
        <time>2026-05-16T10:12:14+02:00</time>
      </trkpt>
      <trkpt lat="47.49642" lon="5.65534">
        <ele>189.10059</ele>
        <time>2026-05-16T10:12:15+02:00</time>
      </trkpt>
      <trkpt lat="47.49645" lon="5.65528">
        <ele>189.40039</ele>
        <time>2026-05-16T10:12:16+02:00</time>
      </trkpt>
      <trkpt lat="47.49648" lon="5.65522">
        <ele>189.40039</ele>
        <time>2026-05-16T10:12:17+02:00</time>
      </trkpt>
      <trkpt lat="47.49651" lon="5.65516">
        <ele>189.2998</ele>
        <time>2026-05-16T10:12:18+02:00</time>
      </trkpt>
      <trkpt lat="47.49653" lon="5.6551">
        <ele>188.7998</ele>
        <time>2026-05-16T10:12:19+02:00</time>
      </trkpt>
      <trkpt lat="47.49655" lon="5.65505">
        <ele>188.7998</ele>
        <time>2026-05-16T10:12:20+02:00</time>
      </trkpt>
      <trkpt lat="47.49658" lon="5.65499">
        <ele>188.7002</ele>
        <time>2026-05-16T10:12:21+02:00</time>
      </trkpt>
      <trkpt lat="47.49661" lon="5.65493">
        <ele>188.7002</ele>
        <time>2026-05-16T10:12:22+02:00</time>
      </trkpt>
      <trkpt lat="47.49664" lon="5.65487">
        <ele>189</ele>
        <time>2026-05-16T10:12:23+02:00</time>
      </trkpt>
      <trkpt lat="47.49667" lon="5.65481">
        <ele>188.7998</ele>
        <time>2026-05-16T10:12:24+02:00</time>
      </trkpt>
      <trkpt lat="47.4967" lon="5.65476">
        <ele>188.7002</ele>
        <time>2026-05-16T10:12:25+02:00</time>
      </trkpt>
      <trkpt lat="47.49673" lon="5.6547">
        <ele>188.7002</ele>
        <time>2026-05-16T10:12:26+02:00</time>
      </trkpt>
      <trkpt lat="47.49676" lon="5.65465">
        <ele>188.5</ele>
        <time>2026-05-16T10:12:27+02:00</time>
      </trkpt>
      <trkpt lat="47.49678" lon="5.65459">
        <ele>188.5</ele>
        <time>2026-05-16T10:12:28+02:00</time>
      </trkpt>
      <trkpt lat="47.49681" lon="5.65454">
        <ele>188.7998</ele>
        <time>2026-05-16T10:12:29+02:00</time>
      </trkpt>
      <trkpt lat="47.49684" lon="5.65448">
        <ele>188.60059</ele>
        <time>2026-05-16T10:12:30+02:00</time>
      </trkpt>
      <trkpt lat="47.49687" lon="5.65442">
        <ele>188.5</ele>
        <time>2026-05-16T10:12:31+02:00</time>
      </trkpt>
      <trkpt lat="47.4969" lon="5.65437">
        <ele>188.5</ele>
        <time>2026-05-16T10:12:32+02:00</time>
      </trkpt>
      <trkpt lat="47.49693" lon="5.65431">
        <ele>188.40039</ele>
        <time>2026-05-16T10:12:33+02:00</time>
      </trkpt>
      <trkpt lat="47.49696" lon="5.65426">
        <ele>188.40039</ele>
        <time>2026-05-16T10:12:34+02:00</time>
      </trkpt>
      <trkpt lat="47.49699" lon="5.6542">
        <ele>188.60059</ele>
        <time>2026-05-16T10:12:35+02:00</time>
      </trkpt>
      <trkpt lat="47.49702" lon="5.65414">
        <ele>188.5</ele>
        <time>2026-05-16T10:12:36+02:00</time>
      </trkpt>
      <trkpt lat="47.49705" lon="5.65408">
        <ele>188.5</ele>
        <time>2026-05-16T10:12:37+02:00</time>
      </trkpt>
      <trkpt lat="47.49708" lon="5.65402">
        <ele>188.5</ele>
        <time>2026-05-16T10:12:38+02:00</time>
      </trkpt>
      <trkpt lat="47.49711" lon="5.65395">
        <ele>188.40039</ele>
        <time>2026-05-16T10:12:39+02:00</time>
      </trkpt>
      <trkpt lat="47.49715" lon="5.6539">
        <ele>188.40039</ele>
        <time>2026-05-16T10:12:40+02:00</time>
      </trkpt>
      <trkpt lat="47.49718" lon="5.65384">
        <ele>188.40039</ele>
        <time>2026-05-16T10:12:41+02:00</time>
      </trkpt>
      <trkpt lat="47.49722" lon="5.65378">
        <ele>188.5</ele>
        <time>2026-05-16T10:12:42+02:00</time>
      </trkpt>
      <trkpt lat="47.49725" lon="5.65373">
        <ele>188.40039</ele>
        <time>2026-05-16T10:12:43+02:00</time>
      </trkpt>
      <trkpt lat="47.49729" lon="5.65368">
        <ele>188.5</ele>
        <time>2026-05-16T10:12:44+02:00</time>
      </trkpt>
      <trkpt lat="47.49733" lon="5.65363">
        <ele>188.40039</ele>
        <time>2026-05-16T10:12:45+02:00</time>
      </trkpt>
      <trkpt lat="47.49737" lon="5.65359">
        <ele>188.40039</ele>
        <time>2026-05-16T10:12:46+02:00</time>
      </trkpt>
      <trkpt lat="47.49741" lon="5.65355">
        <ele>188.5</ele>
        <time>2026-05-16T10:12:47+02:00</time>
      </trkpt>
      <trkpt lat="47.49745" lon="5.6535">
        <ele>188.7002</ele>
        <time>2026-05-16T10:12:48+02:00</time>
      </trkpt>
      <trkpt lat="47.4975" lon="5.65346">
        <ele>188.90039</ele>
        <time>2026-05-16T10:12:49+02:00</time>
      </trkpt>
      <trkpt lat="47.49754" lon="5.65342">
        <ele>188.90039</ele>
        <time>2026-05-16T10:12:50+02:00</time>
      </trkpt>
      <trkpt lat="47.49759" lon="5.65338">
        <ele>188.7998</ele>
        <time>2026-05-16T10:12:51+02:00</time>
      </trkpt>
      <trkpt lat="47.49764" lon="5.65334">
        <ele>189.10059</ele>
        <time>2026-05-16T10:12:52+02:00</time>
      </trkpt>
      <trkpt lat="47.49769" lon="5.65331">
        <ele>189.10059</ele>
        <time>2026-05-16T10:12:53+02:00</time>
      </trkpt>
      <trkpt lat="47.49774" lon="5.65328">
        <ele>189.5</ele>
        <time>2026-05-16T10:12:54+02:00</time>
      </trkpt>
      <trkpt lat="47.49779" lon="5.65325">
        <ele>189.90039</ele>
        <time>2026-05-16T10:12:55+02:00</time>
      </trkpt>
      <trkpt lat="47.49784" lon="5.65322">
        <ele>189.7002</ele>
        <time>2026-05-16T10:12:56+02:00</time>
      </trkpt>
      <trkpt lat="47.4979" lon="5.65319">
        <ele>189.90039</ele>
        <time>2026-05-16T10:12:57+02:00</time>
      </trkpt>
      <trkpt lat="47.49795" lon="5.65317">
        <ele>189.90039</ele>
        <time>2026-05-16T10:12:58+02:00</time>
      </trkpt>
      <trkpt lat="47.498" lon="5.65315">
        <ele>189.60059</ele>
        <time>2026-05-16T10:12:59+02:00</time>
      </trkpt>
      <trkpt lat="47.49805" lon="5.65313">
        <ele>189.7002</ele>
        <time>2026-05-16T10:13:00+02:00</time>
      </trkpt>
      <trkpt lat="47.4981" lon="5.65312">
        <ele>189.7998</ele>
        <time>2026-05-16T10:13:01+02:00</time>
      </trkpt>
      <trkpt lat="47.49816" lon="5.6531">
        <ele>189.90039</ele>
        <time>2026-05-16T10:13:02+02:00</time>
      </trkpt>
      <trkpt lat="47.49821" lon="5.65309">
        <ele>190</ele>
        <time>2026-05-16T10:13:03+02:00</time>
      </trkpt>
      <trkpt lat="47.49826" lon="5.65308">
        <ele>190.10059</ele>
        <time>2026-05-16T10:13:04+02:00</time>
      </trkpt>
      <trkpt lat="47.49831" lon="5.65306">
        <ele>189.40039</ele>
        <time>2026-05-16T10:13:05+02:00</time>
      </trkpt>
      <trkpt lat="47.49836" lon="5.65305">
        <ele>189.5</ele>
        <time>2026-05-16T10:13:06+02:00</time>
      </trkpt>
      <trkpt lat="47.49841" lon="5.65304">
        <ele>189.5</ele>
        <time>2026-05-16T10:13:07+02:00</time>
      </trkpt>
      <trkpt lat="47.49846" lon="5.65302">
        <ele>189.5</ele>
        <time>2026-05-16T10:13:08+02:00</time>
      </trkpt>
      <trkpt lat="47.49852" lon="5.65301">
        <ele>189.5</ele>
        <time>2026-05-16T10:13:09+02:00</time>
      </trkpt>
      <trkpt lat="47.49857" lon="5.653">
        <ele>189.60059</ele>
        <time>2026-05-16T10:13:10+02:00</time>
      </trkpt>
      <trkpt lat="47.49862" lon="5.65299">
        <ele>189.60059</ele>
        <time>2026-05-16T10:13:11+02:00</time>
      </trkpt>
      <trkpt lat="47.49868" lon="5.65297">
        <ele>189</ele>
        <time>2026-05-16T10:13:12+02:00</time>
      </trkpt>
      <trkpt lat="47.49873" lon="5.65296">
        <ele>189</ele>
        <time>2026-05-16T10:13:13+02:00</time>
      </trkpt>
      <trkpt lat="47.49878" lon="5.65295">
        <ele>189.10059</ele>
        <time>2026-05-16T10:13:14+02:00</time>
      </trkpt>
      <trkpt lat="47.49884" lon="5.65293">
        <ele>189.10059</ele>
        <time>2026-05-16T10:13:15+02:00</time>
      </trkpt>
      <trkpt lat="47.49889" lon="5.65292">
        <ele>189.10059</ele>
        <time>2026-05-16T10:13:16+02:00</time>
      </trkpt>
      <trkpt lat="47.49895" lon="5.65291">
        <ele>189.10059</ele>
        <time>2026-05-16T10:13:17+02:00</time>
      </trkpt>
      <trkpt lat="47.49901" lon="5.6529">
        <ele>189.10059</ele>
        <time>2026-05-16T10:13:18+02:00</time>
      </trkpt>
      <trkpt lat="47.49906" lon="5.65289">
        <ele>188.7002</ele>
        <time>2026-05-16T10:13:19+02:00</time>
      </trkpt>
      <trkpt lat="47.49911" lon="5.65288">
        <ele>188.7002</ele>
        <time>2026-05-16T10:13:20+02:00</time>
      </trkpt>
      <trkpt lat="47.49917" lon="5.65288">
        <ele>188.7002</ele>
        <time>2026-05-16T10:13:21+02:00</time>
      </trkpt>
      <trkpt lat="47.49922" lon="5.65288">
        <ele>188.7002</ele>
        <time>2026-05-16T10:13:22+02:00</time>
      </trkpt>
      <trkpt lat="47.49927" lon="5.65288">
        <ele>188.7002</ele>
        <time>2026-05-16T10:13:23+02:00</time>
      </trkpt>
      <trkpt lat="47.49933" lon="5.65288">
        <ele>188.7002</ele>
        <time>2026-05-16T10:13:24+02:00</time>
      </trkpt>
      <trkpt lat="47.49938" lon="5.65288">
        <ele>188.7998</ele>
        <time>2026-05-16T10:13:25+02:00</time>
      </trkpt>
      <trkpt lat="47.49944" lon="5.65288">
        <ele>188.7998</ele>
        <time>2026-05-16T10:13:26+02:00</time>
      </trkpt>
      <trkpt lat="47.49949" lon="5.65288">
        <ele>188.7998</ele>
        <time>2026-05-16T10:13:27+02:00</time>
      </trkpt>
      <trkpt lat="47.49954" lon="5.65289">
        <ele>188.7998</ele>
        <time>2026-05-16T10:13:28+02:00</time>
      </trkpt>
      <trkpt lat="47.4996" lon="5.6529">
        <ele>189.2002</ele>
        <time>2026-05-16T10:13:29+02:00</time>
      </trkpt>
      <trkpt lat="47.49965" lon="5.65291">
        <ele>189.2002</ele>
        <time>2026-05-16T10:13:30+02:00</time>
      </trkpt>
      <trkpt lat="47.49971" lon="5.65291">
        <ele>189.2002</ele>
        <time>2026-05-16T10:13:31+02:00</time>
      </trkpt>
      <trkpt lat="47.49976" lon="5.65292">
        <ele>189.2002</ele>
        <time>2026-05-16T10:13:32+02:00</time>
      </trkpt>
      <trkpt lat="47.49981" lon="5.65293">
        <ele>189.2002</ele>
        <time>2026-05-16T10:13:33+02:00</time>
      </trkpt>
      <trkpt lat="47.49987" lon="5.65293">
        <ele>189.2002</ele>
        <time>2026-05-16T10:13:34+02:00</time>
      </trkpt>
      <trkpt lat="47.49992" lon="5.65294">
        <ele>189.2002</ele>
        <time>2026-05-16T10:13:35+02:00</time>
      </trkpt>
      <trkpt lat="47.49997" lon="5.65295">
        <ele>189.2002</ele>
        <time>2026-05-16T10:13:36+02:00</time>
      </trkpt>
      <trkpt lat="47.50003" lon="5.65296">
        <ele>189.2002</ele>
        <time>2026-05-16T10:13:37+02:00</time>
      </trkpt>
      <trkpt lat="47.50008" lon="5.65297">
        <ele>189.2002</ele>
        <time>2026-05-16T10:13:38+02:00</time>
      </trkpt>
      <trkpt lat="47.50013" lon="5.65299">
        <ele>189.60059</ele>
        <time>2026-05-16T10:13:39+02:00</time>
      </trkpt>
      <trkpt lat="47.50019" lon="5.653">
        <ele>189.60059</ele>
        <time>2026-05-16T10:13:40+02:00</time>
      </trkpt>
      <trkpt lat="47.50024" lon="5.65302">
        <ele>189.60059</ele>
        <time>2026-05-16T10:13:41+02:00</time>
      </trkpt>
      <trkpt lat="47.50029" lon="5.65303">
        <ele>189.60059</ele>
        <time>2026-05-16T10:13:42+02:00</time>
      </trkpt>
      <trkpt lat="47.50034" lon="5.65305">
        <ele>189.60059</ele>
        <time>2026-05-16T10:13:43+02:00</time>
      </trkpt>
      <trkpt lat="47.50039" lon="5.65307">
        <ele>190.2998</ele>
        <time>2026-05-16T10:13:44+02:00</time>
      </trkpt>
      <trkpt lat="47.50044" lon="5.65309">
        <ele>190.2998</ele>
        <time>2026-05-16T10:13:45+02:00</time>
      </trkpt>
      <trkpt lat="47.50049" lon="5.65311">
        <ele>190.2998</ele>
        <time>2026-05-16T10:13:46+02:00</time>
      </trkpt>
      <trkpt lat="47.50054" lon="5.65313">
        <ele>190.2998</ele>
        <time>2026-05-16T10:13:47+02:00</time>
      </trkpt>
      <trkpt lat="47.50059" lon="5.65315">
        <ele>190.2998</ele>
        <time>2026-05-16T10:13:48+02:00</time>
      </trkpt>
      <trkpt lat="47.50064" lon="5.65317">
        <ele>191.10059</ele>
        <time>2026-05-16T10:13:49+02:00</time>
      </trkpt>
      <trkpt lat="47.50069" lon="5.6532">
        <ele>191.10059</ele>
        <time>2026-05-16T10:13:50+02:00</time>
      </trkpt>
      <trkpt lat="47.50074" lon="5.65322">
        <ele>191</ele>
        <time>2026-05-16T10:13:51+02:00</time>
      </trkpt>
      <trkpt lat="47.50078" lon="5.65325">
        <ele>191.5</ele>
        <time>2026-05-16T10:13:52+02:00</time>
      </trkpt>
      <trkpt lat="47.50084" lon="5.65327">
        <ele>191.10059</ele>
        <time>2026-05-16T10:13:53+02:00</time>
      </trkpt>
      <trkpt lat="47.50088" lon="5.6533">
        <ele>190.60059</ele>
        <time>2026-05-16T10:13:54+02:00</time>
      </trkpt>
      <trkpt lat="47.50093" lon="5.65333">
        <ele>190.60059</ele>
        <time>2026-05-16T10:13:55+02:00</time>
      </trkpt>
      <trkpt lat="47.50098" lon="5.65335">
        <ele>190.40039</ele>
        <time>2026-05-16T10:13:56+02:00</time>
      </trkpt>
      <trkpt lat="47.50102" lon="5.65338">
        <ele>190.40039</ele>
        <time>2026-05-16T10:13:57+02:00</time>
      </trkpt>
      <trkpt lat="47.50107" lon="5.6534">
        <ele>190.2998</ele>
        <time>2026-05-16T10:13:58+02:00</time>
      </trkpt>
      <trkpt lat="47.50112" lon="5.65343">
        <ele>190.90039</ele>
        <time>2026-05-16T10:13:59+02:00</time>
      </trkpt>
      <trkpt lat="47.50116" lon="5.65346">
        <ele>190.90039</ele>
        <time>2026-05-16T10:14:00+02:00</time>
      </trkpt>
      <trkpt lat="47.50121" lon="5.65348">
        <ele>190.7998</ele>
        <time>2026-05-16T10:14:01+02:00</time>
      </trkpt>
      <trkpt lat="47.50126" lon="5.65351">
        <ele>191.2998</ele>
        <time>2026-05-16T10:14:02+02:00</time>
      </trkpt>
      <trkpt lat="47.50131" lon="5.65354">
        <ele>191.2998</ele>
        <time>2026-05-16T10:14:03+02:00</time>
      </trkpt>
      <trkpt lat="47.50136" lon="5.65357">
        <ele>191</ele>
        <time>2026-05-16T10:14:04+02:00</time>
      </trkpt>
      <trkpt lat="47.50141" lon="5.6536">
        <ele>191.2002</ele>
        <time>2026-05-16T10:14:05+02:00</time>
      </trkpt>
      <trkpt lat="47.50145" lon="5.65362">
        <ele>191</ele>
        <time>2026-05-16T10:14:06+02:00</time>
      </trkpt>
      <trkpt lat="47.5015" lon="5.65365">
        <ele>190.7998</ele>
        <time>2026-05-16T10:14:07+02:00</time>
      </trkpt>
      <trkpt lat="47.50155" lon="5.65368">
        <ele>191.2002</ele>
        <time>2026-05-16T10:14:08+02:00</time>
      </trkpt>
      <trkpt lat="47.5016" lon="5.65371">
        <ele>191.2002</ele>
        <time>2026-05-16T10:14:09+02:00</time>
      </trkpt>
      <trkpt lat="47.50165" lon="5.65373">
        <ele>191.10059</ele>
        <time>2026-05-16T10:14:10+02:00</time>
      </trkpt>
      <trkpt lat="47.5017" lon="5.65376">
        <ele>191.7002</ele>
        <time>2026-05-16T10:14:11+02:00</time>
      </trkpt>
      <trkpt lat="47.50176" lon="5.65379">
        <ele>191.7998</ele>
        <time>2026-05-16T10:14:12+02:00</time>
      </trkpt>
      <trkpt lat="47.50181" lon="5.65382">
        <ele>191.90039</ele>
        <time>2026-05-16T10:14:13+02:00</time>
      </trkpt>
      <trkpt lat="47.50186" lon="5.65385">
        <ele>192.2002</ele>
        <time>2026-05-16T10:14:14+02:00</time>
      </trkpt>
      <trkpt lat="47.50192" lon="5.65388">
        <ele>192</ele>
        <time>2026-05-16T10:14:15+02:00</time>
      </trkpt>
      <trkpt lat="47.50197" lon="5.65391">
        <ele>191.5</ele>
        <time>2026-05-16T10:14:16+02:00</time>
      </trkpt>
      <trkpt lat="47.50202" lon="5.65394">
        <ele>191.5</ele>
        <time>2026-05-16T10:14:17+02:00</time>
      </trkpt>
      <trkpt lat="47.50207" lon="5.65396">
        <ele>191</ele>
        <time>2026-05-16T10:14:18+02:00</time>
      </trkpt>
      <trkpt lat="47.50213" lon="5.65399">
        <ele>190.7002</ele>
        <time>2026-05-16T10:14:19+02:00</time>
      </trkpt>
      <trkpt lat="47.50218" lon="5.65402">
        <ele>191.5</ele>
        <time>2026-05-16T10:14:20+02:00</time>
      </trkpt>
      <trkpt lat="47.50223" lon="5.65405">
        <ele>191</ele>
        <time>2026-05-16T10:14:21+02:00</time>
      </trkpt>
      <trkpt lat="47.50227" lon="5.65408">
        <ele>190.5</ele>
        <time>2026-05-16T10:14:22+02:00</time>
      </trkpt>
      <trkpt lat="47.50232" lon="5.65411">
        <ele>190.40039</ele>
        <time>2026-05-16T10:14:23+02:00</time>
      </trkpt>
      <trkpt lat="47.50238" lon="5.65414">
        <ele>190.10059</ele>
        <time>2026-05-16T10:14:24+02:00</time>
      </trkpt>
      <trkpt lat="47.50243" lon="5.65417">
        <ele>189.7998</ele>
        <time>2026-05-16T10:14:25+02:00</time>
      </trkpt>
      <trkpt lat="47.50248" lon="5.6542">
        <ele>190.10059</ele>
        <time>2026-05-16T10:14:26+02:00</time>
      </trkpt>
      <trkpt lat="47.50253" lon="5.65422">
        <ele>190.10059</ele>
        <time>2026-05-16T10:14:27+02:00</time>
      </trkpt>
      <trkpt lat="47.50258" lon="5.65425">
        <ele>189.7998</ele>
        <time>2026-05-16T10:14:28+02:00</time>
      </trkpt>
      <trkpt lat="47.50263" lon="5.65428">
        <ele>189.90039</ele>
        <time>2026-05-16T10:14:29+02:00</time>
      </trkpt>
      <trkpt lat="47.50269" lon="5.65431">
        <ele>189.5</ele>
        <time>2026-05-16T10:14:30+02:00</time>
      </trkpt>
      <trkpt lat="47.50274" lon="5.65434">
        <ele>189.10059</ele>
        <time>2026-05-16T10:14:31+02:00</time>
      </trkpt>
      <trkpt lat="47.50279" lon="5.65437">
        <ele>188.7998</ele>
        <time>2026-05-16T10:14:32+02:00</time>
      </trkpt>
      <trkpt lat="47.50284" lon="5.6544">
        <ele>188.60059</ele>
        <time>2026-05-16T10:14:33+02:00</time>
      </trkpt>
      <trkpt lat="47.50289" lon="5.65443">
        <ele>188.7998</ele>
        <time>2026-05-16T10:14:34+02:00</time>
      </trkpt>
      <trkpt lat="47.50293" lon="5.65446">
        <ele>189.2002</ele>
        <time>2026-05-16T10:14:35+02:00</time>
      </trkpt>
      <trkpt lat="47.50298" lon="5.65449">
        <ele>189.60059</ele>
        <time>2026-05-16T10:14:36+02:00</time>
      </trkpt>
      <trkpt lat="47.50303" lon="5.65453">
        <ele>191</ele>
        <time>2026-05-16T10:14:37+02:00</time>
      </trkpt>
      <trkpt lat="47.50308" lon="5.65456">
        <ele>190.7998</ele>
        <time>2026-05-16T10:14:38+02:00</time>
      </trkpt>
      <trkpt lat="47.50313" lon="5.6546">
        <ele>190.2998</ele>
        <time>2026-05-16T10:14:39+02:00</time>
      </trkpt>
      <trkpt lat="47.50318" lon="5.65464">
        <ele>190</ele>
        <time>2026-05-16T10:14:40+02:00</time>
      </trkpt>
      <trkpt lat="47.50323" lon="5.65467">
        <ele>189.10059</ele>
        <time>2026-05-16T10:14:41+02:00</time>
      </trkpt>
      <trkpt lat="47.50328" lon="5.65471">
        <ele>189.2002</ele>
        <time>2026-05-16T10:14:42+02:00</time>
      </trkpt>
      <trkpt lat="47.50333" lon="5.65475">
        <ele>189.10059</ele>
        <time>2026-05-16T10:14:43+02:00</time>
      </trkpt>
      <trkpt lat="47.50337" lon="5.65479">
        <ele>190.10059</ele>
        <time>2026-05-16T10:14:44+02:00</time>
      </trkpt>
      <trkpt lat="47.50342" lon="5.65483">
        <ele>190.40039</ele>
        <time>2026-05-16T10:14:45+02:00</time>
      </trkpt>
      <trkpt lat="47.50347" lon="5.65486">
        <ele>190.7002</ele>
        <time>2026-05-16T10:14:46+02:00</time>
      </trkpt>
      <trkpt lat="47.50352" lon="5.6549">
        <ele>191.5</ele>
        <time>2026-05-16T10:14:47+02:00</time>
      </trkpt>
      <trkpt lat="47.50356" lon="5.65494">
        <ele>191.5</ele>
        <time>2026-05-16T10:14:48+02:00</time>
      </trkpt>
      <trkpt lat="47.50362" lon="5.65497">
        <ele>191.7998</ele>
        <time>2026-05-16T10:14:49+02:00</time>
      </trkpt>
      <trkpt lat="47.50367" lon="5.65501">
        <ele>191</ele>
        <time>2026-05-16T10:14:50+02:00</time>
      </trkpt>
      <trkpt lat="47.50371" lon="5.65505">
        <ele>190.90039</ele>
        <time>2026-05-16T10:14:51+02:00</time>
      </trkpt>
      <trkpt lat="47.50376" lon="5.65509">
        <ele>190.60059</ele>
        <time>2026-05-16T10:14:52+02:00</time>
      </trkpt>
      <trkpt lat="47.5038" lon="5.65513">
        <ele>191.2998</ele>
        <time>2026-05-16T10:14:53+02:00</time>
      </trkpt>
      <trkpt lat="47.50385" lon="5.65517">
        <ele>191</ele>
        <time>2026-05-16T10:14:54+02:00</time>
      </trkpt>
      <trkpt lat="47.5039" lon="5.6552">
        <ele>190.7002</ele>
        <time>2026-05-16T10:14:55+02:00</time>
      </trkpt>
      <trkpt lat="47.50395" lon="5.65524">
        <ele>191</ele>
        <time>2026-05-16T10:14:56+02:00</time>
      </trkpt>
      <trkpt lat="47.504" lon="5.65528">
        <ele>190.7002</ele>
        <time>2026-05-16T10:14:57+02:00</time>
      </trkpt>
      <trkpt lat="47.50404" lon="5.65532">
        <ele>191.2002</ele>
        <time>2026-05-16T10:14:58+02:00</time>
      </trkpt>
      <trkpt lat="47.50409" lon="5.65536">
        <ele>190.90039</ele>
        <time>2026-05-16T10:14:59+02:00</time>
      </trkpt>
      <trkpt lat="47.50414" lon="5.6554">
        <ele>191.2998</ele>
        <time>2026-05-16T10:15:00+02:00</time>
      </trkpt>
      <trkpt lat="47.50418" lon="5.65544">
        <ele>191</ele>
        <time>2026-05-16T10:15:01+02:00</time>
      </trkpt>
      <trkpt lat="47.50423" lon="5.65547">
        <ele>191.5</ele>
        <time>2026-05-16T10:15:02+02:00</time>
      </trkpt>
      <trkpt lat="47.50428" lon="5.65551">
        <ele>191.10059</ele>
        <time>2026-05-16T10:15:03+02:00</time>
      </trkpt>
      <trkpt lat="47.50432" lon="5.65554">
        <ele>191.10059</ele>
        <time>2026-05-16T10:15:04+02:00</time>
      </trkpt>
      <trkpt lat="47.50437" lon="5.65558">
        <ele>191</ele>
        <time>2026-05-16T10:15:05+02:00</time>
      </trkpt>
      <trkpt lat="47.50441" lon="5.65562">
        <ele>190.40039</ele>
        <time>2026-05-16T10:15:06+02:00</time>
      </trkpt>
      <trkpt lat="47.50446" lon="5.65565">
        <ele>190.7002</ele>
        <time>2026-05-16T10:15:07+02:00</time>
      </trkpt>
      <trkpt lat="47.50451" lon="5.65569">
        <ele>190.7002</ele>
        <time>2026-05-16T10:15:08+02:00</time>
      </trkpt>
      <trkpt lat="47.50455" lon="5.65573">
        <ele>191.60059</ele>
        <time>2026-05-16T10:15:09+02:00</time>
      </trkpt>
      <trkpt lat="47.5046" lon="5.65577">
        <ele>191.7002</ele>
        <time>2026-05-16T10:15:10+02:00</time>
      </trkpt>
      <trkpt lat="47.50465" lon="5.6558">
        <ele>191.60059</ele>
        <time>2026-05-16T10:15:11+02:00</time>
      </trkpt>
      <trkpt lat="47.50469" lon="5.65584">
        <ele>192.2998</ele>
        <time>2026-05-16T10:15:12+02:00</time>
      </trkpt>
      <trkpt lat="47.50474" lon="5.65587">
        <ele>191.7998</ele>
        <time>2026-05-16T10:15:13+02:00</time>
      </trkpt>
      <trkpt lat="47.50479" lon="5.6559">
        <ele>192.40039</ele>
        <time>2026-05-16T10:15:14+02:00</time>
      </trkpt>
      <trkpt lat="47.50483" lon="5.65594">
        <ele>191.60059</ele>
        <time>2026-05-16T10:15:15+02:00</time>
      </trkpt>
      <trkpt lat="47.50488" lon="5.65597">
        <ele>191</ele>
        <time>2026-05-16T10:15:16+02:00</time>
      </trkpt>
      <trkpt lat="47.50493" lon="5.65601">
        <ele>191.40039</ele>
        <time>2026-05-16T10:15:17+02:00</time>
      </trkpt>
      <trkpt lat="47.50497" lon="5.65604">
        <ele>191.2998</ele>
        <time>2026-05-16T10:15:18+02:00</time>
      </trkpt>
      <trkpt lat="47.50501" lon="5.65608">
        <ele>192</ele>
        <time>2026-05-16T10:15:19+02:00</time>
      </trkpt>
      <trkpt lat="47.50505" lon="5.65611">
        <ele>191.7998</ele>
        <time>2026-05-16T10:15:20+02:00</time>
      </trkpt>
      <trkpt lat="47.50508" lon="5.65613">
        <ele>191.7998</ele>
        <time>2026-05-16T10:15:21+02:00</time>
      </trkpt>
      <trkpt lat="47.50512" lon="5.65616">
        <ele>192.10059</ele>
        <time>2026-05-16T10:15:22+02:00</time>
      </trkpt>
      <trkpt lat="47.50515" lon="5.65619">
        <ele>191.7998</ele>
        <time>2026-05-16T10:15:23+02:00</time>
      </trkpt>
      <trkpt lat="47.5052" lon="5.65622">
        <ele>191.7998</ele>
        <time>2026-05-16T10:15:24+02:00</time>
      </trkpt>
      <trkpt lat="47.50524" lon="5.65626">
        <ele>192.2002</ele>
        <time>2026-05-16T10:15:25+02:00</time>
      </trkpt>
      <trkpt lat="47.50528" lon="5.65629">
        <ele>192</ele>
        <time>2026-05-16T10:15:26+02:00</time>
      </trkpt>
      <trkpt lat="47.50532" lon="5.65633">
        <ele>193.10059</ele>
        <time>2026-05-16T10:15:27+02:00</time>
      </trkpt>
      <trkpt lat="47.50537" lon="5.65637">
        <ele>193.10059</ele>
        <time>2026-05-16T10:15:28+02:00</time>
      </trkpt>
      <trkpt lat="47.50541" lon="5.65641">
        <ele>193.10059</ele>
        <time>2026-05-16T10:15:29+02:00</time>
      </trkpt>
      <trkpt lat="47.50546" lon="5.65645">
        <ele>194.60059</ele>
        <time>2026-05-16T10:15:30+02:00</time>
      </trkpt>
      <trkpt lat="47.50551" lon="5.65649">
        <ele>194.60059</ele>
        <time>2026-05-16T10:15:31+02:00</time>
      </trkpt>
      <trkpt lat="47.50556" lon="5.65653">
        <ele>195.5</ele>
        <time>2026-05-16T10:15:32+02:00</time>
      </trkpt>
      <trkpt lat="47.50561" lon="5.65656">
        <ele>195.2998</ele>
        <time>2026-05-16T10:15:33+02:00</time>
      </trkpt>
      <trkpt lat="47.50566" lon="5.6566">
        <ele>195.90039</ele>
        <time>2026-05-16T10:15:34+02:00</time>
      </trkpt>
      <trkpt lat="47.50572" lon="5.65664">
        <ele>195.60059</ele>
        <time>2026-05-16T10:15:35+02:00</time>
      </trkpt>
      <trkpt lat="47.50577" lon="5.65668">
        <ele>196</ele>
        <time>2026-05-16T10:15:36+02:00</time>
      </trkpt>
      <trkpt lat="47.50581" lon="5.65672">
        <ele>195.7002</ele>
        <time>2026-05-16T10:15:37+02:00</time>
      </trkpt>
      <trkpt lat="47.50586" lon="5.65676">
        <ele>196.10059</ele>
        <time>2026-05-16T10:15:38+02:00</time>
      </trkpt>
      <trkpt lat="47.50591" lon="5.6568">
        <ele>195.7998</ele>
        <time>2026-05-16T10:15:39+02:00</time>
      </trkpt>
      <trkpt lat="47.50596" lon="5.65684">
        <ele>195.40039</ele>
        <time>2026-05-16T10:15:40+02:00</time>
      </trkpt>
      <trkpt lat="47.50601" lon="5.65688">
        <ele>196</ele>
        <time>2026-05-16T10:15:41+02:00</time>
      </trkpt>
      <trkpt lat="47.50606" lon="5.65692">
        <ele>195.60059</ele>
        <time>2026-05-16T10:15:42+02:00</time>
      </trkpt>
      <trkpt lat="47.50611" lon="5.65695">
        <ele>195.7002</ele>
        <time>2026-05-16T10:15:43+02:00</time>
      </trkpt>
      <trkpt lat="47.50615" lon="5.65699">
        <ele>195.5</ele>
        <time>2026-05-16T10:15:44+02:00</time>
      </trkpt>
      <trkpt lat="47.5062" lon="5.65703">
        <ele>195.7998</ele>
        <time>2026-05-16T10:15:45+02:00</time>
      </trkpt>
      <trkpt lat="47.50625" lon="5.65708">
        <ele>195.7002</ele>
        <time>2026-05-16T10:15:46+02:00</time>
      </trkpt>
      <trkpt lat="47.5063" lon="5.65712">
        <ele>195.90039</ele>
        <time>2026-05-16T10:15:47+02:00</time>
      </trkpt>
      <trkpt lat="47.50635" lon="5.65715">
        <ele>195.90039</ele>
        <time>2026-05-16T10:15:48+02:00</time>
      </trkpt>
      <trkpt lat="47.50639" lon="5.65719">
        <ele>196.10059</ele>
        <time>2026-05-16T10:15:49+02:00</time>
      </trkpt>
      <trkpt lat="47.50644" lon="5.65722">
        <ele>195.7998</ele>
        <time>2026-05-16T10:15:50+02:00</time>
      </trkpt>
      <trkpt lat="47.50649" lon="5.65725">
        <ele>195.5</ele>
        <time>2026-05-16T10:15:51+02:00</time>
      </trkpt>
      <trkpt lat="47.50654" lon="5.65729">
        <ele>195.5</ele>
        <time>2026-05-16T10:15:52+02:00</time>
      </trkpt>
      <trkpt lat="47.50658" lon="5.65733">
        <ele>195.5</ele>
        <time>2026-05-16T10:15:53+02:00</time>
      </trkpt>
      <trkpt lat="47.50663" lon="5.65736">
        <ele>195.60059</ele>
        <time>2026-05-16T10:15:54+02:00</time>
      </trkpt>
      <trkpt lat="47.50667" lon="5.65739">
        <ele>195.2998</ele>
        <time>2026-05-16T10:15:55+02:00</time>
      </trkpt>
      <trkpt lat="47.50672" lon="5.65742">
        <ele>194.90039</ele>
        <time>2026-05-16T10:15:56+02:00</time>
      </trkpt>
      <trkpt lat="47.50676" lon="5.65745">
        <ele>195.60059</ele>
        <time>2026-05-16T10:15:57+02:00</time>
      </trkpt>
      <trkpt lat="47.50681" lon="5.65747">
        <ele>195.2998</ele>
        <time>2026-05-16T10:15:58+02:00</time>
      </trkpt>
      <trkpt lat="47.50686" lon="5.6575">
        <ele>194.90039</ele>
        <time>2026-05-16T10:15:59+02:00</time>
      </trkpt>
      <trkpt lat="47.50691" lon="5.65752">
        <ele>194.5</ele>
        <time>2026-05-16T10:16:00+02:00</time>
      </trkpt>
      <trkpt lat="47.50696" lon="5.65754">
        <ele>194.7998</ele>
        <time>2026-05-16T10:16:01+02:00</time>
      </trkpt>
      <trkpt lat="47.507" lon="5.65757">
        <ele>194.40039</ele>
        <time>2026-05-16T10:16:02+02:00</time>
      </trkpt>
      <trkpt lat="47.50705" lon="5.6576">
        <ele>194.40039</ele>
        <time>2026-05-16T10:16:03+02:00</time>
      </trkpt>
      <trkpt lat="47.50709" lon="5.65762">
        <ele>194.7002</ele>
        <time>2026-05-16T10:16:04+02:00</time>
      </trkpt>
      <trkpt lat="47.50714" lon="5.65765">
        <ele>194.40039</ele>
        <time>2026-05-16T10:16:05+02:00</time>
      </trkpt>
      <trkpt lat="47.50719" lon="5.65768">
        <ele>194.10059</ele>
        <time>2026-05-16T10:16:06+02:00</time>
      </trkpt>
      <trkpt lat="47.50724" lon="5.65771">
        <ele>194.5</ele>
        <time>2026-05-16T10:16:07+02:00</time>
      </trkpt>
      <trkpt lat="47.50729" lon="5.65773">
        <ele>194.2002</ele>
        <time>2026-05-16T10:16:08+02:00</time>
      </trkpt>
      <trkpt lat="47.50734" lon="5.65776">
        <ele>194.2002</ele>
        <time>2026-05-16T10:16:09+02:00</time>
      </trkpt>
      <trkpt lat="47.50738" lon="5.65778">
        <ele>193.90039</ele>
        <time>2026-05-16T10:16:10+02:00</time>
      </trkpt>
      <trkpt lat="47.50743" lon="5.65781">
        <ele>194</ele>
        <time>2026-05-16T10:16:11+02:00</time>
      </trkpt>
      <trkpt lat="47.50749" lon="5.65783">
        <ele>193.40039</ele>
        <time>2026-05-16T10:16:12+02:00</time>
      </trkpt>
      <trkpt lat="47.50754" lon="5.65785">
        <ele>192.5</ele>
        <time>2026-05-16T10:16:13+02:00</time>
      </trkpt>
      <trkpt lat="47.50758" lon="5.65787">
        <ele>191.5</ele>
        <time>2026-05-16T10:16:14+02:00</time>
      </trkpt>
      <trkpt lat="47.50764" lon="5.6579">
        <ele>192.40039</ele>
        <time>2026-05-16T10:16:15+02:00</time>
      </trkpt>
      <trkpt lat="47.50769" lon="5.65792">
        <ele>192.40039</ele>
        <time>2026-05-16T10:16:16+02:00</time>
      </trkpt>
      <trkpt lat="47.50774" lon="5.65795">
        <ele>192.2002</ele>
        <time>2026-05-16T10:16:17+02:00</time>
      </trkpt>
      <trkpt lat="47.50779" lon="5.65798">
        <ele>193.40039</ele>
        <time>2026-05-16T10:16:18+02:00</time>
      </trkpt>
      <trkpt lat="47.50785" lon="5.65801">
        <ele>193.2998</ele>
        <time>2026-05-16T10:16:19+02:00</time>
      </trkpt>
      <trkpt lat="47.5079" lon="5.65803">
        <ele>193</ele>
        <time>2026-05-16T10:16:20+02:00</time>
      </trkpt>
      <trkpt lat="47.50795" lon="5.65806">
        <ele>193.2002</ele>
        <time>2026-05-16T10:16:21+02:00</time>
      </trkpt>
      <trkpt lat="47.50799" lon="5.65809">
        <ele>192.60059</ele>
        <time>2026-05-16T10:16:22+02:00</time>
      </trkpt>
      <trkpt lat="47.50804" lon="5.65811">
        <ele>191.90039</ele>
        <time>2026-05-16T10:16:23+02:00</time>
      </trkpt>
      <trkpt lat="47.50809" lon="5.65813">
        <ele>191.90039</ele>
        <time>2026-05-16T10:16:24+02:00</time>
      </trkpt>
      <trkpt lat="47.50813" lon="5.65815">
        <ele>192.60059</ele>
        <time>2026-05-16T10:16:25+02:00</time>
      </trkpt>
      <trkpt lat="47.50818" lon="5.65818">
        <ele>192.5</ele>
        <time>2026-05-16T10:16:26+02:00</time>
      </trkpt>
      <trkpt lat="47.50823" lon="5.65821">
        <ele>192.60059</ele>
        <time>2026-05-16T10:16:27+02:00</time>
      </trkpt>
      <trkpt lat="47.50828" lon="5.65824">
        <ele>193.7002</ele>
        <time>2026-05-16T10:16:28+02:00</time>
      </trkpt>
      <trkpt lat="47.50832" lon="5.65826">
        <ele>193.7002</ele>
        <time>2026-05-16T10:16:29+02:00</time>
      </trkpt>
      <trkpt lat="47.50837" lon="5.65829">
        <ele>193.60059</ele>
        <time>2026-05-16T10:16:30+02:00</time>
      </trkpt>
      <trkpt lat="47.50842" lon="5.65832">
        <ele>194</ele>
        <time>2026-05-16T10:16:31+02:00</time>
      </trkpt>
      <trkpt lat="47.50847" lon="5.65835">
        <ele>193.90039</ele>
        <time>2026-05-16T10:16:32+02:00</time>
      </trkpt>
      <trkpt lat="47.50852" lon="5.65838">
        <ele>193.60059</ele>
        <time>2026-05-16T10:16:33+02:00</time>
      </trkpt>
      <trkpt lat="47.50857" lon="5.65841">
        <ele>193.60059</ele>
        <time>2026-05-16T10:16:34+02:00</time>
      </trkpt>
      <trkpt lat="47.50862" lon="5.65844">
        <ele>193.2998</ele>
        <time>2026-05-16T10:16:35+02:00</time>
      </trkpt>
      <trkpt lat="47.50866" lon="5.65847">
        <ele>193.2998</ele>
        <time>2026-05-16T10:16:36+02:00</time>
      </trkpt>
      <trkpt lat="47.50871" lon="5.6585">
        <ele>193.40039</ele>
        <time>2026-05-16T10:16:37+02:00</time>
      </trkpt>
      <trkpt lat="47.50877" lon="5.65854">
        <ele>193.10059</ele>
        <time>2026-05-16T10:16:38+02:00</time>
      </trkpt>
      <trkpt lat="47.50882" lon="5.65857">
        <ele>193.2002</ele>
        <time>2026-05-16T10:16:39+02:00</time>
      </trkpt>
      <trkpt lat="47.50887" lon="5.6586">
        <ele>192.60059</ele>
        <time>2026-05-16T10:16:40+02:00</time>
      </trkpt>
      <trkpt lat="47.50893" lon="5.65863">
        <ele>191.2998</ele>
        <time>2026-05-16T10:16:41+02:00</time>
      </trkpt>
      <trkpt lat="47.50898" lon="5.65866">
        <ele>190.90039</ele>
        <time>2026-05-16T10:16:42+02:00</time>
      </trkpt>
      <trkpt lat="47.50903" lon="5.65869">
        <ele>190.2002</ele>
        <time>2026-05-16T10:16:43+02:00</time>
      </trkpt>
      <trkpt lat="47.50908" lon="5.65872">
        <ele>190.2002</ele>
        <time>2026-05-16T10:16:44+02:00</time>
      </trkpt>
      <trkpt lat="47.50913" lon="5.65875">
        <ele>191.7002</ele>
        <time>2026-05-16T10:16:45+02:00</time>
      </trkpt>
      <trkpt lat="47.50918" lon="5.65878">
        <ele>191.90039</ele>
        <time>2026-05-16T10:16:46+02:00</time>
      </trkpt>
      <trkpt lat="47.50923" lon="5.65881">
        <ele>192.10059</ele>
        <time>2026-05-16T10:16:47+02:00</time>
      </trkpt>
      <trkpt lat="47.50927" lon="5.65884">
        <ele>192.90039</ele>
        <time>2026-05-16T10:16:48+02:00</time>
      </trkpt>
      <trkpt lat="47.50932" lon="5.65888">
        <ele>193</ele>
        <time>2026-05-16T10:16:49+02:00</time>
      </trkpt>
      <trkpt lat="47.50938" lon="5.65891">
        <ele>193.40039</ele>
        <time>2026-05-16T10:16:50+02:00</time>
      </trkpt>
      <trkpt lat="47.50943" lon="5.65894">
        <ele>193.40039</ele>
        <time>2026-05-16T10:16:51+02:00</time>
      </trkpt>
      <trkpt lat="47.50948" lon="5.65897">
        <ele>193.60059</ele>
        <time>2026-05-16T10:16:52+02:00</time>
      </trkpt>
      <trkpt lat="47.50953" lon="5.65901">
        <ele>193.7002</ele>
        <time>2026-05-16T10:16:53+02:00</time>
      </trkpt>
      <trkpt lat="47.50958" lon="5.65904">
        <ele>193.7002</ele>
        <time>2026-05-16T10:16:54+02:00</time>
      </trkpt>
      <trkpt lat="47.50963" lon="5.65907">
        <ele>193.7002</ele>
        <time>2026-05-16T10:16:55+02:00</time>
      </trkpt>
      <trkpt lat="47.50969" lon="5.6591">
        <ele>193.7998</ele>
        <time>2026-05-16T10:16:56+02:00</time>
      </trkpt>
      <trkpt lat="47.50974" lon="5.65914">
        <ele>193.7998</ele>
        <time>2026-05-16T10:16:57+02:00</time>
      </trkpt>
      <trkpt lat="47.50979" lon="5.65917">
        <ele>194</ele>
        <time>2026-05-16T10:16:58+02:00</time>
      </trkpt>
      <trkpt lat="47.50984" lon="5.6592">
        <ele>194</ele>
        <time>2026-05-16T10:16:59+02:00</time>
      </trkpt>
      <trkpt lat="47.50989" lon="5.65924">
        <ele>194.10059</ele>
        <time>2026-05-16T10:17:00+02:00</time>
      </trkpt>
      <trkpt lat="47.50995" lon="5.65926">
        <ele>194.2998</ele>
        <time>2026-05-16T10:17:01+02:00</time>
      </trkpt>
      <trkpt lat="47.51" lon="5.65929">
        <ele>194.40039</ele>
        <time>2026-05-16T10:17:02+02:00</time>
      </trkpt>
      <trkpt lat="47.51005" lon="5.65932">
        <ele>194.5</ele>
        <time>2026-05-16T10:17:03+02:00</time>
      </trkpt>
      <trkpt lat="47.5101" lon="5.65935">
        <ele>194.40039</ele>
        <time>2026-05-16T10:17:04+02:00</time>
      </trkpt>
      <trkpt lat="47.51016" lon="5.65938">
        <ele>194.5</ele>
        <time>2026-05-16T10:17:05+02:00</time>
      </trkpt>
      <trkpt lat="47.51021" lon="5.65942">
        <ele>194.40039</ele>
        <time>2026-05-16T10:17:06+02:00</time>
      </trkpt>
      <trkpt lat="47.51026" lon="5.65944">
        <ele>194.40039</ele>
        <time>2026-05-16T10:17:07+02:00</time>
      </trkpt>
      <trkpt lat="47.51031" lon="5.65947">
        <ele>194.40039</ele>
        <time>2026-05-16T10:17:08+02:00</time>
      </trkpt>
      <trkpt lat="47.51036" lon="5.6595">
        <ele>194.5</ele>
        <time>2026-05-16T10:17:09+02:00</time>
      </trkpt>
      <trkpt lat="47.51042" lon="5.65952">
        <ele>194.60059</ele>
        <time>2026-05-16T10:17:10+02:00</time>
      </trkpt>
      <trkpt lat="47.51047" lon="5.65955">
        <ele>194.60059</ele>
        <time>2026-05-16T10:17:11+02:00</time>
      </trkpt>
      <trkpt lat="47.51052" lon="5.65958">
        <ele>194.60059</ele>
        <time>2026-05-16T10:17:12+02:00</time>
      </trkpt>
      <trkpt lat="47.51058" lon="5.6596">
        <ele>194.7002</ele>
        <time>2026-05-16T10:17:13+02:00</time>
      </trkpt>
      <trkpt lat="47.51063" lon="5.65962">
        <ele>194.7002</ele>
        <time>2026-05-16T10:17:14+02:00</time>
      </trkpt>
      <trkpt lat="47.51068" lon="5.65964">
        <ele>194.60059</ele>
        <time>2026-05-16T10:17:15+02:00</time>
      </trkpt>
      <trkpt lat="47.51074" lon="5.65966">
        <ele>194.60059</ele>
        <time>2026-05-16T10:17:16+02:00</time>
      </trkpt>
      <trkpt lat="47.51079" lon="5.65967">
        <ele>194.60059</ele>
        <time>2026-05-16T10:17:17+02:00</time>
      </trkpt>
      <trkpt lat="47.51084" lon="5.65968">
        <ele>194.60059</ele>
        <time>2026-05-16T10:17:18+02:00</time>
      </trkpt>
      <trkpt lat="47.5109" lon="5.65969">
        <ele>194.5</ele>
        <time>2026-05-16T10:17:19+02:00</time>
      </trkpt>
      <trkpt lat="47.51096" lon="5.6597">
        <ele>194.40039</ele>
        <time>2026-05-16T10:17:20+02:00</time>
      </trkpt>
      <trkpt lat="47.51101" lon="5.65971">
        <ele>194.2998</ele>
        <time>2026-05-16T10:17:21+02:00</time>
      </trkpt>
      <trkpt lat="47.51107" lon="5.65972">
        <ele>194.10059</ele>
        <time>2026-05-16T10:17:22+02:00</time>
      </trkpt>
      <trkpt lat="47.51112" lon="5.65972">
        <ele>194</ele>
        <time>2026-05-16T10:17:23+02:00</time>
      </trkpt>
      <trkpt lat="47.51117" lon="5.65972">
        <ele>194</ele>
        <time>2026-05-16T10:17:24+02:00</time>
      </trkpt>
      <trkpt lat="47.51123" lon="5.65972">
        <ele>193.60059</ele>
        <time>2026-05-16T10:17:25+02:00</time>
      </trkpt>
      <trkpt lat="47.51128" lon="5.65972">
        <ele>193.60059</ele>
        <time>2026-05-16T10:17:26+02:00</time>
      </trkpt>
      <trkpt lat="47.51133" lon="5.65972">
        <ele>193.40039</ele>
        <time>2026-05-16T10:17:27+02:00</time>
      </trkpt>
      <trkpt lat="47.51137" lon="5.65971">
        <ele>193.2998</ele>
        <time>2026-05-16T10:17:28+02:00</time>
      </trkpt>
      <trkpt lat="47.51142" lon="5.65971">
        <ele>193.2002</ele>
        <time>2026-05-16T10:17:29+02:00</time>
      </trkpt>
      <trkpt lat="47.51147" lon="5.6597">
        <ele>193.10059</ele>
        <time>2026-05-16T10:17:30+02:00</time>
      </trkpt>
      <trkpt lat="47.51151" lon="5.6597">
        <ele>193.10059</ele>
        <time>2026-05-16T10:17:31+02:00</time>
      </trkpt>
      <trkpt lat="47.51156" lon="5.65968">
        <ele>193</ele>
        <time>2026-05-16T10:17:32+02:00</time>
      </trkpt>
      <trkpt lat="47.5116" lon="5.65967">
        <ele>193</ele>
        <time>2026-05-16T10:17:33+02:00</time>
      </trkpt>
      <trkpt lat="47.51165" lon="5.65966">
        <ele>193</ele>
        <time>2026-05-16T10:17:34+02:00</time>
      </trkpt>
      <trkpt lat="47.51169" lon="5.65965">
        <ele>193</ele>
        <time>2026-05-16T10:17:35+02:00</time>
      </trkpt>
      <trkpt lat="47.51174" lon="5.65965">
        <ele>193</ele>
        <time>2026-05-16T10:17:36+02:00</time>
      </trkpt>
      <trkpt lat="47.51178" lon="5.65966">
        <ele>193.10059</ele>
        <time>2026-05-16T10:17:37+02:00</time>
      </trkpt>
      <trkpt lat="47.51183" lon="5.65966">
        <ele>193.10059</ele>
        <time>2026-05-16T10:17:38+02:00</time>
      </trkpt>
      <trkpt lat="47.51187" lon="5.65966">
        <ele>193.2998</ele>
        <time>2026-05-16T10:17:39+02:00</time>
      </trkpt>
      <trkpt lat="47.51192" lon="5.65966">
        <ele>193.2998</ele>
        <time>2026-05-16T10:17:40+02:00</time>
      </trkpt>
      <trkpt lat="47.51196" lon="5.65965">
        <ele>193.40039</ele>
        <time>2026-05-16T10:17:41+02:00</time>
      </trkpt>
      <trkpt lat="47.512" lon="5.65965">
        <ele>193.5</ele>
        <time>2026-05-16T10:17:42+02:00</time>
      </trkpt>
      <trkpt lat="47.51204" lon="5.65965">
        <ele>193.5</ele>
        <time>2026-05-16T10:17:43+02:00</time>
      </trkpt>
      <trkpt lat="47.51209" lon="5.65966">
        <ele>193.60059</ele>
        <time>2026-05-16T10:17:44+02:00</time>
      </trkpt>
      <trkpt lat="47.51213" lon="5.65966">
        <ele>193.7998</ele>
        <time>2026-05-16T10:17:45+02:00</time>
      </trkpt>
      <trkpt lat="47.51218" lon="5.65966">
        <ele>193.90039</ele>
        <time>2026-05-16T10:17:46+02:00</time>
      </trkpt>
      <trkpt lat="47.51223" lon="5.65966">
        <ele>194.10059</ele>
        <time>2026-05-16T10:17:47+02:00</time>
      </trkpt>
      <trkpt lat="47.51228" lon="5.65966">
        <ele>194.2002</ele>
        <time>2026-05-16T10:17:48+02:00</time>
      </trkpt>
      <trkpt lat="47.51233" lon="5.65966">
        <ele>194.2002</ele>
        <time>2026-05-16T10:17:49+02:00</time>
      </trkpt>
      <trkpt lat="47.51238" lon="5.65966">
        <ele>194.2998</ele>
        <time>2026-05-16T10:17:50+02:00</time>
      </trkpt>
      <trkpt lat="47.51243" lon="5.65966">
        <ele>194.5</ele>
        <time>2026-05-16T10:17:51+02:00</time>
      </trkpt>
      <trkpt lat="47.51248" lon="5.65966">
        <ele>194.60059</ele>
        <time>2026-05-16T10:17:52+02:00</time>
      </trkpt>
      <trkpt lat="47.51254" lon="5.65966">
        <ele>194.7002</ele>
        <time>2026-05-16T10:17:53+02:00</time>
      </trkpt>
      <trkpt lat="47.51259" lon="5.65966">
        <ele>194.7998</ele>
        <time>2026-05-16T10:17:54+02:00</time>
      </trkpt>
      <trkpt lat="47.51264" lon="5.65966">
        <ele>194.7998</ele>
        <time>2026-05-16T10:17:55+02:00</time>
      </trkpt>
      <trkpt lat="47.51269" lon="5.65966">
        <ele>194.90039</ele>
        <time>2026-05-16T10:17:56+02:00</time>
      </trkpt>
      <trkpt lat="47.51275" lon="5.65966">
        <ele>194.90039</ele>
        <time>2026-05-16T10:17:57+02:00</time>
      </trkpt>
      <trkpt lat="47.5128" lon="5.65965">
        <ele>194.90039</ele>
        <time>2026-05-16T10:17:58+02:00</time>
      </trkpt>
      <trkpt lat="47.51286" lon="5.65965">
        <ele>194.7998</ele>
        <time>2026-05-16T10:17:59+02:00</time>
      </trkpt>
      <trkpt lat="47.51291" lon="5.65965">
        <ele>194.7998</ele>
        <time>2026-05-16T10:18:00+02:00</time>
      </trkpt>
      <trkpt lat="47.51297" lon="5.65965">
        <ele>194.7998</ele>
        <time>2026-05-16T10:18:01+02:00</time>
      </trkpt>
      <trkpt lat="47.51302" lon="5.65965">
        <ele>194.7998</ele>
        <time>2026-05-16T10:18:02+02:00</time>
      </trkpt>
      <trkpt lat="47.51307" lon="5.65964">
        <ele>194.7998</ele>
        <time>2026-05-16T10:18:03+02:00</time>
      </trkpt>
      <trkpt lat="47.51313" lon="5.65964">
        <ele>194.7002</ele>
        <time>2026-05-16T10:18:04+02:00</time>
      </trkpt>
      <trkpt lat="47.51318" lon="5.65964">
        <ele>194.7002</ele>
        <time>2026-05-16T10:18:05+02:00</time>
      </trkpt>
      <trkpt lat="47.51323" lon="5.65964">
        <ele>194.7002</ele>
        <time>2026-05-16T10:18:06+02:00</time>
      </trkpt>
      <trkpt lat="47.51329" lon="5.65964">
        <ele>194.7002</ele>
        <time>2026-05-16T10:18:07+02:00</time>
      </trkpt>
      <trkpt lat="47.51334" lon="5.65964">
        <ele>194.7002</ele>
        <time>2026-05-16T10:18:08+02:00</time>
      </trkpt>
      <trkpt lat="47.51339" lon="5.65964">
        <ele>194.7002</ele>
        <time>2026-05-16T10:18:09+02:00</time>
      </trkpt>
      <trkpt lat="47.51345" lon="5.65964">
        <ele>194.7002</ele>
        <time>2026-05-16T10:18:10+02:00</time>
      </trkpt>
      <trkpt lat="47.5135" lon="5.65964">
        <ele>194.7002</ele>
        <time>2026-05-16T10:18:11+02:00</time>
      </trkpt>
      <trkpt lat="47.51355" lon="5.65964">
        <ele>194.7998</ele>
        <time>2026-05-16T10:18:12+02:00</time>
      </trkpt>
      <trkpt lat="47.51361" lon="5.65964">
        <ele>194.7998</ele>
        <time>2026-05-16T10:18:13+02:00</time>
      </trkpt>
      <trkpt lat="47.51366" lon="5.65963">
        <ele>194.7998</ele>
        <time>2026-05-16T10:18:14+02:00</time>
      </trkpt>
      <trkpt lat="47.51372" lon="5.65963">
        <ele>194.90039</ele>
        <time>2026-05-16T10:18:15+02:00</time>
      </trkpt>
      <trkpt lat="47.51376" lon="5.65963">
        <ele>195</ele>
        <time>2026-05-16T10:18:16+02:00</time>
      </trkpt>
      <trkpt lat="47.51382" lon="5.65963">
        <ele>195.10059</ele>
        <time>2026-05-16T10:18:17+02:00</time>
      </trkpt>
      <trkpt lat="47.51387" lon="5.65962">
        <ele>195.2002</ele>
        <time>2026-05-16T10:18:18+02:00</time>
      </trkpt>
      <trkpt lat="47.51392" lon="5.65962">
        <ele>195.2998</ele>
        <time>2026-05-16T10:18:19+02:00</time>
      </trkpt>
      <trkpt lat="47.51397" lon="5.65962">
        <ele>195.40039</ele>
        <time>2026-05-16T10:18:20+02:00</time>
      </trkpt>
      <trkpt lat="47.51402" lon="5.65962">
        <ele>195.40039</ele>
        <time>2026-05-16T10:18:21+02:00</time>
      </trkpt>
      <trkpt lat="47.51407" lon="5.65962">
        <ele>195.40039</ele>
        <time>2026-05-16T10:18:22+02:00</time>
      </trkpt>
      <trkpt lat="47.51412" lon="5.65962">
        <ele>195.5</ele>
        <time>2026-05-16T10:18:23+02:00</time>
      </trkpt>
      <trkpt lat="47.51418" lon="5.65962">
        <ele>195.60059</ele>
        <time>2026-05-16T10:18:24+02:00</time>
      </trkpt>
      <trkpt lat="47.51423" lon="5.65962">
        <ele>195.7002</ele>
        <time>2026-05-16T10:18:25+02:00</time>
      </trkpt>
      <trkpt lat="47.51429" lon="5.65962">
        <ele>195.7998</ele>
        <time>2026-05-16T10:18:26+02:00</time>
      </trkpt>
      <trkpt lat="47.51434" lon="5.65962">
        <ele>195.90039</ele>
        <time>2026-05-16T10:18:27+02:00</time>
      </trkpt>
      <trkpt lat="47.51439" lon="5.65962">
        <ele>195.90039</ele>
        <time>2026-05-16T10:18:28+02:00</time>
      </trkpt>
      <trkpt lat="47.51445" lon="5.65962">
        <ele>195.90039</ele>
        <time>2026-05-16T10:18:29+02:00</time>
      </trkpt>
      <trkpt lat="47.5145" lon="5.65962">
        <ele>195.90039</ele>
        <time>2026-05-16T10:18:30+02:00</time>
      </trkpt>
      <trkpt lat="47.51456" lon="5.65962">
        <ele>195.90039</ele>
        <time>2026-05-16T10:18:31+02:00</time>
      </trkpt>
      <trkpt lat="47.51462" lon="5.65961">
        <ele>195.7998</ele>
        <time>2026-05-16T10:18:32+02:00</time>
      </trkpt>
      <trkpt lat="47.51467" lon="5.65961">
        <ele>195.7998</ele>
        <time>2026-05-16T10:18:33+02:00</time>
      </trkpt>
      <trkpt lat="47.51473" lon="5.65961">
        <ele>195.7998</ele>
        <time>2026-05-16T10:18:34+02:00</time>
      </trkpt>
      <trkpt lat="47.51479" lon="5.65961">
        <ele>195.7002</ele>
        <time>2026-05-16T10:18:35+02:00</time>
      </trkpt>
      <trkpt lat="47.51484" lon="5.65961">
        <ele>195.7002</ele>
        <time>2026-05-16T10:18:36+02:00</time>
      </trkpt>
      <trkpt lat="47.5149" lon="5.65961">
        <ele>195.60059</ele>
        <time>2026-05-16T10:18:37+02:00</time>
      </trkpt>
      <trkpt lat="47.51513" lon="5.6596">
        <ele>195.10059</ele>
        <time>2026-05-16T10:18:38+02:00</time>
      </trkpt>
      <trkpt lat="47.51519" lon="5.6596">
        <ele>195</ele>
        <time>2026-05-16T10:18:39+02:00</time>
      </trkpt>
      <trkpt lat="47.51525" lon="5.65961">
        <ele>194.7998</ele>
        <time>2026-05-16T10:18:40+02:00</time>
      </trkpt>
      <trkpt lat="47.51531" lon="5.65961">
        <ele>194.60059</ele>
        <time>2026-05-16T10:18:41+02:00</time>
      </trkpt>
      <trkpt lat="47.51536" lon="5.6596">
        <ele>194.40039</ele>
        <time>2026-05-16T10:18:42+02:00</time>
      </trkpt>
      <trkpt lat="47.51542" lon="5.6596">
        <ele>194.2002</ele>
        <time>2026-05-16T10:18:43+02:00</time>
      </trkpt>
      <trkpt lat="47.51547" lon="5.6596">
        <ele>194</ele>
        <time>2026-05-16T10:18:44+02:00</time>
      </trkpt>
      <trkpt lat="47.51553" lon="5.6596">
        <ele>193.7998</ele>
        <time>2026-05-16T10:18:45+02:00</time>
      </trkpt>
      <trkpt lat="47.51558" lon="5.6596">
        <ele>193.60059</ele>
        <time>2026-05-16T10:18:46+02:00</time>
      </trkpt>
      <trkpt lat="47.51564" lon="5.6596">
        <ele>193.40039</ele>
        <time>2026-05-16T10:18:47+02:00</time>
      </trkpt>
      <trkpt lat="47.51569" lon="5.6596">
        <ele>193.40039</ele>
        <time>2026-05-16T10:18:48+02:00</time>
      </trkpt>
      <trkpt lat="47.51575" lon="5.6596">
        <ele>193.2002</ele>
        <time>2026-05-16T10:18:49+02:00</time>
      </trkpt>
      <trkpt lat="47.51581" lon="5.6596">
        <ele>193</ele>
        <time>2026-05-16T10:18:50+02:00</time>
      </trkpt>
      <trkpt lat="47.51586" lon="5.6596">
        <ele>192.90039</ele>
        <time>2026-05-16T10:18:51+02:00</time>
      </trkpt>
      <trkpt lat="47.51591" lon="5.6596">
        <ele>192.7002</ele>
        <time>2026-05-16T10:18:52+02:00</time>
      </trkpt>
      <trkpt lat="47.51597" lon="5.6596">
        <ele>192.60059</ele>
        <time>2026-05-16T10:18:53+02:00</time>
      </trkpt>
      <trkpt lat="47.51602" lon="5.6596">
        <ele>192.5</ele>
        <time>2026-05-16T10:18:54+02:00</time>
      </trkpt>
      <trkpt lat="47.51608" lon="5.6596">
        <ele>192.40039</ele>
        <time>2026-05-16T10:18:55+02:00</time>
      </trkpt>
      <trkpt lat="47.51613" lon="5.6596">
        <ele>192.40039</ele>
        <time>2026-05-16T10:18:56+02:00</time>
      </trkpt>
      <trkpt lat="47.51619" lon="5.6596">
        <ele>192.2998</ele>
        <time>2026-05-16T10:18:57+02:00</time>
      </trkpt>
      <trkpt lat="47.51624" lon="5.6596">
        <ele>192.2998</ele>
        <time>2026-05-16T10:18:58+02:00</time>
      </trkpt>
      <trkpt lat="47.51629" lon="5.6596">
        <ele>192.2002</ele>
        <time>2026-05-16T10:18:59+02:00</time>
      </trkpt>
      <trkpt lat="47.51635" lon="5.6596">
        <ele>192.2002</ele>
        <time>2026-05-16T10:19:00+02:00</time>
      </trkpt>
      <trkpt lat="47.5164" lon="5.6596">
        <ele>192.2002</ele>
        <time>2026-05-16T10:19:01+02:00</time>
      </trkpt>
      <trkpt lat="47.51645" lon="5.6596">
        <ele>192.10059</ele>
        <time>2026-05-16T10:19:02+02:00</time>
      </trkpt>
      <trkpt lat="47.51651" lon="5.6596">
        <ele>192.10059</ele>
        <time>2026-05-16T10:19:03+02:00</time>
      </trkpt>
      <trkpt lat="47.51656" lon="5.65959">
        <ele>192.10059</ele>
        <time>2026-05-16T10:19:04+02:00</time>
      </trkpt>
      <trkpt lat="47.51662" lon="5.65959">
        <ele>192.10059</ele>
        <time>2026-05-16T10:19:05+02:00</time>
      </trkpt>
      <trkpt lat="47.51668" lon="5.65959">
        <ele>192</ele>
        <time>2026-05-16T10:19:06+02:00</time>
      </trkpt>
      <trkpt lat="47.51673" lon="5.65959">
        <ele>192</ele>
        <time>2026-05-16T10:19:07+02:00</time>
      </trkpt>
      <trkpt lat="47.51679" lon="5.65959">
        <ele>192</ele>
        <time>2026-05-16T10:19:08+02:00</time>
      </trkpt>
      <trkpt lat="47.51684" lon="5.65959">
        <ele>192</ele>
        <time>2026-05-16T10:19:09+02:00</time>
      </trkpt>
      <trkpt lat="47.5169" lon="5.65959">
        <ele>192</ele>
        <time>2026-05-16T10:19:10+02:00</time>
      </trkpt>
      <trkpt lat="47.51695" lon="5.65958">
        <ele>192.10059</ele>
        <time>2026-05-16T10:19:11+02:00</time>
      </trkpt>
      <trkpt lat="47.51701" lon="5.65958">
        <ele>192</ele>
        <time>2026-05-16T10:19:12+02:00</time>
      </trkpt>
      <trkpt lat="47.51706" lon="5.65958">
        <ele>192</ele>
        <time>2026-05-16T10:19:13+02:00</time>
      </trkpt>
      <trkpt lat="47.51712" lon="5.65958">
        <ele>192</ele>
        <time>2026-05-16T10:19:14+02:00</time>
      </trkpt>
      <trkpt lat="47.51718" lon="5.65958">
        <ele>191.90039</ele>
        <time>2026-05-16T10:19:15+02:00</time>
      </trkpt>
      <trkpt lat="47.51723" lon="5.65958">
        <ele>191.90039</ele>
        <time>2026-05-16T10:19:16+02:00</time>
      </trkpt>
      <trkpt lat="47.51729" lon="5.65958">
        <ele>191.90039</ele>
        <time>2026-05-16T10:19:17+02:00</time>
      </trkpt>
      <trkpt lat="47.51734" lon="5.65958">
        <ele>191.90039</ele>
        <time>2026-05-16T10:19:18+02:00</time>
      </trkpt>
      <trkpt lat="47.5174" lon="5.65958">
        <ele>191.90039</ele>
        <time>2026-05-16T10:19:19+02:00</time>
      </trkpt>
      <trkpt lat="47.51746" lon="5.65958">
        <ele>191.90039</ele>
        <time>2026-05-16T10:19:20+02:00</time>
      </trkpt>
      <trkpt lat="47.51751" lon="5.65958">
        <ele>191.90039</ele>
        <time>2026-05-16T10:19:21+02:00</time>
      </trkpt>
      <trkpt lat="47.51757" lon="5.65957">
        <ele>192</ele>
        <time>2026-05-16T10:19:22+02:00</time>
      </trkpt>
      <trkpt lat="47.51763" lon="5.65957">
        <ele>192</ele>
        <time>2026-05-16T10:19:23+02:00</time>
      </trkpt>
      <trkpt lat="47.51768" lon="5.65957">
        <ele>192.10059</ele>
        <time>2026-05-16T10:19:24+02:00</time>
      </trkpt>
      <trkpt lat="47.51774" lon="5.65957">
        <ele>192.10059</ele>
        <time>2026-05-16T10:19:25+02:00</time>
      </trkpt>
      <trkpt lat="47.51779" lon="5.65957">
        <ele>192.2002</ele>
        <time>2026-05-16T10:19:26+02:00</time>
      </trkpt>
      <trkpt lat="47.51785" lon="5.65957">
        <ele>192.2998</ele>
        <time>2026-05-16T10:19:27+02:00</time>
      </trkpt>
      <trkpt lat="47.5179" lon="5.65957">
        <ele>192.2998</ele>
        <time>2026-05-16T10:19:28+02:00</time>
      </trkpt>
      <trkpt lat="47.51796" lon="5.65957">
        <ele>192.40039</ele>
        <time>2026-05-16T10:19:29+02:00</time>
      </trkpt>
      <trkpt lat="47.51802" lon="5.65956">
        <ele>192.5</ele>
        <time>2026-05-16T10:19:30+02:00</time>
      </trkpt>
      <trkpt lat="47.51807" lon="5.65956">
        <ele>192.5</ele>
        <time>2026-05-16T10:19:31+02:00</time>
      </trkpt>
      <trkpt lat="47.51813" lon="5.65956">
        <ele>192.60059</ele>
        <time>2026-05-16T10:19:32+02:00</time>
      </trkpt>
      <trkpt lat="47.51819" lon="5.65956">
        <ele>192.60059</ele>
        <time>2026-05-16T10:19:33+02:00</time>
      </trkpt>
      <trkpt lat="47.51824" lon="5.65956">
        <ele>192.60059</ele>
        <time>2026-05-16T10:19:34+02:00</time>
      </trkpt>
      <trkpt lat="47.5183" lon="5.65956">
        <ele>192.7002</ele>
        <time>2026-05-16T10:19:35+02:00</time>
      </trkpt>
      <trkpt lat="47.51835" lon="5.65956">
        <ele>192.7002</ele>
        <time>2026-05-16T10:19:36+02:00</time>
      </trkpt>
      <trkpt lat="47.5184" lon="5.65956">
        <ele>192.7002</ele>
        <time>2026-05-16T10:19:37+02:00</time>
      </trkpt>
      <trkpt lat="47.51846" lon="5.65955">
        <ele>192.7998</ele>
        <time>2026-05-16T10:19:38+02:00</time>
      </trkpt>
      <trkpt lat="47.51851" lon="5.65955">
        <ele>192.7998</ele>
        <time>2026-05-16T10:19:39+02:00</time>
      </trkpt>
      <trkpt lat="47.51857" lon="5.65955">
        <ele>192.7998</ele>
        <time>2026-05-16T10:19:40+02:00</time>
      </trkpt>
      <trkpt lat="47.51862" lon="5.65955">
        <ele>192.7998</ele>
        <time>2026-05-16T10:19:41+02:00</time>
      </trkpt>
      <trkpt lat="47.51867" lon="5.65955">
        <ele>192.7998</ele>
        <time>2026-05-16T10:19:42+02:00</time>
      </trkpt>
      <trkpt lat="47.51873" lon="5.65955">
        <ele>192.7998</ele>
        <time>2026-05-16T10:19:43+02:00</time>
      </trkpt>
      <trkpt lat="47.51878" lon="5.65955">
        <ele>192.7998</ele>
        <time>2026-05-16T10:19:44+02:00</time>
      </trkpt>
      <trkpt lat="47.51883" lon="5.65955">
        <ele>192.7998</ele>
        <time>2026-05-16T10:19:45+02:00</time>
      </trkpt>
      <trkpt lat="47.51889" lon="5.65955">
        <ele>192.7998</ele>
        <time>2026-05-16T10:19:46+02:00</time>
      </trkpt>
      <trkpt lat="47.51895" lon="5.65955">
        <ele>192.7998</ele>
        <time>2026-05-16T10:19:47+02:00</time>
      </trkpt>
      <trkpt lat="47.519" lon="5.65955">
        <ele>192.7002</ele>
        <time>2026-05-16T10:19:48+02:00</time>
      </trkpt>
      <trkpt lat="47.51905" lon="5.65955">
        <ele>192.7002</ele>
        <time>2026-05-16T10:19:49+02:00</time>
      </trkpt>
      <trkpt lat="47.51911" lon="5.65955">
        <ele>192.7002</ele>
        <time>2026-05-16T10:19:50+02:00</time>
      </trkpt>
      <trkpt lat="47.51916" lon="5.65954">
        <ele>192.7002</ele>
        <time>2026-05-16T10:19:51+02:00</time>
      </trkpt>
      <trkpt lat="47.51922" lon="5.65954">
        <ele>192.60059</ele>
        <time>2026-05-16T10:19:52+02:00</time>
      </trkpt>
      <trkpt lat="47.51927" lon="5.65954">
        <ele>192.60059</ele>
        <time>2026-05-16T10:19:53+02:00</time>
      </trkpt>
      <trkpt lat="47.51932" lon="5.65954">
        <ele>192.5</ele>
        <time>2026-05-16T10:19:54+02:00</time>
      </trkpt>
      <trkpt lat="47.51938" lon="5.65954">
        <ele>192.40039</ele>
        <time>2026-05-16T10:19:55+02:00</time>
      </trkpt>
      <trkpt lat="47.51943" lon="5.65954">
        <ele>192.40039</ele>
        <time>2026-05-16T10:19:56+02:00</time>
      </trkpt>
      <trkpt lat="47.51949" lon="5.65954">
        <ele>192.2998</ele>
        <time>2026-05-16T10:19:57+02:00</time>
      </trkpt>
      <trkpt lat="47.51954" lon="5.65954">
        <ele>192.2002</ele>
        <time>2026-05-16T10:19:58+02:00</time>
      </trkpt>
      <trkpt lat="47.5196" lon="5.65953">
        <ele>192.2002</ele>
        <time>2026-05-16T10:19:59+02:00</time>
      </trkpt>
      <trkpt lat="47.51965" lon="5.65953">
        <ele>192.10059</ele>
        <time>2026-05-16T10:20:00+02:00</time>
      </trkpt>
      <trkpt lat="47.5197" lon="5.65953">
        <ele>192</ele>
        <time>2026-05-16T10:20:01+02:00</time>
      </trkpt>
      <trkpt lat="47.51976" lon="5.65953">
        <ele>192</ele>
        <time>2026-05-16T10:20:02+02:00</time>
      </trkpt>
      <trkpt lat="47.51981" lon="5.65953">
        <ele>192</ele>
        <time>2026-05-16T10:20:03+02:00</time>
      </trkpt>
      <trkpt lat="47.51986" lon="5.65953">
        <ele>192</ele>
        <time>2026-05-16T10:20:04+02:00</time>
      </trkpt>
      <trkpt lat="47.51992" lon="5.65953">
        <ele>192</ele>
        <time>2026-05-16T10:20:05+02:00</time>
      </trkpt>
      <trkpt lat="47.51997" lon="5.65953">
        <ele>192</ele>
        <time>2026-05-16T10:20:06+02:00</time>
      </trkpt>
      <trkpt lat="47.52002" lon="5.65953">
        <ele>192</ele>
        <time>2026-05-16T10:20:07+02:00</time>
      </trkpt>
      <trkpt lat="47.52008" lon="5.65953">
        <ele>192</ele>
        <time>2026-05-16T10:20:08+02:00</time>
      </trkpt>
      <trkpt lat="47.52014" lon="5.65953">
        <ele>192.10059</ele>
        <time>2026-05-16T10:20:09+02:00</time>
      </trkpt>
      <trkpt lat="47.52019" lon="5.65952">
        <ele>192.2002</ele>
        <time>2026-05-16T10:20:10+02:00</time>
      </trkpt>
      <trkpt lat="47.52025" lon="5.65952">
        <ele>192.2998</ele>
        <time>2026-05-16T10:20:11+02:00</time>
      </trkpt>
      <trkpt lat="47.5203" lon="5.65952">
        <ele>192.40039</ele>
        <time>2026-05-16T10:20:12+02:00</time>
      </trkpt>
      <trkpt lat="47.52036" lon="5.65952">
        <ele>192.5</ele>
        <time>2026-05-16T10:20:13+02:00</time>
      </trkpt>
      <trkpt lat="47.52041" lon="5.65952">
        <ele>192.60059</ele>
        <time>2026-05-16T10:20:14+02:00</time>
      </trkpt>
      <trkpt lat="47.52047" lon="5.65952">
        <ele>192.7002</ele>
        <time>2026-05-16T10:20:15+02:00</time>
      </trkpt>
      <trkpt lat="47.52052" lon="5.65952">
        <ele>192.7998</ele>
        <time>2026-05-16T10:20:16+02:00</time>
      </trkpt>
      <trkpt lat="47.52058" lon="5.65952">
        <ele>192.90039</ele>
        <time>2026-05-16T10:20:17+02:00</time>
      </trkpt>
      <trkpt lat="47.52063" lon="5.65952">
        <ele>193</ele>
        <time>2026-05-16T10:20:18+02:00</time>
      </trkpt>
      <trkpt lat="47.52068" lon="5.65951">
        <ele>193</ele>
        <time>2026-05-16T10:20:19+02:00</time>
      </trkpt>
      <trkpt lat="47.52074" lon="5.65951">
        <ele>193.10059</ele>
        <time>2026-05-16T10:20:20+02:00</time>
      </trkpt>
      <trkpt lat="47.52079" lon="5.65951">
        <ele>193.10059</ele>
        <time>2026-05-16T10:20:21+02:00</time>
      </trkpt>
      <trkpt lat="47.52085" lon="5.65951">
        <ele>193.10059</ele>
        <time>2026-05-16T10:20:22+02:00</time>
      </trkpt>
      <trkpt lat="47.5209" lon="5.65951">
        <ele>193.10059</ele>
        <time>2026-05-16T10:20:23+02:00</time>
      </trkpt>
      <trkpt lat="47.52096" lon="5.6595">
        <ele>193.10059</ele>
        <time>2026-05-16T10:20:24+02:00</time>
      </trkpt>
      <trkpt lat="47.52101" lon="5.6595">
        <ele>193.10059</ele>
        <time>2026-05-16T10:20:25+02:00</time>
      </trkpt>
      <trkpt lat="47.52106" lon="5.6595">
        <ele>193.10059</ele>
        <time>2026-05-16T10:20:26+02:00</time>
      </trkpt>
      <trkpt lat="47.52112" lon="5.6595">
        <ele>193.10059</ele>
        <time>2026-05-16T10:20:27+02:00</time>
      </trkpt>
      <trkpt lat="47.52117" lon="5.6595">
        <ele>193.10059</ele>
        <time>2026-05-16T10:20:28+02:00</time>
      </trkpt>
      <trkpt lat="47.52123" lon="5.6595">
        <ele>193</ele>
        <time>2026-05-16T10:20:29+02:00</time>
      </trkpt>
      <trkpt lat="47.52128" lon="5.6595">
        <ele>193</ele>
        <time>2026-05-16T10:20:30+02:00</time>
      </trkpt>
      <trkpt lat="47.52133" lon="5.6595">
        <ele>193</ele>
        <time>2026-05-16T10:20:31+02:00</time>
      </trkpt>
      <trkpt lat="47.52139" lon="5.6595">
        <ele>193</ele>
        <time>2026-05-16T10:20:32+02:00</time>
      </trkpt>
      <trkpt lat="47.52144" lon="5.65949">
        <ele>193</ele>
        <time>2026-05-16T10:20:33+02:00</time>
      </trkpt>
      <trkpt lat="47.5215" lon="5.65949">
        <ele>193</ele>
        <time>2026-05-16T10:20:34+02:00</time>
      </trkpt>
      <trkpt lat="47.52155" lon="5.65949">
        <ele>193.10059</ele>
        <time>2026-05-16T10:20:35+02:00</time>
      </trkpt>
      <trkpt lat="47.5216" lon="5.65949">
        <ele>193.10059</ele>
        <time>2026-05-16T10:20:36+02:00</time>
      </trkpt>
      <trkpt lat="47.52166" lon="5.65949">
        <ele>193.10059</ele>
        <time>2026-05-16T10:20:37+02:00</time>
      </trkpt>
      <trkpt lat="47.52171" lon="5.65949">
        <ele>193.2002</ele>
        <time>2026-05-16T10:20:38+02:00</time>
      </trkpt>
      <trkpt lat="47.52177" lon="5.65949">
        <ele>193.2998</ele>
        <time>2026-05-16T10:20:39+02:00</time>
      </trkpt>
      <trkpt lat="47.52183" lon="5.65948">
        <ele>193.40039</ele>
        <time>2026-05-16T10:20:40+02:00</time>
      </trkpt>
      <trkpt lat="47.52188" lon="5.65948">
        <ele>193.60059</ele>
        <time>2026-05-16T10:20:41+02:00</time>
      </trkpt>
      <trkpt lat="47.52194" lon="5.65948">
        <ele>193.7002</ele>
        <time>2026-05-16T10:20:42+02:00</time>
      </trkpt>
      <trkpt lat="47.52199" lon="5.65947">
        <ele>193.90039</ele>
        <time>2026-05-16T10:20:43+02:00</time>
      </trkpt>
      <trkpt lat="47.52205" lon="5.65946">
        <ele>194</ele>
        <time>2026-05-16T10:20:44+02:00</time>
      </trkpt>
      <trkpt lat="47.5221" lon="5.65945">
        <ele>194.2002</ele>
        <time>2026-05-16T10:20:45+02:00</time>
      </trkpt>
      <trkpt lat="47.52215" lon="5.65945">
        <ele>194.2998</ele>
        <time>2026-05-16T10:20:46+02:00</time>
      </trkpt>
      <trkpt lat="47.52221" lon="5.65944">
        <ele>194.5</ele>
        <time>2026-05-16T10:20:47+02:00</time>
      </trkpt>
      <trkpt lat="47.52226" lon="5.65943">
        <ele>194.60059</ele>
        <time>2026-05-16T10:20:48+02:00</time>
      </trkpt>
      <trkpt lat="47.52232" lon="5.65942">
        <ele>194.60059</ele>
        <time>2026-05-16T10:20:49+02:00</time>
      </trkpt>
      <trkpt lat="47.52237" lon="5.6594">
        <ele>194.90039</ele>
        <time>2026-05-16T10:20:50+02:00</time>
      </trkpt>
      <trkpt lat="47.52242" lon="5.65939">
        <ele>195</ele>
        <time>2026-05-16T10:20:51+02:00</time>
      </trkpt>
      <trkpt lat="47.52248" lon="5.65938">
        <ele>195</ele>
        <time>2026-05-16T10:20:52+02:00</time>
      </trkpt>
      <trkpt lat="47.52253" lon="5.65936">
        <ele>195</ele>
        <time>2026-05-16T10:20:53+02:00</time>
      </trkpt>
      <trkpt lat="47.52258" lon="5.65935">
        <ele>194.90039</ele>
        <time>2026-05-16T10:20:54+02:00</time>
      </trkpt>
      <trkpt lat="47.52263" lon="5.65933">
        <ele>195.10059</ele>
        <time>2026-05-16T10:20:55+02:00</time>
      </trkpt>
      <trkpt lat="47.52269" lon="5.65932">
        <ele>195</ele>
        <time>2026-05-16T10:20:56+02:00</time>
      </trkpt>
      <trkpt lat="47.52274" lon="5.65931">
        <ele>195</ele>
        <time>2026-05-16T10:20:57+02:00</time>
      </trkpt>
      <trkpt lat="47.52279" lon="5.6593">
        <ele>194.90039</ele>
        <time>2026-05-16T10:20:58+02:00</time>
      </trkpt>
      <trkpt lat="47.52284" lon="5.65929">
        <ele>194.7998</ele>
        <time>2026-05-16T10:20:59+02:00</time>
      </trkpt>
      <trkpt lat="47.52288" lon="5.65928">
        <ele>194.7998</ele>
        <time>2026-05-16T10:21:00+02:00</time>
      </trkpt>
      <trkpt lat="47.52293" lon="5.65927">
        <ele>194.7002</ele>
        <time>2026-05-16T10:21:01+02:00</time>
      </trkpt>
      <trkpt lat="47.52297" lon="5.65926">
        <ele>194.5</ele>
        <time>2026-05-16T10:21:02+02:00</time>
      </trkpt>
      <trkpt lat="47.52302" lon="5.65925">
        <ele>194.40039</ele>
        <time>2026-05-16T10:21:03+02:00</time>
      </trkpt>
      <trkpt lat="47.52306" lon="5.65924">
        <ele>194.40039</ele>
        <time>2026-05-16T10:21:04+02:00</time>
      </trkpt>
      <trkpt lat="47.52311" lon="5.65923">
        <ele>194.40039</ele>
        <time>2026-05-16T10:21:05+02:00</time>
      </trkpt>
      <trkpt lat="47.52316" lon="5.65922">
        <ele>194.2002</ele>
        <time>2026-05-16T10:21:06+02:00</time>
      </trkpt>
      <trkpt lat="47.52319" lon="5.65921">
        <ele>194.10059</ele>
        <time>2026-05-16T10:21:07+02:00</time>
      </trkpt>
      <trkpt lat="47.52323" lon="5.6592">
        <ele>193.90039</ele>
        <time>2026-05-16T10:21:08+02:00</time>
      </trkpt>
      <trkpt lat="47.52325" lon="5.65919">
        <ele>193.90039</ele>
        <time>2026-05-16T10:21:09+02:00</time>
      </trkpt>
      <trkpt lat="47.52327" lon="5.65918">
        <ele>193.90039</ele>
        <time>2026-05-16T10:21:10+02:00</time>
      </trkpt>
      <trkpt lat="47.52329" lon="5.65916">
        <ele>193.7998</ele>
        <time>2026-05-16T10:21:11+02:00</time>
      </trkpt>
      <trkpt lat="47.52331" lon="5.65915">
        <ele>193.7998</ele>
        <time>2026-05-16T10:21:12+02:00</time>
      </trkpt>
      <trkpt lat="47.52332" lon="5.65914">
        <ele>193.7998</ele>
        <time>2026-05-16T10:21:13+02:00</time>
      </trkpt>
      <trkpt lat="47.52334" lon="5.65914">
        <ele>193.7998</ele>
        <time>2026-05-16T10:21:14+02:00</time>
      </trkpt>
      <trkpt lat="47.52335" lon="5.65913">
        <ele>193.7002</ele>
        <time>2026-05-16T10:21:15+02:00</time>
      </trkpt>
      <trkpt lat="47.52335" lon="5.65913">
        <ele>193.7002</ele>
        <time>2026-05-16T10:21:16+02:00</time>
      </trkpt>
      <trkpt lat="47.52335" lon="5.65913">
        <ele>193.7002</ele>
        <time>2026-05-16T10:21:17+02:00</time>
      </trkpt>
      <trkpt lat="47.52335" lon="5.65913">
        <ele>193.7002</ele>
        <time>2026-05-16T10:21:18+02:00</time>
      </trkpt>
      <trkpt lat="47.52353" lon="5.65903">
        <ele>193.2998</ele>
        <time>2026-05-16T10:21:56+02:00</time>
      </trkpt>
      <trkpt lat="47.52357" lon="5.659">
        <ele>193.2998</ele>
        <time>2026-05-16T10:21:57+02:00</time>
      </trkpt>
      <trkpt lat="47.52361" lon="5.65896">
        <ele>193</ele>
        <time>2026-05-16T10:21:58+02:00</time>
      </trkpt>
      <trkpt lat="47.52366" lon="5.65893">
        <ele>192.7998</ele>
        <time>2026-05-16T10:21:59+02:00</time>
      </trkpt>
      <trkpt lat="47.5237" lon="5.6589">
        <ele>192.60059</ele>
        <time>2026-05-16T10:22:00+02:00</time>
      </trkpt>
      <trkpt lat="47.52374" lon="5.65887">
        <ele>192.60059</ele>
        <time>2026-05-16T10:22:01+02:00</time>
      </trkpt>
      <trkpt lat="47.52379" lon="5.65883">
        <ele>192.2998</ele>
        <time>2026-05-16T10:22:02+02:00</time>
      </trkpt>
      <trkpt lat="47.52384" lon="5.65879">
        <ele>192.10059</ele>
        <time>2026-05-16T10:22:03+02:00</time>
      </trkpt>
      <trkpt lat="47.52388" lon="5.65876">
        <ele>191.7998</ele>
        <time>2026-05-16T10:22:04+02:00</time>
      </trkpt>
      <trkpt lat="47.52393" lon="5.65872">
        <ele>191.5</ele>
        <time>2026-05-16T10:22:05+02:00</time>
      </trkpt>
      <trkpt lat="47.52397" lon="5.65868">
        <ele>191.5</ele>
        <time>2026-05-16T10:22:06+02:00</time>
      </trkpt>
      <trkpt lat="47.52402" lon="5.65864">
        <ele>191.2998</ele>
        <time>2026-05-16T10:22:07+02:00</time>
      </trkpt>
      <trkpt lat="47.52407" lon="5.6586">
        <ele>191</ele>
        <time>2026-05-16T10:22:08+02:00</time>
      </trkpt>
      <trkpt lat="47.52412" lon="5.65857">
        <ele>190.7002</ele>
        <time>2026-05-16T10:22:09+02:00</time>
      </trkpt>
      <trkpt lat="47.52417" lon="5.65853">
        <ele>190.7002</ele>
        <time>2026-05-16T10:22:10+02:00</time>
      </trkpt>
      <trkpt lat="47.52422" lon="5.65849">
        <ele>190.40039</ele>
        <time>2026-05-16T10:22:11+02:00</time>
      </trkpt>
      <trkpt lat="47.52426" lon="5.65845">
        <ele>190.7002</ele>
        <time>2026-05-16T10:22:12+02:00</time>
      </trkpt>
      <trkpt lat="47.52431" lon="5.65841">
        <ele>190.40039</ele>
        <time>2026-05-16T10:22:13+02:00</time>
      </trkpt>
      <trkpt lat="47.52435" lon="5.65836">
        <ele>190.5</ele>
        <time>2026-05-16T10:22:14+02:00</time>
      </trkpt>
      <trkpt lat="47.5244" lon="5.65832">
        <ele>190.2998</ele>
        <time>2026-05-16T10:22:15+02:00</time>
      </trkpt>
      <trkpt lat="47.52445" lon="5.65828">
        <ele>190.2998</ele>
        <time>2026-05-16T10:22:16+02:00</time>
      </trkpt>
      <trkpt lat="47.52449" lon="5.65824">
        <ele>190.2998</ele>
        <time>2026-05-16T10:22:17+02:00</time>
      </trkpt>
      <trkpt lat="47.52453" lon="5.6582">
        <ele>190.5</ele>
        <time>2026-05-16T10:22:18+02:00</time>
      </trkpt>
      <trkpt lat="47.52458" lon="5.65815">
        <ele>190.2998</ele>
        <time>2026-05-16T10:22:19+02:00</time>
      </trkpt>
      <trkpt lat="47.52462" lon="5.65811">
        <ele>190.40039</ele>
        <time>2026-05-16T10:22:20+02:00</time>
      </trkpt>
      <trkpt lat="47.52466" lon="5.65807">
        <ele>190.40039</ele>
        <time>2026-05-16T10:22:21+02:00</time>
      </trkpt>
      <trkpt lat="47.52471" lon="5.65802">
        <ele>190.60059</ele>
        <time>2026-05-16T10:22:22+02:00</time>
      </trkpt>
      <trkpt lat="47.52474" lon="5.65798">
        <ele>190.40039</ele>
        <time>2026-05-16T10:22:23+02:00</time>
      </trkpt>
      <trkpt lat="47.52479" lon="5.65793">
        <ele>190.7002</ele>
        <time>2026-05-16T10:22:24+02:00</time>
      </trkpt>
      <trkpt lat="47.52483" lon="5.65789">
        <ele>190.5</ele>
        <time>2026-05-16T10:22:25+02:00</time>
      </trkpt>
      <trkpt lat="47.52487" lon="5.65784">
        <ele>190.60059</ele>
        <time>2026-05-16T10:22:26+02:00</time>
      </trkpt>
      <trkpt lat="47.52492" lon="5.6578">
        <ele>190.5</ele>
        <time>2026-05-16T10:22:27+02:00</time>
      </trkpt>
      <trkpt lat="47.52496" lon="5.65776">
        <ele>190.7998</ele>
        <time>2026-05-16T10:22:28+02:00</time>
      </trkpt>
      <trkpt lat="47.525" lon="5.65771">
        <ele>190.7002</ele>
        <time>2026-05-16T10:22:29+02:00</time>
      </trkpt>
      <trkpt lat="47.52504" lon="5.65766">
        <ele>190.7998</ele>
        <time>2026-05-16T10:22:30+02:00</time>
      </trkpt>
      <trkpt lat="47.52509" lon="5.65762">
        <ele>190.7002</ele>
        <time>2026-05-16T10:22:31+02:00</time>
      </trkpt>
      <trkpt lat="47.52513" lon="5.65757">
        <ele>190.90039</ele>
        <time>2026-05-16T10:22:32+02:00</time>
      </trkpt>
      <trkpt lat="47.52517" lon="5.65753">
        <ele>191</ele>
        <time>2026-05-16T10:22:33+02:00</time>
      </trkpt>
      <trkpt lat="47.52521" lon="5.65748">
        <ele>190.90039</ele>
        <time>2026-05-16T10:22:34+02:00</time>
      </trkpt>
      <trkpt lat="47.52525" lon="5.65744">
        <ele>191</ele>
        <time>2026-05-16T10:22:35+02:00</time>
      </trkpt>
      <trkpt lat="47.5253" lon="5.65739">
        <ele>190.90039</ele>
        <time>2026-05-16T10:22:36+02:00</time>
      </trkpt>
      <trkpt lat="47.52534" lon="5.65735">
        <ele>191</ele>
        <time>2026-05-16T10:22:37+02:00</time>
      </trkpt>
      <trkpt lat="47.52538" lon="5.6573">
        <ele>190.90039</ele>
        <time>2026-05-16T10:22:38+02:00</time>
      </trkpt>
      <trkpt lat="47.52543" lon="5.65726">
        <ele>191</ele>
        <time>2026-05-16T10:22:39+02:00</time>
      </trkpt>
      <trkpt lat="47.52547" lon="5.65721">
        <ele>190.90039</ele>
        <time>2026-05-16T10:22:40+02:00</time>
      </trkpt>
      <trkpt lat="47.52551" lon="5.65716">
        <ele>191</ele>
        <time>2026-05-16T10:22:41+02:00</time>
      </trkpt>
      <trkpt lat="47.52556" lon="5.65712">
        <ele>190.90039</ele>
        <time>2026-05-16T10:22:42+02:00</time>
      </trkpt>
      <trkpt lat="47.5256" lon="5.65707">
        <ele>191</ele>
        <time>2026-05-16T10:22:43+02:00</time>
      </trkpt>
      <trkpt lat="47.52564" lon="5.65702">
        <ele>191</ele>
        <time>2026-05-16T10:22:44+02:00</time>
      </trkpt>
      <trkpt lat="47.52569" lon="5.65698">
        <ele>191</ele>
        <time>2026-05-16T10:22:45+02:00</time>
      </trkpt>
      <trkpt lat="47.52573" lon="5.65693">
        <ele>191</ele>
        <time>2026-05-16T10:22:46+02:00</time>
      </trkpt>
      <trkpt lat="47.52577" lon="5.65688">
        <ele>191.10059</ele>
        <time>2026-05-16T10:22:47+02:00</time>
      </trkpt>
      <trkpt lat="47.52581" lon="5.65684">
        <ele>191.2002</ele>
        <time>2026-05-16T10:22:48+02:00</time>
      </trkpt>
      <trkpt lat="47.52586" lon="5.65679">
        <ele>191.2002</ele>
        <time>2026-05-16T10:22:49+02:00</time>
      </trkpt>
      <trkpt lat="47.5259" lon="5.65674">
        <ele>191.2002</ele>
        <time>2026-05-16T10:22:50+02:00</time>
      </trkpt>
      <trkpt lat="47.52594" lon="5.65669">
        <ele>191.2002</ele>
        <time>2026-05-16T10:22:51+02:00</time>
      </trkpt>
      <trkpt lat="47.52599" lon="5.65665">
        <ele>191.2998</ele>
        <time>2026-05-16T10:22:52+02:00</time>
      </trkpt>
      <trkpt lat="47.52603" lon="5.6566">
        <ele>191.2998</ele>
        <time>2026-05-16T10:22:53+02:00</time>
      </trkpt>
      <trkpt lat="47.52607" lon="5.65655">
        <ele>191.40039</ele>
        <time>2026-05-16T10:22:54+02:00</time>
      </trkpt>
      <trkpt lat="47.52612" lon="5.6565">
        <ele>191.40039</ele>
        <time>2026-05-16T10:22:55+02:00</time>
      </trkpt>
      <trkpt lat="47.52616" lon="5.65646">
        <ele>191.60059</ele>
        <time>2026-05-16T10:22:56+02:00</time>
      </trkpt>
      <trkpt lat="47.5262" lon="5.65641">
        <ele>191.7002</ele>
        <time>2026-05-16T10:22:57+02:00</time>
      </trkpt>
      <trkpt lat="47.52625" lon="5.65636">
        <ele>191.7998</ele>
        <time>2026-05-16T10:22:58+02:00</time>
      </trkpt>
      <trkpt lat="47.52629" lon="5.65632">
        <ele>191.90039</ele>
        <time>2026-05-16T10:22:59+02:00</time>
      </trkpt>
      <trkpt lat="47.52633" lon="5.65627">
        <ele>191.90039</ele>
        <time>2026-05-16T10:23:00+02:00</time>
      </trkpt>
      <trkpt lat="47.52638" lon="5.65622">
        <ele>192.10059</ele>
        <time>2026-05-16T10:23:01+02:00</time>
      </trkpt>
      <trkpt lat="47.52642" lon="5.65617">
        <ele>192.2002</ele>
        <time>2026-05-16T10:23:02+02:00</time>
      </trkpt>
      <trkpt lat="47.52646" lon="5.65613">
        <ele>192.40039</ele>
        <time>2026-05-16T10:23:03+02:00</time>
      </trkpt>
      <trkpt lat="47.52651" lon="5.65608">
        <ele>192.40039</ele>
        <time>2026-05-16T10:23:04+02:00</time>
      </trkpt>
      <trkpt lat="47.52655" lon="5.65603">
        <ele>192.60059</ele>
        <time>2026-05-16T10:23:05+02:00</time>
      </trkpt>
      <trkpt lat="47.52659" lon="5.65599">
        <ele>192.60059</ele>
        <time>2026-05-16T10:23:06+02:00</time>
      </trkpt>
      <trkpt lat="47.52664" lon="5.65594">
        <ele>192.7998</ele>
        <time>2026-05-16T10:23:07+02:00</time>
      </trkpt>
      <trkpt lat="47.52668" lon="5.6559">
        <ele>192.7998</ele>
        <time>2026-05-16T10:23:08+02:00</time>
      </trkpt>
      <trkpt lat="47.52673" lon="5.65585">
        <ele>192.90039</ele>
        <time>2026-05-16T10:23:09+02:00</time>
      </trkpt>
      <trkpt lat="47.52677" lon="5.6558">
        <ele>193</ele>
        <time>2026-05-16T10:23:10+02:00</time>
      </trkpt>
      <trkpt lat="47.52681" lon="5.65575">
        <ele>193</ele>
        <time>2026-05-16T10:23:11+02:00</time>
      </trkpt>
      <trkpt lat="47.52685" lon="5.6557">
        <ele>193.10059</ele>
        <time>2026-05-16T10:23:12+02:00</time>
      </trkpt>
      <trkpt lat="47.5269" lon="5.65566">
        <ele>193</ele>
        <time>2026-05-16T10:23:13+02:00</time>
      </trkpt>
      <trkpt lat="47.52694" lon="5.65561">
        <ele>193.10059</ele>
        <time>2026-05-16T10:23:14+02:00</time>
      </trkpt>
      <trkpt lat="47.52699" lon="5.65556">
        <ele>193.10059</ele>
        <time>2026-05-16T10:23:15+02:00</time>
      </trkpt>
      <trkpt lat="47.52703" lon="5.65551">
        <ele>193.10059</ele>
        <time>2026-05-16T10:23:16+02:00</time>
      </trkpt>
      <trkpt lat="47.52707" lon="5.65547">
        <ele>193.10059</ele>
        <time>2026-05-16T10:23:17+02:00</time>
      </trkpt>
      <trkpt lat="47.52712" lon="5.65542">
        <ele>193.10059</ele>
        <time>2026-05-16T10:23:18+02:00</time>
      </trkpt>
      <trkpt lat="47.52716" lon="5.65537">
        <ele>193.2002</ele>
        <time>2026-05-16T10:23:19+02:00</time>
      </trkpt>
      <trkpt lat="47.52721" lon="5.65532">
        <ele>193.10059</ele>
        <time>2026-05-16T10:23:20+02:00</time>
      </trkpt>
      <trkpt lat="47.52725" lon="5.65526">
        <ele>193.2002</ele>
        <time>2026-05-16T10:23:21+02:00</time>
      </trkpt>
      <trkpt lat="47.5273" lon="5.65521">
        <ele>193.2002</ele>
        <time>2026-05-16T10:23:22+02:00</time>
      </trkpt>
      <trkpt lat="47.52734" lon="5.65517">
        <ele>193.2002</ele>
        <time>2026-05-16T10:23:23+02:00</time>
      </trkpt>
      <trkpt lat="47.52738" lon="5.65512">
        <ele>193.2002</ele>
        <time>2026-05-16T10:23:24+02:00</time>
      </trkpt>
      <trkpt lat="47.52743" lon="5.65507">
        <ele>193.10059</ele>
        <time>2026-05-16T10:23:25+02:00</time>
      </trkpt>
      <trkpt lat="47.52747" lon="5.65502">
        <ele>193.10059</ele>
        <time>2026-05-16T10:23:26+02:00</time>
      </trkpt>
      <trkpt lat="47.52752" lon="5.65497">
        <ele>193.10059</ele>
        <time>2026-05-16T10:23:27+02:00</time>
      </trkpt>
      <trkpt lat="47.52756" lon="5.65493">
        <ele>193.10059</ele>
        <time>2026-05-16T10:23:28+02:00</time>
      </trkpt>
      <trkpt lat="47.5276" lon="5.65488">
        <ele>193</ele>
        <time>2026-05-16T10:23:29+02:00</time>
      </trkpt>
      <trkpt lat="47.52765" lon="5.65483">
        <ele>193</ele>
        <time>2026-05-16T10:23:30+02:00</time>
      </trkpt>
      <trkpt lat="47.52769" lon="5.65479">
        <ele>193</ele>
        <time>2026-05-16T10:23:31+02:00</time>
      </trkpt>
      <trkpt lat="47.52773" lon="5.65474">
        <ele>193</ele>
        <time>2026-05-16T10:23:32+02:00</time>
      </trkpt>
      <trkpt lat="47.52777" lon="5.6547">
        <ele>193</ele>
        <time>2026-05-16T10:23:33+02:00</time>
      </trkpt>
      <trkpt lat="47.52782" lon="5.65465">
        <ele>193</ele>
        <time>2026-05-16T10:23:34+02:00</time>
      </trkpt>
      <trkpt lat="47.52786" lon="5.65461">
        <ele>193</ele>
        <time>2026-05-16T10:23:35+02:00</time>
      </trkpt>
      <trkpt lat="47.52791" lon="5.65456">
        <ele>193</ele>
        <time>2026-05-16T10:23:36+02:00</time>
      </trkpt>
      <trkpt lat="47.52795" lon="5.65451">
        <ele>193</ele>
        <time>2026-05-16T10:23:37+02:00</time>
      </trkpt>
      <trkpt lat="47.528" lon="5.65446">
        <ele>193</ele>
        <time>2026-05-16T10:23:38+02:00</time>
      </trkpt>
      <trkpt lat="47.52804" lon="5.65441">
        <ele>193</ele>
        <time>2026-05-16T10:23:39+02:00</time>
      </trkpt>
      <trkpt lat="47.52809" lon="5.65437">
        <ele>193</ele>
        <time>2026-05-16T10:23:40+02:00</time>
      </trkpt>
      <trkpt lat="47.52813" lon="5.65432">
        <ele>193.10059</ele>
        <time>2026-05-16T10:23:41+02:00</time>
      </trkpt>
      <trkpt lat="47.52817" lon="5.65427">
        <ele>193.10059</ele>
        <time>2026-05-16T10:23:42+02:00</time>
      </trkpt>
      <trkpt lat="47.52822" lon="5.65423">
        <ele>193.2002</ele>
        <time>2026-05-16T10:23:43+02:00</time>
      </trkpt>
      <trkpt lat="47.52826" lon="5.65418">
        <ele>193.2998</ele>
        <time>2026-05-16T10:23:44+02:00</time>
      </trkpt>
      <trkpt lat="47.52831" lon="5.65414">
        <ele>193.2998</ele>
        <time>2026-05-16T10:23:45+02:00</time>
      </trkpt>
      <trkpt lat="47.52836" lon="5.65409">
        <ele>193.60059</ele>
        <time>2026-05-16T10:23:46+02:00</time>
      </trkpt>
      <trkpt lat="47.5284" lon="5.65405">
        <ele>193.7002</ele>
        <time>2026-05-16T10:23:47+02:00</time>
      </trkpt>
      <trkpt lat="47.52845" lon="5.65401">
        <ele>194.10059</ele>
        <time>2026-05-16T10:23:48+02:00</time>
      </trkpt>
      <trkpt lat="47.5285" lon="5.65397">
        <ele>194.10059</ele>
        <time>2026-05-16T10:23:49+02:00</time>
      </trkpt>
      <trkpt lat="47.52855" lon="5.65393">
        <ele>194.2998</ele>
        <time>2026-05-16T10:23:50+02:00</time>
      </trkpt>
      <trkpt lat="47.5286" lon="5.6539">
        <ele>194.7998</ele>
        <time>2026-05-16T10:23:51+02:00</time>
      </trkpt>
      <trkpt lat="47.52865" lon="5.65387">
        <ele>194.90039</ele>
        <time>2026-05-16T10:23:52+02:00</time>
      </trkpt>
      <trkpt lat="47.5287" lon="5.65383">
        <ele>194.60059</ele>
        <time>2026-05-16T10:23:53+02:00</time>
      </trkpt>
      <trkpt lat="47.52875" lon="5.6538">
        <ele>194.60059</ele>
        <time>2026-05-16T10:23:54+02:00</time>
      </trkpt>
      <trkpt lat="47.52881" lon="5.65378">
        <ele>194.7998</ele>
        <time>2026-05-16T10:23:55+02:00</time>
      </trkpt>
      <trkpt lat="47.52886" lon="5.65375">
        <ele>193.60059</ele>
        <time>2026-05-16T10:23:56+02:00</time>
      </trkpt>
      <trkpt lat="47.52891" lon="5.65373">
        <ele>193.7002</ele>
        <time>2026-05-16T10:23:57+02:00</time>
      </trkpt>
      <trkpt lat="47.52896" lon="5.65371">
        <ele>193.7002</ele>
        <time>2026-05-16T10:23:58+02:00</time>
      </trkpt>
      <trkpt lat="47.52901" lon="5.6537">
        <ele>193.90039</ele>
        <time>2026-05-16T10:23:59+02:00</time>
      </trkpt>
      <trkpt lat="47.52906" lon="5.6537">
        <ele>194</ele>
        <time>2026-05-16T10:24:00+02:00</time>
      </trkpt>
      <trkpt lat="47.52911" lon="5.65371">
        <ele>194.2002</ele>
        <time>2026-05-16T10:24:01+02:00</time>
      </trkpt>
      <trkpt lat="47.52916" lon="5.65373">
        <ele>194.40039</ele>
        <time>2026-05-16T10:24:02+02:00</time>
      </trkpt>
      <trkpt lat="47.52921" lon="5.65376">
        <ele>196.7998</ele>
        <time>2026-05-16T10:24:03+02:00</time>
      </trkpt>
      <trkpt lat="47.52926" lon="5.65378">
        <ele>197.2002</ele>
        <time>2026-05-16T10:24:04+02:00</time>
      </trkpt>
      <trkpt lat="47.52931" lon="5.65381">
        <ele>197.2002</ele>
        <time>2026-05-16T10:24:05+02:00</time>
      </trkpt>
      <trkpt lat="47.52936" lon="5.65383">
        <ele>197.2998</ele>
        <time>2026-05-16T10:24:06+02:00</time>
      </trkpt>
      <trkpt lat="47.52941" lon="5.65386">
        <ele>197.90039</ele>
        <time>2026-05-16T10:24:07+02:00</time>
      </trkpt>
      <trkpt lat="47.52947" lon="5.65388">
        <ele>196.60059</ele>
        <time>2026-05-16T10:24:08+02:00</time>
      </trkpt>
      <trkpt lat="47.52952" lon="5.6539">
        <ele>194.60059</ele>
        <time>2026-05-16T10:24:09+02:00</time>
      </trkpt>
      <trkpt lat="47.52957" lon="5.65392">
        <ele>192.7002</ele>
        <time>2026-05-16T10:24:10+02:00</time>
      </trkpt>
      <trkpt lat="47.52963" lon="5.65395">
        <ele>192.90039</ele>
        <time>2026-05-16T10:24:11+02:00</time>
      </trkpt>
      <trkpt lat="47.52968" lon="5.65397">
        <ele>192.5</ele>
        <time>2026-05-16T10:24:12+02:00</time>
      </trkpt>
      <trkpt lat="47.52973" lon="5.65399">
        <ele>192.2002</ele>
        <time>2026-05-16T10:24:13+02:00</time>
      </trkpt>
      <trkpt lat="47.52979" lon="5.65402">
        <ele>193</ele>
        <time>2026-05-16T10:24:14+02:00</time>
      </trkpt>
      <trkpt lat="47.52984" lon="5.65404">
        <ele>192.5</ele>
        <time>2026-05-16T10:24:15+02:00</time>
      </trkpt>
      <trkpt lat="47.52989" lon="5.65407">
        <ele>192.5</ele>
        <time>2026-05-16T10:24:16+02:00</time>
      </trkpt>
      <trkpt lat="47.52995" lon="5.65409">
        <ele>191.90039</ele>
        <time>2026-05-16T10:24:17+02:00</time>
      </trkpt>
      <trkpt lat="47.53" lon="5.65412">
        <ele>191.7002</ele>
        <time>2026-05-16T10:24:18+02:00</time>
      </trkpt>
      <trkpt lat="47.53005" lon="5.65415">
        <ele>190.90039</ele>
        <time>2026-05-16T10:24:19+02:00</time>
      </trkpt>
      <trkpt lat="47.53011" lon="5.65417">
        <ele>190.5</ele>
        <time>2026-05-16T10:24:20+02:00</time>
      </trkpt>
      <trkpt lat="47.53016" lon="5.6542">
        <ele>190.7998</ele>
        <time>2026-05-16T10:24:21+02:00</time>
      </trkpt>
      <trkpt lat="47.53021" lon="5.65423">
        <ele>190.5</ele>
        <time>2026-05-16T10:24:22+02:00</time>
      </trkpt>
      <trkpt lat="47.53027" lon="5.65426">
        <ele>190.2998</ele>
        <time>2026-05-16T10:24:23+02:00</time>
      </trkpt>
      <trkpt lat="47.53032" lon="5.65429">
        <ele>190.7002</ele>
        <time>2026-05-16T10:24:24+02:00</time>
      </trkpt>
      <trkpt lat="47.53037" lon="5.65432">
        <ele>190.2002</ele>
        <time>2026-05-16T10:24:25+02:00</time>
      </trkpt>
      <trkpt lat="47.53042" lon="5.65435">
        <ele>189.5</ele>
        <time>2026-05-16T10:24:26+02:00</time>
      </trkpt>
      <trkpt lat="47.53048" lon="5.65439">
        <ele>188.7998</ele>
        <time>2026-05-16T10:24:27+02:00</time>
      </trkpt>
      <trkpt lat="47.53053" lon="5.65442">
        <ele>188.7998</ele>
        <time>2026-05-16T10:24:28+02:00</time>
      </trkpt>
      <trkpt lat="47.53058" lon="5.65445">
        <ele>188.90039</ele>
        <time>2026-05-16T10:24:29+02:00</time>
      </trkpt>
      <trkpt lat="47.53063" lon="5.65448">
        <ele>189.2002</ele>
        <time>2026-05-16T10:24:30+02:00</time>
      </trkpt>
      <trkpt lat="47.53068" lon="5.65452">
        <ele>189.60059</ele>
        <time>2026-05-16T10:24:31+02:00</time>
      </trkpt>
      <trkpt lat="47.53073" lon="5.65455">
        <ele>190.90039</ele>
        <time>2026-05-16T10:24:32+02:00</time>
      </trkpt>
      <trkpt lat="47.53079" lon="5.65459">
        <ele>190.7998</ele>
        <time>2026-05-16T10:24:33+02:00</time>
      </trkpt>
      <trkpt lat="47.53084" lon="5.65462">
        <ele>191.2002</ele>
        <time>2026-05-16T10:24:34+02:00</time>
      </trkpt>
      <trkpt lat="47.53089" lon="5.65465">
        <ele>190.2998</ele>
        <time>2026-05-16T10:24:35+02:00</time>
      </trkpt>
      <trkpt lat="47.53094" lon="5.65469">
        <ele>189.60059</ele>
        <time>2026-05-16T10:24:36+02:00</time>
      </trkpt>
      <trkpt lat="47.53099" lon="5.65472">
        <ele>189.7998</ele>
        <time>2026-05-16T10:24:37+02:00</time>
      </trkpt>
      <trkpt lat="47.53104" lon="5.65475">
        <ele>189.60059</ele>
        <time>2026-05-16T10:24:38+02:00</time>
      </trkpt>
      <trkpt lat="47.53109" lon="5.65479">
        <ele>190.10059</ele>
        <time>2026-05-16T10:24:39+02:00</time>
      </trkpt>
      <trkpt lat="47.53114" lon="5.65482">
        <ele>190</ele>
        <time>2026-05-16T10:24:40+02:00</time>
      </trkpt>
      <trkpt lat="47.53119" lon="5.65486">
        <ele>189.90039</ele>
        <time>2026-05-16T10:24:41+02:00</time>
      </trkpt>
      <trkpt lat="47.53125" lon="5.65489">
        <ele>190</ele>
        <time>2026-05-16T10:24:42+02:00</time>
      </trkpt>
      <trkpt lat="47.5313" lon="5.65493">
        <ele>189.60059</ele>
        <time>2026-05-16T10:24:43+02:00</time>
      </trkpt>
      <trkpt lat="47.53135" lon="5.65497">
        <ele>189.5</ele>
        <time>2026-05-16T10:24:44+02:00</time>
      </trkpt>
      <trkpt lat="47.5314" lon="5.655">
        <ele>189.5</ele>
        <time>2026-05-16T10:24:45+02:00</time>
      </trkpt>
      <trkpt lat="47.53145" lon="5.65504">
        <ele>189.2002</ele>
        <time>2026-05-16T10:24:46+02:00</time>
      </trkpt>
      <trkpt lat="47.5315" lon="5.65508">
        <ele>189.2998</ele>
        <time>2026-05-16T10:24:47+02:00</time>
      </trkpt>
      <trkpt lat="47.53155" lon="5.65512">
        <ele>189.5</ele>
        <time>2026-05-16T10:24:48+02:00</time>
      </trkpt>
      <trkpt lat="47.5316" lon="5.65516">
        <ele>190.60059</ele>
        <time>2026-05-16T10:24:49+02:00</time>
      </trkpt>
      <trkpt lat="47.53165" lon="5.6552">
        <ele>190.7002</ele>
        <time>2026-05-16T10:24:50+02:00</time>
      </trkpt>
      <trkpt lat="47.5317" lon="5.65524">
        <ele>191.5</ele>
        <time>2026-05-16T10:24:51+02:00</time>
      </trkpt>
      <trkpt lat="47.53175" lon="5.65528">
        <ele>190.90039</ele>
        <time>2026-05-16T10:24:52+02:00</time>
      </trkpt>
      <trkpt lat="47.5318" lon="5.65532">
        <ele>191.5</ele>
        <time>2026-05-16T10:24:53+02:00</time>
      </trkpt>
      <trkpt lat="47.53185" lon="5.65536">
        <ele>190.40039</ele>
        <time>2026-05-16T10:24:54+02:00</time>
      </trkpt>
      <trkpt lat="47.5319" lon="5.6554">
        <ele>191.2002</ele>
        <time>2026-05-16T10:24:55+02:00</time>
      </trkpt>
      <trkpt lat="47.53195" lon="5.65544">
        <ele>191.2002</ele>
        <time>2026-05-16T10:24:56+02:00</time>
      </trkpt>
      <trkpt lat="47.532" lon="5.65548">
        <ele>193.10059</ele>
        <time>2026-05-16T10:24:57+02:00</time>
      </trkpt>
      <trkpt lat="47.53204" lon="5.65552">
        <ele>192.90039</ele>
        <time>2026-05-16T10:24:58+02:00</time>
      </trkpt>
      <trkpt lat="47.53209" lon="5.65556">
        <ele>194.2998</ele>
        <time>2026-05-16T10:24:59+02:00</time>
      </trkpt>
      <trkpt lat="47.53214" lon="5.65561">
        <ele>193.7002</ele>
        <time>2026-05-16T10:25:00+02:00</time>
      </trkpt>
      <trkpt lat="47.53219" lon="5.65565">
        <ele>194.7002</ele>
        <time>2026-05-16T10:25:01+02:00</time>
      </trkpt>
      <trkpt lat="47.53223" lon="5.65569">
        <ele>194.90039</ele>
        <time>2026-05-16T10:25:02+02:00</time>
      </trkpt>
      <trkpt lat="47.53228" lon="5.65574">
        <ele>198.2998</ele>
        <time>2026-05-16T10:25:03+02:00</time>
      </trkpt>
      <trkpt lat="47.53232" lon="5.65579">
        <ele>198.2998</ele>
        <time>2026-05-16T10:25:04+02:00</time>
      </trkpt>
      <trkpt lat="47.53237" lon="5.65584">
        <ele>202.2002</ele>
        <time>2026-05-16T10:25:05+02:00</time>
      </trkpt>
      <trkpt lat="47.53241" lon="5.65588">
        <ele>201.90039</ele>
        <time>2026-05-16T10:25:06+02:00</time>
      </trkpt>
      <trkpt lat="47.53246" lon="5.65593">
        <ele>203.10059</ele>
        <time>2026-05-16T10:25:07+02:00</time>
      </trkpt>
      <trkpt lat="47.5325" lon="5.65598">
        <ele>203.10059</ele>
        <time>2026-05-16T10:25:08+02:00</time>
      </trkpt>
      <trkpt lat="47.53255" lon="5.65603">
        <ele>202</ele>
        <time>2026-05-16T10:25:09+02:00</time>
      </trkpt>
      <trkpt lat="47.53259" lon="5.65607">
        <ele>200.5</ele>
        <time>2026-05-16T10:25:10+02:00</time>
      </trkpt>
      <trkpt lat="47.53264" lon="5.65612">
        <ele>199.90039</ele>
        <time>2026-05-16T10:25:11+02:00</time>
      </trkpt>
      <trkpt lat="47.53269" lon="5.65618">
        <ele>199.5</ele>
        <time>2026-05-16T10:25:12+02:00</time>
      </trkpt>
      <trkpt lat="47.53273" lon="5.65623">
        <ele>199.5</ele>
        <time>2026-05-16T10:25:13+02:00</time>
      </trkpt>
      <trkpt lat="47.53277" lon="5.65628">
        <ele>197.7002</ele>
        <time>2026-05-16T10:25:14+02:00</time>
      </trkpt>
      <trkpt lat="47.53282" lon="5.65633">
        <ele>196.90039</ele>
        <time>2026-05-16T10:25:15+02:00</time>
      </trkpt>
      <trkpt lat="47.53286" lon="5.65638">
        <ele>196.10059</ele>
        <time>2026-05-16T10:25:16+02:00</time>
      </trkpt>
      <trkpt lat="47.53291" lon="5.65643">
        <ele>195.7002</ele>
        <time>2026-05-16T10:25:17+02:00</time>
      </trkpt>
      <trkpt lat="47.53295" lon="5.65648">
        <ele>195.7002</ele>
        <time>2026-05-16T10:25:18+02:00</time>
      </trkpt>
      <trkpt lat="47.53299" lon="5.65652">
        <ele>195.40039</ele>
        <time>2026-05-16T10:25:19+02:00</time>
      </trkpt>
      <trkpt lat="47.53304" lon="5.65657">
        <ele>194.5</ele>
        <time>2026-05-16T10:25:20+02:00</time>
      </trkpt>
      <trkpt lat="47.53308" lon="5.65662">
        <ele>195.2002</ele>
        <time>2026-05-16T10:25:21+02:00</time>
      </trkpt>
      <trkpt lat="47.53312" lon="5.65666">
        <ele>194.7998</ele>
        <time>2026-05-16T10:25:22+02:00</time>
      </trkpt>
      <trkpt lat="47.53316" lon="5.65671">
        <ele>196.10059</ele>
        <time>2026-05-16T10:25:23+02:00</time>
      </trkpt>
      <trkpt lat="47.5332" lon="5.65676">
        <ele>197.7002</ele>
        <time>2026-05-16T10:25:24+02:00</time>
      </trkpt>
      <trkpt lat="47.53324" lon="5.6568">
        <ele>197.7002</ele>
        <time>2026-05-16T10:25:25+02:00</time>
      </trkpt>
      <trkpt lat="47.53328" lon="5.65685">
        <ele>198.60059</ele>
        <time>2026-05-16T10:25:26+02:00</time>
      </trkpt>
      <trkpt lat="47.53333" lon="5.6569">
        <ele>198.10059</ele>
        <time>2026-05-16T10:25:27+02:00</time>
      </trkpt>
      <trkpt lat="47.53337" lon="5.65696">
        <ele>198.7998</ele>
        <time>2026-05-16T10:25:28+02:00</time>
      </trkpt>
      <trkpt lat="47.53341" lon="5.65702">
        <ele>199.40039</ele>
        <time>2026-05-16T10:25:29+02:00</time>
      </trkpt>
      <trkpt lat="47.53344" lon="5.65707">
        <ele>199.5</ele>
        <time>2026-05-16T10:25:30+02:00</time>
      </trkpt>
      <trkpt lat="47.53348" lon="5.65713">
        <ele>200.60059</ele>
        <time>2026-05-16T10:25:31+02:00</time>
      </trkpt>
      <trkpt lat="47.53352" lon="5.65719">
        <ele>201.2998</ele>
        <time>2026-05-16T10:25:32+02:00</time>
      </trkpt>
      <trkpt lat="47.53356" lon="5.65724">
        <ele>201.2002</ele>
        <time>2026-05-16T10:25:33+02:00</time>
      </trkpt>
      <trkpt lat="47.5336" lon="5.65729">
        <ele>200.2998</ele>
        <time>2026-05-16T10:25:34+02:00</time>
      </trkpt>
      <trkpt lat="47.53364" lon="5.65735">
        <ele>199.2998</ele>
        <time>2026-05-16T10:25:35+02:00</time>
      </trkpt>
      <trkpt lat="47.53367" lon="5.65741">
        <ele>196.2998</ele>
        <time>2026-05-16T10:25:36+02:00</time>
      </trkpt>
      <trkpt lat="47.5337" lon="5.65747">
        <ele>195.7002</ele>
        <time>2026-05-16T10:25:37+02:00</time>
      </trkpt>
      <trkpt lat="47.53374" lon="5.65752">
        <ele>194.2002</ele>
        <time>2026-05-16T10:25:38+02:00</time>
      </trkpt>
      <trkpt lat="47.53378" lon="5.65758">
        <ele>194.2002</ele>
        <time>2026-05-16T10:25:39+02:00</time>
      </trkpt>
      <trkpt lat="47.53382" lon="5.65764">
        <ele>195.90039</ele>
        <time>2026-05-16T10:25:40+02:00</time>
      </trkpt>
      <trkpt lat="47.53385" lon="5.6577">
        <ele>195.2002</ele>
        <time>2026-05-16T10:25:41+02:00</time>
      </trkpt>
      <trkpt lat="47.53389" lon="5.65776">
        <ele>196.90039</ele>
        <time>2026-05-16T10:25:42+02:00</time>
      </trkpt>
      <trkpt lat="47.53393" lon="5.65782">
        <ele>195.7002</ele>
        <time>2026-05-16T10:25:43+02:00</time>
      </trkpt>
      <trkpt lat="47.53396" lon="5.65789">
        <ele>193.7002</ele>
        <time>2026-05-16T10:25:44+02:00</time>
      </trkpt>
      <trkpt lat="47.53399" lon="5.65795">
        <ele>193.7002</ele>
        <time>2026-05-16T10:25:45+02:00</time>
      </trkpt>
      <trkpt lat="47.53402" lon="5.65801">
        <ele>192.40039</ele>
        <time>2026-05-16T10:25:46+02:00</time>
      </trkpt>
      <trkpt lat="47.53406" lon="5.65808">
        <ele>192.7998</ele>
        <time>2026-05-16T10:25:47+02:00</time>
      </trkpt>
      <trkpt lat="47.53409" lon="5.65814">
        <ele>192.7002</ele>
        <time>2026-05-16T10:25:48+02:00</time>
      </trkpt>
      <trkpt lat="47.53413" lon="5.65821">
        <ele>192</ele>
        <time>2026-05-16T10:25:49+02:00</time>
      </trkpt>
      <trkpt lat="47.53416" lon="5.65827">
        <ele>193</ele>
        <time>2026-05-16T10:25:50+02:00</time>
      </trkpt>
      <trkpt lat="47.53419" lon="5.65834">
        <ele>192.7002</ele>
        <time>2026-05-16T10:25:51+02:00</time>
      </trkpt>
      <trkpt lat="47.53422" lon="5.65841">
        <ele>193.10059</ele>
        <time>2026-05-16T10:25:52+02:00</time>
      </trkpt>
      <trkpt lat="47.53425" lon="5.65848">
        <ele>191.40039</ele>
        <time>2026-05-16T10:25:53+02:00</time>
      </trkpt>
      <trkpt lat="47.53428" lon="5.65855">
        <ele>191.40039</ele>
        <time>2026-05-16T10:25:54+02:00</time>
      </trkpt>
      <trkpt lat="47.5343" lon="5.65862">
        <ele>190.40039</ele>
        <time>2026-05-16T10:25:55+02:00</time>
      </trkpt>
      <trkpt lat="47.53433" lon="5.65869">
        <ele>190.2002</ele>
        <time>2026-05-16T10:25:56+02:00</time>
      </trkpt>
      <trkpt lat="47.53436" lon="5.65876">
        <ele>190</ele>
        <time>2026-05-16T10:25:57+02:00</time>
      </trkpt>
      <trkpt lat="47.53439" lon="5.65883">
        <ele>191</ele>
        <time>2026-05-16T10:25:58+02:00</time>
      </trkpt>
      <trkpt lat="47.53442" lon="5.6589">
        <ele>190.7002</ele>
        <time>2026-05-16T10:25:59+02:00</time>
      </trkpt>
      <trkpt lat="47.53445" lon="5.65897">
        <ele>191.7998</ele>
        <time>2026-05-16T10:26:00+02:00</time>
      </trkpt>
      <trkpt lat="47.53447" lon="5.65904">
        <ele>193.2998</ele>
        <time>2026-05-16T10:26:01+02:00</time>
      </trkpt>
      <trkpt lat="47.5345" lon="5.65911">
        <ele>191.7998</ele>
        <time>2026-05-16T10:26:02+02:00</time>
      </trkpt>
      <trkpt lat="47.53452" lon="5.65919">
        <ele>192.10059</ele>
        <time>2026-05-16T10:26:03+02:00</time>
      </trkpt>
      <trkpt lat="47.53454" lon="5.65927">
        <ele>190.90039</ele>
        <time>2026-05-16T10:26:04+02:00</time>
      </trkpt>
      <trkpt lat="47.53455" lon="5.65934">
        <ele>191.10059</ele>
        <time>2026-05-16T10:26:05+02:00</time>
      </trkpt>
      <trkpt lat="47.53457" lon="5.65942">
        <ele>191.2002</ele>
        <time>2026-05-16T10:26:06+02:00</time>
      </trkpt>
      <trkpt lat="47.53459" lon="5.6595">
        <ele>190.5</ele>
        <time>2026-05-16T10:26:07+02:00</time>
      </trkpt>
      <trkpt lat="47.5346" lon="5.65958">
        <ele>190.5</ele>
        <time>2026-05-16T10:26:08+02:00</time>
      </trkpt>
      <trkpt lat="47.53462" lon="5.65966">
        <ele>190.40039</ele>
        <time>2026-05-16T10:26:09+02:00</time>
      </trkpt>
      <trkpt lat="47.53463" lon="5.65974">
        <ele>190.40039</ele>
        <time>2026-05-16T10:26:10+02:00</time>
      </trkpt>
      <trkpt lat="47.53463" lon="5.65982">
        <ele>190.2998</ele>
        <time>2026-05-16T10:26:11+02:00</time>
      </trkpt>
      <trkpt lat="47.53463" lon="5.6599">
        <ele>190.2998</ele>
        <time>2026-05-16T10:26:12+02:00</time>
      </trkpt>
      <trkpt lat="47.53463" lon="5.65997">
        <ele>190.2002</ele>
        <time>2026-05-16T10:26:13+02:00</time>
      </trkpt>
      <trkpt lat="47.53463" lon="5.66006">
        <ele>190.10059</ele>
        <time>2026-05-16T10:26:14+02:00</time>
      </trkpt>
      <trkpt lat="47.53462" lon="5.66014">
        <ele>190.10059</ele>
        <time>2026-05-16T10:26:15+02:00</time>
      </trkpt>
      <trkpt lat="47.53462" lon="5.66022">
        <ele>190.10059</ele>
        <time>2026-05-16T10:26:16+02:00</time>
      </trkpt>
      <trkpt lat="47.53461" lon="5.6603">
        <ele>190.10059</ele>
        <time>2026-05-16T10:26:17+02:00</time>
      </trkpt>
      <trkpt lat="47.5346" lon="5.66038">
        <ele>190.10059</ele>
        <time>2026-05-16T10:26:18+02:00</time>
      </trkpt>
      <trkpt lat="47.5346" lon="5.66046">
        <ele>190.10059</ele>
        <time>2026-05-16T10:26:19+02:00</time>
      </trkpt>
      <trkpt lat="47.53459" lon="5.66054">
        <ele>190.10059</ele>
        <time>2026-05-16T10:26:20+02:00</time>
      </trkpt>
      <trkpt lat="47.53458" lon="5.66062">
        <ele>191.10059</ele>
        <time>2026-05-16T10:26:21+02:00</time>
      </trkpt>
      <trkpt lat="47.53457" lon="5.6607">
        <ele>191.10059</ele>
        <time>2026-05-16T10:26:22+02:00</time>
      </trkpt>
      <trkpt lat="47.53457" lon="5.66078">
        <ele>191.10059</ele>
        <time>2026-05-16T10:26:23+02:00</time>
      </trkpt>
      <trkpt lat="47.53456" lon="5.66086">
        <ele>191.10059</ele>
        <time>2026-05-16T10:26:24+02:00</time>
      </trkpt>
      <trkpt lat="47.53455" lon="5.66094">
        <ele>191.2002</ele>
        <time>2026-05-16T10:26:25+02:00</time>
      </trkpt>
      <trkpt lat="47.53454" lon="5.66102">
        <ele>191.2998</ele>
        <time>2026-05-16T10:26:26+02:00</time>
      </trkpt>
      <trkpt lat="47.53453" lon="5.6611">
        <ele>191.2998</ele>
        <time>2026-05-16T10:26:27+02:00</time>
      </trkpt>
      <trkpt lat="47.53452" lon="5.66119">
        <ele>192.7002</ele>
        <time>2026-05-16T10:26:28+02:00</time>
      </trkpt>
      <trkpt lat="47.53452" lon="5.66127">
        <ele>192.7002</ele>
        <time>2026-05-16T10:26:29+02:00</time>
      </trkpt>
      <trkpt lat="47.53451" lon="5.66134">
        <ele>192.7002</ele>
        <time>2026-05-16T10:26:30+02:00</time>
      </trkpt>
      <trkpt lat="47.5345" lon="5.66142">
        <ele>192.7002</ele>
        <time>2026-05-16T10:26:31+02:00</time>
      </trkpt>
      <trkpt lat="47.5345" lon="5.6615">
        <ele>192.2002</ele>
        <time>2026-05-16T10:26:32+02:00</time>
      </trkpt>
      <trkpt lat="47.53449" lon="5.66158">
        <ele>191.5</ele>
        <time>2026-05-16T10:26:33+02:00</time>
      </trkpt>
      <trkpt lat="47.53448" lon="5.66166">
        <ele>190.90039</ele>
        <time>2026-05-16T10:26:34+02:00</time>
      </trkpt>
      <trkpt lat="47.53447" lon="5.66175">
        <ele>191</ele>
        <time>2026-05-16T10:26:35+02:00</time>
      </trkpt>
      <trkpt lat="47.53446" lon="5.66183">
        <ele>190.7002</ele>
        <time>2026-05-16T10:26:36+02:00</time>
      </trkpt>
      <trkpt lat="47.53445" lon="5.6619">
        <ele>190.7002</ele>
        <time>2026-05-16T10:26:37+02:00</time>
      </trkpt>
      <trkpt lat="47.53444" lon="5.66198">
        <ele>190.5</ele>
        <time>2026-05-16T10:26:38+02:00</time>
      </trkpt>
      <trkpt lat="47.53443" lon="5.66206">
        <ele>190.2998</ele>
        <time>2026-05-16T10:26:39+02:00</time>
      </trkpt>
      <trkpt lat="47.53443" lon="5.66214">
        <ele>190.2002</ele>
        <time>2026-05-16T10:26:40+02:00</time>
      </trkpt>
      <trkpt lat="47.53442" lon="5.66222">
        <ele>190.10059</ele>
        <time>2026-05-16T10:26:41+02:00</time>
      </trkpt>
      <trkpt lat="47.53441" lon="5.6623">
        <ele>190.5</ele>
        <time>2026-05-16T10:26:42+02:00</time>
      </trkpt>
      <trkpt lat="47.5344" lon="5.66238">
        <ele>190.40039</ele>
        <time>2026-05-16T10:26:43+02:00</time>
      </trkpt>
      <trkpt lat="47.53439" lon="5.66245">
        <ele>190.40039</ele>
        <time>2026-05-16T10:26:44+02:00</time>
      </trkpt>
      <trkpt lat="47.53438" lon="5.66254">
        <ele>190.2998</ele>
        <time>2026-05-16T10:26:45+02:00</time>
      </trkpt>
      <trkpt lat="47.53436" lon="5.66262">
        <ele>190.2998</ele>
        <time>2026-05-16T10:26:46+02:00</time>
      </trkpt>
      <trkpt lat="47.53435" lon="5.6627">
        <ele>190.90039</ele>
        <time>2026-05-16T10:26:47+02:00</time>
      </trkpt>
      <trkpt lat="47.53435" lon="5.66278">
        <ele>190.90039</ele>
        <time>2026-05-16T10:26:48+02:00</time>
      </trkpt>
      <trkpt lat="47.53434" lon="5.66285">
        <ele>190.90039</ele>
        <time>2026-05-16T10:26:49+02:00</time>
      </trkpt>
      <trkpt lat="47.53433" lon="5.66293">
        <ele>190.7998</ele>
        <time>2026-05-16T10:26:50+02:00</time>
      </trkpt>
      <trkpt lat="47.53432" lon="5.66302">
        <ele>190.7002</ele>
        <time>2026-05-16T10:26:51+02:00</time>
      </trkpt>
      <trkpt lat="47.53431" lon="5.6631">
        <ele>190.7002</ele>
        <time>2026-05-16T10:26:52+02:00</time>
      </trkpt>
      <trkpt lat="47.53431" lon="5.66318">
        <ele>190.60059</ele>
        <time>2026-05-16T10:26:53+02:00</time>
      </trkpt>
      <trkpt lat="47.53431" lon="5.66326">
        <ele>190.5</ele>
        <time>2026-05-16T10:26:54+02:00</time>
      </trkpt>
      <trkpt lat="47.53431" lon="5.66335">
        <ele>190.40039</ele>
        <time>2026-05-16T10:26:55+02:00</time>
      </trkpt>
      <trkpt lat="47.53431" lon="5.66342">
        <ele>190.2998</ele>
        <time>2026-05-16T10:26:56+02:00</time>
      </trkpt>
      <trkpt lat="47.53432" lon="5.6635">
        <ele>190.2998</ele>
        <time>2026-05-16T10:26:57+02:00</time>
      </trkpt>
      <trkpt lat="47.53432" lon="5.66358">
        <ele>190.2002</ele>
        <time>2026-05-16T10:26:58+02:00</time>
      </trkpt>
      <trkpt lat="47.53433" lon="5.66366">
        <ele>190.10059</ele>
        <time>2026-05-16T10:26:59+02:00</time>
      </trkpt>
      <trkpt lat="47.53433" lon="5.66374">
        <ele>190.10059</ele>
        <time>2026-05-16T10:27:00+02:00</time>
      </trkpt>
      <trkpt lat="47.53433" lon="5.66382">
        <ele>190</ele>
        <time>2026-05-16T10:27:01+02:00</time>
      </trkpt>
      <trkpt lat="47.53434" lon="5.6639">
        <ele>189.90039</ele>
        <time>2026-05-16T10:27:02+02:00</time>
      </trkpt>
      <trkpt lat="47.53434" lon="5.66398">
        <ele>189.7998</ele>
        <time>2026-05-16T10:27:03+02:00</time>
      </trkpt>
      <trkpt lat="47.53435" lon="5.66406">
        <ele>189.7998</ele>
        <time>2026-05-16T10:27:04+02:00</time>
      </trkpt>
      <trkpt lat="47.53435" lon="5.66414">
        <ele>189.7002</ele>
        <time>2026-05-16T10:27:05+02:00</time>
      </trkpt>
      <trkpt lat="47.53435" lon="5.66422">
        <ele>189.7002</ele>
        <time>2026-05-16T10:27:06+02:00</time>
      </trkpt>
      <trkpt lat="47.53436" lon="5.6643">
        <ele>189.40039</ele>
        <time>2026-05-16T10:27:07+02:00</time>
      </trkpt>
      <trkpt lat="47.53436" lon="5.66439">
        <ele>189.40039</ele>
        <time>2026-05-16T10:27:08+02:00</time>
      </trkpt>
      <trkpt lat="47.53437" lon="5.66447">
        <ele>189.40039</ele>
        <time>2026-05-16T10:27:09+02:00</time>
      </trkpt>
      <trkpt lat="47.53437" lon="5.66455">
        <ele>189.60059</ele>
        <time>2026-05-16T10:27:10+02:00</time>
      </trkpt>
      <trkpt lat="47.53438" lon="5.66462">
        <ele>189.7998</ele>
        <time>2026-05-16T10:27:11+02:00</time>
      </trkpt>
      <trkpt lat="47.53439" lon="5.66471">
        <ele>190.10059</ele>
        <time>2026-05-16T10:27:12+02:00</time>
      </trkpt>
      <trkpt lat="47.5344" lon="5.66479">
        <ele>190.5</ele>
        <time>2026-05-16T10:27:13+02:00</time>
      </trkpt>
      <trkpt lat="47.53442" lon="5.66487">
        <ele>190.7998</ele>
        <time>2026-05-16T10:27:14+02:00</time>
      </trkpt>
      <trkpt lat="47.53444" lon="5.66495">
        <ele>191.90039</ele>
        <time>2026-05-16T10:27:15+02:00</time>
      </trkpt>
      <trkpt lat="47.53446" lon="5.66503">
        <ele>192.7002</ele>
        <time>2026-05-16T10:27:16+02:00</time>
      </trkpt>
      <trkpt lat="47.53448" lon="5.66511">
        <ele>191.60059</ele>
        <time>2026-05-16T10:27:17+02:00</time>
      </trkpt>
      <trkpt lat="47.53451" lon="5.66519">
        <ele>191.60059</ele>
        <time>2026-05-16T10:27:18+02:00</time>
      </trkpt>
      <trkpt lat="47.53454" lon="5.66526">
        <ele>190.40039</ele>
        <time>2026-05-16T10:27:19+02:00</time>
      </trkpt>
      <trkpt lat="47.53456" lon="5.66534">
        <ele>190.40039</ele>
        <time>2026-05-16T10:27:20+02:00</time>
      </trkpt>
      <trkpt lat="47.53458" lon="5.66542">
        <ele>190.40039</ele>
        <time>2026-05-16T10:27:21+02:00</time>
      </trkpt>
      <trkpt lat="47.53461" lon="5.66549">
        <ele>190.60059</ele>
        <time>2026-05-16T10:27:22+02:00</time>
      </trkpt>
      <trkpt lat="47.53463" lon="5.66557">
        <ele>191.7002</ele>
        <time>2026-05-16T10:27:23+02:00</time>
      </trkpt>
      <trkpt lat="47.53466" lon="5.66564">
        <ele>192.2002</ele>
        <time>2026-05-16T10:27:24+02:00</time>
      </trkpt>
      <trkpt lat="47.53468" lon="5.66572">
        <ele>193</ele>
        <time>2026-05-16T10:27:25+02:00</time>
      </trkpt>
      <trkpt lat="47.53471" lon="5.66579">
        <ele>192.10059</ele>
        <time>2026-05-16T10:27:26+02:00</time>
      </trkpt>
      <trkpt lat="47.53473" lon="5.66587">
        <ele>192.2998</ele>
        <time>2026-05-16T10:27:27+02:00</time>
      </trkpt>
      <trkpt lat="47.53476" lon="5.66594">
        <ele>192.2998</ele>
        <time>2026-05-16T10:27:28+02:00</time>
      </trkpt>
      <trkpt lat="47.53478" lon="5.66602">
        <ele>191.5</ele>
        <time>2026-05-16T10:27:29+02:00</time>
      </trkpt>
      <trkpt lat="47.53481" lon="5.66609">
        <ele>191.7002</ele>
        <time>2026-05-16T10:27:30+02:00</time>
      </trkpt>
      <trkpt lat="47.53484" lon="5.66616">
        <ele>191</ele>
        <time>2026-05-16T10:27:31+02:00</time>
      </trkpt>
      <trkpt lat="47.53486" lon="5.66624">
        <ele>190.90039</ele>
        <time>2026-05-16T10:27:32+02:00</time>
      </trkpt>
      <trkpt lat="47.53488" lon="5.66631">
        <ele>190.5</ele>
        <time>2026-05-16T10:27:33+02:00</time>
      </trkpt>
      <trkpt lat="47.53491" lon="5.66638">
        <ele>190.7002</ele>
        <time>2026-05-16T10:27:34+02:00</time>
      </trkpt>
      <trkpt lat="47.53493" lon="5.66645">
        <ele>190.7002</ele>
        <time>2026-05-16T10:27:35+02:00</time>
      </trkpt>
      <trkpt lat="47.53496" lon="5.66653">
        <ele>191</ele>
        <time>2026-05-16T10:27:36+02:00</time>
      </trkpt>
      <trkpt lat="47.53498" lon="5.6666">
        <ele>191.7998</ele>
        <time>2026-05-16T10:27:37+02:00</time>
      </trkpt>
      <trkpt lat="47.535" lon="5.66667">
        <ele>191.2998</ele>
        <time>2026-05-16T10:27:38+02:00</time>
      </trkpt>
      <trkpt lat="47.53502" lon="5.66675">
        <ele>191.60059</ele>
        <time>2026-05-16T10:27:39+02:00</time>
      </trkpt>
      <trkpt lat="47.53505" lon="5.66682">
        <ele>191.90039</ele>
        <time>2026-05-16T10:27:40+02:00</time>
      </trkpt>
      <trkpt lat="47.53508" lon="5.66689">
        <ele>191.2998</ele>
        <time>2026-05-16T10:27:41+02:00</time>
      </trkpt>
      <trkpt lat="47.5351" lon="5.66697">
        <ele>191.2998</ele>
        <time>2026-05-16T10:27:42+02:00</time>
      </trkpt>
      <trkpt lat="47.53513" lon="5.66704">
        <ele>191</ele>
        <time>2026-05-16T10:27:43+02:00</time>
      </trkpt>
      <trkpt lat="47.53515" lon="5.66711">
        <ele>191.10059</ele>
        <time>2026-05-16T10:27:44+02:00</time>
      </trkpt>
      <trkpt lat="47.53518" lon="5.66719">
        <ele>190.5</ele>
        <time>2026-05-16T10:27:45+02:00</time>
      </trkpt>
      <trkpt lat="47.5352" lon="5.66726">
        <ele>190.5</ele>
        <time>2026-05-16T10:27:46+02:00</time>
      </trkpt>
      <trkpt lat="47.53523" lon="5.66734">
        <ele>190.5</ele>
        <time>2026-05-16T10:27:47+02:00</time>
      </trkpt>
      <trkpt lat="47.53525" lon="5.66741">
        <ele>191</ele>
        <time>2026-05-16T10:27:48+02:00</time>
      </trkpt>
      <trkpt lat="47.53527" lon="5.66748">
        <ele>191</ele>
        <time>2026-05-16T10:27:49+02:00</time>
      </trkpt>
      <trkpt lat="47.53529" lon="5.66756">
        <ele>191.2998</ele>
        <time>2026-05-16T10:27:50+02:00</time>
      </trkpt>
      <trkpt lat="47.5353" lon="5.66764">
        <ele>191.90039</ele>
        <time>2026-05-16T10:27:51+02:00</time>
      </trkpt>
      <trkpt lat="47.53533" lon="5.66772">
        <ele>192.2002</ele>
        <time>2026-05-16T10:27:52+02:00</time>
      </trkpt>
      <trkpt lat="47.53534" lon="5.66779">
        <ele>192.40039</ele>
        <time>2026-05-16T10:27:53+02:00</time>
      </trkpt>
      <trkpt lat="47.53536" lon="5.66787">
        <ele>191.90039</ele>
        <time>2026-05-16T10:27:54+02:00</time>
      </trkpt>
      <trkpt lat="47.53538" lon="5.66795">
        <ele>191.90039</ele>
        <time>2026-05-16T10:27:55+02:00</time>
      </trkpt>
      <trkpt lat="47.5354" lon="5.66803">
        <ele>191.2002</ele>
        <time>2026-05-16T10:27:56+02:00</time>
      </trkpt>
      <trkpt lat="47.53542" lon="5.66811">
        <ele>191.2002</ele>
        <time>2026-05-16T10:27:57+02:00</time>
      </trkpt>
      <trkpt lat="47.53544" lon="5.66819">
        <ele>191.10059</ele>
        <time>2026-05-16T10:27:58+02:00</time>
      </trkpt>
      <trkpt lat="47.53545" lon="5.66827">
        <ele>191.10059</ele>
        <time>2026-05-16T10:27:59+02:00</time>
      </trkpt>
      <trkpt lat="47.53547" lon="5.66835">
        <ele>190.7002</ele>
        <time>2026-05-16T10:28:00+02:00</time>
      </trkpt>
      <trkpt lat="47.53549" lon="5.66843">
        <ele>190.7002</ele>
        <time>2026-05-16T10:28:01+02:00</time>
      </trkpt>
      <trkpt lat="47.5355" lon="5.66851">
        <ele>190.90039</ele>
        <time>2026-05-16T10:28:02+02:00</time>
      </trkpt>
      <trkpt lat="47.53552" lon="5.66859">
        <ele>190.7002</ele>
        <time>2026-05-16T10:28:03+02:00</time>
      </trkpt>
      <trkpt lat="47.53554" lon="5.66867">
        <ele>190.90039</ele>
        <time>2026-05-16T10:28:04+02:00</time>
      </trkpt>
      <trkpt lat="47.53555" lon="5.66875">
        <ele>191.5</ele>
        <time>2026-05-16T10:28:05+02:00</time>
      </trkpt>
      <trkpt lat="47.53557" lon="5.66883">
        <ele>192.40039</ele>
        <time>2026-05-16T10:28:06+02:00</time>
      </trkpt>
      <trkpt lat="47.53559" lon="5.66891">
        <ele>192.7002</ele>
        <time>2026-05-16T10:28:07+02:00</time>
      </trkpt>
      <trkpt lat="47.53561" lon="5.66899">
        <ele>193</ele>
        <time>2026-05-16T10:28:08+02:00</time>
      </trkpt>
      <trkpt lat="47.53562" lon="5.66907">
        <ele>193.10059</ele>
        <time>2026-05-16T10:28:09+02:00</time>
      </trkpt>
      <trkpt lat="47.53564" lon="5.66915">
        <ele>192.2998</ele>
        <time>2026-05-16T10:28:10+02:00</time>
      </trkpt>
      <trkpt lat="47.53566" lon="5.66924">
        <ele>192.10059</ele>
        <time>2026-05-16T10:28:11+02:00</time>
      </trkpt>
      <trkpt lat="47.53567" lon="5.66932">
        <ele>192</ele>
        <time>2026-05-16T10:28:12+02:00</time>
      </trkpt>
      <trkpt lat="47.53569" lon="5.6694">
        <ele>191.2002</ele>
        <time>2026-05-16T10:28:13+02:00</time>
      </trkpt>
      <trkpt lat="47.5357" lon="5.66948">
        <ele>191.2002</ele>
        <time>2026-05-16T10:28:14+02:00</time>
      </trkpt>
      <trkpt lat="47.53572" lon="5.66956">
        <ele>191.10059</ele>
        <time>2026-05-16T10:28:15+02:00</time>
      </trkpt>
      <trkpt lat="47.53573" lon="5.66965">
        <ele>191.10059</ele>
        <time>2026-05-16T10:28:16+02:00</time>
      </trkpt>
      <trkpt lat="47.53575" lon="5.66973">
        <ele>190.40039</ele>
        <time>2026-05-16T10:28:17+02:00</time>
      </trkpt>
      <trkpt lat="47.53576" lon="5.66981">
        <ele>190.40039</ele>
        <time>2026-05-16T10:28:18+02:00</time>
      </trkpt>
      <trkpt lat="47.53577" lon="5.66989">
        <ele>190.40039</ele>
        <time>2026-05-16T10:28:19+02:00</time>
      </trkpt>
      <trkpt lat="47.53578" lon="5.66997">
        <ele>190.40039</ele>
        <time>2026-05-16T10:28:20+02:00</time>
      </trkpt>
      <trkpt lat="47.53579" lon="5.67005">
        <ele>190.5</ele>
        <time>2026-05-16T10:28:21+02:00</time>
      </trkpt>
      <trkpt lat="47.53581" lon="5.67013">
        <ele>190.10059</ele>
        <time>2026-05-16T10:28:22+02:00</time>
      </trkpt>
      <trkpt lat="47.53582" lon="5.67021">
        <ele>190.2998</ele>
        <time>2026-05-16T10:28:23+02:00</time>
      </trkpt>
      <trkpt lat="47.53583" lon="5.67029">
        <ele>190.40039</ele>
        <time>2026-05-16T10:28:24+02:00</time>
      </trkpt>
      <trkpt lat="47.53584" lon="5.67038">
        <ele>190.7002</ele>
        <time>2026-05-16T10:28:25+02:00</time>
      </trkpt>
      <trkpt lat="47.53584" lon="5.67045">
        <ele>191.10059</ele>
        <time>2026-05-16T10:28:26+02:00</time>
      </trkpt>
      <trkpt lat="47.53584" lon="5.67053">
        <ele>191.7002</ele>
        <time>2026-05-16T10:28:27+02:00</time>
      </trkpt>
      <trkpt lat="47.53585" lon="5.67061">
        <ele>192.2002</ele>
        <time>2026-05-16T10:28:28+02:00</time>
      </trkpt>
      <trkpt lat="47.53586" lon="5.67069">
        <ele>192.5</ele>
        <time>2026-05-16T10:28:29+02:00</time>
      </trkpt>
      <trkpt lat="47.53586" lon="5.67077">
        <ele>192.7002</ele>
        <time>2026-05-16T10:28:30+02:00</time>
      </trkpt>
      <trkpt lat="47.53587" lon="5.67085">
        <ele>191.2002</ele>
        <time>2026-05-16T10:28:31+02:00</time>
      </trkpt>
      <trkpt lat="47.53588" lon="5.67093">
        <ele>191.2998</ele>
        <time>2026-05-16T10:28:32+02:00</time>
      </trkpt>
      <trkpt lat="47.53588" lon="5.67101">
        <ele>191.40039</ele>
        <time>2026-05-16T10:28:33+02:00</time>
      </trkpt>
      <trkpt lat="47.53589" lon="5.67109">
        <ele>191.40039</ele>
        <time>2026-05-16T10:28:34+02:00</time>
      </trkpt>
      <trkpt lat="47.5359" lon="5.67117">
        <ele>191.5</ele>
        <time>2026-05-16T10:28:35+02:00</time>
      </trkpt>
      <trkpt lat="47.5359" lon="5.67125">
        <ele>191.5</ele>
        <time>2026-05-16T10:28:36+02:00</time>
      </trkpt>
      <trkpt lat="47.53591" lon="5.67133">
        <ele>191.5</ele>
        <time>2026-05-16T10:28:37+02:00</time>
      </trkpt>
      <trkpt lat="47.53591" lon="5.67142">
        <ele>191.60059</ele>
        <time>2026-05-16T10:28:38+02:00</time>
      </trkpt>
      <trkpt lat="47.53591" lon="5.6715">
        <ele>191.60059</ele>
        <time>2026-05-16T10:28:39+02:00</time>
      </trkpt>
      <trkpt lat="47.53592" lon="5.67159">
        <ele>191.60059</ele>
        <time>2026-05-16T10:28:40+02:00</time>
      </trkpt>
      <trkpt lat="47.53592" lon="5.67167">
        <ele>191.7002</ele>
        <time>2026-05-16T10:28:41+02:00</time>
      </trkpt>
      <trkpt lat="47.53592" lon="5.67175">
        <ele>191.7002</ele>
        <time>2026-05-16T10:28:42+02:00</time>
      </trkpt>
      <trkpt lat="47.53592" lon="5.67183">
        <ele>191.7998</ele>
        <time>2026-05-16T10:28:43+02:00</time>
      </trkpt>
      <trkpt lat="47.53592" lon="5.67192">
        <ele>191.7998</ele>
        <time>2026-05-16T10:28:44+02:00</time>
      </trkpt>
      <trkpt lat="47.53592" lon="5.672">
        <ele>191.90039</ele>
        <time>2026-05-16T10:28:45+02:00</time>
      </trkpt>
      <trkpt lat="47.53592" lon="5.67208">
        <ele>192</ele>
        <time>2026-05-16T10:28:46+02:00</time>
      </trkpt>
      <trkpt lat="47.53592" lon="5.67216">
        <ele>192</ele>
        <time>2026-05-16T10:28:47+02:00</time>
      </trkpt>
      <trkpt lat="47.53592" lon="5.67224">
        <ele>192.10059</ele>
        <time>2026-05-16T10:28:48+02:00</time>
      </trkpt>
      <trkpt lat="47.53593" lon="5.67233">
        <ele>190.7998</ele>
        <time>2026-05-16T10:28:49+02:00</time>
      </trkpt>
      <trkpt lat="47.53593" lon="5.67241">
        <ele>190.90039</ele>
        <time>2026-05-16T10:28:50+02:00</time>
      </trkpt>
      <trkpt lat="47.53593" lon="5.6725">
        <ele>191</ele>
        <time>2026-05-16T10:28:51+02:00</time>
      </trkpt>
      <trkpt lat="47.53593" lon="5.67258">
        <ele>191</ele>
        <time>2026-05-16T10:28:52+02:00</time>
      </trkpt>
      <trkpt lat="47.53593" lon="5.67266">
        <ele>191.10059</ele>
        <time>2026-05-16T10:28:53+02:00</time>
      </trkpt>
      <trkpt lat="47.53594" lon="5.67275">
        <ele>191.10059</ele>
        <time>2026-05-16T10:28:54+02:00</time>
      </trkpt>
      <trkpt lat="47.53594" lon="5.67283">
        <ele>191.2002</ele>
        <time>2026-05-16T10:28:55+02:00</time>
      </trkpt>
      <trkpt lat="47.53594" lon="5.67291">
        <ele>191.2002</ele>
        <time>2026-05-16T10:28:56+02:00</time>
      </trkpt>
      <trkpt lat="47.53594" lon="5.67299">
        <ele>191.2998</ele>
        <time>2026-05-16T10:28:57+02:00</time>
      </trkpt>
      <trkpt lat="47.53594" lon="5.67307">
        <ele>191.40039</ele>
        <time>2026-05-16T10:28:58+02:00</time>
      </trkpt>
      <trkpt lat="47.53594" lon="5.67316">
        <ele>191.40039</ele>
        <time>2026-05-16T10:28:59+02:00</time>
      </trkpt>
      <trkpt lat="47.53594" lon="5.67324">
        <ele>191.5</ele>
        <time>2026-05-16T10:29:00+02:00</time>
      </trkpt>
      <trkpt lat="47.53594" lon="5.67333">
        <ele>191.60059</ele>
        <time>2026-05-16T10:29:01+02:00</time>
      </trkpt>
      <trkpt lat="47.53594" lon="5.67341">
        <ele>191.7002</ele>
        <time>2026-05-16T10:29:02+02:00</time>
      </trkpt>
      <trkpt lat="47.53594" lon="5.67349">
        <ele>191.7002</ele>
        <time>2026-05-16T10:29:03+02:00</time>
      </trkpt>
      <trkpt lat="47.53594" lon="5.67358">
        <ele>191.7998</ele>
        <time>2026-05-16T10:29:04+02:00</time>
      </trkpt>
      <trkpt lat="47.53594" lon="5.67366">
        <ele>191.90039</ele>
        <time>2026-05-16T10:29:05+02:00</time>
      </trkpt>
      <trkpt lat="47.53594" lon="5.67374">
        <ele>192</ele>
        <time>2026-05-16T10:29:06+02:00</time>
      </trkpt>
      <trkpt lat="47.53594" lon="5.67382">
        <ele>192.2002</ele>
        <time>2026-05-16T10:29:07+02:00</time>
      </trkpt>
      <trkpt lat="47.53594" lon="5.6739">
        <ele>192.2998</ele>
        <time>2026-05-16T10:29:08+02:00</time>
      </trkpt>
      <trkpt lat="47.53594" lon="5.67398">
        <ele>192.40039</ele>
        <time>2026-05-16T10:29:09+02:00</time>
      </trkpt>
      <trkpt lat="47.53594" lon="5.67405">
        <ele>192.40039</ele>
        <time>2026-05-16T10:29:10+02:00</time>
      </trkpt>
      <trkpt lat="47.53594" lon="5.67413">
        <ele>192.40039</ele>
        <time>2026-05-16T10:29:11+02:00</time>
      </trkpt>
      <trkpt lat="47.53594" lon="5.67421">
        <ele>192.40039</ele>
        <time>2026-05-16T10:29:12+02:00</time>
      </trkpt>
      <trkpt lat="47.53593" lon="5.67429">
        <ele>192.2002</ele>
        <time>2026-05-16T10:29:13+02:00</time>
      </trkpt>
      <trkpt lat="47.53593" lon="5.67437">
        <ele>191.2002</ele>
        <time>2026-05-16T10:29:14+02:00</time>
      </trkpt>
      <trkpt lat="47.53593" lon="5.67445">
        <ele>190.2002</ele>
        <time>2026-05-16T10:29:15+02:00</time>
      </trkpt>
      <trkpt lat="47.53592" lon="5.67453">
        <ele>189.5</ele>
        <time>2026-05-16T10:29:16+02:00</time>
      </trkpt>
      <trkpt lat="47.53592" lon="5.67461">
        <ele>189</ele>
        <time>2026-05-16T10:29:17+02:00</time>
      </trkpt>
      <trkpt lat="47.53591" lon="5.67469">
        <ele>189</ele>
        <time>2026-05-16T10:29:18+02:00</time>
      </trkpt>
      <trkpt lat="47.53591" lon="5.67477">
        <ele>189.10059</ele>
        <time>2026-05-16T10:29:19+02:00</time>
      </trkpt>
      <trkpt lat="47.5359" lon="5.67485">
        <ele>189.40039</ele>
        <time>2026-05-16T10:29:20+02:00</time>
      </trkpt>
      <trkpt lat="47.5359" lon="5.67493">
        <ele>189.60059</ele>
        <time>2026-05-16T10:29:21+02:00</time>
      </trkpt>
      <trkpt lat="47.53589" lon="5.67501">
        <ele>189.60059</ele>
        <time>2026-05-16T10:29:22+02:00</time>
      </trkpt>
      <trkpt lat="47.53589" lon="5.67509">
        <ele>189.60059</ele>
        <time>2026-05-16T10:29:23+02:00</time>
      </trkpt>
      <trkpt lat="47.53588" lon="5.67517">
        <ele>189.40039</ele>
        <time>2026-05-16T10:29:24+02:00</time>
      </trkpt>
      <trkpt lat="47.53587" lon="5.67525">
        <ele>189.40039</ele>
        <time>2026-05-16T10:29:25+02:00</time>
      </trkpt>
      <trkpt lat="47.53587" lon="5.67532">
        <ele>189.2998</ele>
        <time>2026-05-16T10:29:26+02:00</time>
      </trkpt>
      <trkpt lat="47.53587" lon="5.6754">
        <ele>189.2998</ele>
        <time>2026-05-16T10:29:27+02:00</time>
      </trkpt>
      <trkpt lat="47.53586" lon="5.67548">
        <ele>189.60059</ele>
        <time>2026-05-16T10:29:28+02:00</time>
      </trkpt>
      <trkpt lat="47.53586" lon="5.67557">
        <ele>189.60059</ele>
        <time>2026-05-16T10:29:29+02:00</time>
      </trkpt>
      <trkpt lat="47.53586" lon="5.67565">
        <ele>189.5</ele>
        <time>2026-05-16T10:29:30+02:00</time>
      </trkpt>
      <trkpt lat="47.53585" lon="5.67573">
        <ele>189.5</ele>
        <time>2026-05-16T10:29:31+02:00</time>
      </trkpt>
      <trkpt lat="47.53584" lon="5.67581">
        <ele>189.5</ele>
        <time>2026-05-16T10:29:32+02:00</time>
      </trkpt>
      <trkpt lat="47.53584" lon="5.67589">
        <ele>189.5</ele>
        <time>2026-05-16T10:29:33+02:00</time>
      </trkpt>
      <trkpt lat="47.53584" lon="5.67598">
        <ele>189.5</ele>
        <time>2026-05-16T10:29:34+02:00</time>
      </trkpt>
      <trkpt lat="47.53583" lon="5.67606">
        <ele>189.5</ele>
        <time>2026-05-16T10:29:35+02:00</time>
      </trkpt>
      <trkpt lat="47.53583" lon="5.67614">
        <ele>189.5</ele>
        <time>2026-05-16T10:29:36+02:00</time>
      </trkpt>
      <trkpt lat="47.53582" lon="5.67622">
        <ele>189.40039</ele>
        <time>2026-05-16T10:29:37+02:00</time>
      </trkpt>
      <trkpt lat="47.53581" lon="5.6763">
        <ele>189.40039</ele>
        <time>2026-05-16T10:29:38+02:00</time>
      </trkpt>
      <trkpt lat="47.53581" lon="5.67638">
        <ele>189.40039</ele>
        <time>2026-05-16T10:29:39+02:00</time>
      </trkpt>
      <trkpt lat="47.5358" lon="5.67646">
        <ele>189.7998</ele>
        <time>2026-05-16T10:29:40+02:00</time>
      </trkpt>
      <trkpt lat="47.5358" lon="5.67654">
        <ele>189.7002</ele>
        <time>2026-05-16T10:29:41+02:00</time>
      </trkpt>
      <trkpt lat="47.53579" lon="5.67662">
        <ele>189.7002</ele>
        <time>2026-05-16T10:29:42+02:00</time>
      </trkpt>
      <trkpt lat="47.53579" lon="5.67671">
        <ele>189.7002</ele>
        <time>2026-05-16T10:29:43+02:00</time>
      </trkpt>
      <trkpt lat="47.53578" lon="5.67679">
        <ele>189.60059</ele>
        <time>2026-05-16T10:29:44+02:00</time>
      </trkpt>
      <trkpt lat="47.53578" lon="5.67687">
        <ele>189.60059</ele>
        <time>2026-05-16T10:29:45+02:00</time>
      </trkpt>
      <trkpt lat="47.53577" lon="5.67695">
        <ele>189.60059</ele>
        <time>2026-05-16T10:29:46+02:00</time>
      </trkpt>
      <trkpt lat="47.53576" lon="5.67704">
        <ele>189.7998</ele>
        <time>2026-05-16T10:29:47+02:00</time>
      </trkpt>
      <trkpt lat="47.53576" lon="5.67711">
        <ele>190.10059</ele>
        <time>2026-05-16T10:29:48+02:00</time>
      </trkpt>
      <trkpt lat="47.53575" lon="5.6772">
        <ele>190.40039</ele>
        <time>2026-05-16T10:29:49+02:00</time>
      </trkpt>
      <trkpt lat="47.53575" lon="5.67728">
        <ele>190.5</ele>
        <time>2026-05-16T10:29:50+02:00</time>
      </trkpt>
      <trkpt lat="47.53574" lon="5.67736">
        <ele>191.2002</ele>
        <time>2026-05-16T10:29:51+02:00</time>
      </trkpt>
      <trkpt lat="47.53573" lon="5.67744">
        <ele>191.2002</ele>
        <time>2026-05-16T10:29:52+02:00</time>
      </trkpt>
      <trkpt lat="47.53573" lon="5.67752">
        <ele>191.2002</ele>
        <time>2026-05-16T10:29:53+02:00</time>
      </trkpt>
      <trkpt lat="47.53572" lon="5.6776">
        <ele>191.10059</ele>
        <time>2026-05-16T10:29:54+02:00</time>
      </trkpt>
      <trkpt lat="47.53571" lon="5.67768">
        <ele>191.10059</ele>
        <time>2026-05-16T10:29:55+02:00</time>
      </trkpt>
      <trkpt lat="47.53571" lon="5.67776">
        <ele>191.10059</ele>
        <time>2026-05-16T10:29:56+02:00</time>
      </trkpt>
      <trkpt lat="47.5357" lon="5.67785">
        <ele>191.10059</ele>
        <time>2026-05-16T10:29:57+02:00</time>
      </trkpt>
      <trkpt lat="47.5357" lon="5.67793">
        <ele>191.10059</ele>
        <time>2026-05-16T10:29:58+02:00</time>
      </trkpt>
      <trkpt lat="47.53569" lon="5.67801">
        <ele>191.10059</ele>
        <time>2026-05-16T10:29:59+02:00</time>
      </trkpt>
      <trkpt lat="47.53568" lon="5.67809">
        <ele>192.60059</ele>
        <time>2026-05-16T10:30:00+02:00</time>
      </trkpt>
      <trkpt lat="47.53568" lon="5.67817">
        <ele>192.60059</ele>
        <time>2026-05-16T10:30:01+02:00</time>
      </trkpt>
      <trkpt lat="47.53567" lon="5.67825">
        <ele>192.60059</ele>
        <time>2026-05-16T10:30:02+02:00</time>
      </trkpt>
      <trkpt lat="47.53566" lon="5.67833">
        <ele>192.60059</ele>
        <time>2026-05-16T10:30:03+02:00</time>
      </trkpt>
      <trkpt lat="47.53566" lon="5.67842">
        <ele>192.5</ele>
        <time>2026-05-16T10:30:04+02:00</time>
      </trkpt>
      <trkpt lat="47.53565" lon="5.6785">
        <ele>192.40039</ele>
        <time>2026-05-16T10:30:05+02:00</time>
      </trkpt>
      <trkpt lat="47.53564" lon="5.67858">
        <ele>192.2002</ele>
        <time>2026-05-16T10:30:06+02:00</time>
      </trkpt>
      <trkpt lat="47.53563" lon="5.67866">
        <ele>193</ele>
        <time>2026-05-16T10:30:07+02:00</time>
      </trkpt>
      <trkpt lat="47.53563" lon="5.67875">
        <ele>192.2002</ele>
        <time>2026-05-16T10:30:08+02:00</time>
      </trkpt>
      <trkpt lat="47.53562" lon="5.67883">
        <ele>191.2002</ele>
        <time>2026-05-16T10:30:09+02:00</time>
      </trkpt>
      <trkpt lat="47.53561" lon="5.67891">
        <ele>190.5</ele>
        <time>2026-05-16T10:30:10+02:00</time>
      </trkpt>
      <trkpt lat="47.53561" lon="5.67899">
        <ele>190.10059</ele>
        <time>2026-05-16T10:30:11+02:00</time>
      </trkpt>
      <trkpt lat="47.5356" lon="5.67907">
        <ele>190.10059</ele>
        <time>2026-05-16T10:30:12+02:00</time>
      </trkpt>
      <trkpt lat="47.5356" lon="5.67915">
        <ele>189.7998</ele>
        <time>2026-05-16T10:30:13+02:00</time>
      </trkpt>
      <trkpt lat="47.53559" lon="5.67923">
        <ele>189.7002</ele>
        <time>2026-05-16T10:30:14+02:00</time>
      </trkpt>
      <trkpt lat="47.53558" lon="5.67931">
        <ele>189.60059</ele>
        <time>2026-05-16T10:30:15+02:00</time>
      </trkpt>
      <trkpt lat="47.53558" lon="5.67939">
        <ele>189.5</ele>
        <time>2026-05-16T10:30:16+02:00</time>
      </trkpt>
      <trkpt lat="47.53557" lon="5.67947">
        <ele>189.90039</ele>
        <time>2026-05-16T10:30:17+02:00</time>
      </trkpt>
      <trkpt lat="47.53556" lon="5.67955">
        <ele>189.90039</ele>
        <time>2026-05-16T10:30:18+02:00</time>
      </trkpt>
      <trkpt lat="47.53555" lon="5.67963">
        <ele>189.90039</ele>
        <time>2026-05-16T10:30:19+02:00</time>
      </trkpt>
      <trkpt lat="47.53555" lon="5.6797">
        <ele>189.90039</ele>
        <time>2026-05-16T10:30:20+02:00</time>
      </trkpt>
      <trkpt lat="47.53554" lon="5.67978">
        <ele>189.90039</ele>
        <time>2026-05-16T10:30:21+02:00</time>
      </trkpt>
      <trkpt lat="47.53553" lon="5.67986">
        <ele>189.90039</ele>
        <time>2026-05-16T10:30:22+02:00</time>
      </trkpt>
      <trkpt lat="47.53553" lon="5.67995">
        <ele>189.90039</ele>
        <time>2026-05-16T10:30:23+02:00</time>
      </trkpt>
      <trkpt lat="47.53552" lon="5.68003">
        <ele>189.7998</ele>
        <time>2026-05-16T10:30:24+02:00</time>
      </trkpt>
      <trkpt lat="47.5355" lon="5.6801">
        <ele>190.40039</ele>
        <time>2026-05-16T10:30:25+02:00</time>
      </trkpt>
      <trkpt lat="47.53549" lon="5.68018">
        <ele>190.40039</ele>
        <time>2026-05-16T10:30:26+02:00</time>
      </trkpt>
      <trkpt lat="47.53548" lon="5.68026">
        <ele>190.40039</ele>
        <time>2026-05-16T10:30:27+02:00</time>
      </trkpt>
      <trkpt lat="47.53547" lon="5.68035">
        <ele>190.2998</ele>
        <time>2026-05-16T10:30:28+02:00</time>
      </trkpt>
      <trkpt lat="47.53545" lon="5.68042">
        <ele>190.7998</ele>
        <time>2026-05-16T10:30:29+02:00</time>
      </trkpt>
      <trkpt lat="47.53544" lon="5.6805">
        <ele>190.60059</ele>
        <time>2026-05-16T10:30:30+02:00</time>
      </trkpt>
      <trkpt lat="47.53542" lon="5.68058">
        <ele>190.5</ele>
        <time>2026-05-16T10:30:31+02:00</time>
      </trkpt>
      <trkpt lat="47.53541" lon="5.68066">
        <ele>190.2998</ele>
        <time>2026-05-16T10:30:32+02:00</time>
      </trkpt>
      <trkpt lat="47.53539" lon="5.68073">
        <ele>191</ele>
        <time>2026-05-16T10:30:33+02:00</time>
      </trkpt>
      <trkpt lat="47.53537" lon="5.68081">
        <ele>190.7002</ele>
        <time>2026-05-16T10:30:34+02:00</time>
      </trkpt>
      <trkpt lat="47.53536" lon="5.68089">
        <ele>190.2998</ele>
        <time>2026-05-16T10:30:35+02:00</time>
      </trkpt>
      <trkpt lat="47.53534" lon="5.68096">
        <ele>191</ele>
        <time>2026-05-16T10:30:36+02:00</time>
      </trkpt>
      <trkpt lat="47.53532" lon="5.68104">
        <ele>190.5</ele>
        <time>2026-05-16T10:30:37+02:00</time>
      </trkpt>
      <trkpt lat="47.5353" lon="5.68112">
        <ele>190.10059</ele>
        <time>2026-05-16T10:30:38+02:00</time>
      </trkpt>
      <trkpt lat="47.53528" lon="5.68119">
        <ele>190.2998</ele>
        <time>2026-05-16T10:30:39+02:00</time>
      </trkpt>
      <trkpt lat="47.53526" lon="5.68127">
        <ele>189.90039</ele>
        <time>2026-05-16T10:30:40+02:00</time>
      </trkpt>
      <trkpt lat="47.53523" lon="5.68134">
        <ele>189.60059</ele>
        <time>2026-05-16T10:30:41+02:00</time>
      </trkpt>
      <trkpt lat="47.53521" lon="5.68141">
        <ele>189.60059</ele>
        <time>2026-05-16T10:30:42+02:00</time>
      </trkpt>
      <trkpt lat="47.53519" lon="5.68149">
        <ele>189</ele>
        <time>2026-05-16T10:30:43+02:00</time>
      </trkpt>
      <trkpt lat="47.53516" lon="5.68156">
        <ele>189.60059</ele>
        <time>2026-05-16T10:30:44+02:00</time>
      </trkpt>
      <trkpt lat="47.53513" lon="5.68163">
        <ele>189.10059</ele>
        <time>2026-05-16T10:30:45+02:00</time>
      </trkpt>
      <trkpt lat="47.53511" lon="5.6817">
        <ele>189</ele>
        <time>2026-05-16T10:30:46+02:00</time>
      </trkpt>
      <trkpt lat="47.53509" lon="5.68177">
        <ele>189.40039</ele>
        <time>2026-05-16T10:30:47+02:00</time>
      </trkpt>
      <trkpt lat="47.53506" lon="5.68184">
        <ele>189.2998</ele>
        <time>2026-05-16T10:30:48+02:00</time>
      </trkpt>
      <trkpt lat="47.53504" lon="5.68192">
        <ele>189.60059</ele>
        <time>2026-05-16T10:30:49+02:00</time>
      </trkpt>
      <trkpt lat="47.53501" lon="5.68199">
        <ele>189.60059</ele>
        <time>2026-05-16T10:30:50+02:00</time>
      </trkpt>
      <trkpt lat="47.53499" lon="5.68206">
        <ele>189.7998</ele>
        <time>2026-05-16T10:30:51+02:00</time>
      </trkpt>
      <trkpt lat="47.53496" lon="5.68213">
        <ele>189.40039</ele>
        <time>2026-05-16T10:30:52+02:00</time>
      </trkpt>
      <trkpt lat="47.53494" lon="5.68221">
        <ele>189</ele>
        <time>2026-05-16T10:30:53+02:00</time>
      </trkpt>
      <trkpt lat="47.53491" lon="5.68227">
        <ele>189.2002</ele>
        <time>2026-05-16T10:30:54+02:00</time>
      </trkpt>
      <trkpt lat="47.53489" lon="5.68234">
        <ele>189</ele>
        <time>2026-05-16T10:30:55+02:00</time>
      </trkpt>
      <trkpt lat="47.53486" lon="5.6824">
        <ele>189.40039</ele>
        <time>2026-05-16T10:30:56+02:00</time>
      </trkpt>
      <trkpt lat="47.53483" lon="5.68246">
        <ele>189</ele>
        <time>2026-05-16T10:30:57+02:00</time>
      </trkpt>
      <trkpt lat="47.5348" lon="5.68251">
        <ele>188.90039</ele>
        <time>2026-05-16T10:30:58+02:00</time>
      </trkpt>
      <trkpt lat="47.53478" lon="5.68256">
        <ele>188.90039</ele>
        <time>2026-05-16T10:30:59+02:00</time>
      </trkpt>
      <trkpt lat="47.53476" lon="5.68259">
        <ele>189.2998</ele>
        <time>2026-05-16T10:31:00+02:00</time>
      </trkpt>
      <trkpt lat="47.53474" lon="5.68262">
        <ele>189</ele>
        <time>2026-05-16T10:31:01+02:00</time>
      </trkpt>
      <trkpt lat="47.53473" lon="5.68265">
        <ele>189</ele>
        <time>2026-05-16T10:31:02+02:00</time>
      </trkpt>
      <trkpt lat="47.53473" lon="5.68265">
        <ele>189</ele>
        <time>2026-05-16T10:31:03+02:00</time>
      </trkpt>
      <trkpt lat="47.53473" lon="5.68265">
        <ele>189</ele>
        <time>2026-05-16T10:31:04+02:00</time>
      </trkpt>
      <trkpt lat="47.53473" lon="5.68265">
        <ele>189</ele>
        <time>2026-05-16T10:31:05+02:00</time>
      </trkpt>
      <trkpt lat="47.53473" lon="5.68265">
        <ele>189</ele>
        <time>2026-05-16T10:31:06+02:00</time>
      </trkpt>
      <trkpt lat="47.53462" lon="5.68282">
        <ele>189.2998</ele>
        <time>2026-05-16T10:32:43+02:00</time>
      </trkpt>
      <trkpt lat="47.5346" lon="5.68284">
        <ele>189.2998</ele>
        <time>2026-05-16T10:32:44+02:00</time>
      </trkpt>
      <trkpt lat="47.53459" lon="5.68288">
        <ele>188.7998</ele>
        <time>2026-05-16T10:32:45+02:00</time>
      </trkpt>
      <trkpt lat="47.53457" lon="5.68291">
        <ele>189.2002</ele>
        <time>2026-05-16T10:32:46+02:00</time>
      </trkpt>
      <trkpt lat="47.53454" lon="5.68294">
        <ele>188.7002</ele>
        <time>2026-05-16T10:32:47+02:00</time>
      </trkpt>
      <trkpt lat="47.53452" lon="5.68298">
        <ele>189.2002</ele>
        <time>2026-05-16T10:32:48+02:00</time>
      </trkpt>
      <trkpt lat="47.53449" lon="5.68302">
        <ele>189.2002</ele>
        <time>2026-05-16T10:32:49+02:00</time>
      </trkpt>
      <trkpt lat="47.53446" lon="5.68306">
        <ele>189.5</ele>
        <time>2026-05-16T10:32:50+02:00</time>
      </trkpt>
      <trkpt lat="47.53443" lon="5.6831">
        <ele>189.5</ele>
        <time>2026-05-16T10:32:51+02:00</time>
      </trkpt>
      <trkpt lat="47.53441" lon="5.68314">
        <ele>189.5</ele>
        <time>2026-05-16T10:32:52+02:00</time>
      </trkpt>
      <trkpt lat="47.53438" lon="5.68319">
        <ele>189.5</ele>
        <time>2026-05-16T10:32:53+02:00</time>
      </trkpt>
      <trkpt lat="47.53435" lon="5.68323">
        <ele>189.40039</ele>
        <time>2026-05-16T10:32:54+02:00</time>
      </trkpt>
      <trkpt lat="47.53432" lon="5.68329">
        <ele>188.90039</ele>
        <time>2026-05-16T10:32:55+02:00</time>
      </trkpt>
      <trkpt lat="47.53429" lon="5.68334">
        <ele>189.5</ele>
        <time>2026-05-16T10:32:56+02:00</time>
      </trkpt>
      <trkpt lat="47.53426" lon="5.68339">
        <ele>189.2002</ele>
        <time>2026-05-16T10:32:57+02:00</time>
      </trkpt>
      <trkpt lat="47.53423" lon="5.68344">
        <ele>189.7002</ele>
        <time>2026-05-16T10:32:58+02:00</time>
      </trkpt>
      <trkpt lat="47.5342" lon="5.6835">
        <ele>189.2998</ele>
        <time>2026-05-16T10:32:59+02:00</time>
      </trkpt>
      <trkpt lat="47.53417" lon="5.68355">
        <ele>189.10059</ele>
        <time>2026-05-16T10:33:00+02:00</time>
      </trkpt>
      <trkpt lat="47.53414" lon="5.68361">
        <ele>189.10059</ele>
        <time>2026-05-16T10:33:01+02:00</time>
      </trkpt>
      <trkpt lat="47.5341" lon="5.68367">
        <ele>189.10059</ele>
        <time>2026-05-16T10:33:02+02:00</time>
      </trkpt>
      <trkpt lat="47.53407" lon="5.68372">
        <ele>188.7998</ele>
        <time>2026-05-16T10:33:03+02:00</time>
      </trkpt>
      <trkpt lat="47.53404" lon="5.68378">
        <ele>189.2998</ele>
        <time>2026-05-16T10:33:04+02:00</time>
      </trkpt>
      <trkpt lat="47.53401" lon="5.68383">
        <ele>189</ele>
        <time>2026-05-16T10:33:05+02:00</time>
      </trkpt>
      <trkpt lat="47.53398" lon="5.68389">
        <ele>188.90039</ele>
        <time>2026-05-16T10:33:06+02:00</time>
      </trkpt>
      <trkpt lat="47.53394" lon="5.68394">
        <ele>189.2998</ele>
        <time>2026-05-16T10:33:07+02:00</time>
      </trkpt>
      <trkpt lat="47.53391" lon="5.684">
        <ele>188.7998</ele>
        <time>2026-05-16T10:33:08+02:00</time>
      </trkpt>
      <trkpt lat="47.53388" lon="5.68405">
        <ele>189.2998</ele>
        <time>2026-05-16T10:33:09+02:00</time>
      </trkpt>
      <trkpt lat="47.53384" lon="5.6841">
        <ele>189</ele>
        <time>2026-05-16T10:33:10+02:00</time>
      </trkpt>
      <trkpt lat="47.5338" lon="5.68414">
        <ele>189.10059</ele>
        <time>2026-05-16T10:33:11+02:00</time>
      </trkpt>
      <trkpt lat="47.53376" lon="5.68419">
        <ele>189.60059</ele>
        <time>2026-05-16T10:33:12+02:00</time>
      </trkpt>
      <trkpt lat="47.53372" lon="5.68423">
        <ele>189.5</ele>
        <time>2026-05-16T10:33:13+02:00</time>
      </trkpt>
      <trkpt lat="47.53368" lon="5.68427">
        <ele>189.5</ele>
        <time>2026-05-16T10:33:14+02:00</time>
      </trkpt>
      <trkpt lat="47.53364" lon="5.68431">
        <ele>189.5</ele>
        <time>2026-05-16T10:33:15+02:00</time>
      </trkpt>
      <trkpt lat="47.53359" lon="5.68436">
        <ele>190.10059</ele>
        <time>2026-05-16T10:33:16+02:00</time>
      </trkpt>
      <trkpt lat="47.53356" lon="5.6844">
        <ele>189.7998</ele>
        <time>2026-05-16T10:33:17+02:00</time>
      </trkpt>
      <trkpt lat="47.53351" lon="5.68445">
        <ele>190.2998</ele>
        <time>2026-05-16T10:33:18+02:00</time>
      </trkpt>
      <trkpt lat="47.53348" lon="5.68451">
        <ele>190.2002</ele>
        <time>2026-05-16T10:33:19+02:00</time>
      </trkpt>
      <trkpt lat="47.53344" lon="5.68457">
        <ele>189.60059</ele>
        <time>2026-05-16T10:33:20+02:00</time>
      </trkpt>
      <trkpt lat="47.5334" lon="5.68463">
        <ele>190.10059</ele>
        <time>2026-05-16T10:33:21+02:00</time>
      </trkpt>
      <trkpt lat="47.53337" lon="5.6847">
        <ele>190.2998</ele>
        <time>2026-05-16T10:33:22+02:00</time>
      </trkpt>
      <trkpt lat="47.53333" lon="5.68477">
        <ele>189.90039</ele>
        <time>2026-05-16T10:33:23+02:00</time>
      </trkpt>
      <trkpt lat="47.5333" lon="5.68484">
        <ele>189.90039</ele>
        <time>2026-05-16T10:33:24+02:00</time>
      </trkpt>
      <trkpt lat="47.53327" lon="5.68491">
        <ele>189.90039</ele>
        <time>2026-05-16T10:33:25+02:00</time>
      </trkpt>
      <trkpt lat="47.53323" lon="5.68498">
        <ele>189.7998</ele>
        <time>2026-05-16T10:33:26+02:00</time>
      </trkpt>
      <trkpt lat="47.5332" lon="5.68505">
        <ele>189.2998</ele>
        <time>2026-05-16T10:33:27+02:00</time>
      </trkpt>
      <trkpt lat="47.53316" lon="5.68512">
        <ele>189.5</ele>
        <time>2026-05-16T10:33:28+02:00</time>
      </trkpt>
      <trkpt lat="47.53312" lon="5.68519">
        <ele>189.5</ele>
        <time>2026-05-16T10:33:29+02:00</time>
      </trkpt>
      <trkpt lat="47.53309" lon="5.68526">
        <ele>189.10059</ele>
        <time>2026-05-16T10:33:30+02:00</time>
      </trkpt>
      <trkpt lat="47.53306" lon="5.68533">
        <ele>189.40039</ele>
        <time>2026-05-16T10:33:31+02:00</time>
      </trkpt>
      <trkpt lat="47.53302" lon="5.6854">
        <ele>189.40039</ele>
        <time>2026-05-16T10:33:32+02:00</time>
      </trkpt>
      <trkpt lat="47.53298" lon="5.68546">
        <ele>189.10059</ele>
        <time>2026-05-16T10:33:33+02:00</time>
      </trkpt>
      <trkpt lat="47.53294" lon="5.68552">
        <ele>189.2998</ele>
        <time>2026-05-16T10:33:34+02:00</time>
      </trkpt>
      <trkpt lat="47.53289" lon="5.68559">
        <ele>189.7002</ele>
        <time>2026-05-16T10:33:35+02:00</time>
      </trkpt>
      <trkpt lat="47.53285" lon="5.68564">
        <ele>189.60059</ele>
        <time>2026-05-16T10:33:36+02:00</time>
      </trkpt>
      <trkpt lat="47.5328" lon="5.6857">
        <ele>189.10059</ele>
        <time>2026-05-16T10:33:37+02:00</time>
      </trkpt>
      <trkpt lat="47.53276" lon="5.68576">
        <ele>189.5</ele>
        <time>2026-05-16T10:33:38+02:00</time>
      </trkpt>
      <trkpt lat="47.53272" lon="5.68582">
        <ele>189.60059</ele>
        <time>2026-05-16T10:33:39+02:00</time>
      </trkpt>
      <trkpt lat="47.53267" lon="5.68588">
        <ele>189.60059</ele>
        <time>2026-05-16T10:33:40+02:00</time>
      </trkpt>
      <trkpt lat="47.53263" lon="5.68594">
        <ele>189.10059</ele>
        <time>2026-05-16T10:33:41+02:00</time>
      </trkpt>
      <trkpt lat="47.53259" lon="5.68601">
        <ele>189.2998</ele>
        <time>2026-05-16T10:33:42+02:00</time>
      </trkpt>
      <trkpt lat="47.53254" lon="5.68607">
        <ele>188.90039</ele>
        <time>2026-05-16T10:33:43+02:00</time>
      </trkpt>
      <trkpt lat="47.5325" lon="5.68613">
        <ele>188.5</ele>
        <time>2026-05-16T10:33:44+02:00</time>
      </trkpt>
      <trkpt lat="47.53245" lon="5.68619">
        <ele>188.5</ele>
        <time>2026-05-16T10:33:45+02:00</time>
      </trkpt>
      <trkpt lat="47.53241" lon="5.68626">
        <ele>188.60059</ele>
        <time>2026-05-16T10:33:46+02:00</time>
      </trkpt>
      <trkpt lat="47.53236" lon="5.68632">
        <ele>188.7998</ele>
        <time>2026-05-16T10:33:47+02:00</time>
      </trkpt>
      <trkpt lat="47.53232" lon="5.68638">
        <ele>188.7002</ele>
        <time>2026-05-16T10:33:48+02:00</time>
      </trkpt>
      <trkpt lat="47.53228" lon="5.68644">
        <ele>188.7002</ele>
        <time>2026-05-16T10:33:49+02:00</time>
      </trkpt>
      <trkpt lat="47.53223" lon="5.6865">
        <ele>188.60059</ele>
        <time>2026-05-16T10:33:50+02:00</time>
      </trkpt>
      <trkpt lat="47.53219" lon="5.68656">
        <ele>188.90039</ele>
        <time>2026-05-16T10:33:51+02:00</time>
      </trkpt>
      <trkpt lat="47.53214" lon="5.68662">
        <ele>189.5</ele>
        <time>2026-05-16T10:33:52+02:00</time>
      </trkpt>
      <trkpt lat="47.53211" lon="5.68667">
        <ele>189.10059</ele>
        <time>2026-05-16T10:33:53+02:00</time>
      </trkpt>
      <trkpt lat="47.53206" lon="5.68673">
        <ele>188.90039</ele>
        <time>2026-05-16T10:33:54+02:00</time>
      </trkpt>
      <trkpt lat="47.53203" lon="5.68679">
        <ele>189.40039</ele>
        <time>2026-05-16T10:33:55+02:00</time>
      </trkpt>
      <trkpt lat="47.53198" lon="5.68684">
        <ele>189.5</ele>
        <time>2026-05-16T10:33:56+02:00</time>
      </trkpt>
      <trkpt lat="47.53194" lon="5.6869">
        <ele>189.10059</ele>
        <time>2026-05-16T10:33:57+02:00</time>
      </trkpt>
      <trkpt lat="47.5319" lon="5.68696">
        <ele>189.7998</ele>
        <time>2026-05-16T10:33:58+02:00</time>
      </trkpt>
      <trkpt lat="47.53186" lon="5.68702">
        <ele>189.7998</ele>
        <time>2026-05-16T10:33:59+02:00</time>
      </trkpt>
      <trkpt lat="47.53182" lon="5.68708">
        <ele>189.10059</ele>
        <time>2026-05-16T10:34:00+02:00</time>
      </trkpt>
      <trkpt lat="47.53177" lon="5.68714">
        <ele>189.60059</ele>
        <time>2026-05-16T10:34:01+02:00</time>
      </trkpt>
      <trkpt lat="47.53174" lon="5.68719">
        <ele>189.60059</ele>
        <time>2026-05-16T10:34:02+02:00</time>
      </trkpt>
      <trkpt lat="47.5317" lon="5.68725">
        <ele>189.2002</ele>
        <time>2026-05-16T10:34:03+02:00</time>
      </trkpt>
      <trkpt lat="47.53166" lon="5.6873">
        <ele>189.90039</ele>
        <time>2026-05-16T10:34:04+02:00</time>
      </trkpt>
      <trkpt lat="47.53163" lon="5.68736">
        <ele>189.7998</ele>
        <time>2026-05-16T10:34:05+02:00</time>
      </trkpt>
      <trkpt lat="47.53159" lon="5.68743">
        <ele>189.2002</ele>
        <time>2026-05-16T10:34:06+02:00</time>
      </trkpt>
      <trkpt lat="47.53155" lon="5.68749">
        <ele>189.2002</ele>
        <time>2026-05-16T10:34:07+02:00</time>
      </trkpt>
      <trkpt lat="47.53152" lon="5.68756">
        <ele>189.2002</ele>
        <time>2026-05-16T10:34:08+02:00</time>
      </trkpt>
      <trkpt lat="47.5315" lon="5.68764">
        <ele>189.40039</ele>
        <time>2026-05-16T10:34:09+02:00</time>
      </trkpt>
      <trkpt lat="47.53147" lon="5.68771">
        <ele>189</ele>
        <time>2026-05-16T10:34:10+02:00</time>
      </trkpt>
      <trkpt lat="47.53145" lon="5.68778">
        <ele>189</ele>
        <time>2026-05-16T10:34:11+02:00</time>
      </trkpt>
      <trkpt lat="47.53144" lon="5.68785">
        <ele>188.5</ele>
        <time>2026-05-16T10:34:12+02:00</time>
      </trkpt>
      <trkpt lat="47.53142" lon="5.68792">
        <ele>188.40039</ele>
        <time>2026-05-16T10:34:13+02:00</time>
      </trkpt>
      <trkpt lat="47.5314" lon="5.688">
        <ele>188.5</ele>
        <time>2026-05-16T10:34:14+02:00</time>
      </trkpt>
      <trkpt lat="47.53137" lon="5.68807">
        <ele>188.5</ele>
        <time>2026-05-16T10:34:15+02:00</time>
      </trkpt>
      <trkpt lat="47.53134" lon="5.68814">
        <ele>188.5</ele>
        <time>2026-05-16T10:34:16+02:00</time>
      </trkpt>
      <trkpt lat="47.5313" lon="5.6882">
        <ele>188.40039</ele>
        <time>2026-05-16T10:34:17+02:00</time>
      </trkpt>
      <trkpt lat="47.53126" lon="5.68825">
        <ele>188.5</ele>
        <time>2026-05-16T10:34:18+02:00</time>
      </trkpt>
      <trkpt lat="47.53122" lon="5.68831">
        <ele>188.40039</ele>
        <time>2026-05-16T10:34:19+02:00</time>
      </trkpt>
      <trkpt lat="47.53118" lon="5.68837">
        <ele>188.2998</ele>
        <time>2026-05-16T10:34:20+02:00</time>
      </trkpt>
      <trkpt lat="47.53115" lon="5.68844">
        <ele>188.90039</ele>
        <time>2026-05-16T10:34:21+02:00</time>
      </trkpt>
      <trkpt lat="47.53112" lon="5.68851">
        <ele>188.90039</ele>
        <time>2026-05-16T10:34:22+02:00</time>
      </trkpt>
      <trkpt lat="47.53109" lon="5.68859">
        <ele>189.7002</ele>
        <time>2026-05-16T10:34:23+02:00</time>
      </trkpt>
      <trkpt lat="47.53106" lon="5.68866">
        <ele>189.60059</ele>
        <time>2026-05-16T10:34:24+02:00</time>
      </trkpt>
      <trkpt lat="47.53103" lon="5.68873">
        <ele>190.2002</ele>
        <time>2026-05-16T10:34:25+02:00</time>
      </trkpt>
      <trkpt lat="47.531" lon="5.6888">
        <ele>190</ele>
        <time>2026-05-16T10:34:26+02:00</time>
      </trkpt>
      <trkpt lat="47.53097" lon="5.68887">
        <ele>190.60059</ele>
        <time>2026-05-16T10:34:27+02:00</time>
      </trkpt>
      <trkpt lat="47.53095" lon="5.68894">
        <ele>190.60059</ele>
        <time>2026-05-16T10:34:28+02:00</time>
      </trkpt>
      <trkpt lat="47.53092" lon="5.68901">
        <ele>190.90039</ele>
        <time>2026-05-16T10:34:29+02:00</time>
      </trkpt>
      <trkpt lat="47.53089" lon="5.68908">
        <ele>190.40039</ele>
        <time>2026-05-16T10:34:30+02:00</time>
      </trkpt>
      <trkpt lat="47.53087" lon="5.68915">
        <ele>190.5</ele>
        <time>2026-05-16T10:34:31+02:00</time>
      </trkpt>
      <trkpt lat="47.53084" lon="5.68922">
        <ele>190.10059</ele>
        <time>2026-05-16T10:34:32+02:00</time>
      </trkpt>
      <trkpt lat="47.53081" lon="5.68929">
        <ele>190.5</ele>
        <time>2026-05-16T10:34:33+02:00</time>
      </trkpt>
      <trkpt lat="47.53078" lon="5.68937">
        <ele>190.5</ele>
        <time>2026-05-16T10:34:34+02:00</time>
      </trkpt>
      <trkpt lat="47.53075" lon="5.68944">
        <ele>190.5</ele>
        <time>2026-05-16T10:34:35+02:00</time>
      </trkpt>
      <trkpt lat="47.53072" lon="5.68951">
        <ele>189.7998</ele>
        <time>2026-05-16T10:34:36+02:00</time>
      </trkpt>
      <trkpt lat="47.53069" lon="5.68959">
        <ele>190.10059</ele>
        <time>2026-05-16T10:34:37+02:00</time>
      </trkpt>
      <trkpt lat="47.53067" lon="5.68966">
        <ele>189.7998</ele>
        <time>2026-05-16T10:34:38+02:00</time>
      </trkpt>
      <trkpt lat="47.53064" lon="5.68973">
        <ele>190.40039</ele>
        <time>2026-05-16T10:34:39+02:00</time>
      </trkpt>
      <trkpt lat="47.53061" lon="5.6898">
        <ele>190.40039</ele>
        <time>2026-05-16T10:34:40+02:00</time>
      </trkpt>
      <trkpt lat="47.53059" lon="5.68987">
        <ele>190.10059</ele>
        <time>2026-05-16T10:34:41+02:00</time>
      </trkpt>
      <trkpt lat="47.53056" lon="5.68994">
        <ele>190.40039</ele>
        <time>2026-05-16T10:34:42+02:00</time>
      </trkpt>
      <trkpt lat="47.53054" lon="5.69001">
        <ele>190.10059</ele>
        <time>2026-05-16T10:34:43+02:00</time>
      </trkpt>
      <trkpt lat="47.53051" lon="5.69008">
        <ele>190.40039</ele>
        <time>2026-05-16T10:34:44+02:00</time>
      </trkpt>
      <trkpt lat="47.53048" lon="5.69015">
        <ele>189.90039</ele>
        <time>2026-05-16T10:34:45+02:00</time>
      </trkpt>
      <trkpt lat="47.53045" lon="5.69022">
        <ele>190.7002</ele>
        <time>2026-05-16T10:34:46+02:00</time>
      </trkpt>
      <trkpt lat="47.53043" lon="5.69029">
        <ele>190.2002</ele>
        <time>2026-05-16T10:34:47+02:00</time>
      </trkpt>
      <trkpt lat="47.53032" lon="5.69045">
        <ele>190.7002</ele>
        <time>2026-05-16T10:34:48+02:00</time>
      </trkpt>
      <trkpt lat="47.53028" lon="5.69048">
        <ele>191.5</ele>
        <time>2026-05-16T10:34:49+02:00</time>
      </trkpt>
      <trkpt lat="47.53024" lon="5.69051">
        <ele>191.5</ele>
        <time>2026-05-16T10:34:50+02:00</time>
      </trkpt>
      <trkpt lat="47.5302" lon="5.69054">
        <ele>191.5</ele>
        <time>2026-05-16T10:34:51+02:00</time>
      </trkpt>
      <trkpt lat="47.53016" lon="5.69056">
        <ele>192.40039</ele>
        <time>2026-05-16T10:34:52+02:00</time>
      </trkpt>
      <trkpt lat="47.53013" lon="5.6906">
        <ele>191.7998</ele>
        <time>2026-05-16T10:34:53+02:00</time>
      </trkpt>
      <trkpt lat="47.5301" lon="5.69063">
        <ele>192.7998</ele>
        <time>2026-05-16T10:34:54+02:00</time>
      </trkpt>
      <trkpt lat="47.53008" lon="5.69067">
        <ele>192</ele>
        <time>2026-05-16T10:34:55+02:00</time>
      </trkpt>
      <trkpt lat="47.53005" lon="5.6907">
        <ele>192.7998</ele>
        <time>2026-05-16T10:34:56+02:00</time>
      </trkpt>
      <trkpt lat="47.53002" lon="5.69074">
        <ele>192.7998</ele>
        <time>2026-05-16T10:34:57+02:00</time>
      </trkpt>
      <trkpt lat="47.52999" lon="5.69077">
        <ele>192.7998</ele>
        <time>2026-05-16T10:34:58+02:00</time>
      </trkpt>
      <trkpt lat="47.52996" lon="5.69079">
        <ele>192.7998</ele>
        <time>2026-05-16T10:34:59+02:00</time>
      </trkpt>
      <trkpt lat="47.52994" lon="5.69082">
        <ele>193.7002</ele>
        <time>2026-05-16T10:35:00+02:00</time>
      </trkpt>
      <trkpt lat="47.52991" lon="5.69084">
        <ele>192.90039</ele>
        <time>2026-05-16T10:35:01+02:00</time>
      </trkpt>
      <trkpt lat="47.52989" lon="5.69086">
        <ele>194</ele>
        <time>2026-05-16T10:35:02+02:00</time>
      </trkpt>
      <trkpt lat="47.52987" lon="5.69088">
        <ele>194</ele>
        <time>2026-05-16T10:35:03+02:00</time>
      </trkpt>
      <trkpt lat="47.52986" lon="5.6909">
        <ele>194</ele>
        <time>2026-05-16T10:35:04+02:00</time>
      </trkpt>
      <trkpt lat="47.52985" lon="5.69093">
        <ele>193</ele>
        <time>2026-05-16T10:35:05+02:00</time>
      </trkpt>
      <trkpt lat="47.52984" lon="5.69095">
        <ele>193</ele>
        <time>2026-05-16T10:35:06+02:00</time>
      </trkpt>
      <trkpt lat="47.52985" lon="5.69099">
        <ele>193</ele>
        <time>2026-05-16T10:35:07+02:00</time>
      </trkpt>
      <trkpt lat="47.52986" lon="5.69102">
        <ele>192.2002</ele>
        <time>2026-05-16T10:35:08+02:00</time>
      </trkpt>
      <trkpt lat="47.52989" lon="5.69106">
        <ele>192.2002</ele>
        <time>2026-05-16T10:35:09+02:00</time>
      </trkpt>
      <trkpt lat="47.52991" lon="5.6911">
        <ele>190.7002</ele>
        <time>2026-05-16T10:35:10+02:00</time>
      </trkpt>
      <trkpt lat="47.52993" lon="5.69113">
        <ele>190.7002</ele>
        <time>2026-05-16T10:35:11+02:00</time>
      </trkpt>
      <trkpt lat="47.52996" lon="5.69117">
        <ele>190.10059</ele>
        <time>2026-05-16T10:35:12+02:00</time>
      </trkpt>
      <trkpt lat="47.52999" lon="5.69121">
        <ele>189.2998</ele>
        <time>2026-05-16T10:35:13+02:00</time>
      </trkpt>
      <trkpt lat="47.53002" lon="5.69126">
        <ele>188.7998</ele>
        <time>2026-05-16T10:35:14+02:00</time>
      </trkpt>
      <trkpt lat="47.53005" lon="5.6913">
        <ele>188.2998</ele>
        <time>2026-05-16T10:35:15+02:00</time>
      </trkpt>
      <trkpt lat="47.53008" lon="5.69134">
        <ele>188.2998</ele>
        <time>2026-05-16T10:35:16+02:00</time>
      </trkpt>
      <trkpt lat="47.53011" lon="5.69139">
        <ele>188.40039</ele>
        <time>2026-05-16T10:35:17+02:00</time>
      </trkpt>
      <trkpt lat="47.53014" lon="5.69143">
        <ele>188.40039</ele>
        <time>2026-05-16T10:35:18+02:00</time>
      </trkpt>
      <trkpt lat="47.53017" lon="5.69148">
        <ele>188.40039</ele>
        <time>2026-05-16T10:35:19+02:00</time>
      </trkpt>
      <trkpt lat="47.5302" lon="5.69153">
        <ele>188.40039</ele>
        <time>2026-05-16T10:35:20+02:00</time>
      </trkpt>
      <trkpt lat="47.53024" lon="5.69158">
        <ele>188.40039</ele>
        <time>2026-05-16T10:35:21+02:00</time>
      </trkpt>
      <trkpt lat="47.53027" lon="5.69164">
        <ele>188.40039</ele>
        <time>2026-05-16T10:35:22+02:00</time>
      </trkpt>
      <trkpt lat="47.53031" lon="5.69169">
        <ele>188.40039</ele>
        <time>2026-05-16T10:35:23+02:00</time>
      </trkpt>
      <trkpt lat="47.53034" lon="5.69174">
        <ele>188.40039</ele>
        <time>2026-05-16T10:35:24+02:00</time>
      </trkpt>
      <trkpt lat="47.53038" lon="5.69179">
        <ele>188.40039</ele>
        <time>2026-05-16T10:35:25+02:00</time>
      </trkpt>
      <trkpt lat="47.53042" lon="5.69184">
        <ele>188.40039</ele>
        <time>2026-05-16T10:35:26+02:00</time>
      </trkpt>
      <trkpt lat="47.53045" lon="5.69189">
        <ele>188.40039</ele>
        <time>2026-05-16T10:35:27+02:00</time>
      </trkpt>
      <trkpt lat="47.53049" lon="5.69194">
        <ele>188.5</ele>
        <time>2026-05-16T10:35:28+02:00</time>
      </trkpt>
      <trkpt lat="47.53052" lon="5.69199">
        <ele>188.60059</ele>
        <time>2026-05-16T10:35:29+02:00</time>
      </trkpt>
      <trkpt lat="47.53056" lon="5.69204">
        <ele>189.2998</ele>
        <time>2026-05-16T10:35:30+02:00</time>
      </trkpt>
      <trkpt lat="47.5306" lon="5.6921">
        <ele>189.60059</ele>
        <time>2026-05-16T10:35:31+02:00</time>
      </trkpt>
      <trkpt lat="47.53064" lon="5.69215">
        <ele>190</ele>
        <time>2026-05-16T10:35:32+02:00</time>
      </trkpt>
      <trkpt lat="47.53068" lon="5.69221">
        <ele>191</ele>
        <time>2026-05-16T10:35:33+02:00</time>
      </trkpt>
      <trkpt lat="47.53072" lon="5.69227">
        <ele>191.7002</ele>
        <time>2026-05-16T10:35:34+02:00</time>
      </trkpt>
      <trkpt lat="47.53076" lon="5.69233">
        <ele>192.2002</ele>
        <time>2026-05-16T10:35:35+02:00</time>
      </trkpt>
      <trkpt lat="47.5308" lon="5.69239">
        <ele>193.60059</ele>
        <time>2026-05-16T10:35:36+02:00</time>
      </trkpt>
      <trkpt lat="47.53084" lon="5.69245">
        <ele>194.2002</ele>
        <time>2026-05-16T10:35:37+02:00</time>
      </trkpt>
      <trkpt lat="47.53088" lon="5.69251">
        <ele>194.2998</ele>
        <time>2026-05-16T10:35:38+02:00</time>
      </trkpt>
      <trkpt lat="47.53092" lon="5.69257">
        <ele>194</ele>
        <time>2026-05-16T10:35:39+02:00</time>
      </trkpt>
      <trkpt lat="47.53097" lon="5.69263">
        <ele>193.7998</ele>
        <time>2026-05-16T10:35:40+02:00</time>
      </trkpt>
      <trkpt lat="47.53101" lon="5.69269">
        <ele>193.60059</ele>
        <time>2026-05-16T10:35:41+02:00</time>
      </trkpt>
      <trkpt lat="47.53105" lon="5.69275">
        <ele>193.5</ele>
        <time>2026-05-16T10:35:42+02:00</time>
      </trkpt>
      <trkpt lat="47.53109" lon="5.69281">
        <ele>193.40039</ele>
        <time>2026-05-16T10:35:43+02:00</time>
      </trkpt>
      <trkpt lat="47.53113" lon="5.69287">
        <ele>193.2998</ele>
        <time>2026-05-16T10:35:44+02:00</time>
      </trkpt>
      <trkpt lat="47.53117" lon="5.69293">
        <ele>193.2998</ele>
        <time>2026-05-16T10:35:45+02:00</time>
      </trkpt>
      <trkpt lat="47.53121" lon="5.693">
        <ele>193.2998</ele>
        <time>2026-05-16T10:35:46+02:00</time>
      </trkpt>
      <trkpt lat="47.53125" lon="5.69306">
        <ele>193.2002</ele>
        <time>2026-05-16T10:35:47+02:00</time>
      </trkpt>
      <trkpt lat="47.5313" lon="5.69313">
        <ele>193.2002</ele>
        <time>2026-05-16T10:35:48+02:00</time>
      </trkpt>
      <trkpt lat="47.53134" lon="5.6932">
        <ele>193.2002</ele>
        <time>2026-05-16T10:35:49+02:00</time>
      </trkpt>
      <trkpt lat="47.53138" lon="5.69327">
        <ele>193.2998</ele>
        <time>2026-05-16T10:35:50+02:00</time>
      </trkpt>
      <trkpt lat="47.53143" lon="5.69335">
        <ele>193.2998</ele>
        <time>2026-05-16T10:35:51+02:00</time>
      </trkpt>
      <trkpt lat="47.53147" lon="5.69342">
        <ele>193.40039</ele>
        <time>2026-05-16T10:35:52+02:00</time>
      </trkpt>
      <trkpt lat="47.53151" lon="5.6935">
        <ele>193.5</ele>
        <time>2026-05-16T10:35:53+02:00</time>
      </trkpt>
      <trkpt lat="47.53156" lon="5.69357">
        <ele>193.5</ele>
        <time>2026-05-16T10:35:54+02:00</time>
      </trkpt>
      <trkpt lat="47.5316" lon="5.69364">
        <ele>193.5</ele>
        <time>2026-05-16T10:35:55+02:00</time>
      </trkpt>
      <trkpt lat="47.53164" lon="5.69372">
        <ele>193.60059</ele>
        <time>2026-05-16T10:35:56+02:00</time>
      </trkpt>
      <trkpt lat="47.53168" lon="5.69379">
        <ele>193.7002</ele>
        <time>2026-05-16T10:35:57+02:00</time>
      </trkpt>
      <trkpt lat="47.53172" lon="5.69386">
        <ele>193.7998</ele>
        <time>2026-05-16T10:35:58+02:00</time>
      </trkpt>
      <trkpt lat="47.53176" lon="5.69393">
        <ele>193.7998</ele>
        <time>2026-05-16T10:35:59+02:00</time>
      </trkpt>
      <trkpt lat="47.5318" lon="5.694">
        <ele>193.7998</ele>
        <time>2026-05-16T10:36:00+02:00</time>
      </trkpt>
      <trkpt lat="47.53184" lon="5.69407">
        <ele>193.90039</ele>
        <time>2026-05-16T10:36:01+02:00</time>
      </trkpt>
      <trkpt lat="47.53188" lon="5.69414">
        <ele>193.90039</ele>
        <time>2026-05-16T10:36:02+02:00</time>
      </trkpt>
      <trkpt lat="47.53192" lon="5.69421">
        <ele>194</ele>
        <time>2026-05-16T10:36:03+02:00</time>
      </trkpt>
      <trkpt lat="47.53196" lon="5.69428">
        <ele>194.10059</ele>
        <time>2026-05-16T10:36:04+02:00</time>
      </trkpt>
      <trkpt lat="47.532" lon="5.69436">
        <ele>194.2002</ele>
        <time>2026-05-16T10:36:05+02:00</time>
      </trkpt>
      <trkpt lat="47.53203" lon="5.69443">
        <ele>194.2002</ele>
        <time>2026-05-16T10:36:06+02:00</time>
      </trkpt>
      <trkpt lat="47.53207" lon="5.6945">
        <ele>194.40039</ele>
        <time>2026-05-16T10:36:07+02:00</time>
      </trkpt>
      <trkpt lat="47.53211" lon="5.69457">
        <ele>194.60059</ele>
        <time>2026-05-16T10:36:08+02:00</time>
      </trkpt>
      <trkpt lat="47.53214" lon="5.69465">
        <ele>194.7998</ele>
        <time>2026-05-16T10:36:09+02:00</time>
      </trkpt>
      <trkpt lat="47.53218" lon="5.69472">
        <ele>195</ele>
        <time>2026-05-16T10:36:10+02:00</time>
      </trkpt>
      <trkpt lat="47.53222" lon="5.69479">
        <ele>195.2998</ele>
        <time>2026-05-16T10:36:11+02:00</time>
      </trkpt>
      <trkpt lat="47.53225" lon="5.69486">
        <ele>195.2998</ele>
        <time>2026-05-16T10:36:12+02:00</time>
      </trkpt>
      <trkpt lat="47.53229" lon="5.69493">
        <ele>195.5</ele>
        <time>2026-05-16T10:36:13+02:00</time>
      </trkpt>
      <trkpt lat="47.53232" lon="5.69501">
        <ele>195.7002</ele>
        <time>2026-05-16T10:36:14+02:00</time>
      </trkpt>
      <trkpt lat="47.53236" lon="5.69508">
        <ele>195.90039</ele>
        <time>2026-05-16T10:36:15+02:00</time>
      </trkpt>
      <trkpt lat="47.53239" lon="5.69514">
        <ele>196</ele>
        <time>2026-05-16T10:36:16+02:00</time>
      </trkpt>
      <trkpt lat="47.53242" lon="5.69521">
        <ele>196</ele>
        <time>2026-05-16T10:36:17+02:00</time>
      </trkpt>
      <trkpt lat="47.53245" lon="5.69528">
        <ele>196</ele>
        <time>2026-05-16T10:36:18+02:00</time>
      </trkpt>
      <trkpt lat="47.53249" lon="5.69535">
        <ele>196.10059</ele>
        <time>2026-05-16T10:36:19+02:00</time>
      </trkpt>
      <trkpt lat="47.53253" lon="5.69541">
        <ele>196.10059</ele>
        <time>2026-05-16T10:36:20+02:00</time>
      </trkpt>
      <trkpt lat="47.53256" lon="5.69547">
        <ele>196.10059</ele>
        <time>2026-05-16T10:36:21+02:00</time>
      </trkpt>
      <trkpt lat="47.5326" lon="5.69552">
        <ele>196.10059</ele>
        <time>2026-05-16T10:36:22+02:00</time>
      </trkpt>
      <trkpt lat="47.53264" lon="5.69557">
        <ele>196.2002</ele>
        <time>2026-05-16T10:36:23+02:00</time>
      </trkpt>
      <trkpt lat="47.53268" lon="5.69561">
        <ele>196.2002</ele>
        <time>2026-05-16T10:36:24+02:00</time>
      </trkpt>
      <trkpt lat="47.53272" lon="5.69565">
        <ele>196.2002</ele>
        <time>2026-05-16T10:36:25+02:00</time>
      </trkpt>
      <trkpt lat="47.53275" lon="5.69569">
        <ele>196.2002</ele>
        <time>2026-05-16T10:36:26+02:00</time>
      </trkpt>
      <trkpt lat="47.53277" lon="5.69572">
        <ele>196.2002</ele>
        <time>2026-05-16T10:36:27+02:00</time>
      </trkpt>
      <trkpt lat="47.53277" lon="5.69575">
        <ele>196.2002</ele>
        <time>2026-05-16T10:36:28+02:00</time>
      </trkpt>
      <trkpt lat="47.53275" lon="5.69577">
        <ele>196.2002</ele>
        <time>2026-05-16T10:36:29+02:00</time>
      </trkpt>
      <trkpt lat="47.53274" lon="5.69578">
        <ele>196.2002</ele>
        <time>2026-05-16T10:36:30+02:00</time>
      </trkpt>
      <trkpt lat="47.53272" lon="5.69579">
        <ele>196.2002</ele>
        <time>2026-05-16T10:36:31+02:00</time>
      </trkpt>
      <trkpt lat="47.53271" lon="5.69579">
        <ele>196.2002</ele>
        <time>2026-05-16T10:36:32+02:00</time>
      </trkpt>
      <trkpt lat="47.53271" lon="5.69579">
        <ele>196.2002</ele>
        <time>2026-05-16T10:36:33+02:00</time>
      </trkpt>
      <trkpt lat="47.53271" lon="5.69579">
        <ele>196.2002</ele>
        <time>2026-05-16T10:36:34+02:00</time>
      </trkpt>
      <trkpt lat="47.53271" lon="5.69579">
        <ele>196.2002</ele>
        <time>2026-05-16T10:36:35+02:00</time>
      </trkpt>
      <trkpt lat="47.53271" lon="5.69579">
        <ele>196.2002</ele>
        <time>2026-05-16T10:36:36+02:00</time>
      </trkpt>
      <trkpt lat="47.53253" lon="5.69585">
        <ele>196.2002</ele>
        <time>2026-05-16T10:36:57+02:00</time>
      </trkpt>
      <trkpt lat="47.53249" lon="5.69585">
        <ele>196.10059</ele>
        <time>2026-05-16T10:36:58+02:00</time>
      </trkpt>
      <trkpt lat="47.53244" lon="5.69585">
        <ele>196</ele>
        <time>2026-05-16T10:36:59+02:00</time>
      </trkpt>
      <trkpt lat="47.53238" lon="5.69585">
        <ele>195.90039</ele>
        <time>2026-05-16T10:37:00+02:00</time>
      </trkpt>
      <trkpt lat="47.53233" lon="5.69584">
        <ele>195.90039</ele>
        <time>2026-05-16T10:37:01+02:00</time>
      </trkpt>
      <trkpt lat="47.53228" lon="5.69584">
        <ele>195.7998</ele>
        <time>2026-05-16T10:37:02+02:00</time>
      </trkpt>
      <trkpt lat="47.53222" lon="5.69584">
        <ele>195.7002</ele>
        <time>2026-05-16T10:37:03+02:00</time>
      </trkpt>
      <trkpt lat="47.53217" lon="5.69584">
        <ele>195.60059</ele>
        <time>2026-05-16T10:37:04+02:00</time>
      </trkpt>
      <trkpt lat="47.53212" lon="5.69585">
        <ele>195.5</ele>
        <time>2026-05-16T10:37:05+02:00</time>
      </trkpt>
      <trkpt lat="47.53207" lon="5.69585">
        <ele>195.2998</ele>
        <time>2026-05-16T10:37:06+02:00</time>
      </trkpt>
      <trkpt lat="47.53201" lon="5.69586">
        <ele>195.2002</ele>
        <time>2026-05-16T10:37:07+02:00</time>
      </trkpt>
      <trkpt lat="47.53196" lon="5.69586">
        <ele>195</ele>
        <time>2026-05-16T10:37:08+02:00</time>
      </trkpt>
      <trkpt lat="47.5319" lon="5.69587">
        <ele>194.90039</ele>
        <time>2026-05-16T10:37:09+02:00</time>
      </trkpt>
      <trkpt lat="47.53185" lon="5.69587">
        <ele>194.7998</ele>
        <time>2026-05-16T10:37:10+02:00</time>
      </trkpt>
      <trkpt lat="47.53179" lon="5.69588">
        <ele>194.7002</ele>
        <time>2026-05-16T10:37:11+02:00</time>
      </trkpt>
      <trkpt lat="47.53174" lon="5.69589">
        <ele>194.60059</ele>
        <time>2026-05-16T10:37:12+02:00</time>
      </trkpt>
      <trkpt lat="47.53168" lon="5.6959">
        <ele>194.5</ele>
        <time>2026-05-16T10:37:13+02:00</time>
      </trkpt>
      <trkpt lat="47.53162" lon="5.69591">
        <ele>194.40039</ele>
        <time>2026-05-16T10:37:14+02:00</time>
      </trkpt>
      <trkpt lat="47.53156" lon="5.69592">
        <ele>194.2998</ele>
        <time>2026-05-16T10:37:15+02:00</time>
      </trkpt>
      <trkpt lat="47.53151" lon="5.69594">
        <ele>194.2998</ele>
        <time>2026-05-16T10:37:16+02:00</time>
      </trkpt>
      <trkpt lat="47.53145" lon="5.69596">
        <ele>194.2998</ele>
        <time>2026-05-16T10:37:17+02:00</time>
      </trkpt>
      <trkpt lat="47.5314" lon="5.69597">
        <ele>194.2998</ele>
        <time>2026-05-16T10:37:18+02:00</time>
      </trkpt>
      <trkpt lat="47.53134" lon="5.696">
        <ele>194.2998</ele>
        <time>2026-05-16T10:37:19+02:00</time>
      </trkpt>
      <trkpt lat="47.53129" lon="5.69603">
        <ele>194.2998</ele>
        <time>2026-05-16T10:37:20+02:00</time>
      </trkpt>
      <trkpt lat="47.53123" lon="5.69606">
        <ele>194.2998</ele>
        <time>2026-05-16T10:37:21+02:00</time>
      </trkpt>
      <trkpt lat="47.53118" lon="5.69609">
        <ele>194.2998</ele>
        <time>2026-05-16T10:37:22+02:00</time>
      </trkpt>
      <trkpt lat="47.53113" lon="5.69613">
        <ele>194.2998</ele>
        <time>2026-05-16T10:37:23+02:00</time>
      </trkpt>
      <trkpt lat="47.53108" lon="5.69617">
        <ele>194.2998</ele>
        <time>2026-05-16T10:37:24+02:00</time>
      </trkpt>
      <trkpt lat="47.53102" lon="5.69621">
        <ele>194.2998</ele>
        <time>2026-05-16T10:37:25+02:00</time>
      </trkpt>
      <trkpt lat="47.53097" lon="5.69626">
        <ele>194.2998</ele>
        <time>2026-05-16T10:37:26+02:00</time>
      </trkpt>
      <trkpt lat="47.53092" lon="5.6963">
        <ele>194.2998</ele>
        <time>2026-05-16T10:37:27+02:00</time>
      </trkpt>
      <trkpt lat="47.53087" lon="5.69634">
        <ele>194.2998</ele>
        <time>2026-05-16T10:37:28+02:00</time>
      </trkpt>
      <trkpt lat="47.53082" lon="5.69639">
        <ele>194.2998</ele>
        <time>2026-05-16T10:37:29+02:00</time>
      </trkpt>
      <trkpt lat="47.53077" lon="5.69643">
        <ele>194.40039</ele>
        <time>2026-05-16T10:37:30+02:00</time>
      </trkpt>
      <trkpt lat="47.53071" lon="5.69648">
        <ele>194.40039</ele>
        <time>2026-05-16T10:37:31+02:00</time>
      </trkpt>
      <trkpt lat="47.53066" lon="5.69652">
        <ele>194.5</ele>
        <time>2026-05-16T10:37:32+02:00</time>
      </trkpt>
      <trkpt lat="47.53061" lon="5.69656">
        <ele>194.5</ele>
        <time>2026-05-16T10:37:33+02:00</time>
      </trkpt>
      <trkpt lat="47.53056" lon="5.69661">
        <ele>194.60059</ele>
        <time>2026-05-16T10:37:34+02:00</time>
      </trkpt>
      <trkpt lat="47.5305" lon="5.69665">
        <ele>194.7002</ele>
        <time>2026-05-16T10:37:35+02:00</time>
      </trkpt>
      <trkpt lat="47.53045" lon="5.6967">
        <ele>194.7998</ele>
        <time>2026-05-16T10:37:36+02:00</time>
      </trkpt>
      <trkpt lat="47.5304" lon="5.69674">
        <ele>194.90039</ele>
        <time>2026-05-16T10:37:37+02:00</time>
      </trkpt>
      <trkpt lat="47.53035" lon="5.69678">
        <ele>195</ele>
        <time>2026-05-16T10:37:38+02:00</time>
      </trkpt>
      <trkpt lat="47.5303" lon="5.69683">
        <ele>195</ele>
        <time>2026-05-16T10:37:39+02:00</time>
      </trkpt>
      <trkpt lat="47.53025" lon="5.69687">
        <ele>195.2002</ele>
        <time>2026-05-16T10:37:40+02:00</time>
      </trkpt>
      <trkpt lat="47.53019" lon="5.69691">
        <ele>195.2002</ele>
        <time>2026-05-16T10:37:41+02:00</time>
      </trkpt>
      <trkpt lat="47.53015" lon="5.69695">
        <ele>195.40039</ele>
        <time>2026-05-16T10:37:42+02:00</time>
      </trkpt>
      <trkpt lat="47.53009" lon="5.69699">
        <ele>195.40039</ele>
        <time>2026-05-16T10:37:43+02:00</time>
      </trkpt>
      <trkpt lat="47.53004" lon="5.69704">
        <ele>195.5</ele>
        <time>2026-05-16T10:37:44+02:00</time>
      </trkpt>
      <trkpt lat="47.52999" lon="5.69708">
        <ele>195.5</ele>
        <time>2026-05-16T10:37:45+02:00</time>
      </trkpt>
      <trkpt lat="47.52994" lon="5.69712">
        <ele>195.5</ele>
        <time>2026-05-16T10:37:46+02:00</time>
      </trkpt>
      <trkpt lat="47.52989" lon="5.69715">
        <ele>195.2998</ele>
        <time>2026-05-16T10:37:47+02:00</time>
      </trkpt>
      <trkpt lat="47.52983" lon="5.69719">
        <ele>195.2002</ele>
        <time>2026-05-16T10:37:48+02:00</time>
      </trkpt>
      <trkpt lat="47.52978" lon="5.69722">
        <ele>195.2002</ele>
        <time>2026-05-16T10:37:49+02:00</time>
      </trkpt>
      <trkpt lat="47.52973" lon="5.69726">
        <ele>195</ele>
        <time>2026-05-16T10:37:50+02:00</time>
      </trkpt>
      <trkpt lat="47.52967" lon="5.69729">
        <ele>194.7998</ele>
        <time>2026-05-16T10:37:51+02:00</time>
      </trkpt>
      <trkpt lat="47.52962" lon="5.69732">
        <ele>194.60059</ele>
        <time>2026-05-16T10:37:52+02:00</time>
      </trkpt>
      <trkpt lat="47.52957" lon="5.69735">
        <ele>194.40039</ele>
        <time>2026-05-16T10:37:53+02:00</time>
      </trkpt>
      <trkpt lat="47.52952" lon="5.69739">
        <ele>194.2002</ele>
        <time>2026-05-16T10:37:54+02:00</time>
      </trkpt>
      <trkpt lat="47.52946" lon="5.69742">
        <ele>194</ele>
        <time>2026-05-16T10:37:55+02:00</time>
      </trkpt>
      <trkpt lat="47.52941" lon="5.69745">
        <ele>193.7998</ele>
        <time>2026-05-16T10:37:56+02:00</time>
      </trkpt>
      <trkpt lat="47.52936" lon="5.69748">
        <ele>193.60059</ele>
        <time>2026-05-16T10:37:57+02:00</time>
      </trkpt>
      <trkpt lat="47.5293" lon="5.69752">
        <ele>193.40039</ele>
        <time>2026-05-16T10:37:58+02:00</time>
      </trkpt>
      <trkpt lat="47.52925" lon="5.69755">
        <ele>193.2002</ele>
        <time>2026-05-16T10:37:59+02:00</time>
      </trkpt>
      <trkpt lat="47.5292" lon="5.69758">
        <ele>193.2002</ele>
        <time>2026-05-16T10:38:00+02:00</time>
      </trkpt>
      <trkpt lat="47.52914" lon="5.69761">
        <ele>193</ele>
        <time>2026-05-16T10:38:01+02:00</time>
      </trkpt>
      <trkpt lat="47.52909" lon="5.69765">
        <ele>193</ele>
        <time>2026-05-16T10:38:02+02:00</time>
      </trkpt>
      <trkpt lat="47.52904" lon="5.69768">
        <ele>192.90039</ele>
        <time>2026-05-16T10:38:03+02:00</time>
      </trkpt>
      <trkpt lat="47.52899" lon="5.69771">
        <ele>192.90039</ele>
        <time>2026-05-16T10:38:04+02:00</time>
      </trkpt>
      <trkpt lat="47.52893" lon="5.69774">
        <ele>193</ele>
        <time>2026-05-16T10:38:05+02:00</time>
      </trkpt>
      <trkpt lat="47.52888" lon="5.69777">
        <ele>193</ele>
        <time>2026-05-16T10:38:06+02:00</time>
      </trkpt>
      <trkpt lat="47.52883" lon="5.69781">
        <ele>193.10059</ele>
        <time>2026-05-16T10:38:07+02:00</time>
      </trkpt>
      <trkpt lat="47.52878" lon="5.69784">
        <ele>193.2002</ele>
        <time>2026-05-16T10:38:08+02:00</time>
      </trkpt>
      <trkpt lat="47.52873" lon="5.69787">
        <ele>193.2002</ele>
        <time>2026-05-16T10:38:09+02:00</time>
      </trkpt>
      <trkpt lat="47.52867" lon="5.6979">
        <ele>193.2998</ele>
        <time>2026-05-16T10:38:10+02:00</time>
      </trkpt>
      <trkpt lat="47.52862" lon="5.69794">
        <ele>193.2998</ele>
        <time>2026-05-16T10:38:11+02:00</time>
      </trkpt>
      <trkpt lat="47.52857" lon="5.69797">
        <ele>193.40039</ele>
        <time>2026-05-16T10:38:12+02:00</time>
      </trkpt>
      <trkpt lat="47.52852" lon="5.698">
        <ele>193.40039</ele>
        <time>2026-05-16T10:38:13+02:00</time>
      </trkpt>
      <trkpt lat="47.52847" lon="5.69803">
        <ele>193.5</ele>
        <time>2026-05-16T10:38:14+02:00</time>
      </trkpt>
      <trkpt lat="47.52842" lon="5.69807">
        <ele>193.5</ele>
        <time>2026-05-16T10:38:15+02:00</time>
      </trkpt>
      <trkpt lat="47.52837" lon="5.6981">
        <ele>193.5</ele>
        <time>2026-05-16T10:38:16+02:00</time>
      </trkpt>
      <trkpt lat="47.52831" lon="5.69813">
        <ele>193.5</ele>
        <time>2026-05-16T10:38:17+02:00</time>
      </trkpt>
      <trkpt lat="47.52826" lon="5.69816">
        <ele>193.5</ele>
        <time>2026-05-16T10:38:18+02:00</time>
      </trkpt>
      <trkpt lat="47.52821" lon="5.69819">
        <ele>193.5</ele>
        <time>2026-05-16T10:38:19+02:00</time>
      </trkpt>
      <trkpt lat="47.52816" lon="5.69822">
        <ele>193.40039</ele>
        <time>2026-05-16T10:38:20+02:00</time>
      </trkpt>
      <trkpt lat="47.52811" lon="5.69825">
        <ele>193.5</ele>
        <time>2026-05-16T10:38:21+02:00</time>
      </trkpt>
      <trkpt lat="47.52805" lon="5.69828">
        <ele>193.5</ele>
        <time>2026-05-16T10:38:22+02:00</time>
      </trkpt>
      <trkpt lat="47.52801" lon="5.69831">
        <ele>193.5</ele>
        <time>2026-05-16T10:38:23+02:00</time>
      </trkpt>
      <trkpt lat="47.52796" lon="5.69834">
        <ele>193.5</ele>
        <time>2026-05-16T10:38:24+02:00</time>
      </trkpt>
      <trkpt lat="47.5279" lon="5.69837">
        <ele>193.5</ele>
        <time>2026-05-16T10:38:25+02:00</time>
      </trkpt>
      <trkpt lat="47.52785" lon="5.6984">
        <ele>193.60059</ele>
        <time>2026-05-16T10:38:26+02:00</time>
      </trkpt>
      <trkpt lat="47.5278" lon="5.69843">
        <ele>193.60059</ele>
        <time>2026-05-16T10:38:27+02:00</time>
      </trkpt>
      <trkpt lat="47.52775" lon="5.69846">
        <ele>193.60059</ele>
        <time>2026-05-16T10:38:28+02:00</time>
      </trkpt>
      <trkpt lat="47.5277" lon="5.69849">
        <ele>193.7002</ele>
        <time>2026-05-16T10:38:29+02:00</time>
      </trkpt>
      <trkpt lat="47.52765" lon="5.69852">
        <ele>193.7998</ele>
        <time>2026-05-16T10:38:30+02:00</time>
      </trkpt>
      <trkpt lat="47.5276" lon="5.69856">
        <ele>194</ele>
        <time>2026-05-16T10:38:31+02:00</time>
      </trkpt>
      <trkpt lat="47.52755" lon="5.69859">
        <ele>194</ele>
        <time>2026-05-16T10:38:32+02:00</time>
      </trkpt>
      <trkpt lat="47.5275" lon="5.69862">
        <ele>194.10059</ele>
        <time>2026-05-16T10:38:33+02:00</time>
      </trkpt>
      <trkpt lat="47.52745" lon="5.69864">
        <ele>194.2002</ele>
        <time>2026-05-16T10:38:34+02:00</time>
      </trkpt>
      <trkpt lat="47.5274" lon="5.69868">
        <ele>194.40039</ele>
        <time>2026-05-16T10:38:35+02:00</time>
      </trkpt>
      <trkpt lat="47.52735" lon="5.6987">
        <ele>194.40039</ele>
        <time>2026-05-16T10:38:36+02:00</time>
      </trkpt>
      <trkpt lat="47.5273" lon="5.69874">
        <ele>194.7002</ele>
        <time>2026-05-16T10:38:37+02:00</time>
      </trkpt>
      <trkpt lat="47.52726" lon="5.69877">
        <ele>194.7998</ele>
        <time>2026-05-16T10:38:38+02:00</time>
      </trkpt>
      <trkpt lat="47.52722" lon="5.69881">
        <ele>194.90039</ele>
        <time>2026-05-16T10:38:39+02:00</time>
      </trkpt>
      <trkpt lat="47.52718" lon="5.69887">
        <ele>195.10059</ele>
        <time>2026-05-16T10:38:40+02:00</time>
      </trkpt>
      <trkpt lat="47.52715" lon="5.69893">
        <ele>195.2998</ele>
        <time>2026-05-16T10:38:41+02:00</time>
      </trkpt>
      <trkpt lat="47.52713" lon="5.69899">
        <ele>195.40039</ele>
        <time>2026-05-16T10:38:42+02:00</time>
      </trkpt>
      <trkpt lat="47.52711" lon="5.69906">
        <ele>195.5</ele>
        <time>2026-05-16T10:38:43+02:00</time>
      </trkpt>
      <trkpt lat="47.52709" lon="5.69913">
        <ele>195.5</ele>
        <time>2026-05-16T10:38:44+02:00</time>
      </trkpt>
      <trkpt lat="47.52707" lon="5.6992">
        <ele>195.5</ele>
        <time>2026-05-16T10:38:45+02:00</time>
      </trkpt>
      <trkpt lat="47.52705" lon="5.69927">
        <ele>195.5</ele>
        <time>2026-05-16T10:38:46+02:00</time>
      </trkpt>
      <trkpt lat="47.52702" lon="5.69934">
        <ele>195.5</ele>
        <time>2026-05-16T10:38:47+02:00</time>
      </trkpt>
      <trkpt lat="47.527" lon="5.69941">
        <ele>195.5</ele>
        <time>2026-05-16T10:38:48+02:00</time>
      </trkpt>
      <trkpt lat="47.52698" lon="5.69948">
        <ele>195.40039</ele>
        <time>2026-05-16T10:38:49+02:00</time>
      </trkpt>
      <trkpt lat="47.52696" lon="5.69955">
        <ele>195.2998</ele>
        <time>2026-05-16T10:38:50+02:00</time>
      </trkpt>
      <trkpt lat="47.52693" lon="5.69961">
        <ele>195.10059</ele>
        <time>2026-05-16T10:38:51+02:00</time>
      </trkpt>
      <trkpt lat="47.52691" lon="5.69968">
        <ele>194.90039</ele>
        <time>2026-05-16T10:38:52+02:00</time>
      </trkpt>
      <trkpt lat="47.52689" lon="5.69975">
        <ele>194.90039</ele>
        <time>2026-05-16T10:38:53+02:00</time>
      </trkpt>
      <trkpt lat="47.52686" lon="5.69982">
        <ele>193.90039</ele>
        <time>2026-05-16T10:38:54+02:00</time>
      </trkpt>
      <trkpt lat="47.52684" lon="5.69989">
        <ele>193.7998</ele>
        <time>2026-05-16T10:38:55+02:00</time>
      </trkpt>
      <trkpt lat="47.52682" lon="5.69996">
        <ele>192.40039</ele>
        <time>2026-05-16T10:38:56+02:00</time>
      </trkpt>
      <trkpt lat="47.5268" lon="5.70002">
        <ele>192.2998</ele>
        <time>2026-05-16T10:38:57+02:00</time>
      </trkpt>
      <trkpt lat="47.52678" lon="5.70009">
        <ele>192.2998</ele>
        <time>2026-05-16T10:38:58+02:00</time>
      </trkpt>
      <trkpt lat="47.52675" lon="5.70016">
        <ele>191</ele>
        <time>2026-05-16T10:38:59+02:00</time>
      </trkpt>
      <trkpt lat="47.52673" lon="5.70023">
        <ele>190.7998</ele>
        <time>2026-05-16T10:39:00+02:00</time>
      </trkpt>
      <trkpt lat="47.5267" lon="5.70029">
        <ele>189.90039</ele>
        <time>2026-05-16T10:39:01+02:00</time>
      </trkpt>
      <trkpt lat="47.52669" lon="5.70034">
        <ele>189.90039</ele>
        <time>2026-05-16T10:39:02+02:00</time>
      </trkpt>
      <trkpt lat="47.52667" lon="5.70038">
        <ele>189.7002</ele>
        <time>2026-05-16T10:39:03+02:00</time>
      </trkpt>
      <trkpt lat="47.52666" lon="5.7004">
        <ele>189.7002</ele>
        <time>2026-05-16T10:39:04+02:00</time>
      </trkpt>
      <trkpt lat="47.52666" lon="5.70041">
        <ele>189.7002</ele>
        <time>2026-05-16T10:39:05+02:00</time>
      </trkpt>
      <trkpt lat="47.52666" lon="5.70042">
        <ele>189.7002</ele>
        <time>2026-05-16T10:39:06+02:00</time>
      </trkpt>
      <trkpt lat="47.52666" lon="5.70042">
        <ele>189.7002</ele>
        <time>2026-05-16T10:39:07+02:00</time>
      </trkpt>
      <trkpt lat="47.52666" lon="5.70042">
        <ele>189.7002</ele>
        <time>2026-05-16T10:39:08+02:00</time>
      </trkpt>
      <trkpt lat="47.52666" lon="5.70042">
        <ele>189.7002</ele>
        <time>2026-05-16T10:39:09+02:00</time>
      </trkpt>
      <trkpt lat="47.52661" lon="5.70035">
        <ele>189.2002</ele>
        <time>2026-05-16T10:39:16+02:00</time>
      </trkpt>
      <trkpt lat="47.52662" lon="5.70033">
        <ele>189.2002</ele>
        <time>2026-05-16T10:39:17+02:00</time>
      </trkpt>
      <trkpt lat="47.52663" lon="5.7003">
        <ele>189.2002</ele>
        <time>2026-05-16T10:39:18+02:00</time>
      </trkpt>
      <trkpt lat="47.52663" lon="5.70028">
        <ele>189.2002</ele>
        <time>2026-05-16T10:39:19+02:00</time>
      </trkpt>
      <trkpt lat="47.52664" lon="5.70025">
        <ele>189.2998</ele>
        <time>2026-05-16T10:39:20+02:00</time>
      </trkpt>
      <trkpt lat="47.52664" lon="5.70023">
        <ele>189.2998</ele>
        <time>2026-05-16T10:39:21+02:00</time>
      </trkpt>
      <trkpt lat="47.52663" lon="5.70021">
        <ele>189.2998</ele>
        <time>2026-05-16T10:39:22+02:00</time>
      </trkpt>
      <trkpt lat="47.52663" lon="5.70019">
        <ele>189.2998</ele>
        <time>2026-05-16T10:39:23+02:00</time>
      </trkpt>
      <trkpt lat="47.52663" lon="5.70019">
        <ele>189.2998</ele>
        <time>2026-05-16T10:39:24+02:00</time>
      </trkpt>
      <trkpt lat="47.52663" lon="5.70019">
        <ele>189.2998</ele>
        <time>2026-05-16T10:39:25+02:00</time>
      </trkpt>
      <trkpt lat="47.52663" lon="5.70019">
        <ele>189.2998</ele>
        <time>2026-05-16T10:39:26+02:00</time>
      </trkpt>
      <trkpt lat="47.52656" lon="5.7016">
        <ele>188.40039</ele>
        <time>2026-05-16T11:04:36+02:00</time>
      </trkpt>
      <trkpt lat="47.52657" lon="5.70169">
        <ele>188.40039</ele>
        <time>2026-05-16T11:04:37+02:00</time>
      </trkpt>
      <trkpt lat="47.52657" lon="5.70173">
        <ele>188.40039</ele>
        <time>2026-05-16T11:04:38+02:00</time>
      </trkpt>
      <trkpt lat="47.52658" lon="5.70182">
        <ele>188.40039</ele>
        <time>2026-05-16T11:04:39+02:00</time>
      </trkpt>
      <trkpt lat="47.52659" lon="5.70186">
        <ele>188.40039</ele>
        <time>2026-05-16T11:04:40+02:00</time>
      </trkpt>
      <trkpt lat="47.52659" lon="5.70193">
        <ele>188.40039</ele>
        <time>2026-05-16T11:04:41+02:00</time>
      </trkpt>
      <trkpt lat="47.5266" lon="5.702">
        <ele>188.40039</ele>
        <time>2026-05-16T11:04:42+02:00</time>
      </trkpt>
      <trkpt lat="47.52661" lon="5.70207">
        <ele>188.40039</ele>
        <time>2026-05-16T11:04:43+02:00</time>
      </trkpt>
      <trkpt lat="47.52662" lon="5.70217">
        <ele>188.40039</ele>
        <time>2026-05-16T11:04:44+02:00</time>
      </trkpt>
      <trkpt lat="47.52662" lon="5.7022">
        <ele>188.40039</ele>
        <time>2026-05-16T11:04:45+02:00</time>
      </trkpt>
      <trkpt lat="47.52664" lon="5.70227">
        <ele>188.40039</ele>
        <time>2026-05-16T11:04:46+02:00</time>
      </trkpt>
      <trkpt lat="47.52665" lon="5.70238">
        <ele>188.2998</ele>
        <time>2026-05-16T11:04:47+02:00</time>
      </trkpt>
      <trkpt lat="47.52666" lon="5.70242">
        <ele>188.40039</ele>
        <time>2026-05-16T11:04:48+02:00</time>
      </trkpt>
      <trkpt lat="47.52667" lon="5.7025">
        <ele>188.40039</ele>
        <time>2026-05-16T11:04:49+02:00</time>
      </trkpt>
      <trkpt lat="47.52669" lon="5.70257">
        <ele>188.40039</ele>
        <time>2026-05-16T11:04:50+02:00</time>
      </trkpt>
      <trkpt lat="47.5267" lon="5.70265">
        <ele>188.40039</ele>
        <time>2026-05-16T11:04:51+02:00</time>
      </trkpt>
      <trkpt lat="47.52672" lon="5.70272">
        <ele>188.40039</ele>
        <time>2026-05-16T11:04:52+02:00</time>
      </trkpt>
      <trkpt lat="47.52673" lon="5.70279">
        <ele>188.40039</ele>
        <time>2026-05-16T11:04:53+02:00</time>
      </trkpt>
      <trkpt lat="47.52675" lon="5.70291">
        <ele>188.40039</ele>
        <time>2026-05-16T11:04:54+02:00</time>
      </trkpt>
      <trkpt lat="47.52676" lon="5.70294">
        <ele>188.40039</ele>
        <time>2026-05-16T11:04:55+02:00</time>
      </trkpt>
      <trkpt lat="47.52678" lon="5.70301">
        <ele>188.40039</ele>
        <time>2026-05-16T11:04:56+02:00</time>
      </trkpt>
      <trkpt lat="47.5268" lon="5.70309">
        <ele>188.40039</ele>
        <time>2026-05-16T11:04:57+02:00</time>
      </trkpt>
      <trkpt lat="47.52681" lon="5.70317">
        <ele>188.40039</ele>
        <time>2026-05-16T11:04:58+02:00</time>
      </trkpt>
      <trkpt lat="47.52683" lon="5.70324">
        <ele>188.40039</ele>
        <time>2026-05-16T11:04:59+02:00</time>
      </trkpt>
      <trkpt lat="47.52684" lon="5.70332">
        <ele>188.40039</ele>
        <time>2026-05-16T11:05:00+02:00</time>
      </trkpt>
      <trkpt lat="47.52686" lon="5.7034">
        <ele>188.40039</ele>
        <time>2026-05-16T11:05:01+02:00</time>
      </trkpt>
      <trkpt lat="47.52687" lon="5.70348">
        <ele>188.40039</ele>
        <time>2026-05-16T11:05:02+02:00</time>
      </trkpt>
      <trkpt lat="47.52689" lon="5.70356">
        <ele>188.40039</ele>
        <time>2026-05-16T11:05:03+02:00</time>
      </trkpt>
      <trkpt lat="47.52691" lon="5.70364">
        <ele>188.40039</ele>
        <time>2026-05-16T11:05:04+02:00</time>
      </trkpt>
      <trkpt lat="47.52694" lon="5.70376">
        <ele>188.2998</ele>
        <time>2026-05-16T11:05:05+02:00</time>
      </trkpt>
      <trkpt lat="47.52695" lon="5.7038">
        <ele>188.40039</ele>
        <time>2026-05-16T11:05:06+02:00</time>
      </trkpt>
      <trkpt lat="47.52697" lon="5.70388">
        <ele>188.40039</ele>
        <time>2026-05-16T11:05:07+02:00</time>
      </trkpt>
      <trkpt lat="47.52699" lon="5.70401">
        <ele>188.40039</ele>
        <time>2026-05-16T11:05:08+02:00</time>
      </trkpt>
      <trkpt lat="47.527" lon="5.70405">
        <ele>188.40039</ele>
        <time>2026-05-16T11:05:09+02:00</time>
      </trkpt>
      <trkpt lat="47.52702" lon="5.70413">
        <ele>188.40039</ele>
        <time>2026-05-16T11:05:10+02:00</time>
      </trkpt>
      <trkpt lat="47.52704" lon="5.70421">
        <ele>188.40039</ele>
        <time>2026-05-16T11:05:11+02:00</time>
      </trkpt>
      <trkpt lat="47.52707" lon="5.70429">
        <ele>188.40039</ele>
        <time>2026-05-16T11:05:12+02:00</time>
      </trkpt>
      <trkpt lat="47.52709" lon="5.70437">
        <ele>188.40039</ele>
        <time>2026-05-16T11:05:13+02:00</time>
      </trkpt>
      <trkpt lat="47.52712" lon="5.70445">
        <ele>188.40039</ele>
        <time>2026-05-16T11:05:14+02:00</time>
      </trkpt>
      <trkpt lat="47.52717" lon="5.70456">
        <ele>188.40039</ele>
        <time>2026-05-16T11:05:15+02:00</time>
      </trkpt>
      <trkpt lat="47.52719" lon="5.7046">
        <ele>188.40039</ele>
        <time>2026-05-16T11:05:16+02:00</time>
      </trkpt>
      <trkpt lat="47.52723" lon="5.70467">
        <ele>188.40039</ele>
        <time>2026-05-16T11:05:17+02:00</time>
      </trkpt>
      <trkpt lat="47.52727" lon="5.70473">
        <ele>188.40039</ele>
        <time>2026-05-16T11:05:18+02:00</time>
      </trkpt>
      <trkpt lat="47.52731" lon="5.7048">
        <ele>188.40039</ele>
        <time>2026-05-16T11:05:19+02:00</time>
      </trkpt>
      <trkpt lat="47.52736" lon="5.70487">
        <ele>188.40039</ele>
        <time>2026-05-16T11:05:20+02:00</time>
      </trkpt>
      <trkpt lat="47.5274" lon="5.70493">
        <ele>188.40039</ele>
        <time>2026-05-16T11:05:21+02:00</time>
      </trkpt>
      <trkpt lat="47.52744" lon="5.70499">
        <ele>188.40039</ele>
        <time>2026-05-16T11:05:22+02:00</time>
      </trkpt>
      <trkpt lat="47.52748" lon="5.70504">
        <ele>188.40039</ele>
        <time>2026-05-16T11:05:23+02:00</time>
      </trkpt>
      <trkpt lat="47.52752" lon="5.7051">
        <ele>188.40039</ele>
        <time>2026-05-16T11:05:24+02:00</time>
      </trkpt>
      <trkpt lat="47.52756" lon="5.70515">
        <ele>188.40039</ele>
        <time>2026-05-16T11:05:25+02:00</time>
      </trkpt>
      <trkpt lat="47.52763" lon="5.70524">
        <ele>188.40039</ele>
        <time>2026-05-16T11:05:26+02:00</time>
      </trkpt>
      <trkpt lat="47.52765" lon="5.70527">
        <ele>188.40039</ele>
        <time>2026-05-16T11:05:27+02:00</time>
      </trkpt>
      <trkpt lat="47.52769" lon="5.70533">
        <ele>188.40039</ele>
        <time>2026-05-16T11:05:28+02:00</time>
      </trkpt>
      <trkpt lat="47.52774" lon="5.70539">
        <ele>188.40039</ele>
        <time>2026-05-16T11:05:29+02:00</time>
      </trkpt>
      <trkpt lat="47.52779" lon="5.70544">
        <ele>188.40039</ele>
        <time>2026-05-16T11:05:30+02:00</time>
      </trkpt>
      <trkpt lat="47.52784" lon="5.7055">
        <ele>188.40039</ele>
        <time>2026-05-16T11:05:31+02:00</time>
      </trkpt>
      <trkpt lat="47.52788" lon="5.70555">
        <ele>188.40039</ele>
        <time>2026-05-16T11:05:32+02:00</time>
      </trkpt>
      <trkpt lat="47.52795" lon="5.70563">
        <ele>188.40039</ele>
        <time>2026-05-16T11:05:33+02:00</time>
      </trkpt>
      <trkpt lat="47.52797" lon="5.70566">
        <ele>188.40039</ele>
        <time>2026-05-16T11:05:34+02:00</time>
      </trkpt>
      <trkpt lat="47.52802" lon="5.7057">
        <ele>188.40039</ele>
        <time>2026-05-16T11:05:35+02:00</time>
      </trkpt>
      <trkpt lat="47.52807" lon="5.70575">
        <ele>188.40039</ele>
        <time>2026-05-16T11:05:36+02:00</time>
      </trkpt>
      <trkpt lat="47.52812" lon="5.7058">
        <ele>188.40039</ele>
        <time>2026-05-16T11:05:37+02:00</time>
      </trkpt>
      <trkpt lat="47.52817" lon="5.70585">
        <ele>188.40039</ele>
        <time>2026-05-16T11:05:38+02:00</time>
      </trkpt>
      <trkpt lat="47.52821" lon="5.7059">
        <ele>188.40039</ele>
        <time>2026-05-16T11:05:39+02:00</time>
      </trkpt>
      <trkpt lat="47.52829" lon="5.70598">
        <ele>188.40039</ele>
        <time>2026-05-16T11:05:40+02:00</time>
      </trkpt>
      <trkpt lat="47.52832" lon="5.706">
        <ele>188.40039</ele>
        <time>2026-05-16T11:05:41+02:00</time>
      </trkpt>
      <trkpt lat="47.52837" lon="5.70605">
        <ele>188.40039</ele>
        <time>2026-05-16T11:05:42+02:00</time>
      </trkpt>
      <trkpt lat="47.52844" lon="5.70614">
        <ele>188.40039</ele>
        <time>2026-05-16T11:05:43+02:00</time>
      </trkpt>
      <trkpt lat="47.52846" lon="5.70617">
        <ele>188.40039</ele>
        <time>2026-05-16T11:05:44+02:00</time>
      </trkpt>
      <trkpt lat="47.5285" lon="5.70622">
        <ele>188.40039</ele>
        <time>2026-05-16T11:05:45+02:00</time>
      </trkpt>
      <trkpt lat="47.52855" lon="5.70629">
        <ele>188.40039</ele>
        <time>2026-05-16T11:05:46+02:00</time>
      </trkpt>
      <trkpt lat="47.52862" lon="5.70637">
        <ele>188.40039</ele>
        <time>2026-05-16T11:05:47+02:00</time>
      </trkpt>
      <trkpt lat="47.52865" lon="5.7064">
        <ele>188.40039</ele>
        <time>2026-05-16T11:05:48+02:00</time>
      </trkpt>
      <trkpt lat="47.52869" lon="5.70646">
        <ele>188.40039</ele>
        <time>2026-05-16T11:05:49+02:00</time>
      </trkpt>
      <trkpt lat="47.52874" lon="5.70652">
        <ele>188.40039</ele>
        <time>2026-05-16T11:05:50+02:00</time>
      </trkpt>
      <trkpt lat="47.52879" lon="5.70657">
        <ele>188.40039</ele>
        <time>2026-05-16T11:05:51+02:00</time>
      </trkpt>
      <trkpt lat="47.52883" lon="5.70663">
        <ele>188.40039</ele>
        <time>2026-05-16T11:05:52+02:00</time>
      </trkpt>
      <trkpt lat="47.52889" lon="5.70668">
        <ele>188.40039</ele>
        <time>2026-05-16T11:05:53+02:00</time>
      </trkpt>
      <trkpt lat="47.52894" lon="5.70673">
        <ele>188.40039</ele>
        <time>2026-05-16T11:05:54+02:00</time>
      </trkpt>
      <trkpt lat="47.52899" lon="5.70677">
        <ele>188.40039</ele>
        <time>2026-05-16T11:05:55+02:00</time>
      </trkpt>
      <trkpt lat="47.52905" lon="5.7068">
        <ele>188.40039</ele>
        <time>2026-05-16T11:05:56+02:00</time>
      </trkpt>
      <trkpt lat="47.52911" lon="5.70684">
        <ele>188.40039</ele>
        <time>2026-05-16T11:05:57+02:00</time>
      </trkpt>
      <trkpt lat="47.52916" lon="5.70687">
        <ele>188.40039</ele>
        <time>2026-05-16T11:05:58+02:00</time>
      </trkpt>
      <trkpt lat="47.52922" lon="5.7069">
        <ele>188.40039</ele>
        <time>2026-05-16T11:05:59+02:00</time>
      </trkpt>
      <trkpt lat="47.52928" lon="5.70692">
        <ele>188.40039</ele>
        <time>2026-05-16T11:06:00+02:00</time>
      </trkpt>
      <trkpt lat="47.52933" lon="5.70694">
        <ele>188.40039</ele>
        <time>2026-05-16T11:06:01+02:00</time>
      </trkpt>
      <trkpt lat="47.52939" lon="5.70696">
        <ele>188.40039</ele>
        <time>2026-05-16T11:06:02+02:00</time>
      </trkpt>
      <trkpt lat="47.52944" lon="5.70698">
        <ele>188.40039</ele>
        <time>2026-05-16T11:06:03+02:00</time>
      </trkpt>
      <trkpt lat="47.52953" lon="5.707">
        <ele>188.40039</ele>
        <time>2026-05-16T11:06:04+02:00</time>
      </trkpt>
      <trkpt lat="47.52955" lon="5.70702">
        <ele>188.40039</ele>
        <time>2026-05-16T11:06:05+02:00</time>
      </trkpt>
      <trkpt lat="47.52961" lon="5.70703">
        <ele>188.40039</ele>
        <time>2026-05-16T11:06:06+02:00</time>
      </trkpt>
      <trkpt lat="47.52969" lon="5.70706">
        <ele>188.40039</ele>
        <time>2026-05-16T11:06:07+02:00</time>
      </trkpt>
      <trkpt lat="47.52972" lon="5.70707">
        <ele>188.40039</ele>
        <time>2026-05-16T11:06:08+02:00</time>
      </trkpt>
      <trkpt lat="47.52978" lon="5.70709">
        <ele>188.40039</ele>
        <time>2026-05-16T11:06:09+02:00</time>
      </trkpt>
      <trkpt lat="47.52986" lon="5.70712">
        <ele>188.40039</ele>
        <time>2026-05-16T11:06:10+02:00</time>
      </trkpt>
      <trkpt lat="47.52989" lon="5.70713">
        <ele>188.40039</ele>
        <time>2026-05-16T11:06:11+02:00</time>
      </trkpt>
      <trkpt lat="47.52995" lon="5.70715">
        <ele>188.40039</ele>
        <time>2026-05-16T11:06:12+02:00</time>
      </trkpt>
      <trkpt lat="47.53003" lon="5.70718">
        <ele>188.40039</ele>
        <time>2026-05-16T11:06:13+02:00</time>
      </trkpt>
      <trkpt lat="47.53006" lon="5.70719">
        <ele>188.40039</ele>
        <time>2026-05-16T11:06:14+02:00</time>
      </trkpt>
      <trkpt lat="47.53012" lon="5.70721">
        <ele>188.40039</ele>
        <time>2026-05-16T11:06:15+02:00</time>
      </trkpt>
      <trkpt lat="47.53018" lon="5.70723">
        <ele>188.40039</ele>
        <time>2026-05-16T11:06:16+02:00</time>
      </trkpt>
      <trkpt lat="47.53024" lon="5.70726">
        <ele>188.40039</ele>
        <time>2026-05-16T11:06:17+02:00</time>
      </trkpt>
      <trkpt lat="47.5303" lon="5.70728">
        <ele>188.40039</ele>
        <time>2026-05-16T11:06:18+02:00</time>
      </trkpt>
      <trkpt lat="47.53036" lon="5.7073">
        <ele>188.40039</ele>
        <time>2026-05-16T11:06:19+02:00</time>
      </trkpt>
      <trkpt lat="47.53045" lon="5.70733">
        <ele>188.40039</ele>
        <time>2026-05-16T11:06:20+02:00</time>
      </trkpt>
      <trkpt lat="47.53048" lon="5.70734">
        <ele>188.40039</ele>
        <time>2026-05-16T11:06:21+02:00</time>
      </trkpt>
      <trkpt lat="47.53053" lon="5.70736">
        <ele>188.40039</ele>
        <time>2026-05-16T11:06:22+02:00</time>
      </trkpt>
      <trkpt lat="47.5306" lon="5.70738">
        <ele>188.40039</ele>
        <time>2026-05-16T11:06:23+02:00</time>
      </trkpt>
      <trkpt lat="47.53065" lon="5.7074">
        <ele>188.40039</ele>
        <time>2026-05-16T11:06:24+02:00</time>
      </trkpt>
      <trkpt lat="47.53071" lon="5.70742">
        <ele>188.40039</ele>
        <time>2026-05-16T11:06:25+02:00</time>
      </trkpt>
      <trkpt lat="47.53077" lon="5.70744">
        <ele>188.40039</ele>
        <time>2026-05-16T11:06:26+02:00</time>
      </trkpt>
      <trkpt lat="47.53083" lon="5.70746">
        <ele>188.40039</ele>
        <time>2026-05-16T11:06:27+02:00</time>
      </trkpt>
      <trkpt lat="47.53089" lon="5.70748">
        <ele>188.40039</ele>
        <time>2026-05-16T11:06:28+02:00</time>
      </trkpt>
      <trkpt lat="47.53093" lon="5.70749">
        <ele>188.40039</ele>
        <time>2026-05-16T11:06:29+02:00</time>
      </trkpt>
      <trkpt lat="47.53095" lon="5.70749">
        <ele>188.40039</ele>
        <time>2026-05-16T11:06:30+02:00</time>
      </trkpt>
      <trkpt lat="47.53095" lon="5.70749">
        <ele>188.40039</ele>
        <time>2026-05-16T11:06:31+02:00</time>
      </trkpt>
      <trkpt lat="47.53095" lon="5.70749">
        <ele>188.40039</ele>
        <time>2026-05-16T11:06:32+02:00</time>
      </trkpt>
      <trkpt lat="47.53095" lon="5.70749">
        <ele>188.40039</ele>
        <time>2026-05-16T11:06:33+02:00</time>
      </trkpt>
      <trkpt lat="47.53109" lon="5.70752">
        <ele>188.40039</ele>
        <time>2026-05-16T11:06:56+02:00</time>
      </trkpt>
      <trkpt lat="47.53111" lon="5.70752">
        <ele>188.40039</ele>
        <time>2026-05-16T11:06:57+02:00</time>
      </trkpt>
      <trkpt lat="47.53116" lon="5.70754">
        <ele>188.40039</ele>
        <time>2026-05-16T11:06:58+02:00</time>
      </trkpt>
      <trkpt lat="47.53117" lon="5.70754">
        <ele>188.40039</ele>
        <time>2026-05-16T11:06:59+02:00</time>
      </trkpt>
      <trkpt lat="47.53121" lon="5.70755">
        <ele>188.40039</ele>
        <time>2026-05-16T11:07:00+02:00</time>
      </trkpt>
      <trkpt lat="47.53124" lon="5.70757">
        <ele>188.40039</ele>
        <time>2026-05-16T11:07:01+02:00</time>
      </trkpt>
      <trkpt lat="47.53128" lon="5.70757">
        <ele>188.40039</ele>
        <time>2026-05-16T11:07:02+02:00</time>
      </trkpt>
      <trkpt lat="47.53132" lon="5.70758">
        <ele>188.40039</ele>
        <time>2026-05-16T11:07:03+02:00</time>
      </trkpt>
      <trkpt lat="47.53136" lon="5.70759">
        <ele>188.40039</ele>
        <time>2026-05-16T11:07:04+02:00</time>
      </trkpt>
      <trkpt lat="47.5314" lon="5.7076">
        <ele>188.40039</ele>
        <time>2026-05-16T11:07:05+02:00</time>
      </trkpt>
      <trkpt lat="47.53146" lon="5.70761">
        <ele>188.40039</ele>
        <time>2026-05-16T11:07:06+02:00</time>
      </trkpt>
      <trkpt lat="47.53148" lon="5.70762">
        <ele>188.40039</ele>
        <time>2026-05-16T11:07:07+02:00</time>
      </trkpt>
      <trkpt lat="47.53152" lon="5.70762">
        <ele>188.40039</ele>
        <time>2026-05-16T11:07:08+02:00</time>
      </trkpt>
      <trkpt lat="47.53156" lon="5.70763">
        <ele>188.40039</ele>
        <time>2026-05-16T11:07:09+02:00</time>
      </trkpt>
      <trkpt lat="47.53158" lon="5.70763">
        <ele>188.40039</ele>
        <time>2026-05-16T11:07:10+02:00</time>
      </trkpt>
      <trkpt lat="47.53161" lon="5.70764">
        <ele>188.40039</ele>
        <time>2026-05-16T11:07:11+02:00</time>
      </trkpt>
      <trkpt lat="47.53164" lon="5.70765">
        <ele>188.40039</ele>
        <time>2026-05-16T11:07:12+02:00</time>
      </trkpt>
      <trkpt lat="47.53167" lon="5.70766">
        <ele>188.40039</ele>
        <time>2026-05-16T11:07:13+02:00</time>
      </trkpt>
      <trkpt lat="47.53171" lon="5.70767">
        <ele>188.40039</ele>
        <time>2026-05-16T11:07:14+02:00</time>
      </trkpt>
      <trkpt lat="47.53179" lon="5.70768">
        <ele>188.40039</ele>
        <time>2026-05-16T11:07:15+02:00</time>
      </trkpt>
      <trkpt lat="47.53181" lon="5.70768">
        <ele>188.40039</ele>
        <time>2026-05-16T11:07:16+02:00</time>
      </trkpt>
      <trkpt lat="47.53186" lon="5.70769">
        <ele>188.40039</ele>
        <time>2026-05-16T11:07:17+02:00</time>
      </trkpt>
      <trkpt lat="47.53191" lon="5.7077">
        <ele>188.40039</ele>
        <time>2026-05-16T11:07:18+02:00</time>
      </trkpt>
      <trkpt lat="47.53196" lon="5.70771">
        <ele>188.40039</ele>
        <time>2026-05-16T11:07:19+02:00</time>
      </trkpt>
      <trkpt lat="47.532" lon="5.70771">
        <ele>188.40039</ele>
        <time>2026-05-16T11:07:20+02:00</time>
      </trkpt>
      <trkpt lat="47.53205" lon="5.70772">
        <ele>188.40039</ele>
        <time>2026-05-16T11:07:21+02:00</time>
      </trkpt>
      <trkpt lat="47.53213" lon="5.70772">
        <ele>188.40039</ele>
        <time>2026-05-16T11:07:22+02:00</time>
      </trkpt>
      <trkpt lat="47.53216" lon="5.70772">
        <ele>188.40039</ele>
        <time>2026-05-16T11:07:23+02:00</time>
      </trkpt>
      <trkpt lat="47.53222" lon="5.70772">
        <ele>188.40039</ele>
        <time>2026-05-16T11:07:24+02:00</time>
      </trkpt>
      <trkpt lat="47.53227" lon="5.70772">
        <ele>188.40039</ele>
        <time>2026-05-16T11:07:25+02:00</time>
      </trkpt>
      <trkpt lat="47.53236" lon="5.70772">
        <ele>188.40039</ele>
        <time>2026-05-16T11:07:26+02:00</time>
      </trkpt>
      <trkpt lat="47.53239" lon="5.70771">
        <ele>188.40039</ele>
        <time>2026-05-16T11:07:27+02:00</time>
      </trkpt>
      <trkpt lat="47.53245" lon="5.70771">
        <ele>188.40039</ele>
        <time>2026-05-16T11:07:28+02:00</time>
      </trkpt>
      <trkpt lat="47.53253" lon="5.7077">
        <ele>188.40039</ele>
        <time>2026-05-16T11:07:29+02:00</time>
      </trkpt>
      <trkpt lat="47.53256" lon="5.70769">
        <ele>188.40039</ele>
        <time>2026-05-16T11:07:30+02:00</time>
      </trkpt>
      <trkpt lat="47.53262" lon="5.70769">
        <ele>188.40039</ele>
        <time>2026-05-16T11:07:31+02:00</time>
      </trkpt>
      <trkpt lat="47.53269" lon="5.70767">
        <ele>188.40039</ele>
        <time>2026-05-16T11:07:32+02:00</time>
      </trkpt>
      <trkpt lat="47.53275" lon="5.70766">
        <ele>188.40039</ele>
        <time>2026-05-16T11:07:33+02:00</time>
      </trkpt>
      <trkpt lat="47.53281" lon="5.70764">
        <ele>188.40039</ele>
        <time>2026-05-16T11:07:34+02:00</time>
      </trkpt>
      <trkpt lat="47.53286" lon="5.70762">
        <ele>188.40039</ele>
        <time>2026-05-16T11:07:35+02:00</time>
      </trkpt>
      <trkpt lat="47.53295" lon="5.70758">
        <ele>188.40039</ele>
        <time>2026-05-16T11:07:36+02:00</time>
      </trkpt>
      <trkpt lat="47.53298" lon="5.70757">
        <ele>188.40039</ele>
        <time>2026-05-16T11:07:37+02:00</time>
      </trkpt>
      <trkpt lat="47.53303" lon="5.70755">
        <ele>188.40039</ele>
        <time>2026-05-16T11:07:38+02:00</time>
      </trkpt>
      <trkpt lat="47.53308" lon="5.70753">
        <ele>188.40039</ele>
        <time>2026-05-16T11:07:39+02:00</time>
      </trkpt>
      <trkpt lat="47.53316" lon="5.70751">
        <ele>188.40039</ele>
        <time>2026-05-16T11:07:40+02:00</time>
      </trkpt>
      <trkpt lat="47.53319" lon="5.7075">
        <ele>188.40039</ele>
        <time>2026-05-16T11:07:41+02:00</time>
      </trkpt>
      <trkpt lat="47.53324" lon="5.70749">
        <ele>188.40039</ele>
        <time>2026-05-16T11:07:42+02:00</time>
      </trkpt>
      <trkpt lat="47.5333" lon="5.70748">
        <ele>188.40039</ele>
        <time>2026-05-16T11:07:43+02:00</time>
      </trkpt>
      <trkpt lat="47.53336" lon="5.70748">
        <ele>188.40039</ele>
        <time>2026-05-16T11:07:44+02:00</time>
      </trkpt>
      <trkpt lat="47.53341" lon="5.70747">
        <ele>188.40039</ele>
        <time>2026-05-16T11:07:45+02:00</time>
      </trkpt>
      <trkpt lat="47.53347" lon="5.70747">
        <ele>188.40039</ele>
        <time>2026-05-16T11:07:46+02:00</time>
      </trkpt>
      <trkpt lat="47.53356" lon="5.70746">
        <ele>188.40039</ele>
        <time>2026-05-16T11:07:47+02:00</time>
      </trkpt>
      <trkpt lat="47.53359" lon="5.70746">
        <ele>188.40039</ele>
        <time>2026-05-16T11:07:48+02:00</time>
      </trkpt>
      <trkpt lat="47.53364" lon="5.70746">
        <ele>188.40039</ele>
        <time>2026-05-16T11:07:49+02:00</time>
      </trkpt>
      <trkpt lat="47.53373" lon="5.70746">
        <ele>188.40039</ele>
        <time>2026-05-16T11:07:50+02:00</time>
      </trkpt>
      <trkpt lat="47.53376" lon="5.70746">
        <ele>188.40039</ele>
        <time>2026-05-16T11:07:51+02:00</time>
      </trkpt>
      <trkpt lat="47.53381" lon="5.70746">
        <ele>188.40039</ele>
        <time>2026-05-16T11:07:52+02:00</time>
      </trkpt>
      <trkpt lat="47.53387" lon="5.70746">
        <ele>188.40039</ele>
        <time>2026-05-16T11:07:53+02:00</time>
      </trkpt>
      <trkpt lat="47.53396" lon="5.70746">
        <ele>188.40039</ele>
        <time>2026-05-16T11:07:54+02:00</time>
      </trkpt>
      <trkpt lat="47.53399" lon="5.70746">
        <ele>188.40039</ele>
        <time>2026-05-16T11:07:55+02:00</time>
      </trkpt>
      <trkpt lat="47.53405" lon="5.70745">
        <ele>188.40039</ele>
        <time>2026-05-16T11:07:56+02:00</time>
      </trkpt>
      <trkpt lat="47.5341" lon="5.70745">
        <ele>188.40039</ele>
        <time>2026-05-16T11:07:57+02:00</time>
      </trkpt>
      <trkpt lat="47.53416" lon="5.70745">
        <ele>188.40039</ele>
        <time>2026-05-16T11:07:58+02:00</time>
      </trkpt>
      <trkpt lat="47.53422" lon="5.70745">
        <ele>188.40039</ele>
        <time>2026-05-16T11:07:59+02:00</time>
      </trkpt>
      <trkpt lat="47.53428" lon="5.70745">
        <ele>188.40039</ele>
        <time>2026-05-16T11:08:00+02:00</time>
      </trkpt>
      <trkpt lat="47.53438" lon="5.70746">
        <ele>188.40039</ele>
        <time>2026-05-16T11:08:01+02:00</time>
      </trkpt>
      <trkpt lat="47.53441" lon="5.70746">
        <ele>188.40039</ele>
        <time>2026-05-16T11:08:02+02:00</time>
      </trkpt>
      <trkpt lat="47.53447" lon="5.70746">
        <ele>188.40039</ele>
        <time>2026-05-16T11:08:03+02:00</time>
      </trkpt>
      <trkpt lat="47.53454" lon="5.70746">
        <ele>188.40039</ele>
        <time>2026-05-16T11:08:04+02:00</time>
      </trkpt>
      <trkpt lat="47.53463" lon="5.70746">
        <ele>188.40039</ele>
        <time>2026-05-16T11:08:05+02:00</time>
      </trkpt>
      <trkpt lat="47.53466" lon="5.70747">
        <ele>188.40039</ele>
        <time>2026-05-16T11:08:06+02:00</time>
      </trkpt>
      <trkpt lat="47.53472" lon="5.70747">
        <ele>188.40039</ele>
        <time>2026-05-16T11:08:07+02:00</time>
      </trkpt>
      <trkpt lat="47.53477" lon="5.70747">
        <ele>188.40039</ele>
        <time>2026-05-16T11:08:08+02:00</time>
      </trkpt>
      <trkpt lat="47.53486" lon="5.70748">
        <ele>188.40039</ele>
        <time>2026-05-16T11:08:09+02:00</time>
      </trkpt>
      <trkpt lat="47.53488" lon="5.70748">
        <ele>188.40039</ele>
        <time>2026-05-16T11:08:10+02:00</time>
      </trkpt>
      <trkpt lat="47.53495" lon="5.70749">
        <ele>188.40039</ele>
        <time>2026-05-16T11:08:11+02:00</time>
      </trkpt>
      <trkpt lat="47.53504" lon="5.7075">
        <ele>188.40039</ele>
        <time>2026-05-16T11:08:12+02:00</time>
      </trkpt>
      <trkpt lat="47.53507" lon="5.7075">
        <ele>188.2998</ele>
        <time>2026-05-16T11:08:13+02:00</time>
      </trkpt>
      <trkpt lat="47.53513" lon="5.7075">
        <ele>188.2998</ele>
        <time>2026-05-16T11:08:14+02:00</time>
      </trkpt>
      <trkpt lat="47.5352" lon="5.7075">
        <ele>188.2998</ele>
        <time>2026-05-16T11:08:15+02:00</time>
      </trkpt>
      <trkpt lat="47.5353" lon="5.70751">
        <ele>188.2998</ele>
        <time>2026-05-16T11:08:16+02:00</time>
      </trkpt>
      <trkpt lat="47.53533" lon="5.70751">
        <ele>188.2998</ele>
        <time>2026-05-16T11:08:17+02:00</time>
      </trkpt>
      <trkpt lat="47.5354" lon="5.70751">
        <ele>188.40039</ele>
        <time>2026-05-16T11:08:18+02:00</time>
      </trkpt>
      <trkpt lat="47.5355" lon="5.70752">
        <ele>188.40039</ele>
        <time>2026-05-16T11:08:19+02:00</time>
      </trkpt>
      <trkpt lat="47.53553" lon="5.70752">
        <ele>188.40039</ele>
        <time>2026-05-16T11:08:20+02:00</time>
      </trkpt>
      <trkpt lat="47.5356" lon="5.70752">
        <ele>188.40039</ele>
        <time>2026-05-16T11:08:21+02:00</time>
      </trkpt>
      <trkpt lat="47.53567" lon="5.70753">
        <ele>188.40039</ele>
        <time>2026-05-16T11:08:22+02:00</time>
      </trkpt>
      <trkpt lat="47.53574" lon="5.70753">
        <ele>188.40039</ele>
        <time>2026-05-16T11:08:23+02:00</time>
      </trkpt>
      <trkpt lat="47.5358" lon="5.70753">
        <ele>188.40039</ele>
        <time>2026-05-16T11:08:24+02:00</time>
      </trkpt>
      <trkpt lat="47.53587" lon="5.70754">
        <ele>188.40039</ele>
        <time>2026-05-16T11:08:25+02:00</time>
      </trkpt>
      <trkpt lat="47.53597" lon="5.70755">
        <ele>188.40039</ele>
        <time>2026-05-16T11:08:26+02:00</time>
      </trkpt>
      <trkpt lat="47.536" lon="5.70756">
        <ele>188.40039</ele>
        <time>2026-05-16T11:08:27+02:00</time>
      </trkpt>
      <trkpt lat="47.53607" lon="5.70757">
        <ele>188.40039</ele>
        <time>2026-05-16T11:08:28+02:00</time>
      </trkpt>
      <trkpt lat="47.53616" lon="5.70759">
        <ele>188.40039</ele>
        <time>2026-05-16T11:08:29+02:00</time>
      </trkpt>
      <trkpt lat="47.5362" lon="5.7076">
        <ele>188.40039</ele>
        <time>2026-05-16T11:08:30+02:00</time>
      </trkpt>
      <trkpt lat="47.53626" lon="5.70763">
        <ele>188.40039</ele>
        <time>2026-05-16T11:08:31+02:00</time>
      </trkpt>
      <trkpt lat="47.53632" lon="5.70766">
        <ele>188.40039</ele>
        <time>2026-05-16T11:08:32+02:00</time>
      </trkpt>
      <trkpt lat="47.53641" lon="5.7077">
        <ele>188.40039</ele>
        <time>2026-05-16T11:08:33+02:00</time>
      </trkpt>
      <trkpt lat="47.53644" lon="5.70771">
        <ele>188.40039</ele>
        <time>2026-05-16T11:08:34+02:00</time>
      </trkpt>
      <trkpt lat="47.5365" lon="5.70773">
        <ele>188.40039</ele>
        <time>2026-05-16T11:08:35+02:00</time>
      </trkpt>
      <trkpt lat="47.5366" lon="5.70777">
        <ele>188.40039</ele>
        <time>2026-05-16T11:08:36+02:00</time>
      </trkpt>
      <trkpt lat="47.53662" lon="5.70778">
        <ele>188.40039</ele>
        <time>2026-05-16T11:08:37+02:00</time>
      </trkpt>
      <trkpt lat="47.53668" lon="5.7078">
        <ele>188.40039</ele>
        <time>2026-05-16T11:08:38+02:00</time>
      </trkpt>
      <trkpt lat="47.53674" lon="5.70783">
        <ele>188.40039</ele>
        <time>2026-05-16T11:08:39+02:00</time>
      </trkpt>
      <trkpt lat="47.53683" lon="5.70787">
        <ele>188.40039</ele>
        <time>2026-05-16T11:08:40+02:00</time>
      </trkpt>
      <trkpt lat="47.53686" lon="5.70788">
        <ele>188.40039</ele>
        <time>2026-05-16T11:08:41+02:00</time>
      </trkpt>
      <trkpt lat="47.53692" lon="5.70791">
        <ele>188.40039</ele>
        <time>2026-05-16T11:08:42+02:00</time>
      </trkpt>
      <trkpt lat="47.53698" lon="5.70794">
        <ele>188.40039</ele>
        <time>2026-05-16T11:08:43+02:00</time>
      </trkpt>
      <trkpt lat="47.53704" lon="5.70796">
        <ele>188.2998</ele>
        <time>2026-05-16T11:08:44+02:00</time>
      </trkpt>
      <trkpt lat="47.5371" lon="5.70799">
        <ele>188.10059</ele>
        <time>2026-05-16T11:08:45+02:00</time>
      </trkpt>
      <trkpt lat="47.53716" lon="5.70802">
        <ele>188.2998</ele>
        <time>2026-05-16T11:08:46+02:00</time>
      </trkpt>
      <trkpt lat="47.53721" lon="5.70805">
        <ele>188.2998</ele>
        <time>2026-05-16T11:08:47+02:00</time>
      </trkpt>
      <trkpt lat="47.53727" lon="5.70808">
        <ele>188.2998</ele>
        <time>2026-05-16T11:08:48+02:00</time>
      </trkpt>
      <trkpt lat="47.53733" lon="5.70811">
        <ele>188.40039</ele>
        <time>2026-05-16T11:08:49+02:00</time>
      </trkpt>
      <trkpt lat="47.53742" lon="5.70815">
        <ele>188.40039</ele>
        <time>2026-05-16T11:08:50+02:00</time>
      </trkpt>
      <trkpt lat="47.53745" lon="5.70816">
        <ele>188.2998</ele>
        <time>2026-05-16T11:08:51+02:00</time>
      </trkpt>
      <trkpt lat="47.53751" lon="5.70819">
        <ele>188.2002</ele>
        <time>2026-05-16T11:08:52+02:00</time>
      </trkpt>
      <trkpt lat="47.5376" lon="5.70824">
        <ele>187.90039</ele>
        <time>2026-05-16T11:08:53+02:00</time>
      </trkpt>
      <trkpt lat="47.53763" lon="5.70825">
        <ele>187.90039</ele>
        <time>2026-05-16T11:08:54+02:00</time>
      </trkpt>
      <trkpt lat="47.53769" lon="5.70828">
        <ele>188.2002</ele>
        <time>2026-05-16T11:08:55+02:00</time>
      </trkpt>
      <trkpt lat="47.53775" lon="5.70832">
        <ele>188.10059</ele>
        <time>2026-05-16T11:08:56+02:00</time>
      </trkpt>
      <trkpt lat="47.53784" lon="5.70837">
        <ele>188.40039</ele>
        <time>2026-05-16T11:08:57+02:00</time>
      </trkpt>
      <trkpt lat="47.53786" lon="5.70838">
        <ele>188.40039</ele>
        <time>2026-05-16T11:08:58+02:00</time>
      </trkpt>
      <trkpt lat="47.53792" lon="5.70842">
        <ele>188.40039</ele>
        <time>2026-05-16T11:08:59+02:00</time>
      </trkpt>
      <trkpt lat="47.53801" lon="5.70847">
        <ele>188</ele>
        <time>2026-05-16T11:09:00+02:00</time>
      </trkpt>
      <trkpt lat="47.53804" lon="5.70848">
        <ele>188</ele>
        <time>2026-05-16T11:09:01+02:00</time>
      </trkpt>
      <trkpt lat="47.53809" lon="5.70851">
        <ele>187.90039</ele>
        <time>2026-05-16T11:09:02+02:00</time>
      </trkpt>
      <trkpt lat="47.53815" lon="5.70855">
        <ele>188.10059</ele>
        <time>2026-05-16T11:09:03+02:00</time>
      </trkpt>
      <trkpt lat="47.53824" lon="5.7086">
        <ele>188.40039</ele>
        <time>2026-05-16T11:09:04+02:00</time>
      </trkpt>
      <trkpt lat="47.53827" lon="5.70862">
        <ele>188.40039</ele>
        <time>2026-05-16T11:09:05+02:00</time>
      </trkpt>
      <trkpt lat="47.53833" lon="5.70865">
        <ele>188.40039</ele>
        <time>2026-05-16T11:09:06+02:00</time>
      </trkpt>
      <trkpt lat="47.53842" lon="5.7087">
        <ele>188.5</ele>
        <time>2026-05-16T11:09:07+02:00</time>
      </trkpt>
      <trkpt lat="47.53845" lon="5.70871">
        <ele>188.5</ele>
        <time>2026-05-16T11:09:08+02:00</time>
      </trkpt>
      <trkpt lat="47.53851" lon="5.70875">
        <ele>188.40039</ele>
        <time>2026-05-16T11:09:09+02:00</time>
      </trkpt>
      <trkpt lat="47.53857" lon="5.70878">
        <ele>188.40039</ele>
        <time>2026-05-16T11:09:10+02:00</time>
      </trkpt>
      <trkpt lat="47.53866" lon="5.70883">
        <ele>188.2002</ele>
        <time>2026-05-16T11:09:11+02:00</time>
      </trkpt>
      <trkpt lat="47.53868" lon="5.70884">
        <ele>188.2002</ele>
        <time>2026-05-16T11:09:12+02:00</time>
      </trkpt>
      <trkpt lat="47.53874" lon="5.70888">
        <ele>188.2998</ele>
        <time>2026-05-16T11:09:13+02:00</time>
      </trkpt>
      <trkpt lat="47.53883" lon="5.70893">
        <ele>188.2998</ele>
        <time>2026-05-16T11:09:14+02:00</time>
      </trkpt>
      <trkpt lat="47.53886" lon="5.70895">
        <ele>188.40039</ele>
        <time>2026-05-16T11:09:15+02:00</time>
      </trkpt>
      <trkpt lat="47.53892" lon="5.70898">
        <ele>188.40039</ele>
        <time>2026-05-16T11:09:16+02:00</time>
      </trkpt>
      <trkpt lat="47.53898" lon="5.70901">
        <ele>188.40039</ele>
        <time>2026-05-16T11:09:17+02:00</time>
      </trkpt>
      <trkpt lat="47.53906" lon="5.70906">
        <ele>188.2002</ele>
        <time>2026-05-16T11:09:18+02:00</time>
      </trkpt>
      <trkpt lat="47.53909" lon="5.70908">
        <ele>188.2002</ele>
        <time>2026-05-16T11:09:19+02:00</time>
      </trkpt>
      <trkpt lat="47.53914" lon="5.70912">
        <ele>188.2002</ele>
        <time>2026-05-16T11:09:20+02:00</time>
      </trkpt>
      <trkpt lat="47.53922" lon="5.70917">
        <ele>188.2002</ele>
        <time>2026-05-16T11:09:21+02:00</time>
      </trkpt>
      <trkpt lat="47.53925" lon="5.70919">
        <ele>188.10059</ele>
        <time>2026-05-16T11:09:22+02:00</time>
      </trkpt>
      <trkpt lat="47.53931" lon="5.70923">
        <ele>188.40039</ele>
        <time>2026-05-16T11:09:23+02:00</time>
      </trkpt>
      <trkpt lat="47.53936" lon="5.70927">
        <ele>188.40039</ele>
        <time>2026-05-16T11:09:24+02:00</time>
      </trkpt>
      <trkpt lat="47.53944" lon="5.70932">
        <ele>188.40039</ele>
        <time>2026-05-16T11:09:25+02:00</time>
      </trkpt>
      <trkpt lat="47.53946" lon="5.70934">
        <ele>188.40039</ele>
        <time>2026-05-16T11:09:26+02:00</time>
      </trkpt>
      <trkpt lat="47.53952" lon="5.70938">
        <ele>188.2002</ele>
        <time>2026-05-16T11:09:27+02:00</time>
      </trkpt>
      <trkpt lat="47.53959" lon="5.70943">
        <ele>188.10059</ele>
        <time>2026-05-16T11:09:28+02:00</time>
      </trkpt>
      <trkpt lat="47.53962" lon="5.70945">
        <ele>188.10059</ele>
        <time>2026-05-16T11:09:29+02:00</time>
      </trkpt>
      <trkpt lat="47.5397" lon="5.7095">
        <ele>188.2998</ele>
        <time>2026-05-16T11:09:30+02:00</time>
      </trkpt>
      <trkpt lat="47.53975" lon="5.70954">
        <ele>188.2998</ele>
        <time>2026-05-16T11:09:31+02:00</time>
      </trkpt>
      <trkpt lat="47.53978" lon="5.70955">
        <ele>188.5</ele>
        <time>2026-05-16T11:09:32+02:00</time>
      </trkpt>
      <trkpt lat="47.53986" lon="5.7096">
        <ele>188.5</ele>
        <time>2026-05-16T11:09:33+02:00</time>
      </trkpt>
      <trkpt lat="47.53988" lon="5.70962">
        <ele>188.40039</ele>
        <time>2026-05-16T11:09:34+02:00</time>
      </trkpt>
      <trkpt lat="47.53996" lon="5.70967">
        <ele>188.40039</ele>
        <time>2026-05-16T11:09:35+02:00</time>
      </trkpt>
      <trkpt lat="47.53999" lon="5.70968">
        <ele>188.2002</ele>
        <time>2026-05-16T11:09:36+02:00</time>
      </trkpt>
      <trkpt lat="47.54007" lon="5.70974">
        <ele>188.2002</ele>
        <time>2026-05-16T11:09:37+02:00</time>
      </trkpt>
      <trkpt lat="47.54013" lon="5.70977">
        <ele>188.2002</ele>
        <time>2026-05-16T11:09:38+02:00</time>
      </trkpt>
      <trkpt lat="47.54016" lon="5.70979">
        <ele>188.2002</ele>
        <time>2026-05-16T11:09:39+02:00</time>
      </trkpt>
      <trkpt lat="47.54022" lon="5.70983">
        <ele>188.40039</ele>
        <time>2026-05-16T11:09:40+02:00</time>
      </trkpt>
      <trkpt lat="47.54027" lon="5.70986">
        <ele>188.40039</ele>
        <time>2026-05-16T11:09:41+02:00</time>
      </trkpt>
      <trkpt lat="47.54035" lon="5.70991">
        <ele>188.5</ele>
        <time>2026-05-16T11:09:42+02:00</time>
      </trkpt>
      <trkpt lat="47.54038" lon="5.70993">
        <ele>188.5</ele>
        <time>2026-05-16T11:09:43+02:00</time>
      </trkpt>
      <trkpt lat="47.54044" lon="5.70996">
        <ele>188.40039</ele>
        <time>2026-05-16T11:09:44+02:00</time>
      </trkpt>
      <trkpt lat="47.54052" lon="5.71001">
        <ele>188.10059</ele>
        <time>2026-05-16T11:09:45+02:00</time>
      </trkpt>
      <trkpt lat="47.54055" lon="5.71002">
        <ele>188.10059</ele>
        <time>2026-05-16T11:09:46+02:00</time>
      </trkpt>
      <trkpt lat="47.5406" lon="5.71005">
        <ele>188</ele>
        <time>2026-05-16T11:09:47+02:00</time>
      </trkpt>
      <trkpt lat="47.54067" lon="5.71008">
        <ele>188.40039</ele>
        <time>2026-05-16T11:09:48+02:00</time>
      </trkpt>
      <trkpt lat="47.54075" lon="5.71013">
        <ele>188.40039</ele>
        <time>2026-05-16T11:09:49+02:00</time>
      </trkpt>
      <trkpt lat="47.54078" lon="5.71014">
        <ele>188.40039</ele>
        <time>2026-05-16T11:09:50+02:00</time>
      </trkpt>
      <trkpt lat="47.54084" lon="5.71016">
        <ele>188.5</ele>
        <time>2026-05-16T11:09:51+02:00</time>
      </trkpt>
      <trkpt lat="47.54089" lon="5.71019">
        <ele>188.40039</ele>
        <time>2026-05-16T11:09:52+02:00</time>
      </trkpt>
      <trkpt lat="47.54098" lon="5.71023">
        <ele>187.90039</ele>
        <time>2026-05-16T11:09:53+02:00</time>
      </trkpt>
      <trkpt lat="47.54101" lon="5.71024">
        <ele>187.90039</ele>
        <time>2026-05-16T11:09:54+02:00</time>
      </trkpt>
      <trkpt lat="47.54107" lon="5.71027">
        <ele>187.7002</ele>
        <time>2026-05-16T11:09:55+02:00</time>
      </trkpt>
      <trkpt lat="47.54112" lon="5.71029">
        <ele>187.60059</ele>
        <time>2026-05-16T11:09:56+02:00</time>
      </trkpt>
      <trkpt lat="47.54117" lon="5.71032">
        <ele>188.10059</ele>
        <time>2026-05-16T11:09:57+02:00</time>
      </trkpt>
      <trkpt lat="47.54122" lon="5.71035">
        <ele>188.10059</ele>
        <time>2026-05-16T11:09:58+02:00</time>
      </trkpt>
      <trkpt lat="47.54126" lon="5.71038">
        <ele>188.2002</ele>
        <time>2026-05-16T11:09:59+02:00</time>
      </trkpt>
      <trkpt lat="47.54131" lon="5.71042">
        <ele>188.40039</ele>
        <time>2026-05-16T11:10:00+02:00</time>
      </trkpt>
      <trkpt lat="47.54133" lon="5.71043">
        <ele>188.40039</ele>
        <time>2026-05-16T11:10:01+02:00</time>
      </trkpt>
      <trkpt lat="47.54136" lon="5.71044">
        <ele>188.40039</ele>
        <time>2026-05-16T11:10:02+02:00</time>
      </trkpt>
      <trkpt lat="47.54139" lon="5.71046">
        <ele>188.2002</ele>
        <time>2026-05-16T11:10:03+02:00</time>
      </trkpt>
      <trkpt lat="47.54139" lon="5.71047">
        <ele>188.2002</ele>
        <time>2026-05-16T11:10:04+02:00</time>
      </trkpt>
      <trkpt lat="47.54141" lon="5.71048">
        <ele>188.2002</ele>
        <time>2026-05-16T11:10:05+02:00</time>
      </trkpt>
      <trkpt lat="47.54144" lon="5.7105">
        <ele>187.90039</ele>
        <time>2026-05-16T11:10:06+02:00</time>
      </trkpt>
      <trkpt lat="47.54147" lon="5.71052">
        <ele>187.90039</ele>
        <time>2026-05-16T11:10:07+02:00</time>
      </trkpt>
      <trkpt lat="47.54151" lon="5.71054">
        <ele>187.60059</ele>
        <time>2026-05-16T11:10:08+02:00</time>
      </trkpt>
      <trkpt lat="47.54157" lon="5.71058">
        <ele>187.90039</ele>
        <time>2026-05-16T11:10:09+02:00</time>
      </trkpt>
      <trkpt lat="47.54159" lon="5.71059">
        <ele>187.90039</ele>
        <time>2026-05-16T11:10:10+02:00</time>
      </trkpt>
      <trkpt lat="47.54164" lon="5.71062">
        <ele>187.7998</ele>
        <time>2026-05-16T11:10:11+02:00</time>
      </trkpt>
      <trkpt lat="47.54168" lon="5.71065">
        <ele>187.7998</ele>
        <time>2026-05-16T11:10:12+02:00</time>
      </trkpt>
      <trkpt lat="47.54176" lon="5.71069">
        <ele>188.40039</ele>
        <time>2026-05-16T11:10:13+02:00</time>
      </trkpt>
      <trkpt lat="47.54178" lon="5.71071">
        <ele>188.40039</ele>
        <time>2026-05-16T11:10:14+02:00</time>
      </trkpt>
      <trkpt lat="47.54183" lon="5.71073">
        <ele>188.40039</ele>
        <time>2026-05-16T11:10:15+02:00</time>
      </trkpt>
      <trkpt lat="47.54191" lon="5.71077">
        <ele>187.7998</ele>
        <time>2026-05-16T11:10:16+02:00</time>
      </trkpt>
      <trkpt lat="47.54193" lon="5.71078">
        <ele>187.7998</ele>
        <time>2026-05-16T11:10:17+02:00</time>
      </trkpt>
      <trkpt lat="47.54199" lon="5.71081">
        <ele>187.60059</ele>
        <time>2026-05-16T11:10:18+02:00</time>
      </trkpt>
      <trkpt lat="47.54204" lon="5.71085">
        <ele>187.60059</ele>
        <time>2026-05-16T11:10:19+02:00</time>
      </trkpt>
      <trkpt lat="47.54211" lon="5.7109">
        <ele>187.40039</ele>
        <time>2026-05-16T11:10:20+02:00</time>
      </trkpt>
      <trkpt lat="47.54214" lon="5.71092">
        <ele>188.2002</ele>
        <time>2026-05-16T11:10:21+02:00</time>
      </trkpt>
      <trkpt lat="47.54219" lon="5.71095">
        <ele>188.2998</ele>
        <time>2026-05-16T11:10:22+02:00</time>
      </trkpt>
      <trkpt lat="47.54227" lon="5.71101">
        <ele>188.40039</ele>
        <time>2026-05-16T11:10:23+02:00</time>
      </trkpt>
      <trkpt lat="47.54229" lon="5.71102">
        <ele>188.40039</ele>
        <time>2026-05-16T11:10:24+02:00</time>
      </trkpt>
      <trkpt lat="47.54235" lon="5.71106">
        <ele>188.2002</ele>
        <time>2026-05-16T11:10:25+02:00</time>
      </trkpt>
      <trkpt lat="47.54241" lon="5.7111">
        <ele>187.60059</ele>
        <time>2026-05-16T11:10:26+02:00</time>
      </trkpt>
      <trkpt lat="47.54249" lon="5.71116">
        <ele>187.40039</ele>
        <time>2026-05-16T11:10:27+02:00</time>
      </trkpt>
      <trkpt lat="47.54251" lon="5.71118">
        <ele>187.90039</ele>
        <time>2026-05-16T11:10:28+02:00</time>
      </trkpt>
      <trkpt lat="47.54257" lon="5.71122">
        <ele>187.90039</ele>
        <time>2026-05-16T11:10:29+02:00</time>
      </trkpt>
      <trkpt lat="47.54263" lon="5.71125">
        <ele>187.90039</ele>
        <time>2026-05-16T11:10:30+02:00</time>
      </trkpt>
      <trkpt lat="47.54271" lon="5.71132">
        <ele>188.40039</ele>
        <time>2026-05-16T11:10:31+02:00</time>
      </trkpt>
      <trkpt lat="47.54274" lon="5.71133">
        <ele>188.40039</ele>
        <time>2026-05-16T11:10:32+02:00</time>
      </trkpt>
      <trkpt lat="47.54279" lon="5.71137">
        <ele>188.10059</ele>
        <time>2026-05-16T11:10:33+02:00</time>
      </trkpt>
      <trkpt lat="47.54285" lon="5.71141">
        <ele>188</ele>
        <time>2026-05-16T11:10:34+02:00</time>
      </trkpt>
      <trkpt lat="47.54293" lon="5.71147">
        <ele>188</ele>
        <time>2026-05-16T11:10:35+02:00</time>
      </trkpt>
      <trkpt lat="47.54296" lon="5.71149">
        <ele>187.90039</ele>
        <time>2026-05-16T11:10:36+02:00</time>
      </trkpt>
      <trkpt lat="47.54301" lon="5.71154">
        <ele>188.40039</ele>
        <time>2026-05-16T11:10:37+02:00</time>
      </trkpt>
      <trkpt lat="47.54309" lon="5.71161">
        <ele>188.40039</ele>
        <time>2026-05-16T11:10:38+02:00</time>
      </trkpt>
      <trkpt lat="47.54312" lon="5.71163">
        <ele>188.40039</ele>
        <time>2026-05-16T11:10:39+02:00</time>
      </trkpt>
      <trkpt lat="47.54316" lon="5.71167">
        <ele>188.40039</ele>
        <time>2026-05-16T11:10:40+02:00</time>
      </trkpt>
      <trkpt lat="47.54322" lon="5.71172">
        <ele>188.2998</ele>
        <time>2026-05-16T11:10:41+02:00</time>
      </trkpt>
      <trkpt lat="47.54329" lon="5.71179">
        <ele>188.2998</ele>
        <time>2026-05-16T11:10:42+02:00</time>
      </trkpt>
      <trkpt lat="47.54332" lon="5.71182">
        <ele>188.2998</ele>
        <time>2026-05-16T11:10:43+02:00</time>
      </trkpt>
      <trkpt lat="47.54337" lon="5.71186">
        <ele>188.2002</ele>
        <time>2026-05-16T11:10:44+02:00</time>
      </trkpt>
      <trkpt lat="47.54345" lon="5.71194">
        <ele>188.2998</ele>
        <time>2026-05-16T11:10:45+02:00</time>
      </trkpt>
      <trkpt lat="47.54347" lon="5.71196">
        <ele>188</ele>
        <time>2026-05-16T11:10:46+02:00</time>
      </trkpt>
      <trkpt lat="47.54352" lon="5.71201">
        <ele>187.7998</ele>
        <time>2026-05-16T11:10:47+02:00</time>
      </trkpt>
      <trkpt lat="47.54357" lon="5.71207">
        <ele>188</ele>
        <time>2026-05-16T11:10:48+02:00</time>
      </trkpt>
      <trkpt lat="47.54361" lon="5.71212">
        <ele>188</ele>
        <time>2026-05-16T11:10:49+02:00</time>
      </trkpt>
      <trkpt lat="47.54366" lon="5.71218">
        <ele>188.60059</ele>
        <time>2026-05-16T11:10:50+02:00</time>
      </trkpt>
      <trkpt lat="47.54371" lon="5.71224">
        <ele>189.90039</ele>
        <time>2026-05-16T11:10:51+02:00</time>
      </trkpt>
      <trkpt lat="47.54376" lon="5.71235">
        <ele>191.90039</ele>
        <time>2026-05-16T11:10:52+02:00</time>
      </trkpt>
      <trkpt lat="47.54377" lon="5.71239">
        <ele>191.7002</ele>
        <time>2026-05-16T11:10:53+02:00</time>
      </trkpt>
      <trkpt lat="47.54378" lon="5.71247">
        <ele>191.5</ele>
        <time>2026-05-16T11:10:54+02:00</time>
      </trkpt>
      <trkpt lat="47.54376" lon="5.71261">
        <ele>191.2998</ele>
        <time>2026-05-16T11:10:55+02:00</time>
      </trkpt>
      <trkpt lat="47.54376" lon="5.71265">
        <ele>191.2998</ele>
        <time>2026-05-16T11:10:56+02:00</time>
      </trkpt>
      <trkpt lat="47.54374" lon="5.71273">
        <ele>189.2998</ele>
        <time>2026-05-16T11:10:57+02:00</time>
      </trkpt>
      <trkpt lat="47.54371" lon="5.71282">
        <ele>189.2998</ele>
        <time>2026-05-16T11:10:58+02:00</time>
      </trkpt>
      <trkpt lat="47.54369" lon="5.71291">
        <ele>190</ele>
        <time>2026-05-16T11:10:59+02:00</time>
      </trkpt>
      <trkpt lat="47.54366" lon="5.713">
        <ele>189.7998</ele>
        <time>2026-05-16T11:11:00+02:00</time>
      </trkpt>
      <trkpt lat="47.54364" lon="5.71307">
        <ele>190.90039</ele>
        <time>2026-05-16T11:11:01+02:00</time>
      </trkpt>
      <trkpt lat="47.5436" lon="5.71319">
        <ele>190.5</ele>
        <time>2026-05-16T11:11:02+02:00</time>
      </trkpt>
      <trkpt lat="47.54358" lon="5.71323">
        <ele>190.5</ele>
        <time>2026-05-16T11:11:03+02:00</time>
      </trkpt>
      <trkpt lat="47.54356" lon="5.71331">
        <ele>189.90039</ele>
        <time>2026-05-16T11:11:04+02:00</time>
      </trkpt>
      <trkpt lat="47.54353" lon="5.71339">
        <ele>190.60059</ele>
        <time>2026-05-16T11:11:05+02:00</time>
      </trkpt>
      <trkpt lat="47.54348" lon="5.71351">
        <ele>191.2998</ele>
        <time>2026-05-16T11:11:06+02:00</time>
      </trkpt>
      <trkpt lat="47.54347" lon="5.71355">
        <ele>191.2998</ele>
        <time>2026-05-16T11:11:07+02:00</time>
      </trkpt>
      <trkpt lat="47.54342" lon="5.71362">
        <ele>191</ele>
        <time>2026-05-16T11:11:08+02:00</time>
      </trkpt>
      <trkpt lat="47.54338" lon="5.71369">
        <ele>190.60059</ele>
        <time>2026-05-16T11:11:09+02:00</time>
      </trkpt>
      <trkpt lat="47.54331" lon="5.7138">
        <ele>190.5</ele>
        <time>2026-05-16T11:11:10+02:00</time>
      </trkpt>
      <trkpt lat="47.54329" lon="5.71383">
        <ele>190.5</ele>
        <time>2026-05-16T11:11:11+02:00</time>
      </trkpt>
      <trkpt lat="47.54324" lon="5.7139">
        <ele>190.60059</ele>
        <time>2026-05-16T11:11:12+02:00</time>
      </trkpt>
      <trkpt lat="47.5432" lon="5.71396">
        <ele>190.40039</ele>
        <time>2026-05-16T11:11:13+02:00</time>
      </trkpt>
      <trkpt lat="47.54315" lon="5.71402">
        <ele>190.2998</ele>
        <time>2026-05-16T11:11:14+02:00</time>
      </trkpt>
      <trkpt lat="47.5431" lon="5.71408">
        <ele>189.7998</ele>
        <time>2026-05-16T11:11:15+02:00</time>
      </trkpt>
      <trkpt lat="47.54305" lon="5.71413">
        <ele>190.7002</ele>
        <time>2026-05-16T11:11:16+02:00</time>
      </trkpt>
      <trkpt lat="47.54297" lon="5.71421">
        <ele>191.2002</ele>
        <time>2026-05-16T11:11:17+02:00</time>
      </trkpt>
      <trkpt lat="47.54295" lon="5.71424">
        <ele>191.2002</ele>
        <time>2026-05-16T11:11:18+02:00</time>
      </trkpt>
      <trkpt lat="47.5429" lon="5.71428">
        <ele>192.10059</ele>
        <time>2026-05-16T11:11:19+02:00</time>
      </trkpt>
      <trkpt lat="47.54282" lon="5.71435">
        <ele>193.7998</ele>
        <time>2026-05-16T11:11:20+02:00</time>
      </trkpt>
      <trkpt lat="47.54279" lon="5.71438">
        <ele>193.40039</ele>
        <time>2026-05-16T11:11:21+02:00</time>
      </trkpt>
      <trkpt lat="47.54273" lon="5.71442">
        <ele>192.7002</ele>
        <time>2026-05-16T11:11:22+02:00</time>
      </trkpt>
      <trkpt lat="47.54267" lon="5.71446">
        <ele>192.90039</ele>
        <time>2026-05-16T11:11:23+02:00</time>
      </trkpt>
      <trkpt lat="47.54262" lon="5.71451">
        <ele>191.90039</ele>
        <time>2026-05-16T11:11:24+02:00</time>
      </trkpt>
      <trkpt lat="47.54256" lon="5.71455">
        <ele>191.7998</ele>
        <time>2026-05-16T11:11:25+02:00</time>
      </trkpt>
      <trkpt lat="47.5425" lon="5.71459">
        <ele>191.40039</ele>
        <time>2026-05-16T11:11:26+02:00</time>
      </trkpt>
      <trkpt lat="47.54241" lon="5.71465">
        <ele>192.10059</ele>
        <time>2026-05-16T11:11:27+02:00</time>
      </trkpt>
      <trkpt lat="47.54238" lon="5.71467">
        <ele>191.90039</ele>
        <time>2026-05-16T11:11:28+02:00</time>
      </trkpt>
      <trkpt lat="47.54232" lon="5.71471">
        <ele>193</ele>
        <time>2026-05-16T11:11:29+02:00</time>
      </trkpt>
      <trkpt lat="47.54223" lon="5.71476">
        <ele>192.7998</ele>
        <time>2026-05-16T11:11:30+02:00</time>
      </trkpt>
      <trkpt lat="47.5422" lon="5.71478">
        <ele>194.7998</ele>
        <time>2026-05-16T11:11:31+02:00</time>
      </trkpt>
      <trkpt lat="47.54214" lon="5.71482">
        <ele>194.7998</ele>
        <time>2026-05-16T11:11:32+02:00</time>
      </trkpt>
      <trkpt lat="47.54208" lon="5.71485">
        <ele>194.7002</ele>
        <time>2026-05-16T11:11:33+02:00</time>
      </trkpt>
      <trkpt lat="47.54202" lon="5.71489">
        <ele>196.40039</ele>
        <time>2026-05-16T11:11:34+02:00</time>
      </trkpt>
      <trkpt lat="47.54196" lon="5.71491">
        <ele>196.2002</ele>
        <time>2026-05-16T11:11:35+02:00</time>
      </trkpt>
      <trkpt lat="47.54189" lon="5.71494">
        <ele>196.10059</ele>
        <time>2026-05-16T11:11:36+02:00</time>
      </trkpt>
      <trkpt lat="47.5418" lon="5.71498">
        <ele>196.7998</ele>
        <time>2026-05-16T11:11:37+02:00</time>
      </trkpt>
      <trkpt lat="47.54176" lon="5.71498">
        <ele>196.7998</ele>
        <time>2026-05-16T11:11:38+02:00</time>
      </trkpt>
      <trkpt lat="47.5417" lon="5.715">
        <ele>196.7998</ele>
        <time>2026-05-16T11:11:39+02:00</time>
      </trkpt>
      <trkpt lat="47.54163" lon="5.71501">
        <ele>196.90039</ele>
        <time>2026-05-16T11:11:40+02:00</time>
      </trkpt>
      <trkpt lat="47.54156" lon="5.71502">
        <ele>197</ele>
        <time>2026-05-16T11:11:41+02:00</time>
      </trkpt>
      <trkpt lat="47.5415" lon="5.71502">
        <ele>197.10059</ele>
        <time>2026-05-16T11:11:42+02:00</time>
      </trkpt>
      <trkpt lat="47.54144" lon="5.71502">
        <ele>197.2998</ele>
        <time>2026-05-16T11:11:43+02:00</time>
      </trkpt>
      <trkpt lat="47.54134" lon="5.71504">
        <ele>198.2998</ele>
        <time>2026-05-16T11:11:44+02:00</time>
      </trkpt>
      <trkpt lat="47.54131" lon="5.71504">
        <ele>198.40039</ele>
        <time>2026-05-16T11:11:45+02:00</time>
      </trkpt>
      <trkpt lat="47.54125" lon="5.71506">
        <ele>197.7998</ele>
        <time>2026-05-16T11:11:46+02:00</time>
      </trkpt>
      <trkpt lat="47.54118" lon="5.71508">
        <ele>196.2002</ele>
        <time>2026-05-16T11:11:47+02:00</time>
      </trkpt>
      <trkpt lat="47.54112" lon="5.7151">
        <ele>194.40039</ele>
        <time>2026-05-16T11:11:48+02:00</time>
      </trkpt>
      <trkpt lat="47.54106" lon="5.71512">
        <ele>193.10059</ele>
        <time>2026-05-16T11:11:49+02:00</time>
      </trkpt>
      <trkpt lat="47.54099" lon="5.71515">
        <ele>193.2998</ele>
        <time>2026-05-16T11:11:50+02:00</time>
      </trkpt>
      <trkpt lat="47.5409" lon="5.7152">
        <ele>191.7998</ele>
        <time>2026-05-16T11:11:51+02:00</time>
      </trkpt>
      <trkpt lat="47.54087" lon="5.71521">
        <ele>192.5</ele>
        <time>2026-05-16T11:11:52+02:00</time>
      </trkpt>
      <trkpt lat="47.54081" lon="5.71525">
        <ele>191.60059</ele>
        <time>2026-05-16T11:11:53+02:00</time>
      </trkpt>
      <trkpt lat="47.54073" lon="5.71531">
        <ele>190.5</ele>
        <time>2026-05-16T11:11:54+02:00</time>
      </trkpt>
      <trkpt lat="47.5407" lon="5.71533">
        <ele>190.5</ele>
        <time>2026-05-16T11:11:55+02:00</time>
      </trkpt>
      <trkpt lat="47.54065" lon="5.71537">
        <ele>190</ele>
        <time>2026-05-16T11:11:56+02:00</time>
      </trkpt>
      <trkpt lat="47.54059" lon="5.71542">
        <ele>189.90039</ele>
        <time>2026-05-16T11:11:57+02:00</time>
      </trkpt>
      <trkpt lat="47.54055" lon="5.71547">
        <ele>189.40039</ele>
        <time>2026-05-16T11:11:58+02:00</time>
      </trkpt>
      <trkpt lat="47.5405" lon="5.71552">
        <ele>189.40039</ele>
        <time>2026-05-16T11:11:59+02:00</time>
      </trkpt>
      <trkpt lat="47.54046" lon="5.71559">
        <ele>188.7998</ele>
        <time>2026-05-16T11:12:00+02:00</time>
      </trkpt>
      <trkpt lat="47.54039" lon="5.71568">
        <ele>188.40039</ele>
        <time>2026-05-16T11:12:01+02:00</time>
      </trkpt>
      <trkpt lat="47.54037" lon="5.71572">
        <ele>188.2998</ele>
        <time>2026-05-16T11:12:02+02:00</time>
      </trkpt>
      <trkpt lat="47.54033" lon="5.71579">
        <ele>188.2998</ele>
        <time>2026-05-16T11:12:03+02:00</time>
      </trkpt>
      <trkpt lat="47.5403" lon="5.71587">
        <ele>188.2002</ele>
        <time>2026-05-16T11:12:04+02:00</time>
      </trkpt>
      <trkpt lat="47.54026" lon="5.71596">
        <ele>188.2998</ele>
        <time>2026-05-16T11:12:05+02:00</time>
      </trkpt>
      <trkpt lat="47.54023" lon="5.71604">
        <ele>188.2998</ele>
        <time>2026-05-16T11:12:06+02:00</time>
      </trkpt>
      <trkpt lat="47.5402" lon="5.71612">
        <ele>188.40039</ele>
        <time>2026-05-16T11:12:07+02:00</time>
      </trkpt>
      <trkpt lat="47.54017" lon="5.71625">
        <ele>188.40039</ele>
        <time>2026-05-16T11:12:08+02:00</time>
      </trkpt>
      <trkpt lat="47.54015" lon="5.7163">
        <ele>188.40039</ele>
        <time>2026-05-16T11:12:09+02:00</time>
      </trkpt>
      <trkpt lat="47.54014" lon="5.71639">
        <ele>188.40039</ele>
        <time>2026-05-16T11:12:10+02:00</time>
      </trkpt>
      <trkpt lat="47.54013" lon="5.71649">
        <ele>188.40039</ele>
        <time>2026-05-16T11:12:11+02:00</time>
      </trkpt>
      <trkpt lat="47.54012" lon="5.71658">
        <ele>188.40039</ele>
        <time>2026-05-16T11:12:12+02:00</time>
      </trkpt>
      <trkpt lat="47.54012" lon="5.71668">
        <ele>188.40039</ele>
        <time>2026-05-16T11:12:13+02:00</time>
      </trkpt>
      <trkpt lat="47.54012" lon="5.71677">
        <ele>188.40039</ele>
        <time>2026-05-16T11:12:14+02:00</time>
      </trkpt>
      <trkpt lat="47.54012" lon="5.71692">
        <ele>188.40039</ele>
        <time>2026-05-16T11:12:15+02:00</time>
      </trkpt>
      <trkpt lat="47.54012" lon="5.71696">
        <ele>188.40039</ele>
        <time>2026-05-16T11:12:16+02:00</time>
      </trkpt>
      <trkpt lat="47.54012" lon="5.71706">
        <ele>188.40039</ele>
        <time>2026-05-16T11:12:17+02:00</time>
      </trkpt>
      <trkpt lat="47.54014" lon="5.71716">
        <ele>188.40039</ele>
        <time>2026-05-16T11:12:18+02:00</time>
      </trkpt>
      <trkpt lat="47.54015" lon="5.71725">
        <ele>188.40039</ele>
        <time>2026-05-16T11:12:19+02:00</time>
      </trkpt>
      <trkpt lat="47.54016" lon="5.71735">
        <ele>188.40039</ele>
        <time>2026-05-16T11:12:20+02:00</time>
      </trkpt>
      <trkpt lat="47.54018" lon="5.71744">
        <ele>188.40039</ele>
        <time>2026-05-16T11:12:21+02:00</time>
      </trkpt>
      <trkpt lat="47.5402" lon="5.71754">
        <ele>188.40039</ele>
        <time>2026-05-16T11:12:22+02:00</time>
      </trkpt>
      <trkpt lat="47.54022" lon="5.71763">
        <ele>188.40039</ele>
        <time>2026-05-16T11:12:23+02:00</time>
      </trkpt>
      <trkpt lat="47.54023" lon="5.71772">
        <ele>188.40039</ele>
        <time>2026-05-16T11:12:24+02:00</time>
      </trkpt>
      <trkpt lat="47.54025" lon="5.71782">
        <ele>188.40039</ele>
        <time>2026-05-16T11:12:25+02:00</time>
      </trkpt>
      <trkpt lat="47.54028" lon="5.71791">
        <ele>188.40039</ele>
        <time>2026-05-16T11:12:26+02:00</time>
      </trkpt>
      <trkpt lat="47.5403" lon="5.718">
        <ele>188.40039</ele>
        <time>2026-05-16T11:12:27+02:00</time>
      </trkpt>
      <trkpt lat="47.54032" lon="5.7181">
        <ele>188.40039</ele>
        <time>2026-05-16T11:12:28+02:00</time>
      </trkpt>
      <trkpt lat="47.54037" lon="5.71823">
        <ele>188.40039</ele>
        <time>2026-05-16T11:12:29+02:00</time>
      </trkpt>
      <trkpt lat="47.54038" lon="5.71828">
        <ele>188.40039</ele>
        <time>2026-05-16T11:12:30+02:00</time>
      </trkpt>
      <trkpt lat="47.54042" lon="5.71836">
        <ele>188.40039</ele>
        <time>2026-05-16T11:12:31+02:00</time>
      </trkpt>
      <trkpt lat="47.54047" lon="5.71849">
        <ele>188.40039</ele>
        <time>2026-05-16T11:12:32+02:00</time>
      </trkpt>
      <trkpt lat="47.54049" lon="5.71853">
        <ele>188.40039</ele>
        <time>2026-05-16T11:12:33+02:00</time>
      </trkpt>
      <trkpt lat="47.54052" lon="5.71862">
        <ele>188.40039</ele>
        <time>2026-05-16T11:12:34+02:00</time>
      </trkpt>
      <trkpt lat="47.54056" lon="5.7187">
        <ele>188.40039</ele>
        <time>2026-05-16T11:12:35+02:00</time>
      </trkpt>
      <trkpt lat="47.5406" lon="5.71879">
        <ele>188.40039</ele>
        <time>2026-05-16T11:12:36+02:00</time>
      </trkpt>
      <trkpt lat="47.54064" lon="5.71887">
        <ele>188.40039</ele>
        <time>2026-05-16T11:12:37+02:00</time>
      </trkpt>
      <trkpt lat="47.54067" lon="5.71896">
        <ele>188.40039</ele>
        <time>2026-05-16T11:12:38+02:00</time>
      </trkpt>
      <trkpt lat="47.54073" lon="5.71908">
        <ele>188.40039</ele>
        <time>2026-05-16T11:12:39+02:00</time>
      </trkpt>
      <trkpt lat="47.54075" lon="5.71912">
        <ele>188.40039</ele>
        <time>2026-05-16T11:12:40+02:00</time>
      </trkpt>
      <trkpt lat="47.54079" lon="5.71921">
        <ele>188.2998</ele>
        <time>2026-05-16T11:12:41+02:00</time>
      </trkpt>
      <trkpt lat="47.54085" lon="5.71933">
        <ele>188.40039</ele>
        <time>2026-05-16T11:12:42+02:00</time>
      </trkpt>
      <trkpt lat="47.54086" lon="5.71937">
        <ele>188.40039</ele>
        <time>2026-05-16T11:12:43+02:00</time>
      </trkpt>
      <trkpt lat="47.5409" lon="5.71945">
        <ele>188.40039</ele>
        <time>2026-05-16T11:12:44+02:00</time>
      </trkpt>
      <trkpt lat="47.54094" lon="5.71954">
        <ele>188.40039</ele>
        <time>2026-05-16T11:12:45+02:00</time>
      </trkpt>
      <trkpt lat="47.54099" lon="5.71966">
        <ele>188.40039</ele>
        <time>2026-05-16T11:12:46+02:00</time>
      </trkpt>
      <trkpt lat="47.54101" lon="5.7197">
        <ele>188.40039</ele>
        <time>2026-05-16T11:12:47+02:00</time>
      </trkpt>
      <trkpt lat="47.54105" lon="5.71979">
        <ele>188.40039</ele>
        <time>2026-05-16T11:12:48+02:00</time>
      </trkpt>
      <trkpt lat="47.54109" lon="5.71991">
        <ele>188.2998</ele>
        <time>2026-05-16T11:12:49+02:00</time>
      </trkpt>
      <trkpt lat="47.5411" lon="5.71996">
        <ele>188.2998</ele>
        <time>2026-05-16T11:12:50+02:00</time>
      </trkpt>
      <trkpt lat="47.54113" lon="5.72004">
        <ele>188.2998</ele>
        <time>2026-05-16T11:12:51+02:00</time>
      </trkpt>
      <trkpt lat="47.54115" lon="5.72013">
        <ele>188.2998</ele>
        <time>2026-05-16T11:12:52+02:00</time>
      </trkpt>
      <trkpt lat="47.54117" lon="5.72022">
        <ele>188.40039</ele>
        <time>2026-05-16T11:12:53+02:00</time>
      </trkpt>
      <trkpt lat="47.54118" lon="5.72031">
        <ele>188.40039</ele>
        <time>2026-05-16T11:12:54+02:00</time>
      </trkpt>
      <trkpt lat="47.5412" lon="5.72039">
        <ele>188.40039</ele>
        <time>2026-05-16T11:12:55+02:00</time>
      </trkpt>
      <trkpt lat="47.54122" lon="5.72053">
        <ele>188.40039</ele>
        <time>2026-05-16T11:12:56+02:00</time>
      </trkpt>
      <trkpt lat="47.54123" lon="5.72057">
        <ele>188.40039</ele>
        <time>2026-05-16T11:12:57+02:00</time>
      </trkpt>
      <trkpt lat="47.54124" lon="5.72066">
        <ele>188.40039</ele>
        <time>2026-05-16T11:12:58+02:00</time>
      </trkpt>
      <trkpt lat="47.54127" lon="5.7208">
        <ele>188.40039</ele>
        <time>2026-05-16T11:12:59+02:00</time>
      </trkpt>
      <trkpt lat="47.54128" lon="5.72084">
        <ele>188.40039</ele>
        <time>2026-05-16T11:13:00+02:00</time>
      </trkpt>
      <trkpt lat="47.5413" lon="5.72093">
        <ele>188.40039</ele>
        <time>2026-05-16T11:13:01+02:00</time>
      </trkpt>
      <trkpt lat="47.54133" lon="5.72102">
        <ele>188.2998</ele>
        <time>2026-05-16T11:13:02+02:00</time>
      </trkpt>
      <trkpt lat="47.54137" lon="5.72115">
        <ele>188.2998</ele>
        <time>2026-05-16T11:13:03+02:00</time>
      </trkpt>
      <trkpt lat="47.54138" lon="5.72119">
        <ele>188.2998</ele>
        <time>2026-05-16T11:13:04+02:00</time>
      </trkpt>
      <trkpt lat="47.54141" lon="5.72128">
        <ele>188.40039</ele>
        <time>2026-05-16T11:13:05+02:00</time>
      </trkpt>
      <trkpt lat="47.54145" lon="5.72141">
        <ele>188.40039</ele>
        <time>2026-05-16T11:13:06+02:00</time>
      </trkpt>
      <trkpt lat="47.54146" lon="5.72146">
        <ele>188.40039</ele>
        <time>2026-05-16T11:13:07+02:00</time>
      </trkpt>
      <trkpt lat="47.54148" lon="5.72155">
        <ele>188.40039</ele>
        <time>2026-05-16T11:13:08+02:00</time>
      </trkpt>
      <trkpt lat="47.54151" lon="5.72164">
        <ele>188.40039</ele>
        <time>2026-05-16T11:13:09+02:00</time>
      </trkpt>
      <trkpt lat="47.54154" lon="5.72178">
        <ele>188.40039</ele>
        <time>2026-05-16T11:13:10+02:00</time>
      </trkpt>
      <trkpt lat="47.54155" lon="5.72182">
        <ele>188.40039</ele>
        <time>2026-05-16T11:13:11+02:00</time>
      </trkpt>
      <trkpt lat="47.54156" lon="5.72192">
        <ele>188.40039</ele>
        <time>2026-05-16T11:13:12+02:00</time>
      </trkpt>
      <trkpt lat="47.54159" lon="5.72205">
        <ele>188.40039</ele>
        <time>2026-05-16T11:13:13+02:00</time>
      </trkpt>
      <trkpt lat="47.5416" lon="5.7221">
        <ele>188.40039</ele>
        <time>2026-05-16T11:13:14+02:00</time>
      </trkpt>
      <trkpt lat="47.54161" lon="5.72219">
        <ele>188.2998</ele>
        <time>2026-05-16T11:13:15+02:00</time>
      </trkpt>
      <trkpt lat="47.54164" lon="5.72233">
        <ele>188.2998</ele>
        <time>2026-05-16T11:13:16+02:00</time>
      </trkpt>
      <trkpt lat="47.54165" lon="5.72237">
        <ele>188.2998</ele>
        <time>2026-05-16T11:13:17+02:00</time>
      </trkpt>
      <trkpt lat="47.54167" lon="5.72246">
        <ele>188.2002</ele>
        <time>2026-05-16T11:13:18+02:00</time>
      </trkpt>
      <trkpt lat="47.54168" lon="5.72256">
        <ele>188.2002</ele>
        <time>2026-05-16T11:13:19+02:00</time>
      </trkpt>
      <trkpt lat="47.5417" lon="5.72269">
        <ele>188.2002</ele>
        <time>2026-05-16T11:13:20+02:00</time>
      </trkpt>
      <trkpt lat="47.54171" lon="5.72274">
        <ele>188.2002</ele>
        <time>2026-05-16T11:13:21+02:00</time>
      </trkpt>
      <trkpt lat="47.54172" lon="5.72284">
        <ele>188.2002</ele>
        <time>2026-05-16T11:13:22+02:00</time>
      </trkpt>
      <trkpt lat="47.54172" lon="5.72299">
        <ele>188.2002</ele>
        <time>2026-05-16T11:13:23+02:00</time>
      </trkpt>
      <trkpt lat="47.54172" lon="5.72304">
        <ele>188.2002</ele>
        <time>2026-05-16T11:13:24+02:00</time>
      </trkpt>
      <trkpt lat="47.54172" lon="5.72313">
        <ele>188.2002</ele>
        <time>2026-05-16T11:13:25+02:00</time>
      </trkpt>
      <trkpt lat="47.54171" lon="5.72323">
        <ele>188.2998</ele>
        <time>2026-05-16T11:13:26+02:00</time>
      </trkpt>
      <trkpt lat="47.54171" lon="5.72333">
        <ele>188.2998</ele>
        <time>2026-05-16T11:13:27+02:00</time>
      </trkpt>
      <trkpt lat="47.54171" lon="5.72343">
        <ele>188.2998</ele>
        <time>2026-05-16T11:13:28+02:00</time>
      </trkpt>
      <trkpt lat="47.5417" lon="5.72354">
        <ele>188.2998</ele>
        <time>2026-05-16T11:13:29+02:00</time>
      </trkpt>
      <trkpt lat="47.5417" lon="5.72369">
        <ele>188.2998</ele>
        <time>2026-05-16T11:13:30+02:00</time>
      </trkpt>
      <trkpt lat="47.5417" lon="5.72374">
        <ele>188.2998</ele>
        <time>2026-05-16T11:13:31+02:00</time>
      </trkpt>
      <trkpt lat="47.5417" lon="5.72384">
        <ele>188.2998</ele>
        <time>2026-05-16T11:13:32+02:00</time>
      </trkpt>
      <trkpt lat="47.5417" lon="5.72399">
        <ele>188.2998</ele>
        <time>2026-05-16T11:13:33+02:00</time>
      </trkpt>
      <trkpt lat="47.5417" lon="5.72404">
        <ele>188.2998</ele>
        <time>2026-05-16T11:13:34+02:00</time>
      </trkpt>
      <trkpt lat="47.54169" lon="5.72413">
        <ele>188.2998</ele>
        <time>2026-05-16T11:13:35+02:00</time>
      </trkpt>
      <trkpt lat="47.54169" lon="5.72423">
        <ele>188.2998</ele>
        <time>2026-05-16T11:13:36+02:00</time>
      </trkpt>
      <trkpt lat="47.54168" lon="5.72438">
        <ele>188.2998</ele>
        <time>2026-05-16T11:13:37+02:00</time>
      </trkpt>
      <trkpt lat="47.54167" lon="5.72443">
        <ele>188.2998</ele>
        <time>2026-05-16T11:13:38+02:00</time>
      </trkpt>
      <trkpt lat="47.54166" lon="5.72452">
        <ele>188.2998</ele>
        <time>2026-05-16T11:13:39+02:00</time>
      </trkpt>
      <trkpt lat="47.54165" lon="5.72462">
        <ele>188.40039</ele>
        <time>2026-05-16T11:13:40+02:00</time>
      </trkpt>
      <trkpt lat="47.54165" lon="5.72476">
        <ele>188.40039</ele>
        <time>2026-05-16T11:13:41+02:00</time>
      </trkpt>
      <trkpt lat="47.54165" lon="5.72481">
        <ele>188.40039</ele>
        <time>2026-05-16T11:13:42+02:00</time>
      </trkpt>
      <trkpt lat="47.54165" lon="5.72491">
        <ele>188.40039</ele>
        <time>2026-05-16T11:13:43+02:00</time>
      </trkpt>
      <trkpt lat="47.54166" lon="5.72505">
        <ele>188.40039</ele>
        <time>2026-05-16T11:13:44+02:00</time>
      </trkpt>
      <trkpt lat="47.54167" lon="5.7251">
        <ele>188.40039</ele>
        <time>2026-05-16T11:13:45+02:00</time>
      </trkpt>
      <trkpt lat="47.54167" lon="5.72519">
        <ele>188.40039</ele>
        <time>2026-05-16T11:13:46+02:00</time>
      </trkpt>
      <trkpt lat="47.54168" lon="5.72528">
        <ele>188.40039</ele>
        <time>2026-05-16T11:13:47+02:00</time>
      </trkpt>
      <trkpt lat="47.5417" lon="5.72542">
        <ele>188.40039</ele>
        <time>2026-05-16T11:13:48+02:00</time>
      </trkpt>
      <trkpt lat="47.5417" lon="5.72546">
        <ele>188.40039</ele>
        <time>2026-05-16T11:13:49+02:00</time>
      </trkpt>
      <trkpt lat="47.54172" lon="5.72555">
        <ele>188.90039</ele>
        <time>2026-05-16T11:13:50+02:00</time>
      </trkpt>
      <trkpt lat="47.54174" lon="5.72568">
        <ele>189.40039</ele>
        <time>2026-05-16T11:13:51+02:00</time>
      </trkpt>
      <trkpt lat="47.54175" lon="5.72572">
        <ele>189.40039</ele>
        <time>2026-05-16T11:13:52+02:00</time>
      </trkpt>
      <trkpt lat="47.54177" lon="5.7258">
        <ele>190</ele>
        <time>2026-05-16T11:13:53+02:00</time>
      </trkpt>
      <trkpt lat="47.54179" lon="5.72588">
        <ele>191.5</ele>
        <time>2026-05-16T11:13:54+02:00</time>
      </trkpt>
      <trkpt lat="47.54183" lon="5.726">
        <ele>192</ele>
        <time>2026-05-16T11:13:55+02:00</time>
      </trkpt>
      <trkpt lat="47.54185" lon="5.72604">
        <ele>193.10059</ele>
        <time>2026-05-16T11:13:56+02:00</time>
      </trkpt>
      <trkpt lat="47.54188" lon="5.72611">
        <ele>193.40039</ele>
        <time>2026-05-16T11:13:57+02:00</time>
      </trkpt>
      <trkpt lat="47.54192" lon="5.72617">
        <ele>194.10059</ele>
        <time>2026-05-16T11:13:58+02:00</time>
      </trkpt>
      <trkpt lat="47.54196" lon="5.72624">
        <ele>194.90039</ele>
        <time>2026-05-16T11:13:59+02:00</time>
      </trkpt>
      <trkpt lat="47.542" lon="5.7263">
        <ele>195.10059</ele>
        <time>2026-05-16T11:14:00+02:00</time>
      </trkpt>
      <trkpt lat="47.54204" lon="5.72636">
        <ele>195.5</ele>
        <time>2026-05-16T11:14:01+02:00</time>
      </trkpt>
      <trkpt lat="47.5421" lon="5.72643">
        <ele>196.10059</ele>
        <time>2026-05-16T11:14:02+02:00</time>
      </trkpt>
      <trkpt lat="47.54212" lon="5.72646">
        <ele>196.40039</ele>
        <time>2026-05-16T11:14:03+02:00</time>
      </trkpt>
      <trkpt lat="47.54217" lon="5.7265">
        <ele>196.40039</ele>
        <time>2026-05-16T11:14:04+02:00</time>
      </trkpt>
      <trkpt lat="47.54224" lon="5.72656">
        <ele>196.5</ele>
        <time>2026-05-16T11:14:05+02:00</time>
      </trkpt>
      <trkpt lat="47.54226" lon="5.72658">
        <ele>196.5</ele>
        <time>2026-05-16T11:14:06+02:00</time>
      </trkpt>
      <trkpt lat="47.54232" lon="5.72662">
        <ele>196.2998</ele>
        <time>2026-05-16T11:14:07+02:00</time>
      </trkpt>
      <trkpt lat="47.54237" lon="5.72666">
        <ele>196.2998</ele>
        <time>2026-05-16T11:14:08+02:00</time>
      </trkpt>
      <trkpt lat="47.54242" lon="5.7267">
        <ele>196.2002</ele>
        <time>2026-05-16T11:14:09+02:00</time>
      </trkpt>
      <trkpt lat="47.54248" lon="5.72674">
        <ele>196.2002</ele>
        <time>2026-05-16T11:14:10+02:00</time>
      </trkpt>
      <trkpt lat="47.54253" lon="5.72677">
        <ele>196</ele>
        <time>2026-05-16T11:14:11+02:00</time>
      </trkpt>
      <trkpt lat="47.54261" lon="5.72683">
        <ele>196</ele>
        <time>2026-05-16T11:14:12+02:00</time>
      </trkpt>
      <trkpt lat="47.54264" lon="5.72685">
        <ele>196</ele>
        <time>2026-05-16T11:14:13+02:00</time>
      </trkpt>
      <trkpt lat="47.5427" lon="5.72689">
        <ele>196.2002</ele>
        <time>2026-05-16T11:14:14+02:00</time>
      </trkpt>
      <trkpt lat="47.54278" lon="5.72694">
        <ele>196.2002</ele>
        <time>2026-05-16T11:14:15+02:00</time>
      </trkpt>
      <trkpt lat="47.5428" lon="5.72696">
        <ele>196.2002</ele>
        <time>2026-05-16T11:14:16+02:00</time>
      </trkpt>
      <trkpt lat="47.54286" lon="5.72699">
        <ele>196.40039</ele>
        <time>2026-05-16T11:14:17+02:00</time>
      </trkpt>
      <trkpt lat="47.54291" lon="5.72703">
        <ele>196.2002</ele>
        <time>2026-05-16T11:14:18+02:00</time>
      </trkpt>
      <trkpt lat="47.54299" lon="5.72709">
        <ele>196</ele>
        <time>2026-05-16T11:14:19+02:00</time>
      </trkpt>
      <trkpt lat="47.54302" lon="5.7271">
        <ele>196</ele>
        <time>2026-05-16T11:14:20+02:00</time>
      </trkpt>
      <trkpt lat="47.54308" lon="5.72714">
        <ele>196.10059</ele>
        <time>2026-05-16T11:14:21+02:00</time>
      </trkpt>
      <trkpt lat="47.54316" lon="5.7272">
        <ele>195.90039</ele>
        <time>2026-05-16T11:14:22+02:00</time>
      </trkpt>
      <trkpt lat="47.54319" lon="5.72722">
        <ele>195.90039</ele>
        <time>2026-05-16T11:14:23+02:00</time>
      </trkpt>
      <trkpt lat="47.54324" lon="5.72726">
        <ele>196.2002</ele>
        <time>2026-05-16T11:14:24+02:00</time>
      </trkpt>
      <trkpt lat="47.54332" lon="5.72732">
        <ele>196.7002</ele>
        <time>2026-05-16T11:14:25+02:00</time>
      </trkpt>
      <trkpt lat="47.54336" lon="5.72734">
        <ele>196.7998</ele>
        <time>2026-05-16T11:14:26+02:00</time>
      </trkpt>
      <trkpt lat="47.54341" lon="5.72738">
        <ele>196.90039</ele>
        <time>2026-05-16T11:14:27+02:00</time>
      </trkpt>
      <trkpt lat="47.54349" lon="5.72744">
        <ele>196.7002</ele>
        <time>2026-05-16T11:14:28+02:00</time>
      </trkpt>
      <trkpt lat="47.54355" lon="5.72747">
        <ele>196.5</ele>
        <time>2026-05-16T11:14:29+02:00</time>
      </trkpt>
      <trkpt lat="47.54358" lon="5.72749">
        <ele>196.10059</ele>
        <time>2026-05-16T11:14:30+02:00</time>
      </trkpt>
      <trkpt lat="47.54363" lon="5.72754">
        <ele>195.90039</ele>
        <time>2026-05-16T11:14:31+02:00</time>
      </trkpt>
      <trkpt lat="47.54372" lon="5.7276">
        <ele>195.7998</ele>
        <time>2026-05-16T11:14:32+02:00</time>
      </trkpt>
      <trkpt lat="47.54375" lon="5.72762">
        <ele>195.7002</ele>
        <time>2026-05-16T11:14:33+02:00</time>
      </trkpt>
      <trkpt lat="47.54381" lon="5.72765">
        <ele>195.90039</ele>
        <time>2026-05-16T11:14:34+02:00</time>
      </trkpt>
      <trkpt lat="47.54386" lon="5.72769">
        <ele>195.90039</ele>
        <time>2026-05-16T11:14:35+02:00</time>
      </trkpt>
      <trkpt lat="47.54395" lon="5.72775">
        <ele>196.2002</ele>
        <time>2026-05-16T11:14:36+02:00</time>
      </trkpt>
      <trkpt lat="47.54398" lon="5.72777">
        <ele>196.2998</ele>
        <time>2026-05-16T11:14:37+02:00</time>
      </trkpt>
      <trkpt lat="47.54403" lon="5.72781">
        <ele>196.2998</ele>
        <time>2026-05-16T11:14:38+02:00</time>
      </trkpt>
      <trkpt lat="47.54409" lon="5.72785">
        <ele>196.40039</ele>
        <time>2026-05-16T11:14:39+02:00</time>
      </trkpt>
      <trkpt lat="47.54415" lon="5.72789">
        <ele>196.2998</ele>
        <time>2026-05-16T11:14:40+02:00</time>
      </trkpt>
      <trkpt lat="47.54421" lon="5.72793">
        <ele>197.10059</ele>
        <time>2026-05-16T11:14:41+02:00</time>
      </trkpt>
      <trkpt lat="47.54443" lon="5.7281">
        <ele>197</ele>
        <time>2026-05-16T11:14:42+02:00</time>
      </trkpt>
      <trkpt lat="47.5445" lon="5.72814">
        <ele>196.10059</ele>
        <time>2026-05-16T11:14:43+02:00</time>
      </trkpt>
      <trkpt lat="47.54455" lon="5.72817">
        <ele>196.5</ele>
        <time>2026-05-16T11:14:44+02:00</time>
      </trkpt>
      <trkpt lat="47.54464" lon="5.72823">
        <ele>195.7998</ele>
        <time>2026-05-16T11:14:45+02:00</time>
      </trkpt>
      <trkpt lat="47.54467" lon="5.72825">
        <ele>195.7002</ele>
        <time>2026-05-16T11:14:46+02:00</time>
      </trkpt>
      <trkpt lat="47.54473" lon="5.72829">
        <ele>195.60059</ele>
        <time>2026-05-16T11:14:47+02:00</time>
      </trkpt>
      <trkpt lat="47.54481" lon="5.72835">
        <ele>196.2002</ele>
        <time>2026-05-16T11:14:48+02:00</time>
      </trkpt>
      <trkpt lat="47.54484" lon="5.72837">
        <ele>196.2002</ele>
        <time>2026-05-16T11:14:49+02:00</time>
      </trkpt>
      <trkpt lat="47.5449" lon="5.72841">
        <ele>196.2002</ele>
        <time>2026-05-16T11:14:50+02:00</time>
      </trkpt>
      <trkpt lat="47.54496" lon="5.72845">
        <ele>196.2998</ele>
        <time>2026-05-16T11:14:51+02:00</time>
      </trkpt>
      <trkpt lat="47.54505" lon="5.72851">
        <ele>196.10059</ele>
        <time>2026-05-16T11:14:52+02:00</time>
      </trkpt>
      <trkpt lat="47.54508" lon="5.72853">
        <ele>195.90039</ele>
        <time>2026-05-16T11:14:53+02:00</time>
      </trkpt>
      <trkpt lat="47.54513" lon="5.72856">
        <ele>195.90039</ele>
        <time>2026-05-16T11:14:54+02:00</time>
      </trkpt>
      <trkpt lat="47.54519" lon="5.7286">
        <ele>195.90039</ele>
        <time>2026-05-16T11:14:55+02:00</time>
      </trkpt>
      <trkpt lat="47.54528" lon="5.72866">
        <ele>195.7002</ele>
        <time>2026-05-16T11:14:56+02:00</time>
      </trkpt>
      <trkpt lat="47.54531" lon="5.72868">
        <ele>196</ele>
        <time>2026-05-16T11:14:57+02:00</time>
      </trkpt>
      <trkpt lat="47.54537" lon="5.72872">
        <ele>196.2998</ele>
        <time>2026-05-16T11:14:58+02:00</time>
      </trkpt>
      <trkpt lat="47.54545" lon="5.72878">
        <ele>197</ele>
        <time>2026-05-16T11:14:59+02:00</time>
      </trkpt>
      <trkpt lat="47.54548" lon="5.7288">
        <ele>197</ele>
        <time>2026-05-16T11:15:00+02:00</time>
      </trkpt>
      <trkpt lat="47.54554" lon="5.72883">
        <ele>197.2002</ele>
        <time>2026-05-16T11:15:01+02:00</time>
      </trkpt>
      <trkpt lat="47.54563" lon="5.72888">
        <ele>196.5</ele>
        <time>2026-05-16T11:15:02+02:00</time>
      </trkpt>
      <trkpt lat="47.54566" lon="5.7289">
        <ele>196.2998</ele>
        <time>2026-05-16T11:15:03+02:00</time>
      </trkpt>
      <trkpt lat="47.54571" lon="5.72893">
        <ele>196.2998</ele>
        <time>2026-05-16T11:15:04+02:00</time>
      </trkpt>
      <trkpt lat="47.54577" lon="5.72896">
        <ele>195.90039</ele>
        <time>2026-05-16T11:15:05+02:00</time>
      </trkpt>
      <trkpt lat="47.54585" lon="5.729">
        <ele>196.2002</ele>
        <time>2026-05-16T11:15:06+02:00</time>
      </trkpt>
      <trkpt lat="47.54587" lon="5.72901">
        <ele>196.2002</ele>
        <time>2026-05-16T11:15:07+02:00</time>
      </trkpt>
      <trkpt lat="47.54592" lon="5.72903">
        <ele>197</ele>
        <time>2026-05-16T11:15:08+02:00</time>
      </trkpt>
      <trkpt lat="47.54597" lon="5.72905">
        <ele>197.40039</ele>
        <time>2026-05-16T11:15:09+02:00</time>
      </trkpt>
      <trkpt lat="47.54604" lon="5.72908">
        <ele>197.90039</ele>
        <time>2026-05-16T11:15:10+02:00</time>
      </trkpt>
      <trkpt lat="47.54606" lon="5.7291">
        <ele>197.90039</ele>
        <time>2026-05-16T11:15:11+02:00</time>
      </trkpt>
      <trkpt lat="47.5461" lon="5.72912">
        <ele>197.2002</ele>
        <time>2026-05-16T11:15:12+02:00</time>
      </trkpt>
      <trkpt lat="47.54616" lon="5.72916">
        <ele>197.10059</ele>
        <time>2026-05-16T11:15:13+02:00</time>
      </trkpt>
      <trkpt lat="47.54618" lon="5.72917">
        <ele>197.2998</ele>
        <time>2026-05-16T11:15:14+02:00</time>
      </trkpt>
      <trkpt lat="47.54622" lon="5.72921">
        <ele>196.2002</ele>
        <time>2026-05-16T11:15:15+02:00</time>
      </trkpt>
      <trkpt lat="47.54625" lon="5.72924">
        <ele>196.40039</ele>
        <time>2026-05-16T11:15:16+02:00</time>
      </trkpt>
      <trkpt lat="47.5463" lon="5.72929">
        <ele>195.90039</ele>
        <time>2026-05-16T11:15:17+02:00</time>
      </trkpt>
      <trkpt lat="47.54632" lon="5.7293">
        <ele>195.90039</ele>
        <time>2026-05-16T11:15:18+02:00</time>
      </trkpt>
      <trkpt lat="47.54635" lon="5.72933">
        <ele>195.90039</ele>
        <time>2026-05-16T11:15:19+02:00</time>
      </trkpt>
      <trkpt lat="47.54638" lon="5.72935">
        <ele>196.5</ele>
        <time>2026-05-16T11:15:20+02:00</time>
      </trkpt>
      <trkpt lat="47.54644" lon="5.7294">
        <ele>196.2998</ele>
        <time>2026-05-16T11:15:21+02:00</time>
      </trkpt>
      <trkpt lat="47.54645" lon="5.72943">
        <ele>196.2998</ele>
        <time>2026-05-16T11:15:22+02:00</time>
      </trkpt>
      <trkpt lat="47.54649" lon="5.72947">
        <ele>196.40039</ele>
        <time>2026-05-16T11:15:23+02:00</time>
      </trkpt>
      <trkpt lat="47.54656" lon="5.72955">
        <ele>196.2998</ele>
        <time>2026-05-16T11:15:24+02:00</time>
      </trkpt>
      <trkpt lat="47.54658" lon="5.72958">
        <ele>196.2998</ele>
        <time>2026-05-16T11:15:25+02:00</time>
      </trkpt>
      <trkpt lat="47.54663" lon="5.72964">
        <ele>196.7002</ele>
        <time>2026-05-16T11:15:26+02:00</time>
      </trkpt>
      <trkpt lat="47.5467" lon="5.72974">
        <ele>197.90039</ele>
        <time>2026-05-16T11:15:27+02:00</time>
      </trkpt>
      <trkpt lat="47.54672" lon="5.72977">
        <ele>197.90039</ele>
        <time>2026-05-16T11:15:28+02:00</time>
      </trkpt>
      <trkpt lat="47.54676" lon="5.72984">
        <ele>199.40039</ele>
        <time>2026-05-16T11:15:29+02:00</time>
      </trkpt>
      <trkpt lat="47.5468" lon="5.72989">
        <ele>200.60059</ele>
        <time>2026-05-16T11:15:30+02:00</time>
      </trkpt>
      <trkpt lat="47.54686" lon="5.72995">
        <ele>200.2002</ele>
        <time>2026-05-16T11:15:31+02:00</time>
      </trkpt>
      <trkpt lat="47.54687" lon="5.72997">
        <ele>200.2002</ele>
        <time>2026-05-16T11:15:32+02:00</time>
      </trkpt>
      <trkpt lat="47.54691" lon="5.72999">
        <ele>199.90039</ele>
        <time>2026-05-16T11:15:33+02:00</time>
      </trkpt>
      <trkpt lat="47.54696" lon="5.73002">
        <ele>198.7998</ele>
        <time>2026-05-16T11:15:34+02:00</time>
      </trkpt>
      <trkpt lat="47.54698" lon="5.73003">
        <ele>198.7998</ele>
        <time>2026-05-16T11:15:35+02:00</time>
      </trkpt>
      <trkpt lat="47.54701" lon="5.73004">
        <ele>197.7998</ele>
        <time>2026-05-16T11:15:36+02:00</time>
      </trkpt>
      <trkpt lat="47.54704" lon="5.73005">
        <ele>197.7998</ele>
        <time>2026-05-16T11:15:37+02:00</time>
      </trkpt>
      <trkpt lat="47.54709" lon="5.73006">
        <ele>198.60059</ele>
        <time>2026-05-16T11:15:38+02:00</time>
      </trkpt>
      <trkpt lat="47.5471" lon="5.73006">
        <ele>198.60059</ele>
        <time>2026-05-16T11:15:39+02:00</time>
      </trkpt>
      <trkpt lat="47.54712" lon="5.73007">
        <ele>197.40039</ele>
        <time>2026-05-16T11:15:40+02:00</time>
      </trkpt>
      <trkpt lat="47.54715" lon="5.73009">
        <ele>197.40039</ele>
        <time>2026-05-16T11:15:41+02:00</time>
      </trkpt>
      <trkpt lat="47.54717" lon="5.7301">
        <ele>196.2002</ele>
        <time>2026-05-16T11:15:42+02:00</time>
      </trkpt>
      <trkpt lat="47.5472" lon="5.73011">
        <ele>196.2002</ele>
        <time>2026-05-16T11:15:43+02:00</time>
      </trkpt>
      <trkpt lat="47.54722" lon="5.73012">
        <ele>196.2002</ele>
        <time>2026-05-16T11:15:44+02:00</time>
      </trkpt>
      <trkpt lat="47.54725" lon="5.73013">
        <ele>195.2998</ele>
        <time>2026-05-16T11:15:45+02:00</time>
      </trkpt>
      <trkpt lat="47.54728" lon="5.73014">
        <ele>195.5</ele>
        <time>2026-05-16T11:15:46+02:00</time>
      </trkpt>
      <trkpt lat="47.54732" lon="5.73017">
        <ele>196.2998</ele>
        <time>2026-05-16T11:15:47+02:00</time>
      </trkpt>
      <trkpt lat="47.54733" lon="5.73017">
        <ele>196.2998</ele>
        <time>2026-05-16T11:15:48+02:00</time>
      </trkpt>
      <trkpt lat="47.54736" lon="5.73018">
        <ele>196.40039</ele>
        <time>2026-05-16T11:15:49+02:00</time>
      </trkpt>
      <trkpt lat="47.5474" lon="5.73021">
        <ele>196.40039</ele>
        <time>2026-05-16T11:15:50+02:00</time>
      </trkpt>
      <trkpt lat="47.54741" lon="5.73021">
        <ele>196.40039</ele>
        <time>2026-05-16T11:15:51+02:00</time>
      </trkpt>
      <trkpt lat="47.54744" lon="5.73023">
        <ele>197.10059</ele>
        <time>2026-05-16T11:15:52+02:00</time>
      </trkpt>
      <trkpt lat="47.54746" lon="5.73025">
        <ele>196.90039</ele>
        <time>2026-05-16T11:15:53+02:00</time>
      </trkpt>
      <trkpt lat="47.5475" lon="5.73027">
        <ele>196.90039</ele>
        <time>2026-05-16T11:15:54+02:00</time>
      </trkpt>
      <trkpt lat="47.54751" lon="5.73028">
        <ele>196.90039</ele>
        <time>2026-05-16T11:15:55+02:00</time>
      </trkpt>
      <trkpt lat="47.54754" lon="5.7303">
        <ele>196.5</ele>
        <time>2026-05-16T11:15:56+02:00</time>
      </trkpt>
      <trkpt lat="47.54756" lon="5.73032">
        <ele>197.5</ele>
        <time>2026-05-16T11:15:57+02:00</time>
      </trkpt>
      <trkpt lat="47.5476" lon="5.73034">
        <ele>196.40039</ele>
        <time>2026-05-16T11:15:58+02:00</time>
      </trkpt>
      <trkpt lat="47.54762" lon="5.73035">
        <ele>196.40039</ele>
        <time>2026-05-16T11:15:59+02:00</time>
      </trkpt>
      <trkpt lat="47.54764" lon="5.73036">
        <ele>195.40039</ele>
        <time>2026-05-16T11:16:00+02:00</time>
      </trkpt>
      <trkpt lat="47.54768" lon="5.73038">
        <ele>195.40039</ele>
        <time>2026-05-16T11:16:01+02:00</time>
      </trkpt>
      <trkpt lat="47.54769" lon="5.73039">
        <ele>194.7998</ele>
        <time>2026-05-16T11:16:02+02:00</time>
      </trkpt>
      <trkpt lat="47.54772" lon="5.7304">
        <ele>194.7998</ele>
        <time>2026-05-16T11:16:03+02:00</time>
      </trkpt>
      <trkpt lat="47.54775" lon="5.73041">
        <ele>195.10059</ele>
        <time>2026-05-16T11:16:04+02:00</time>
      </trkpt>
      <trkpt lat="47.54779" lon="5.73043">
        <ele>195.10059</ele>
        <time>2026-05-16T11:16:05+02:00</time>
      </trkpt>
      <trkpt lat="47.5478" lon="5.73044">
        <ele>195.10059</ele>
        <time>2026-05-16T11:16:06+02:00</time>
      </trkpt>
      <trkpt lat="47.54783" lon="5.73045">
        <ele>195.10059</ele>
        <time>2026-05-16T11:16:07+02:00</time>
      </trkpt>
      <trkpt lat="47.54785" lon="5.73047">
        <ele>195.10059</ele>
        <time>2026-05-16T11:16:08+02:00</time>
      </trkpt>
      <trkpt lat="47.54789" lon="5.73049">
        <ele>196.10059</ele>
        <time>2026-05-16T11:16:09+02:00</time>
      </trkpt>
      <trkpt lat="47.54791" lon="5.73049">
        <ele>196.10059</ele>
        <time>2026-05-16T11:16:10+02:00</time>
      </trkpt>
      <trkpt lat="47.54794" lon="5.73051">
        <ele>196.60059</ele>
        <time>2026-05-16T11:16:11+02:00</time>
      </trkpt>
      <trkpt lat="47.54796" lon="5.73052">
        <ele>196.60059</ele>
        <time>2026-05-16T11:16:12+02:00</time>
      </trkpt>
      <trkpt lat="47.548" lon="5.73055">
        <ele>197.7002</ele>
        <time>2026-05-16T11:16:13+02:00</time>
      </trkpt>
      <trkpt lat="47.54801" lon="5.73056">
        <ele>197.7002</ele>
        <time>2026-05-16T11:16:14+02:00</time>
      </trkpt>
      <trkpt lat="47.54804" lon="5.73058">
        <ele>199.2998</ele>
        <time>2026-05-16T11:16:15+02:00</time>
      </trkpt>
      <trkpt lat="47.54807" lon="5.7306">
        <ele>199.2998</ele>
        <time>2026-05-16T11:16:16+02:00</time>
      </trkpt>
      <trkpt lat="47.54809" lon="5.73061">
        <ele>199.7002</ele>
        <time>2026-05-16T11:16:17+02:00</time>
      </trkpt>
      <trkpt lat="47.54811" lon="5.73063">
        <ele>199.7002</ele>
        <time>2026-05-16T11:16:18+02:00</time>
      </trkpt>
      <trkpt lat="47.54814" lon="5.73064">
        <ele>199.7002</ele>
        <time>2026-05-16T11:16:19+02:00</time>
      </trkpt>
      <trkpt lat="47.54818" lon="5.73067">
        <ele>198</ele>
        <time>2026-05-16T11:16:20+02:00</time>
      </trkpt>
      <trkpt lat="47.54819" lon="5.73068">
        <ele>198</ele>
        <time>2026-05-16T11:16:21+02:00</time>
      </trkpt>
      <trkpt lat="47.54822" lon="5.7307">
        <ele>197.2002</ele>
        <time>2026-05-16T11:16:22+02:00</time>
      </trkpt>
      <trkpt lat="47.54825" lon="5.73072">
        <ele>197.2002</ele>
        <time>2026-05-16T11:16:23+02:00</time>
      </trkpt>
      <trkpt lat="47.54828" lon="5.73074">
        <ele>196.7002</ele>
        <time>2026-05-16T11:16:24+02:00</time>
      </trkpt>
      <trkpt lat="47.5483" lon="5.73074">
        <ele>196.7002</ele>
        <time>2026-05-16T11:16:25+02:00</time>
      </trkpt>
      <trkpt lat="47.54833" lon="5.73076">
        <ele>195.40039</ele>
        <time>2026-05-16T11:16:26+02:00</time>
      </trkpt>
      <trkpt lat="47.54835" lon="5.73077">
        <ele>195.40039</ele>
        <time>2026-05-16T11:16:27+02:00</time>
      </trkpt>
      <trkpt lat="47.54839" lon="5.7308">
        <ele>196.2002</ele>
        <time>2026-05-16T11:16:28+02:00</time>
      </trkpt>
      <trkpt lat="47.5484" lon="5.73081">
        <ele>196.2002</ele>
        <time>2026-05-16T11:16:29+02:00</time>
      </trkpt>
      <trkpt lat="47.54843" lon="5.73082">
        <ele>196.2002</ele>
        <time>2026-05-16T11:16:30+02:00</time>
      </trkpt>
      <trkpt lat="47.54846" lon="5.73084">
        <ele>198.2998</ele>
        <time>2026-05-16T11:16:31+02:00</time>
      </trkpt>
      <trkpt lat="47.54848" lon="5.73085">
        <ele>198.2998</ele>
        <time>2026-05-16T11:16:32+02:00</time>
      </trkpt>
      <trkpt lat="47.5485" lon="5.73086">
        <ele>199.7998</ele>
        <time>2026-05-16T11:16:33+02:00</time>
      </trkpt>
      <trkpt lat="47.54852" lon="5.73087">
        <ele>199.7998</ele>
        <time>2026-05-16T11:16:34+02:00</time>
      </trkpt>
      <trkpt lat="47.54854" lon="5.73088">
        <ele>199.7998</ele>
        <time>2026-05-16T11:16:35+02:00</time>
      </trkpt>
      <trkpt lat="47.54856" lon="5.7309">
        <ele>201.10059</ele>
        <time>2026-05-16T11:16:36+02:00</time>
      </trkpt>
      <trkpt lat="47.54859" lon="5.73091">
        <ele>201.10059</ele>
        <time>2026-05-16T11:16:37+02:00</time>
      </trkpt>
      <trkpt lat="47.54861" lon="5.73093">
        <ele>199.7002</ele>
        <time>2026-05-16T11:16:38+02:00</time>
      </trkpt>
      <trkpt lat="47.54862" lon="5.73095">
        <ele>199.7002</ele>
        <time>2026-05-16T11:16:39+02:00</time>
      </trkpt>
      <trkpt lat="47.54863" lon="5.73096">
        <ele>199.7002</ele>
        <time>2026-05-16T11:16:40+02:00</time>
      </trkpt>
      <trkpt lat="47.54865" lon="5.73098">
        <ele>199.7002</ele>
        <time>2026-05-16T11:16:41+02:00</time>
      </trkpt>
      <trkpt lat="47.54866" lon="5.731">
        <ele>199.7002</ele>
        <time>2026-05-16T11:16:42+02:00</time>
      </trkpt>
      <trkpt lat="47.54867" lon="5.73103">
        <ele>196.60059</ele>
        <time>2026-05-16T11:16:43+02:00</time>
      </trkpt>
      <trkpt lat="47.54868" lon="5.73106">
        <ele>196.60059</ele>
        <time>2026-05-16T11:16:44+02:00</time>
      </trkpt>
      <trkpt lat="47.5487" lon="5.73109">
        <ele>195.7998</ele>
        <time>2026-05-16T11:16:45+02:00</time>
      </trkpt>
      <trkpt lat="47.5487" lon="5.73113">
        <ele>195.7998</ele>
        <time>2026-05-16T11:16:46+02:00</time>
      </trkpt>
      <trkpt lat="47.54871" lon="5.73117">
        <ele>195.7998</ele>
        <time>2026-05-16T11:16:47+02:00</time>
      </trkpt>
      <trkpt lat="47.54871" lon="5.73121">
        <ele>197.5</ele>
        <time>2026-05-16T11:16:48+02:00</time>
      </trkpt>
      <trkpt lat="47.54871" lon="5.73124">
        <ele>197.5</ele>
        <time>2026-05-16T11:16:49+02:00</time>
      </trkpt>
      <trkpt lat="47.54871" lon="5.73128">
        <ele>200.2998</ele>
        <time>2026-05-16T11:16:50+02:00</time>
      </trkpt>
      <trkpt lat="47.54872" lon="5.7313">
        <ele>200.2998</ele>
        <time>2026-05-16T11:16:51+02:00</time>
      </trkpt>
      <trkpt lat="47.54872" lon="5.73132">
        <ele>200.2998</ele>
        <time>2026-05-16T11:16:52+02:00</time>
      </trkpt>
      <trkpt lat="47.54873" lon="5.73134">
        <ele>198.2002</ele>
        <time>2026-05-16T11:16:53+02:00</time>
      </trkpt>
      <trkpt lat="47.54873" lon="5.73137">
        <ele>200.7998</ele>
        <time>2026-05-16T11:16:54+02:00</time>
      </trkpt>
      <trkpt lat="47.54875" lon="5.73139">
        <ele>200.7998</ele>
        <time>2026-05-16T11:16:55+02:00</time>
      </trkpt>
      <trkpt lat="47.54876" lon="5.73141">
        <ele>200.7998</ele>
        <time>2026-05-16T11:16:56+02:00</time>
      </trkpt>
      <trkpt lat="47.54878" lon="5.73144">
        <ele>203.2002</ele>
        <time>2026-05-16T11:16:57+02:00</time>
      </trkpt>
      <trkpt lat="47.5488" lon="5.73147">
        <ele>200.90039</ele>
        <time>2026-05-16T11:16:58+02:00</time>
      </trkpt>
      <trkpt lat="47.54881" lon="5.7315">
        <ele>200.90039</ele>
        <time>2026-05-16T11:16:59+02:00</time>
      </trkpt>
      <trkpt lat="47.54883" lon="5.73152">
        <ele>203.7998</ele>
        <time>2026-05-16T11:17:00+02:00</time>
      </trkpt>
      <trkpt lat="47.54886" lon="5.73155">
        <ele>202.2998</ele>
        <time>2026-05-16T11:17:01+02:00</time>
      </trkpt>
      <trkpt lat="47.54888" lon="5.73157">
        <ele>202.2998</ele>
        <time>2026-05-16T11:17:02+02:00</time>
      </trkpt>
      <trkpt lat="47.54892" lon="5.7316">
        <ele>201.2002</ele>
        <time>2026-05-16T11:17:03+02:00</time>
      </trkpt>
      <trkpt lat="47.54893" lon="5.73161">
        <ele>205</ele>
        <time>2026-05-16T11:17:04+02:00</time>
      </trkpt>
      <trkpt lat="47.54896" lon="5.73163">
        <ele>204.2002</ele>
        <time>2026-05-16T11:17:05+02:00</time>
      </trkpt>
      <trkpt lat="47.54899" lon="5.73166">
        <ele>204.2002</ele>
        <time>2026-05-16T11:17:06+02:00</time>
      </trkpt>
      <trkpt lat="47.54903" lon="5.73169">
        <ele>206.7998</ele>
        <time>2026-05-16T11:17:07+02:00</time>
      </trkpt>
      <trkpt lat="47.54905" lon="5.7317">
        <ele>206.7998</ele>
        <time>2026-05-16T11:17:08+02:00</time>
      </trkpt>
      <trkpt lat="47.54908" lon="5.73172">
        <ele>205.5</ele>
        <time>2026-05-16T11:17:09+02:00</time>
      </trkpt>
      <trkpt lat="47.54911" lon="5.73174">
        <ele>205.5</ele>
        <time>2026-05-16T11:17:10+02:00</time>
      </trkpt>
      <trkpt lat="47.54916" lon="5.73177">
        <ele>204</ele>
        <time>2026-05-16T11:17:11+02:00</time>
      </trkpt>
      <trkpt lat="47.54917" lon="5.73179">
        <ele>206.7002</ele>
        <time>2026-05-16T11:17:12+02:00</time>
      </trkpt>
      <trkpt lat="47.5492" lon="5.73181">
        <ele>204.7998</ele>
        <time>2026-05-16T11:17:13+02:00</time>
      </trkpt>
      <trkpt lat="47.54925" lon="5.73185">
        <ele>202.90039</ele>
        <time>2026-05-16T11:17:14+02:00</time>
      </trkpt>
      <trkpt lat="47.54926" lon="5.73186">
        <ele>206.7002</ele>
        <time>2026-05-16T11:17:15+02:00</time>
      </trkpt>
      <trkpt lat="47.5493" lon="5.73188">
        <ele>206.7002</ele>
        <time>2026-05-16T11:17:16+02:00</time>
      </trkpt>
      <trkpt lat="47.54935" lon="5.73193">
        <ele>205.40039</ele>
        <time>2026-05-16T11:17:17+02:00</time>
      </trkpt>
      <trkpt lat="47.54936" lon="5.73194">
        <ele>205.40039</ele>
        <time>2026-05-16T11:17:18+02:00</time>
      </trkpt>
      <trkpt lat="47.5494" lon="5.73197">
        <ele>208.60059</ele>
        <time>2026-05-16T11:17:19+02:00</time>
      </trkpt>
      <trkpt lat="47.54945" lon="5.73201">
        <ele>207.60059</ele>
        <time>2026-05-16T11:17:20+02:00</time>
      </trkpt>
      <trkpt lat="47.54947" lon="5.73202">
        <ele>207.60059</ele>
        <time>2026-05-16T11:17:21+02:00</time>
      </trkpt>
      <trkpt lat="47.5495" lon="5.73205">
        <ele>210.10059</ele>
        <time>2026-05-16T11:17:22+02:00</time>
      </trkpt>
      <trkpt lat="47.54955" lon="5.73209">
        <ele>208.2998</ele>
        <time>2026-05-16T11:17:23+02:00</time>
      </trkpt>
      <trkpt lat="47.54958" lon="5.73212">
        <ele>211.7998</ele>
        <time>2026-05-16T11:17:24+02:00</time>
      </trkpt>
      <trkpt lat="47.5496" lon="5.73213">
        <ele>209.60059</ele>
        <time>2026-05-16T11:17:25+02:00</time>
      </trkpt>
      <trkpt lat="47.54964" lon="5.73216">
        <ele>209.60059</ele>
        <time>2026-05-16T11:17:26+02:00</time>
      </trkpt>
      <trkpt lat="47.5497" lon="5.73219">
        <ele>207.5</ele>
        <time>2026-05-16T11:17:27+02:00</time>
      </trkpt>
      <trkpt lat="47.54971" lon="5.7322">
        <ele>207.5</ele>
        <time>2026-05-16T11:17:28+02:00</time>
      </trkpt>
      <trkpt lat="47.54975" lon="5.73223">
        <ele>209.90039</ele>
        <time>2026-05-16T11:17:29+02:00</time>
      </trkpt>
      <trkpt lat="47.5498" lon="5.73227">
        <ele>208.5</ele>
        <time>2026-05-16T11:17:30+02:00</time>
      </trkpt>
      <trkpt lat="47.54984" lon="5.73229">
        <ele>211.60059</ele>
        <time>2026-05-16T11:17:31+02:00</time>
      </trkpt>
      <trkpt lat="47.54986" lon="5.73231">
        <ele>211.60059</ele>
        <time>2026-05-16T11:17:32+02:00</time>
      </trkpt>
      <trkpt lat="47.54989" lon="5.73234">
        <ele>210.2998</ele>
        <time>2026-05-16T11:17:33+02:00</time>
      </trkpt>
      <trkpt lat="47.54993" lon="5.73236">
        <ele>210.2998</ele>
        <time>2026-05-16T11:17:34+02:00</time>
      </trkpt>
      <trkpt lat="47.54997" lon="5.73239">
        <ele>212.7002</ele>
        <time>2026-05-16T11:17:35+02:00</time>
      </trkpt>
      <trkpt lat="47.55001" lon="5.73242">
        <ele>210.5</ele>
        <time>2026-05-16T11:17:36+02:00</time>
      </trkpt>
      <trkpt lat="47.55005" lon="5.73245">
        <ele>210.5</ele>
        <time>2026-05-16T11:17:37+02:00</time>
      </trkpt>
      <trkpt lat="47.55011" lon="5.7325">
        <ele>211.7002</ele>
        <time>2026-05-16T11:17:38+02:00</time>
      </trkpt>
      <trkpt lat="47.55013" lon="5.73251">
        <ele>209.7998</ele>
        <time>2026-05-16T11:17:39+02:00</time>
      </trkpt>
      <trkpt lat="47.55016" lon="5.73254">
        <ele>209.7998</ele>
        <time>2026-05-16T11:17:40+02:00</time>
      </trkpt>
      <trkpt lat="47.5502" lon="5.73256">
        <ele>212.5</ele>
        <time>2026-05-16T11:17:41+02:00</time>
      </trkpt>
      <trkpt lat="47.55026" lon="5.73261">
        <ele>211.2998</ele>
        <time>2026-05-16T11:17:42+02:00</time>
      </trkpt>
      <trkpt lat="47.55028" lon="5.73262">
        <ele>211.2998</ele>
        <time>2026-05-16T11:17:43+02:00</time>
      </trkpt>
      <trkpt lat="47.55031" lon="5.73265">
        <ele>215.10059</ele>
        <time>2026-05-16T11:17:44+02:00</time>
      </trkpt>
      <trkpt lat="47.55035" lon="5.73268">
        <ele>213.90039</ele>
        <time>2026-05-16T11:17:45+02:00</time>
      </trkpt>
      <trkpt lat="47.5504" lon="5.73271">
        <ele>213.90039</ele>
        <time>2026-05-16T11:17:46+02:00</time>
      </trkpt>
      <trkpt lat="47.55042" lon="5.73272">
        <ele>215.7998</ele>
        <time>2026-05-16T11:17:47+02:00</time>
      </trkpt>
      <trkpt lat="47.55045" lon="5.73274">
        <ele>215.7998</ele>
        <time>2026-05-16T11:17:48+02:00</time>
      </trkpt>
      <trkpt lat="47.55051" lon="5.73278">
        <ele>213.2998</ele>
        <time>2026-05-16T11:17:49+02:00</time>
      </trkpt>
      <trkpt lat="47.55053" lon="5.73279">
        <ele>210.7002</ele>
        <time>2026-05-16T11:17:50+02:00</time>
      </trkpt>
      <trkpt lat="47.55056" lon="5.73281">
        <ele>213.40039</ele>
        <time>2026-05-16T11:17:51+02:00</time>
      </trkpt>
      <trkpt lat="47.55061" lon="5.73285">
        <ele>211.2002</ele>
        <time>2026-05-16T11:17:52+02:00</time>
      </trkpt>
      <trkpt lat="47.55063" lon="5.73285">
        <ele>211.2002</ele>
        <time>2026-05-16T11:17:53+02:00</time>
      </trkpt>
      <trkpt lat="47.55068" lon="5.73288">
        <ele>209.10059</ele>
        <time>2026-05-16T11:17:54+02:00</time>
      </trkpt>
      <trkpt lat="47.55073" lon="5.73292">
        <ele>210.10059</ele>
        <time>2026-05-16T11:17:55+02:00</time>
      </trkpt>
      <trkpt lat="47.55077" lon="5.73294">
        <ele>207.60059</ele>
        <time>2026-05-16T11:17:56+02:00</time>
      </trkpt>
      <trkpt lat="47.55079" lon="5.73296">
        <ele>207.60059</ele>
        <time>2026-05-16T11:17:57+02:00</time>
      </trkpt>
      <trkpt lat="47.55082" lon="5.73299">
        <ele>207.40039</ele>
        <time>2026-05-16T11:17:58+02:00</time>
      </trkpt>
      <trkpt lat="47.55086" lon="5.73301">
        <ele>207.40039</ele>
        <time>2026-05-16T11:17:59+02:00</time>
      </trkpt>
      <trkpt lat="47.55092" lon="5.73306">
        <ele>204.60059</ele>
        <time>2026-05-16T11:18:00+02:00</time>
      </trkpt>
      <trkpt lat="47.55094" lon="5.73307">
        <ele>206.7002</ele>
        <time>2026-05-16T11:18:01+02:00</time>
      </trkpt>
      <trkpt lat="47.55097" lon="5.7331">
        <ele>206.7002</ele>
        <time>2026-05-16T11:18:02+02:00</time>
      </trkpt>
      <trkpt lat="47.55103" lon="5.73314">
        <ele>205.2998</ele>
        <time>2026-05-16T11:18:03+02:00</time>
      </trkpt>
      <trkpt lat="47.55105" lon="5.73316">
        <ele>208.5</ele>
        <time>2026-05-16T11:18:04+02:00</time>
      </trkpt>
      <trkpt lat="47.55108" lon="5.73319">
        <ele>208.5</ele>
        <time>2026-05-16T11:18:05+02:00</time>
      </trkpt>
      <trkpt lat="47.55113" lon="5.73323">
        <ele>207.2002</ele>
        <time>2026-05-16T11:18:06+02:00</time>
      </trkpt>
      <trkpt lat="47.55115" lon="5.73324">
        <ele>210.7998</ele>
        <time>2026-05-16T11:18:07+02:00</time>
      </trkpt>
      <trkpt lat="47.55118" lon="5.73327">
        <ele>208.7998</ele>
        <time>2026-05-16T11:18:08+02:00</time>
      </trkpt>
      <trkpt lat="47.55121" lon="5.73329">
        <ele>208.7998</ele>
        <time>2026-05-16T11:18:09+02:00</time>
      </trkpt>
      <trkpt lat="47.55124" lon="5.73332">
        <ele>210</ele>
        <time>2026-05-16T11:18:10+02:00</time>
      </trkpt>
      <trkpt lat="47.55126" lon="5.73332">
        <ele>210</ele>
        <time>2026-05-16T11:18:11+02:00</time>
      </trkpt>
      <trkpt lat="47.55127" lon="5.73333">
        <ele>210</ele>
        <time>2026-05-16T11:18:12+02:00</time>
      </trkpt>
      <trkpt lat="47.55131" lon="5.73334">
        <ele>207.90039</ele>
        <time>2026-05-16T11:18:13+02:00</time>
      </trkpt>
      <trkpt lat="47.55133" lon="5.73334">
        <ele>207.90039</ele>
        <time>2026-05-16T11:18:14+02:00</time>
      </trkpt>
      <trkpt lat="47.55135" lon="5.73335">
        <ele>206</ele>
        <time>2026-05-16T11:18:15+02:00</time>
      </trkpt>
      <trkpt lat="47.55136" lon="5.73337">
        <ele>206</ele>
        <time>2026-05-16T11:18:16+02:00</time>
      </trkpt>
      <trkpt lat="47.55139" lon="5.73339">
        <ele>204.40039</ele>
        <time>2026-05-16T11:18:17+02:00</time>
      </trkpt>
      <trkpt lat="47.55142" lon="5.73342">
        <ele>208.90039</ele>
        <time>2026-05-16T11:18:18+02:00</time>
      </trkpt>
      <trkpt lat="47.55145" lon="5.73344">
        <ele>207.7002</ele>
        <time>2026-05-16T11:18:19+02:00</time>
      </trkpt>
      <trkpt lat="47.55148" lon="5.73346">
        <ele>207.7002</ele>
        <time>2026-05-16T11:18:20+02:00</time>
      </trkpt>
      <trkpt lat="47.55151" lon="5.73348">
        <ele>206.7002</ele>
        <time>2026-05-16T11:18:21+02:00</time>
      </trkpt>
      <trkpt lat="47.55157" lon="5.73351">
        <ele>209.2002</ele>
        <time>2026-05-16T11:18:22+02:00</time>
      </trkpt>
      <trkpt lat="47.55159" lon="5.73353">
        <ele>209.2002</ele>
        <time>2026-05-16T11:18:23+02:00</time>
      </trkpt>
      <trkpt lat="47.55163" lon="5.73355">
        <ele>207.5</ele>
        <time>2026-05-16T11:18:24+02:00</time>
      </trkpt>
      <trkpt lat="47.55169" lon="5.73359">
        <ele>208.7002</ele>
        <time>2026-05-16T11:18:25+02:00</time>
      </trkpt>
      <trkpt lat="47.55172" lon="5.73362">
        <ele>208.7002</ele>
        <time>2026-05-16T11:18:26+02:00</time>
      </trkpt>
      <trkpt lat="47.55175" lon="5.73364">
        <ele>206.5</ele>
        <time>2026-05-16T11:18:27+02:00</time>
      </trkpt>
      <trkpt lat="47.55179" lon="5.73367">
        <ele>210.2998</ele>
        <time>2026-05-16T11:18:28+02:00</time>
      </trkpt>
      <trkpt lat="47.55186" lon="5.73371">
        <ele>207.2002</ele>
        <time>2026-05-16T11:18:29+02:00</time>
      </trkpt>
      <trkpt lat="47.55188" lon="5.73373">
        <ele>207.2002</ele>
        <time>2026-05-16T11:18:30+02:00</time>
      </trkpt>
      <trkpt lat="47.55192" lon="5.73377">
        <ele>210.5</ele>
        <time>2026-05-16T11:18:31+02:00</time>
      </trkpt>
      <trkpt lat="47.55199" lon="5.73382">
        <ele>209.2998</ele>
        <time>2026-05-16T11:18:32+02:00</time>
      </trkpt>
      <trkpt lat="47.55201" lon="5.73384">
        <ele>213.90039</ele>
        <time>2026-05-16T11:18:33+02:00</time>
      </trkpt>
      <trkpt lat="47.55207" lon="5.73387">
        <ele>211.90039</ele>
        <time>2026-05-16T11:18:34+02:00</time>
      </trkpt>
      <trkpt lat="47.55212" lon="5.73391">
        <ele>209.90039</ele>
        <time>2026-05-16T11:18:35+02:00</time>
      </trkpt>
      <trkpt lat="47.55219" lon="5.73396">
        <ele>211.2998</ele>
        <time>2026-05-16T11:18:36+02:00</time>
      </trkpt>
      <trkpt lat="47.55222" lon="5.73398">
        <ele>209.10059</ele>
        <time>2026-05-16T11:18:37+02:00</time>
      </trkpt>
      <trkpt lat="47.55227" lon="5.73402">
        <ele>211.90039</ele>
        <time>2026-05-16T11:18:38+02:00</time>
      </trkpt>
      <trkpt lat="47.55234" lon="5.73408">
        <ele>210.60059</ele>
        <time>2026-05-16T11:18:39+02:00</time>
      </trkpt>
      <trkpt lat="47.55239" lon="5.73411">
        <ele>214.60059</ele>
        <time>2026-05-16T11:18:40+02:00</time>
      </trkpt>
      <trkpt lat="47.55241" lon="5.73413">
        <ele>214.60059</ele>
        <time>2026-05-16T11:18:41+02:00</time>
      </trkpt>
      <trkpt lat="47.55246" lon="5.73416">
        <ele>213.7998</ele>
        <time>2026-05-16T11:18:42+02:00</time>
      </trkpt>
      <trkpt lat="47.55253" lon="5.73421">
        <ele>216.7998</ele>
        <time>2026-05-16T11:18:43+02:00</time>
      </trkpt>
      <trkpt lat="47.55255" lon="5.73423">
        <ele>214.2998</ele>
        <time>2026-05-16T11:18:44+02:00</time>
      </trkpt>
      <trkpt lat="47.55258" lon="5.73426">
        <ele>214.2998</ele>
        <time>2026-05-16T11:18:45+02:00</time>
      </trkpt>
      <trkpt lat="47.55261" lon="5.73428">
        <ele>214.7002</ele>
        <time>2026-05-16T11:18:46+02:00</time>
      </trkpt>
      <trkpt lat="47.55264" lon="5.73431">
        <ele>214.7002</ele>
        <time>2026-05-16T11:18:47+02:00</time>
      </trkpt>
      <trkpt lat="47.55265" lon="5.73432">
        <ele>214.7002</ele>
        <time>2026-05-16T11:18:48+02:00</time>
      </trkpt>
      <trkpt lat="47.55267" lon="5.73433">
        <ele>212.40039</ele>
        <time>2026-05-16T11:18:49+02:00</time>
      </trkpt>
      <trkpt lat="47.5527" lon="5.73435">
        <ele>216.40039</ele>
        <time>2026-05-16T11:18:50+02:00</time>
      </trkpt>
      <trkpt lat="47.55271" lon="5.73435">
        <ele>216.40039</ele>
        <time>2026-05-16T11:18:51+02:00</time>
      </trkpt>
      <trkpt lat="47.55271" lon="5.73436">
        <ele>216.40039</ele>
        <time>2026-05-16T11:18:52+02:00</time>
      </trkpt>
      <trkpt lat="47.55271" lon="5.73436">
        <ele>216.40039</ele>
        <time>2026-05-16T11:18:53+02:00</time>
      </trkpt>
      <trkpt lat="47.55271" lon="5.73436">
        <ele>216.40039</ele>
        <time>2026-05-16T11:18:54+02:00</time>
      </trkpt>
      <trkpt lat="47.55271" lon="5.73436">
        <ele>216.40039</ele>
        <time>2026-05-16T11:18:55+02:00</time>
      </trkpt>
      <trkpt lat="47.55272" lon="5.73434">
        <ele>212.40039</ele>
        <time>2026-05-16T11:19:07+02:00</time>
      </trkpt>
      <trkpt lat="47.55272" lon="5.73434">
        <ele>212.40039</ele>
        <time>2026-05-16T11:19:08+02:00</time>
      </trkpt>
      <trkpt lat="47.55272" lon="5.73434">
        <ele>212.40039</ele>
        <time>2026-05-16T11:19:09+02:00</time>
      </trkpt>
      <trkpt lat="47.55272" lon="5.73434">
        <ele>212.40039</ele>
        <time>2026-05-16T11:19:10+02:00</time>
      </trkpt>
      <trkpt lat="47.5529" lon="5.73449">
        <ele>216.40039</ele>
        <time>2026-05-16T11:19:35+02:00</time>
      </trkpt>
      <trkpt lat="47.55293" lon="5.73451">
        <ele>216.40039</ele>
        <time>2026-05-16T11:19:36+02:00</time>
      </trkpt>
      <trkpt lat="47.55297" lon="5.73454">
        <ele>218</ele>
        <time>2026-05-16T11:19:37+02:00</time>
      </trkpt>
      <trkpt lat="47.55301" lon="5.73457">
        <ele>218</ele>
        <time>2026-05-16T11:19:38+02:00</time>
      </trkpt>
      <trkpt lat="47.55302" lon="5.73458">
        <ele>214.90039</ele>
        <time>2026-05-16T11:19:39+02:00</time>
      </trkpt>
      <trkpt lat="47.55304" lon="5.7346">
        <ele>214.90039</ele>
        <time>2026-05-16T11:19:40+02:00</time>
      </trkpt>
      <trkpt lat="47.55306" lon="5.73463">
        <ele>217.7998</ele>
        <time>2026-05-16T11:19:41+02:00</time>
      </trkpt>
      <trkpt lat="47.55306" lon="5.73463">
        <ele>217.7998</ele>
        <time>2026-05-16T11:19:42+02:00</time>
      </trkpt>
      <trkpt lat="47.55307" lon="5.73464">
        <ele>217.7998</ele>
        <time>2026-05-16T11:19:43+02:00</time>
      </trkpt>
      <trkpt lat="47.55307" lon="5.73464">
        <ele>217.7998</ele>
        <time>2026-05-16T11:19:44+02:00</time>
      </trkpt>
      <trkpt lat="47.55327" lon="5.73489">
        <ele>216.60059</ele>
        <time>2026-05-16T11:20:47+02:00</time>
      </trkpt>
      <trkpt lat="47.55329" lon="5.73491">
        <ele>216.60059</ele>
        <time>2026-05-16T11:20:48+02:00</time>
      </trkpt>
      <trkpt lat="47.55333" lon="5.73496">
        <ele>216.7998</ele>
        <time>2026-05-16T11:20:49+02:00</time>
      </trkpt>
      <trkpt lat="47.55337" lon="5.73502">
        <ele>214.90039</ele>
        <time>2026-05-16T11:20:50+02:00</time>
      </trkpt>
      <trkpt lat="47.55341" lon="5.73507">
        <ele>218.40039</ele>
        <time>2026-05-16T11:20:51+02:00</time>
      </trkpt>
      <trkpt lat="47.55351" lon="5.73516">
        <ele>220.90039</ele>
        <time>2026-05-16T11:20:52+02:00</time>
      </trkpt>
      <trkpt lat="47.55358" lon="5.73521">
        <ele>224.10059</ele>
        <time>2026-05-16T11:20:53+02:00</time>
      </trkpt>
      <trkpt lat="47.55362" lon="5.73524">
        <ele>221.7002</ele>
        <time>2026-05-16T11:20:54+02:00</time>
      </trkpt>
      <trkpt lat="47.55369" lon="5.73529">
        <ele>217.7998</ele>
        <time>2026-05-16T11:20:55+02:00</time>
      </trkpt>
      <trkpt lat="47.55378" lon="5.73537">
        <ele>214.2002</ele>
        <time>2026-05-16T11:20:56+02:00</time>
      </trkpt>
      <trkpt lat="47.55382" lon="5.7354">
        <ele>217</ele>
        <time>2026-05-16T11:20:57+02:00</time>
      </trkpt>
      <trkpt lat="47.55388" lon="5.73544">
        <ele>215.7002</ele>
        <time>2026-05-16T11:20:58+02:00</time>
      </trkpt>
      <trkpt lat="47.55395" lon="5.73549">
        <ele>216.60059</ele>
        <time>2026-05-16T11:20:59+02:00</time>
      </trkpt>
      <trkpt lat="47.55402" lon="5.73554">
        <ele>215</ele>
        <time>2026-05-16T11:21:00+02:00</time>
      </trkpt>
      <trkpt lat="47.55409" lon="5.73559">
        <ele>215.10059</ele>
        <time>2026-05-16T11:21:01+02:00</time>
      </trkpt>
      <trkpt lat="47.55417" lon="5.73565">
        <ele>213.60059</ele>
        <time>2026-05-16T11:21:02+02:00</time>
      </trkpt>
      <trkpt lat="47.55425" lon="5.73571">
        <ele>209.2002</ele>
        <time>2026-05-16T11:21:03+02:00</time>
      </trkpt>
      <trkpt lat="47.55433" lon="5.73576">
        <ele>209.60059</ele>
        <time>2026-05-16T11:21:04+02:00</time>
      </trkpt>
      <trkpt lat="47.55441" lon="5.73582">
        <ele>209</ele>
        <time>2026-05-16T11:21:05+02:00</time>
      </trkpt>
      <trkpt lat="47.55452" lon="5.7359">
        <ele>208.10059</ele>
        <time>2026-05-16T11:21:06+02:00</time>
      </trkpt>
      <trkpt lat="47.55456" lon="5.73592">
        <ele>208.10059</ele>
        <time>2026-05-16T11:21:07+02:00</time>
      </trkpt>
      <trkpt lat="47.55463" lon="5.73597">
        <ele>206.7998</ele>
        <time>2026-05-16T11:21:08+02:00</time>
      </trkpt>
      <trkpt lat="47.5547" lon="5.73601">
        <ele>205.7998</ele>
        <time>2026-05-16T11:21:09+02:00</time>
      </trkpt>
      <trkpt lat="47.55481" lon="5.73608">
        <ele>205.60059</ele>
        <time>2026-05-16T11:21:10+02:00</time>
      </trkpt>
      <trkpt lat="47.55485" lon="5.73609">
        <ele>205.60059</ele>
        <time>2026-05-16T11:21:11+02:00</time>
      </trkpt>
      <trkpt lat="47.55496" lon="5.73614">
        <ele>204.10059</ele>
        <time>2026-05-16T11:21:12+02:00</time>
      </trkpt>
      <trkpt lat="47.555" lon="5.73616">
        <ele>204.5</ele>
        <time>2026-05-16T11:21:13+02:00</time>
      </trkpt>
      <trkpt lat="47.5551" lon="5.7362">
        <ele>203</ele>
        <time>2026-05-16T11:21:14+02:00</time>
      </trkpt>
      <trkpt lat="47.55515" lon="5.73621">
        <ele>203</ele>
        <time>2026-05-16T11:21:15+02:00</time>
      </trkpt>
      <trkpt lat="47.55523" lon="5.73624">
        <ele>203</ele>
        <time>2026-05-16T11:21:16+02:00</time>
      </trkpt>
      <trkpt lat="47.55537" lon="5.73629">
        <ele>202.5</ele>
        <time>2026-05-16T11:21:17+02:00</time>
      </trkpt>
      <trkpt lat="47.55542" lon="5.73632">
        <ele>202.10059</ele>
        <time>2026-05-16T11:21:18+02:00</time>
      </trkpt>
      <trkpt lat="47.55551" lon="5.73636">
        <ele>201.90039</ele>
        <time>2026-05-16T11:21:19+02:00</time>
      </trkpt>
      <trkpt lat="47.55565" lon="5.73645">
        <ele>200.90039</ele>
        <time>2026-05-16T11:21:20+02:00</time>
      </trkpt>
      <trkpt lat="47.5557" lon="5.73648">
        <ele>200.2998</ele>
        <time>2026-05-16T11:21:21+02:00</time>
      </trkpt>
      <trkpt lat="47.55578" lon="5.73653">
        <ele>200.5</ele>
        <time>2026-05-16T11:21:22+02:00</time>
      </trkpt>
      <trkpt lat="47.55592" lon="5.73661">
        <ele>199.10059</ele>
        <time>2026-05-16T11:21:23+02:00</time>
      </trkpt>
      <trkpt lat="47.556" lon="5.73667">
        <ele>199.40039</ele>
        <time>2026-05-16T11:21:24+02:00</time>
      </trkpt>
      <trkpt lat="47.55608" lon="5.73673">
        <ele>199</ele>
        <time>2026-05-16T11:21:25+02:00</time>
      </trkpt>
      <trkpt lat="47.55613" lon="5.73675">
        <ele>198.7002</ele>
        <time>2026-05-16T11:21:26+02:00</time>
      </trkpt>
      <trkpt lat="47.55625" lon="5.73683">
        <ele>198.7998</ele>
        <time>2026-05-16T11:21:27+02:00</time>
      </trkpt>
      <trkpt lat="47.55633" lon="5.73688">
        <ele>198.40039</ele>
        <time>2026-05-16T11:21:28+02:00</time>
      </trkpt>
      <trkpt lat="47.55641" lon="5.73694">
        <ele>198.60059</ele>
        <time>2026-05-16T11:21:29+02:00</time>
      </trkpt>
      <trkpt lat="47.55645" lon="5.73696">
        <ele>198.2002</ele>
        <time>2026-05-16T11:21:30+02:00</time>
      </trkpt>
      <trkpt lat="47.55656" lon="5.73703">
        <ele>198.2998</ele>
        <time>2026-05-16T11:21:31+02:00</time>
      </trkpt>
      <trkpt lat="47.55663" lon="5.73708">
        <ele>198.10059</ele>
        <time>2026-05-16T11:21:32+02:00</time>
      </trkpt>
      <trkpt lat="47.55667" lon="5.7371">
        <ele>198.2002</ele>
        <time>2026-05-16T11:21:33+02:00</time>
      </trkpt>
      <trkpt lat="47.55677" lon="5.73717">
        <ele>197.90039</ele>
        <time>2026-05-16T11:21:34+02:00</time>
      </trkpt>
      <trkpt lat="47.55684" lon="5.73722">
        <ele>197.60059</ele>
        <time>2026-05-16T11:21:35+02:00</time>
      </trkpt>
      <trkpt lat="47.5569" lon="5.73726">
        <ele>197.40039</ele>
        <time>2026-05-16T11:21:36+02:00</time>
      </trkpt>
      <trkpt lat="47.55697" lon="5.73731">
        <ele>197.40039</ele>
        <time>2026-05-16T11:21:37+02:00</time>
      </trkpt>
      <trkpt lat="47.55703" lon="5.73735">
        <ele>197.2998</ele>
        <time>2026-05-16T11:21:38+02:00</time>
      </trkpt>
      <trkpt lat="47.55707" lon="5.73737">
        <ele>197.2998</ele>
        <time>2026-05-16T11:21:39+02:00</time>
      </trkpt>
      <trkpt lat="47.55713" lon="5.73742">
        <ele>197.2002</ele>
        <time>2026-05-16T11:21:40+02:00</time>
      </trkpt>
      <trkpt lat="47.55723" lon="5.73747">
        <ele>197.2998</ele>
        <time>2026-05-16T11:21:41+02:00</time>
      </trkpt>
      <trkpt lat="47.55726" lon="5.73749">
        <ele>197.2002</ele>
        <time>2026-05-16T11:21:42+02:00</time>
      </trkpt>
      <trkpt lat="47.55732" lon="5.73753">
        <ele>197.2998</ele>
        <time>2026-05-16T11:21:43+02:00</time>
      </trkpt>
      <trkpt lat="47.55741" lon="5.7376">
        <ele>197.2998</ele>
        <time>2026-05-16T11:21:44+02:00</time>
      </trkpt>
      <trkpt lat="47.55747" lon="5.73764">
        <ele>197.40039</ele>
        <time>2026-05-16T11:21:45+02:00</time>
      </trkpt>
      <trkpt lat="47.5575" lon="5.73767">
        <ele>197.40039</ele>
        <time>2026-05-16T11:21:46+02:00</time>
      </trkpt>
      <trkpt lat="47.55757" lon="5.73771">
        <ele>197.60059</ele>
        <time>2026-05-16T11:21:47+02:00</time>
      </trkpt>
      <trkpt lat="47.55766" lon="5.73778">
        <ele>197.5</ele>
        <time>2026-05-16T11:21:48+02:00</time>
      </trkpt>
      <trkpt lat="47.55769" lon="5.7378">
        <ele>197.7002</ele>
        <time>2026-05-16T11:21:49+02:00</time>
      </trkpt>
      <trkpt lat="47.55776" lon="5.73785">
        <ele>197.7002</ele>
        <time>2026-05-16T11:21:50+02:00</time>
      </trkpt>
      <trkpt lat="47.55785" lon="5.73791">
        <ele>197.7998</ele>
        <time>2026-05-16T11:21:51+02:00</time>
      </trkpt>
      <trkpt lat="47.55788" lon="5.73793">
        <ele>197.7998</ele>
        <time>2026-05-16T11:21:52+02:00</time>
      </trkpt>
      <trkpt lat="47.55794" lon="5.73798">
        <ele>198</ele>
        <time>2026-05-16T11:21:53+02:00</time>
      </trkpt>
      <trkpt lat="47.55804" lon="5.73804">
        <ele>198.2998</ele>
        <time>2026-05-16T11:21:54+02:00</time>
      </trkpt>
      <trkpt lat="47.55807" lon="5.73806">
        <ele>198.10059</ele>
        <time>2026-05-16T11:21:55+02:00</time>
      </trkpt>
      <trkpt lat="47.55813" lon="5.73811">
        <ele>198</ele>
        <time>2026-05-16T11:21:56+02:00</time>
      </trkpt>
      <trkpt lat="47.55823" lon="5.73817">
        <ele>197.90039</ele>
        <time>2026-05-16T11:21:57+02:00</time>
      </trkpt>
      <trkpt lat="47.55826" lon="5.73819">
        <ele>197.90039</ele>
        <time>2026-05-16T11:21:58+02:00</time>
      </trkpt>
      <trkpt lat="47.55832" lon="5.73824">
        <ele>198</ele>
        <time>2026-05-16T11:21:59+02:00</time>
      </trkpt>
      <trkpt lat="47.55838" lon="5.73828">
        <ele>198</ele>
        <time>2026-05-16T11:22:00+02:00</time>
      </trkpt>
      <trkpt lat="47.55845" lon="5.73833">
        <ele>198.2002</ele>
        <time>2026-05-16T11:22:01+02:00</time>
      </trkpt>
      <trkpt lat="47.55851" lon="5.73837">
        <ele>198.10059</ele>
        <time>2026-05-16T11:22:02+02:00</time>
      </trkpt>
      <trkpt lat="47.55857" lon="5.73842">
        <ele>198.2998</ele>
        <time>2026-05-16T11:22:03+02:00</time>
      </trkpt>
      <trkpt lat="47.55866" lon="5.73848">
        <ele>198.10059</ele>
        <time>2026-05-16T11:22:04+02:00</time>
      </trkpt>
      <trkpt lat="47.55869" lon="5.73851">
        <ele>198</ele>
        <time>2026-05-16T11:22:05+02:00</time>
      </trkpt>
      <trkpt lat="47.55876" lon="5.73855">
        <ele>197.90039</ele>
        <time>2026-05-16T11:22:06+02:00</time>
      </trkpt>
      <trkpt lat="47.55885" lon="5.73862">
        <ele>198</ele>
        <time>2026-05-16T11:22:07+02:00</time>
      </trkpt>
      <trkpt lat="47.55888" lon="5.73864">
        <ele>198.10059</ele>
        <time>2026-05-16T11:22:08+02:00</time>
      </trkpt>
      <trkpt lat="47.55894" lon="5.73868">
        <ele>198</ele>
        <time>2026-05-16T11:22:09+02:00</time>
      </trkpt>
      <trkpt lat="47.559" lon="5.73872">
        <ele>197.90039</ele>
        <time>2026-05-16T11:22:10+02:00</time>
      </trkpt>
      <trkpt lat="47.55909" lon="5.73879">
        <ele>197.90039</ele>
        <time>2026-05-16T11:22:11+02:00</time>
      </trkpt>
      <trkpt lat="47.55913" lon="5.73881">
        <ele>197.7998</ele>
        <time>2026-05-16T11:22:12+02:00</time>
      </trkpt>
      <trkpt lat="47.55919" lon="5.73885">
        <ele>197.90039</ele>
        <time>2026-05-16T11:22:13+02:00</time>
      </trkpt>
      <trkpt lat="47.55928" lon="5.73892">
        <ele>198.10059</ele>
        <time>2026-05-16T11:22:14+02:00</time>
      </trkpt>
      <trkpt lat="47.55931" lon="5.73894">
        <ele>198.10059</ele>
        <time>2026-05-16T11:22:15+02:00</time>
      </trkpt>
      <trkpt lat="47.55937" lon="5.73898">
        <ele>198</ele>
        <time>2026-05-16T11:22:16+02:00</time>
      </trkpt>
      <trkpt lat="47.55944" lon="5.73902">
        <ele>198.2002</ele>
        <time>2026-05-16T11:22:17+02:00</time>
      </trkpt>
      <trkpt lat="47.5595" lon="5.73906">
        <ele>198</ele>
        <time>2026-05-16T11:22:18+02:00</time>
      </trkpt>
      <trkpt lat="47.55956" lon="5.73911">
        <ele>198.10059</ele>
        <time>2026-05-16T11:22:19+02:00</time>
      </trkpt>
      <trkpt lat="47.55963" lon="5.73916">
        <ele>198.2002</ele>
        <time>2026-05-16T11:22:20+02:00</time>
      </trkpt>
      <trkpt lat="47.55972" lon="5.73923">
        <ele>198.2002</ele>
        <time>2026-05-16T11:22:21+02:00</time>
      </trkpt>
      <trkpt lat="47.55975" lon="5.73926">
        <ele>198.5</ele>
        <time>2026-05-16T11:22:22+02:00</time>
      </trkpt>
      <trkpt lat="47.55981" lon="5.73931">
        <ele>198.5</ele>
        <time>2026-05-16T11:22:23+02:00</time>
      </trkpt>
      <trkpt lat="47.55991" lon="5.7394">
        <ele>198.5</ele>
        <time>2026-05-16T11:22:24+02:00</time>
      </trkpt>
      <trkpt lat="47.55997" lon="5.73946">
        <ele>198.5</ele>
        <time>2026-05-16T11:22:25+02:00</time>
      </trkpt>
      <trkpt lat="47.56" lon="5.73949">
        <ele>198.5</ele>
        <time>2026-05-16T11:22:26+02:00</time>
      </trkpt>
      <trkpt lat="47.56006" lon="5.73954">
        <ele>198.60059</ele>
        <time>2026-05-16T11:22:27+02:00</time>
      </trkpt>
      <trkpt lat="47.56015" lon="5.73962">
        <ele>198.7002</ele>
        <time>2026-05-16T11:22:28+02:00</time>
      </trkpt>
      <trkpt lat="47.56017" lon="5.73965">
        <ele>198.7002</ele>
        <time>2026-05-16T11:22:29+02:00</time>
      </trkpt>
      <trkpt lat="47.56022" lon="5.7397">
        <ele>198.90039</ele>
        <time>2026-05-16T11:22:30+02:00</time>
      </trkpt>
      <trkpt lat="47.56029" lon="5.73978">
        <ele>198.90039</ele>
        <time>2026-05-16T11:22:31+02:00</time>
      </trkpt>
      <trkpt lat="47.56031" lon="5.73981">
        <ele>198.90039</ele>
        <time>2026-05-16T11:22:32+02:00</time>
      </trkpt>
      <trkpt lat="47.56035" lon="5.73985">
        <ele>198.7002</ele>
        <time>2026-05-16T11:22:33+02:00</time>
      </trkpt>
      <trkpt lat="47.56038" lon="5.73989">
        <ele>198.60059</ele>
        <time>2026-05-16T11:22:34+02:00</time>
      </trkpt>
      <trkpt lat="47.56042" lon="5.73993">
        <ele>198.5</ele>
        <time>2026-05-16T11:22:35+02:00</time>
      </trkpt>
      <trkpt lat="47.56043" lon="5.73993">
        <ele>198.40039</ele>
        <time>2026-05-16T11:22:36+02:00</time>
      </trkpt>
      <trkpt lat="47.56046" lon="5.73994">
        <ele>198.40039</ele>
        <time>2026-05-16T11:22:37+02:00</time>
      </trkpt>
      <trkpt lat="47.56051" lon="5.73997">
        <ele>198.40039</ele>
        <time>2026-05-16T11:22:38+02:00</time>
      </trkpt>
      <trkpt lat="47.56053" lon="5.73998">
        <ele>198.40039</ele>
        <time>2026-05-16T11:22:39+02:00</time>
      </trkpt>
      <trkpt lat="47.56057" lon="5.74001">
        <ele>198.2998</ele>
        <time>2026-05-16T11:22:40+02:00</time>
      </trkpt>
      <trkpt lat="47.56062" lon="5.74004">
        <ele>198.2002</ele>
        <time>2026-05-16T11:22:41+02:00</time>
      </trkpt>
      <trkpt lat="47.56069" lon="5.74009">
        <ele>198.2002</ele>
        <time>2026-05-16T11:22:42+02:00</time>
      </trkpt>
      <trkpt lat="47.56072" lon="5.7401">
        <ele>198</ele>
        <time>2026-05-16T11:22:43+02:00</time>
      </trkpt>
      <trkpt lat="47.56078" lon="5.74014">
        <ele>197.90039</ele>
        <time>2026-05-16T11:22:44+02:00</time>
      </trkpt>
      <trkpt lat="47.56083" lon="5.74017">
        <ele>197.90039</ele>
        <time>2026-05-16T11:22:45+02:00</time>
      </trkpt>
      <trkpt lat="47.56093" lon="5.74023">
        <ele>197.60059</ele>
        <time>2026-05-16T11:22:46+02:00</time>
      </trkpt>
      <trkpt lat="47.56096" lon="5.74025">
        <ele>197.60059</ele>
        <time>2026-05-16T11:22:47+02:00</time>
      </trkpt>
      <trkpt lat="47.56102" lon="5.74029">
        <ele>197.60059</ele>
        <time>2026-05-16T11:22:48+02:00</time>
      </trkpt>
      <trkpt lat="47.56112" lon="5.74036">
        <ele>197.60059</ele>
        <time>2026-05-16T11:22:49+02:00</time>
      </trkpt>
      <trkpt lat="47.56115" lon="5.74038">
        <ele>197.60059</ele>
        <time>2026-05-16T11:22:50+02:00</time>
      </trkpt>
      <trkpt lat="47.56122" lon="5.74043">
        <ele>197.5</ele>
        <time>2026-05-16T11:22:51+02:00</time>
      </trkpt>
      <trkpt lat="47.56131" lon="5.7405">
        <ele>197.2998</ele>
        <time>2026-05-16T11:22:52+02:00</time>
      </trkpt>
      <trkpt lat="47.56133" lon="5.74053">
        <ele>197.40039</ele>
        <time>2026-05-16T11:22:53+02:00</time>
      </trkpt>
      <trkpt lat="47.5614" lon="5.74058">
        <ele>197.40039</ele>
        <time>2026-05-16T11:22:54+02:00</time>
      </trkpt>
      <trkpt lat="47.56145" lon="5.74063">
        <ele>197.40039</ele>
        <time>2026-05-16T11:22:55+02:00</time>
      </trkpt>
      <trkpt lat="47.56154" lon="5.74071">
        <ele>197.5</ele>
        <time>2026-05-16T11:22:56+02:00</time>
      </trkpt>
      <trkpt lat="47.56157" lon="5.74074">
        <ele>197.5</ele>
        <time>2026-05-16T11:22:57+02:00</time>
      </trkpt>
      <trkpt lat="47.56163" lon="5.74079">
        <ele>197.2998</ele>
        <time>2026-05-16T11:22:58+02:00</time>
      </trkpt>
      <trkpt lat="47.56172" lon="5.74087">
        <ele>197.2002</ele>
        <time>2026-05-16T11:22:59+02:00</time>
      </trkpt>
      <trkpt lat="47.56175" lon="5.74089">
        <ele>197</ele>
        <time>2026-05-16T11:23:00+02:00</time>
      </trkpt>
      <trkpt lat="47.56181" lon="5.74094">
        <ele>197</ele>
        <time>2026-05-16T11:23:01+02:00</time>
      </trkpt>
      <trkpt lat="47.5619" lon="5.74101">
        <ele>196.60059</ele>
        <time>2026-05-16T11:23:02+02:00</time>
      </trkpt>
      <trkpt lat="47.56193" lon="5.74103">
        <ele>196.60059</ele>
        <time>2026-05-16T11:23:03+02:00</time>
      </trkpt>
      <trkpt lat="47.56199" lon="5.74108">
        <ele>196.2998</ele>
        <time>2026-05-16T11:23:04+02:00</time>
      </trkpt>
      <trkpt lat="47.56204" lon="5.74113">
        <ele>195.90039</ele>
        <time>2026-05-16T11:23:05+02:00</time>
      </trkpt>
      <trkpt lat="47.56212" lon="5.74119">
        <ele>195.7998</ele>
        <time>2026-05-16T11:23:06+02:00</time>
      </trkpt>
      <trkpt lat="47.56215" lon="5.74122">
        <ele>195.60059</ele>
        <time>2026-05-16T11:23:07+02:00</time>
      </trkpt>
      <trkpt lat="47.5622" lon="5.74126">
        <ele>195.5</ele>
        <time>2026-05-16T11:23:08+02:00</time>
      </trkpt>
      <trkpt lat="47.56227" lon="5.74132">
        <ele>195.2998</ele>
        <time>2026-05-16T11:23:09+02:00</time>
      </trkpt>
      <trkpt lat="47.5623" lon="5.74135">
        <ele>195.2998</ele>
        <time>2026-05-16T11:23:10+02:00</time>
      </trkpt>
      <trkpt lat="47.56235" lon="5.74139">
        <ele>195.2002</ele>
        <time>2026-05-16T11:23:11+02:00</time>
      </trkpt>
      <trkpt lat="47.56243" lon="5.74146">
        <ele>195.2998</ele>
        <time>2026-05-16T11:23:12+02:00</time>
      </trkpt>
      <trkpt lat="47.56245" lon="5.74148">
        <ele>195.2002</ele>
        <time>2026-05-16T11:23:13+02:00</time>
      </trkpt>
      <trkpt lat="47.56251" lon="5.74153">
        <ele>195.2998</ele>
        <time>2026-05-16T11:23:14+02:00</time>
      </trkpt>
      <trkpt lat="47.56256" lon="5.74157">
        <ele>195.2998</ele>
        <time>2026-05-16T11:23:15+02:00</time>
      </trkpt>
      <trkpt lat="47.56263" lon="5.74164">
        <ele>195.5</ele>
        <time>2026-05-16T11:23:16+02:00</time>
      </trkpt>
      <trkpt lat="47.56266" lon="5.74166">
        <ele>195.40039</ele>
        <time>2026-05-16T11:23:17+02:00</time>
      </trkpt>
      <trkpt lat="47.56271" lon="5.74171">
        <ele>195.60059</ele>
        <time>2026-05-16T11:23:18+02:00</time>
      </trkpt>
      <trkpt lat="47.5628" lon="5.74177">
        <ele>195.90039</ele>
        <time>2026-05-16T11:23:19+02:00</time>
      </trkpt>
      <trkpt lat="47.56283" lon="5.7418">
        <ele>195.90039</ele>
        <time>2026-05-16T11:23:20+02:00</time>
      </trkpt>
      <trkpt lat="47.56288" lon="5.74184">
        <ele>196</ele>
        <time>2026-05-16T11:23:21+02:00</time>
      </trkpt>
      <trkpt lat="47.56296" lon="5.74191">
        <ele>196.10059</ele>
        <time>2026-05-16T11:23:22+02:00</time>
      </trkpt>
      <trkpt lat="47.56299" lon="5.74193">
        <ele>196.2002</ele>
        <time>2026-05-16T11:23:23+02:00</time>
      </trkpt>
      <trkpt lat="47.56304" lon="5.74198">
        <ele>196.2998</ele>
        <time>2026-05-16T11:23:24+02:00</time>
      </trkpt>
      <trkpt lat="47.56312" lon="5.74204">
        <ele>196.7998</ele>
        <time>2026-05-16T11:23:25+02:00</time>
      </trkpt>
      <trkpt lat="47.56317" lon="5.74208">
        <ele>197.5</ele>
        <time>2026-05-16T11:23:26+02:00</time>
      </trkpt>
      <trkpt lat="47.56322" lon="5.74212">
        <ele>197.7002</ele>
        <time>2026-05-16T11:23:27+02:00</time>
      </trkpt>
      <trkpt lat="47.56325" lon="5.74215">
        <ele>197.7002</ele>
        <time>2026-05-16T11:23:28+02:00</time>
      </trkpt>
      <trkpt lat="47.56332" lon="5.74221">
        <ele>197.7998</ele>
        <time>2026-05-16T11:23:29+02:00</time>
      </trkpt>
      <trkpt lat="47.56335" lon="5.74223">
        <ele>197.7002</ele>
        <time>2026-05-16T11:23:30+02:00</time>
      </trkpt>
      <trkpt lat="47.5634" lon="5.74228">
        <ele>197.7002</ele>
        <time>2026-05-16T11:23:31+02:00</time>
      </trkpt>
      <trkpt lat="47.56345" lon="5.74232">
        <ele>197.60059</ele>
        <time>2026-05-16T11:23:32+02:00</time>
      </trkpt>
      <trkpt lat="47.56354" lon="5.74239">
        <ele>197.90039</ele>
        <time>2026-05-16T11:23:33+02:00</time>
      </trkpt>
      <trkpt lat="47.56356" lon="5.74241">
        <ele>197.7002</ele>
        <time>2026-05-16T11:23:34+02:00</time>
      </trkpt>
      <trkpt lat="47.56362" lon="5.74246">
        <ele>197.60059</ele>
        <time>2026-05-16T11:23:35+02:00</time>
      </trkpt>
      <trkpt lat="47.5637" lon="5.74253">
        <ele>197.5</ele>
        <time>2026-05-16T11:23:36+02:00</time>
      </trkpt>
      <trkpt lat="47.56372" lon="5.74256">
        <ele>197.5</ele>
        <time>2026-05-16T11:23:37+02:00</time>
      </trkpt>
      <trkpt lat="47.5638" lon="5.74262">
        <ele>197.40039</ele>
        <time>2026-05-16T11:23:38+02:00</time>
      </trkpt>
      <trkpt lat="47.56386" lon="5.74267">
        <ele>197.10059</ele>
        <time>2026-05-16T11:23:39+02:00</time>
      </trkpt>
      <trkpt lat="47.56391" lon="5.74271">
        <ele>197</ele>
        <time>2026-05-16T11:23:40+02:00</time>
      </trkpt>
      <trkpt lat="47.56394" lon="5.74273">
        <ele>197</ele>
        <time>2026-05-16T11:23:41+02:00</time>
      </trkpt>
      <trkpt lat="47.56402" lon="5.7428">
        <ele>196.7002</ele>
        <time>2026-05-16T11:23:42+02:00</time>
      </trkpt>
      <trkpt lat="47.56404" lon="5.74282">
        <ele>196.7002</ele>
        <time>2026-05-16T11:23:43+02:00</time>
      </trkpt>
      <trkpt lat="47.56412" lon="5.74289">
        <ele>196.7998</ele>
        <time>2026-05-16T11:23:44+02:00</time>
      </trkpt>
      <trkpt lat="47.56417" lon="5.74293">
        <ele>196.5</ele>
        <time>2026-05-16T11:23:45+02:00</time>
      </trkpt>
      <trkpt lat="47.5642" lon="5.74296">
        <ele>196.5</ele>
        <time>2026-05-16T11:23:46+02:00</time>
      </trkpt>
      <trkpt lat="47.56428" lon="5.74302">
        <ele>196.5</ele>
        <time>2026-05-16T11:23:47+02:00</time>
      </trkpt>
      <trkpt lat="47.56431" lon="5.74305">
        <ele>196.2998</ele>
        <time>2026-05-16T11:23:48+02:00</time>
      </trkpt>
      <trkpt lat="47.56436" lon="5.74309">
        <ele>196.2998</ele>
        <time>2026-05-16T11:23:49+02:00</time>
      </trkpt>
      <trkpt lat="47.56444" lon="5.74315">
        <ele>196.2002</ele>
        <time>2026-05-16T11:23:50+02:00</time>
      </trkpt>
      <trkpt lat="47.56449" lon="5.7432">
        <ele>196.2002</ele>
        <time>2026-05-16T11:23:51+02:00</time>
      </trkpt>
      <trkpt lat="47.56454" lon="5.74325">
        <ele>195.90039</ele>
        <time>2026-05-16T11:23:52+02:00</time>
      </trkpt>
      <trkpt lat="47.5646" lon="5.74329">
        <ele>196.2002</ele>
        <time>2026-05-16T11:23:53+02:00</time>
      </trkpt>
      <trkpt lat="47.56465" lon="5.74334">
        <ele>196.2002</ele>
        <time>2026-05-16T11:23:54+02:00</time>
      </trkpt>
      <trkpt lat="47.56471" lon="5.74339">
        <ele>196.7002</ele>
        <time>2026-05-16T11:23:55+02:00</time>
      </trkpt>
      <trkpt lat="47.56474" lon="5.74342">
        <ele>196.7998</ele>
        <time>2026-05-16T11:23:56+02:00</time>
      </trkpt>
      <trkpt lat="47.56483" lon="5.7435">
        <ele>197.10059</ele>
        <time>2026-05-16T11:23:57+02:00</time>
      </trkpt>
      <trkpt lat="47.56489" lon="5.74355">
        <ele>197</ele>
        <time>2026-05-16T11:23:58+02:00</time>
      </trkpt>
      <trkpt lat="47.56495" lon="5.74361">
        <ele>196.7002</ele>
        <time>2026-05-16T11:23:59+02:00</time>
      </trkpt>
      <trkpt lat="47.56502" lon="5.74367">
        <ele>196.90039</ele>
        <time>2026-05-16T11:24:00+02:00</time>
      </trkpt>
      <trkpt lat="47.56508" lon="5.74373">
        <ele>197.10059</ele>
        <time>2026-05-16T11:24:01+02:00</time>
      </trkpt>
      <trkpt lat="47.56515" lon="5.74379">
        <ele>197.2002</ele>
        <time>2026-05-16T11:24:02+02:00</time>
      </trkpt>
      <trkpt lat="47.56521" lon="5.74385">
        <ele>196.7998</ele>
        <time>2026-05-16T11:24:03+02:00</time>
      </trkpt>
      <trkpt lat="47.56527" lon="5.74391">
        <ele>197</ele>
        <time>2026-05-16T11:24:04+02:00</time>
      </trkpt>
      <trkpt lat="47.56531" lon="5.74393">
        <ele>196.7998</ele>
        <time>2026-05-16T11:24:05+02:00</time>
      </trkpt>
      <trkpt lat="47.5654" lon="5.74402">
        <ele>197.5</ele>
        <time>2026-05-16T11:24:06+02:00</time>
      </trkpt>
      <trkpt lat="47.56547" lon="5.74407">
        <ele>198.2002</ele>
        <time>2026-05-16T11:24:07+02:00</time>
      </trkpt>
      <trkpt lat="47.56553" lon="5.74413">
        <ele>197.7998</ele>
        <time>2026-05-16T11:24:08+02:00</time>
      </trkpt>
      <trkpt lat="47.5656" lon="5.74418">
        <ele>197.7002</ele>
        <time>2026-05-16T11:24:09+02:00</time>
      </trkpt>
      <trkpt lat="47.56563" lon="5.74421">
        <ele>197.7002</ele>
        <time>2026-05-16T11:24:10+02:00</time>
      </trkpt>
      <trkpt lat="47.56573" lon="5.74429">
        <ele>197.2998</ele>
        <time>2026-05-16T11:24:11+02:00</time>
      </trkpt>
      <trkpt lat="47.5658" lon="5.74435">
        <ele>197.40039</ele>
        <time>2026-05-16T11:24:12+02:00</time>
      </trkpt>
      <trkpt lat="47.56583" lon="5.74438">
        <ele>197</ele>
        <time>2026-05-16T11:24:13+02:00</time>
      </trkpt>
      <trkpt lat="47.56593" lon="5.74448">
        <ele>196.90039</ele>
        <time>2026-05-16T11:24:14+02:00</time>
      </trkpt>
      <trkpt lat="47.56596" lon="5.74451">
        <ele>196.90039</ele>
        <time>2026-05-16T11:24:15+02:00</time>
      </trkpt>
      <trkpt lat="47.56603" lon="5.74457">
        <ele>197.2002</ele>
        <time>2026-05-16T11:24:16+02:00</time>
      </trkpt>
      <trkpt lat="47.56612" lon="5.74465">
        <ele>197.60059</ele>
        <time>2026-05-16T11:24:17+02:00</time>
      </trkpt>
      <trkpt lat="47.56619" lon="5.74471">
        <ele>197.40039</ele>
        <time>2026-05-16T11:24:18+02:00</time>
      </trkpt>
      <trkpt lat="47.56622" lon="5.74474">
        <ele>197.40039</ele>
        <time>2026-05-16T11:24:19+02:00</time>
      </trkpt>
      <trkpt lat="47.56628" lon="5.7448">
        <ele>197</ele>
        <time>2026-05-16T11:24:20+02:00</time>
      </trkpt>
      <trkpt lat="47.56637" lon="5.7449">
        <ele>196.7998</ele>
        <time>2026-05-16T11:24:21+02:00</time>
      </trkpt>
      <trkpt lat="47.56644" lon="5.74496">
        <ele>196.7002</ele>
        <time>2026-05-16T11:24:22+02:00</time>
      </trkpt>
      <trkpt lat="47.5665" lon="5.74503">
        <ele>196.7002</ele>
        <time>2026-05-16T11:24:23+02:00</time>
      </trkpt>
      <trkpt lat="47.56653" lon="5.74507">
        <ele>196.2998</ele>
        <time>2026-05-16T11:24:24+02:00</time>
      </trkpt>
      <trkpt lat="47.56659" lon="5.74513">
        <ele>196.2002</ele>
        <time>2026-05-16T11:24:25+02:00</time>
      </trkpt>
      <trkpt lat="47.56669" lon="5.74523">
        <ele>195.90039</ele>
        <time>2026-05-16T11:24:26+02:00</time>
      </trkpt>
      <trkpt lat="47.56671" lon="5.74526">
        <ele>196</ele>
        <time>2026-05-16T11:24:27+02:00</time>
      </trkpt>
      <trkpt lat="47.56678" lon="5.74534">
        <ele>195.90039</ele>
        <time>2026-05-16T11:24:28+02:00</time>
      </trkpt>
      <trkpt lat="47.56687" lon="5.74544">
        <ele>195.7002</ele>
        <time>2026-05-16T11:24:29+02:00</time>
      </trkpt>
      <trkpt lat="47.56692" lon="5.74551">
        <ele>195.7002</ele>
        <time>2026-05-16T11:24:30+02:00</time>
      </trkpt>
      <trkpt lat="47.56695" lon="5.74555">
        <ele>195.7002</ele>
        <time>2026-05-16T11:24:31+02:00</time>
      </trkpt>
      <trkpt lat="47.56703" lon="5.74566">
        <ele>195.5</ele>
        <time>2026-05-16T11:24:32+02:00</time>
      </trkpt>
      <trkpt lat="47.56706" lon="5.74569">
        <ele>195.7002</ele>
        <time>2026-05-16T11:24:33+02:00</time>
      </trkpt>
      <trkpt lat="47.56712" lon="5.74576">
        <ele>195.60059</ele>
        <time>2026-05-16T11:24:34+02:00</time>
      </trkpt>
      <trkpt lat="47.5672" lon="5.74588">
        <ele>196.10059</ele>
        <time>2026-05-16T11:24:35+02:00</time>
      </trkpt>
      <trkpt lat="47.56723" lon="5.74592">
        <ele>196.2002</ele>
        <time>2026-05-16T11:24:36+02:00</time>
      </trkpt>
      <trkpt lat="47.56729" lon="5.746">
        <ele>196.7002</ele>
        <time>2026-05-16T11:24:37+02:00</time>
      </trkpt>
      <trkpt lat="47.56737" lon="5.74612">
        <ele>197.2998</ele>
        <time>2026-05-16T11:24:38+02:00</time>
      </trkpt>
      <trkpt lat="47.56743" lon="5.7462">
        <ele>197.10059</ele>
        <time>2026-05-16T11:24:39+02:00</time>
      </trkpt>
      <trkpt lat="47.56748" lon="5.74628">
        <ele>197.2002</ele>
        <time>2026-05-16T11:24:40+02:00</time>
      </trkpt>
      <trkpt lat="47.56753" lon="5.74636">
        <ele>197.2002</ele>
        <time>2026-05-16T11:24:41+02:00</time>
      </trkpt>
      <trkpt lat="47.56758" lon="5.74644">
        <ele>197.2002</ele>
        <time>2026-05-16T11:24:42+02:00</time>
      </trkpt>
      <trkpt lat="47.56762" lon="5.74652">
        <ele>197</ele>
        <time>2026-05-16T11:24:43+02:00</time>
      </trkpt>
      <trkpt lat="47.56765" lon="5.74656">
        <ele>197.2002</ele>
        <time>2026-05-16T11:24:44+02:00</time>
      </trkpt>
      <trkpt lat="47.56773" lon="5.74668">
        <ele>197.40039</ele>
        <time>2026-05-16T11:24:45+02:00</time>
      </trkpt>
      <trkpt lat="47.56778" lon="5.74677">
        <ele>197.5</ele>
        <time>2026-05-16T11:24:46+02:00</time>
      </trkpt>
      <trkpt lat="47.5678" lon="5.74681">
        <ele>197</ele>
        <time>2026-05-16T11:24:47+02:00</time>
      </trkpt>
      <trkpt lat="47.56787" lon="5.74694">
        <ele>196.60059</ele>
        <time>2026-05-16T11:24:48+02:00</time>
      </trkpt>
      <trkpt lat="47.56789" lon="5.74699">
        <ele>196.40039</ele>
        <time>2026-05-16T11:24:49+02:00</time>
      </trkpt>
      <trkpt lat="47.56796" lon="5.74712">
        <ele>196</ele>
        <time>2026-05-16T11:24:50+02:00</time>
      </trkpt>
      <trkpt lat="47.56801" lon="5.7472">
        <ele>196.2002</ele>
        <time>2026-05-16T11:24:51+02:00</time>
      </trkpt>
      <trkpt lat="47.56802" lon="5.74725">
        <ele>196.2002</ele>
        <time>2026-05-16T11:24:52+02:00</time>
      </trkpt>
      <trkpt lat="47.56809" lon="5.74738">
        <ele>196.40039</ele>
        <time>2026-05-16T11:24:53+02:00</time>
      </trkpt>
      <trkpt lat="47.56813" lon="5.74746">
        <ele>196.10059</ele>
        <time>2026-05-16T11:24:54+02:00</time>
      </trkpt>
      <trkpt lat="47.56817" lon="5.74755">
        <ele>196.2002</ele>
        <time>2026-05-16T11:24:55+02:00</time>
      </trkpt>
      <trkpt lat="47.56821" lon="5.74764">
        <ele>196.10059</ele>
        <time>2026-05-16T11:24:56+02:00</time>
      </trkpt>
      <trkpt lat="47.56825" lon="5.74773">
        <ele>196.2002</ele>
        <time>2026-05-16T11:24:57+02:00</time>
      </trkpt>
      <trkpt lat="47.56829" lon="5.74781">
        <ele>196.5</ele>
        <time>2026-05-16T11:24:58+02:00</time>
      </trkpt>
      <trkpt lat="47.56833" lon="5.7479">
        <ele>196.7002</ele>
        <time>2026-05-16T11:24:59+02:00</time>
      </trkpt>
      <trkpt lat="47.56835" lon="5.74794">
        <ele>197.10059</ele>
        <time>2026-05-16T11:25:00+02:00</time>
      </trkpt>
      <trkpt lat="47.56839" lon="5.74803">
        <ele>197.2002</ele>
        <time>2026-05-16T11:25:01+02:00</time>
      </trkpt>
      <trkpt lat="47.56844" lon="5.74815">
        <ele>197.2998</ele>
        <time>2026-05-16T11:25:02+02:00</time>
      </trkpt>
      <trkpt lat="47.56848" lon="5.74824">
        <ele>197.7002</ele>
        <time>2026-05-16T11:25:03+02:00</time>
      </trkpt>
      <trkpt lat="47.5685" lon="5.74829">
        <ele>198.2998</ele>
        <time>2026-05-16T11:25:04+02:00</time>
      </trkpt>
      <trkpt lat="47.56855" lon="5.74842">
        <ele>198.10059</ele>
        <time>2026-05-16T11:25:05+02:00</time>
      </trkpt>
      <trkpt lat="47.56859" lon="5.74851">
        <ele>198.5</ele>
        <time>2026-05-16T11:25:06+02:00</time>
      </trkpt>
      <trkpt lat="47.56862" lon="5.7486">
        <ele>198</ele>
        <time>2026-05-16T11:25:07+02:00</time>
      </trkpt>
      <trkpt lat="47.56865" lon="5.74869">
        <ele>198</ele>
        <time>2026-05-16T11:25:08+02:00</time>
      </trkpt>
      <trkpt lat="47.56867" lon="5.74873">
        <ele>197.5</ele>
        <time>2026-05-16T11:25:09+02:00</time>
      </trkpt>
      <trkpt lat="47.56872" lon="5.74887">
        <ele>198.2998</ele>
        <time>2026-05-16T11:25:10+02:00</time>
      </trkpt>
      <trkpt lat="47.56873" lon="5.74891">
        <ele>198.2998</ele>
        <time>2026-05-16T11:25:11+02:00</time>
      </trkpt>
      <trkpt lat="47.56876" lon="5.74899">
        <ele>198.7998</ele>
        <time>2026-05-16T11:25:12+02:00</time>
      </trkpt>
      <trkpt lat="47.5688" lon="5.74911">
        <ele>198.5</ele>
        <time>2026-05-16T11:25:13+02:00</time>
      </trkpt>
      <trkpt lat="47.56883" lon="5.7492">
        <ele>197.60059</ele>
        <time>2026-05-16T11:25:14+02:00</time>
      </trkpt>
      <trkpt lat="47.56886" lon="5.74928">
        <ele>197.60059</ele>
        <time>2026-05-16T11:25:15+02:00</time>
      </trkpt>
      <trkpt lat="47.56889" lon="5.74936">
        <ele>196.90039</ele>
        <time>2026-05-16T11:25:16+02:00</time>
      </trkpt>
      <trkpt lat="47.56892" lon="5.74945">
        <ele>196.90039</ele>
        <time>2026-05-16T11:25:17+02:00</time>
      </trkpt>
      <trkpt lat="47.56893" lon="5.74949">
        <ele>197.10059</ele>
        <time>2026-05-16T11:25:18+02:00</time>
      </trkpt>
      <trkpt lat="47.56897" lon="5.74963">
        <ele>196.90039</ele>
        <time>2026-05-16T11:25:19+02:00</time>
      </trkpt>
      <trkpt lat="47.56897" lon="5.74967">
        <ele>196.90039</ele>
        <time>2026-05-16T11:25:20+02:00</time>
      </trkpt>
      <trkpt lat="47.56898" lon="5.74975">
        <ele>197.2002</ele>
        <time>2026-05-16T11:25:21+02:00</time>
      </trkpt>
      <trkpt lat="47.569" lon="5.74984">
        <ele>197.2998</ele>
        <time>2026-05-16T11:25:22+02:00</time>
      </trkpt>
      <trkpt lat="47.56901" lon="5.74988">
        <ele>197.2998</ele>
        <time>2026-05-16T11:25:23+02:00</time>
      </trkpt>
      <trkpt lat="47.56901" lon="5.7499">
        <ele>197.7998</ele>
        <time>2026-05-16T11:25:24+02:00</time>
      </trkpt>
      <trkpt lat="47.56902" lon="5.74993">
        <ele>197.7998</ele>
        <time>2026-05-16T11:25:25+02:00</time>
      </trkpt>
      <trkpt lat="47.56904" lon="5.74997">
        <ele>198.2998</ele>
        <time>2026-05-16T11:25:26+02:00</time>
      </trkpt>
      <trkpt lat="47.56904" lon="5.74998">
        <ele>198.2998</ele>
        <time>2026-05-16T11:25:27+02:00</time>
      </trkpt>
      <trkpt lat="47.56905" lon="5.75">
        <ele>198.2998</ele>
        <time>2026-05-16T11:25:28+02:00</time>
      </trkpt>
      <trkpt lat="47.56907" lon="5.74999">
        <ele>197.90039</ele>
        <time>2026-05-16T11:25:29+02:00</time>
      </trkpt>
      <trkpt lat="47.56907" lon="5.74998">
        <ele>197.90039</ele>
        <time>2026-05-16T11:25:30+02:00</time>
      </trkpt>
      <trkpt lat="47.56907" lon="5.74998">
        <ele>197.90039</ele>
        <time>2026-05-16T11:25:31+02:00</time>
      </trkpt>
      <trkpt lat="47.56907" lon="5.74998">
        <ele>197.90039</ele>
        <time>2026-05-16T11:25:32+02:00</time>
      </trkpt>
      <trkpt lat="47.56907" lon="5.74998">
        <ele>197.90039</ele>
        <time>2026-05-16T11:25:33+02:00</time>
      </trkpt>
      <trkpt lat="47.56907" lon="5.74998">
        <ele>197.90039</ele>
        <time>2026-05-16T11:31:07+02:00</time>
      </trkpt>
      <trkpt lat="47.56907" lon="5.74998">
        <ele>197.90039</ele>
        <time>2026-05-16T11:31:08+02:00</time>
      </trkpt>
      <trkpt lat="47.56907" lon="5.74998">
        <ele>197.90039</ele>
        <time>2026-05-16T11:31:09+02:00</time>
      </trkpt>
      <trkpt lat="47.56907" lon="5.74998">
        <ele>197.90039</ele>
        <time>2026-05-16T11:31:10+02:00</time>
      </trkpt>
      <trkpt lat="47.56907" lon="5.74998">
        <ele>197.90039</ele>
        <time>2026-05-16T11:31:11+02:00</time>
      </trkpt>
      <trkpt lat="47.56907" lon="5.74998">
        <ele>197.90039</ele>
        <time>2026-05-16T11:31:12+02:00</time>
      </trkpt>
      <trkpt lat="47.56907" lon="5.74998">
        <ele>197.90039</ele>
        <time>2026-05-16T11:31:13+02:00</time>
      </trkpt>
      <trkpt lat="47.56922" lon="5.74984">
        <ele>196</ele>
        <time>2026-05-16T11:31:14+02:00</time>
      </trkpt>
      <trkpt lat="47.56923" lon="5.74982">
        <ele>196</ele>
        <time>2026-05-16T11:31:15+02:00</time>
      </trkpt>
      <trkpt lat="47.56924" lon="5.7498">
        <ele>195.5</ele>
        <time>2026-05-16T11:31:16+02:00</time>
      </trkpt>
      <trkpt lat="47.56925" lon="5.74979">
        <ele>195.2002</ele>
        <time>2026-05-16T11:31:17+02:00</time>
      </trkpt>
      <trkpt lat="47.56927" lon="5.74977">
        <ele>195.2002</ele>
        <time>2026-05-16T11:31:18+02:00</time>
      </trkpt>
      <trkpt lat="47.56929" lon="5.74975">
        <ele>194.60059</ele>
        <time>2026-05-16T11:31:19+02:00</time>
      </trkpt>
      <trkpt lat="47.56932" lon="5.74975">
        <ele>194.60059</ele>
        <time>2026-05-16T11:31:20+02:00</time>
      </trkpt>
      <trkpt lat="47.56935" lon="5.74976">
        <ele>194.2002</ele>
        <time>2026-05-16T11:31:21+02:00</time>
      </trkpt>
      <trkpt lat="47.56938" lon="5.74978">
        <ele>194.2002</ele>
        <time>2026-05-16T11:31:22+02:00</time>
      </trkpt>
      <trkpt lat="47.56941" lon="5.7498">
        <ele>194.10059</ele>
        <time>2026-05-16T11:31:23+02:00</time>
      </trkpt>
      <trkpt lat="47.56944" lon="5.74984">
        <ele>194.10059</ele>
        <time>2026-05-16T11:31:24+02:00</time>
      </trkpt>
      <trkpt lat="47.56946" lon="5.74989">
        <ele>194.40039</ele>
        <time>2026-05-16T11:31:25+02:00</time>
      </trkpt>
      <trkpt lat="47.56949" lon="5.74995">
        <ele>194.40039</ele>
        <time>2026-05-16T11:31:26+02:00</time>
      </trkpt>
      <trkpt lat="47.56951" lon="5.75001">
        <ele>194.40039</ele>
        <time>2026-05-16T11:31:27+02:00</time>
      </trkpt>
      <trkpt lat="47.56952" lon="5.75008">
        <ele>195</ele>
        <time>2026-05-16T11:31:28+02:00</time>
      </trkpt>
      <trkpt lat="47.56954" lon="5.75015">
        <ele>195.40039</ele>
        <time>2026-05-16T11:31:29+02:00</time>
      </trkpt>
      <trkpt lat="47.56956" lon="5.75021">
        <ele>195.40039</ele>
        <time>2026-05-16T11:31:30+02:00</time>
      </trkpt>
      <trkpt lat="47.56958" lon="5.75028">
        <ele>194.60059</ele>
        <time>2026-05-16T11:31:31+02:00</time>
      </trkpt>
      <trkpt lat="47.5696" lon="5.75034">
        <ele>195.2998</ele>
        <time>2026-05-16T11:31:32+02:00</time>
      </trkpt>
      <trkpt lat="47.56962" lon="5.7504">
        <ele>197.2002</ele>
        <time>2026-05-16T11:31:33+02:00</time>
      </trkpt>
      <trkpt lat="47.56963" lon="5.75046">
        <ele>197.2002</ele>
        <time>2026-05-16T11:31:34+02:00</time>
      </trkpt>
      <trkpt lat="47.56965" lon="5.75052">
        <ele>200.2002</ele>
        <time>2026-05-16T11:31:35+02:00</time>
      </trkpt>
      <trkpt lat="47.56967" lon="5.75057">
        <ele>200.2002</ele>
        <time>2026-05-16T11:31:36+02:00</time>
      </trkpt>
      <trkpt lat="47.5697" lon="5.75063">
        <ele>201.7002</ele>
        <time>2026-05-16T11:31:37+02:00</time>
      </trkpt>
      <trkpt lat="47.56971" lon="5.75068">
        <ele>200.40039</ele>
        <time>2026-05-16T11:31:38+02:00</time>
      </trkpt>
      <trkpt lat="47.56974" lon="5.75072">
        <ele>200.40039</ele>
        <time>2026-05-16T11:31:39+02:00</time>
      </trkpt>
      <trkpt lat="47.56976" lon="5.75077">
        <ele>198.5</ele>
        <time>2026-05-16T11:31:40+02:00</time>
      </trkpt>
      <trkpt lat="47.56978" lon="5.75082">
        <ele>198.5</ele>
        <time>2026-05-16T11:31:41+02:00</time>
      </trkpt>
      <trkpt lat="47.56981" lon="5.75087">
        <ele>198.7998</ele>
        <time>2026-05-16T11:31:42+02:00</time>
      </trkpt>
      <trkpt lat="47.56983" lon="5.75092">
        <ele>198.2002</ele>
        <time>2026-05-16T11:31:43+02:00</time>
      </trkpt>
      <trkpt lat="47.56985" lon="5.75098">
        <ele>198.2002</ele>
        <time>2026-05-16T11:31:44+02:00</time>
      </trkpt>
      <trkpt lat="47.56987" lon="5.75105">
        <ele>198.7998</ele>
        <time>2026-05-16T11:31:45+02:00</time>
      </trkpt>
      <trkpt lat="47.56988" lon="5.75112">
        <ele>195.60059</ele>
        <time>2026-05-16T11:31:46+02:00</time>
      </trkpt>
      <trkpt lat="47.5699" lon="5.7512">
        <ele>193</ele>
        <time>2026-05-16T11:31:47+02:00</time>
      </trkpt>
      <trkpt lat="47.56992" lon="5.75127">
        <ele>192.10059</ele>
        <time>2026-05-16T11:31:48+02:00</time>
      </trkpt>
      <trkpt lat="47.56994" lon="5.75135">
        <ele>191.7002</ele>
        <time>2026-05-16T11:31:49+02:00</time>
      </trkpt>
      <trkpt lat="47.56997" lon="5.75143">
        <ele>191.90039</ele>
        <time>2026-05-16T11:31:50+02:00</time>
      </trkpt>
      <trkpt lat="47.57" lon="5.7515">
        <ele>191.90039</ele>
        <time>2026-05-16T11:31:51+02:00</time>
      </trkpt>
      <trkpt lat="47.57004" lon="5.75159">
        <ele>192.2998</ele>
        <time>2026-05-16T11:31:52+02:00</time>
      </trkpt>
      <trkpt lat="47.57008" lon="5.75167">
        <ele>192.40039</ele>
        <time>2026-05-16T11:31:53+02:00</time>
      </trkpt>
      <trkpt lat="47.57012" lon="5.75174">
        <ele>192.40039</ele>
        <time>2026-05-16T11:31:54+02:00</time>
      </trkpt>
      <trkpt lat="47.57017" lon="5.75182">
        <ele>192.40039</ele>
        <time>2026-05-16T11:31:55+02:00</time>
      </trkpt>
      <trkpt lat="47.57023" lon="5.75189">
        <ele>192.40039</ele>
        <time>2026-05-16T11:31:56+02:00</time>
      </trkpt>
      <trkpt lat="47.57028" lon="5.75195">
        <ele>192.40039</ele>
        <time>2026-05-16T11:31:57+02:00</time>
      </trkpt>
      <trkpt lat="47.57033" lon="5.75202">
        <ele>192.40039</ele>
        <time>2026-05-16T11:31:58+02:00</time>
      </trkpt>
      <trkpt lat="47.57037" lon="5.75209">
        <ele>192.40039</ele>
        <time>2026-05-16T11:31:59+02:00</time>
      </trkpt>
      <trkpt lat="47.57042" lon="5.75217">
        <ele>192.40039</ele>
        <time>2026-05-16T11:32:00+02:00</time>
      </trkpt>
      <trkpt lat="47.57046" lon="5.75225">
        <ele>192.40039</ele>
        <time>2026-05-16T11:32:01+02:00</time>
      </trkpt>
      <trkpt lat="47.5705" lon="5.75233">
        <ele>192.40039</ele>
        <time>2026-05-16T11:32:02+02:00</time>
      </trkpt>
      <trkpt lat="47.57054" lon="5.75241">
        <ele>192.2998</ele>
        <time>2026-05-16T11:32:03+02:00</time>
      </trkpt>
      <trkpt lat="47.57057" lon="5.75249">
        <ele>192.2998</ele>
        <time>2026-05-16T11:32:04+02:00</time>
      </trkpt>
      <trkpt lat="47.5706" lon="5.75258">
        <ele>192.2998</ele>
        <time>2026-05-16T11:32:05+02:00</time>
      </trkpt>
      <trkpt lat="47.57063" lon="5.75266">
        <ele>192.40039</ele>
        <time>2026-05-16T11:32:06+02:00</time>
      </trkpt>
      <trkpt lat="47.57065" lon="5.75274">
        <ele>192.40039</ele>
        <time>2026-05-16T11:32:07+02:00</time>
      </trkpt>
      <trkpt lat="47.57067" lon="5.75283">
        <ele>192.40039</ele>
        <time>2026-05-16T11:32:08+02:00</time>
      </trkpt>
      <trkpt lat="47.57069" lon="5.75292">
        <ele>192.40039</ele>
        <time>2026-05-16T11:32:09+02:00</time>
      </trkpt>
      <trkpt lat="47.5707" lon="5.753">
        <ele>192.40039</ele>
        <time>2026-05-16T11:32:10+02:00</time>
      </trkpt>
      <trkpt lat="47.57071" lon="5.75309">
        <ele>192.40039</ele>
        <time>2026-05-16T11:32:11+02:00</time>
      </trkpt>
      <trkpt lat="47.57072" lon="5.75316">
        <ele>192.40039</ele>
        <time>2026-05-16T11:32:12+02:00</time>
      </trkpt>
      <trkpt lat="47.57073" lon="5.75324">
        <ele>192.40039</ele>
        <time>2026-05-16T11:32:13+02:00</time>
      </trkpt>
      <trkpt lat="47.57073" lon="5.7533">
        <ele>192.40039</ele>
        <time>2026-05-16T11:32:14+02:00</time>
      </trkpt>
      <trkpt lat="47.57074" lon="5.75337">
        <ele>192.40039</ele>
        <time>2026-05-16T11:32:15+02:00</time>
      </trkpt>
      <trkpt lat="47.57074" lon="5.75344">
        <ele>192.2998</ele>
        <time>2026-05-16T11:32:16+02:00</time>
      </trkpt>
      <trkpt lat="47.57076" lon="5.75352">
        <ele>192.2998</ele>
        <time>2026-05-16T11:32:17+02:00</time>
      </trkpt>
      <trkpt lat="47.57076" lon="5.75361">
        <ele>192.2998</ele>
        <time>2026-05-16T11:32:18+02:00</time>
      </trkpt>
      <trkpt lat="47.57077" lon="5.75369">
        <ele>192.2998</ele>
        <time>2026-05-16T11:32:19+02:00</time>
      </trkpt>
      <trkpt lat="47.57077" lon="5.75378">
        <ele>192.2998</ele>
        <time>2026-05-16T11:32:20+02:00</time>
      </trkpt>
      <trkpt lat="47.57077" lon="5.75387">
        <ele>192.2998</ele>
        <time>2026-05-16T11:32:21+02:00</time>
      </trkpt>
      <trkpt lat="47.57076" lon="5.75396">
        <ele>192.40039</ele>
        <time>2026-05-16T11:32:22+02:00</time>
      </trkpt>
      <trkpt lat="47.57076" lon="5.75406">
        <ele>192.40039</ele>
        <time>2026-05-16T11:32:23+02:00</time>
      </trkpt>
      <trkpt lat="47.57075" lon="5.75415">
        <ele>192.5</ele>
        <time>2026-05-16T11:32:24+02:00</time>
      </trkpt>
      <trkpt lat="47.57075" lon="5.75424">
        <ele>192.5</ele>
        <time>2026-05-16T11:32:25+02:00</time>
      </trkpt>
      <trkpt lat="47.57075" lon="5.75433">
        <ele>192.5</ele>
        <time>2026-05-16T11:32:26+02:00</time>
      </trkpt>
      <trkpt lat="47.57074" lon="5.75442">
        <ele>192.40039</ele>
        <time>2026-05-16T11:32:27+02:00</time>
      </trkpt>
      <trkpt lat="47.57074" lon="5.7545">
        <ele>192.40039</ele>
        <time>2026-05-16T11:32:28+02:00</time>
      </trkpt>
      <trkpt lat="47.57073" lon="5.75459">
        <ele>192.2998</ele>
        <time>2026-05-16T11:32:29+02:00</time>
      </trkpt>
      <trkpt lat="47.57071" lon="5.75468">
        <ele>192.2998</ele>
        <time>2026-05-16T11:32:30+02:00</time>
      </trkpt>
      <trkpt lat="47.5707" lon="5.75476">
        <ele>192.2002</ele>
        <time>2026-05-16T11:32:31+02:00</time>
      </trkpt>
      <trkpt lat="47.57069" lon="5.75485">
        <ele>192.2002</ele>
        <time>2026-05-16T11:32:32+02:00</time>
      </trkpt>
      <trkpt lat="47.57067" lon="5.75494">
        <ele>192.2998</ele>
        <time>2026-05-16T11:32:33+02:00</time>
      </trkpt>
      <trkpt lat="47.57065" lon="5.75502">
        <ele>192.40039</ele>
        <time>2026-05-16T11:32:34+02:00</time>
      </trkpt>
      <trkpt lat="47.57063" lon="5.7551">
        <ele>192.60059</ele>
        <time>2026-05-16T11:32:35+02:00</time>
      </trkpt>
      <trkpt lat="47.57061" lon="5.75519">
        <ele>192.5</ele>
        <time>2026-05-16T11:32:36+02:00</time>
      </trkpt>
      <trkpt lat="47.57058" lon="5.75527">
        <ele>192.7002</ele>
        <time>2026-05-16T11:32:37+02:00</time>
      </trkpt>
      <trkpt lat="47.57056" lon="5.75535">
        <ele>192.7002</ele>
        <time>2026-05-16T11:32:38+02:00</time>
      </trkpt>
      <trkpt lat="47.57053" lon="5.75542">
        <ele>193</ele>
        <time>2026-05-16T11:32:39+02:00</time>
      </trkpt>
      <trkpt lat="47.5705" lon="5.75549">
        <ele>192.90039</ele>
        <time>2026-05-16T11:32:40+02:00</time>
      </trkpt>
      <trkpt lat="47.57046" lon="5.75556">
        <ele>193.2002</ele>
        <time>2026-05-16T11:32:41+02:00</time>
      </trkpt>
      <trkpt lat="47.57042" lon="5.75563">
        <ele>192.7998</ele>
        <time>2026-05-16T11:32:42+02:00</time>
      </trkpt>
      <trkpt lat="47.57039" lon="5.7557">
        <ele>193.10059</ele>
        <time>2026-05-16T11:32:43+02:00</time>
      </trkpt>
      <trkpt lat="47.57035" lon="5.75577">
        <ele>193.10059</ele>
        <time>2026-05-16T11:32:44+02:00</time>
      </trkpt>
      <trkpt lat="47.57032" lon="5.75584">
        <ele>193.10059</ele>
        <time>2026-05-16T11:32:45+02:00</time>
      </trkpt>
      <trkpt lat="47.57028" lon="5.75591">
        <ele>193.40039</ele>
        <time>2026-05-16T11:32:46+02:00</time>
      </trkpt>
      <trkpt lat="47.57025" lon="5.75597">
        <ele>193</ele>
        <time>2026-05-16T11:32:47+02:00</time>
      </trkpt>
      <trkpt lat="47.5702" lon="5.75604">
        <ele>192.90039</ele>
        <time>2026-05-16T11:32:48+02:00</time>
      </trkpt>
      <trkpt lat="47.57016" lon="5.7561">
        <ele>193.2998</ele>
        <time>2026-05-16T11:32:49+02:00</time>
      </trkpt>
      <trkpt lat="47.57012" lon="5.75617">
        <ele>193.60059</ele>
        <time>2026-05-16T11:32:50+02:00</time>
      </trkpt>
      <trkpt lat="47.57008" lon="5.75623">
        <ele>193.40039</ele>
        <time>2026-05-16T11:32:51+02:00</time>
      </trkpt>
      <trkpt lat="47.57004" lon="5.75629">
        <ele>193.7998</ele>
        <time>2026-05-16T11:32:52+02:00</time>
      </trkpt>
      <trkpt lat="47.56999" lon="5.75635">
        <ele>194</ele>
        <time>2026-05-16T11:32:53+02:00</time>
      </trkpt>
      <trkpt lat="47.56994" lon="5.7564">
        <ele>193.7998</ele>
        <time>2026-05-16T11:32:54+02:00</time>
      </trkpt>
      <trkpt lat="47.56989" lon="5.75645">
        <ele>193.90039</ele>
        <time>2026-05-16T11:32:55+02:00</time>
      </trkpt>
      <trkpt lat="47.56984" lon="5.7565">
        <ele>194</ele>
        <time>2026-05-16T11:32:56+02:00</time>
      </trkpt>
      <trkpt lat="47.5698" lon="5.75655">
        <ele>193.7998</ele>
        <time>2026-05-16T11:32:57+02:00</time>
      </trkpt>
      <trkpt lat="47.56975" lon="5.7566">
        <ele>194.2002</ele>
        <time>2026-05-16T11:32:58+02:00</time>
      </trkpt>
      <trkpt lat="47.5697" lon="5.75665">
        <ele>194</ele>
        <time>2026-05-16T11:32:59+02:00</time>
      </trkpt>
      <trkpt lat="47.56964" lon="5.7567">
        <ele>194.40039</ele>
        <time>2026-05-16T11:33:00+02:00</time>
      </trkpt>
      <trkpt lat="47.56959" lon="5.75675">
        <ele>194.10059</ele>
        <time>2026-05-16T11:33:01+02:00</time>
      </trkpt>
      <trkpt lat="47.56954" lon="5.7568">
        <ele>194.2998</ele>
        <time>2026-05-16T11:33:02+02:00</time>
      </trkpt>
      <trkpt lat="47.56949" lon="5.75684">
        <ele>194.2998</ele>
        <time>2026-05-16T11:33:03+02:00</time>
      </trkpt>
      <trkpt lat="47.56944" lon="5.75688">
        <ele>194</ele>
        <time>2026-05-16T11:33:04+02:00</time>
      </trkpt>
      <trkpt lat="47.56938" lon="5.75693">
        <ele>194.10059</ele>
        <time>2026-05-16T11:33:05+02:00</time>
      </trkpt>
      <trkpt lat="47.56933" lon="5.75697">
        <ele>193.7998</ele>
        <time>2026-05-16T11:33:06+02:00</time>
      </trkpt>
      <trkpt lat="47.56929" lon="5.75702">
        <ele>194.2002</ele>
        <time>2026-05-16T11:33:07+02:00</time>
      </trkpt>
      <trkpt lat="47.56923" lon="5.75707">
        <ele>193.5</ele>
        <time>2026-05-16T11:33:08+02:00</time>
      </trkpt>
      <trkpt lat="47.56918" lon="5.75712">
        <ele>193.7998</ele>
        <time>2026-05-16T11:33:09+02:00</time>
      </trkpt>
      <trkpt lat="47.56914" lon="5.75716">
        <ele>193.40039</ele>
        <time>2026-05-16T11:33:10+02:00</time>
      </trkpt>
      <trkpt lat="47.56909" lon="5.75721">
        <ele>193.5</ele>
        <time>2026-05-16T11:33:11+02:00</time>
      </trkpt>
      <trkpt lat="47.56903" lon="5.75726">
        <ele>193.10059</ele>
        <time>2026-05-16T11:33:12+02:00</time>
      </trkpt>
      <trkpt lat="47.56898" lon="5.75731">
        <ele>193.10059</ele>
        <time>2026-05-16T11:33:13+02:00</time>
      </trkpt>
      <trkpt lat="47.56893" lon="5.75736">
        <ele>192.90039</ele>
        <time>2026-05-16T11:33:14+02:00</time>
      </trkpt>
      <trkpt lat="47.56888" lon="5.7574">
        <ele>192.60059</ele>
        <time>2026-05-16T11:33:15+02:00</time>
      </trkpt>
      <trkpt lat="47.56883" lon="5.75745">
        <ele>192.90039</ele>
        <time>2026-05-16T11:33:16+02:00</time>
      </trkpt>
      <trkpt lat="47.56878" lon="5.7575">
        <ele>192.60059</ele>
        <time>2026-05-16T11:33:17+02:00</time>
      </trkpt>
      <trkpt lat="47.56873" lon="5.75755">
        <ele>192.60059</ele>
        <time>2026-05-16T11:33:18+02:00</time>
      </trkpt>
      <trkpt lat="47.56868" lon="5.75761">
        <ele>192.5</ele>
        <time>2026-05-16T11:33:19+02:00</time>
      </trkpt>
      <trkpt lat="47.56864" lon="5.75766">
        <ele>192.40039</ele>
        <time>2026-05-16T11:33:20+02:00</time>
      </trkpt>
      <trkpt lat="47.56859" lon="5.75772">
        <ele>192.2998</ele>
        <time>2026-05-16T11:33:21+02:00</time>
      </trkpt>
      <trkpt lat="47.56855" lon="5.75779">
        <ele>192.2998</ele>
        <time>2026-05-16T11:33:22+02:00</time>
      </trkpt>
      <trkpt lat="47.56852" lon="5.75786">
        <ele>192.2998</ele>
        <time>2026-05-16T11:33:23+02:00</time>
      </trkpt>
      <trkpt lat="47.56848" lon="5.75793">
        <ele>192.2998</ele>
        <time>2026-05-16T11:33:24+02:00</time>
      </trkpt>
      <trkpt lat="47.56846" lon="5.75801">
        <ele>192.2998</ele>
        <time>2026-05-16T11:33:25+02:00</time>
      </trkpt>
      <trkpt lat="47.56843" lon="5.75809">
        <ele>192.40039</ele>
        <time>2026-05-16T11:33:26+02:00</time>
      </trkpt>
      <trkpt lat="47.56841" lon="5.75817">
        <ele>192.40039</ele>
        <time>2026-05-16T11:33:27+02:00</time>
      </trkpt>
      <trkpt lat="47.56839" lon="5.75825">
        <ele>192.40039</ele>
        <time>2026-05-16T11:33:28+02:00</time>
      </trkpt>
      <trkpt lat="47.56837" lon="5.75834">
        <ele>192.2998</ele>
        <time>2026-05-16T11:33:29+02:00</time>
      </trkpt>
      <trkpt lat="47.56836" lon="5.75842">
        <ele>192.2998</ele>
        <time>2026-05-16T11:33:30+02:00</time>
      </trkpt>
      <trkpt lat="47.56835" lon="5.7585">
        <ele>192.2998</ele>
        <time>2026-05-16T11:33:31+02:00</time>
      </trkpt>
      <trkpt lat="47.56833" lon="5.75859">
        <ele>192.2998</ele>
        <time>2026-05-16T11:33:32+02:00</time>
      </trkpt>
      <trkpt lat="47.56832" lon="5.75868">
        <ele>192.2998</ele>
        <time>2026-05-16T11:33:33+02:00</time>
      </trkpt>
      <trkpt lat="47.56831" lon="5.75876">
        <ele>192.2002</ele>
        <time>2026-05-16T11:33:34+02:00</time>
      </trkpt>
      <trkpt lat="47.56831" lon="5.75885">
        <ele>192.2002</ele>
        <time>2026-05-16T11:33:35+02:00</time>
      </trkpt>
      <trkpt lat="47.56831" lon="5.75894">
        <ele>192.2002</ele>
        <time>2026-05-16T11:33:36+02:00</time>
      </trkpt>
      <trkpt lat="47.56831" lon="5.75903">
        <ele>192.2002</ele>
        <time>2026-05-16T11:33:37+02:00</time>
      </trkpt>
      <trkpt lat="47.56831" lon="5.75912">
        <ele>192.2002</ele>
        <time>2026-05-16T11:33:38+02:00</time>
      </trkpt>
      <trkpt lat="47.56831" lon="5.75921">
        <ele>192.2002</ele>
        <time>2026-05-16T11:33:39+02:00</time>
      </trkpt>
      <trkpt lat="47.56831" lon="5.75931">
        <ele>192.2002</ele>
        <time>2026-05-16T11:33:40+02:00</time>
      </trkpt>
      <trkpt lat="47.56832" lon="5.7594">
        <ele>192.2998</ele>
        <time>2026-05-16T11:33:41+02:00</time>
      </trkpt>
      <trkpt lat="47.56833" lon="5.75949">
        <ele>192.2998</ele>
        <time>2026-05-16T11:33:42+02:00</time>
      </trkpt>
      <trkpt lat="47.56833" lon="5.75958">
        <ele>192.2998</ele>
        <time>2026-05-16T11:33:43+02:00</time>
      </trkpt>
      <trkpt lat="47.56835" lon="5.75967">
        <ele>192.40039</ele>
        <time>2026-05-16T11:33:44+02:00</time>
      </trkpt>
      <trkpt lat="47.56835" lon="5.75976">
        <ele>192.40039</ele>
        <time>2026-05-16T11:33:45+02:00</time>
      </trkpt>
      <trkpt lat="47.56836" lon="5.75985">
        <ele>192.40039</ele>
        <time>2026-05-16T11:33:46+02:00</time>
      </trkpt>
      <trkpt lat="47.56838" lon="5.75994">
        <ele>192.40039</ele>
        <time>2026-05-16T11:33:47+02:00</time>
      </trkpt>
      <trkpt lat="47.5684" lon="5.76003">
        <ele>192.40039</ele>
        <time>2026-05-16T11:33:48+02:00</time>
      </trkpt>
      <trkpt lat="47.56841" lon="5.76011">
        <ele>192.5</ele>
        <time>2026-05-16T11:33:49+02:00</time>
      </trkpt>
      <trkpt lat="47.56844" lon="5.7602">
        <ele>192.5</ele>
        <time>2026-05-16T11:33:50+02:00</time>
      </trkpt>
      <trkpt lat="47.56846" lon="5.76029">
        <ele>192.5</ele>
        <time>2026-05-16T11:33:51+02:00</time>
      </trkpt>
      <trkpt lat="47.56848" lon="5.76038">
        <ele>192.40039</ele>
        <time>2026-05-16T11:33:52+02:00</time>
      </trkpt>
      <trkpt lat="47.56851" lon="5.76047">
        <ele>192.40039</ele>
        <time>2026-05-16T11:33:53+02:00</time>
      </trkpt>
      <trkpt lat="47.56853" lon="5.76055">
        <ele>192.40039</ele>
        <time>2026-05-16T11:33:54+02:00</time>
      </trkpt>
      <trkpt lat="47.56855" lon="5.76064">
        <ele>192.40039</ele>
        <time>2026-05-16T11:33:55+02:00</time>
      </trkpt>
      <trkpt lat="47.56857" lon="5.76073">
        <ele>192.40039</ele>
        <time>2026-05-16T11:33:56+02:00</time>
      </trkpt>
      <trkpt lat="47.5686" lon="5.76081">
        <ele>192.40039</ele>
        <time>2026-05-16T11:33:57+02:00</time>
      </trkpt>
      <trkpt lat="47.56862" lon="5.7609">
        <ele>192.40039</ele>
        <time>2026-05-16T11:33:58+02:00</time>
      </trkpt>
      <trkpt lat="47.56864" lon="5.76099">
        <ele>192.40039</ele>
        <time>2026-05-16T11:33:59+02:00</time>
      </trkpt>
      <trkpt lat="47.56867" lon="5.76108">
        <ele>192.40039</ele>
        <time>2026-05-16T11:34:00+02:00</time>
      </trkpt>
      <trkpt lat="47.56869" lon="5.76116">
        <ele>192.40039</ele>
        <time>2026-05-16T11:34:01+02:00</time>
      </trkpt>
      <trkpt lat="47.56871" lon="5.76125">
        <ele>192.40039</ele>
        <time>2026-05-16T11:34:02+02:00</time>
      </trkpt>
      <trkpt lat="47.56873" lon="5.76133">
        <ele>192.40039</ele>
        <time>2026-05-16T11:34:03+02:00</time>
      </trkpt>
      <trkpt lat="47.56876" lon="5.76142">
        <ele>192.40039</ele>
        <time>2026-05-16T11:34:04+02:00</time>
      </trkpt>
      <trkpt lat="47.56878" lon="5.7615">
        <ele>192.2998</ele>
        <time>2026-05-16T11:34:05+02:00</time>
      </trkpt>
      <trkpt lat="47.56881" lon="5.76159">
        <ele>192.40039</ele>
        <time>2026-05-16T11:34:06+02:00</time>
      </trkpt>
      <trkpt lat="47.56883" lon="5.76167">
        <ele>192.40039</ele>
        <time>2026-05-16T11:34:07+02:00</time>
      </trkpt>
      <trkpt lat="47.56886" lon="5.76176">
        <ele>192.40039</ele>
        <time>2026-05-16T11:34:08+02:00</time>
      </trkpt>
      <trkpt lat="47.56888" lon="5.76184">
        <ele>192.40039</ele>
        <time>2026-05-16T11:34:09+02:00</time>
      </trkpt>
      <trkpt lat="47.56891" lon="5.76192">
        <ele>192.40039</ele>
        <time>2026-05-16T11:34:10+02:00</time>
      </trkpt>
      <trkpt lat="47.56894" lon="5.762">
        <ele>192.40039</ele>
        <time>2026-05-16T11:34:11+02:00</time>
      </trkpt>
      <trkpt lat="47.56897" lon="5.76209">
        <ele>192.40039</ele>
        <time>2026-05-16T11:34:12+02:00</time>
      </trkpt>
      <trkpt lat="47.569" lon="5.76216">
        <ele>192.40039</ele>
        <time>2026-05-16T11:34:13+02:00</time>
      </trkpt>
      <trkpt lat="47.56903" lon="5.76225">
        <ele>192.40039</ele>
        <time>2026-05-16T11:34:14+02:00</time>
      </trkpt>
      <trkpt lat="47.56906" lon="5.76233">
        <ele>192.40039</ele>
        <time>2026-05-16T11:34:15+02:00</time>
      </trkpt>
      <trkpt lat="47.56909" lon="5.76241">
        <ele>192.40039</ele>
        <time>2026-05-16T11:34:16+02:00</time>
      </trkpt>
      <trkpt lat="47.56912" lon="5.76249">
        <ele>192.40039</ele>
        <time>2026-05-16T11:34:17+02:00</time>
      </trkpt>
      <trkpt lat="47.56915" lon="5.76257">
        <ele>192.40039</ele>
        <time>2026-05-16T11:34:18+02:00</time>
      </trkpt>
      <trkpt lat="47.56918" lon="5.76265">
        <ele>192.40039</ele>
        <time>2026-05-16T11:34:19+02:00</time>
      </trkpt>
      <trkpt lat="47.56922" lon="5.76273">
        <ele>192.40039</ele>
        <time>2026-05-16T11:34:20+02:00</time>
      </trkpt>
      <trkpt lat="47.56925" lon="5.76281">
        <ele>192.40039</ele>
        <time>2026-05-16T11:34:21+02:00</time>
      </trkpt>
      <trkpt lat="47.56929" lon="5.76289">
        <ele>192.40039</ele>
        <time>2026-05-16T11:34:22+02:00</time>
      </trkpt>
      <trkpt lat="47.56933" lon="5.76297">
        <ele>192.40039</ele>
        <time>2026-05-16T11:34:23+02:00</time>
      </trkpt>
      <trkpt lat="47.56936" lon="5.76305">
        <ele>192.40039</ele>
        <time>2026-05-16T11:34:24+02:00</time>
      </trkpt>
      <trkpt lat="47.56939" lon="5.76313">
        <ele>192.40039</ele>
        <time>2026-05-16T11:34:25+02:00</time>
      </trkpt>
      <trkpt lat="47.56943" lon="5.76321">
        <ele>192.40039</ele>
        <time>2026-05-16T11:34:26+02:00</time>
      </trkpt>
      <trkpt lat="47.56947" lon="5.76328">
        <ele>192.40039</ele>
        <time>2026-05-16T11:34:27+02:00</time>
      </trkpt>
      <trkpt lat="47.56951" lon="5.76336">
        <ele>192.40039</ele>
        <time>2026-05-16T11:34:28+02:00</time>
      </trkpt>
      <trkpt lat="47.56955" lon="5.76343">
        <ele>192.40039</ele>
        <time>2026-05-16T11:34:29+02:00</time>
      </trkpt>
      <trkpt lat="47.56959" lon="5.76351">
        <ele>192.40039</ele>
        <time>2026-05-16T11:34:30+02:00</time>
      </trkpt>
      <trkpt lat="47.56963" lon="5.76358">
        <ele>192.40039</ele>
        <time>2026-05-16T11:34:31+02:00</time>
      </trkpt>
      <trkpt lat="47.56967" lon="5.76365">
        <ele>192.40039</ele>
        <time>2026-05-16T11:34:32+02:00</time>
      </trkpt>
      <trkpt lat="47.56972" lon="5.76372">
        <ele>192.40039</ele>
        <time>2026-05-16T11:34:33+02:00</time>
      </trkpt>
      <trkpt lat="47.56976" lon="5.76379">
        <ele>192.40039</ele>
        <time>2026-05-16T11:34:34+02:00</time>
      </trkpt>
      <trkpt lat="47.56981" lon="5.76385">
        <ele>192.2998</ele>
        <time>2026-05-16T11:34:35+02:00</time>
      </trkpt>
      <trkpt lat="47.56986" lon="5.76392">
        <ele>192.40039</ele>
        <time>2026-05-16T11:34:36+02:00</time>
      </trkpt>
      <trkpt lat="47.5699" lon="5.76399">
        <ele>192.5</ele>
        <time>2026-05-16T11:34:37+02:00</time>
      </trkpt>
      <trkpt lat="47.56995" lon="5.76406">
        <ele>192.40039</ele>
        <time>2026-05-16T11:34:38+02:00</time>
      </trkpt>
      <trkpt lat="47.56999" lon="5.76413">
        <ele>192.40039</ele>
        <time>2026-05-16T11:34:39+02:00</time>
      </trkpt>
      <trkpt lat="47.57004" lon="5.7642">
        <ele>192.40039</ele>
        <time>2026-05-16T11:34:40+02:00</time>
      </trkpt>
      <trkpt lat="47.57008" lon="5.76427">
        <ele>192.40039</ele>
        <time>2026-05-16T11:34:41+02:00</time>
      </trkpt>
      <trkpt lat="47.57013" lon="5.76434">
        <ele>192.5</ele>
        <time>2026-05-16T11:34:42+02:00</time>
      </trkpt>
      <trkpt lat="47.57018" lon="5.7644">
        <ele>192.40039</ele>
        <time>2026-05-16T11:34:43+02:00</time>
      </trkpt>
      <trkpt lat="47.57023" lon="5.76446">
        <ele>192.40039</ele>
        <time>2026-05-16T11:34:44+02:00</time>
      </trkpt>
      <trkpt lat="47.57028" lon="5.76452">
        <ele>192.40039</ele>
        <time>2026-05-16T11:34:45+02:00</time>
      </trkpt>
      <trkpt lat="47.57033" lon="5.76459">
        <ele>192.40039</ele>
        <time>2026-05-16T11:34:46+02:00</time>
      </trkpt>
      <trkpt lat="47.57038" lon="5.76465">
        <ele>192.5</ele>
        <time>2026-05-16T11:34:47+02:00</time>
      </trkpt>
      <trkpt lat="47.57043" lon="5.76472">
        <ele>192.40039</ele>
        <time>2026-05-16T11:34:48+02:00</time>
      </trkpt>
      <trkpt lat="47.57047" lon="5.76478">
        <ele>192.40039</ele>
        <time>2026-05-16T11:34:49+02:00</time>
      </trkpt>
      <trkpt lat="47.57052" lon="5.76485">
        <ele>192.40039</ele>
        <time>2026-05-16T11:34:50+02:00</time>
      </trkpt>
      <trkpt lat="47.57057" lon="5.76491">
        <ele>192.40039</ele>
        <time>2026-05-16T11:34:51+02:00</time>
      </trkpt>
      <trkpt lat="47.57062" lon="5.76497">
        <ele>192.40039</ele>
        <time>2026-05-16T11:34:52+02:00</time>
      </trkpt>
      <trkpt lat="47.57067" lon="5.76504">
        <ele>192.40039</ele>
        <time>2026-05-16T11:34:53+02:00</time>
      </trkpt>
      <trkpt lat="47.57072" lon="5.76509">
        <ele>192.40039</ele>
        <time>2026-05-16T11:34:54+02:00</time>
      </trkpt>
      <trkpt lat="47.57077" lon="5.76515">
        <ele>192.40039</ele>
        <time>2026-05-16T11:34:55+02:00</time>
      </trkpt>
      <trkpt lat="47.57082" lon="5.76521">
        <ele>192.40039</ele>
        <time>2026-05-16T11:34:56+02:00</time>
      </trkpt>
      <trkpt lat="47.57088" lon="5.76526">
        <ele>192.40039</ele>
        <time>2026-05-16T11:34:57+02:00</time>
      </trkpt>
      <trkpt lat="47.57094" lon="5.76531">
        <ele>192.40039</ele>
        <time>2026-05-16T11:34:58+02:00</time>
      </trkpt>
      <trkpt lat="47.57099" lon="5.76536">
        <ele>192.40039</ele>
        <time>2026-05-16T11:34:59+02:00</time>
      </trkpt>
      <trkpt lat="47.57105" lon="5.7654">
        <ele>192.40039</ele>
        <time>2026-05-16T11:35:00+02:00</time>
      </trkpt>
      <trkpt lat="47.57111" lon="5.76544">
        <ele>192.40039</ele>
        <time>2026-05-16T11:35:01+02:00</time>
      </trkpt>
      <trkpt lat="47.57116" lon="5.76549">
        <ele>192.40039</ele>
        <time>2026-05-16T11:35:02+02:00</time>
      </trkpt>
      <trkpt lat="47.57122" lon="5.76553">
        <ele>192.40039</ele>
        <time>2026-05-16T11:35:03+02:00</time>
      </trkpt>
      <trkpt lat="47.57128" lon="5.76557">
        <ele>192.40039</ele>
        <time>2026-05-16T11:35:04+02:00</time>
      </trkpt>
      <trkpt lat="47.57134" lon="5.76561">
        <ele>192.40039</ele>
        <time>2026-05-16T11:35:05+02:00</time>
      </trkpt>
      <trkpt lat="47.5714" lon="5.76565">
        <ele>192.40039</ele>
        <time>2026-05-16T11:35:06+02:00</time>
      </trkpt>
      <trkpt lat="47.57146" lon="5.76568">
        <ele>192.40039</ele>
        <time>2026-05-16T11:35:07+02:00</time>
      </trkpt>
      <trkpt lat="47.57152" lon="5.76572">
        <ele>192.40039</ele>
        <time>2026-05-16T11:35:08+02:00</time>
      </trkpt>
      <trkpt lat="47.57158" lon="5.76576">
        <ele>192.40039</ele>
        <time>2026-05-16T11:35:09+02:00</time>
      </trkpt>
      <trkpt lat="47.57164" lon="5.76579">
        <ele>192.40039</ele>
        <time>2026-05-16T11:35:10+02:00</time>
      </trkpt>
      <trkpt lat="47.5717" lon="5.76582">
        <ele>192.40039</ele>
        <time>2026-05-16T11:35:11+02:00</time>
      </trkpt>
      <trkpt lat="47.57177" lon="5.76585">
        <ele>192.40039</ele>
        <time>2026-05-16T11:35:12+02:00</time>
      </trkpt>
      <trkpt lat="47.57183" lon="5.76587">
        <ele>192.40039</ele>
        <time>2026-05-16T11:35:13+02:00</time>
      </trkpt>
      <trkpt lat="47.57189" lon="5.76589">
        <ele>192.40039</ele>
        <time>2026-05-16T11:35:14+02:00</time>
      </trkpt>
      <trkpt lat="47.57195" lon="5.76591">
        <ele>192.40039</ele>
        <time>2026-05-16T11:35:15+02:00</time>
      </trkpt>
      <trkpt lat="47.57201" lon="5.76593">
        <ele>192.40039</ele>
        <time>2026-05-16T11:35:16+02:00</time>
      </trkpt>
      <trkpt lat="47.57207" lon="5.76595">
        <ele>192.40039</ele>
        <time>2026-05-16T11:35:17+02:00</time>
      </trkpt>
      <trkpt lat="47.57214" lon="5.76597">
        <ele>192.40039</ele>
        <time>2026-05-16T11:35:18+02:00</time>
      </trkpt>
      <trkpt lat="47.5722" lon="5.76599">
        <ele>192.40039</ele>
        <time>2026-05-16T11:35:19+02:00</time>
      </trkpt>
      <trkpt lat="47.57226" lon="5.76601">
        <ele>192.40039</ele>
        <time>2026-05-16T11:35:20+02:00</time>
      </trkpt>
      <trkpt lat="47.57232" lon="5.76604">
        <ele>192.40039</ele>
        <time>2026-05-16T11:35:21+02:00</time>
      </trkpt>
      <trkpt lat="47.57239" lon="5.76605">
        <ele>192.40039</ele>
        <time>2026-05-16T11:35:22+02:00</time>
      </trkpt>
      <trkpt lat="47.57245" lon="5.76607">
        <ele>192.40039</ele>
        <time>2026-05-16T11:35:23+02:00</time>
      </trkpt>
      <trkpt lat="47.57251" lon="5.76609">
        <ele>192.40039</ele>
        <time>2026-05-16T11:35:24+02:00</time>
      </trkpt>
      <trkpt lat="47.57257" lon="5.7661">
        <ele>192.40039</ele>
        <time>2026-05-16T11:35:25+02:00</time>
      </trkpt>
      <trkpt lat="47.57263" lon="5.76612">
        <ele>192.40039</ele>
        <time>2026-05-16T11:35:26+02:00</time>
      </trkpt>
      <trkpt lat="47.57269" lon="5.76613">
        <ele>192.40039</ele>
        <time>2026-05-16T11:35:27+02:00</time>
      </trkpt>
      <trkpt lat="47.57276" lon="5.76614">
        <ele>192.40039</ele>
        <time>2026-05-16T11:35:28+02:00</time>
      </trkpt>
      <trkpt lat="47.57282" lon="5.76615">
        <ele>192.40039</ele>
        <time>2026-05-16T11:35:29+02:00</time>
      </trkpt>
      <trkpt lat="47.57288" lon="5.76616">
        <ele>192.40039</ele>
        <time>2026-05-16T11:35:30+02:00</time>
      </trkpt>
      <trkpt lat="47.57295" lon="5.76617">
        <ele>192.40039</ele>
        <time>2026-05-16T11:35:31+02:00</time>
      </trkpt>
      <trkpt lat="47.57301" lon="5.76617">
        <ele>192.40039</ele>
        <time>2026-05-16T11:35:32+02:00</time>
      </trkpt>
      <trkpt lat="47.57308" lon="5.76616">
        <ele>192.40039</ele>
        <time>2026-05-16T11:35:33+02:00</time>
      </trkpt>
      <trkpt lat="47.57314" lon="5.76616">
        <ele>192.40039</ele>
        <time>2026-05-16T11:35:34+02:00</time>
      </trkpt>
      <trkpt lat="47.57321" lon="5.76615">
        <ele>192.40039</ele>
        <time>2026-05-16T11:35:35+02:00</time>
      </trkpt>
      <trkpt lat="47.57327" lon="5.76613">
        <ele>192.40039</ele>
        <time>2026-05-16T11:35:36+02:00</time>
      </trkpt>
      <trkpt lat="47.57334" lon="5.76612">
        <ele>192.40039</ele>
        <time>2026-05-16T11:35:37+02:00</time>
      </trkpt>
      <trkpt lat="47.5734" lon="5.7661">
        <ele>192.40039</ele>
        <time>2026-05-16T11:35:38+02:00</time>
      </trkpt>
      <trkpt lat="47.57347" lon="5.76608">
        <ele>192.40039</ele>
        <time>2026-05-16T11:35:39+02:00</time>
      </trkpt>
      <trkpt lat="47.57353" lon="5.76605">
        <ele>192.40039</ele>
        <time>2026-05-16T11:35:40+02:00</time>
      </trkpt>
      <trkpt lat="47.57359" lon="5.76601">
        <ele>192.40039</ele>
        <time>2026-05-16T11:35:41+02:00</time>
      </trkpt>
      <trkpt lat="47.57366" lon="5.76597">
        <ele>192.40039</ele>
        <time>2026-05-16T11:35:42+02:00</time>
      </trkpt>
      <trkpt lat="47.57372" lon="5.76592">
        <ele>192.40039</ele>
        <time>2026-05-16T11:35:43+02:00</time>
      </trkpt>
      <trkpt lat="47.57378" lon="5.76588">
        <ele>192.40039</ele>
        <time>2026-05-16T11:35:44+02:00</time>
      </trkpt>
      <trkpt lat="47.57384" lon="5.76583">
        <ele>192.2998</ele>
        <time>2026-05-16T11:35:45+02:00</time>
      </trkpt>
      <trkpt lat="47.5739" lon="5.76578">
        <ele>192.2998</ele>
        <time>2026-05-16T11:35:46+02:00</time>
      </trkpt>
      <trkpt lat="47.57395" lon="5.76573">
        <ele>192.2002</ele>
        <time>2026-05-16T11:35:47+02:00</time>
      </trkpt>
      <trkpt lat="47.574" lon="5.76567">
        <ele>192.2998</ele>
        <time>2026-05-16T11:35:48+02:00</time>
      </trkpt>
      <trkpt lat="47.57417" lon="5.7655">
        <ele>192.60059</ele>
        <time>2026-05-16T11:35:49+02:00</time>
      </trkpt>
      <trkpt lat="47.57422" lon="5.76545">
        <ele>192.5</ele>
        <time>2026-05-16T11:35:50+02:00</time>
      </trkpt>
      <trkpt lat="47.57428" lon="5.76539">
        <ele>192.7998</ele>
        <time>2026-05-16T11:35:51+02:00</time>
      </trkpt>
      <trkpt lat="47.57433" lon="5.76533">
        <ele>193.10059</ele>
        <time>2026-05-16T11:35:52+02:00</time>
      </trkpt>
      <trkpt lat="47.57438" lon="5.76527">
        <ele>193.10059</ele>
        <time>2026-05-16T11:35:53+02:00</time>
      </trkpt>
      <trkpt lat="47.57443" lon="5.76521">
        <ele>193</ele>
        <time>2026-05-16T11:35:54+02:00</time>
      </trkpt>
      <trkpt lat="47.57448" lon="5.76516">
        <ele>192.90039</ele>
        <time>2026-05-16T11:35:55+02:00</time>
      </trkpt>
      <trkpt lat="47.57453" lon="5.7651">
        <ele>192.5</ele>
        <time>2026-05-16T11:35:56+02:00</time>
      </trkpt>
      <trkpt lat="47.57458" lon="5.76504">
        <ele>192.7002</ele>
        <time>2026-05-16T11:35:57+02:00</time>
      </trkpt>
      <trkpt lat="47.57463" lon="5.76499">
        <ele>192.5</ele>
        <time>2026-05-16T11:35:58+02:00</time>
      </trkpt>
      <trkpt lat="47.57469" lon="5.76493">
        <ele>192.40039</ele>
        <time>2026-05-16T11:35:59+02:00</time>
      </trkpt>
      <trkpt lat="47.57474" lon="5.76488">
        <ele>192.2998</ele>
        <time>2026-05-16T11:36:00+02:00</time>
      </trkpt>
      <trkpt lat="47.5748" lon="5.76484">
        <ele>192.2998</ele>
        <time>2026-05-16T11:36:01+02:00</time>
      </trkpt>
      <trkpt lat="47.57485" lon="5.76479">
        <ele>192.2998</ele>
        <time>2026-05-16T11:36:02+02:00</time>
      </trkpt>
      <trkpt lat="47.57491" lon="5.76475">
        <ele>192.40039</ele>
        <time>2026-05-16T11:36:03+02:00</time>
      </trkpt>
      <trkpt lat="47.57496" lon="5.7647">
        <ele>192.2998</ele>
        <time>2026-05-16T11:36:04+02:00</time>
      </trkpt>
      <trkpt lat="47.57502" lon="5.76465">
        <ele>192.2998</ele>
        <time>2026-05-16T11:36:05+02:00</time>
      </trkpt>
      <trkpt lat="47.57507" lon="5.76461">
        <ele>192.2002</ele>
        <time>2026-05-16T11:36:06+02:00</time>
      </trkpt>
      <trkpt lat="47.57513" lon="5.76456">
        <ele>192.2998</ele>
        <time>2026-05-16T11:36:07+02:00</time>
      </trkpt>
      <trkpt lat="47.57518" lon="5.76452">
        <ele>192.2998</ele>
        <time>2026-05-16T11:36:08+02:00</time>
      </trkpt>
      <trkpt lat="47.57524" lon="5.76447">
        <ele>192.40039</ele>
        <time>2026-05-16T11:36:09+02:00</time>
      </trkpt>
      <trkpt lat="47.5753" lon="5.76443">
        <ele>192.40039</ele>
        <time>2026-05-16T11:36:10+02:00</time>
      </trkpt>
      <trkpt lat="47.57536" lon="5.76439">
        <ele>192.40039</ele>
        <time>2026-05-16T11:36:11+02:00</time>
      </trkpt>
      <trkpt lat="47.57542" lon="5.76435">
        <ele>192.2998</ele>
        <time>2026-05-16T11:36:12+02:00</time>
      </trkpt>
      <trkpt lat="47.57548" lon="5.76431">
        <ele>192.2998</ele>
        <time>2026-05-16T11:36:13+02:00</time>
      </trkpt>
      <trkpt lat="47.57554" lon="5.76428">
        <ele>192.2002</ele>
        <time>2026-05-16T11:36:14+02:00</time>
      </trkpt>
      <trkpt lat="47.57561" lon="5.76425">
        <ele>192.2002</ele>
        <time>2026-05-16T11:36:15+02:00</time>
      </trkpt>
      <trkpt lat="47.57567" lon="5.76423">
        <ele>192.2002</ele>
        <time>2026-05-16T11:36:16+02:00</time>
      </trkpt>
      <trkpt lat="47.57574" lon="5.76421">
        <ele>192.2998</ele>
        <time>2026-05-16T11:36:17+02:00</time>
      </trkpt>
      <trkpt lat="47.5758" lon="5.7642">
        <ele>192.2998</ele>
        <time>2026-05-16T11:36:18+02:00</time>
      </trkpt>
      <trkpt lat="47.57586" lon="5.76418">
        <ele>192.2998</ele>
        <time>2026-05-16T11:36:19+02:00</time>
      </trkpt>
      <trkpt lat="47.57593" lon="5.76417">
        <ele>192.2998</ele>
        <time>2026-05-16T11:36:20+02:00</time>
      </trkpt>
      <trkpt lat="47.57599" lon="5.76416">
        <ele>192.2998</ele>
        <time>2026-05-16T11:36:21+02:00</time>
      </trkpt>
      <trkpt lat="47.57605" lon="5.76414">
        <ele>192.40039</ele>
        <time>2026-05-16T11:36:22+02:00</time>
      </trkpt>
      <trkpt lat="47.57612" lon="5.76413">
        <ele>192.40039</ele>
        <time>2026-05-16T11:36:23+02:00</time>
      </trkpt>
      <trkpt lat="47.57618" lon="5.76411">
        <ele>192.40039</ele>
        <time>2026-05-16T11:36:24+02:00</time>
      </trkpt>
      <trkpt lat="47.57625" lon="5.7641">
        <ele>192.2998</ele>
        <time>2026-05-16T11:36:25+02:00</time>
      </trkpt>
      <trkpt lat="47.57631" lon="5.76409">
        <ele>192.2998</ele>
        <time>2026-05-16T11:36:26+02:00</time>
      </trkpt>
      <trkpt lat="47.57638" lon="5.76409">
        <ele>192.2998</ele>
        <time>2026-05-16T11:36:27+02:00</time>
      </trkpt>
      <trkpt lat="47.57644" lon="5.76409">
        <ele>192.2998</ele>
        <time>2026-05-16T11:36:28+02:00</time>
      </trkpt>
      <trkpt lat="47.57651" lon="5.76409">
        <ele>192.2998</ele>
        <time>2026-05-16T11:36:29+02:00</time>
      </trkpt>
      <trkpt lat="47.57657" lon="5.7641">
        <ele>192.2998</ele>
        <time>2026-05-16T11:36:30+02:00</time>
      </trkpt>
      <trkpt lat="47.57663" lon="5.76411">
        <ele>192.2998</ele>
        <time>2026-05-16T11:36:31+02:00</time>
      </trkpt>
      <trkpt lat="47.5767" lon="5.76412">
        <ele>192.2998</ele>
        <time>2026-05-16T11:36:32+02:00</time>
      </trkpt>
      <trkpt lat="47.57676" lon="5.76413">
        <ele>192.2998</ele>
        <time>2026-05-16T11:36:33+02:00</time>
      </trkpt>
      <trkpt lat="47.57682" lon="5.76414">
        <ele>192.2002</ele>
        <time>2026-05-16T11:36:34+02:00</time>
      </trkpt>
      <trkpt lat="47.57689" lon="5.76415">
        <ele>192.2002</ele>
        <time>2026-05-16T11:36:35+02:00</time>
      </trkpt>
      <trkpt lat="47.57695" lon="5.76417">
        <ele>192.2002</ele>
        <time>2026-05-16T11:36:36+02:00</time>
      </trkpt>
      <trkpt lat="47.57701" lon="5.7642">
        <ele>192.2002</ele>
        <time>2026-05-16T11:36:37+02:00</time>
      </trkpt>
      <trkpt lat="47.57707" lon="5.76423">
        <ele>192.2998</ele>
        <time>2026-05-16T11:36:38+02:00</time>
      </trkpt>
      <trkpt lat="47.57713" lon="5.76426">
        <ele>192.2998</ele>
        <time>2026-05-16T11:36:39+02:00</time>
      </trkpt>
      <trkpt lat="47.5772" lon="5.76428">
        <ele>192.40039</ele>
        <time>2026-05-16T11:36:40+02:00</time>
      </trkpt>
      <trkpt lat="47.57726" lon="5.76431">
        <ele>192.40039</ele>
        <time>2026-05-16T11:36:41+02:00</time>
      </trkpt>
      <trkpt lat="47.57732" lon="5.76434">
        <ele>192.40039</ele>
        <time>2026-05-16T11:36:42+02:00</time>
      </trkpt>
      <trkpt lat="47.57738" lon="5.76437">
        <ele>192.40039</ele>
        <time>2026-05-16T11:36:43+02:00</time>
      </trkpt>
      <trkpt lat="47.57744" lon="5.76441">
        <ele>192.40039</ele>
        <time>2026-05-16T11:36:44+02:00</time>
      </trkpt>
      <trkpt lat="47.5775" lon="5.76444">
        <ele>192.40039</ele>
        <time>2026-05-16T11:36:45+02:00</time>
      </trkpt>
      <trkpt lat="47.57756" lon="5.76448">
        <ele>192.40039</ele>
        <time>2026-05-16T11:36:46+02:00</time>
      </trkpt>
      <trkpt lat="47.57762" lon="5.76453">
        <ele>192.40039</ele>
        <time>2026-05-16T11:36:47+02:00</time>
      </trkpt>
      <trkpt lat="47.57767" lon="5.76457">
        <ele>192.40039</ele>
        <time>2026-05-16T11:36:48+02:00</time>
      </trkpt>
      <trkpt lat="47.57773" lon="5.76462">
        <ele>192.40039</ele>
        <time>2026-05-16T11:36:49+02:00</time>
      </trkpt>
      <trkpt lat="47.57778" lon="5.76467">
        <ele>192.40039</ele>
        <time>2026-05-16T11:36:50+02:00</time>
      </trkpt>
      <trkpt lat="47.57784" lon="5.76471">
        <ele>192.40039</ele>
        <time>2026-05-16T11:36:51+02:00</time>
      </trkpt>
      <trkpt lat="47.57789" lon="5.76476">
        <ele>192.40039</ele>
        <time>2026-05-16T11:36:52+02:00</time>
      </trkpt>
      <trkpt lat="47.57795" lon="5.76482">
        <ele>192.40039</ele>
        <time>2026-05-16T11:36:53+02:00</time>
      </trkpt>
      <trkpt lat="47.578" lon="5.76487">
        <ele>192.40039</ele>
        <time>2026-05-16T11:36:54+02:00</time>
      </trkpt>
      <trkpt lat="47.57806" lon="5.76492">
        <ele>192.40039</ele>
        <time>2026-05-16T11:36:55+02:00</time>
      </trkpt>
      <trkpt lat="47.57811" lon="5.76497">
        <ele>192.40039</ele>
        <time>2026-05-16T11:36:56+02:00</time>
      </trkpt>
      <trkpt lat="47.57816" lon="5.76502">
        <ele>192.40039</ele>
        <time>2026-05-16T11:36:57+02:00</time>
      </trkpt>
      <trkpt lat="47.57822" lon="5.76507">
        <ele>192.40039</ele>
        <time>2026-05-16T11:36:58+02:00</time>
      </trkpt>
      <trkpt lat="47.57828" lon="5.76512">
        <ele>192.40039</ele>
        <time>2026-05-16T11:36:59+02:00</time>
      </trkpt>
      <trkpt lat="47.57833" lon="5.76517">
        <ele>192.40039</ele>
        <time>2026-05-16T11:37:00+02:00</time>
      </trkpt>
      <trkpt lat="47.57838" lon="5.76522">
        <ele>192.40039</ele>
        <time>2026-05-16T11:37:01+02:00</time>
      </trkpt>
      <trkpt lat="47.57844" lon="5.76528">
        <ele>192.40039</ele>
        <time>2026-05-16T11:37:02+02:00</time>
      </trkpt>
      <trkpt lat="47.57849" lon="5.76533">
        <ele>192.40039</ele>
        <time>2026-05-16T11:37:03+02:00</time>
      </trkpt>
      <trkpt lat="47.57854" lon="5.76538">
        <ele>192.40039</ele>
        <time>2026-05-16T11:37:04+02:00</time>
      </trkpt>
      <trkpt lat="47.5786" lon="5.76543">
        <ele>192.40039</ele>
        <time>2026-05-16T11:37:05+02:00</time>
      </trkpt>
      <trkpt lat="47.57865" lon="5.76548">
        <ele>192.40039</ele>
        <time>2026-05-16T11:37:06+02:00</time>
      </trkpt>
      <trkpt lat="47.57869" lon="5.76553">
        <ele>192.40039</ele>
        <time>2026-05-16T11:37:07+02:00</time>
      </trkpt>
      <trkpt lat="47.57874" lon="5.76559">
        <ele>192.40039</ele>
        <time>2026-05-16T11:37:08+02:00</time>
      </trkpt>
      <trkpt lat="47.57879" lon="5.76564">
        <ele>192.40039</ele>
        <time>2026-05-16T11:37:09+02:00</time>
      </trkpt>
      <trkpt lat="47.57883" lon="5.7657">
        <ele>192.40039</ele>
        <time>2026-05-16T11:37:10+02:00</time>
      </trkpt>
      <trkpt lat="47.57887" lon="5.76576">
        <ele>192.40039</ele>
        <time>2026-05-16T11:37:11+02:00</time>
      </trkpt>
      <trkpt lat="47.57892" lon="5.76582">
        <ele>192.40039</ele>
        <time>2026-05-16T11:37:12+02:00</time>
      </trkpt>
      <trkpt lat="47.57895" lon="5.7659">
        <ele>192.40039</ele>
        <time>2026-05-16T11:37:13+02:00</time>
      </trkpt>
      <trkpt lat="47.579" lon="5.76597">
        <ele>192.40039</ele>
        <time>2026-05-16T11:37:14+02:00</time>
      </trkpt>
      <trkpt lat="47.57903" lon="5.76605">
        <ele>192.40039</ele>
        <time>2026-05-16T11:37:15+02:00</time>
      </trkpt>
      <trkpt lat="47.57907" lon="5.76613">
        <ele>192.40039</ele>
        <time>2026-05-16T11:37:16+02:00</time>
      </trkpt>
      <trkpt lat="47.5791" lon="5.76621">
        <ele>192.40039</ele>
        <time>2026-05-16T11:37:17+02:00</time>
      </trkpt>
      <trkpt lat="47.57914" lon="5.76628">
        <ele>192.40039</ele>
        <time>2026-05-16T11:37:18+02:00</time>
      </trkpt>
      <trkpt lat="47.57918" lon="5.76636">
        <ele>192.40039</ele>
        <time>2026-05-16T11:37:19+02:00</time>
      </trkpt>
      <trkpt lat="47.57921" lon="5.76643">
        <ele>192.40039</ele>
        <time>2026-05-16T11:37:20+02:00</time>
      </trkpt>
      <trkpt lat="47.57925" lon="5.76651">
        <ele>192.40039</ele>
        <time>2026-05-16T11:37:21+02:00</time>
      </trkpt>
      <trkpt lat="47.57929" lon="5.76659">
        <ele>192.40039</ele>
        <time>2026-05-16T11:37:22+02:00</time>
      </trkpt>
      <trkpt lat="47.57932" lon="5.76667">
        <ele>192.40039</ele>
        <time>2026-05-16T11:37:23+02:00</time>
      </trkpt>
      <trkpt lat="47.57935" lon="5.76676">
        <ele>192.40039</ele>
        <time>2026-05-16T11:37:24+02:00</time>
      </trkpt>
      <trkpt lat="47.57938" lon="5.76684">
        <ele>192.40039</ele>
        <time>2026-05-16T11:37:25+02:00</time>
      </trkpt>
      <trkpt lat="47.5794" lon="5.76693">
        <ele>192.40039</ele>
        <time>2026-05-16T11:37:26+02:00</time>
      </trkpt>
      <trkpt lat="47.57943" lon="5.76702">
        <ele>192.40039</ele>
        <time>2026-05-16T11:37:27+02:00</time>
      </trkpt>
      <trkpt lat="47.57946" lon="5.76711">
        <ele>192.40039</ele>
        <time>2026-05-16T11:37:28+02:00</time>
      </trkpt>
      <trkpt lat="47.57949" lon="5.7672">
        <ele>192.40039</ele>
        <time>2026-05-16T11:37:29+02:00</time>
      </trkpt>
      <trkpt lat="47.57951" lon="5.76729">
        <ele>192.40039</ele>
        <time>2026-05-16T11:37:30+02:00</time>
      </trkpt>
      <trkpt lat="47.57954" lon="5.76738">
        <ele>192.40039</ele>
        <time>2026-05-16T11:37:31+02:00</time>
      </trkpt>
      <trkpt lat="47.57955" lon="5.76742">
        <ele>192.40039</ele>
        <time>2026-05-16T11:37:32+02:00</time>
      </trkpt>
      <trkpt lat="47.57959" lon="5.76755">
        <ele>192.40039</ele>
        <time>2026-05-16T11:37:33+02:00</time>
      </trkpt>
      <trkpt lat="47.57961" lon="5.76764">
        <ele>192.40039</ele>
        <time>2026-05-16T11:37:34+02:00</time>
      </trkpt>
      <trkpt lat="47.57963" lon="5.76772">
        <ele>192.40039</ele>
        <time>2026-05-16T11:37:35+02:00</time>
      </trkpt>
      <trkpt lat="47.57966" lon="5.76781">
        <ele>192.2998</ele>
        <time>2026-05-16T11:37:36+02:00</time>
      </trkpt>
      <trkpt lat="47.57968" lon="5.7679">
        <ele>192.2998</ele>
        <time>2026-05-16T11:37:37+02:00</time>
      </trkpt>
      <trkpt lat="47.5797" lon="5.76798">
        <ele>192.2998</ele>
        <time>2026-05-16T11:37:38+02:00</time>
      </trkpt>
      <trkpt lat="47.57972" lon="5.76807">
        <ele>192.2998</ele>
        <time>2026-05-16T11:37:39+02:00</time>
      </trkpt>
      <trkpt lat="47.57974" lon="5.76816">
        <ele>192.2998</ele>
        <time>2026-05-16T11:37:40+02:00</time>
      </trkpt>
      <trkpt lat="47.57976" lon="5.76824">
        <ele>192.2998</ele>
        <time>2026-05-16T11:37:41+02:00</time>
      </trkpt>
      <trkpt lat="47.57977" lon="5.76828">
        <ele>192.40039</ele>
        <time>2026-05-16T11:37:42+02:00</time>
      </trkpt>
      <trkpt lat="47.57981" lon="5.76841">
        <ele>192.40039</ele>
        <time>2026-05-16T11:37:43+02:00</time>
      </trkpt>
      <trkpt lat="47.57984" lon="5.7685">
        <ele>192.40039</ele>
        <time>2026-05-16T11:37:44+02:00</time>
      </trkpt>
      <trkpt lat="47.57986" lon="5.76859">
        <ele>192.40039</ele>
        <time>2026-05-16T11:37:45+02:00</time>
      </trkpt>
      <trkpt lat="47.57989" lon="5.76867">
        <ele>192.2998</ele>
        <time>2026-05-16T11:37:46+02:00</time>
      </trkpt>
      <trkpt lat="47.57992" lon="5.76875">
        <ele>192.2998</ele>
        <time>2026-05-16T11:37:47+02:00</time>
      </trkpt>
      <trkpt lat="47.57995" lon="5.76884">
        <ele>192.2998</ele>
        <time>2026-05-16T11:37:48+02:00</time>
      </trkpt>
      <trkpt lat="47.57997" lon="5.76892">
        <ele>192.2998</ele>
        <time>2026-05-16T11:37:49+02:00</time>
      </trkpt>
      <trkpt lat="47.58" lon="5.769">
        <ele>192.40039</ele>
        <time>2026-05-16T11:37:50+02:00</time>
      </trkpt>
      <trkpt lat="47.58003" lon="5.76908">
        <ele>192.40039</ele>
        <time>2026-05-16T11:37:51+02:00</time>
      </trkpt>
      <trkpt lat="47.58006" lon="5.76916">
        <ele>192.40039</ele>
        <time>2026-05-16T11:37:52+02:00</time>
      </trkpt>
      <trkpt lat="47.58009" lon="5.76923">
        <ele>192.40039</ele>
        <time>2026-05-16T11:37:53+02:00</time>
      </trkpt>
      <trkpt lat="47.58012" lon="5.76931">
        <ele>192.2998</ele>
        <time>2026-05-16T11:37:54+02:00</time>
      </trkpt>
      <trkpt lat="47.58015" lon="5.76939">
        <ele>192.2998</ele>
        <time>2026-05-16T11:37:55+02:00</time>
      </trkpt>
      <trkpt lat="47.58018" lon="5.76946">
        <ele>192.2998</ele>
        <time>2026-05-16T11:37:56+02:00</time>
      </trkpt>
      <trkpt lat="47.58021" lon="5.76953">
        <ele>192.2998</ele>
        <time>2026-05-16T11:37:57+02:00</time>
      </trkpt>
      <trkpt lat="47.58024" lon="5.7696">
        <ele>192.2998</ele>
        <time>2026-05-16T11:37:58+02:00</time>
      </trkpt>
      <trkpt lat="47.58027" lon="5.76968">
        <ele>192.40039</ele>
        <time>2026-05-16T11:37:59+02:00</time>
      </trkpt>
      <trkpt lat="47.5803" lon="5.76975">
        <ele>192.40039</ele>
        <time>2026-05-16T11:38:00+02:00</time>
      </trkpt>
      <trkpt lat="47.58034" lon="5.76983">
        <ele>192.40039</ele>
        <time>2026-05-16T11:38:01+02:00</time>
      </trkpt>
      <trkpt lat="47.58037" lon="5.7699">
        <ele>192.40039</ele>
        <time>2026-05-16T11:38:02+02:00</time>
      </trkpt>
      <trkpt lat="47.58041" lon="5.76998">
        <ele>192.40039</ele>
        <time>2026-05-16T11:38:03+02:00</time>
      </trkpt>
      <trkpt lat="47.58044" lon="5.77005">
        <ele>192.40039</ele>
        <time>2026-05-16T11:38:04+02:00</time>
      </trkpt>
      <trkpt lat="47.58047" lon="5.77013">
        <ele>192.40039</ele>
        <time>2026-05-16T11:38:05+02:00</time>
      </trkpt>
      <trkpt lat="47.58051" lon="5.77021">
        <ele>192.40039</ele>
        <time>2026-05-16T11:38:06+02:00</time>
      </trkpt>
      <trkpt lat="47.58054" lon="5.77029">
        <ele>192.40039</ele>
        <time>2026-05-16T11:38:07+02:00</time>
      </trkpt>
      <trkpt lat="47.58057" lon="5.77036">
        <ele>192.40039</ele>
        <time>2026-05-16T11:38:08+02:00</time>
      </trkpt>
      <trkpt lat="47.58061" lon="5.77044">
        <ele>192.40039</ele>
        <time>2026-05-16T11:38:09+02:00</time>
      </trkpt>
      <trkpt lat="47.58064" lon="5.77052">
        <ele>192.40039</ele>
        <time>2026-05-16T11:38:10+02:00</time>
      </trkpt>
      <trkpt lat="47.58067" lon="5.77061">
        <ele>192.40039</ele>
        <time>2026-05-16T11:38:11+02:00</time>
      </trkpt>
      <trkpt lat="47.5807" lon="5.77069">
        <ele>192.40039</ele>
        <time>2026-05-16T11:38:12+02:00</time>
      </trkpt>
      <trkpt lat="47.58073" lon="5.77077">
        <ele>192.40039</ele>
        <time>2026-05-16T11:38:13+02:00</time>
      </trkpt>
      <trkpt lat="47.58077" lon="5.77085">
        <ele>192.40039</ele>
        <time>2026-05-16T11:38:14+02:00</time>
      </trkpt>
      <trkpt lat="47.5808" lon="5.77093">
        <ele>192.40039</ele>
        <time>2026-05-16T11:38:15+02:00</time>
      </trkpt>
      <trkpt lat="47.58083" lon="5.77101">
        <ele>192.40039</ele>
        <time>2026-05-16T11:38:16+02:00</time>
      </trkpt>
      <trkpt lat="47.58087" lon="5.7711">
        <ele>192.40039</ele>
        <time>2026-05-16T11:38:17+02:00</time>
      </trkpt>
      <trkpt lat="47.5809" lon="5.77118">
        <ele>192.40039</ele>
        <time>2026-05-16T11:38:18+02:00</time>
      </trkpt>
      <trkpt lat="47.58093" lon="5.77127">
        <ele>192.40039</ele>
        <time>2026-05-16T11:38:19+02:00</time>
      </trkpt>
      <trkpt lat="47.58096" lon="5.77135">
        <ele>192.40039</ele>
        <time>2026-05-16T11:38:20+02:00</time>
      </trkpt>
      <trkpt lat="47.58098" lon="5.77144">
        <ele>192.2998</ele>
        <time>2026-05-16T11:38:21+02:00</time>
      </trkpt>
      <trkpt lat="47.58101" lon="5.77152">
        <ele>192.40039</ele>
        <time>2026-05-16T11:38:22+02:00</time>
      </trkpt>
      <trkpt lat="47.58104" lon="5.7716">
        <ele>192.40039</ele>
        <time>2026-05-16T11:38:23+02:00</time>
      </trkpt>
      <trkpt lat="47.58106" lon="5.77164">
        <ele>192.40039</ele>
        <time>2026-05-16T11:38:24+02:00</time>
      </trkpt>
      <trkpt lat="47.58111" lon="5.77175">
        <ele>192.40039</ele>
        <time>2026-05-16T11:38:25+02:00</time>
      </trkpt>
      <trkpt lat="47.58114" lon="5.77183">
        <ele>192.40039</ele>
        <time>2026-05-16T11:38:26+02:00</time>
      </trkpt>
      <trkpt lat="47.58118" lon="5.7719">
        <ele>192.2998</ele>
        <time>2026-05-16T11:38:27+02:00</time>
      </trkpt>
      <trkpt lat="47.58121" lon="5.77198">
        <ele>192.2002</ele>
        <time>2026-05-16T11:38:28+02:00</time>
      </trkpt>
      <trkpt lat="47.58124" lon="5.77206">
        <ele>192.2002</ele>
        <time>2026-05-16T11:38:29+02:00</time>
      </trkpt>
      <trkpt lat="47.58126" lon="5.77214">
        <ele>192.2002</ele>
        <time>2026-05-16T11:38:30+02:00</time>
      </trkpt>
      <trkpt lat="47.58127" lon="5.77218">
        <ele>192.2002</ele>
        <time>2026-05-16T11:38:31+02:00</time>
      </trkpt>
      <trkpt lat="47.58129" lon="5.77227">
        <ele>192.2002</ele>
        <time>2026-05-16T11:38:32+02:00</time>
      </trkpt>
      <trkpt lat="47.58129" lon="5.77229">
        <ele>192.2002</ele>
        <time>2026-05-16T11:38:33+02:00</time>
      </trkpt>
      <trkpt lat="47.5813" lon="5.7723">
        <ele>192.2002</ele>
        <time>2026-05-16T11:38:34+02:00</time>
      </trkpt>
      <trkpt lat="47.58131" lon="5.77229">
        <ele>192.2002</ele>
        <time>2026-05-16T11:38:35+02:00</time>
      </trkpt>
      <trkpt lat="47.58131" lon="5.77229">
        <ele>192.2002</ele>
        <time>2026-05-16T11:38:36+02:00</time>
      </trkpt>
      <trkpt lat="47.58131" lon="5.77229">
        <ele>192.2002</ele>
        <time>2026-05-16T11:38:37+02:00</time>
      </trkpt>
      <trkpt lat="47.58131" lon="5.77229">
        <ele>192.2002</ele>
        <time>2026-05-16T11:38:38+02:00</time>
      </trkpt>
      <trkpt lat="47.58125" lon="5.77212">
        <ele>192.2002</ele>
        <time>2026-05-16T11:38:47+02:00</time>
      </trkpt>
      <trkpt lat="47.58125" lon="5.77208">
        <ele>192.2002</ele>
        <time>2026-05-16T11:38:48+02:00</time>
      </trkpt>
      <trkpt lat="47.58124" lon="5.77205">
        <ele>192.2002</ele>
        <time>2026-05-16T11:38:49+02:00</time>
      </trkpt>
      <trkpt lat="47.58124" lon="5.77201">
        <ele>192.2002</ele>
        <time>2026-05-16T11:38:50+02:00</time>
      </trkpt>
      <trkpt lat="47.58123" lon="5.77198">
        <ele>192.2002</ele>
        <time>2026-05-16T11:38:51+02:00</time>
      </trkpt>
      <trkpt lat="47.58123" lon="5.77195">
        <ele>192.2002</ele>
        <time>2026-05-16T11:38:52+02:00</time>
      </trkpt>
      <trkpt lat="47.58122" lon="5.77193">
        <ele>192.2002</ele>
        <time>2026-05-16T11:38:53+02:00</time>
      </trkpt>
      <trkpt lat="47.5812" lon="5.77192">
        <ele>192.2998</ele>
        <time>2026-05-16T11:38:54+02:00</time>
      </trkpt>
      <trkpt lat="47.58119" lon="5.77193">
        <ele>192.2998</ele>
        <time>2026-05-16T11:38:55+02:00</time>
      </trkpt>
      <trkpt lat="47.58119" lon="5.77194">
        <ele>192.2998</ele>
        <time>2026-05-16T11:38:56+02:00</time>
      </trkpt>
      <trkpt lat="47.58119" lon="5.77194">
        <ele>192.2998</ele>
        <time>2026-05-16T11:38:57+02:00</time>
      </trkpt>
      <trkpt lat="47.58119" lon="5.77195">
        <ele>192.2002</ele>
        <time>2026-05-16T11:38:58+02:00</time>
      </trkpt>
      <trkpt lat="47.58119" lon="5.77195">
        <ele>192.2002</ele>
        <time>2026-05-16T11:38:59+02:00</time>
      </trkpt>
      <trkpt lat="47.58125" lon="5.77211">
        <ele>192.2002</ele>
        <time>2026-05-16T11:40:01+02:00</time>
      </trkpt>
      <trkpt lat="47.58126" lon="5.77216">
        <ele>192.2002</ele>
        <time>2026-05-16T11:40:02+02:00</time>
      </trkpt>
      <trkpt lat="47.58128" lon="5.7722">
        <ele>192.2002</ele>
        <time>2026-05-16T11:40:03+02:00</time>
      </trkpt>
      <trkpt lat="47.58129" lon="5.77225">
        <ele>192.2002</ele>
        <time>2026-05-16T11:40:04+02:00</time>
      </trkpt>
      <trkpt lat="47.5813" lon="5.77231">
        <ele>192.2002</ele>
        <time>2026-05-16T11:40:05+02:00</time>
      </trkpt>
      <trkpt lat="47.58131" lon="5.77237">
        <ele>192.2002</ele>
        <time>2026-05-16T11:40:06+02:00</time>
      </trkpt>
      <trkpt lat="47.58132" lon="5.77243">
        <ele>192.2002</ele>
        <time>2026-05-16T11:40:07+02:00</time>
      </trkpt>
      <trkpt lat="47.58133" lon="5.77249">
        <ele>192.2002</ele>
        <time>2026-05-16T11:40:08+02:00</time>
      </trkpt>
      <trkpt lat="47.58134" lon="5.77256">
        <ele>192.40039</ele>
        <time>2026-05-16T11:40:09+02:00</time>
      </trkpt>
      <trkpt lat="47.58135" lon="5.77263">
        <ele>192.40039</ele>
        <time>2026-05-16T11:40:10+02:00</time>
      </trkpt>
      <trkpt lat="47.58136" lon="5.7727">
        <ele>192.40039</ele>
        <time>2026-05-16T11:40:11+02:00</time>
      </trkpt>
      <trkpt lat="47.58137" lon="5.77277">
        <ele>192.40039</ele>
        <time>2026-05-16T11:40:12+02:00</time>
      </trkpt>
      <trkpt lat="47.58138" lon="5.77285">
        <ele>192.2998</ele>
        <time>2026-05-16T11:40:13+02:00</time>
      </trkpt>
      <trkpt lat="47.58139" lon="5.77292">
        <ele>192.60059</ele>
        <time>2026-05-16T11:40:14+02:00</time>
      </trkpt>
      <trkpt lat="47.5814" lon="5.773">
        <ele>192.60059</ele>
        <time>2026-05-16T11:40:15+02:00</time>
      </trkpt>
      <trkpt lat="47.5814" lon="5.77308">
        <ele>192.60059</ele>
        <time>2026-05-16T11:40:16+02:00</time>
      </trkpt>
      <trkpt lat="47.58141" lon="5.77316">
        <ele>192.60059</ele>
        <time>2026-05-16T11:40:17+02:00</time>
      </trkpt>
      <trkpt lat="47.58141" lon="5.77324">
        <ele>192.5</ele>
        <time>2026-05-16T11:40:18+02:00</time>
      </trkpt>
      <trkpt lat="47.58142" lon="5.77332">
        <ele>192.5</ele>
        <time>2026-05-16T11:40:19+02:00</time>
      </trkpt>
      <trkpt lat="47.58142" lon="5.7734">
        <ele>192.5</ele>
        <time>2026-05-16T11:40:20+02:00</time>
      </trkpt>
      <trkpt lat="47.58143" lon="5.77348">
        <ele>192.5</ele>
        <time>2026-05-16T11:40:21+02:00</time>
      </trkpt>
      <trkpt lat="47.58143" lon="5.77357">
        <ele>192.5</ele>
        <time>2026-05-16T11:40:22+02:00</time>
      </trkpt>
      <trkpt lat="47.58144" lon="5.77365">
        <ele>192.5</ele>
        <time>2026-05-16T11:40:23+02:00</time>
      </trkpt>
      <trkpt lat="47.58144" lon="5.77373">
        <ele>192.40039</ele>
        <time>2026-05-16T11:40:24+02:00</time>
      </trkpt>
      <trkpt lat="47.58144" lon="5.77382">
        <ele>192.40039</ele>
        <time>2026-05-16T11:40:25+02:00</time>
      </trkpt>
      <trkpt lat="47.58144" lon="5.77391">
        <ele>192.40039</ele>
        <time>2026-05-16T11:40:26+02:00</time>
      </trkpt>
      <trkpt lat="47.58143" lon="5.774">
        <ele>192.40039</ele>
        <time>2026-05-16T11:40:27+02:00</time>
      </trkpt>
      <trkpt lat="47.58142" lon="5.77408">
        <ele>192.40039</ele>
        <time>2026-05-16T11:40:28+02:00</time>
      </trkpt>
      <trkpt lat="47.58141" lon="5.77417">
        <ele>192.40039</ele>
        <time>2026-05-16T11:40:29+02:00</time>
      </trkpt>
      <trkpt lat="47.58141" lon="5.77426">
        <ele>192.2998</ele>
        <time>2026-05-16T11:40:30+02:00</time>
      </trkpt>
      <trkpt lat="47.5814" lon="5.77435">
        <ele>192.2998</ele>
        <time>2026-05-16T11:40:31+02:00</time>
      </trkpt>
      <trkpt lat="47.5814" lon="5.77444">
        <ele>192.2998</ele>
        <time>2026-05-16T11:40:32+02:00</time>
      </trkpt>
      <trkpt lat="47.58139" lon="5.77453">
        <ele>192.2998</ele>
        <time>2026-05-16T11:40:33+02:00</time>
      </trkpt>
      <trkpt lat="47.58138" lon="5.77462">
        <ele>192.10059</ele>
        <time>2026-05-16T11:40:34+02:00</time>
      </trkpt>
      <trkpt lat="47.58138" lon="5.77471">
        <ele>192.10059</ele>
        <time>2026-05-16T11:40:35+02:00</time>
      </trkpt>
      <trkpt lat="47.58137" lon="5.7748">
        <ele>192.10059</ele>
        <time>2026-05-16T11:40:36+02:00</time>
      </trkpt>
      <trkpt lat="47.58136" lon="5.77489">
        <ele>192.10059</ele>
        <time>2026-05-16T11:40:37+02:00</time>
      </trkpt>
      <trkpt lat="47.58135" lon="5.77498">
        <ele>192.2002</ele>
        <time>2026-05-16T11:40:38+02:00</time>
      </trkpt>
      <trkpt lat="47.58135" lon="5.77507">
        <ele>192.5</ele>
        <time>2026-05-16T11:40:39+02:00</time>
      </trkpt>
      <trkpt lat="47.58134" lon="5.77516">
        <ele>192.90039</ele>
        <time>2026-05-16T11:40:40+02:00</time>
      </trkpt>
      <trkpt lat="47.58133" lon="5.77525">
        <ele>192.7998</ele>
        <time>2026-05-16T11:40:41+02:00</time>
      </trkpt>
      <trkpt lat="47.58132" lon="5.77534">
        <ele>192.7998</ele>
        <time>2026-05-16T11:40:42+02:00</time>
      </trkpt>
      <trkpt lat="47.5813" lon="5.77543">
        <ele>192.7998</ele>
        <time>2026-05-16T11:40:43+02:00</time>
      </trkpt>
      <trkpt lat="47.58129" lon="5.77551">
        <ele>192.7002</ele>
        <time>2026-05-16T11:40:44+02:00</time>
      </trkpt>
      <trkpt lat="47.58127" lon="5.77558">
        <ele>192.2998</ele>
        <time>2026-05-16T11:40:45+02:00</time>
      </trkpt>
      <trkpt lat="47.58126" lon="5.77566">
        <ele>192.2998</ele>
        <time>2026-05-16T11:40:46+02:00</time>
      </trkpt>
      <trkpt lat="47.58125" lon="5.77574">
        <ele>192.2998</ele>
        <time>2026-05-16T11:40:47+02:00</time>
      </trkpt>
      <trkpt lat="47.58123" lon="5.7758">
        <ele>192.2998</ele>
        <time>2026-05-16T11:40:48+02:00</time>
      </trkpt>
      <trkpt lat="47.58122" lon="5.77587">
        <ele>192.2002</ele>
        <time>2026-05-16T11:40:49+02:00</time>
      </trkpt>
      <trkpt lat="47.5812" lon="5.77593">
        <ele>192</ele>
        <time>2026-05-16T11:40:50+02:00</time>
      </trkpt>
      <trkpt lat="47.58119" lon="5.77601">
        <ele>192.2002</ele>
        <time>2026-05-16T11:40:51+02:00</time>
      </trkpt>
      <trkpt lat="47.58117" lon="5.77609">
        <ele>192.7998</ele>
        <time>2026-05-16T11:40:52+02:00</time>
      </trkpt>
      <trkpt lat="47.58115" lon="5.77617">
        <ele>192.7998</ele>
        <time>2026-05-16T11:40:53+02:00</time>
      </trkpt>
      <trkpt lat="47.58113" lon="5.77626">
        <ele>193</ele>
        <time>2026-05-16T11:40:54+02:00</time>
      </trkpt>
      <trkpt lat="47.58111" lon="5.77634">
        <ele>193.10059</ele>
        <time>2026-05-16T11:40:55+02:00</time>
      </trkpt>
      <trkpt lat="47.58109" lon="5.77643">
        <ele>192.40039</ele>
        <time>2026-05-16T11:40:56+02:00</time>
      </trkpt>
      <trkpt lat="47.58108" lon="5.77652">
        <ele>192.40039</ele>
        <time>2026-05-16T11:40:57+02:00</time>
      </trkpt>
      <trkpt lat="47.58106" lon="5.7766">
        <ele>192.40039</ele>
        <time>2026-05-16T11:40:58+02:00</time>
      </trkpt>
      <trkpt lat="47.58104" lon="5.77669">
        <ele>192</ele>
        <time>2026-05-16T11:40:59+02:00</time>
      </trkpt>
      <trkpt lat="47.58102" lon="5.77678">
        <ele>191.90039</ele>
        <time>2026-05-16T11:41:00+02:00</time>
      </trkpt>
      <trkpt lat="47.581" lon="5.77687">
        <ele>191.90039</ele>
        <time>2026-05-16T11:41:01+02:00</time>
      </trkpt>
      <trkpt lat="47.58099" lon="5.77696">
        <ele>191.7998</ele>
        <time>2026-05-16T11:41:02+02:00</time>
      </trkpt>
      <trkpt lat="47.58098" lon="5.77704">
        <ele>192.10059</ele>
        <time>2026-05-16T11:41:03+02:00</time>
      </trkpt>
      <trkpt lat="47.58096" lon="5.77713">
        <ele>192.60059</ele>
        <time>2026-05-16T11:41:04+02:00</time>
      </trkpt>
      <trkpt lat="47.58095" lon="5.77722">
        <ele>193</ele>
        <time>2026-05-16T11:41:05+02:00</time>
      </trkpt>
      <trkpt lat="47.58093" lon="5.77731">
        <ele>193.2998</ele>
        <time>2026-05-16T11:41:06+02:00</time>
      </trkpt>
      <trkpt lat="47.58092" lon="5.77739">
        <ele>192.60059</ele>
        <time>2026-05-16T11:41:07+02:00</time>
      </trkpt>
      <trkpt lat="47.58091" lon="5.77747">
        <ele>192.60059</ele>
        <time>2026-05-16T11:41:08+02:00</time>
      </trkpt>
      <trkpt lat="47.5809" lon="5.77754">
        <ele>192.5</ele>
        <time>2026-05-16T11:41:09+02:00</time>
      </trkpt>
      <trkpt lat="47.5809" lon="5.77761">
        <ele>192.5</ele>
        <time>2026-05-16T11:41:10+02:00</time>
      </trkpt>
      <trkpt lat="47.58088" lon="5.77768">
        <ele>192.5</ele>
        <time>2026-05-16T11:41:11+02:00</time>
      </trkpt>
      <trkpt lat="47.58088" lon="5.77775">
        <ele>192.5</ele>
        <time>2026-05-16T11:41:12+02:00</time>
      </trkpt>
      <trkpt lat="47.58087" lon="5.77781">
        <ele>192.5</ele>
        <time>2026-05-16T11:41:13+02:00</time>
      </trkpt>
      <trkpt lat="47.58086" lon="5.77788">
        <ele>191.90039</ele>
        <time>2026-05-16T11:41:14+02:00</time>
      </trkpt>
      <trkpt lat="47.58085" lon="5.77794">
        <ele>191.90039</ele>
        <time>2026-05-16T11:41:15+02:00</time>
      </trkpt>
      <trkpt lat="47.58083" lon="5.77801">
        <ele>191.90039</ele>
        <time>2026-05-16T11:41:16+02:00</time>
      </trkpt>
      <trkpt lat="47.58082" lon="5.77808">
        <ele>192.5</ele>
        <time>2026-05-16T11:41:17+02:00</time>
      </trkpt>
      <trkpt lat="47.5808" lon="5.77816">
        <ele>192.7002</ele>
        <time>2026-05-16T11:41:18+02:00</time>
      </trkpt>
      <trkpt lat="47.58079" lon="5.77823">
        <ele>193.2002</ele>
        <time>2026-05-16T11:41:19+02:00</time>
      </trkpt>
      <trkpt lat="47.58078" lon="5.7783">
        <ele>193.5</ele>
        <time>2026-05-16T11:41:20+02:00</time>
      </trkpt>
      <trkpt lat="47.58077" lon="5.77838">
        <ele>193.60059</ele>
        <time>2026-05-16T11:41:21+02:00</time>
      </trkpt>
      <trkpt lat="47.58076" lon="5.77846">
        <ele>193.60059</ele>
        <time>2026-05-16T11:41:22+02:00</time>
      </trkpt>
      <trkpt lat="47.58075" lon="5.77854">
        <ele>192.7002</ele>
        <time>2026-05-16T11:41:23+02:00</time>
      </trkpt>
      <trkpt lat="47.58074" lon="5.77861">
        <ele>192.60059</ele>
        <time>2026-05-16T11:41:24+02:00</time>
      </trkpt>
      <trkpt lat="47.58073" lon="5.77869">
        <ele>192.60059</ele>
        <time>2026-05-16T11:41:25+02:00</time>
      </trkpt>
      <trkpt lat="47.58072" lon="5.77877">
        <ele>192.5</ele>
        <time>2026-05-16T11:41:26+02:00</time>
      </trkpt>
      <trkpt lat="47.58071" lon="5.77884">
        <ele>192.5</ele>
        <time>2026-05-16T11:41:27+02:00</time>
      </trkpt>
      <trkpt lat="47.5807" lon="5.77892">
        <ele>192.5</ele>
        <time>2026-05-16T11:41:28+02:00</time>
      </trkpt>
      <trkpt lat="47.58069" lon="5.779">
        <ele>192</ele>
        <time>2026-05-16T11:41:29+02:00</time>
      </trkpt>
      <trkpt lat="47.58068" lon="5.77908">
        <ele>192</ele>
        <time>2026-05-16T11:41:30+02:00</time>
      </trkpt>
      <trkpt lat="47.58067" lon="5.77916">
        <ele>191.90039</ele>
        <time>2026-05-16T11:41:31+02:00</time>
      </trkpt>
      <trkpt lat="47.58066" lon="5.77925">
        <ele>191.90039</ele>
        <time>2026-05-16T11:41:32+02:00</time>
      </trkpt>
      <trkpt lat="47.58064" lon="5.77933">
        <ele>192</ele>
        <time>2026-05-16T11:41:33+02:00</time>
      </trkpt>
      <trkpt lat="47.58063" lon="5.77942">
        <ele>192.40039</ele>
        <time>2026-05-16T11:41:34+02:00</time>
      </trkpt>
      <trkpt lat="47.58062" lon="5.77951">
        <ele>192.90039</ele>
        <time>2026-05-16T11:41:35+02:00</time>
      </trkpt>
      <trkpt lat="47.58061" lon="5.77959">
        <ele>193.40039</ele>
        <time>2026-05-16T11:41:36+02:00</time>
      </trkpt>
      <trkpt lat="47.58059" lon="5.77968">
        <ele>193.60059</ele>
        <time>2026-05-16T11:41:37+02:00</time>
      </trkpt>
      <trkpt lat="47.58057" lon="5.77977">
        <ele>192.7002</ele>
        <time>2026-05-16T11:41:38+02:00</time>
      </trkpt>
      <trkpt lat="47.58055" lon="5.77985">
        <ele>192.60059</ele>
        <time>2026-05-16T11:41:39+02:00</time>
      </trkpt>
      <trkpt lat="47.58053" lon="5.77994">
        <ele>192.60059</ele>
        <time>2026-05-16T11:41:40+02:00</time>
      </trkpt>
      <trkpt lat="47.58051" lon="5.78003">
        <ele>192.40039</ele>
        <time>2026-05-16T11:41:41+02:00</time>
      </trkpt>
      <trkpt lat="47.58049" lon="5.78012">
        <ele>193.5</ele>
        <time>2026-05-16T11:41:42+02:00</time>
      </trkpt>
      <trkpt lat="47.58047" lon="5.78021">
        <ele>194.7998</ele>
        <time>2026-05-16T11:41:43+02:00</time>
      </trkpt>
      <trkpt lat="47.58045" lon="5.78029">
        <ele>194.7998</ele>
        <time>2026-05-16T11:41:44+02:00</time>
      </trkpt>
      <trkpt lat="47.58042" lon="5.78038">
        <ele>195.60059</ele>
        <time>2026-05-16T11:41:45+02:00</time>
      </trkpt>
      <trkpt lat="47.5804" lon="5.78047">
        <ele>195.90039</ele>
        <time>2026-05-16T11:41:46+02:00</time>
      </trkpt>
      <trkpt lat="47.58038" lon="5.78055">
        <ele>197.7998</ele>
        <time>2026-05-16T11:41:47+02:00</time>
      </trkpt>
      <trkpt lat="47.58036" lon="5.78064">
        <ele>199.2002</ele>
        <time>2026-05-16T11:41:48+02:00</time>
      </trkpt>
      <trkpt lat="47.58034" lon="5.78073">
        <ele>199.40039</ele>
        <time>2026-05-16T11:41:49+02:00</time>
      </trkpt>
      <trkpt lat="47.58032" lon="5.78081">
        <ele>199.40039</ele>
        <time>2026-05-16T11:41:50+02:00</time>
      </trkpt>
      <trkpt lat="47.58031" lon="5.78086">
        <ele>199.40039</ele>
        <time>2026-05-16T11:41:51+02:00</time>
      </trkpt>
      <trkpt lat="47.58029" lon="5.78099">
        <ele>199</ele>
        <time>2026-05-16T11:41:52+02:00</time>
      </trkpt>
      <trkpt lat="47.58028" lon="5.78108">
        <ele>199</ele>
        <time>2026-05-16T11:41:53+02:00</time>
      </trkpt>
      <trkpt lat="47.58027" lon="5.78117">
        <ele>199.40039</ele>
        <time>2026-05-16T11:41:54+02:00</time>
      </trkpt>
      <trkpt lat="47.58026" lon="5.78126">
        <ele>199.7002</ele>
        <time>2026-05-16T11:41:55+02:00</time>
      </trkpt>
      <trkpt lat="47.58025" lon="5.78135">
        <ele>199.90039</ele>
        <time>2026-05-16T11:41:56+02:00</time>
      </trkpt>
      <trkpt lat="47.58024" lon="5.78144">
        <ele>199.90039</ele>
        <time>2026-05-16T11:41:57+02:00</time>
      </trkpt>
      <trkpt lat="47.58024" lon="5.78154">
        <ele>199.90039</ele>
        <time>2026-05-16T11:41:58+02:00</time>
      </trkpt>
      <trkpt lat="47.58022" lon="5.78163">
        <ele>199.2998</ele>
        <time>2026-05-16T11:41:59+02:00</time>
      </trkpt>
      <trkpt lat="47.58021" lon="5.78172">
        <ele>199.2998</ele>
        <time>2026-05-16T11:42:00+02:00</time>
      </trkpt>
      <trkpt lat="47.5802" lon="5.78181">
        <ele>199.2002</ele>
        <time>2026-05-16T11:42:01+02:00</time>
      </trkpt>
      <trkpt lat="47.58019" lon="5.7819">
        <ele>199.2002</ele>
        <time>2026-05-16T11:42:02+02:00</time>
      </trkpt>
      <trkpt lat="47.58019" lon="5.782">
        <ele>199.2002</ele>
        <time>2026-05-16T11:42:03+02:00</time>
      </trkpt>
      <trkpt lat="47.58017" lon="5.78209">
        <ele>198.90039</ele>
        <time>2026-05-16T11:42:04+02:00</time>
      </trkpt>
      <trkpt lat="47.58016" lon="5.78218">
        <ele>199.2002</ele>
        <time>2026-05-16T11:42:05+02:00</time>
      </trkpt>
      <trkpt lat="47.58015" lon="5.78227">
        <ele>199.5</ele>
        <time>2026-05-16T11:42:06+02:00</time>
      </trkpt>
      <trkpt lat="47.58014" lon="5.78237">
        <ele>199.60059</ele>
        <time>2026-05-16T11:42:07+02:00</time>
      </trkpt>
      <trkpt lat="47.58014" lon="5.78241">
        <ele>199.60059</ele>
        <time>2026-05-16T11:42:08+02:00</time>
      </trkpt>
      <trkpt lat="47.58013" lon="5.78255">
        <ele>199.60059</ele>
        <time>2026-05-16T11:42:09+02:00</time>
      </trkpt>
      <trkpt lat="47.58011" lon="5.78264">
        <ele>199</ele>
        <time>2026-05-16T11:42:10+02:00</time>
      </trkpt>
      <trkpt lat="47.5801" lon="5.78273">
        <ele>199</ele>
        <time>2026-05-16T11:42:11+02:00</time>
      </trkpt>
      <trkpt lat="47.58009" lon="5.78283">
        <ele>199</ele>
        <time>2026-05-16T11:42:12+02:00</time>
      </trkpt>
      <trkpt lat="47.58008" lon="5.78292">
        <ele>198.90039</ele>
        <time>2026-05-16T11:42:13+02:00</time>
      </trkpt>
      <trkpt lat="47.58007" lon="5.78301">
        <ele>198.90039</ele>
        <time>2026-05-16T11:42:14+02:00</time>
      </trkpt>
      <trkpt lat="47.58006" lon="5.7831">
        <ele>198.90039</ele>
        <time>2026-05-16T11:42:15+02:00</time>
      </trkpt>
      <trkpt lat="47.58005" lon="5.7832">
        <ele>198.5</ele>
        <time>2026-05-16T11:42:16+02:00</time>
      </trkpt>
      <trkpt lat="47.58004" lon="5.78329">
        <ele>198.5</ele>
        <time>2026-05-16T11:42:17+02:00</time>
      </trkpt>
      <trkpt lat="47.58003" lon="5.78338">
        <ele>198.5</ele>
        <time>2026-05-16T11:42:18+02:00</time>
      </trkpt>
      <trkpt lat="47.58002" lon="5.78347">
        <ele>198.7002</ele>
        <time>2026-05-16T11:42:19+02:00</time>
      </trkpt>
      <trkpt lat="47.58001" lon="5.78357">
        <ele>198.90039</ele>
        <time>2026-05-16T11:42:20+02:00</time>
      </trkpt>
      <trkpt lat="47.58" lon="5.78366">
        <ele>199.10059</ele>
        <time>2026-05-16T11:42:21+02:00</time>
      </trkpt>
      <trkpt lat="47.57998" lon="5.78375">
        <ele>198.90039</ele>
        <time>2026-05-16T11:42:22+02:00</time>
      </trkpt>
      <trkpt lat="47.57997" lon="5.78384">
        <ele>198.90039</ele>
        <time>2026-05-16T11:42:23+02:00</time>
      </trkpt>
      <trkpt lat="47.57996" lon="5.78393">
        <ele>198.90039</ele>
        <time>2026-05-16T11:42:24+02:00</time>
      </trkpt>
      <trkpt lat="47.57995" lon="5.78403">
        <ele>198.90039</ele>
        <time>2026-05-16T11:42:25+02:00</time>
      </trkpt>
      <trkpt lat="47.57995" lon="5.78412">
        <ele>198.90039</ele>
        <time>2026-05-16T11:42:26+02:00</time>
      </trkpt>
      <trkpt lat="47.57993" lon="5.78421">
        <ele>198.60059</ele>
        <time>2026-05-16T11:42:27+02:00</time>
      </trkpt>
      <trkpt lat="47.57992" lon="5.7843">
        <ele>198.60059</ele>
        <time>2026-05-16T11:42:28+02:00</time>
      </trkpt>
      <trkpt lat="47.57992" lon="5.7844">
        <ele>198.60059</ele>
        <time>2026-05-16T11:42:29+02:00</time>
      </trkpt>
      <trkpt lat="47.5799" lon="5.78449">
        <ele>198.60059</ele>
        <time>2026-05-16T11:42:30+02:00</time>
      </trkpt>
      <trkpt lat="47.5799" lon="5.78458">
        <ele>198.60059</ele>
        <time>2026-05-16T11:42:31+02:00</time>
      </trkpt>
      <trkpt lat="47.57989" lon="5.78467">
        <ele>198.60059</ele>
        <time>2026-05-16T11:42:32+02:00</time>
      </trkpt>
      <trkpt lat="47.57988" lon="5.78476">
        <ele>198.40039</ele>
        <time>2026-05-16T11:42:33+02:00</time>
      </trkpt>
      <trkpt lat="47.57987" lon="5.78485">
        <ele>198.40039</ele>
        <time>2026-05-16T11:42:34+02:00</time>
      </trkpt>
      <trkpt lat="47.57986" lon="5.78493">
        <ele>198.5</ele>
        <time>2026-05-16T11:42:35+02:00</time>
      </trkpt>
      <trkpt lat="47.57985" lon="5.78501">
        <ele>198.5</ele>
        <time>2026-05-16T11:42:36+02:00</time>
      </trkpt>
      <trkpt lat="47.57984" lon="5.78509">
        <ele>198.5</ele>
        <time>2026-05-16T11:42:37+02:00</time>
      </trkpt>
      <trkpt lat="47.57984" lon="5.78517">
        <ele>198.7002</ele>
        <time>2026-05-16T11:42:38+02:00</time>
      </trkpt>
      <trkpt lat="47.57982" lon="5.78525">
        <ele>198.60059</ele>
        <time>2026-05-16T11:42:39+02:00</time>
      </trkpt>
      <trkpt lat="47.57981" lon="5.78532">
        <ele>198.60059</ele>
        <time>2026-05-16T11:42:40+02:00</time>
      </trkpt>
      <trkpt lat="47.5798" lon="5.7854">
        <ele>198.7002</ele>
        <time>2026-05-16T11:42:41+02:00</time>
      </trkpt>
      <trkpt lat="47.57979" lon="5.78548">
        <ele>198.7998</ele>
        <time>2026-05-16T11:42:42+02:00</time>
      </trkpt>
      <trkpt lat="47.57977" lon="5.78555">
        <ele>198.7998</ele>
        <time>2026-05-16T11:42:43+02:00</time>
      </trkpt>
      <trkpt lat="47.57975" lon="5.78563">
        <ele>198.60059</ele>
        <time>2026-05-16T11:42:44+02:00</time>
      </trkpt>
      <trkpt lat="47.57972" lon="5.7857">
        <ele>198.5</ele>
        <time>2026-05-16T11:42:45+02:00</time>
      </trkpt>
      <trkpt lat="47.57969" lon="5.78577">
        <ele>198.40039</ele>
        <time>2026-05-16T11:42:46+02:00</time>
      </trkpt>
      <trkpt lat="47.57966" lon="5.78585">
        <ele>198.40039</ele>
        <time>2026-05-16T11:42:47+02:00</time>
      </trkpt>
      <trkpt lat="47.57966" lon="5.78593">
        <ele>198.40039</ele>
        <time>2026-05-16T11:42:48+02:00</time>
      </trkpt>
      <trkpt lat="47.57966" lon="5.78601">
        <ele>198.40039</ele>
        <time>2026-05-16T11:42:49+02:00</time>
      </trkpt>
      <trkpt lat="47.57967" lon="5.78609">
        <ele>198.40039</ele>
        <time>2026-05-16T11:42:50+02:00</time>
      </trkpt>
      <trkpt lat="47.57968" lon="5.78618">
        <ele>198.2998</ele>
        <time>2026-05-16T11:42:51+02:00</time>
      </trkpt>
      <trkpt lat="47.57968" lon="5.78626">
        <ele>198.2998</ele>
        <time>2026-05-16T11:42:52+02:00</time>
      </trkpt>
      <trkpt lat="47.57969" lon="5.78634">
        <ele>198.2998</ele>
        <time>2026-05-16T11:42:53+02:00</time>
      </trkpt>
      <trkpt lat="47.57969" lon="5.78642">
        <ele>198.2002</ele>
        <time>2026-05-16T11:42:54+02:00</time>
      </trkpt>
      <trkpt lat="47.57968" lon="5.7865">
        <ele>198.2998</ele>
        <time>2026-05-16T11:42:55+02:00</time>
      </trkpt>
      <trkpt lat="47.57967" lon="5.78658">
        <ele>198.2998</ele>
        <time>2026-05-16T11:42:56+02:00</time>
      </trkpt>
      <trkpt lat="47.57966" lon="5.78666">
        <ele>198.2998</ele>
        <time>2026-05-16T11:42:57+02:00</time>
      </trkpt>
      <trkpt lat="47.57965" lon="5.78675">
        <ele>198.2002</ele>
        <time>2026-05-16T11:42:58+02:00</time>
      </trkpt>
      <trkpt lat="47.57964" lon="5.78683">
        <ele>198.2998</ele>
        <time>2026-05-16T11:42:59+02:00</time>
      </trkpt>
      <trkpt lat="47.57963" lon="5.78692">
        <ele>198.2998</ele>
        <time>2026-05-16T11:43:00+02:00</time>
      </trkpt>
      <trkpt lat="47.57963" lon="5.78701">
        <ele>198.2998</ele>
        <time>2026-05-16T11:43:01+02:00</time>
      </trkpt>
      <trkpt lat="47.57962" lon="5.7871">
        <ele>198.2998</ele>
        <time>2026-05-16T11:43:02+02:00</time>
      </trkpt>
      <trkpt lat="47.57961" lon="5.78718">
        <ele>198.2998</ele>
        <time>2026-05-16T11:43:03+02:00</time>
      </trkpt>
      <trkpt lat="47.5796" lon="5.78727">
        <ele>198.2002</ele>
        <time>2026-05-16T11:43:04+02:00</time>
      </trkpt>
      <trkpt lat="47.57959" lon="5.78736">
        <ele>198.2002</ele>
        <time>2026-05-16T11:43:05+02:00</time>
      </trkpt>
      <trkpt lat="47.57958" lon="5.78745">
        <ele>198.2002</ele>
        <time>2026-05-16T11:43:06+02:00</time>
      </trkpt>
      <trkpt lat="47.57957" lon="5.78749">
        <ele>198.2002</ele>
        <time>2026-05-16T11:43:07+02:00</time>
      </trkpt>
      <trkpt lat="47.57956" lon="5.78762">
        <ele>198.2002</ele>
        <time>2026-05-16T11:43:08+02:00</time>
      </trkpt>
      <trkpt lat="47.57955" lon="5.78771">
        <ele>198.2002</ele>
        <time>2026-05-16T11:43:09+02:00</time>
      </trkpt>
      <trkpt lat="47.57954" lon="5.7878">
        <ele>198.2002</ele>
        <time>2026-05-16T11:43:10+02:00</time>
      </trkpt>
      <trkpt lat="47.57953" lon="5.78789">
        <ele>198.2002</ele>
        <time>2026-05-16T11:43:11+02:00</time>
      </trkpt>
      <trkpt lat="47.57952" lon="5.78797">
        <ele>198.2002</ele>
        <time>2026-05-16T11:43:12+02:00</time>
      </trkpt>
      <trkpt lat="47.57951" lon="5.78806">
        <ele>198.2002</ele>
        <time>2026-05-16T11:43:13+02:00</time>
      </trkpt>
      <trkpt lat="47.5795" lon="5.78815">
        <ele>198.2002</ele>
        <time>2026-05-16T11:43:14+02:00</time>
      </trkpt>
      <trkpt lat="47.57948" lon="5.78824">
        <ele>198.2002</ele>
        <time>2026-05-16T11:43:15+02:00</time>
      </trkpt>
      <trkpt lat="47.57948" lon="5.78833">
        <ele>198.2002</ele>
        <time>2026-05-16T11:43:16+02:00</time>
      </trkpt>
      <trkpt lat="47.57947" lon="5.78842">
        <ele>198.2998</ele>
        <time>2026-05-16T11:43:17+02:00</time>
      </trkpt>
      <trkpt lat="47.57946" lon="5.78847">
        <ele>198.2998</ele>
        <time>2026-05-16T11:43:18+02:00</time>
      </trkpt>
      <trkpt lat="47.57945" lon="5.7886">
        <ele>198.2998</ele>
        <time>2026-05-16T11:43:19+02:00</time>
      </trkpt>
      <trkpt lat="47.57944" lon="5.78869">
        <ele>198.2998</ele>
        <time>2026-05-16T11:43:20+02:00</time>
      </trkpt>
      <trkpt lat="47.57943" lon="5.78878">
        <ele>198.2998</ele>
        <time>2026-05-16T11:43:21+02:00</time>
      </trkpt>
      <trkpt lat="47.57942" lon="5.78887">
        <ele>198.2002</ele>
        <time>2026-05-16T11:43:22+02:00</time>
      </trkpt>
      <trkpt lat="47.57941" lon="5.78896">
        <ele>198.2002</ele>
        <time>2026-05-16T11:43:23+02:00</time>
      </trkpt>
      <trkpt lat="47.5794" lon="5.78905">
        <ele>198.2002</ele>
        <time>2026-05-16T11:43:24+02:00</time>
      </trkpt>
      <trkpt lat="47.57939" lon="5.78914">
        <ele>198.2002</ele>
        <time>2026-05-16T11:43:25+02:00</time>
      </trkpt>
      <trkpt lat="47.57938" lon="5.78923">
        <ele>198.2002</ele>
        <time>2026-05-16T11:43:26+02:00</time>
      </trkpt>
      <trkpt lat="47.57937" lon="5.78932">
        <ele>198.2002</ele>
        <time>2026-05-16T11:43:27+02:00</time>
      </trkpt>
      <trkpt lat="47.57936" lon="5.78941">
        <ele>198.2002</ele>
        <time>2026-05-16T11:43:28+02:00</time>
      </trkpt>
      <trkpt lat="47.57935" lon="5.7895">
        <ele>198.2002</ele>
        <time>2026-05-16T11:43:29+02:00</time>
      </trkpt>
      <trkpt lat="47.57934" lon="5.78959">
        <ele>198.2002</ele>
        <time>2026-05-16T11:43:30+02:00</time>
      </trkpt>
      <trkpt lat="47.57934" lon="5.78968">
        <ele>198.2002</ele>
        <time>2026-05-16T11:43:31+02:00</time>
      </trkpt>
      <trkpt lat="47.57932" lon="5.78977">
        <ele>198.2002</ele>
        <time>2026-05-16T11:43:32+02:00</time>
      </trkpt>
      <trkpt lat="47.57932" lon="5.78986">
        <ele>198.2998</ele>
        <time>2026-05-16T11:43:33+02:00</time>
      </trkpt>
      <trkpt lat="47.57931" lon="5.78995">
        <ele>198.40039</ele>
        <time>2026-05-16T11:43:34+02:00</time>
      </trkpt>
      <trkpt lat="47.5793" lon="5.78999">
        <ele>198.5</ele>
        <time>2026-05-16T11:43:35+02:00</time>
      </trkpt>
      <trkpt lat="47.57929" lon="5.79013">
        <ele>198.5</ele>
        <time>2026-05-16T11:43:36+02:00</time>
      </trkpt>
      <trkpt lat="47.57927" lon="5.79022">
        <ele>198.5</ele>
        <time>2026-05-16T11:43:37+02:00</time>
      </trkpt>
      <trkpt lat="47.57927" lon="5.79031">
        <ele>198.40039</ele>
        <time>2026-05-16T11:43:38+02:00</time>
      </trkpt>
      <trkpt lat="47.57926" lon="5.7904">
        <ele>198.40039</ele>
        <time>2026-05-16T11:43:39+02:00</time>
      </trkpt>
      <trkpt lat="47.57924" lon="5.79049">
        <ele>198.2998</ele>
        <time>2026-05-16T11:43:40+02:00</time>
      </trkpt>
      <trkpt lat="47.57923" lon="5.79058">
        <ele>198.2998</ele>
        <time>2026-05-16T11:43:41+02:00</time>
      </trkpt>
      <trkpt lat="47.57922" lon="5.79067">
        <ele>198.2998</ele>
        <time>2026-05-16T11:43:42+02:00</time>
      </trkpt>
      <trkpt lat="47.57921" lon="5.79076">
        <ele>198.2998</ele>
        <time>2026-05-16T11:43:43+02:00</time>
      </trkpt>
      <trkpt lat="47.5792" lon="5.79085">
        <ele>198.2998</ele>
        <time>2026-05-16T11:43:44+02:00</time>
      </trkpt>
      <trkpt lat="47.57919" lon="5.79095">
        <ele>198.2998</ele>
        <time>2026-05-16T11:43:45+02:00</time>
      </trkpt>
      <trkpt lat="47.57918" lon="5.79104">
        <ele>198.2002</ele>
        <time>2026-05-16T11:43:46+02:00</time>
      </trkpt>
      <trkpt lat="47.57917" lon="5.79113">
        <ele>198.2002</ele>
        <time>2026-05-16T11:43:47+02:00</time>
      </trkpt>
      <trkpt lat="47.57916" lon="5.79123">
        <ele>198.2002</ele>
        <time>2026-05-16T11:43:48+02:00</time>
      </trkpt>
      <trkpt lat="47.57915" lon="5.79133">
        <ele>198.2002</ele>
        <time>2026-05-16T11:43:49+02:00</time>
      </trkpt>
      <trkpt lat="47.57914" lon="5.79142">
        <ele>198.2002</ele>
        <time>2026-05-16T11:43:50+02:00</time>
      </trkpt>
      <trkpt lat="47.57913" lon="5.79152">
        <ele>198.2998</ele>
        <time>2026-05-16T11:43:51+02:00</time>
      </trkpt>
      <trkpt lat="47.57913" lon="5.79162">
        <ele>198.2002</ele>
        <time>2026-05-16T11:43:52+02:00</time>
      </trkpt>
      <trkpt lat="47.57911" lon="5.79171">
        <ele>198.2002</ele>
        <time>2026-05-16T11:43:53+02:00</time>
      </trkpt>
      <trkpt lat="47.57911" lon="5.7918">
        <ele>198.10059</ele>
        <time>2026-05-16T11:43:54+02:00</time>
      </trkpt>
      <trkpt lat="47.5791" lon="5.7919">
        <ele>198.10059</ele>
        <time>2026-05-16T11:43:55+02:00</time>
      </trkpt>
      <trkpt lat="47.57909" lon="5.79199">
        <ele>198.10059</ele>
        <time>2026-05-16T11:43:56+02:00</time>
      </trkpt>
      <trkpt lat="47.57908" lon="5.79209">
        <ele>198</ele>
        <time>2026-05-16T11:43:57+02:00</time>
      </trkpt>
      <trkpt lat="47.57907" lon="5.79218">
        <ele>198</ele>
        <time>2026-05-16T11:43:58+02:00</time>
      </trkpt>
      <trkpt lat="47.57906" lon="5.79228">
        <ele>198</ele>
        <time>2026-05-16T11:43:59+02:00</time>
      </trkpt>
      <trkpt lat="47.57905" lon="5.79238">
        <ele>197.90039</ele>
        <time>2026-05-16T11:44:00+02:00</time>
      </trkpt>
      <trkpt lat="47.57904" lon="5.79247">
        <ele>197.90039</ele>
        <time>2026-05-16T11:44:01+02:00</time>
      </trkpt>
      <trkpt lat="47.57903" lon="5.79257">
        <ele>198</ele>
        <time>2026-05-16T11:44:02+02:00</time>
      </trkpt>
      <trkpt lat="47.57902" lon="5.79267">
        <ele>198.10059</ele>
        <time>2026-05-16T11:44:03+02:00</time>
      </trkpt>
      <trkpt lat="47.57901" lon="5.79277">
        <ele>198.2002</ele>
        <time>2026-05-16T11:44:04+02:00</time>
      </trkpt>
      <trkpt lat="47.57901" lon="5.79281">
        <ele>198.2002</ele>
        <time>2026-05-16T11:44:05+02:00</time>
      </trkpt>
      <trkpt lat="47.57899" lon="5.79296">
        <ele>198.2002</ele>
        <time>2026-05-16T11:44:06+02:00</time>
      </trkpt>
      <trkpt lat="47.57898" lon="5.79305">
        <ele>198.2002</ele>
        <time>2026-05-16T11:44:07+02:00</time>
      </trkpt>
      <trkpt lat="47.57897" lon="5.79314">
        <ele>198.2002</ele>
        <time>2026-05-16T11:44:08+02:00</time>
      </trkpt>
      <trkpt lat="47.57897" lon="5.79323">
        <ele>198.2998</ele>
        <time>2026-05-16T11:44:09+02:00</time>
      </trkpt>
      <trkpt lat="47.57896" lon="5.79333">
        <ele>198.40039</ele>
        <time>2026-05-16T11:44:10+02:00</time>
      </trkpt>
      <trkpt lat="47.57895" lon="5.79342">
        <ele>198.2998</ele>
        <time>2026-05-16T11:44:11+02:00</time>
      </trkpt>
      <trkpt lat="47.57894" lon="5.79352">
        <ele>198.2998</ele>
        <time>2026-05-16T11:44:12+02:00</time>
      </trkpt>
      <trkpt lat="47.57893" lon="5.79361">
        <ele>198.2998</ele>
        <time>2026-05-16T11:44:13+02:00</time>
      </trkpt>
      <trkpt lat="47.57892" lon="5.79371">
        <ele>198.2998</ele>
        <time>2026-05-16T11:44:14+02:00</time>
      </trkpt>
      <trkpt lat="47.57891" lon="5.7938">
        <ele>198.2998</ele>
        <time>2026-05-16T11:44:15+02:00</time>
      </trkpt>
      <trkpt lat="47.5789" lon="5.7939">
        <ele>198.2002</ele>
        <time>2026-05-16T11:44:16+02:00</time>
      </trkpt>
      <trkpt lat="47.57889" lon="5.79399">
        <ele>198.2002</ele>
        <time>2026-05-16T11:44:17+02:00</time>
      </trkpt>
      <trkpt lat="47.57887" lon="5.79408">
        <ele>198.2002</ele>
        <time>2026-05-16T11:44:18+02:00</time>
      </trkpt>
      <trkpt lat="47.57886" lon="5.79418">
        <ele>198.2002</ele>
        <time>2026-05-16T11:44:19+02:00</time>
      </trkpt>
      <trkpt lat="47.57885" lon="5.79427">
        <ele>198.2002</ele>
        <time>2026-05-16T11:44:20+02:00</time>
      </trkpt>
      <trkpt lat="47.57884" lon="5.79437">
        <ele>198.2002</ele>
        <time>2026-05-16T11:44:21+02:00</time>
      </trkpt>
      <trkpt lat="47.57883" lon="5.79446">
        <ele>198.2002</ele>
        <time>2026-05-16T11:44:22+02:00</time>
      </trkpt>
      <trkpt lat="47.57882" lon="5.79456">
        <ele>198.2002</ele>
        <time>2026-05-16T11:44:23+02:00</time>
      </trkpt>
      <trkpt lat="47.57881" lon="5.79466">
        <ele>198.2002</ele>
        <time>2026-05-16T11:44:24+02:00</time>
      </trkpt>
      <trkpt lat="47.5788" lon="5.79475">
        <ele>198.2002</ele>
        <time>2026-05-16T11:44:25+02:00</time>
      </trkpt>
      <trkpt lat="47.57879" lon="5.79485">
        <ele>198.2002</ele>
        <time>2026-05-16T11:44:26+02:00</time>
      </trkpt>
      <trkpt lat="47.57878" lon="5.79495">
        <ele>198.40039</ele>
        <time>2026-05-16T11:44:27+02:00</time>
      </trkpt>
      <trkpt lat="47.57877" lon="5.795">
        <ele>198.40039</ele>
        <time>2026-05-16T11:44:28+02:00</time>
      </trkpt>
      <trkpt lat="47.57876" lon="5.79514">
        <ele>198.2998</ele>
        <time>2026-05-16T11:44:29+02:00</time>
      </trkpt>
      <trkpt lat="47.57875" lon="5.79523">
        <ele>198.2998</ele>
        <time>2026-05-16T11:44:30+02:00</time>
      </trkpt>
      <trkpt lat="47.57874" lon="5.79532">
        <ele>198.2998</ele>
        <time>2026-05-16T11:44:31+02:00</time>
      </trkpt>
      <trkpt lat="47.57873" lon="5.79542">
        <ele>198.2998</ele>
        <time>2026-05-16T11:44:32+02:00</time>
      </trkpt>
      <trkpt lat="47.57872" lon="5.79551">
        <ele>198.2002</ele>
        <time>2026-05-16T11:44:33+02:00</time>
      </trkpt>
      <trkpt lat="47.57871" lon="5.79561">
        <ele>198.2002</ele>
        <time>2026-05-16T11:44:34+02:00</time>
      </trkpt>
      <trkpt lat="47.5787" lon="5.7957">
        <ele>198.2002</ele>
        <time>2026-05-16T11:44:35+02:00</time>
      </trkpt>
      <trkpt lat="47.57869" lon="5.7958">
        <ele>198.2002</ele>
        <time>2026-05-16T11:44:36+02:00</time>
      </trkpt>
      <trkpt lat="47.57868" lon="5.79589">
        <ele>198.2002</ele>
        <time>2026-05-16T11:44:37+02:00</time>
      </trkpt>
      <trkpt lat="47.57867" lon="5.79599">
        <ele>198.2002</ele>
        <time>2026-05-16T11:44:38+02:00</time>
      </trkpt>
      <trkpt lat="47.57866" lon="5.79608">
        <ele>198.2002</ele>
        <time>2026-05-16T11:44:39+02:00</time>
      </trkpt>
      <trkpt lat="47.57865" lon="5.79618">
        <ele>198.2002</ele>
        <time>2026-05-16T11:44:40+02:00</time>
      </trkpt>
      <trkpt lat="47.57864" lon="5.79627">
        <ele>198.2002</ele>
        <time>2026-05-16T11:44:41+02:00</time>
      </trkpt>
      <trkpt lat="47.57863" lon="5.79637">
        <ele>198.2002</ele>
        <time>2026-05-16T11:44:42+02:00</time>
      </trkpt>
      <trkpt lat="47.57862" lon="5.79646">
        <ele>198.10059</ele>
        <time>2026-05-16T11:44:43+02:00</time>
      </trkpt>
      <trkpt lat="47.57861" lon="5.79656">
        <ele>198.10059</ele>
        <time>2026-05-16T11:44:44+02:00</time>
      </trkpt>
      <trkpt lat="47.5786" lon="5.79665">
        <ele>198.2002</ele>
        <time>2026-05-16T11:44:45+02:00</time>
      </trkpt>
      <trkpt lat="47.5786" lon="5.79675">
        <ele>198.2998</ele>
        <time>2026-05-16T11:44:46+02:00</time>
      </trkpt>
      <trkpt lat="47.57858" lon="5.79685">
        <ele>198.2998</ele>
        <time>2026-05-16T11:44:47+02:00</time>
      </trkpt>
      <trkpt lat="47.57858" lon="5.79694">
        <ele>198.2998</ele>
        <time>2026-05-16T11:44:48+02:00</time>
      </trkpt>
      <trkpt lat="47.57857" lon="5.79699">
        <ele>198.2998</ele>
        <time>2026-05-16T11:44:49+02:00</time>
      </trkpt>
      <trkpt lat="47.57856" lon="5.79713">
        <ele>198.2002</ele>
        <time>2026-05-16T11:44:50+02:00</time>
      </trkpt>
      <trkpt lat="47.57855" lon="5.79723">
        <ele>198.2002</ele>
        <time>2026-05-16T11:44:51+02:00</time>
      </trkpt>
      <trkpt lat="47.57853" lon="5.79732">
        <ele>198.2002</ele>
        <time>2026-05-16T11:44:52+02:00</time>
      </trkpt>
      <trkpt lat="47.57853" lon="5.79742">
        <ele>198.2002</ele>
        <time>2026-05-16T11:44:53+02:00</time>
      </trkpt>
      <trkpt lat="47.57852" lon="5.79751">
        <ele>198.2002</ele>
        <time>2026-05-16T11:44:54+02:00</time>
      </trkpt>
      <trkpt lat="47.5785" lon="5.79761">
        <ele>198.2002</ele>
        <time>2026-05-16T11:44:55+02:00</time>
      </trkpt>
      <trkpt lat="47.5785" lon="5.79766">
        <ele>198.2002</ele>
        <time>2026-05-16T11:44:56+02:00</time>
      </trkpt>
      <trkpt lat="47.57848" lon="5.7978">
        <ele>198.2002</ele>
        <time>2026-05-16T11:44:57+02:00</time>
      </trkpt>
      <trkpt lat="47.57847" lon="5.7979">
        <ele>198.2002</ele>
        <time>2026-05-16T11:44:58+02:00</time>
      </trkpt>
      <trkpt lat="47.57847" lon="5.79799">
        <ele>198.2002</ele>
        <time>2026-05-16T11:44:59+02:00</time>
      </trkpt>
      <trkpt lat="47.57845" lon="5.79809">
        <ele>198.2002</ele>
        <time>2026-05-16T11:45:00+02:00</time>
      </trkpt>
      <trkpt lat="47.57845" lon="5.79819">
        <ele>198.2002</ele>
        <time>2026-05-16T11:45:01+02:00</time>
      </trkpt>
      <trkpt lat="47.57844" lon="5.79829">
        <ele>198.2998</ele>
        <time>2026-05-16T11:45:02+02:00</time>
      </trkpt>
      <trkpt lat="47.57843" lon="5.79838">
        <ele>198.40039</ele>
        <time>2026-05-16T11:45:03+02:00</time>
      </trkpt>
      <trkpt lat="47.57842" lon="5.79848">
        <ele>198.2998</ele>
        <time>2026-05-16T11:45:04+02:00</time>
      </trkpt>
      <trkpt lat="47.57841" lon="5.79858">
        <ele>198.2998</ele>
        <time>2026-05-16T11:45:05+02:00</time>
      </trkpt>
      <trkpt lat="47.5784" lon="5.79867">
        <ele>198.2998</ele>
        <time>2026-05-16T11:45:06+02:00</time>
      </trkpt>
      <trkpt lat="47.57839" lon="5.79877">
        <ele>198.2002</ele>
        <time>2026-05-16T11:45:07+02:00</time>
      </trkpt>
      <trkpt lat="47.57838" lon="5.79887">
        <ele>198.2002</ele>
        <time>2026-05-16T11:45:08+02:00</time>
      </trkpt>
      <trkpt lat="47.57837" lon="5.79896">
        <ele>198.10059</ele>
        <time>2026-05-16T11:45:09+02:00</time>
      </trkpt>
      <trkpt lat="47.57836" lon="5.79905">
        <ele>198.10059</ele>
        <time>2026-05-16T11:45:10+02:00</time>
      </trkpt>
      <trkpt lat="47.57835" lon="5.79914">
        <ele>198.2002</ele>
        <time>2026-05-16T11:45:11+02:00</time>
      </trkpt>
      <trkpt lat="47.57834" lon="5.79923">
        <ele>198.2002</ele>
        <time>2026-05-16T11:45:12+02:00</time>
      </trkpt>
      <trkpt lat="47.57834" lon="5.79932">
        <ele>198.2002</ele>
        <time>2026-05-16T11:45:13+02:00</time>
      </trkpt>
      <trkpt lat="47.57833" lon="5.79942">
        <ele>198.2002</ele>
        <time>2026-05-16T11:45:14+02:00</time>
      </trkpt>
      <trkpt lat="47.57832" lon="5.79951">
        <ele>198.2002</ele>
        <time>2026-05-16T11:45:15+02:00</time>
      </trkpt>
      <trkpt lat="47.57831" lon="5.79961">
        <ele>198.2002</ele>
        <time>2026-05-16T11:45:16+02:00</time>
      </trkpt>
      <trkpt lat="47.5783" lon="5.79965">
        <ele>198.2002</ele>
        <time>2026-05-16T11:45:17+02:00</time>
      </trkpt>
      <trkpt lat="47.57828" lon="5.7998">
        <ele>198.2002</ele>
        <time>2026-05-16T11:45:18+02:00</time>
      </trkpt>
      <trkpt lat="47.57828" lon="5.79989">
        <ele>198.2998</ele>
        <time>2026-05-16T11:45:19+02:00</time>
      </trkpt>
      <trkpt lat="47.57827" lon="5.79999">
        <ele>198.40039</ele>
        <time>2026-05-16T11:45:20+02:00</time>
      </trkpt>
      <trkpt lat="47.57826" lon="5.80009">
        <ele>198.40039</ele>
        <time>2026-05-16T11:45:21+02:00</time>
      </trkpt>
      <trkpt lat="47.57824" lon="5.80019">
        <ele>198.40039</ele>
        <time>2026-05-16T11:45:22+02:00</time>
      </trkpt>
      <trkpt lat="47.57824" lon="5.80029">
        <ele>198.2998</ele>
        <time>2026-05-16T11:45:23+02:00</time>
      </trkpt>
      <trkpt lat="47.57823" lon="5.80039">
        <ele>198.2998</ele>
        <time>2026-05-16T11:45:24+02:00</time>
      </trkpt>
      <trkpt lat="47.57822" lon="5.80049">
        <ele>198.2002</ele>
        <time>2026-05-16T11:45:25+02:00</time>
      </trkpt>
      <trkpt lat="47.57821" lon="5.80059">
        <ele>198.2002</ele>
        <time>2026-05-16T11:45:26+02:00</time>
      </trkpt>
      <trkpt lat="47.57821" lon="5.80069">
        <ele>198.2002</ele>
        <time>2026-05-16T11:45:27+02:00</time>
      </trkpt>
      <trkpt lat="47.57819" lon="5.80078">
        <ele>198</ele>
        <time>2026-05-16T11:45:28+02:00</time>
      </trkpt>
      <trkpt lat="47.57819" lon="5.80086">
        <ele>198</ele>
        <time>2026-05-16T11:45:29+02:00</time>
      </trkpt>
      <trkpt lat="47.57818" lon="5.80093">
        <ele>197.90039</ele>
        <time>2026-05-16T11:45:30+02:00</time>
      </trkpt>
      <trkpt lat="47.57817" lon="5.801">
        <ele>197.90039</ele>
        <time>2026-05-16T11:45:31+02:00</time>
      </trkpt>
      <trkpt lat="47.57816" lon="5.80105">
        <ele>197.90039</ele>
        <time>2026-05-16T11:45:32+02:00</time>
      </trkpt>
      <trkpt lat="47.57815" lon="5.80109">
        <ele>197.90039</ele>
        <time>2026-05-16T11:45:33+02:00</time>
      </trkpt>
      <trkpt lat="47.57813" lon="5.8011">
        <ele>197.7998</ele>
        <time>2026-05-16T11:45:34+02:00</time>
      </trkpt>
      <trkpt lat="47.57811" lon="5.80111">
        <ele>197.7998</ele>
        <time>2026-05-16T11:45:35+02:00</time>
      </trkpt>
      <trkpt lat="47.5781" lon="5.80111">
        <ele>197.7998</ele>
        <time>2026-05-16T11:45:36+02:00</time>
      </trkpt>
      <trkpt lat="47.57808" lon="5.80111">
        <ele>197.90039</ele>
        <time>2026-05-16T11:45:37+02:00</time>
      </trkpt>
      <trkpt lat="47.57807" lon="5.80111">
        <ele>197.90039</ele>
        <time>2026-05-16T11:45:38+02:00</time>
      </trkpt>
      <trkpt lat="47.57807" lon="5.80111">
        <ele>197.90039</ele>
        <time>2026-05-16T11:45:39+02:00</time>
      </trkpt>
      <trkpt lat="47.57806" lon="5.80111">
        <ele>197.90039</ele>
        <time>2026-05-16T11:45:40+02:00</time>
      </trkpt>
      <trkpt lat="47.57805" lon="5.80111">
        <ele>197.90039</ele>
        <time>2026-05-16T11:45:41+02:00</time>
      </trkpt>
      <trkpt lat="47.57806" lon="5.80111">
        <ele>197.90039</ele>
        <time>2026-05-16T11:45:42+02:00</time>
      </trkpt>
      <trkpt lat="47.57819" lon="5.80116">
        <ele>197.7998</ele>
        <time>2026-05-16T11:48:12+02:00</time>
      </trkpt>
      <trkpt lat="47.57819" lon="5.80119">
        <ele>197.7998</ele>
        <time>2026-05-16T11:48:13+02:00</time>
      </trkpt>
      <trkpt lat="47.57819" lon="5.80121">
        <ele>197.7998</ele>
        <time>2026-05-16T11:48:14+02:00</time>
      </trkpt>
      <trkpt lat="47.57818" lon="5.80124">
        <ele>197.7998</ele>
        <time>2026-05-16T11:48:15+02:00</time>
      </trkpt>
      <trkpt lat="47.57817" lon="5.80126">
        <ele>197.7998</ele>
        <time>2026-05-16T11:48:16+02:00</time>
      </trkpt>
      <trkpt lat="47.57816" lon="5.80129">
        <ele>197.7998</ele>
        <time>2026-05-16T11:48:17+02:00</time>
      </trkpt>
      <trkpt lat="47.57815" lon="5.80131">
        <ele>197.7998</ele>
        <time>2026-05-16T11:48:18+02:00</time>
      </trkpt>
      <trkpt lat="47.57815" lon="5.80133">
        <ele>197.7998</ele>
        <time>2026-05-16T11:48:19+02:00</time>
      </trkpt>
      <trkpt lat="47.57814" lon="5.80135">
        <ele>197.7998</ele>
        <time>2026-05-16T11:48:20+02:00</time>
      </trkpt>
      <trkpt lat="47.57814" lon="5.80137">
        <ele>197.7998</ele>
        <time>2026-05-16T11:48:21+02:00</time>
      </trkpt>
      <trkpt lat="47.57813" lon="5.80139">
        <ele>197.7002</ele>
        <time>2026-05-16T11:48:22+02:00</time>
      </trkpt>
      <trkpt lat="47.57813" lon="5.80141">
        <ele>197.7002</ele>
        <time>2026-05-16T11:48:23+02:00</time>
      </trkpt>
      <trkpt lat="47.57812" lon="5.80144">
        <ele>197.7002</ele>
        <time>2026-05-16T11:48:24+02:00</time>
      </trkpt>
      <trkpt lat="47.57812" lon="5.80146">
        <ele>197.7002</ele>
        <time>2026-05-16T11:48:25+02:00</time>
      </trkpt>
      <trkpt lat="47.57811" lon="5.80149">
        <ele>197.7002</ele>
        <time>2026-05-16T11:48:26+02:00</time>
      </trkpt>
      <trkpt lat="47.57811" lon="5.80152">
        <ele>197.7002</ele>
        <time>2026-05-16T11:48:27+02:00</time>
      </trkpt>
      <trkpt lat="47.57811" lon="5.80156">
        <ele>197.7998</ele>
        <time>2026-05-16T11:48:28+02:00</time>
      </trkpt>
      <trkpt lat="47.5781" lon="5.80161">
        <ele>197.7998</ele>
        <time>2026-05-16T11:48:29+02:00</time>
      </trkpt>
      <trkpt lat="47.57809" lon="5.80165">
        <ele>197.90039</ele>
        <time>2026-05-16T11:48:30+02:00</time>
      </trkpt>
      <trkpt lat="47.57808" lon="5.80169">
        <ele>197.7998</ele>
        <time>2026-05-16T11:48:31+02:00</time>
      </trkpt>
      <trkpt lat="47.57808" lon="5.80174">
        <ele>197.7998</ele>
        <time>2026-05-16T11:48:32+02:00</time>
      </trkpt>
      <trkpt lat="47.57807" lon="5.80179">
        <ele>197.7998</ele>
        <time>2026-05-16T11:48:33+02:00</time>
      </trkpt>
      <trkpt lat="47.57806" lon="5.80184">
        <ele>197.7002</ele>
        <time>2026-05-16T11:48:34+02:00</time>
      </trkpt>
      <trkpt lat="47.57806" lon="5.80191">
        <ele>197.7002</ele>
        <time>2026-05-16T11:48:35+02:00</time>
      </trkpt>
      <trkpt lat="47.57805" lon="5.80197">
        <ele>197.7002</ele>
        <time>2026-05-16T11:48:36+02:00</time>
      </trkpt>
      <trkpt lat="47.57804" lon="5.80205">
        <ele>197.60059</ele>
        <time>2026-05-16T11:48:37+02:00</time>
      </trkpt>
      <trkpt lat="47.57803" lon="5.80212">
        <ele>197.5</ele>
        <time>2026-05-16T11:48:38+02:00</time>
      </trkpt>
      <trkpt lat="47.57802" lon="5.8022">
        <ele>197.5</ele>
        <time>2026-05-16T11:48:39+02:00</time>
      </trkpt>
      <trkpt lat="47.57802" lon="5.80228">
        <ele>197.5</ele>
        <time>2026-05-16T11:48:40+02:00</time>
      </trkpt>
      <trkpt lat="47.57801" lon="5.80236">
        <ele>197.5</ele>
        <time>2026-05-16T11:48:41+02:00</time>
      </trkpt>
      <trkpt lat="47.578" lon="5.80245">
        <ele>197.40039</ele>
        <time>2026-05-16T11:48:42+02:00</time>
      </trkpt>
      <trkpt lat="47.578" lon="5.80253">
        <ele>197.40039</ele>
        <time>2026-05-16T11:48:43+02:00</time>
      </trkpt>
      <trkpt lat="47.57799" lon="5.80261">
        <ele>197.40039</ele>
        <time>2026-05-16T11:48:44+02:00</time>
      </trkpt>
      <trkpt lat="47.57798" lon="5.80269">
        <ele>197.40039</ele>
        <time>2026-05-16T11:48:45+02:00</time>
      </trkpt>
      <trkpt lat="47.57797" lon="5.80278">
        <ele>197.40039</ele>
        <time>2026-05-16T11:48:46+02:00</time>
      </trkpt>
      <trkpt lat="47.57796" lon="5.80282">
        <ele>197.40039</ele>
        <time>2026-05-16T11:48:47+02:00</time>
      </trkpt>
      <trkpt lat="47.57795" lon="5.80294">
        <ele>197.40039</ele>
        <time>2026-05-16T11:48:48+02:00</time>
      </trkpt>
      <trkpt lat="47.57794" lon="5.80303">
        <ele>197.2998</ele>
        <time>2026-05-16T11:48:49+02:00</time>
      </trkpt>
      <trkpt lat="47.57794" lon="5.80311">
        <ele>197.2998</ele>
        <time>2026-05-16T11:48:50+02:00</time>
      </trkpt>
      <trkpt lat="47.57792" lon="5.8032">
        <ele>197.2998</ele>
        <time>2026-05-16T11:48:51+02:00</time>
      </trkpt>
      <trkpt lat="47.57792" lon="5.80329">
        <ele>197.40039</ele>
        <time>2026-05-16T11:48:52+02:00</time>
      </trkpt>
      <trkpt lat="47.57791" lon="5.80338">
        <ele>197.2002</ele>
        <time>2026-05-16T11:48:53+02:00</time>
      </trkpt>
      <trkpt lat="47.5779" lon="5.80347">
        <ele>197.10059</ele>
        <time>2026-05-16T11:48:54+02:00</time>
      </trkpt>
      <trkpt lat="47.57789" lon="5.80351">
        <ele>197.10059</ele>
        <time>2026-05-16T11:48:55+02:00</time>
      </trkpt>
      <trkpt lat="47.57788" lon="5.80364">
        <ele>197.10059</ele>
        <time>2026-05-16T11:48:56+02:00</time>
      </trkpt>
      <trkpt lat="47.57787" lon="5.80374">
        <ele>197.10059</ele>
        <time>2026-05-16T11:48:57+02:00</time>
      </trkpt>
      <trkpt lat="47.57786" lon="5.80383">
        <ele>197</ele>
        <time>2026-05-16T11:48:58+02:00</time>
      </trkpt>
      <trkpt lat="47.57785" lon="5.80392">
        <ele>197</ele>
        <time>2026-05-16T11:48:59+02:00</time>
      </trkpt>
      <trkpt lat="47.57784" lon="5.80401">
        <ele>196.90039</ele>
        <time>2026-05-16T11:49:00+02:00</time>
      </trkpt>
      <trkpt lat="47.57783" lon="5.8041">
        <ele>196.90039</ele>
        <time>2026-05-16T11:49:01+02:00</time>
      </trkpt>
      <trkpt lat="47.57782" lon="5.80419">
        <ele>196.90039</ele>
        <time>2026-05-16T11:49:02+02:00</time>
      </trkpt>
      <trkpt lat="47.57782" lon="5.80424">
        <ele>196.90039</ele>
        <time>2026-05-16T11:49:03+02:00</time>
      </trkpt>
      <trkpt lat="47.5778" lon="5.80438">
        <ele>196.90039</ele>
        <time>2026-05-16T11:49:04+02:00</time>
      </trkpt>
      <trkpt lat="47.57779" lon="5.80447">
        <ele>197</ele>
        <time>2026-05-16T11:49:05+02:00</time>
      </trkpt>
      <trkpt lat="47.57778" lon="5.80457">
        <ele>196.7998</ele>
        <time>2026-05-16T11:49:06+02:00</time>
      </trkpt>
      <trkpt lat="47.57777" lon="5.80466">
        <ele>196.7002</ele>
        <time>2026-05-16T11:49:07+02:00</time>
      </trkpt>
      <trkpt lat="47.57776" lon="5.80476">
        <ele>196.5</ele>
        <time>2026-05-16T11:49:08+02:00</time>
      </trkpt>
      <trkpt lat="47.57775" lon="5.80485">
        <ele>196.40039</ele>
        <time>2026-05-16T11:49:09+02:00</time>
      </trkpt>
      <trkpt lat="47.57774" lon="5.80495">
        <ele>196.40039</ele>
        <time>2026-05-16T11:49:10+02:00</time>
      </trkpt>
      <trkpt lat="47.57773" lon="5.80504">
        <ele>196.40039</ele>
        <time>2026-05-16T11:49:11+02:00</time>
      </trkpt>
      <trkpt lat="47.57772" lon="5.80513">
        <ele>196.5</ele>
        <time>2026-05-16T11:49:12+02:00</time>
      </trkpt>
      <trkpt lat="47.57771" lon="5.80523">
        <ele>196.5</ele>
        <time>2026-05-16T11:49:13+02:00</time>
      </trkpt>
      <trkpt lat="47.57771" lon="5.80527">
        <ele>196.5</ele>
        <time>2026-05-16T11:49:14+02:00</time>
      </trkpt>
      <trkpt lat="47.57769" lon="5.80541">
        <ele>196.5</ele>
        <time>2026-05-16T11:49:15+02:00</time>
      </trkpt>
      <trkpt lat="47.57768" lon="5.8055">
        <ele>196.40039</ele>
        <time>2026-05-16T11:49:16+02:00</time>
      </trkpt>
      <trkpt lat="47.57767" lon="5.8056">
        <ele>196.2998</ele>
        <time>2026-05-16T11:49:17+02:00</time>
      </trkpt>
      <trkpt lat="47.57766" lon="5.80564">
        <ele>196.2998</ele>
        <time>2026-05-16T11:49:18+02:00</time>
      </trkpt>
      <trkpt lat="47.57765" lon="5.80578">
        <ele>196.2998</ele>
        <time>2026-05-16T11:49:19+02:00</time>
      </trkpt>
      <trkpt lat="47.57764" lon="5.80587">
        <ele>196.2998</ele>
        <time>2026-05-16T11:49:20+02:00</time>
      </trkpt>
      <trkpt lat="47.57763" lon="5.80595">
        <ele>196.2998</ele>
        <time>2026-05-16T11:49:21+02:00</time>
      </trkpt>
      <trkpt lat="47.57762" lon="5.80604">
        <ele>196.40039</ele>
        <time>2026-05-16T11:49:22+02:00</time>
      </trkpt>
      <trkpt lat="47.57762" lon="5.80612">
        <ele>196.40039</ele>
        <time>2026-05-16T11:49:23+02:00</time>
      </trkpt>
      <trkpt lat="47.5776" lon="5.8062">
        <ele>196.2998</ele>
        <time>2026-05-16T11:49:24+02:00</time>
      </trkpt>
      <trkpt lat="47.5776" lon="5.80624">
        <ele>196.2998</ele>
        <time>2026-05-16T11:49:25+02:00</time>
      </trkpt>
      <trkpt lat="47.57758" lon="5.80637">
        <ele>195.90039</ele>
        <time>2026-05-16T11:49:26+02:00</time>
      </trkpt>
      <trkpt lat="47.57758" lon="5.80645">
        <ele>195.7002</ele>
        <time>2026-05-16T11:49:27+02:00</time>
      </trkpt>
      <trkpt lat="47.57757" lon="5.80654">
        <ele>195.7002</ele>
        <time>2026-05-16T11:49:28+02:00</time>
      </trkpt>
      <trkpt lat="47.57755" lon="5.80662">
        <ele>195.7002</ele>
        <time>2026-05-16T11:49:29+02:00</time>
      </trkpt>
      <trkpt lat="47.57755" lon="5.80671">
        <ele>195.7998</ele>
        <time>2026-05-16T11:49:30+02:00</time>
      </trkpt>
      <trkpt lat="47.57754" lon="5.80679">
        <ele>195.90039</ele>
        <time>2026-05-16T11:49:31+02:00</time>
      </trkpt>
      <trkpt lat="47.57753" lon="5.80688">
        <ele>195.90039</ele>
        <time>2026-05-16T11:49:32+02:00</time>
      </trkpt>
      <trkpt lat="47.57752" lon="5.80696">
        <ele>195.90039</ele>
        <time>2026-05-16T11:49:33+02:00</time>
      </trkpt>
      <trkpt lat="47.57751" lon="5.80705">
        <ele>195.7998</ele>
        <time>2026-05-16T11:49:34+02:00</time>
      </trkpt>
      <trkpt lat="47.5775" lon="5.80713">
        <ele>195.7998</ele>
        <time>2026-05-16T11:49:35+02:00</time>
      </trkpt>
      <trkpt lat="47.5775" lon="5.80722">
        <ele>195.7998</ele>
        <time>2026-05-16T11:49:36+02:00</time>
      </trkpt>
      <trkpt lat="47.57749" lon="5.8073">
        <ele>195.7998</ele>
        <time>2026-05-16T11:49:37+02:00</time>
      </trkpt>
      <trkpt lat="47.57747" lon="5.80739">
        <ele>195.7998</ele>
        <time>2026-05-16T11:49:38+02:00</time>
      </trkpt>
      <trkpt lat="47.57746" lon="5.80747">
        <ele>195.7998</ele>
        <time>2026-05-16T11:49:39+02:00</time>
      </trkpt>
      <trkpt lat="47.57745" lon="5.80756">
        <ele>196.2998</ele>
        <time>2026-05-16T11:49:40+02:00</time>
      </trkpt>
      <trkpt lat="47.57745" lon="5.80764">
        <ele>196.2998</ele>
        <time>2026-05-16T11:49:41+02:00</time>
      </trkpt>
      <trkpt lat="47.57744" lon="5.80773">
        <ele>196.2998</ele>
        <time>2026-05-16T11:49:42+02:00</time>
      </trkpt>
      <trkpt lat="47.57743" lon="5.80781">
        <ele>196.2002</ele>
        <time>2026-05-16T11:49:43+02:00</time>
      </trkpt>
      <trkpt lat="47.57742" lon="5.80789">
        <ele>196.2002</ele>
        <time>2026-05-16T11:49:44+02:00</time>
      </trkpt>
      <trkpt lat="47.57741" lon="5.80797">
        <ele>196</ele>
        <time>2026-05-16T11:49:45+02:00</time>
      </trkpt>
      <trkpt lat="47.57741" lon="5.80806">
        <ele>195.60059</ele>
        <time>2026-05-16T11:49:46+02:00</time>
      </trkpt>
      <trkpt lat="47.5774" lon="5.8081">
        <ele>195.2998</ele>
        <time>2026-05-16T11:49:47+02:00</time>
      </trkpt>
      <trkpt lat="47.57739" lon="5.80822">
        <ele>195.2002</ele>
        <time>2026-05-16T11:49:48+02:00</time>
      </trkpt>
      <trkpt lat="47.57738" lon="5.8083">
        <ele>195.10059</ele>
        <time>2026-05-16T11:49:49+02:00</time>
      </trkpt>
      <trkpt lat="47.57737" lon="5.80838">
        <ele>195.10059</ele>
        <time>2026-05-16T11:49:50+02:00</time>
      </trkpt>
      <trkpt lat="47.57737" lon="5.80846">
        <ele>195.2002</ele>
        <time>2026-05-16T11:49:51+02:00</time>
      </trkpt>
      <trkpt lat="47.57736" lon="5.80854">
        <ele>195.2998</ele>
        <time>2026-05-16T11:49:52+02:00</time>
      </trkpt>
      <trkpt lat="47.57734" lon="5.80862">
        <ele>195.2002</ele>
        <time>2026-05-16T11:49:53+02:00</time>
      </trkpt>
      <trkpt lat="47.57734" lon="5.8087">
        <ele>195.2002</ele>
        <time>2026-05-16T11:49:54+02:00</time>
      </trkpt>
      <trkpt lat="47.57733" lon="5.80878">
        <ele>195.2002</ele>
        <time>2026-05-16T11:49:55+02:00</time>
      </trkpt>
      <trkpt lat="47.57732" lon="5.80885">
        <ele>195.2002</ele>
        <time>2026-05-16T11:49:56+02:00</time>
      </trkpt>
      <trkpt lat="47.57731" lon="5.80893">
        <ele>195.2002</ele>
        <time>2026-05-16T11:49:57+02:00</time>
      </trkpt>
      <trkpt lat="47.5773" lon="5.80902">
        <ele>195.10059</ele>
        <time>2026-05-16T11:49:58+02:00</time>
      </trkpt>
      <trkpt lat="47.57729" lon="5.8091">
        <ele>195.10059</ele>
        <time>2026-05-16T11:49:59+02:00</time>
      </trkpt>
      <trkpt lat="47.57728" lon="5.80918">
        <ele>195.5</ele>
        <time>2026-05-16T11:50:00+02:00</time>
      </trkpt>
      <trkpt lat="47.57728" lon="5.80926">
        <ele>195.5</ele>
        <time>2026-05-16T11:50:01+02:00</time>
      </trkpt>
      <trkpt lat="47.57726" lon="5.80934">
        <ele>195.5</ele>
        <time>2026-05-16T11:50:02+02:00</time>
      </trkpt>
      <trkpt lat="47.57726" lon="5.80943">
        <ele>195.40039</ele>
        <time>2026-05-16T11:50:03+02:00</time>
      </trkpt>
      <trkpt lat="47.57725" lon="5.80951">
        <ele>195.2998</ele>
        <time>2026-05-16T11:50:04+02:00</time>
      </trkpt>
      <trkpt lat="47.57724" lon="5.80959">
        <ele>195.2002</ele>
        <time>2026-05-16T11:50:05+02:00</time>
      </trkpt>
      <trkpt lat="47.57723" lon="5.80968">
        <ele>195</ele>
        <time>2026-05-16T11:50:06+02:00</time>
      </trkpt>
      <trkpt lat="47.57722" lon="5.80976">
        <ele>194.7998</ele>
        <time>2026-05-16T11:50:07+02:00</time>
      </trkpt>
      <trkpt lat="47.57721" lon="5.80984">
        <ele>194.5</ele>
        <time>2026-05-16T11:50:08+02:00</time>
      </trkpt>
      <trkpt lat="47.57721" lon="5.80992">
        <ele>194.2998</ele>
        <time>2026-05-16T11:50:09+02:00</time>
      </trkpt>
      <trkpt lat="47.5772" lon="5.81">
        <ele>194.2002</ele>
        <time>2026-05-16T11:50:10+02:00</time>
      </trkpt>
      <trkpt lat="47.57719" lon="5.81008">
        <ele>194.2002</ele>
        <time>2026-05-16T11:50:11+02:00</time>
      </trkpt>
      <trkpt lat="47.57718" lon="5.81016">
        <ele>194.2998</ele>
        <time>2026-05-16T11:50:12+02:00</time>
      </trkpt>
      <trkpt lat="47.57717" lon="5.81025">
        <ele>194.7002</ele>
        <time>2026-05-16T11:50:13+02:00</time>
      </trkpt>
      <trkpt lat="47.57717" lon="5.81033">
        <ele>195.7998</ele>
        <time>2026-05-16T11:50:14+02:00</time>
      </trkpt>
      <trkpt lat="47.57716" lon="5.81041">
        <ele>196.7002</ele>
        <time>2026-05-16T11:50:15+02:00</time>
      </trkpt>
      <trkpt lat="47.57715" lon="5.81049">
        <ele>197.60059</ele>
        <time>2026-05-16T11:50:16+02:00</time>
      </trkpt>
      <trkpt lat="47.57715" lon="5.81057">
        <ele>197.90039</ele>
        <time>2026-05-16T11:50:17+02:00</time>
      </trkpt>
      <trkpt lat="47.57713" lon="5.81065">
        <ele>197.90039</ele>
        <time>2026-05-16T11:50:18+02:00</time>
      </trkpt>
      <trkpt lat="47.57713" lon="5.81073">
        <ele>197.7998</ele>
        <time>2026-05-16T11:50:19+02:00</time>
      </trkpt>
      <trkpt lat="47.57712" lon="5.81081">
        <ele>197.60059</ele>
        <time>2026-05-16T11:50:20+02:00</time>
      </trkpt>
      <trkpt lat="47.57711" lon="5.81089">
        <ele>197.5</ele>
        <time>2026-05-16T11:50:21+02:00</time>
      </trkpt>
      <trkpt lat="47.5771" lon="5.81097">
        <ele>197.2998</ele>
        <time>2026-05-16T11:50:22+02:00</time>
      </trkpt>
      <trkpt lat="47.57709" lon="5.81105">
        <ele>197.40039</ele>
        <time>2026-05-16T11:50:23+02:00</time>
      </trkpt>
      <trkpt lat="47.57708" lon="5.81113">
        <ele>197.60059</ele>
        <time>2026-05-16T11:50:24+02:00</time>
      </trkpt>
      <trkpt lat="47.57707" lon="5.81122">
        <ele>197.7002</ele>
        <time>2026-05-16T11:50:25+02:00</time>
      </trkpt>
      <trkpt lat="47.57707" lon="5.8113">
        <ele>197.7998</ele>
        <time>2026-05-16T11:50:26+02:00</time>
      </trkpt>
      <trkpt lat="47.57705" lon="5.81138">
        <ele>198</ele>
        <time>2026-05-16T11:50:27+02:00</time>
      </trkpt>
      <trkpt lat="47.57705" lon="5.81146">
        <ele>198.10059</ele>
        <time>2026-05-16T11:50:28+02:00</time>
      </trkpt>
      <trkpt lat="47.57704" lon="5.81154">
        <ele>198.2002</ele>
        <time>2026-05-16T11:50:29+02:00</time>
      </trkpt>
      <trkpt lat="47.57704" lon="5.81162">
        <ele>198.40039</ele>
        <time>2026-05-16T11:50:30+02:00</time>
      </trkpt>
      <trkpt lat="47.57703" lon="5.8117">
        <ele>198.5</ele>
        <time>2026-05-16T11:50:31+02:00</time>
      </trkpt>
      <trkpt lat="47.57702" lon="5.81178">
        <ele>198.5</ele>
        <time>2026-05-16T11:50:32+02:00</time>
      </trkpt>
      <trkpt lat="47.57701" lon="5.81185">
        <ele>198.5</ele>
        <time>2026-05-16T11:50:33+02:00</time>
      </trkpt>
      <trkpt lat="47.577" lon="5.81193">
        <ele>198.60059</ele>
        <time>2026-05-16T11:50:34+02:00</time>
      </trkpt>
      <trkpt lat="47.57699" lon="5.81201">
        <ele>198.60059</ele>
        <time>2026-05-16T11:50:35+02:00</time>
      </trkpt>
      <trkpt lat="47.57698" lon="5.81209">
        <ele>198.7998</ele>
        <time>2026-05-16T11:50:36+02:00</time>
      </trkpt>
      <trkpt lat="47.57697" lon="5.81218">
        <ele>198.90039</ele>
        <time>2026-05-16T11:50:37+02:00</time>
      </trkpt>
      <trkpt lat="47.57697" lon="5.81222">
        <ele>199</ele>
        <time>2026-05-16T11:50:38+02:00</time>
      </trkpt>
      <trkpt lat="47.57695" lon="5.81234">
        <ele>199</ele>
        <time>2026-05-16T11:50:39+02:00</time>
      </trkpt>
      <trkpt lat="47.57694" lon="5.81243">
        <ele>199.10059</ele>
        <time>2026-05-16T11:50:40+02:00</time>
      </trkpt>
      <trkpt lat="47.57693" lon="5.81251">
        <ele>199.10059</ele>
        <time>2026-05-16T11:50:41+02:00</time>
      </trkpt>
      <trkpt lat="47.57692" lon="5.8126">
        <ele>199.2002</ele>
        <time>2026-05-16T11:50:42+02:00</time>
      </trkpt>
      <trkpt lat="47.57692" lon="5.81268">
        <ele>199.2002</ele>
        <time>2026-05-16T11:50:43+02:00</time>
      </trkpt>
      <trkpt lat="47.57691" lon="5.81277">
        <ele>199.2002</ele>
        <time>2026-05-16T11:50:44+02:00</time>
      </trkpt>
      <trkpt lat="47.5769" lon="5.81286">
        <ele>199.2002</ele>
        <time>2026-05-16T11:50:45+02:00</time>
      </trkpt>
      <trkpt lat="47.57689" lon="5.81294">
        <ele>199.2002</ele>
        <time>2026-05-16T11:50:46+02:00</time>
      </trkpt>
      <trkpt lat="47.57688" lon="5.81303">
        <ele>199.2002</ele>
        <time>2026-05-16T11:50:47+02:00</time>
      </trkpt>
      <trkpt lat="47.57687" lon="5.81312">
        <ele>199.2002</ele>
        <time>2026-05-16T11:50:48+02:00</time>
      </trkpt>
      <trkpt lat="47.57686" lon="5.8132">
        <ele>199.2002</ele>
        <time>2026-05-16T11:50:49+02:00</time>
      </trkpt>
      <trkpt lat="47.57685" lon="5.81329">
        <ele>199.2002</ele>
        <time>2026-05-16T11:50:50+02:00</time>
      </trkpt>
      <trkpt lat="47.57684" lon="5.81337">
        <ele>199.10059</ele>
        <time>2026-05-16T11:50:51+02:00</time>
      </trkpt>
      <trkpt lat="47.57683" lon="5.81346">
        <ele>199</ele>
        <time>2026-05-16T11:50:52+02:00</time>
      </trkpt>
      <trkpt lat="47.57683" lon="5.81354">
        <ele>198.90039</ele>
        <time>2026-05-16T11:50:53+02:00</time>
      </trkpt>
      <trkpt lat="47.57681" lon="5.81363">
        <ele>198.7998</ele>
        <time>2026-05-16T11:50:54+02:00</time>
      </trkpt>
      <trkpt lat="47.57681" lon="5.81371">
        <ele>198.60059</ele>
        <time>2026-05-16T11:50:55+02:00</time>
      </trkpt>
      <trkpt lat="47.5768" lon="5.8138">
        <ele>198.5</ele>
        <time>2026-05-16T11:50:56+02:00</time>
      </trkpt>
      <trkpt lat="47.57679" lon="5.81388">
        <ele>198.40039</ele>
        <time>2026-05-16T11:50:57+02:00</time>
      </trkpt>
      <trkpt lat="47.57678" lon="5.81396">
        <ele>198.2998</ele>
        <time>2026-05-16T11:50:58+02:00</time>
      </trkpt>
      <trkpt lat="47.57677" lon="5.81403">
        <ele>198.2002</ele>
        <time>2026-05-16T11:50:59+02:00</time>
      </trkpt>
      <trkpt lat="47.57676" lon="5.81411">
        <ele>198.10059</ele>
        <time>2026-05-16T11:51:00+02:00</time>
      </trkpt>
      <trkpt lat="47.57675" lon="5.81419">
        <ele>198</ele>
        <time>2026-05-16T11:51:01+02:00</time>
      </trkpt>
      <trkpt lat="47.57674" lon="5.81427">
        <ele>197.90039</ele>
        <time>2026-05-16T11:51:02+02:00</time>
      </trkpt>
      <trkpt lat="47.57673" lon="5.81435">
        <ele>197.7998</ele>
        <time>2026-05-16T11:51:03+02:00</time>
      </trkpt>
      <trkpt lat="47.57673" lon="5.81443">
        <ele>197.7002</ele>
        <time>2026-05-16T11:51:04+02:00</time>
      </trkpt>
      <trkpt lat="47.57672" lon="5.81451">
        <ele>197.7002</ele>
        <time>2026-05-16T11:51:05+02:00</time>
      </trkpt>
      <trkpt lat="47.57671" lon="5.81459">
        <ele>197.7002</ele>
        <time>2026-05-16T11:51:06+02:00</time>
      </trkpt>
      <trkpt lat="47.5767" lon="5.81467">
        <ele>197.60059</ele>
        <time>2026-05-16T11:51:07+02:00</time>
      </trkpt>
      <trkpt lat="47.5767" lon="5.81475">
        <ele>197.60059</ele>
        <time>2026-05-16T11:51:08+02:00</time>
      </trkpt>
      <trkpt lat="47.57669" lon="5.81483">
        <ele>197.5</ele>
        <time>2026-05-16T11:51:09+02:00</time>
      </trkpt>
      <trkpt lat="47.57668" lon="5.81491">
        <ele>197.40039</ele>
        <time>2026-05-16T11:51:10+02:00</time>
      </trkpt>
      <trkpt lat="47.57667" lon="5.815">
        <ele>197.40039</ele>
        <time>2026-05-16T11:51:11+02:00</time>
      </trkpt>
      <trkpt lat="47.57667" lon="5.81504">
        <ele>197.2998</ele>
        <time>2026-05-16T11:51:12+02:00</time>
      </trkpt>
      <trkpt lat="47.57666" lon="5.81516">
        <ele>197.2998</ele>
        <time>2026-05-16T11:51:13+02:00</time>
      </trkpt>
      <trkpt lat="47.57665" lon="5.81525">
        <ele>197.2998</ele>
        <time>2026-05-16T11:51:14+02:00</time>
      </trkpt>
      <trkpt lat="47.57664" lon="5.81533">
        <ele>197.2998</ele>
        <time>2026-05-16T11:51:15+02:00</time>
      </trkpt>
      <trkpt lat="47.57663" lon="5.81542">
        <ele>197.2998</ele>
        <time>2026-05-16T11:51:16+02:00</time>
      </trkpt>
      <trkpt lat="47.57662" lon="5.8155">
        <ele>197.2002</ele>
        <time>2026-05-16T11:51:17+02:00</time>
      </trkpt>
      <trkpt lat="47.57662" lon="5.81559">
        <ele>197.2002</ele>
        <time>2026-05-16T11:51:18+02:00</time>
      </trkpt>
      <trkpt lat="47.57661" lon="5.81567">
        <ele>197.2002</ele>
        <time>2026-05-16T11:51:19+02:00</time>
      </trkpt>
      <trkpt lat="47.5766" lon="5.81575">
        <ele>197.2002</ele>
        <time>2026-05-16T11:51:20+02:00</time>
      </trkpt>
      <trkpt lat="47.5766" lon="5.81584">
        <ele>197.2002</ele>
        <time>2026-05-16T11:51:21+02:00</time>
      </trkpt>
      <trkpt lat="47.57659" lon="5.81592">
        <ele>197.10059</ele>
        <time>2026-05-16T11:51:22+02:00</time>
      </trkpt>
      <trkpt lat="47.57658" lon="5.816">
        <ele>197.10059</ele>
        <time>2026-05-16T11:51:23+02:00</time>
      </trkpt>
      <trkpt lat="47.57657" lon="5.81609">
        <ele>197.10059</ele>
        <time>2026-05-16T11:51:24+02:00</time>
      </trkpt>
      <trkpt lat="47.57657" lon="5.81617">
        <ele>197.10059</ele>
        <time>2026-05-16T11:51:25+02:00</time>
      </trkpt>
      <trkpt lat="47.57655" lon="5.81625">
        <ele>197.10059</ele>
        <time>2026-05-16T11:51:26+02:00</time>
      </trkpt>
      <trkpt lat="47.57655" lon="5.81633">
        <ele>197.2002</ele>
        <time>2026-05-16T11:51:27+02:00</time>
      </trkpt>
      <trkpt lat="47.57654" lon="5.81641">
        <ele>197.2002</ele>
        <time>2026-05-16T11:51:28+02:00</time>
      </trkpt>
      <trkpt lat="47.57654" lon="5.81649">
        <ele>197.2002</ele>
        <time>2026-05-16T11:51:29+02:00</time>
      </trkpt>
      <trkpt lat="47.57652" lon="5.81657">
        <ele>197.2002</ele>
        <time>2026-05-16T11:51:30+02:00</time>
      </trkpt>
      <trkpt lat="47.57651" lon="5.81665">
        <ele>197.2998</ele>
        <time>2026-05-16T11:51:31+02:00</time>
      </trkpt>
      <trkpt lat="47.57651" lon="5.81673">
        <ele>197.40039</ele>
        <time>2026-05-16T11:51:32+02:00</time>
      </trkpt>
      <trkpt lat="47.5765" lon="5.81681">
        <ele>197.5</ele>
        <time>2026-05-16T11:51:33+02:00</time>
      </trkpt>
      <trkpt lat="47.57649" lon="5.81689">
        <ele>197.60059</ele>
        <time>2026-05-16T11:51:34+02:00</time>
      </trkpt>
      <trkpt lat="47.57648" lon="5.81697">
        <ele>197.7002</ele>
        <time>2026-05-16T11:51:35+02:00</time>
      </trkpt>
      <trkpt lat="47.57647" lon="5.81705">
        <ele>197.7998</ele>
        <time>2026-05-16T11:51:36+02:00</time>
      </trkpt>
      <trkpt lat="47.57647" lon="5.81713">
        <ele>197.90039</ele>
        <time>2026-05-16T11:51:37+02:00</time>
      </trkpt>
      <trkpt lat="47.57646" lon="5.81721">
        <ele>198.10059</ele>
        <time>2026-05-16T11:51:38+02:00</time>
      </trkpt>
      <trkpt lat="47.57645" lon="5.81729">
        <ele>198.2002</ele>
        <time>2026-05-16T11:51:39+02:00</time>
      </trkpt>
      <trkpt lat="47.57644" lon="5.81737">
        <ele>198.2998</ele>
        <time>2026-05-16T11:51:40+02:00</time>
      </trkpt>
      <trkpt lat="47.57643" lon="5.81745">
        <ele>198.5</ele>
        <time>2026-05-16T11:51:41+02:00</time>
      </trkpt>
      <trkpt lat="47.57642" lon="5.81753">
        <ele>198.60059</ele>
        <time>2026-05-16T11:51:42+02:00</time>
      </trkpt>
      <trkpt lat="47.57641" lon="5.81761">
        <ele>198.7998</ele>
        <time>2026-05-16T11:51:43+02:00</time>
      </trkpt>
      <trkpt lat="47.57641" lon="5.81769">
        <ele>199</ele>
        <time>2026-05-16T11:51:44+02:00</time>
      </trkpt>
      <trkpt lat="47.5764" lon="5.81773">
        <ele>199</ele>
        <time>2026-05-16T11:51:45+02:00</time>
      </trkpt>
      <trkpt lat="47.57639" lon="5.81784">
        <ele>199.10059</ele>
        <time>2026-05-16T11:51:46+02:00</time>
      </trkpt>
      <trkpt lat="47.57639" lon="5.81792">
        <ele>199.2998</ele>
        <time>2026-05-16T11:51:47+02:00</time>
      </trkpt>
      <trkpt lat="47.57638" lon="5.818">
        <ele>199.40039</ele>
        <time>2026-05-16T11:51:48+02:00</time>
      </trkpt>
      <trkpt lat="47.57637" lon="5.81808">
        <ele>199.5</ele>
        <time>2026-05-16T11:51:49+02:00</time>
      </trkpt>
      <trkpt lat="47.57636" lon="5.81816">
        <ele>199.60059</ele>
        <time>2026-05-16T11:51:50+02:00</time>
      </trkpt>
      <trkpt lat="47.57635" lon="5.81824">
        <ele>199.7998</ele>
        <time>2026-05-16T11:51:51+02:00</time>
      </trkpt>
      <trkpt lat="47.57635" lon="5.81828">
        <ele>199.7998</ele>
        <time>2026-05-16T11:51:52+02:00</time>
      </trkpt>
      <trkpt lat="47.57634" lon="5.81841">
        <ele>199.7002</ele>
        <time>2026-05-16T11:51:53+02:00</time>
      </trkpt>
      <trkpt lat="47.57633" lon="5.8185">
        <ele>199.60059</ele>
        <time>2026-05-16T11:51:54+02:00</time>
      </trkpt>
      <trkpt lat="47.57632" lon="5.81858">
        <ele>199.5</ele>
        <time>2026-05-16T11:51:55+02:00</time>
      </trkpt>
      <trkpt lat="47.57631" lon="5.81867">
        <ele>199.2998</ele>
        <time>2026-05-16T11:51:56+02:00</time>
      </trkpt>
      <trkpt lat="47.5763" lon="5.81875">
        <ele>199.2002</ele>
        <time>2026-05-16T11:51:57+02:00</time>
      </trkpt>
      <trkpt lat="47.57629" lon="5.81884">
        <ele>199.2002</ele>
        <time>2026-05-16T11:51:58+02:00</time>
      </trkpt>
      <trkpt lat="47.57628" lon="5.81888">
        <ele>199.2002</ele>
        <time>2026-05-16T11:51:59+02:00</time>
      </trkpt>
      <trkpt lat="47.57627" lon="5.81901">
        <ele>199</ele>
        <time>2026-05-16T11:52:00+02:00</time>
      </trkpt>
      <trkpt lat="47.57626" lon="5.8191">
        <ele>198.90039</ele>
        <time>2026-05-16T11:52:01+02:00</time>
      </trkpt>
      <trkpt lat="47.57625" lon="5.81918">
        <ele>198.90039</ele>
        <time>2026-05-16T11:52:02+02:00</time>
      </trkpt>
      <trkpt lat="47.57624" lon="5.81927">
        <ele>198.7998</ele>
        <time>2026-05-16T11:52:03+02:00</time>
      </trkpt>
      <trkpt lat="47.57623" lon="5.81935">
        <ele>198.7998</ele>
        <time>2026-05-16T11:52:04+02:00</time>
      </trkpt>
      <trkpt lat="47.57622" lon="5.81944">
        <ele>198.7998</ele>
        <time>2026-05-16T11:52:05+02:00</time>
      </trkpt>
      <trkpt lat="47.57622" lon="5.81948">
        <ele>198.7998</ele>
        <time>2026-05-16T11:52:06+02:00</time>
      </trkpt>
      <trkpt lat="47.57621" lon="5.81961">
        <ele>198.7998</ele>
        <time>2026-05-16T11:52:07+02:00</time>
      </trkpt>
      <trkpt lat="47.5762" lon="5.8197">
        <ele>198.7002</ele>
        <time>2026-05-16T11:52:08+02:00</time>
      </trkpt>
      <trkpt lat="47.57619" lon="5.81979">
        <ele>198.7002</ele>
        <time>2026-05-16T11:52:09+02:00</time>
      </trkpt>
      <trkpt lat="47.57618" lon="5.81988">
        <ele>198.60059</ele>
        <time>2026-05-16T11:52:10+02:00</time>
      </trkpt>
      <trkpt lat="47.57617" lon="5.81996">
        <ele>198.7002</ele>
        <time>2026-05-16T11:52:11+02:00</time>
      </trkpt>
      <trkpt lat="47.57616" lon="5.82005">
        <ele>198.60059</ele>
        <time>2026-05-16T11:52:12+02:00</time>
      </trkpt>
      <trkpt lat="47.57615" lon="5.82013">
        <ele>198.60059</ele>
        <time>2026-05-16T11:52:13+02:00</time>
      </trkpt>
      <trkpt lat="47.57615" lon="5.82022">
        <ele>198.5</ele>
        <time>2026-05-16T11:52:14+02:00</time>
      </trkpt>
      <trkpt lat="47.57614" lon="5.8203">
        <ele>198.40039</ele>
        <time>2026-05-16T11:52:15+02:00</time>
      </trkpt>
      <trkpt lat="47.57613" lon="5.82038">
        <ele>198.40039</ele>
        <time>2026-05-16T11:52:16+02:00</time>
      </trkpt>
      <trkpt lat="47.57612" lon="5.82046">
        <ele>198.5</ele>
        <time>2026-05-16T11:52:17+02:00</time>
      </trkpt>
      <trkpt lat="47.57611" lon="5.82054">
        <ele>199</ele>
        <time>2026-05-16T11:52:18+02:00</time>
      </trkpt>
      <trkpt lat="47.5761" lon="5.82062">
        <ele>198.7998</ele>
        <time>2026-05-16T11:52:19+02:00</time>
      </trkpt>
      <trkpt lat="47.57609" lon="5.8207">
        <ele>198.7998</ele>
        <time>2026-05-16T11:52:20+02:00</time>
      </trkpt>
      <trkpt lat="47.57608" lon="5.82079">
        <ele>198.7002</ele>
        <time>2026-05-16T11:52:21+02:00</time>
      </trkpt>
      <trkpt lat="47.57607" lon="5.82087">
        <ele>198.40039</ele>
        <time>2026-05-16T11:52:22+02:00</time>
      </trkpt>
      <trkpt lat="47.57606" lon="5.82095">
        <ele>198.5</ele>
        <time>2026-05-16T11:52:23+02:00</time>
      </trkpt>
      <trkpt lat="47.57605" lon="5.82104">
        <ele>198.2002</ele>
        <time>2026-05-16T11:52:24+02:00</time>
      </trkpt>
      <trkpt lat="47.57605" lon="5.82108">
        <ele>198.2002</ele>
        <time>2026-05-16T11:52:25+02:00</time>
      </trkpt>
      <trkpt lat="47.57604" lon="5.8212">
        <ele>198</ele>
        <time>2026-05-16T11:52:26+02:00</time>
      </trkpt>
      <trkpt lat="47.57603" lon="5.82128">
        <ele>197.7998</ele>
        <time>2026-05-16T11:52:27+02:00</time>
      </trkpt>
      <trkpt lat="47.57602" lon="5.82136">
        <ele>197.60059</ele>
        <time>2026-05-16T11:52:28+02:00</time>
      </trkpt>
      <trkpt lat="47.57602" lon="5.82144">
        <ele>197.60059</ele>
        <time>2026-05-16T11:52:29+02:00</time>
      </trkpt>
      <trkpt lat="47.57601" lon="5.82152">
        <ele>197.5</ele>
        <time>2026-05-16T11:52:30+02:00</time>
      </trkpt>
      <trkpt lat="47.576" lon="5.8216">
        <ele>196.2998</ele>
        <time>2026-05-16T11:52:31+02:00</time>
      </trkpt>
      <trkpt lat="47.576" lon="5.82168">
        <ele>196.10059</ele>
        <time>2026-05-16T11:52:32+02:00</time>
      </trkpt>
      <trkpt lat="47.57599" lon="5.82176">
        <ele>196</ele>
        <time>2026-05-16T11:52:33+02:00</time>
      </trkpt>
      <trkpt lat="47.57599" lon="5.82184">
        <ele>195.90039</ele>
        <time>2026-05-16T11:52:34+02:00</time>
      </trkpt>
      <trkpt lat="47.57598" lon="5.82193">
        <ele>195.7998</ele>
        <time>2026-05-16T11:52:35+02:00</time>
      </trkpt>
      <trkpt lat="47.57598" lon="5.82201">
        <ele>195.2002</ele>
        <time>2026-05-16T11:52:36+02:00</time>
      </trkpt>
      <trkpt lat="47.57598" lon="5.82209">
        <ele>194</ele>
        <time>2026-05-16T11:52:37+02:00</time>
      </trkpt>
      <trkpt lat="47.57598" lon="5.82217">
        <ele>192.7998</ele>
        <time>2026-05-16T11:52:38+02:00</time>
      </trkpt>
      <trkpt lat="47.57598" lon="5.82226">
        <ele>192.2002</ele>
        <time>2026-05-16T11:52:39+02:00</time>
      </trkpt>
      <trkpt lat="47.57599" lon="5.82234">
        <ele>192</ele>
        <time>2026-05-16T11:52:40+02:00</time>
      </trkpt>
      <trkpt lat="47.57599" lon="5.82242">
        <ele>192</ele>
        <time>2026-05-16T11:52:41+02:00</time>
      </trkpt>
      <trkpt lat="47.576" lon="5.82251">
        <ele>192.10059</ele>
        <time>2026-05-16T11:52:42+02:00</time>
      </trkpt>
      <trkpt lat="47.57601" lon="5.82259">
        <ele>192.2998</ele>
        <time>2026-05-16T11:52:43+02:00</time>
      </trkpt>
      <trkpt lat="47.57601" lon="5.82267">
        <ele>192.2998</ele>
        <time>2026-05-16T11:52:44+02:00</time>
      </trkpt>
      <trkpt lat="47.57602" lon="5.82276">
        <ele>192.2998</ele>
        <time>2026-05-16T11:52:45+02:00</time>
      </trkpt>
      <trkpt lat="47.57603" lon="5.82284">
        <ele>192.2998</ele>
        <time>2026-05-16T11:52:46+02:00</time>
      </trkpt>
      <trkpt lat="47.57604" lon="5.82292">
        <ele>192.2998</ele>
        <time>2026-05-16T11:52:47+02:00</time>
      </trkpt>
      <trkpt lat="47.57606" lon="5.823">
        <ele>192.2998</ele>
        <time>2026-05-16T11:52:48+02:00</time>
      </trkpt>
      <trkpt lat="47.57607" lon="5.82308">
        <ele>192.40039</ele>
        <time>2026-05-16T11:52:49+02:00</time>
      </trkpt>
      <trkpt lat="47.57609" lon="5.82317">
        <ele>192.40039</ele>
        <time>2026-05-16T11:52:50+02:00</time>
      </trkpt>
      <trkpt lat="47.5761" lon="5.82325">
        <ele>192.40039</ele>
        <time>2026-05-16T11:52:51+02:00</time>
      </trkpt>
      <trkpt lat="47.57612" lon="5.82332">
        <ele>192.40039</ele>
        <time>2026-05-16T11:52:52+02:00</time>
      </trkpt>
      <trkpt lat="47.57614" lon="5.8234">
        <ele>192.2998</ele>
        <time>2026-05-16T11:52:53+02:00</time>
      </trkpt>
      <trkpt lat="47.57617" lon="5.82348">
        <ele>192.2998</ele>
        <time>2026-05-16T11:52:54+02:00</time>
      </trkpt>
      <trkpt lat="47.57619" lon="5.82356">
        <ele>192.2998</ele>
        <time>2026-05-16T11:52:55+02:00</time>
      </trkpt>
      <trkpt lat="47.57621" lon="5.82364">
        <ele>192.2998</ele>
        <time>2026-05-16T11:52:56+02:00</time>
      </trkpt>
      <trkpt lat="47.57624" lon="5.82373">
        <ele>192.2998</ele>
        <time>2026-05-16T11:52:57+02:00</time>
      </trkpt>
      <trkpt lat="47.57626" lon="5.82381">
        <ele>192.2998</ele>
        <time>2026-05-16T11:52:58+02:00</time>
      </trkpt>
      <trkpt lat="47.5763" lon="5.82389">
        <ele>192.40039</ele>
        <time>2026-05-16T11:52:59+02:00</time>
      </trkpt>
      <trkpt lat="47.57633" lon="5.82397">
        <ele>192.40039</ele>
        <time>2026-05-16T11:53:00+02:00</time>
      </trkpt>
      <trkpt lat="47.57635" lon="5.82405">
        <ele>192.40039</ele>
        <time>2026-05-16T11:53:01+02:00</time>
      </trkpt>
      <trkpt lat="47.57638" lon="5.82413">
        <ele>192.2998</ele>
        <time>2026-05-16T11:53:02+02:00</time>
      </trkpt>
      <trkpt lat="47.5764" lon="5.82421">
        <ele>192.2998</ele>
        <time>2026-05-16T11:53:03+02:00</time>
      </trkpt>
      <trkpt lat="47.57643" lon="5.82429">
        <ele>192.2998</ele>
        <time>2026-05-16T11:53:04+02:00</time>
      </trkpt>
      <trkpt lat="47.57646" lon="5.82437">
        <ele>192.2998</ele>
        <time>2026-05-16T11:53:05+02:00</time>
      </trkpt>
      <trkpt lat="47.57648" lon="5.82445">
        <ele>192.2002</ele>
        <time>2026-05-16T11:53:06+02:00</time>
      </trkpt>
      <trkpt lat="47.57651" lon="5.82452">
        <ele>192.2002</ele>
        <time>2026-05-16T11:53:07+02:00</time>
      </trkpt>
      <trkpt lat="47.57654" lon="5.8246">
        <ele>192.2002</ele>
        <time>2026-05-16T11:53:08+02:00</time>
      </trkpt>
      <trkpt lat="47.57656" lon="5.82468">
        <ele>192.2998</ele>
        <time>2026-05-16T11:53:09+02:00</time>
      </trkpt>
      <trkpt lat="47.57659" lon="5.82475">
        <ele>192.40039</ele>
        <time>2026-05-16T11:53:10+02:00</time>
      </trkpt>
      <trkpt lat="47.57662" lon="5.82482">
        <ele>192.40039</ele>
        <time>2026-05-16T11:53:11+02:00</time>
      </trkpt>
      <trkpt lat="47.57665" lon="5.8249">
        <ele>192.2998</ele>
        <time>2026-05-16T11:53:12+02:00</time>
      </trkpt>
      <trkpt lat="47.57668" lon="5.82497">
        <ele>192.2998</ele>
        <time>2026-05-16T11:53:13+02:00</time>
      </trkpt>
      <trkpt lat="47.57671" lon="5.82505">
        <ele>192.2002</ele>
        <time>2026-05-16T11:53:14+02:00</time>
      </trkpt>
      <trkpt lat="47.57673" lon="5.82512">
        <ele>192.2002</ele>
        <time>2026-05-16T11:53:15+02:00</time>
      </trkpt>
      <trkpt lat="47.57676" lon="5.82519">
        <ele>192.2002</ele>
        <time>2026-05-16T11:53:16+02:00</time>
      </trkpt>
      <trkpt lat="47.57679" lon="5.82525">
        <ele>192.2998</ele>
        <time>2026-05-16T11:53:17+02:00</time>
      </trkpt>
      <trkpt lat="47.57681" lon="5.82531">
        <ele>192.2998</ele>
        <time>2026-05-16T11:53:18+02:00</time>
      </trkpt>
      <trkpt lat="47.57684" lon="5.82537">
        <ele>192.2998</ele>
        <time>2026-05-16T11:53:19+02:00</time>
      </trkpt>
      <trkpt lat="47.57686" lon="5.82543">
        <ele>192.2998</ele>
        <time>2026-05-16T11:53:20+02:00</time>
      </trkpt>
      <trkpt lat="47.57688" lon="5.82548">
        <ele>192.2998</ele>
        <time>2026-05-16T11:53:21+02:00</time>
      </trkpt>
      <trkpt lat="47.5769" lon="5.82553">
        <ele>192.2998</ele>
        <time>2026-05-16T11:53:22+02:00</time>
      </trkpt>
      <trkpt lat="47.57692" lon="5.82558">
        <ele>192.2998</ele>
        <time>2026-05-16T11:53:23+02:00</time>
      </trkpt>
      <trkpt lat="47.577" lon="5.82577">
        <ele>192.2002</ele>
        <time>2026-05-16T11:53:24+02:00</time>
      </trkpt>
      <trkpt lat="47.57702" lon="5.82581">
        <ele>192.2002</ele>
        <time>2026-05-16T11:53:25+02:00</time>
      </trkpt>
      <trkpt lat="47.57704" lon="5.82585">
        <ele>192.2002</ele>
        <time>2026-05-16T11:53:26+02:00</time>
      </trkpt>
      <trkpt lat="47.57706" lon="5.82587">
        <ele>192.2002</ele>
        <time>2026-05-16T11:53:27+02:00</time>
      </trkpt>
      <trkpt lat="47.57708" lon="5.8259">
        <ele>192.2002</ele>
        <time>2026-05-16T11:53:28+02:00</time>
      </trkpt>
      <trkpt lat="47.57711" lon="5.82591">
        <ele>192.40039</ele>
        <time>2026-05-16T11:53:29+02:00</time>
      </trkpt>
      <trkpt lat="47.57715" lon="5.82592">
        <ele>192.40039</ele>
        <time>2026-05-16T11:53:30+02:00</time>
      </trkpt>
      <trkpt lat="47.57719" lon="5.82591">
        <ele>192.90039</ele>
        <time>2026-05-16T11:53:31+02:00</time>
      </trkpt>
      <trkpt lat="47.57724" lon="5.82591">
        <ele>193.60059</ele>
        <time>2026-05-16T11:53:32+02:00</time>
      </trkpt>
      <trkpt lat="47.57729" lon="5.82591">
        <ele>194.40039</ele>
        <time>2026-05-16T11:53:33+02:00</time>
      </trkpt>
      <trkpt lat="47.57734" lon="5.82591">
        <ele>195.2002</ele>
        <time>2026-05-16T11:53:34+02:00</time>
      </trkpt>
      <trkpt lat="47.57741" lon="5.82591">
        <ele>196.2998</ele>
        <time>2026-05-16T11:53:35+02:00</time>
      </trkpt>
      <trkpt lat="47.57746" lon="5.82592">
        <ele>197.40039</ele>
        <time>2026-05-16T11:53:36+02:00</time>
      </trkpt>
      <trkpt lat="47.57753" lon="5.82594">
        <ele>198.2002</ele>
        <time>2026-05-16T11:53:37+02:00</time>
      </trkpt>
      <trkpt lat="47.57759" lon="5.82595">
        <ele>198.40039</ele>
        <time>2026-05-16T11:53:38+02:00</time>
      </trkpt>
      <trkpt lat="47.57766" lon="5.82598">
        <ele>198.40039</ele>
        <time>2026-05-16T11:53:39+02:00</time>
      </trkpt>
      <trkpt lat="47.57772" lon="5.826">
        <ele>198.40039</ele>
        <time>2026-05-16T11:53:40+02:00</time>
      </trkpt>
      <trkpt lat="47.57779" lon="5.82603">
        <ele>198.40039</ele>
        <time>2026-05-16T11:53:41+02:00</time>
      </trkpt>
      <trkpt lat="47.57786" lon="5.82606">
        <ele>198.40039</ele>
        <time>2026-05-16T11:53:42+02:00</time>
      </trkpt>
      <trkpt lat="47.57793" lon="5.82609">
        <ele>198.5</ele>
        <time>2026-05-16T11:53:43+02:00</time>
      </trkpt>
      <trkpt lat="47.578" lon="5.82612">
        <ele>198.5</ele>
        <time>2026-05-16T11:53:44+02:00</time>
      </trkpt>
      <trkpt lat="47.57807" lon="5.82615">
        <ele>198.60059</ele>
        <time>2026-05-16T11:53:45+02:00</time>
      </trkpt>
      <trkpt lat="47.57815" lon="5.82618">
        <ele>198.60059</ele>
        <time>2026-05-16T11:53:46+02:00</time>
      </trkpt>
      <trkpt lat="47.57822" lon="5.82622">
        <ele>198.60059</ele>
        <time>2026-05-16T11:53:47+02:00</time>
      </trkpt>
      <trkpt lat="47.57829" lon="5.82625">
        <ele>198.60059</ele>
        <time>2026-05-16T11:53:48+02:00</time>
      </trkpt>
      <trkpt lat="47.57837" lon="5.82628">
        <ele>198.7002</ele>
        <time>2026-05-16T11:53:49+02:00</time>
      </trkpt>
      <trkpt lat="47.57844" lon="5.82631">
        <ele>198.60059</ele>
        <time>2026-05-16T11:53:50+02:00</time>
      </trkpt>
      <trkpt lat="47.57851" lon="5.82635">
        <ele>198.60059</ele>
        <time>2026-05-16T11:53:51+02:00</time>
      </trkpt>
      <trkpt lat="47.57858" lon="5.82638">
        <ele>198.60059</ele>
        <time>2026-05-16T11:53:52+02:00</time>
      </trkpt>
      <trkpt lat="47.57865" lon="5.82641">
        <ele>198.60059</ele>
        <time>2026-05-16T11:53:53+02:00</time>
      </trkpt>
      <trkpt lat="47.57872" lon="5.82644">
        <ele>198.5</ele>
        <time>2026-05-16T11:53:54+02:00</time>
      </trkpt>
      <trkpt lat="47.57879" lon="5.82647">
        <ele>198.40039</ele>
        <time>2026-05-16T11:53:55+02:00</time>
      </trkpt>
      <trkpt lat="47.57885" lon="5.82649">
        <ele>198.2998</ele>
        <time>2026-05-16T11:53:56+02:00</time>
      </trkpt>
      <trkpt lat="47.57892" lon="5.82652">
        <ele>198.2998</ele>
        <time>2026-05-16T11:53:57+02:00</time>
      </trkpt>
      <trkpt lat="47.57898" lon="5.82655">
        <ele>198.2998</ele>
        <time>2026-05-16T11:53:58+02:00</time>
      </trkpt>
      <trkpt lat="47.57905" lon="5.82658">
        <ele>198.2002</ele>
        <time>2026-05-16T11:53:59+02:00</time>
      </trkpt>
      <trkpt lat="47.57911" lon="5.8266">
        <ele>198.10059</ele>
        <time>2026-05-16T11:54:00+02:00</time>
      </trkpt>
      <trkpt lat="47.57918" lon="5.82663">
        <ele>198.10059</ele>
        <time>2026-05-16T11:54:01+02:00</time>
      </trkpt>
      <trkpt lat="47.57924" lon="5.82665">
        <ele>198</ele>
        <time>2026-05-16T11:54:02+02:00</time>
      </trkpt>
      <trkpt lat="47.57931" lon="5.82668">
        <ele>197.90039</ele>
        <time>2026-05-16T11:54:03+02:00</time>
      </trkpt>
      <trkpt lat="47.57938" lon="5.82671">
        <ele>197.7998</ele>
        <time>2026-05-16T11:54:04+02:00</time>
      </trkpt>
      <trkpt lat="47.57944" lon="5.82674">
        <ele>197.7002</ele>
        <time>2026-05-16T11:54:05+02:00</time>
      </trkpt>
      <trkpt lat="47.57951" lon="5.82676">
        <ele>197.7002</ele>
        <time>2026-05-16T11:54:06+02:00</time>
      </trkpt>
      <trkpt lat="47.57958" lon="5.82679">
        <ele>197.60059</ele>
        <time>2026-05-16T11:54:07+02:00</time>
      </trkpt>
      <trkpt lat="47.57964" lon="5.82682">
        <ele>197.5</ele>
        <time>2026-05-16T11:54:08+02:00</time>
      </trkpt>
      <trkpt lat="47.57971" lon="5.82685">
        <ele>197.5</ele>
        <time>2026-05-16T11:54:09+02:00</time>
      </trkpt>
      <trkpt lat="47.57977" lon="5.82688">
        <ele>197.5</ele>
        <time>2026-05-16T11:54:10+02:00</time>
      </trkpt>
      <trkpt lat="47.57984" lon="5.82691">
        <ele>197.5</ele>
        <time>2026-05-16T11:54:11+02:00</time>
      </trkpt>
      <trkpt lat="47.5799" lon="5.82694">
        <ele>197.5</ele>
        <time>2026-05-16T11:54:12+02:00</time>
      </trkpt>
      <trkpt lat="47.57996" lon="5.82696">
        <ele>197.5</ele>
        <time>2026-05-16T11:54:13+02:00</time>
      </trkpt>
      <trkpt lat="47.58003" lon="5.82699">
        <ele>197.5</ele>
        <time>2026-05-16T11:54:14+02:00</time>
      </trkpt>
      <trkpt lat="47.58009" lon="5.82702">
        <ele>197.60059</ele>
        <time>2026-05-16T11:54:15+02:00</time>
      </trkpt>
      <trkpt lat="47.58016" lon="5.82705">
        <ele>197.60059</ele>
        <time>2026-05-16T11:54:16+02:00</time>
      </trkpt>
      <trkpt lat="47.58022" lon="5.82707">
        <ele>197.7002</ele>
        <time>2026-05-16T11:54:17+02:00</time>
      </trkpt>
      <trkpt lat="47.58029" lon="5.8271">
        <ele>197.90039</ele>
        <time>2026-05-16T11:54:18+02:00</time>
      </trkpt>
      <trkpt lat="47.58035" lon="5.82713">
        <ele>198</ele>
        <time>2026-05-16T11:54:19+02:00</time>
      </trkpt>
      <trkpt lat="47.58041" lon="5.82715">
        <ele>198</ele>
        <time>2026-05-16T11:54:20+02:00</time>
      </trkpt>
      <trkpt lat="47.58047" lon="5.82718">
        <ele>198.10059</ele>
        <time>2026-05-16T11:54:21+02:00</time>
      </trkpt>
      <trkpt lat="47.58054" lon="5.82721">
        <ele>198.2002</ele>
        <time>2026-05-16T11:54:22+02:00</time>
      </trkpt>
      <trkpt lat="47.5806" lon="5.82723">
        <ele>198.2998</ele>
        <time>2026-05-16T11:54:23+02:00</time>
      </trkpt>
      <trkpt lat="47.58066" lon="5.82726">
        <ele>198.40039</ele>
        <time>2026-05-16T11:54:24+02:00</time>
      </trkpt>
      <trkpt lat="47.58072" lon="5.82729">
        <ele>198.40039</ele>
        <time>2026-05-16T11:54:25+02:00</time>
      </trkpt>
      <trkpt lat="47.58079" lon="5.82732">
        <ele>198.5</ele>
        <time>2026-05-16T11:54:26+02:00</time>
      </trkpt>
      <trkpt lat="47.58085" lon="5.82734">
        <ele>198.60059</ele>
        <time>2026-05-16T11:54:27+02:00</time>
      </trkpt>
      <trkpt lat="47.58092" lon="5.82737">
        <ele>198.7002</ele>
        <time>2026-05-16T11:54:28+02:00</time>
      </trkpt>
      <trkpt lat="47.58098" lon="5.8274">
        <ele>198.7002</ele>
        <time>2026-05-16T11:54:29+02:00</time>
      </trkpt>
      <trkpt lat="47.58104" lon="5.82743">
        <ele>198.90039</ele>
        <time>2026-05-16T11:54:30+02:00</time>
      </trkpt>
      <trkpt lat="47.58111" lon="5.82745">
        <ele>199.10059</ele>
        <time>2026-05-16T11:54:31+02:00</time>
      </trkpt>
      <trkpt lat="47.58117" lon="5.82748">
        <ele>199.2002</ele>
        <time>2026-05-16T11:54:32+02:00</time>
      </trkpt>
      <trkpt lat="47.58124" lon="5.82751">
        <ele>199.2998</ele>
        <time>2026-05-16T11:54:33+02:00</time>
      </trkpt>
      <trkpt lat="47.5813" lon="5.82754">
        <ele>199.5</ele>
        <time>2026-05-16T11:54:34+02:00</time>
      </trkpt>
      <trkpt lat="47.58136" lon="5.82756">
        <ele>199.60059</ele>
        <time>2026-05-16T11:54:35+02:00</time>
      </trkpt>
      <trkpt lat="47.58143" lon="5.82759">
        <ele>199.7002</ele>
        <time>2026-05-16T11:54:36+02:00</time>
      </trkpt>
      <trkpt lat="47.58149" lon="5.82762">
        <ele>199.90039</ele>
        <time>2026-05-16T11:54:37+02:00</time>
      </trkpt>
      <trkpt lat="47.58156" lon="5.82764">
        <ele>200</ele>
        <time>2026-05-16T11:54:38+02:00</time>
      </trkpt>
      <trkpt lat="47.58162" lon="5.82767">
        <ele>200.10059</ele>
        <time>2026-05-16T11:54:39+02:00</time>
      </trkpt>
      <trkpt lat="47.58169" lon="5.8277">
        <ele>200.2998</ele>
        <time>2026-05-16T11:54:40+02:00</time>
      </trkpt>
      <trkpt lat="47.58175" lon="5.82773">
        <ele>200.40039</ele>
        <time>2026-05-16T11:54:41+02:00</time>
      </trkpt>
      <trkpt lat="47.58181" lon="5.82776">
        <ele>200.40039</ele>
        <time>2026-05-16T11:54:42+02:00</time>
      </trkpt>
      <trkpt lat="47.58188" lon="5.82778">
        <ele>200.5</ele>
        <time>2026-05-16T11:54:43+02:00</time>
      </trkpt>
      <trkpt lat="47.58194" lon="5.82781">
        <ele>200.5</ele>
        <time>2026-05-16T11:54:44+02:00</time>
      </trkpt>
      <trkpt lat="47.582" lon="5.82784">
        <ele>200.5</ele>
        <time>2026-05-16T11:54:45+02:00</time>
      </trkpt>
      <trkpt lat="47.58206" lon="5.82786">
        <ele>200.60059</ele>
        <time>2026-05-16T11:54:46+02:00</time>
      </trkpt>
      <trkpt lat="47.58212" lon="5.82789">
        <ele>200.60059</ele>
        <time>2026-05-16T11:54:47+02:00</time>
      </trkpt>
      <trkpt lat="47.58218" lon="5.82791">
        <ele>200.60059</ele>
        <time>2026-05-16T11:54:48+02:00</time>
      </trkpt>
      <trkpt lat="47.58223" lon="5.82793">
        <ele>200.60059</ele>
        <time>2026-05-16T11:54:49+02:00</time>
      </trkpt>
      <trkpt lat="47.58228" lon="5.82795">
        <ele>200.60059</ele>
        <time>2026-05-16T11:54:50+02:00</time>
      </trkpt>
      <trkpt lat="47.58233" lon="5.82797">
        <ele>200.7002</ele>
        <time>2026-05-16T11:54:51+02:00</time>
      </trkpt>
      <trkpt lat="47.58238" lon="5.82799">
        <ele>200.60059</ele>
        <time>2026-05-16T11:54:52+02:00</time>
      </trkpt>
      <trkpt lat="47.58243" lon="5.82801">
        <ele>200.60059</ele>
        <time>2026-05-16T11:54:53+02:00</time>
      </trkpt>
      <trkpt lat="47.58248" lon="5.82803">
        <ele>200.60059</ele>
        <time>2026-05-16T11:54:54+02:00</time>
      </trkpt>
      <trkpt lat="47.58253" lon="5.82804">
        <ele>200.7002</ele>
        <time>2026-05-16T11:54:55+02:00</time>
      </trkpt>
      <trkpt lat="47.58259" lon="5.82806">
        <ele>200.7002</ele>
        <time>2026-05-16T11:54:56+02:00</time>
      </trkpt>
      <trkpt lat="47.58264" lon="5.82807">
        <ele>200.7998</ele>
        <time>2026-05-16T11:54:57+02:00</time>
      </trkpt>
      <trkpt lat="47.5827" lon="5.82808">
        <ele>200.7002</ele>
        <time>2026-05-16T11:54:58+02:00</time>
      </trkpt>
      <trkpt lat="47.58273" lon="5.82809">
        <ele>200.7998</ele>
        <time>2026-05-16T11:54:59+02:00</time>
      </trkpt>
      <trkpt lat="47.58283" lon="5.82811">
        <ele>200.7998</ele>
        <time>2026-05-16T11:55:00+02:00</time>
      </trkpt>
      <trkpt lat="47.58288" lon="5.82813">
        <ele>200.90039</ele>
        <time>2026-05-16T11:55:01+02:00</time>
      </trkpt>
      <trkpt lat="47.58294" lon="5.82814">
        <ele>200.90039</ele>
        <time>2026-05-16T11:55:02+02:00</time>
      </trkpt>
      <trkpt lat="47.583" lon="5.82816">
        <ele>201</ele>
        <time>2026-05-16T11:55:03+02:00</time>
      </trkpt>
      <trkpt lat="47.58306" lon="5.82818">
        <ele>201</ele>
        <time>2026-05-16T11:55:04+02:00</time>
      </trkpt>
      <trkpt lat="47.58312" lon="5.82819">
        <ele>201</ele>
        <time>2026-05-16T11:55:05+02:00</time>
      </trkpt>
      <trkpt lat="47.58318" lon="5.82821">
        <ele>201.10059</ele>
        <time>2026-05-16T11:55:06+02:00</time>
      </trkpt>
      <trkpt lat="47.58325" lon="5.82822">
        <ele>201.2002</ele>
        <time>2026-05-16T11:55:07+02:00</time>
      </trkpt>
      <trkpt lat="47.58331" lon="5.82824">
        <ele>201.2002</ele>
        <time>2026-05-16T11:55:08+02:00</time>
      </trkpt>
      <trkpt lat="47.58337" lon="5.82825">
        <ele>201.2002</ele>
        <time>2026-05-16T11:55:09+02:00</time>
      </trkpt>
      <trkpt lat="47.58343" lon="5.82827">
        <ele>201.2002</ele>
        <time>2026-05-16T11:55:10+02:00</time>
      </trkpt>
      <trkpt lat="47.58349" lon="5.82828">
        <ele>201.2002</ele>
        <time>2026-05-16T11:55:11+02:00</time>
      </trkpt>
      <trkpt lat="47.58355" lon="5.8283">
        <ele>201.2002</ele>
        <time>2026-05-16T11:55:12+02:00</time>
      </trkpt>
      <trkpt lat="47.58361" lon="5.82831">
        <ele>201.10059</ele>
        <time>2026-05-16T11:55:13+02:00</time>
      </trkpt>
      <trkpt lat="47.58367" lon="5.82832">
        <ele>201.10059</ele>
        <time>2026-05-16T11:55:14+02:00</time>
      </trkpt>
      <trkpt lat="47.58373" lon="5.82834">
        <ele>200.5</ele>
        <time>2026-05-16T11:55:15+02:00</time>
      </trkpt>
      <trkpt lat="47.58379" lon="5.82835">
        <ele>200.5</ele>
        <time>2026-05-16T11:55:16+02:00</time>
      </trkpt>
      <trkpt lat="47.58386" lon="5.82837">
        <ele>200.40039</ele>
        <time>2026-05-16T11:55:17+02:00</time>
      </trkpt>
      <trkpt lat="47.58392" lon="5.82839">
        <ele>200.2998</ele>
        <time>2026-05-16T11:55:18+02:00</time>
      </trkpt>
      <trkpt lat="47.58399" lon="5.8284">
        <ele>200.2998</ele>
        <time>2026-05-16T11:55:19+02:00</time>
      </trkpt>
      <trkpt lat="47.58405" lon="5.82842">
        <ele>198.7002</ele>
        <time>2026-05-16T11:55:20+02:00</time>
      </trkpt>
      <trkpt lat="47.58412" lon="5.82843">
        <ele>198.5</ele>
        <time>2026-05-16T11:55:21+02:00</time>
      </trkpt>
      <trkpt lat="47.58419" lon="5.82845">
        <ele>198.5</ele>
        <time>2026-05-16T11:55:22+02:00</time>
      </trkpt>
      <trkpt lat="47.58426" lon="5.82846">
        <ele>198.40039</ele>
        <time>2026-05-16T11:55:23+02:00</time>
      </trkpt>
      <trkpt lat="47.58433" lon="5.82847">
        <ele>198.40039</ele>
        <time>2026-05-16T11:55:24+02:00</time>
      </trkpt>
      <trkpt lat="47.58439" lon="5.82849">
        <ele>198.2998</ele>
        <time>2026-05-16T11:55:25+02:00</time>
      </trkpt>
      <trkpt lat="47.58446" lon="5.8285">
        <ele>198.2002</ele>
        <time>2026-05-16T11:55:26+02:00</time>
      </trkpt>
      <trkpt lat="47.58452" lon="5.82852">
        <ele>196.5</ele>
        <time>2026-05-16T11:55:27+02:00</time>
      </trkpt>
      <trkpt lat="47.58459" lon="5.82853">
        <ele>196.40039</ele>
        <time>2026-05-16T11:55:28+02:00</time>
      </trkpt>
      <trkpt lat="47.58465" lon="5.82855">
        <ele>196.5</ele>
        <time>2026-05-16T11:55:29+02:00</time>
      </trkpt>
      <trkpt lat="47.58472" lon="5.82856">
        <ele>196.60059</ele>
        <time>2026-05-16T11:55:30+02:00</time>
      </trkpt>
      <trkpt lat="47.58478" lon="5.82857">
        <ele>196.7998</ele>
        <time>2026-05-16T11:55:31+02:00</time>
      </trkpt>
      <trkpt lat="47.58484" lon="5.82856">
        <ele>197</ele>
        <time>2026-05-16T11:55:32+02:00</time>
      </trkpt>
      <trkpt lat="47.5849" lon="5.82855">
        <ele>197.2002</ele>
        <time>2026-05-16T11:55:33+02:00</time>
      </trkpt>
      <trkpt lat="47.58496" lon="5.82853">
        <ele>197.5</ele>
        <time>2026-05-16T11:55:34+02:00</time>
      </trkpt>
      <trkpt lat="47.58502" lon="5.82851">
        <ele>197.7002</ele>
        <time>2026-05-16T11:55:35+02:00</time>
      </trkpt>
      <trkpt lat="47.58507" lon="5.82848">
        <ele>199.2998</ele>
        <time>2026-05-16T11:55:36+02:00</time>
      </trkpt>
      <trkpt lat="47.58513" lon="5.82845">
        <ele>199.7002</ele>
        <time>2026-05-16T11:55:37+02:00</time>
      </trkpt>
      <trkpt lat="47.58519" lon="5.82842">
        <ele>200.40039</ele>
        <time>2026-05-16T11:55:38+02:00</time>
      </trkpt>
      <trkpt lat="47.58524" lon="5.82839">
        <ele>201.7002</ele>
        <time>2026-05-16T11:55:39+02:00</time>
      </trkpt>
      <trkpt lat="47.58529" lon="5.82836">
        <ele>202.2002</ele>
        <time>2026-05-16T11:55:40+02:00</time>
      </trkpt>
      <trkpt lat="47.58535" lon="5.82833">
        <ele>202.60059</ele>
        <time>2026-05-16T11:55:41+02:00</time>
      </trkpt>
      <trkpt lat="47.5854" lon="5.8283">
        <ele>202.7998</ele>
        <time>2026-05-16T11:55:42+02:00</time>
      </trkpt>
      <trkpt lat="47.58545" lon="5.82827">
        <ele>203</ele>
        <time>2026-05-16T11:55:43+02:00</time>
      </trkpt>
      <trkpt lat="47.5855" lon="5.82824">
        <ele>203.2002</ele>
        <time>2026-05-16T11:55:44+02:00</time>
      </trkpt>
      <trkpt lat="47.58555" lon="5.82821">
        <ele>203.60059</ele>
        <time>2026-05-16T11:55:45+02:00</time>
      </trkpt>
      <trkpt lat="47.5856" lon="5.82818">
        <ele>204.10059</ele>
        <time>2026-05-16T11:55:46+02:00</time>
      </trkpt>
      <trkpt lat="47.58565" lon="5.82815">
        <ele>204.90039</ele>
        <time>2026-05-16T11:55:47+02:00</time>
      </trkpt>
      <trkpt lat="47.5857" lon="5.82812">
        <ele>205.40039</ele>
        <time>2026-05-16T11:55:48+02:00</time>
      </trkpt>
      <trkpt lat="47.58572" lon="5.82811">
        <ele>205.40039</ele>
        <time>2026-05-16T11:55:49+02:00</time>
      </trkpt>
      <trkpt lat="47.58579" lon="5.82807">
        <ele>206.10059</ele>
        <time>2026-05-16T11:55:50+02:00</time>
      </trkpt>
      <trkpt lat="47.58584" lon="5.82806">
        <ele>206.7002</ele>
        <time>2026-05-16T11:55:51+02:00</time>
      </trkpt>
      <trkpt lat="47.58589" lon="5.82804">
        <ele>207.2998</ele>
        <time>2026-05-16T11:55:52+02:00</time>
      </trkpt>
      <trkpt lat="47.58593" lon="5.82803">
        <ele>207.90039</ele>
        <time>2026-05-16T11:55:53+02:00</time>
      </trkpt>
      <trkpt lat="47.58597" lon="5.82803">
        <ele>208.40039</ele>
        <time>2026-05-16T11:55:54+02:00</time>
      </trkpt>
      <trkpt lat="47.58601" lon="5.82802">
        <ele>208.40039</ele>
        <time>2026-05-16T11:55:55+02:00</time>
      </trkpt>
      <trkpt lat="47.58605" lon="5.82802">
        <ele>209</ele>
        <time>2026-05-16T11:55:56+02:00</time>
      </trkpt>
      <trkpt lat="47.58608" lon="5.82803">
        <ele>209.60059</ele>
        <time>2026-05-16T11:55:57+02:00</time>
      </trkpt>
      <trkpt lat="47.58612" lon="5.82803">
        <ele>209.60059</ele>
        <time>2026-05-16T11:55:58+02:00</time>
      </trkpt>
      <trkpt lat="47.58614" lon="5.82803">
        <ele>210.2998</ele>
        <time>2026-05-16T11:55:59+02:00</time>
      </trkpt>
      <trkpt lat="47.58619" lon="5.82804">
        <ele>210.2998</ele>
        <time>2026-05-16T11:56:00+02:00</time>
      </trkpt>
      <trkpt lat="47.58623" lon="5.82803">
        <ele>210.90039</ele>
        <time>2026-05-16T11:56:01+02:00</time>
      </trkpt>
      <trkpt lat="47.58626" lon="5.82803">
        <ele>211.5</ele>
        <time>2026-05-16T11:56:02+02:00</time>
      </trkpt>
      <trkpt lat="47.5863" lon="5.82803">
        <ele>211.5</ele>
        <time>2026-05-16T11:56:03+02:00</time>
      </trkpt>
      <trkpt lat="47.58634" lon="5.82803">
        <ele>212.2002</ele>
        <time>2026-05-16T11:56:04+02:00</time>
      </trkpt>
      <trkpt lat="47.58637" lon="5.82803">
        <ele>212.90039</ele>
        <time>2026-05-16T11:56:05+02:00</time>
      </trkpt>
      <trkpt lat="47.5864" lon="5.82803">
        <ele>212.90039</ele>
        <time>2026-05-16T11:56:06+02:00</time>
      </trkpt>
      <trkpt lat="47.58644" lon="5.82802">
        <ele>213.60059</ele>
        <time>2026-05-16T11:56:07+02:00</time>
      </trkpt>
      <trkpt lat="47.58648" lon="5.82802">
        <ele>213.60059</ele>
        <time>2026-05-16T11:56:08+02:00</time>
      </trkpt>
      <trkpt lat="47.58649" lon="5.82801">
        <ele>214.2998</ele>
        <time>2026-05-16T11:56:09+02:00</time>
      </trkpt>
      <trkpt lat="47.58654" lon="5.828">
        <ele>214.2998</ele>
        <time>2026-05-16T11:56:10+02:00</time>
      </trkpt>
      <trkpt lat="47.58657" lon="5.82799">
        <ele>215</ele>
        <time>2026-05-16T11:56:11+02:00</time>
      </trkpt>
      <trkpt lat="47.5866" lon="5.82798">
        <ele>215.5</ele>
        <time>2026-05-16T11:56:12+02:00</time>
      </trkpt>
      <trkpt lat="47.58663" lon="5.82798">
        <ele>215.5</ele>
        <time>2026-05-16T11:56:13+02:00</time>
      </trkpt>
      <trkpt lat="47.58666" lon="5.82797">
        <ele>216.10059</ele>
        <time>2026-05-16T11:56:14+02:00</time>
      </trkpt>
      <trkpt lat="47.5867" lon="5.82796">
        <ele>216.10059</ele>
        <time>2026-05-16T11:56:15+02:00</time>
      </trkpt>
      <trkpt lat="47.58673" lon="5.82796">
        <ele>216.7998</ele>
        <time>2026-05-16T11:56:16+02:00</time>
      </trkpt>
      <trkpt lat="47.58676" lon="5.82795">
        <ele>216.7998</ele>
        <time>2026-05-16T11:56:17+02:00</time>
      </trkpt>
      <trkpt lat="47.5868" lon="5.82794">
        <ele>217.2998</ele>
        <time>2026-05-16T11:56:18+02:00</time>
      </trkpt>
      <trkpt lat="47.58683" lon="5.82793">
        <ele>217.2998</ele>
        <time>2026-05-16T11:56:19+02:00</time>
      </trkpt>
      <trkpt lat="47.58686" lon="5.82793">
        <ele>217.90039</ele>
        <time>2026-05-16T11:56:20+02:00</time>
      </trkpt>
      <trkpt lat="47.58689" lon="5.82792">
        <ele>218.40039</ele>
        <time>2026-05-16T11:56:21+02:00</time>
      </trkpt>
      <trkpt lat="47.58693" lon="5.82792">
        <ele>218.40039</ele>
        <time>2026-05-16T11:56:22+02:00</time>
      </trkpt>
      <trkpt lat="47.58696" lon="5.82793">
        <ele>218.90039</ele>
        <time>2026-05-16T11:56:23+02:00</time>
      </trkpt>
      <trkpt lat="47.58698" lon="5.82795">
        <ele>218.90039</ele>
        <time>2026-05-16T11:56:24+02:00</time>
      </trkpt>
      <trkpt lat="47.587" lon="5.82797">
        <ele>218.90039</ele>
        <time>2026-05-16T11:56:25+02:00</time>
      </trkpt>
      <trkpt lat="47.58703" lon="5.82799">
        <ele>219.5</ele>
        <time>2026-05-16T11:56:26+02:00</time>
      </trkpt>
      <trkpt lat="47.58704" lon="5.82801">
        <ele>219.5</ele>
        <time>2026-05-16T11:56:27+02:00</time>
      </trkpt>
      <trkpt lat="47.58708" lon="5.82804">
        <ele>220</ele>
        <time>2026-05-16T11:56:28+02:00</time>
      </trkpt>
      <trkpt lat="47.5871" lon="5.82806">
        <ele>220</ele>
        <time>2026-05-16T11:56:29+02:00</time>
      </trkpt>
      <trkpt lat="47.58713" lon="5.82808">
        <ele>220.40039</ele>
        <time>2026-05-16T11:56:30+02:00</time>
      </trkpt>
      <trkpt lat="47.58715" lon="5.82811">
        <ele>220.40039</ele>
        <time>2026-05-16T11:56:31+02:00</time>
      </trkpt>
      <trkpt lat="47.58717" lon="5.82814">
        <ele>220.40039</ele>
        <time>2026-05-16T11:56:32+02:00</time>
      </trkpt>
      <trkpt lat="47.58719" lon="5.82817">
        <ele>220.60059</ele>
        <time>2026-05-16T11:56:33+02:00</time>
      </trkpt>
      <trkpt lat="47.58721" lon="5.82821">
        <ele>220.60059</ele>
        <time>2026-05-16T11:56:34+02:00</time>
      </trkpt>
      <trkpt lat="47.58724" lon="5.82824">
        <ele>221</ele>
        <time>2026-05-16T11:56:35+02:00</time>
      </trkpt>
      <trkpt lat="47.58726" lon="5.82828">
        <ele>220.40039</ele>
        <time>2026-05-16T11:56:36+02:00</time>
      </trkpt>
      <trkpt lat="47.58728" lon="5.82833">
        <ele>220.40039</ele>
        <time>2026-05-16T11:56:37+02:00</time>
      </trkpt>
      <trkpt lat="47.5873" lon="5.82838">
        <ele>220</ele>
        <time>2026-05-16T11:56:38+02:00</time>
      </trkpt>
      <trkpt lat="47.58732" lon="5.82842">
        <ele>219.2002</ele>
        <time>2026-05-16T11:56:39+02:00</time>
      </trkpt>
      <trkpt lat="47.58735" lon="5.82847">
        <ele>219.2002</ele>
        <time>2026-05-16T11:56:40+02:00</time>
      </trkpt>
      <trkpt lat="47.58737" lon="5.82851">
        <ele>218.5</ele>
        <time>2026-05-16T11:56:41+02:00</time>
      </trkpt>
      <trkpt lat="47.58738" lon="5.82855">
        <ele>218.5</ele>
        <time>2026-05-16T11:56:42+02:00</time>
      </trkpt>
      <trkpt lat="47.5874" lon="5.82859">
        <ele>218.5</ele>
        <time>2026-05-16T11:56:43+02:00</time>
      </trkpt>
      <trkpt lat="47.58742" lon="5.82863">
        <ele>217.60059</ele>
        <time>2026-05-16T11:56:44+02:00</time>
      </trkpt>
      <trkpt lat="47.58744" lon="5.82867">
        <ele>217.60059</ele>
        <time>2026-05-16T11:56:45+02:00</time>
      </trkpt>
      <trkpt lat="47.58746" lon="5.82871">
        <ele>216.7998</ele>
        <time>2026-05-16T11:56:46+02:00</time>
      </trkpt>
      <trkpt lat="47.58748" lon="5.82875">
        <ele>216.90039</ele>
        <time>2026-05-16T11:56:47+02:00</time>
      </trkpt>
      <trkpt lat="47.58751" lon="5.82879">
        <ele>216</ele>
        <time>2026-05-16T11:56:48+02:00</time>
      </trkpt>
      <trkpt lat="47.58753" lon="5.82883">
        <ele>216</ele>
        <time>2026-05-16T11:56:49+02:00</time>
      </trkpt>
      <trkpt lat="47.58756" lon="5.82887">
        <ele>215</ele>
        <time>2026-05-16T11:56:50+02:00</time>
      </trkpt>
      <trkpt lat="47.58759" lon="5.82889">
        <ele>215.2998</ele>
        <time>2026-05-16T11:56:51+02:00</time>
      </trkpt>
      <trkpt lat="47.58761" lon="5.82892">
        <ele>215.2998</ele>
        <time>2026-05-16T11:56:52+02:00</time>
      </trkpt>
      <trkpt lat="47.58765" lon="5.82894">
        <ele>214.40039</ele>
        <time>2026-05-16T11:56:53+02:00</time>
      </trkpt>
      <trkpt lat="47.58769" lon="5.82896">
        <ele>214.40039</ele>
        <time>2026-05-16T11:56:54+02:00</time>
      </trkpt>
      <trkpt lat="47.58772" lon="5.82897">
        <ele>214.60059</ele>
        <time>2026-05-16T11:56:55+02:00</time>
      </trkpt>
      <trkpt lat="47.58776" lon="5.82899">
        <ele>214.90039</ele>
        <time>2026-05-16T11:56:56+02:00</time>
      </trkpt>
      <trkpt lat="47.58779" lon="5.82901">
        <ele>214.90039</ele>
        <time>2026-05-16T11:56:57+02:00</time>
      </trkpt>
      <trkpt lat="47.58782" lon="5.82902">
        <ele>213.90039</ele>
        <time>2026-05-16T11:56:58+02:00</time>
      </trkpt>
      <trkpt lat="47.58785" lon="5.82904">
        <ele>213.90039</ele>
        <time>2026-05-16T11:56:59+02:00</time>
      </trkpt>
      <trkpt lat="47.58785" lon="5.82904">
        <ele>213.90039</ele>
        <time>2026-05-16T11:57:00+02:00</time>
      </trkpt>
      <trkpt lat="47.58785" lon="5.82905">
        <ele>213.90039</ele>
        <time>2026-05-16T11:57:01+02:00</time>
      </trkpt>
      <trkpt lat="47.58785" lon="5.82905">
        <ele>213.90039</ele>
        <time>2026-05-16T11:57:02+02:00</time>
      </trkpt>
      <trkpt lat="47.58785" lon="5.82905">
        <ele>213.90039</ele>
        <time>2026-05-16T11:57:03+02:00</time>
      </trkpt>
      <trkpt lat="47.58785" lon="5.82905">
        <ele>213.90039</ele>
        <time>2026-05-16T11:57:04+02:00</time>
      </trkpt>
      <trkpt lat="47.58798" lon="5.82907">
        <ele>214.7998</ele>
        <time>2026-05-16T11:57:24+02:00</time>
      </trkpt>
      <trkpt lat="47.58801" lon="5.82908">
        <ele>215.5</ele>
        <time>2026-05-16T11:57:25+02:00</time>
      </trkpt>
      <trkpt lat="47.58804" lon="5.82909">
        <ele>215.5</ele>
        <time>2026-05-16T11:57:26+02:00</time>
      </trkpt>
      <trkpt lat="47.58807" lon="5.8291">
        <ele>216.40039</ele>
        <time>2026-05-16T11:57:27+02:00</time>
      </trkpt>
      <trkpt lat="47.5881" lon="5.8291">
        <ele>216.40039</ele>
        <time>2026-05-16T11:57:28+02:00</time>
      </trkpt>
      <trkpt lat="47.58814" lon="5.82911">
        <ele>216.2002</ele>
        <time>2026-05-16T11:57:29+02:00</time>
      </trkpt>
      <trkpt lat="47.58817" lon="5.82912">
        <ele>217.2998</ele>
        <time>2026-05-16T11:57:30+02:00</time>
      </trkpt>
      <trkpt lat="47.5882" lon="5.82913">
        <ele>217.2998</ele>
        <time>2026-05-16T11:57:31+02:00</time>
      </trkpt>
      <trkpt lat="47.58824" lon="5.82915">
        <ele>218.2998</ele>
        <time>2026-05-16T11:57:32+02:00</time>
      </trkpt>
      <trkpt lat="47.58828" lon="5.82915">
        <ele>219.40039</ele>
        <time>2026-05-16T11:57:33+02:00</time>
      </trkpt>
      <trkpt lat="47.58832" lon="5.82916">
        <ele>219.40039</ele>
        <time>2026-05-16T11:57:34+02:00</time>
      </trkpt>
      <trkpt lat="47.58836" lon="5.82917">
        <ele>220.5</ele>
        <time>2026-05-16T11:57:35+02:00</time>
      </trkpt>
      <trkpt lat="47.58837" lon="5.82917">
        <ele>220.5</ele>
        <time>2026-05-16T11:57:36+02:00</time>
      </trkpt>
      <trkpt lat="47.58843" lon="5.82919">
        <ele>221.60059</ele>
        <time>2026-05-16T11:57:37+02:00</time>
      </trkpt>
      <trkpt lat="47.58846" lon="5.82921">
        <ele>220.90039</ele>
        <time>2026-05-16T11:57:38+02:00</time>
      </trkpt>
      <trkpt lat="47.5885" lon="5.82922">
        <ele>220.90039</ele>
        <time>2026-05-16T11:57:39+02:00</time>
      </trkpt>
      <trkpt lat="47.58854" lon="5.82923">
        <ele>221.90039</ele>
        <time>2026-05-16T11:57:40+02:00</time>
      </trkpt>
      <trkpt lat="47.58857" lon="5.82924">
        <ele>222.90039</ele>
        <time>2026-05-16T11:57:41+02:00</time>
      </trkpt>
      <trkpt lat="47.5886" lon="5.82926">
        <ele>222.90039</ele>
        <time>2026-05-16T11:57:42+02:00</time>
      </trkpt>
      <trkpt lat="47.58864" lon="5.82927">
        <ele>223.90039</ele>
        <time>2026-05-16T11:57:43+02:00</time>
      </trkpt>
      <trkpt lat="47.58867" lon="5.82928">
        <ele>221.7002</ele>
        <time>2026-05-16T11:57:44+02:00</time>
      </trkpt>
      <trkpt lat="47.5887" lon="5.8293">
        <ele>222.7002</ele>
        <time>2026-05-16T11:57:45+02:00</time>
      </trkpt>
      <trkpt lat="47.58874" lon="5.82931">
        <ele>222.7002</ele>
        <time>2026-05-16T11:57:46+02:00</time>
      </trkpt>
      <trkpt lat="47.58879" lon="5.82932">
        <ele>223.7002</ele>
        <time>2026-05-16T11:57:47+02:00</time>
      </trkpt>
      <trkpt lat="47.58883" lon="5.82934">
        <ele>224.7002</ele>
        <time>2026-05-16T11:57:48+02:00</time>
      </trkpt>
      <trkpt lat="47.58887" lon="5.82935">
        <ele>225.7998</ele>
        <time>2026-05-16T11:57:49+02:00</time>
      </trkpt>
      <trkpt lat="47.58892" lon="5.82937">
        <ele>224.10059</ele>
        <time>2026-05-16T11:57:50+02:00</time>
      </trkpt>
      <trkpt lat="47.58897" lon="5.82939">
        <ele>224.10059</ele>
        <time>2026-05-16T11:57:51+02:00</time>
      </trkpt>
      <trkpt lat="47.58902" lon="5.82941">
        <ele>225.2002</ele>
        <time>2026-05-16T11:57:52+02:00</time>
      </trkpt>
      <trkpt lat="47.58906" lon="5.82943">
        <ele>226.2002</ele>
        <time>2026-05-16T11:57:53+02:00</time>
      </trkpt>
      <trkpt lat="47.58909" lon="5.82943">
        <ele>226.2002</ele>
        <time>2026-05-16T11:57:54+02:00</time>
      </trkpt>
      <trkpt lat="47.58916" lon="5.82946">
        <ele>225.2998</ele>
        <time>2026-05-16T11:57:55+02:00</time>
      </trkpt>
      <trkpt lat="47.58922" lon="5.82948">
        <ele>226</ele>
        <time>2026-05-16T11:57:56+02:00</time>
      </trkpt>
      <trkpt lat="47.58927" lon="5.82949">
        <ele>226.7002</ele>
        <time>2026-05-16T11:57:57+02:00</time>
      </trkpt>
      <trkpt lat="47.58932" lon="5.82951">
        <ele>227.2998</ele>
        <time>2026-05-16T11:57:58+02:00</time>
      </trkpt>
      <trkpt lat="47.58938" lon="5.82953">
        <ele>228</ele>
        <time>2026-05-16T11:57:59+02:00</time>
      </trkpt>
      <trkpt lat="47.58943" lon="5.82955">
        <ele>224.5</ele>
        <time>2026-05-16T11:58:00+02:00</time>
      </trkpt>
      <trkpt lat="47.58949" lon="5.82957">
        <ele>225</ele>
        <time>2026-05-16T11:58:01+02:00</time>
      </trkpt>
      <trkpt lat="47.58956" lon="5.82959">
        <ele>225.90039</ele>
        <time>2026-05-16T11:58:02+02:00</time>
      </trkpt>
      <trkpt lat="47.58962" lon="5.82961">
        <ele>226.2002</ele>
        <time>2026-05-16T11:58:03+02:00</time>
      </trkpt>
      <trkpt lat="47.58969" lon="5.82964">
        <ele>220.2998</ele>
        <time>2026-05-16T11:58:04+02:00</time>
      </trkpt>
      <trkpt lat="47.58976" lon="5.82966">
        <ele>220.10059</ele>
        <time>2026-05-16T11:58:05+02:00</time>
      </trkpt>
      <trkpt lat="47.58984" lon="5.82967">
        <ele>219.90039</ele>
        <time>2026-05-16T11:58:06+02:00</time>
      </trkpt>
      <trkpt lat="47.58992" lon="5.82969">
        <ele>219.60059</ele>
        <time>2026-05-16T11:58:07+02:00</time>
      </trkpt>
      <trkpt lat="47.58999" lon="5.82971">
        <ele>211.90039</ele>
        <time>2026-05-16T11:58:08+02:00</time>
      </trkpt>
      <trkpt lat="47.59008" lon="5.82974">
        <ele>211.7002</ele>
        <time>2026-05-16T11:58:09+02:00</time>
      </trkpt>
      <trkpt lat="47.59017" lon="5.82976">
        <ele>211.5</ele>
        <time>2026-05-16T11:58:10+02:00</time>
      </trkpt>
      <trkpt lat="47.59025" lon="5.82978">
        <ele>211.2998</ele>
        <time>2026-05-16T11:58:11+02:00</time>
      </trkpt>
      <trkpt lat="47.59034" lon="5.8298">
        <ele>205.2002</ele>
        <time>2026-05-16T11:58:12+02:00</time>
      </trkpt>
      <trkpt lat="47.59043" lon="5.82982">
        <ele>205</ele>
        <time>2026-05-16T11:58:13+02:00</time>
      </trkpt>
      <trkpt lat="47.59047" lon="5.82983">
        <ele>205</ele>
        <time>2026-05-16T11:58:14+02:00</time>
      </trkpt>
      <trkpt lat="47.5906" lon="5.82987">
        <ele>204.60059</ele>
        <time>2026-05-16T11:58:15+02:00</time>
      </trkpt>
      <trkpt lat="47.59068" lon="5.82989">
        <ele>198.5</ele>
        <time>2026-05-16T11:58:16+02:00</time>
      </trkpt>
      <trkpt lat="47.59076" lon="5.82992">
        <ele>198.40039</ele>
        <time>2026-05-16T11:58:17+02:00</time>
      </trkpt>
      <trkpt lat="47.59084" lon="5.82995">
        <ele>198</ele>
        <time>2026-05-16T11:58:18+02:00</time>
      </trkpt>
      <trkpt lat="47.59092" lon="5.82998">
        <ele>193.60059</ele>
        <time>2026-05-16T11:58:19+02:00</time>
      </trkpt>
      <trkpt lat="47.591" lon="5.83001">
        <ele>193.2998</ele>
        <time>2026-05-16T11:58:20+02:00</time>
      </trkpt>
      <trkpt lat="47.59108" lon="5.83003">
        <ele>193.10059</ele>
        <time>2026-05-16T11:58:21+02:00</time>
      </trkpt>
      <trkpt lat="47.59116" lon="5.83005">
        <ele>191.5</ele>
        <time>2026-05-16T11:58:22+02:00</time>
      </trkpt>
      <trkpt lat="47.59125" lon="5.83007">
        <ele>191.2002</ele>
        <time>2026-05-16T11:58:23+02:00</time>
      </trkpt>
      <trkpt lat="47.59133" lon="5.8301">
        <ele>190.60059</ele>
        <time>2026-05-16T11:58:24+02:00</time>
      </trkpt>
      <trkpt lat="47.59141" lon="5.83012">
        <ele>190.2998</ele>
        <time>2026-05-16T11:58:25+02:00</time>
      </trkpt>
      <trkpt lat="47.59149" lon="5.83014">
        <ele>190.7002</ele>
        <time>2026-05-16T11:58:26+02:00</time>
      </trkpt>
      <trkpt lat="47.59157" lon="5.83016">
        <ele>192.2998</ele>
        <time>2026-05-16T11:58:27+02:00</time>
      </trkpt>
      <trkpt lat="47.59164" lon="5.83017">
        <ele>196.2002</ele>
        <time>2026-05-16T11:58:28+02:00</time>
      </trkpt>
      <trkpt lat="47.59172" lon="5.83019">
        <ele>196.60059</ele>
        <time>2026-05-16T11:58:29+02:00</time>
      </trkpt>
      <trkpt lat="47.5918" lon="5.83021">
        <ele>196.7002</ele>
        <time>2026-05-16T11:58:30+02:00</time>
      </trkpt>
      <trkpt lat="47.59189" lon="5.83023">
        <ele>193.2998</ele>
        <time>2026-05-16T11:58:31+02:00</time>
      </trkpt>
      <trkpt lat="47.59197" lon="5.83025">
        <ele>193.2002</ele>
        <time>2026-05-16T11:58:32+02:00</time>
      </trkpt>
      <trkpt lat="47.59206" lon="5.83027">
        <ele>193.2002</ele>
        <time>2026-05-16T11:58:33+02:00</time>
      </trkpt>
      <trkpt lat="47.59215" lon="5.8303">
        <ele>193.10059</ele>
        <time>2026-05-16T11:58:34+02:00</time>
      </trkpt>
      <trkpt lat="47.59223" lon="5.83032">
        <ele>190.7998</ele>
        <time>2026-05-16T11:58:35+02:00</time>
      </trkpt>
      <trkpt lat="47.59232" lon="5.83035">
        <ele>190.5</ele>
        <time>2026-05-16T11:58:36+02:00</time>
      </trkpt>
      <trkpt lat="47.5924" lon="5.83037">
        <ele>191.90039</ele>
        <time>2026-05-16T11:58:37+02:00</time>
      </trkpt>
      <trkpt lat="47.59249" lon="5.8304">
        <ele>193</ele>
        <time>2026-05-16T11:58:38+02:00</time>
      </trkpt>
      <trkpt lat="47.59258" lon="5.83043">
        <ele>196</ele>
        <time>2026-05-16T11:58:39+02:00</time>
      </trkpt>
      <trkpt lat="47.59266" lon="5.83045">
        <ele>196.5</ele>
        <time>2026-05-16T11:58:40+02:00</time>
      </trkpt>
      <trkpt lat="47.59274" lon="5.83048">
        <ele>192.7002</ele>
        <time>2026-05-16T11:58:41+02:00</time>
      </trkpt>
      <trkpt lat="47.59283" lon="5.83051">
        <ele>193.5</ele>
        <time>2026-05-16T11:58:42+02:00</time>
      </trkpt>
      <trkpt lat="47.59292" lon="5.83053">
        <ele>198.5</ele>
        <time>2026-05-16T11:58:43+02:00</time>
      </trkpt>
      <trkpt lat="47.593" lon="5.83056">
        <ele>202.40039</ele>
        <time>2026-05-16T11:58:44+02:00</time>
      </trkpt>
      <trkpt lat="47.59308" lon="5.83059">
        <ele>202</ele>
        <time>2026-05-16T11:58:45+02:00</time>
      </trkpt>
      <trkpt lat="47.59317" lon="5.83062">
        <ele>205.90039</ele>
        <time>2026-05-16T11:58:46+02:00</time>
      </trkpt>
      <trkpt lat="47.59325" lon="5.83065">
        <ele>207.90039</ele>
        <time>2026-05-16T11:58:47+02:00</time>
      </trkpt>
      <trkpt lat="47.59333" lon="5.83067">
        <ele>209.10059</ele>
        <time>2026-05-16T11:58:48+02:00</time>
      </trkpt>
      <trkpt lat="47.59342" lon="5.83069">
        <ele>211.2002</ele>
        <time>2026-05-16T11:58:49+02:00</time>
      </trkpt>
      <trkpt lat="47.5935" lon="5.83072">
        <ele>214.7002</ele>
        <time>2026-05-16T11:58:50+02:00</time>
      </trkpt>
      <trkpt lat="47.59358" lon="5.83074">
        <ele>213.10059</ele>
        <time>2026-05-16T11:58:51+02:00</time>
      </trkpt>
      <trkpt lat="47.59366" lon="5.83077">
        <ele>214.60059</ele>
        <time>2026-05-16T11:58:52+02:00</time>
      </trkpt>
      <trkpt lat="47.59374" lon="5.83079">
        <ele>217.10059</ele>
        <time>2026-05-16T11:58:53+02:00</time>
      </trkpt>
      <trkpt lat="47.59382" lon="5.83082">
        <ele>217.7998</ele>
        <time>2026-05-16T11:58:54+02:00</time>
      </trkpt>
      <trkpt lat="47.5939" lon="5.83085">
        <ele>216.90039</ele>
        <time>2026-05-16T11:58:55+02:00</time>
      </trkpt>
      <trkpt lat="47.59398" lon="5.83088">
        <ele>217.40039</ele>
        <time>2026-05-16T11:58:56+02:00</time>
      </trkpt>
      <trkpt lat="47.59406" lon="5.83091">
        <ele>216.2002</ele>
        <time>2026-05-16T11:58:57+02:00</time>
      </trkpt>
      <trkpt lat="47.59414" lon="5.83094">
        <ele>217.5</ele>
        <time>2026-05-16T11:58:58+02:00</time>
      </trkpt>
      <trkpt lat="47.59422" lon="5.83097">
        <ele>218.2002</ele>
        <time>2026-05-16T11:58:59+02:00</time>
      </trkpt>
      <trkpt lat="47.5943" lon="5.83099">
        <ele>219.60059</ele>
        <time>2026-05-16T11:59:00+02:00</time>
      </trkpt>
      <trkpt lat="47.59438" lon="5.83101">
        <ele>218.10059</ele>
        <time>2026-05-16T11:59:01+02:00</time>
      </trkpt>
      <trkpt lat="47.59443" lon="5.83104">
        <ele>218.7002</ele>
        <time>2026-05-16T11:59:02+02:00</time>
      </trkpt>
      <trkpt lat="47.59446" lon="5.83106">
        <ele>218.7002</ele>
        <time>2026-05-16T11:59:03+02:00</time>
      </trkpt>
      <trkpt lat="47.59447" lon="5.83106">
        <ele>218.7002</ele>
        <time>2026-05-16T11:59:04+02:00</time>
      </trkpt>
      <trkpt lat="47.59447" lon="5.83106">
        <ele>218.7002</ele>
        <time>2026-05-16T11:59:05+02:00</time>
      </trkpt>
      <trkpt lat="47.59447" lon="5.83106">
        <ele>218.7002</ele>
        <time>2026-05-16T11:59:06+02:00</time>
      </trkpt>
      <trkpt lat="47.59447" lon="5.83106">
        <ele>218.7002</ele>
        <time>2026-05-16T11:59:07+02:00</time>
      </trkpt>
      <trkpt lat="47.59447" lon="5.83106">
        <ele>218.7002</ele>
        <time>2026-05-16T11:59:08+02:00</time>
      </trkpt>
      <trkpt lat="47.59447" lon="5.83106">
        <ele>218.7002</ele>
        <time>2026-05-16T12:06:16+02:00</time>
      </trkpt>
      <trkpt lat="47.59459" lon="5.83109">
        <ele>219.10059</ele>
        <time>2026-05-16T12:06:17+02:00</time>
      </trkpt>
      <trkpt lat="47.5946" lon="5.8311">
        <ele>219.10059</ele>
        <time>2026-05-16T12:06:18+02:00</time>
      </trkpt>
      <trkpt lat="47.59462" lon="5.83111">
        <ele>219.10059</ele>
        <time>2026-05-16T12:06:19+02:00</time>
      </trkpt>
      <trkpt lat="47.59464" lon="5.83112">
        <ele>219.10059</ele>
        <time>2026-05-16T12:06:20+02:00</time>
      </trkpt>
      <trkpt lat="47.59466" lon="5.83114">
        <ele>219.90039</ele>
        <time>2026-05-16T12:06:21+02:00</time>
      </trkpt>
      <trkpt lat="47.59469" lon="5.83115">
        <ele>219.90039</ele>
        <time>2026-05-16T12:06:22+02:00</time>
      </trkpt>
      <trkpt lat="47.59472" lon="5.83116">
        <ele>220.7002</ele>
        <time>2026-05-16T12:06:23+02:00</time>
      </trkpt>
      <trkpt lat="47.59475" lon="5.83117">
        <ele>218.60059</ele>
        <time>2026-05-16T12:06:24+02:00</time>
      </trkpt>
      <trkpt lat="47.59479" lon="5.83119">
        <ele>219.40039</ele>
        <time>2026-05-16T12:06:25+02:00</time>
      </trkpt>
      <trkpt lat="47.59482" lon="5.8312">
        <ele>219.40039</ele>
        <time>2026-05-16T12:06:26+02:00</time>
      </trkpt>
      <trkpt lat="47.59486" lon="5.83122">
        <ele>220.2002</ele>
        <time>2026-05-16T12:06:27+02:00</time>
      </trkpt>
      <trkpt lat="47.5949" lon="5.83124">
        <ele>220.90039</ele>
        <time>2026-05-16T12:06:28+02:00</time>
      </trkpt>
      <trkpt lat="47.59494" lon="5.83126">
        <ele>219.7998</ele>
        <time>2026-05-16T12:06:29+02:00</time>
      </trkpt>
      <trkpt lat="47.59498" lon="5.83128">
        <ele>219.7998</ele>
        <time>2026-05-16T12:06:30+02:00</time>
      </trkpt>
      <trkpt lat="47.59503" lon="5.8313">
        <ele>220.60059</ele>
        <time>2026-05-16T12:06:31+02:00</time>
      </trkpt>
      <trkpt lat="47.59507" lon="5.83132">
        <ele>221.40039</ele>
        <time>2026-05-16T12:06:32+02:00</time>
      </trkpt>
      <trkpt lat="47.59512" lon="5.83134">
        <ele>220.2002</ele>
        <time>2026-05-16T12:06:33+02:00</time>
      </trkpt>
      <trkpt lat="47.59514" lon="5.83134">
        <ele>220.2002</ele>
        <time>2026-05-16T12:06:34+02:00</time>
      </trkpt>
      <trkpt lat="47.59522" lon="5.83138">
        <ele>221</ele>
        <time>2026-05-16T12:06:35+02:00</time>
      </trkpt>
      <trkpt lat="47.59527" lon="5.8314">
        <ele>221.7998</ele>
        <time>2026-05-16T12:06:36+02:00</time>
      </trkpt>
      <trkpt lat="47.59532" lon="5.83142">
        <ele>222.60059</ele>
        <time>2026-05-16T12:06:37+02:00</time>
      </trkpt>
      <trkpt lat="47.59536" lon="5.83144">
        <ele>221.40039</ele>
        <time>2026-05-16T12:06:38+02:00</time>
      </trkpt>
      <trkpt lat="47.59541" lon="5.83146">
        <ele>222.2002</ele>
        <time>2026-05-16T12:06:39+02:00</time>
      </trkpt>
      <trkpt lat="47.59546" lon="5.83148">
        <ele>223</ele>
        <time>2026-05-16T12:06:40+02:00</time>
      </trkpt>
      <trkpt lat="47.59551" lon="5.83151">
        <ele>220.90039</ele>
        <time>2026-05-16T12:06:41+02:00</time>
      </trkpt>
      <trkpt lat="47.59555" lon="5.83153">
        <ele>221.7002</ele>
        <time>2026-05-16T12:06:42+02:00</time>
      </trkpt>
      <trkpt lat="47.59559" lon="5.83155">
        <ele>222.5</ele>
        <time>2026-05-16T12:06:43+02:00</time>
      </trkpt>
      <trkpt lat="47.59564" lon="5.83157">
        <ele>223.2002</ele>
        <time>2026-05-16T12:06:44+02:00</time>
      </trkpt>
      <trkpt lat="47.59568" lon="5.83158">
        <ele>223.2002</ele>
        <time>2026-05-16T12:06:45+02:00</time>
      </trkpt>
      <trkpt lat="47.59573" lon="5.8316">
        <ele>221.90039</ele>
        <time>2026-05-16T12:06:46+02:00</time>
      </trkpt>
      <trkpt lat="47.59577" lon="5.83163">
        <ele>222.60059</ele>
        <time>2026-05-16T12:06:47+02:00</time>
      </trkpt>
      <trkpt lat="47.59581" lon="5.83165">
        <ele>223.40039</ele>
        <time>2026-05-16T12:06:48+02:00</time>
      </trkpt>
      <trkpt lat="47.59586" lon="5.83168">
        <ele>223.40039</ele>
        <time>2026-05-16T12:06:49+02:00</time>
      </trkpt>
      <trkpt lat="47.5959" lon="5.8317">
        <ele>222.10059</ele>
        <time>2026-05-16T12:06:50+02:00</time>
      </trkpt>
      <trkpt lat="47.59595" lon="5.83173">
        <ele>222.7998</ele>
        <time>2026-05-16T12:06:51+02:00</time>
      </trkpt>
      <trkpt lat="47.596" lon="5.83176">
        <ele>223.60059</ele>
        <time>2026-05-16T12:06:52+02:00</time>
      </trkpt>
      <trkpt lat="47.59605" lon="5.83179">
        <ele>222.5</ele>
        <time>2026-05-16T12:06:53+02:00</time>
      </trkpt>
      <trkpt lat="47.5961" lon="5.83182">
        <ele>223.2998</ele>
        <time>2026-05-16T12:06:54+02:00</time>
      </trkpt>
      <trkpt lat="47.59616" lon="5.83185">
        <ele>224.2002</ele>
        <time>2026-05-16T12:06:55+02:00</time>
      </trkpt>
      <trkpt lat="47.59622" lon="5.83188">
        <ele>223</ele>
        <time>2026-05-16T12:06:56+02:00</time>
      </trkpt>
      <trkpt lat="47.59627" lon="5.83192">
        <ele>223.90039</ele>
        <time>2026-05-16T12:06:57+02:00</time>
      </trkpt>
      <trkpt lat="47.59633" lon="5.83196">
        <ele>222.90039</ele>
        <time>2026-05-16T12:06:58+02:00</time>
      </trkpt>
      <trkpt lat="47.59638" lon="5.83199">
        <ele>222.90039</ele>
        <time>2026-05-16T12:06:59+02:00</time>
      </trkpt>
      <trkpt lat="47.59644" lon="5.83203">
        <ele>222</ele>
        <time>2026-05-16T12:07:00+02:00</time>
      </trkpt>
      <trkpt lat="47.59649" lon="5.83206">
        <ele>223</ele>
        <time>2026-05-16T12:07:01+02:00</time>
      </trkpt>
      <trkpt lat="47.59655" lon="5.8321">
        <ele>224.2002</ele>
        <time>2026-05-16T12:07:02+02:00</time>
      </trkpt>
      <trkpt lat="47.59658" lon="5.83211">
        <ele>223.2998</ele>
        <time>2026-05-16T12:07:03+02:00</time>
      </trkpt>
      <trkpt lat="47.59666" lon="5.83217">
        <ele>224.40039</ele>
        <time>2026-05-16T12:07:04+02:00</time>
      </trkpt>
      <trkpt lat="47.59672" lon="5.8322">
        <ele>223.40039</ele>
        <time>2026-05-16T12:07:05+02:00</time>
      </trkpt>
      <trkpt lat="47.59677" lon="5.83224">
        <ele>224.60059</ele>
        <time>2026-05-16T12:07:06+02:00</time>
      </trkpt>
      <trkpt lat="47.59682" lon="5.83227">
        <ele>225.7002</ele>
        <time>2026-05-16T12:07:07+02:00</time>
      </trkpt>
      <trkpt lat="47.59688" lon="5.83231">
        <ele>224.7998</ele>
        <time>2026-05-16T12:07:08+02:00</time>
      </trkpt>
      <trkpt lat="47.59693" lon="5.83234">
        <ele>226</ele>
        <time>2026-05-16T12:07:09+02:00</time>
      </trkpt>
      <trkpt lat="47.59698" lon="5.83237">
        <ele>225.10059</ele>
        <time>2026-05-16T12:07:10+02:00</time>
      </trkpt>
      <trkpt lat="47.59703" lon="5.83241">
        <ele>226.2998</ele>
        <time>2026-05-16T12:07:11+02:00</time>
      </trkpt>
      <trkpt lat="47.59708" lon="5.83244">
        <ele>227.40039</ele>
        <time>2026-05-16T12:07:12+02:00</time>
      </trkpt>
      <trkpt lat="47.59713" lon="5.83248">
        <ele>225.40039</ele>
        <time>2026-05-16T12:07:13+02:00</time>
      </trkpt>
      <trkpt lat="47.59718" lon="5.83251">
        <ele>226.5</ele>
        <time>2026-05-16T12:07:14+02:00</time>
      </trkpt>
      <trkpt lat="47.59724" lon="5.83255">
        <ele>225.5</ele>
        <time>2026-05-16T12:07:15+02:00</time>
      </trkpt>
      <trkpt lat="47.59729" lon="5.83258">
        <ele>226.5</ele>
        <time>2026-05-16T12:07:16+02:00</time>
      </trkpt>
      <trkpt lat="47.59734" lon="5.83262">
        <ele>227.5</ele>
        <time>2026-05-16T12:07:17+02:00</time>
      </trkpt>
      <trkpt lat="47.5974" lon="5.83266">
        <ele>226.2998</ele>
        <time>2026-05-16T12:07:18+02:00</time>
      </trkpt>
      <trkpt lat="47.59742" lon="5.83268">
        <ele>226.2998</ele>
        <time>2026-05-16T12:07:19+02:00</time>
      </trkpt>
      <trkpt lat="47.5975" lon="5.83273">
        <ele>226</ele>
        <time>2026-05-16T12:07:20+02:00</time>
      </trkpt>
      <trkpt lat="47.59756" lon="5.83276">
        <ele>226.7998</ele>
        <time>2026-05-16T12:07:21+02:00</time>
      </trkpt>
      <trkpt lat="47.59762" lon="5.8328">
        <ele>225.60059</ele>
        <time>2026-05-16T12:07:22+02:00</time>
      </trkpt>
      <trkpt lat="47.59767" lon="5.83284">
        <ele>226.5</ele>
        <time>2026-05-16T12:07:23+02:00</time>
      </trkpt>
      <trkpt lat="47.59773" lon="5.83288">
        <ele>227.2998</ele>
        <time>2026-05-16T12:07:24+02:00</time>
      </trkpt>
      <trkpt lat="47.59778" lon="5.83292">
        <ele>226</ele>
        <time>2026-05-16T12:07:25+02:00</time>
      </trkpt>
      <trkpt lat="47.59784" lon="5.83295">
        <ele>226.7998</ele>
        <time>2026-05-16T12:07:26+02:00</time>
      </trkpt>
      <trkpt lat="47.59789" lon="5.83299">
        <ele>225.5</ele>
        <time>2026-05-16T12:07:27+02:00</time>
      </trkpt>
      <trkpt lat="47.59795" lon="5.83303">
        <ele>226.2998</ele>
        <time>2026-05-16T12:07:28+02:00</time>
      </trkpt>
      <trkpt lat="47.59801" lon="5.83307">
        <ele>224.7998</ele>
        <time>2026-05-16T12:07:29+02:00</time>
      </trkpt>
      <trkpt lat="47.59806" lon="5.83311">
        <ele>224.7998</ele>
        <time>2026-05-16T12:07:30+02:00</time>
      </trkpt>
      <trkpt lat="47.59812" lon="5.83315">
        <ele>224.10059</ele>
        <time>2026-05-16T12:07:31+02:00</time>
      </trkpt>
      <trkpt lat="47.59817" lon="5.83319">
        <ele>224.10059</ele>
        <time>2026-05-16T12:07:32+02:00</time>
      </trkpt>
      <trkpt lat="47.59823" lon="5.83324">
        <ele>222.90039</ele>
        <time>2026-05-16T12:07:33+02:00</time>
      </trkpt>
      <trkpt lat="47.59828" lon="5.83328">
        <ele>223.90039</ele>
        <time>2026-05-16T12:07:34+02:00</time>
      </trkpt>
      <trkpt lat="47.59833" lon="5.83333">
        <ele>222.60059</ele>
        <time>2026-05-16T12:07:35+02:00</time>
      </trkpt>
      <trkpt lat="47.59838" lon="5.83338">
        <ele>223.7002</ele>
        <time>2026-05-16T12:07:36+02:00</time>
      </trkpt>
      <trkpt lat="47.59844" lon="5.83342">
        <ele>222.2002</ele>
        <time>2026-05-16T12:07:37+02:00</time>
      </trkpt>
      <trkpt lat="47.59849" lon="5.83347">
        <ele>223.2002</ele>
        <time>2026-05-16T12:07:38+02:00</time>
      </trkpt>
      <trkpt lat="47.59854" lon="5.83351">
        <ele>221.60059</ele>
        <time>2026-05-16T12:07:39+02:00</time>
      </trkpt>
      <trkpt lat="47.59859" lon="5.83355">
        <ele>222.60059</ele>
        <time>2026-05-16T12:07:40+02:00</time>
      </trkpt>
      <trkpt lat="47.59864" lon="5.8336">
        <ele>220.90039</ele>
        <time>2026-05-16T12:07:41+02:00</time>
      </trkpt>
      <trkpt lat="47.5987" lon="5.83364">
        <ele>221.90039</ele>
        <time>2026-05-16T12:07:42+02:00</time>
      </trkpt>
      <trkpt lat="47.59874" lon="5.83369">
        <ele>219</ele>
        <time>2026-05-16T12:07:43+02:00</time>
      </trkpt>
      <trkpt lat="47.5988" lon="5.83373">
        <ele>219.90039</ele>
        <time>2026-05-16T12:07:44+02:00</time>
      </trkpt>
      <trkpt lat="47.59885" lon="5.83378">
        <ele>217.90039</ele>
        <time>2026-05-16T12:07:45+02:00</time>
      </trkpt>
      <trkpt lat="47.59891" lon="5.83383">
        <ele>216.2002</ele>
        <time>2026-05-16T12:07:46+02:00</time>
      </trkpt>
      <trkpt lat="47.59897" lon="5.83387">
        <ele>217.10059</ele>
        <time>2026-05-16T12:07:47+02:00</time>
      </trkpt>
      <trkpt lat="47.59902" lon="5.83392">
        <ele>215.2998</ele>
        <time>2026-05-16T12:07:48+02:00</time>
      </trkpt>
      <trkpt lat="47.59905" lon="5.83395">
        <ele>216.2998</ele>
        <time>2026-05-16T12:07:49+02:00</time>
      </trkpt>
      <trkpt lat="47.59913" lon="5.83402">
        <ele>214.5</ele>
        <time>2026-05-16T12:07:50+02:00</time>
      </trkpt>
      <trkpt lat="47.59918" lon="5.83407">
        <ele>215.5</ele>
        <time>2026-05-16T12:07:51+02:00</time>
      </trkpt>
      <trkpt lat="47.59924" lon="5.83412">
        <ele>214.10059</ele>
        <time>2026-05-16T12:07:52+02:00</time>
      </trkpt>
      <trkpt lat="47.59929" lon="5.83417">
        <ele>212.7998</ele>
        <time>2026-05-16T12:07:53+02:00</time>
      </trkpt>
      <trkpt lat="47.59934" lon="5.83422">
        <ele>213.90039</ele>
        <time>2026-05-16T12:07:54+02:00</time>
      </trkpt>
      <trkpt lat="47.5994" lon="5.83427">
        <ele>212.7002</ele>
        <time>2026-05-16T12:07:55+02:00</time>
      </trkpt>
      <trkpt lat="47.59945" lon="5.83432">
        <ele>212.7002</ele>
        <time>2026-05-16T12:07:56+02:00</time>
      </trkpt>
      <trkpt lat="47.5995" lon="5.83437">
        <ele>211.40039</ele>
        <time>2026-05-16T12:07:57+02:00</time>
      </trkpt>
      <trkpt lat="47.59955" lon="5.83442">
        <ele>212.5</ele>
        <time>2026-05-16T12:07:58+02:00</time>
      </trkpt>
      <trkpt lat="47.5996" lon="5.83447">
        <ele>211.2998</ele>
        <time>2026-05-16T12:07:59+02:00</time>
      </trkpt>
      <trkpt lat="47.59965" lon="5.83453">
        <ele>210.2998</ele>
        <time>2026-05-16T12:08:00+02:00</time>
      </trkpt>
      <trkpt lat="47.59971" lon="5.83458">
        <ele>211.7002</ele>
        <time>2026-05-16T12:08:01+02:00</time>
      </trkpt>
      <trkpt lat="47.59976" lon="5.83463">
        <ele>211.10059</ele>
        <time>2026-05-16T12:08:02+02:00</time>
      </trkpt>
      <trkpt lat="47.59981" lon="5.83468">
        <ele>212.7002</ele>
        <time>2026-05-16T12:08:03+02:00</time>
      </trkpt>
      <trkpt lat="47.59986" lon="5.83474">
        <ele>212.10059</ele>
        <time>2026-05-16T12:08:04+02:00</time>
      </trkpt>
      <trkpt lat="47.59991" lon="5.83479">
        <ele>209.90039</ele>
        <time>2026-05-16T12:08:05+02:00</time>
      </trkpt>
      <trkpt lat="47.59996" lon="5.83484">
        <ele>211.5</ele>
        <time>2026-05-16T12:08:06+02:00</time>
      </trkpt>
      <trkpt lat="47.60001" lon="5.8349">
        <ele>211</ele>
        <time>2026-05-16T12:08:07+02:00</time>
      </trkpt>
      <trkpt lat="47.60006" lon="5.83495">
        <ele>210.7998</ele>
        <time>2026-05-16T12:08:08+02:00</time>
      </trkpt>
      <trkpt lat="47.60011" lon="5.835">
        <ele>212.60059</ele>
        <time>2026-05-16T12:08:09+02:00</time>
      </trkpt>
      <trkpt lat="47.60017" lon="5.83505">
        <ele>212.2002</ele>
        <time>2026-05-16T12:08:10+02:00</time>
      </trkpt>
      <trkpt lat="47.60022" lon="5.8351">
        <ele>213.90039</ele>
        <time>2026-05-16T12:08:11+02:00</time>
      </trkpt>
      <trkpt lat="47.60027" lon="5.83515">
        <ele>213.2998</ele>
        <time>2026-05-16T12:08:12+02:00</time>
      </trkpt>
      <trkpt lat="47.60032" lon="5.8352">
        <ele>212.7998</ele>
        <time>2026-05-16T12:08:13+02:00</time>
      </trkpt>
      <trkpt lat="47.60037" lon="5.83526">
        <ele>212.7998</ele>
        <time>2026-05-16T12:08:14+02:00</time>
      </trkpt>
      <trkpt lat="47.60042" lon="5.83531">
        <ele>212.2002</ele>
        <time>2026-05-16T12:08:15+02:00</time>
      </trkpt>
      <trkpt lat="47.60047" lon="5.83536">
        <ele>213.7998</ele>
        <time>2026-05-16T12:08:16+02:00</time>
      </trkpt>
      <trkpt lat="47.60052" lon="5.83541">
        <ele>213.2998</ele>
        <time>2026-05-16T12:08:17+02:00</time>
      </trkpt>
      <trkpt lat="47.60056" lon="5.83546">
        <ele>212.7998</ele>
        <time>2026-05-16T12:08:18+02:00</time>
      </trkpt>
      <trkpt lat="47.60061" lon="5.83552">
        <ele>214.2998</ele>
        <time>2026-05-16T12:08:19+02:00</time>
      </trkpt>
      <trkpt lat="47.60066" lon="5.83557">
        <ele>212.10059</ele>
        <time>2026-05-16T12:08:20+02:00</time>
      </trkpt>
      <trkpt lat="47.60071" lon="5.83562">
        <ele>213.60059</ele>
        <time>2026-05-16T12:08:21+02:00</time>
      </trkpt>
      <trkpt lat="47.60075" lon="5.83567">
        <ele>212.90039</ele>
        <time>2026-05-16T12:08:22+02:00</time>
      </trkpt>
      <trkpt lat="47.60077" lon="5.8357">
        <ele>212.90039</ele>
        <time>2026-05-16T12:08:23+02:00</time>
      </trkpt>
      <trkpt lat="47.60084" lon="5.83578">
        <ele>213.2998</ele>
        <time>2026-05-16T12:08:24+02:00</time>
      </trkpt>
      <trkpt lat="47.60089" lon="5.83583">
        <ele>211.2002</ele>
        <time>2026-05-16T12:08:25+02:00</time>
      </trkpt>
      <trkpt lat="47.60093" lon="5.83588">
        <ele>212.2998</ele>
        <time>2026-05-16T12:08:26+02:00</time>
      </trkpt>
      <trkpt lat="47.60098" lon="5.83594">
        <ele>211.2998</ele>
        <time>2026-05-16T12:08:27+02:00</time>
      </trkpt>
      <trkpt lat="47.60102" lon="5.836">
        <ele>210.2998</ele>
        <time>2026-05-16T12:08:28+02:00</time>
      </trkpt>
      <trkpt lat="47.60106" lon="5.83606">
        <ele>208.2998</ele>
        <time>2026-05-16T12:08:29+02:00</time>
      </trkpt>
      <trkpt lat="47.60109" lon="5.83612">
        <ele>209.2998</ele>
        <time>2026-05-16T12:08:30+02:00</time>
      </trkpt>
      <trkpt lat="47.60113" lon="5.83619">
        <ele>208.40039</ele>
        <time>2026-05-16T12:08:31+02:00</time>
      </trkpt>
      <trkpt lat="47.60117" lon="5.83626">
        <ele>206.7002</ele>
        <time>2026-05-16T12:08:32+02:00</time>
      </trkpt>
      <trkpt lat="47.60119" lon="5.8363">
        <ele>207.7002</ele>
        <time>2026-05-16T12:08:33+02:00</time>
      </trkpt>
      <trkpt lat="47.60124" lon="5.83642">
        <ele>204.60059</ele>
        <time>2026-05-16T12:08:34+02:00</time>
      </trkpt>
      <trkpt lat="47.60127" lon="5.8365">
        <ele>204.2002</ele>
        <time>2026-05-16T12:08:35+02:00</time>
      </trkpt>
      <trkpt lat="47.60129" lon="5.83658">
        <ele>203.10059</ele>
        <time>2026-05-16T12:08:36+02:00</time>
      </trkpt>
      <trkpt lat="47.60132" lon="5.83666">
        <ele>203.10059</ele>
        <time>2026-05-16T12:08:37+02:00</time>
      </trkpt>
      <trkpt lat="47.60135" lon="5.83674">
        <ele>203.10059</ele>
        <time>2026-05-16T12:08:38+02:00</time>
      </trkpt>
      <trkpt lat="47.60137" lon="5.83683">
        <ele>202.40039</ele>
        <time>2026-05-16T12:08:39+02:00</time>
      </trkpt>
      <trkpt lat="47.6014" lon="5.83691">
        <ele>202.40039</ele>
        <time>2026-05-16T12:08:40+02:00</time>
      </trkpt>
      <trkpt lat="47.60143" lon="5.83699">
        <ele>202.40039</ele>
        <time>2026-05-16T12:08:41+02:00</time>
      </trkpt>
      <trkpt lat="47.60146" lon="5.83707">
        <ele>201.60059</ele>
        <time>2026-05-16T12:08:42+02:00</time>
      </trkpt>
      <trkpt lat="47.60149" lon="5.83715">
        <ele>201.7998</ele>
        <time>2026-05-16T12:08:43+02:00</time>
      </trkpt>
      <trkpt lat="47.60151" lon="5.83723">
        <ele>201.40039</ele>
        <time>2026-05-16T12:08:44+02:00</time>
      </trkpt>
      <trkpt lat="47.60154" lon="5.8373">
        <ele>201.90039</ele>
        <time>2026-05-16T12:08:45+02:00</time>
      </trkpt>
      <trkpt lat="47.60158" lon="5.83738">
        <ele>201.90039</ele>
        <time>2026-05-16T12:08:46+02:00</time>
      </trkpt>
      <trkpt lat="47.60161" lon="5.83746">
        <ele>202.5</ele>
        <time>2026-05-16T12:08:47+02:00</time>
      </trkpt>
      <trkpt lat="47.60164" lon="5.83753">
        <ele>202.2998</ele>
        <time>2026-05-16T12:08:48+02:00</time>
      </trkpt>
      <trkpt lat="47.60168" lon="5.8376">
        <ele>202.7998</ele>
        <time>2026-05-16T12:08:49+02:00</time>
      </trkpt>
      <trkpt lat="47.6017" lon="5.83764">
        <ele>202.5</ele>
        <time>2026-05-16T12:08:50+02:00</time>
      </trkpt>
      <trkpt lat="47.60175" lon="5.83775">
        <ele>202.60059</ele>
        <time>2026-05-16T12:08:51+02:00</time>
      </trkpt>
      <trkpt lat="47.60178" lon="5.83782">
        <ele>202.60059</ele>
        <time>2026-05-16T12:08:52+02:00</time>
      </trkpt>
      <trkpt lat="47.60181" lon="5.83789">
        <ele>202.2998</ele>
        <time>2026-05-16T12:08:53+02:00</time>
      </trkpt>
      <trkpt lat="47.60184" lon="5.83796">
        <ele>202.2998</ele>
        <time>2026-05-16T12:08:54+02:00</time>
      </trkpt>
      <trkpt lat="47.60187" lon="5.83804">
        <ele>202.10059</ele>
        <time>2026-05-16T12:08:55+02:00</time>
      </trkpt>
      <trkpt lat="47.6019" lon="5.83811">
        <ele>202.2998</ele>
        <time>2026-05-16T12:08:56+02:00</time>
      </trkpt>
      <trkpt lat="47.60191" lon="5.83815">
        <ele>202.10059</ele>
        <time>2026-05-16T12:08:57+02:00</time>
      </trkpt>
      <trkpt lat="47.60195" lon="5.83827">
        <ele>202</ele>
        <time>2026-05-16T12:08:58+02:00</time>
      </trkpt>
      <trkpt lat="47.60197" lon="5.83836">
        <ele>201.7998</ele>
        <time>2026-05-16T12:08:59+02:00</time>
      </trkpt>
      <trkpt lat="47.60198" lon="5.8384">
        <ele>201.60059</ele>
        <time>2026-05-16T12:09:00+02:00</time>
      </trkpt>
      <trkpt lat="47.60201" lon="5.83853">
        <ele>201.60059</ele>
        <time>2026-05-16T12:09:01+02:00</time>
      </trkpt>
      <trkpt lat="47.60203" lon="5.83861">
        <ele>201.40039</ele>
        <time>2026-05-16T12:09:02+02:00</time>
      </trkpt>
      <trkpt lat="47.60205" lon="5.8387">
        <ele>201.40039</ele>
        <time>2026-05-16T12:09:03+02:00</time>
      </trkpt>
      <trkpt lat="47.60207" lon="5.83878">
        <ele>201.5</ele>
        <time>2026-05-16T12:09:04+02:00</time>
      </trkpt>
      <trkpt lat="47.60208" lon="5.83887">
        <ele>201.5</ele>
        <time>2026-05-16T12:09:05+02:00</time>
      </trkpt>
      <trkpt lat="47.6021" lon="5.83896">
        <ele>201.5</ele>
        <time>2026-05-16T12:09:06+02:00</time>
      </trkpt>
      <trkpt lat="47.60211" lon="5.83905">
        <ele>201.5</ele>
        <time>2026-05-16T12:09:07+02:00</time>
      </trkpt>
      <trkpt lat="47.60212" lon="5.83914">
        <ele>201.7002</ele>
        <time>2026-05-16T12:09:08+02:00</time>
      </trkpt>
      <trkpt lat="47.60214" lon="5.83923">
        <ele>201.7998</ele>
        <time>2026-05-16T12:09:09+02:00</time>
      </trkpt>
      <trkpt lat="47.60216" lon="5.83931">
        <ele>201.90039</ele>
        <time>2026-05-16T12:09:10+02:00</time>
      </trkpt>
      <trkpt lat="47.60217" lon="5.83939">
        <ele>202.10059</ele>
        <time>2026-05-16T12:09:11+02:00</time>
      </trkpt>
      <trkpt lat="47.60219" lon="5.83947">
        <ele>202.2998</ele>
        <time>2026-05-16T12:09:12+02:00</time>
      </trkpt>
      <trkpt lat="47.60221" lon="5.83954">
        <ele>202.40039</ele>
        <time>2026-05-16T12:09:13+02:00</time>
      </trkpt>
      <trkpt lat="47.60224" lon="5.83961">
        <ele>202.7002</ele>
        <time>2026-05-16T12:09:14+02:00</time>
      </trkpt>
      <trkpt lat="47.60226" lon="5.83967">
        <ele>202.7998</ele>
        <time>2026-05-16T12:09:15+02:00</time>
      </trkpt>
      <trkpt lat="47.6023" lon="5.83973">
        <ele>202.90039</ele>
        <time>2026-05-16T12:09:16+02:00</time>
      </trkpt>
      <trkpt lat="47.60233" lon="5.83979">
        <ele>203</ele>
        <time>2026-05-16T12:09:17+02:00</time>
      </trkpt>
      <trkpt lat="47.60238" lon="5.83984">
        <ele>203.2002</ele>
        <time>2026-05-16T12:09:18+02:00</time>
      </trkpt>
      <trkpt lat="47.60242" lon="5.83988">
        <ele>203.2002</ele>
        <time>2026-05-16T12:09:19+02:00</time>
      </trkpt>
      <trkpt lat="47.60246" lon="5.83992">
        <ele>203.2998</ele>
        <time>2026-05-16T12:09:20+02:00</time>
      </trkpt>
      <trkpt lat="47.6025" lon="5.83995">
        <ele>203.40039</ele>
        <time>2026-05-16T12:09:21+02:00</time>
      </trkpt>
      <trkpt lat="47.60254" lon="5.83997">
        <ele>203.40039</ele>
        <time>2026-05-16T12:09:22+02:00</time>
      </trkpt>
      <trkpt lat="47.60258" lon="5.84">
        <ele>203.5</ele>
        <time>2026-05-16T12:09:23+02:00</time>
      </trkpt>
      <trkpt lat="47.60262" lon="5.84004">
        <ele>203.60059</ele>
        <time>2026-05-16T12:09:24+02:00</time>
      </trkpt>
      <trkpt lat="47.60264" lon="5.84008">
        <ele>203.60059</ele>
        <time>2026-05-16T12:09:25+02:00</time>
      </trkpt>
      <trkpt lat="47.60265" lon="5.84013">
        <ele>203.7002</ele>
        <time>2026-05-16T12:09:26+02:00</time>
      </trkpt>
      <trkpt lat="47.60264" lon="5.84018">
        <ele>203.7998</ele>
        <time>2026-05-16T12:09:27+02:00</time>
      </trkpt>
      <trkpt lat="47.60262" lon="5.84022">
        <ele>203.7998</ele>
        <time>2026-05-16T12:09:28+02:00</time>
      </trkpt>
      <trkpt lat="47.60258" lon="5.84023">
        <ele>203.7998</ele>
        <time>2026-05-16T12:09:29+02:00</time>
      </trkpt>
      <trkpt lat="47.60255" lon="5.84022">
        <ele>203.7002</ele>
        <time>2026-05-16T12:09:30+02:00</time>
      </trkpt>
      <trkpt lat="47.60253" lon="5.8402">
        <ele>203.7002</ele>
        <time>2026-05-16T12:09:31+02:00</time>
      </trkpt>
      <trkpt lat="47.6025" lon="5.84018">
        <ele>203.7002</ele>
        <time>2026-05-16T12:09:32+02:00</time>
      </trkpt>
      <trkpt lat="47.60248" lon="5.84016">
        <ele>203.60059</ele>
        <time>2026-05-16T12:09:33+02:00</time>
      </trkpt>
      <trkpt lat="47.60246" lon="5.84015">
        <ele>203.60059</ele>
        <time>2026-05-16T12:09:34+02:00</time>
      </trkpt>
      <trkpt lat="47.60246" lon="5.84015">
        <ele>203.60059</ele>
        <time>2026-05-16T12:09:35+02:00</time>
      </trkpt>
      <trkpt lat="47.60246" lon="5.84015">
        <ele>203.60059</ele>
        <time>2026-05-16T12:09:36+02:00</time>
      </trkpt>
      <trkpt lat="47.60246" lon="5.84014">
        <ele>203.60059</ele>
        <time>2026-05-16T12:09:37+02:00</time>
      </trkpt>
      <trkpt lat="47.60246" lon="5.84014">
        <ele>203.60059</ele>
        <time>2026-05-16T12:09:38+02:00</time>
      </trkpt>
      <trkpt lat="47.60246" lon="5.84014">
        <ele>203.60059</ele>
        <time>2026-05-16T12:09:39+02:00</time>
      </trkpt>
      <trkpt lat="47.60233" lon="5.83998">
        <ele>203.2998</ele>
        <time>2026-05-16T12:10:51+02:00</time>
      </trkpt>
      <trkpt lat="47.60231" lon="5.83995">
        <ele>203.2998</ele>
        <time>2026-05-16T12:10:52+02:00</time>
      </trkpt>
      <trkpt lat="47.60228" lon="5.83991">
        <ele>203.10059</ele>
        <time>2026-05-16T12:10:53+02:00</time>
      </trkpt>
      <trkpt lat="47.60226" lon="5.83988">
        <ele>203.10059</ele>
        <time>2026-05-16T12:10:54+02:00</time>
      </trkpt>
      <trkpt lat="47.60223" lon="5.83984">
        <ele>203.10059</ele>
        <time>2026-05-16T12:10:55+02:00</time>
      </trkpt>
      <trkpt lat="47.6022" lon="5.8398">
        <ele>202.90039</ele>
        <time>2026-05-16T12:10:56+02:00</time>
      </trkpt>
      <trkpt lat="47.60218" lon="5.83976">
        <ele>202.90039</ele>
        <time>2026-05-16T12:10:57+02:00</time>
      </trkpt>
      <trkpt lat="47.60215" lon="5.83972">
        <ele>202.7002</ele>
        <time>2026-05-16T12:10:58+02:00</time>
      </trkpt>
      <trkpt lat="47.60212" lon="5.83968">
        <ele>202.7002</ele>
        <time>2026-05-16T12:10:59+02:00</time>
      </trkpt>
      <trkpt lat="47.60209" lon="5.83964">
        <ele>202.5</ele>
        <time>2026-05-16T12:11:00+02:00</time>
      </trkpt>
      <trkpt lat="47.60206" lon="5.83959">
        <ele>202.5</ele>
        <time>2026-05-16T12:11:01+02:00</time>
      </trkpt>
      <trkpt lat="47.60203" lon="5.83955">
        <ele>202.2002</ele>
        <time>2026-05-16T12:11:02+02:00</time>
      </trkpt>
      <trkpt lat="47.602" lon="5.83951">
        <ele>202.2002</ele>
        <time>2026-05-16T12:11:03+02:00</time>
      </trkpt>
      <trkpt lat="47.60196" lon="5.83946">
        <ele>201.90039</ele>
        <time>2026-05-16T12:11:04+02:00</time>
      </trkpt>
      <trkpt lat="47.60192" lon="5.83941">
        <ele>201.7998</ele>
        <time>2026-05-16T12:11:05+02:00</time>
      </trkpt>
      <trkpt lat="47.60188" lon="5.83937">
        <ele>201.5</ele>
        <time>2026-05-16T12:11:06+02:00</time>
      </trkpt>
      <trkpt lat="47.60183" lon="5.83932">
        <ele>201.5</ele>
        <time>2026-05-16T12:11:07+02:00</time>
      </trkpt>
      <trkpt lat="47.60178" lon="5.83929">
        <ele>201.2002</ele>
        <time>2026-05-16T12:11:08+02:00</time>
      </trkpt>
      <trkpt lat="47.60172" lon="5.83926">
        <ele>201.10059</ele>
        <time>2026-05-16T12:11:09+02:00</time>
      </trkpt>
      <trkpt lat="47.60167" lon="5.83922">
        <ele>200.7998</ele>
        <time>2026-05-16T12:11:10+02:00</time>
      </trkpt>
      <trkpt lat="47.60161" lon="5.83919">
        <ele>200.7002</ele>
        <time>2026-05-16T12:11:11+02:00</time>
      </trkpt>
      <trkpt lat="47.60155" lon="5.83915">
        <ele>200.60059</ele>
        <time>2026-05-16T12:11:12+02:00</time>
      </trkpt>
      <trkpt lat="47.60148" lon="5.83911">
        <ele>200.40039</ele>
        <time>2026-05-16T12:11:13+02:00</time>
      </trkpt>
      <trkpt lat="47.60142" lon="5.83907">
        <ele>200.2998</ele>
        <time>2026-05-16T12:11:14+02:00</time>
      </trkpt>
      <trkpt lat="47.60136" lon="5.83903">
        <ele>200.10059</ele>
        <time>2026-05-16T12:11:15+02:00</time>
      </trkpt>
      <trkpt lat="47.6013" lon="5.83899">
        <ele>199.90039</ele>
        <time>2026-05-16T12:11:16+02:00</time>
      </trkpt>
      <trkpt lat="47.60124" lon="5.83895">
        <ele>199.7998</ele>
        <time>2026-05-16T12:11:17+02:00</time>
      </trkpt>
      <trkpt lat="47.60118" lon="5.83891">
        <ele>199.7002</ele>
        <time>2026-05-16T12:11:18+02:00</time>
      </trkpt>
      <trkpt lat="47.60112" lon="5.83887">
        <ele>199.60059</ele>
        <time>2026-05-16T12:11:19+02:00</time>
      </trkpt>
      <trkpt lat="47.60106" lon="5.83882">
        <ele>199.60059</ele>
        <time>2026-05-16T12:11:20+02:00</time>
      </trkpt>
      <trkpt lat="47.601" lon="5.83877">
        <ele>199.5</ele>
        <time>2026-05-16T12:11:21+02:00</time>
      </trkpt>
      <trkpt lat="47.60095" lon="5.83873">
        <ele>199.40039</ele>
        <time>2026-05-16T12:11:22+02:00</time>
      </trkpt>
      <trkpt lat="47.6009" lon="5.8387">
        <ele>199.40039</ele>
        <time>2026-05-16T12:11:23+02:00</time>
      </trkpt>
      <trkpt lat="47.60085" lon="5.83867">
        <ele>199.40039</ele>
        <time>2026-05-16T12:11:24+02:00</time>
      </trkpt>
      <trkpt lat="47.6008" lon="5.83866">
        <ele>199.2998</ele>
        <time>2026-05-16T12:11:25+02:00</time>
      </trkpt>
      <trkpt lat="47.60076" lon="5.83869">
        <ele>199.2002</ele>
        <time>2026-05-16T12:11:26+02:00</time>
      </trkpt>
      <trkpt lat="47.60072" lon="5.83874">
        <ele>199.10059</ele>
        <time>2026-05-16T12:11:27+02:00</time>
      </trkpt>
      <trkpt lat="47.60068" lon="5.8388">
        <ele>199.10059</ele>
        <time>2026-05-16T12:11:28+02:00</time>
      </trkpt>
      <trkpt lat="47.60064" lon="5.83886">
        <ele>199</ele>
        <time>2026-05-16T12:11:29+02:00</time>
      </trkpt>
      <trkpt lat="47.60061" lon="5.83893">
        <ele>199</ele>
        <time>2026-05-16T12:11:30+02:00</time>
      </trkpt>
      <trkpt lat="47.60057" lon="5.839">
        <ele>198.90039</ele>
        <time>2026-05-16T12:11:31+02:00</time>
      </trkpt>
      <trkpt lat="47.60053" lon="5.83907">
        <ele>198.7002</ele>
        <time>2026-05-16T12:11:32+02:00</time>
      </trkpt>
      <trkpt lat="47.60049" lon="5.83914">
        <ele>198.60059</ele>
        <time>2026-05-16T12:11:33+02:00</time>
      </trkpt>
      <trkpt lat="47.60045" lon="5.83922">
        <ele>198.60059</ele>
        <time>2026-05-16T12:11:34+02:00</time>
      </trkpt>
      <trkpt lat="47.6004" lon="5.83929">
        <ele>198.5</ele>
        <time>2026-05-16T12:11:35+02:00</time>
      </trkpt>
      <trkpt lat="47.60036" lon="5.83937">
        <ele>198.40039</ele>
        <time>2026-05-16T12:11:36+02:00</time>
      </trkpt>
      <trkpt lat="47.60032" lon="5.83944">
        <ele>198.5</ele>
        <time>2026-05-16T12:11:37+02:00</time>
      </trkpt>
      <trkpt lat="47.60027" lon="5.83952">
        <ele>198.5</ele>
        <time>2026-05-16T12:11:38+02:00</time>
      </trkpt>
      <trkpt lat="47.60023" lon="5.8396">
        <ele>198.40039</ele>
        <time>2026-05-16T12:11:39+02:00</time>
      </trkpt>
      <trkpt lat="47.60018" lon="5.83968">
        <ele>198.40039</ele>
        <time>2026-05-16T12:11:40+02:00</time>
      </trkpt>
      <trkpt lat="47.60014" lon="5.83976">
        <ele>198.40039</ele>
        <time>2026-05-16T12:11:41+02:00</time>
      </trkpt>
      <trkpt lat="47.60009" lon="5.83984">
        <ele>198.5</ele>
        <time>2026-05-16T12:11:42+02:00</time>
      </trkpt>
      <trkpt lat="47.60005" lon="5.83992">
        <ele>198.5</ele>
        <time>2026-05-16T12:11:43+02:00</time>
      </trkpt>
      <trkpt lat="47.60001" lon="5.84">
        <ele>198.5</ele>
        <time>2026-05-16T12:11:44+02:00</time>
      </trkpt>
      <trkpt lat="47.59996" lon="5.84008">
        <ele>198.5</ele>
        <time>2026-05-16T12:11:45+02:00</time>
      </trkpt>
      <trkpt lat="47.59992" lon="5.84016">
        <ele>198.60059</ele>
        <time>2026-05-16T12:11:46+02:00</time>
      </trkpt>
      <trkpt lat="47.59987" lon="5.84024">
        <ele>198.7002</ele>
        <time>2026-05-16T12:11:47+02:00</time>
      </trkpt>
      <trkpt lat="47.59982" lon="5.84032">
        <ele>198.7002</ele>
        <time>2026-05-16T12:11:48+02:00</time>
      </trkpt>
      <trkpt lat="47.59978" lon="5.84041">
        <ele>198.7002</ele>
        <time>2026-05-16T12:11:49+02:00</time>
      </trkpt>
      <trkpt lat="47.59973" lon="5.84049">
        <ele>198.7002</ele>
        <time>2026-05-16T12:11:50+02:00</time>
      </trkpt>
      <trkpt lat="47.59969" lon="5.84057">
        <ele>198.7998</ele>
        <time>2026-05-16T12:11:51+02:00</time>
      </trkpt>
      <trkpt lat="47.59965" lon="5.84065">
        <ele>198.7998</ele>
        <time>2026-05-16T12:11:52+02:00</time>
      </trkpt>
      <trkpt lat="47.5996" lon="5.84074">
        <ele>198.7998</ele>
        <time>2026-05-16T12:11:53+02:00</time>
      </trkpt>
      <trkpt lat="47.59955" lon="5.84082">
        <ele>198.7998</ele>
        <time>2026-05-16T12:11:54+02:00</time>
      </trkpt>
      <trkpt lat="47.59951" lon="5.8409">
        <ele>198.7998</ele>
        <time>2026-05-16T12:11:55+02:00</time>
      </trkpt>
      <trkpt lat="47.59948" lon="5.84094">
        <ele>198.7998</ele>
        <time>2026-05-16T12:11:56+02:00</time>
      </trkpt>
      <trkpt lat="47.59942" lon="5.84106">
        <ele>198.7998</ele>
        <time>2026-05-16T12:11:57+02:00</time>
      </trkpt>
      <trkpt lat="47.59937" lon="5.84114">
        <ele>198.7002</ele>
        <time>2026-05-16T12:11:58+02:00</time>
      </trkpt>
      <trkpt lat="47.59932" lon="5.84123">
        <ele>198.7002</ele>
        <time>2026-05-16T12:11:59+02:00</time>
      </trkpt>
      <trkpt lat="47.59928" lon="5.84131">
        <ele>198.7002</ele>
        <time>2026-05-16T12:12:00+02:00</time>
      </trkpt>
      <trkpt lat="47.59924" lon="5.84138">
        <ele>198.60059</ele>
        <time>2026-05-16T12:12:01+02:00</time>
      </trkpt>
      <trkpt lat="47.59919" lon="5.84146">
        <ele>198.5</ele>
        <time>2026-05-16T12:12:02+02:00</time>
      </trkpt>
      <trkpt lat="47.59915" lon="5.84155">
        <ele>198.5</ele>
        <time>2026-05-16T12:12:03+02:00</time>
      </trkpt>
      <trkpt lat="47.5991" lon="5.84162">
        <ele>198.40039</ele>
        <time>2026-05-16T12:12:04+02:00</time>
      </trkpt>
      <trkpt lat="47.59906" lon="5.8417">
        <ele>198.40039</ele>
        <time>2026-05-16T12:12:05+02:00</time>
      </trkpt>
      <trkpt lat="47.59902" lon="5.84178">
        <ele>198.2998</ele>
        <time>2026-05-16T12:12:06+02:00</time>
      </trkpt>
      <trkpt lat="47.59897" lon="5.84186">
        <ele>198.2998</ele>
        <time>2026-05-16T12:12:07+02:00</time>
      </trkpt>
      <trkpt lat="47.59892" lon="5.84194">
        <ele>198.2002</ele>
        <time>2026-05-16T12:12:08+02:00</time>
      </trkpt>
      <trkpt lat="47.59888" lon="5.84202">
        <ele>198.2002</ele>
        <time>2026-05-16T12:12:09+02:00</time>
      </trkpt>
      <trkpt lat="47.59883" lon="5.8421">
        <ele>198.10059</ele>
        <time>2026-05-16T12:12:10+02:00</time>
      </trkpt>
      <trkpt lat="47.59879" lon="5.84218">
        <ele>198</ele>
        <time>2026-05-16T12:12:11+02:00</time>
      </trkpt>
      <trkpt lat="47.59874" lon="5.84226">
        <ele>197.90039</ele>
        <time>2026-05-16T12:12:12+02:00</time>
      </trkpt>
      <trkpt lat="47.5987" lon="5.84234">
        <ele>197.90039</ele>
        <time>2026-05-16T12:12:13+02:00</time>
      </trkpt>
      <trkpt lat="47.59865" lon="5.84242">
        <ele>197.7998</ele>
        <time>2026-05-16T12:12:14+02:00</time>
      </trkpt>
      <trkpt lat="47.59861" lon="5.8425">
        <ele>197.7998</ele>
        <time>2026-05-16T12:12:15+02:00</time>
      </trkpt>
      <trkpt lat="47.59856" lon="5.84258">
        <ele>197.7002</ele>
        <time>2026-05-16T12:12:16+02:00</time>
      </trkpt>
      <trkpt lat="47.59852" lon="5.84266">
        <ele>197.7002</ele>
        <time>2026-05-16T12:12:17+02:00</time>
      </trkpt>
      <trkpt lat="47.59847" lon="5.84274">
        <ele>197.7998</ele>
        <time>2026-05-16T12:12:18+02:00</time>
      </trkpt>
      <trkpt lat="47.59843" lon="5.84281">
        <ele>197.7998</ele>
        <time>2026-05-16T12:12:19+02:00</time>
      </trkpt>
      <trkpt lat="47.59839" lon="5.84289">
        <ele>197.7998</ele>
        <time>2026-05-16T12:12:20+02:00</time>
      </trkpt>
      <trkpt lat="47.59834" lon="5.84297">
        <ele>197.90039</ele>
        <time>2026-05-16T12:12:21+02:00</time>
      </trkpt>
      <trkpt lat="47.5983" lon="5.84305">
        <ele>198</ele>
        <time>2026-05-16T12:12:22+02:00</time>
      </trkpt>
      <trkpt lat="47.59826" lon="5.84313">
        <ele>198</ele>
        <time>2026-05-16T12:12:23+02:00</time>
      </trkpt>
      <trkpt lat="47.59821" lon="5.84321">
        <ele>198</ele>
        <time>2026-05-16T12:12:24+02:00</time>
      </trkpt>
      <trkpt lat="47.59817" lon="5.84328">
        <ele>198</ele>
        <time>2026-05-16T12:12:25+02:00</time>
      </trkpt>
      <trkpt lat="47.59813" lon="5.84336">
        <ele>198.10059</ele>
        <time>2026-05-16T12:12:26+02:00</time>
      </trkpt>
      <trkpt lat="47.59808" lon="5.84344">
        <ele>198.10059</ele>
        <time>2026-05-16T12:12:27+02:00</time>
      </trkpt>
      <trkpt lat="47.59804" lon="5.84352">
        <ele>198</ele>
        <time>2026-05-16T12:12:28+02:00</time>
      </trkpt>
      <trkpt lat="47.59802" lon="5.84356">
        <ele>198.10059</ele>
        <time>2026-05-16T12:12:29+02:00</time>
      </trkpt>
      <trkpt lat="47.59796" lon="5.84367">
        <ele>198.10059</ele>
        <time>2026-05-16T12:12:30+02:00</time>
      </trkpt>
      <trkpt lat="47.59791" lon="5.84375">
        <ele>198.10059</ele>
        <time>2026-05-16T12:12:31+02:00</time>
      </trkpt>
      <trkpt lat="47.59787" lon="5.84383">
        <ele>198.10059</ele>
        <time>2026-05-16T12:12:32+02:00</time>
      </trkpt>
      <trkpt lat="47.59783" lon="5.84391">
        <ele>198.10059</ele>
        <time>2026-05-16T12:12:33+02:00</time>
      </trkpt>
      <trkpt lat="47.59778" lon="5.84398">
        <ele>198.2002</ele>
        <time>2026-05-16T12:12:34+02:00</time>
      </trkpt>
      <trkpt lat="47.59774" lon="5.84406">
        <ele>198.2002</ele>
        <time>2026-05-16T12:12:35+02:00</time>
      </trkpt>
      <trkpt lat="47.59772" lon="5.8441">
        <ele>198.2002</ele>
        <time>2026-05-16T12:12:36+02:00</time>
      </trkpt>
      <trkpt lat="47.59766" lon="5.84421">
        <ele>198.2002</ele>
        <time>2026-05-16T12:12:37+02:00</time>
      </trkpt>
      <trkpt lat="47.59762" lon="5.84429">
        <ele>198.2002</ele>
        <time>2026-05-16T12:12:38+02:00</time>
      </trkpt>
      <trkpt lat="47.59757" lon="5.84437">
        <ele>198.2002</ele>
        <time>2026-05-16T12:12:39+02:00</time>
      </trkpt>
      <trkpt lat="47.59753" lon="5.84444">
        <ele>198.2002</ele>
        <time>2026-05-16T12:12:40+02:00</time>
      </trkpt>
      <trkpt lat="47.59749" lon="5.84452">
        <ele>198.2998</ele>
        <time>2026-05-16T12:12:41+02:00</time>
      </trkpt>
      <trkpt lat="47.59744" lon="5.84459">
        <ele>198.2998</ele>
        <time>2026-05-16T12:12:42+02:00</time>
      </trkpt>
      <trkpt lat="47.5974" lon="5.84467">
        <ele>198.2002</ele>
        <time>2026-05-16T12:12:43+02:00</time>
      </trkpt>
      <trkpt lat="47.59736" lon="5.84475">
        <ele>198.2002</ele>
        <time>2026-05-16T12:12:44+02:00</time>
      </trkpt>
      <trkpt lat="47.59731" lon="5.84483">
        <ele>198.2002</ele>
        <time>2026-05-16T12:12:45+02:00</time>
      </trkpt>
      <trkpt lat="47.59727" lon="5.8449">
        <ele>198.2002</ele>
        <time>2026-05-16T12:12:46+02:00</time>
      </trkpt>
      <trkpt lat="47.59723" lon="5.84498">
        <ele>198.2002</ele>
        <time>2026-05-16T12:12:47+02:00</time>
      </trkpt>
      <trkpt lat="47.59718" lon="5.84506">
        <ele>198.2002</ele>
        <time>2026-05-16T12:12:48+02:00</time>
      </trkpt>
      <trkpt lat="47.59714" lon="5.84513">
        <ele>198.10059</ele>
        <time>2026-05-16T12:12:49+02:00</time>
      </trkpt>
      <trkpt lat="47.5971" lon="5.84521">
        <ele>198.10059</ele>
        <time>2026-05-16T12:12:50+02:00</time>
      </trkpt>
      <trkpt lat="47.59705" lon="5.84528">
        <ele>198.10059</ele>
        <time>2026-05-16T12:12:51+02:00</time>
      </trkpt>
      <trkpt lat="47.59701" lon="5.84536">
        <ele>198.10059</ele>
        <time>2026-05-16T12:12:52+02:00</time>
      </trkpt>
      <trkpt lat="47.59697" lon="5.84543">
        <ele>198</ele>
        <time>2026-05-16T12:12:53+02:00</time>
      </trkpt>
      <trkpt lat="47.59693" lon="5.84551">
        <ele>198</ele>
        <time>2026-05-16T12:12:54+02:00</time>
      </trkpt>
      <trkpt lat="47.59689" lon="5.84559">
        <ele>198</ele>
        <time>2026-05-16T12:12:55+02:00</time>
      </trkpt>
      <trkpt lat="47.59685" lon="5.84567">
        <ele>198</ele>
        <time>2026-05-16T12:12:56+02:00</time>
      </trkpt>
      <trkpt lat="47.5968" lon="5.84574">
        <ele>198.10059</ele>
        <time>2026-05-16T12:12:57+02:00</time>
      </trkpt>
      <trkpt lat="47.59676" lon="5.84582">
        <ele>198.10059</ele>
        <time>2026-05-16T12:12:58+02:00</time>
      </trkpt>
      <trkpt lat="47.59672" lon="5.84589">
        <ele>198.2002</ele>
        <time>2026-05-16T12:12:59+02:00</time>
      </trkpt>
      <trkpt lat="47.59669" lon="5.84593">
        <ele>198.10059</ele>
        <time>2026-05-16T12:13:00+02:00</time>
      </trkpt>
      <trkpt lat="47.59663" lon="5.84605">
        <ele>198.2002</ele>
        <time>2026-05-16T12:13:01+02:00</time>
      </trkpt>
      <trkpt lat="47.59659" lon="5.84612">
        <ele>198.2998</ele>
        <time>2026-05-16T12:13:02+02:00</time>
      </trkpt>
      <trkpt lat="47.59655" lon="5.8462">
        <ele>198.2998</ele>
        <time>2026-05-16T12:13:03+02:00</time>
      </trkpt>
      <trkpt lat="47.5965" lon="5.84628">
        <ele>198.2998</ele>
        <time>2026-05-16T12:13:04+02:00</time>
      </trkpt>
      <trkpt lat="47.59646" lon="5.84635">
        <ele>198.40039</ele>
        <time>2026-05-16T12:13:05+02:00</time>
      </trkpt>
      <trkpt lat="47.59642" lon="5.84643">
        <ele>198.5</ele>
        <time>2026-05-16T12:13:06+02:00</time>
      </trkpt>
      <trkpt lat="47.59638" lon="5.84651">
        <ele>198.5</ele>
        <time>2026-05-16T12:13:07+02:00</time>
      </trkpt>
      <trkpt lat="47.59633" lon="5.84658">
        <ele>198.60059</ele>
        <time>2026-05-16T12:13:08+02:00</time>
      </trkpt>
      <trkpt lat="47.59629" lon="5.84666">
        <ele>198.60059</ele>
        <time>2026-05-16T12:13:09+02:00</time>
      </trkpt>
      <trkpt lat="47.59624" lon="5.84674">
        <ele>198.7002</ele>
        <time>2026-05-16T12:13:10+02:00</time>
      </trkpt>
      <trkpt lat="47.5962" lon="5.84681">
        <ele>198.7998</ele>
        <time>2026-05-16T12:13:11+02:00</time>
      </trkpt>
      <trkpt lat="47.59615" lon="5.84689">
        <ele>198.90039</ele>
        <time>2026-05-16T12:13:12+02:00</time>
      </trkpt>
      <trkpt lat="47.59611" lon="5.84697">
        <ele>198.90039</ele>
        <time>2026-05-16T12:13:13+02:00</time>
      </trkpt>
      <trkpt lat="47.59607" lon="5.84705">
        <ele>198.90039</ele>
        <time>2026-05-16T12:13:14+02:00</time>
      </trkpt>
      <trkpt lat="47.59603" lon="5.84713">
        <ele>199</ele>
        <time>2026-05-16T12:13:15+02:00</time>
      </trkpt>
      <trkpt lat="47.59598" lon="5.8472">
        <ele>199</ele>
        <time>2026-05-16T12:13:16+02:00</time>
      </trkpt>
      <trkpt lat="47.59594" lon="5.84728">
        <ele>199.10059</ele>
        <time>2026-05-16T12:13:17+02:00</time>
      </trkpt>
      <trkpt lat="47.5959" lon="5.84735">
        <ele>199.2002</ele>
        <time>2026-05-16T12:13:18+02:00</time>
      </trkpt>
      <trkpt lat="47.59586" lon="5.84743">
        <ele>199.2002</ele>
        <time>2026-05-16T12:13:19+02:00</time>
      </trkpt>
      <trkpt lat="47.59582" lon="5.8475">
        <ele>199.2002</ele>
        <time>2026-05-16T12:13:20+02:00</time>
      </trkpt>
      <trkpt lat="47.59577" lon="5.84758">
        <ele>199.2998</ele>
        <time>2026-05-16T12:13:21+02:00</time>
      </trkpt>
      <trkpt lat="47.59573" lon="5.84765">
        <ele>199.2998</ele>
        <time>2026-05-16T12:13:22+02:00</time>
      </trkpt>
      <trkpt lat="47.59569" lon="5.84773">
        <ele>199.2998</ele>
        <time>2026-05-16T12:13:23+02:00</time>
      </trkpt>
      <trkpt lat="47.59565" lon="5.8478">
        <ele>199.40039</ele>
        <time>2026-05-16T12:13:24+02:00</time>
      </trkpt>
      <trkpt lat="47.59561" lon="5.84787">
        <ele>199.40039</ele>
        <time>2026-05-16T12:13:25+02:00</time>
      </trkpt>
      <trkpt lat="47.59556" lon="5.84794">
        <ele>199.40039</ele>
        <time>2026-05-16T12:13:26+02:00</time>
      </trkpt>
      <trkpt lat="47.59552" lon="5.84802">
        <ele>199.40039</ele>
        <time>2026-05-16T12:13:27+02:00</time>
      </trkpt>
      <trkpt lat="47.59548" lon="5.84809">
        <ele>199.2998</ele>
        <time>2026-05-16T12:13:28+02:00</time>
      </trkpt>
      <trkpt lat="47.59544" lon="5.84816">
        <ele>199.2998</ele>
        <time>2026-05-16T12:13:29+02:00</time>
      </trkpt>
      <trkpt lat="47.5954" lon="5.84824">
        <ele>199.2998</ele>
        <time>2026-05-16T12:13:30+02:00</time>
      </trkpt>
      <trkpt lat="47.59536" lon="5.84832">
        <ele>199.2002</ele>
        <time>2026-05-16T12:13:31+02:00</time>
      </trkpt>
      <trkpt lat="47.59533" lon="5.84835">
        <ele>199.10059</ele>
        <time>2026-05-16T12:13:32+02:00</time>
      </trkpt>
      <trkpt lat="47.59527" lon="5.84847">
        <ele>199.10059</ele>
        <time>2026-05-16T12:13:33+02:00</time>
      </trkpt>
      <trkpt lat="47.59523" lon="5.84854">
        <ele>198.90039</ele>
        <time>2026-05-16T12:13:34+02:00</time>
      </trkpt>
      <trkpt lat="47.59519" lon="5.84862">
        <ele>198.90039</ele>
        <time>2026-05-16T12:13:35+02:00</time>
      </trkpt>
      <trkpt lat="47.59514" lon="5.84869">
        <ele>198.90039</ele>
        <time>2026-05-16T12:13:36+02:00</time>
      </trkpt>
      <trkpt lat="47.5951" lon="5.84877">
        <ele>198.90039</ele>
        <time>2026-05-16T12:13:37+02:00</time>
      </trkpt>
      <trkpt lat="47.59506" lon="5.84885">
        <ele>198.90039</ele>
        <time>2026-05-16T12:13:38+02:00</time>
      </trkpt>
      <trkpt lat="47.59502" lon="5.84892">
        <ele>199</ele>
        <time>2026-05-16T12:13:39+02:00</time>
      </trkpt>
      <trkpt lat="47.59498" lon="5.849">
        <ele>199</ele>
        <time>2026-05-16T12:13:40+02:00</time>
      </trkpt>
      <trkpt lat="47.59493" lon="5.84908">
        <ele>199.10059</ele>
        <time>2026-05-16T12:13:41+02:00</time>
      </trkpt>
      <trkpt lat="47.59489" lon="5.84915">
        <ele>199</ele>
        <time>2026-05-16T12:13:42+02:00</time>
      </trkpt>
      <trkpt lat="47.59485" lon="5.84923">
        <ele>199</ele>
        <time>2026-05-16T12:13:43+02:00</time>
      </trkpt>
      <trkpt lat="47.5948" lon="5.84931">
        <ele>199</ele>
        <time>2026-05-16T12:13:44+02:00</time>
      </trkpt>
      <trkpt lat="47.59477" lon="5.84939">
        <ele>198.90039</ele>
        <time>2026-05-16T12:13:45+02:00</time>
      </trkpt>
      <trkpt lat="47.59472" lon="5.84947">
        <ele>198.7998</ele>
        <time>2026-05-16T12:13:46+02:00</time>
      </trkpt>
      <trkpt lat="47.59467" lon="5.84955">
        <ele>198.7002</ele>
        <time>2026-05-16T12:13:47+02:00</time>
      </trkpt>
      <trkpt lat="47.59463" lon="5.84962">
        <ele>198.60059</ele>
        <time>2026-05-16T12:13:48+02:00</time>
      </trkpt>
      <trkpt lat="47.59459" lon="5.8497">
        <ele>198.60059</ele>
        <time>2026-05-16T12:13:49+02:00</time>
      </trkpt>
      <trkpt lat="47.59454" lon="5.84978">
        <ele>198.5</ele>
        <time>2026-05-16T12:13:50+02:00</time>
      </trkpt>
      <trkpt lat="47.5945" lon="5.84985">
        <ele>198.5</ele>
        <time>2026-05-16T12:13:51+02:00</time>
      </trkpt>
      <trkpt lat="47.59445" lon="5.84992">
        <ele>198.40039</ele>
        <time>2026-05-16T12:13:52+02:00</time>
      </trkpt>
      <trkpt lat="47.5944" lon="5.84999">
        <ele>198.2998</ele>
        <time>2026-05-16T12:13:53+02:00</time>
      </trkpt>
      <trkpt lat="47.59434" lon="5.85006">
        <ele>198.2998</ele>
        <time>2026-05-16T12:13:54+02:00</time>
      </trkpt>
      <trkpt lat="47.59429" lon="5.85013">
        <ele>198.2998</ele>
        <time>2026-05-16T12:13:55+02:00</time>
      </trkpt>
      <trkpt lat="47.59424" lon="5.85019">
        <ele>198.10059</ele>
        <time>2026-05-16T12:13:56+02:00</time>
      </trkpt>
      <trkpt lat="47.59419" lon="5.85025">
        <ele>198.10059</ele>
        <time>2026-05-16T12:13:57+02:00</time>
      </trkpt>
      <trkpt lat="47.59413" lon="5.8503">
        <ele>197.60059</ele>
        <time>2026-05-16T12:13:58+02:00</time>
      </trkpt>
      <trkpt lat="47.59407" lon="5.85035">
        <ele>197.10059</ele>
        <time>2026-05-16T12:13:59+02:00</time>
      </trkpt>
      <trkpt lat="47.59401" lon="5.85039">
        <ele>196.5</ele>
        <time>2026-05-16T12:14:00+02:00</time>
      </trkpt>
      <trkpt lat="47.59395" lon="5.85043">
        <ele>195.2002</ele>
        <time>2026-05-16T12:14:01+02:00</time>
      </trkpt>
      <trkpt lat="47.5939" lon="5.85048">
        <ele>195.2998</ele>
        <time>2026-05-16T12:14:02+02:00</time>
      </trkpt>
      <trkpt lat="47.59385" lon="5.85054">
        <ele>194.7998</ele>
        <time>2026-05-16T12:14:03+02:00</time>
      </trkpt>
      <trkpt lat="47.5938" lon="5.8506">
        <ele>195.2002</ele>
        <time>2026-05-16T12:14:04+02:00</time>
      </trkpt>
      <trkpt lat="47.59378" lon="5.85069">
        <ele>195.90039</ele>
        <time>2026-05-16T12:14:05+02:00</time>
      </trkpt>
      <trkpt lat="47.59377" lon="5.85078">
        <ele>196.2998</ele>
        <time>2026-05-16T12:14:06+02:00</time>
      </trkpt>
      <trkpt lat="47.59376" lon="5.85088">
        <ele>196.40039</ele>
        <time>2026-05-16T12:14:07+02:00</time>
      </trkpt>
      <trkpt lat="47.59376" lon="5.85098">
        <ele>196.5</ele>
        <time>2026-05-16T12:14:08+02:00</time>
      </trkpt>
      <trkpt lat="47.59376" lon="5.85108">
        <ele>196.2998</ele>
        <time>2026-05-16T12:14:09+02:00</time>
      </trkpt>
      <trkpt lat="47.59375" lon="5.85118">
        <ele>196.2998</ele>
        <time>2026-05-16T12:14:10+02:00</time>
      </trkpt>
      <trkpt lat="47.59374" lon="5.85129">
        <ele>196.2998</ele>
        <time>2026-05-16T12:14:11+02:00</time>
      </trkpt>
      <trkpt lat="47.59374" lon="5.85139">
        <ele>196.2998</ele>
        <time>2026-05-16T12:14:12+02:00</time>
      </trkpt>
      <trkpt lat="47.59373" lon="5.8515">
        <ele>196.2998</ele>
        <time>2026-05-16T12:14:13+02:00</time>
      </trkpt>
      <trkpt lat="47.59372" lon="5.8516">
        <ele>196.40039</ele>
        <time>2026-05-16T12:14:14+02:00</time>
      </trkpt>
      <trkpt lat="47.59371" lon="5.85171">
        <ele>196.40039</ele>
        <time>2026-05-16T12:14:15+02:00</time>
      </trkpt>
      <trkpt lat="47.59371" lon="5.85182">
        <ele>196.40039</ele>
        <time>2026-05-16T12:14:16+02:00</time>
      </trkpt>
      <trkpt lat="47.59369" lon="5.85193">
        <ele>196.40039</ele>
        <time>2026-05-16T12:14:17+02:00</time>
      </trkpt>
      <trkpt lat="47.59368" lon="5.85203">
        <ele>196.40039</ele>
        <time>2026-05-16T12:14:18+02:00</time>
      </trkpt>
      <trkpt lat="47.59366" lon="5.85214">
        <ele>196.2998</ele>
        <time>2026-05-16T12:14:19+02:00</time>
      </trkpt>
      <trkpt lat="47.59365" lon="5.85224">
        <ele>196.5</ele>
        <time>2026-05-16T12:14:20+02:00</time>
      </trkpt>
      <trkpt lat="47.59364" lon="5.85234">
        <ele>196.7002</ele>
        <time>2026-05-16T12:14:21+02:00</time>
      </trkpt>
      <trkpt lat="47.59363" lon="5.85245">
        <ele>196.90039</ele>
        <time>2026-05-16T12:14:22+02:00</time>
      </trkpt>
      <trkpt lat="47.59361" lon="5.85255">
        <ele>197.40039</ele>
        <time>2026-05-16T12:14:23+02:00</time>
      </trkpt>
      <trkpt lat="47.59358" lon="5.85265">
        <ele>197.40039</ele>
        <time>2026-05-16T12:14:24+02:00</time>
      </trkpt>
      <trkpt lat="47.59356" lon="5.85275">
        <ele>197.60059</ele>
        <time>2026-05-16T12:14:25+02:00</time>
      </trkpt>
      <trkpt lat="47.59353" lon="5.85284">
        <ele>197.5</ele>
        <time>2026-05-16T12:14:26+02:00</time>
      </trkpt>
      <trkpt lat="47.5935" lon="5.85294">
        <ele>197.7998</ele>
        <time>2026-05-16T12:14:27+02:00</time>
      </trkpt>
      <trkpt lat="47.59347" lon="5.85303">
        <ele>197.7002</ele>
        <time>2026-05-16T12:14:28+02:00</time>
      </trkpt>
      <trkpt lat="47.59343" lon="5.85312">
        <ele>197.40039</ele>
        <time>2026-05-16T12:14:29+02:00</time>
      </trkpt>
      <trkpt lat="47.5934" lon="5.85321">
        <ele>197.5</ele>
        <time>2026-05-16T12:14:30+02:00</time>
      </trkpt>
      <trkpt lat="47.59338" lon="5.85325">
        <ele>197.7998</ele>
        <time>2026-05-16T12:14:31+02:00</time>
      </trkpt>
      <trkpt lat="47.59332" lon="5.85338">
        <ele>197.7002</ele>
        <time>2026-05-16T12:14:32+02:00</time>
      </trkpt>
      <trkpt lat="47.59329" lon="5.85347">
        <ele>197.7002</ele>
        <time>2026-05-16T12:14:33+02:00</time>
      </trkpt>
      <trkpt lat="47.59324" lon="5.85354">
        <ele>197.60059</ele>
        <time>2026-05-16T12:14:34+02:00</time>
      </trkpt>
      <trkpt lat="47.5932" lon="5.85361">
        <ele>198</ele>
        <time>2026-05-16T12:14:35+02:00</time>
      </trkpt>
      <trkpt lat="47.59316" lon="5.85367">
        <ele>198</ele>
        <time>2026-05-16T12:14:36+02:00</time>
      </trkpt>
      <trkpt lat="47.59313" lon="5.85371">
        <ele>197.5</ele>
        <time>2026-05-16T12:14:37+02:00</time>
      </trkpt>
      <trkpt lat="47.59311" lon="5.85373">
        <ele>197.5</ele>
        <time>2026-05-16T12:14:38+02:00</time>
      </trkpt>
      <trkpt lat="47.59308" lon="5.85377">
        <ele>197.5</ele>
        <time>2026-05-16T12:14:39+02:00</time>
      </trkpt>
      <trkpt lat="47.59305" lon="5.8538">
        <ele>197.5</ele>
        <time>2026-05-16T12:14:40+02:00</time>
      </trkpt>
      <trkpt lat="47.59303" lon="5.85383">
        <ele>197.90039</ele>
        <time>2026-05-16T12:14:41+02:00</time>
      </trkpt>
      <trkpt lat="47.59301" lon="5.85386">
        <ele>197.5</ele>
        <time>2026-05-16T12:14:42+02:00</time>
      </trkpt>
      <trkpt lat="47.59298" lon="5.8539">
        <ele>197.5</ele>
        <time>2026-05-16T12:14:43+02:00</time>
      </trkpt>
      <trkpt lat="47.59295" lon="5.85394">
        <ele>197.40039</ele>
        <time>2026-05-16T12:14:44+02:00</time>
      </trkpt>
      <trkpt lat="47.59292" lon="5.85398">
        <ele>197.40039</ele>
        <time>2026-05-16T12:14:45+02:00</time>
      </trkpt>
      <trkpt lat="47.59289" lon="5.85403">
        <ele>197.40039</ele>
        <time>2026-05-16T12:14:46+02:00</time>
      </trkpt>
      <trkpt lat="47.59284" lon="5.85407">
        <ele>197</ele>
        <time>2026-05-16T12:14:47+02:00</time>
      </trkpt>
      <trkpt lat="47.5928" lon="5.85412">
        <ele>197.40039</ele>
        <time>2026-05-16T12:14:48+02:00</time>
      </trkpt>
      <trkpt lat="47.59276" lon="5.85417">
        <ele>197.2998</ele>
        <time>2026-05-16T12:14:49+02:00</time>
      </trkpt>
      <trkpt lat="47.59271" lon="5.85423">
        <ele>196.7998</ele>
        <time>2026-05-16T12:14:50+02:00</time>
      </trkpt>
      <trkpt lat="47.59266" lon="5.85428">
        <ele>196.7998</ele>
        <time>2026-05-16T12:14:51+02:00</time>
      </trkpt>
      <trkpt lat="47.59261" lon="5.85433">
        <ele>196.60059</ele>
        <time>2026-05-16T12:14:52+02:00</time>
      </trkpt>
      <trkpt lat="47.59255" lon="5.85438">
        <ele>196.7998</ele>
        <time>2026-05-16T12:14:53+02:00</time>
      </trkpt>
      <trkpt lat="47.59249" lon="5.85443">
        <ele>197.10059</ele>
        <time>2026-05-16T12:14:54+02:00</time>
      </trkpt>
      <trkpt lat="47.59247" lon="5.85446">
        <ele>197.10059</ele>
        <time>2026-05-16T12:14:55+02:00</time>
      </trkpt>
      <trkpt lat="47.59238" lon="5.85453">
        <ele>197</ele>
        <time>2026-05-16T12:14:56+02:00</time>
      </trkpt>
      <trkpt lat="47.59232" lon="5.85458">
        <ele>196.7002</ele>
        <time>2026-05-16T12:14:57+02:00</time>
      </trkpt>
      <trkpt lat="47.59226" lon="5.85463">
        <ele>196.7002</ele>
        <time>2026-05-16T12:14:58+02:00</time>
      </trkpt>
      <trkpt lat="47.5922" lon="5.85468">
        <ele>196.5</ele>
        <time>2026-05-16T12:14:59+02:00</time>
      </trkpt>
      <trkpt lat="47.59214" lon="5.85473">
        <ele>196.7002</ele>
        <time>2026-05-16T12:15:00+02:00</time>
      </trkpt>
      <trkpt lat="47.59208" lon="5.85478">
        <ele>197</ele>
        <time>2026-05-16T12:15:01+02:00</time>
      </trkpt>
      <trkpt lat="47.59203" lon="5.85483">
        <ele>196.90039</ele>
        <time>2026-05-16T12:15:02+02:00</time>
      </trkpt>
      <trkpt lat="47.59197" lon="5.85488">
        <ele>197.10059</ele>
        <time>2026-05-16T12:15:03+02:00</time>
      </trkpt>
      <trkpt lat="47.59191" lon="5.85493">
        <ele>196.90039</ele>
        <time>2026-05-16T12:15:04+02:00</time>
      </trkpt>
      <trkpt lat="47.59184" lon="5.85498">
        <ele>197.2002</ele>
        <time>2026-05-16T12:15:05+02:00</time>
      </trkpt>
      <trkpt lat="47.59179" lon="5.85503">
        <ele>197.40039</ele>
        <time>2026-05-16T12:15:06+02:00</time>
      </trkpt>
      <trkpt lat="47.59173" lon="5.85508">
        <ele>197.2002</ele>
        <time>2026-05-16T12:15:07+02:00</time>
      </trkpt>
      <trkpt lat="47.59166" lon="5.85513">
        <ele>197.2998</ele>
        <time>2026-05-16T12:15:08+02:00</time>
      </trkpt>
      <trkpt lat="47.59161" lon="5.85518">
        <ele>197.10059</ele>
        <time>2026-05-16T12:15:09+02:00</time>
      </trkpt>
      <trkpt lat="47.59154" lon="5.85523">
        <ele>197.2998</ele>
        <time>2026-05-16T12:15:10+02:00</time>
      </trkpt>
      <trkpt lat="47.59148" lon="5.85527">
        <ele>197.2002</ele>
        <time>2026-05-16T12:15:11+02:00</time>
      </trkpt>
      <trkpt lat="47.59142" lon="5.85532">
        <ele>197.40039</ele>
        <time>2026-05-16T12:15:12+02:00</time>
      </trkpt>
      <trkpt lat="47.59136" lon="5.85537">
        <ele>197.90039</ele>
        <time>2026-05-16T12:15:13+02:00</time>
      </trkpt>
      <trkpt lat="47.59131" lon="5.8554">
        <ele>197.7998</ele>
        <time>2026-05-16T12:15:14+02:00</time>
      </trkpt>
      <trkpt lat="47.59128" lon="5.85542">
        <ele>197.7002</ele>
        <time>2026-05-16T12:15:15+02:00</time>
      </trkpt>
      <trkpt lat="47.59127" lon="5.85543">
        <ele>197.7002</ele>
        <time>2026-05-16T12:15:16+02:00</time>
      </trkpt>
      <trkpt lat="47.59127" lon="5.85543">
        <ele>197.7002</ele>
        <time>2026-05-16T12:15:17+02:00</time>
      </trkpt>
      <trkpt lat="47.59127" lon="5.85543">
        <ele>197.7002</ele>
        <time>2026-05-16T12:15:18+02:00</time>
      </trkpt>
      <trkpt lat="47.59127" lon="5.85543">
        <ele>197.7002</ele>
        <time>2026-05-16T12:15:19+02:00</time>
      </trkpt>
      <trkpt lat="47.59127" lon="5.85543">
        <ele>197.7002</ele>
        <time>2026-05-16T12:15:20+02:00</time>
      </trkpt>
      <trkpt lat="47.5912" lon="5.85547">
        <ele>198.10059</ele>
        <time>2026-05-16T12:15:44+02:00</time>
      </trkpt>
      <trkpt lat="47.5912" lon="5.85547">
        <ele>198.10059</ele>
        <time>2026-05-16T12:15:45+02:00</time>
      </trkpt>
      <trkpt lat="47.5912" lon="5.85547">
        <ele>198.10059</ele>
        <time>2026-05-16T12:15:46+02:00</time>
      </trkpt>
      <trkpt lat="47.59106" lon="5.85558">
        <ele>198.10059</ele>
        <time>2026-05-16T12:16:54+02:00</time>
      </trkpt>
      <trkpt lat="47.59104" lon="5.8556">
        <ele>198.10059</ele>
        <time>2026-05-16T12:16:55+02:00</time>
      </trkpt>
      <trkpt lat="47.59102" lon="5.85562">
        <ele>198.10059</ele>
        <time>2026-05-16T12:16:56+02:00</time>
      </trkpt>
      <trkpt lat="47.59099" lon="5.85563">
        <ele>198.60059</ele>
        <time>2026-05-16T12:16:57+02:00</time>
      </trkpt>
      <trkpt lat="47.59096" lon="5.85565">
        <ele>198.60059</ele>
        <time>2026-05-16T12:16:58+02:00</time>
      </trkpt>
      <trkpt lat="47.59093" lon="5.85567">
        <ele>198.7998</ele>
        <time>2026-05-16T12:16:59+02:00</time>
      </trkpt>
      <trkpt lat="47.5909" lon="5.85569">
        <ele>198.7998</ele>
        <time>2026-05-16T12:17:00+02:00</time>
      </trkpt>
      <trkpt lat="47.59087" lon="5.85572">
        <ele>199.40039</ele>
        <time>2026-05-16T12:17:01+02:00</time>
      </trkpt>
      <trkpt lat="47.59084" lon="5.85573">
        <ele>199.40039</ele>
        <time>2026-05-16T12:17:02+02:00</time>
      </trkpt>
      <trkpt lat="47.5908" lon="5.85575">
        <ele>199.5</ele>
        <time>2026-05-16T12:17:03+02:00</time>
      </trkpt>
      <trkpt lat="47.59077" lon="5.85576">
        <ele>199.5</ele>
        <time>2026-05-16T12:17:04+02:00</time>
      </trkpt>
      <trkpt lat="47.59073" lon="5.85577">
        <ele>199.60059</ele>
        <time>2026-05-16T12:17:05+02:00</time>
      </trkpt>
      <trkpt lat="47.5907" lon="5.85579">
        <ele>199.7998</ele>
        <time>2026-05-16T12:17:06+02:00</time>
      </trkpt>
      <trkpt lat="47.59066" lon="5.8558">
        <ele>200.10059</ele>
        <time>2026-05-16T12:17:07+02:00</time>
      </trkpt>
      <trkpt lat="47.59062" lon="5.85582">
        <ele>200.2002</ele>
        <time>2026-05-16T12:17:08+02:00</time>
      </trkpt>
      <trkpt lat="47.59057" lon="5.85583">
        <ele>200.2998</ele>
        <time>2026-05-16T12:17:09+02:00</time>
      </trkpt>
      <trkpt lat="47.59052" lon="5.85585">
        <ele>200.40039</ele>
        <time>2026-05-16T12:17:10+02:00</time>
      </trkpt>
      <trkpt lat="47.59048" lon="5.85585">
        <ele>200.40039</ele>
        <time>2026-05-16T12:17:11+02:00</time>
      </trkpt>
      <trkpt lat="47.59043" lon="5.85586">
        <ele>200.5</ele>
        <time>2026-05-16T12:17:12+02:00</time>
      </trkpt>
      <trkpt lat="47.59038" lon="5.85587">
        <ele>200.60059</ele>
        <time>2026-05-16T12:17:13+02:00</time>
      </trkpt>
      <trkpt lat="47.59033" lon="5.85588">
        <ele>200.7002</ele>
        <time>2026-05-16T12:17:14+02:00</time>
      </trkpt>
      <trkpt lat="47.59031" lon="5.85589">
        <ele>200.7002</ele>
        <time>2026-05-16T12:17:15+02:00</time>
      </trkpt>
      <trkpt lat="47.59023" lon="5.85591">
        <ele>200.90039</ele>
        <time>2026-05-16T12:17:16+02:00</time>
      </trkpt>
      <trkpt lat="47.59018" lon="5.85592">
        <ele>201</ele>
        <time>2026-05-16T12:17:17+02:00</time>
      </trkpt>
      <trkpt lat="47.59013" lon="5.85593">
        <ele>201.10059</ele>
        <time>2026-05-16T12:17:18+02:00</time>
      </trkpt>
      <trkpt lat="47.59007" lon="5.85595">
        <ele>201.2002</ele>
        <time>2026-05-16T12:17:19+02:00</time>
      </trkpt>
      <trkpt lat="47.59002" lon="5.85596">
        <ele>201.2002</ele>
        <time>2026-05-16T12:17:20+02:00</time>
      </trkpt>
      <trkpt lat="47.58996" lon="5.85598">
        <ele>201.10059</ele>
        <time>2026-05-16T12:17:21+02:00</time>
      </trkpt>
      <trkpt lat="47.5899" lon="5.85599">
        <ele>201.2002</ele>
        <time>2026-05-16T12:17:22+02:00</time>
      </trkpt>
      <trkpt lat="47.58985" lon="5.85601">
        <ele>201.2998</ele>
        <time>2026-05-16T12:17:23+02:00</time>
      </trkpt>
      <trkpt lat="47.58979" lon="5.85602">
        <ele>201.40039</ele>
        <time>2026-05-16T12:17:24+02:00</time>
      </trkpt>
      <trkpt lat="47.58973" lon="5.85603">
        <ele>201.40039</ele>
        <time>2026-05-16T12:17:25+02:00</time>
      </trkpt>
      <trkpt lat="47.58967" lon="5.85604">
        <ele>201.2998</ele>
        <time>2026-05-16T12:17:26+02:00</time>
      </trkpt>
      <trkpt lat="47.5896" lon="5.85605">
        <ele>200.7002</ele>
        <time>2026-05-16T12:17:27+02:00</time>
      </trkpt>
      <trkpt lat="47.58936" lon="5.85608">
        <ele>200.90039</ele>
        <time>2026-05-16T12:17:28+02:00</time>
      </trkpt>
      <trkpt lat="47.58929" lon="5.85609">
        <ele>200.7998</ele>
        <time>2026-05-16T12:17:29+02:00</time>
      </trkpt>
      <trkpt lat="47.58923" lon="5.85609">
        <ele>200.7998</ele>
        <time>2026-05-16T12:17:30+02:00</time>
      </trkpt>
      <trkpt lat="47.58917" lon="5.85609">
        <ele>200.7002</ele>
        <time>2026-05-16T12:17:31+02:00</time>
      </trkpt>
      <trkpt lat="47.5891" lon="5.8561">
        <ele>200.7002</ele>
        <time>2026-05-16T12:17:32+02:00</time>
      </trkpt>
      <trkpt lat="47.58904" lon="5.8561">
        <ele>200.60059</ele>
        <time>2026-05-16T12:17:33+02:00</time>
      </trkpt>
      <trkpt lat="47.58898" lon="5.8561">
        <ele>200.5</ele>
        <time>2026-05-16T12:17:34+02:00</time>
      </trkpt>
      <trkpt lat="47.58891" lon="5.8561">
        <ele>200.10059</ele>
        <time>2026-05-16T12:17:35+02:00</time>
      </trkpt>
      <trkpt lat="47.58885" lon="5.8561">
        <ele>200</ele>
        <time>2026-05-16T12:17:36+02:00</time>
      </trkpt>
      <trkpt lat="47.58878" lon="5.8561">
        <ele>200</ele>
        <time>2026-05-16T12:17:37+02:00</time>
      </trkpt>
      <trkpt lat="47.58875" lon="5.8561">
        <ele>200</ele>
        <time>2026-05-16T12:17:38+02:00</time>
      </trkpt>
      <trkpt lat="47.58865" lon="5.85611">
        <ele>199.90039</ele>
        <time>2026-05-16T12:17:39+02:00</time>
      </trkpt>
      <trkpt lat="47.58859" lon="5.85611">
        <ele>199.90039</ele>
        <time>2026-05-16T12:17:40+02:00</time>
      </trkpt>
      <trkpt lat="47.58853" lon="5.8561">
        <ele>199.90039</ele>
        <time>2026-05-16T12:17:41+02:00</time>
      </trkpt>
      <trkpt lat="47.58847" lon="5.8561">
        <ele>199.90039</ele>
        <time>2026-05-16T12:17:42+02:00</time>
      </trkpt>
      <trkpt lat="47.58841" lon="5.8561">
        <ele>199.90039</ele>
        <time>2026-05-16T12:17:43+02:00</time>
      </trkpt>
      <trkpt lat="47.58835" lon="5.8561">
        <ele>199.90039</ele>
        <time>2026-05-16T12:17:44+02:00</time>
      </trkpt>
      <trkpt lat="47.58828" lon="5.8561">
        <ele>199.7998</ele>
        <time>2026-05-16T12:17:45+02:00</time>
      </trkpt>
      <trkpt lat="47.58822" lon="5.8561">
        <ele>199.7998</ele>
        <time>2026-05-16T12:17:46+02:00</time>
      </trkpt>
      <trkpt lat="47.58816" lon="5.85609">
        <ele>199.7002</ele>
        <time>2026-05-16T12:17:47+02:00</time>
      </trkpt>
      <trkpt lat="47.58813" lon="5.85609">
        <ele>199.7002</ele>
        <time>2026-05-16T12:17:48+02:00</time>
      </trkpt>
      <trkpt lat="47.58803" lon="5.85608">
        <ele>199.60059</ele>
        <time>2026-05-16T12:17:49+02:00</time>
      </trkpt>
      <trkpt lat="47.58797" lon="5.85607">
        <ele>199.60059</ele>
        <time>2026-05-16T12:17:50+02:00</time>
      </trkpt>
      <trkpt lat="47.58794" lon="5.85607">
        <ele>199.60059</ele>
        <time>2026-05-16T12:17:51+02:00</time>
      </trkpt>
      <trkpt lat="47.58784" lon="5.85606">
        <ele>199.5</ele>
        <time>2026-05-16T12:17:52+02:00</time>
      </trkpt>
      <trkpt lat="47.58778" lon="5.85605">
        <ele>199</ele>
        <time>2026-05-16T12:17:53+02:00</time>
      </trkpt>
      <trkpt lat="47.58772" lon="5.85604">
        <ele>199</ele>
        <time>2026-05-16T12:17:54+02:00</time>
      </trkpt>
      <trkpt lat="47.58765" lon="5.85603">
        <ele>199</ele>
        <time>2026-05-16T12:17:55+02:00</time>
      </trkpt>
      <trkpt lat="47.58759" lon="5.85603">
        <ele>199.10059</ele>
        <time>2026-05-16T12:17:56+02:00</time>
      </trkpt>
      <trkpt lat="47.58752" lon="5.85602">
        <ele>199.10059</ele>
        <time>2026-05-16T12:17:57+02:00</time>
      </trkpt>
      <trkpt lat="47.58746" lon="5.85601">
        <ele>199.10059</ele>
        <time>2026-05-16T12:17:58+02:00</time>
      </trkpt>
      <trkpt lat="47.58739" lon="5.85601">
        <ele>199.2002</ele>
        <time>2026-05-16T12:17:59+02:00</time>
      </trkpt>
      <trkpt lat="47.58733" lon="5.856">
        <ele>199.2002</ele>
        <time>2026-05-16T12:18:00+02:00</time>
      </trkpt>
      <trkpt lat="47.58727" lon="5.856">
        <ele>199.2998</ele>
        <time>2026-05-16T12:18:01+02:00</time>
      </trkpt>
      <trkpt lat="47.5872" lon="5.856">
        <ele>199.2998</ele>
        <time>2026-05-16T12:18:02+02:00</time>
      </trkpt>
      <trkpt lat="47.58714" lon="5.85601">
        <ele>199.2998</ele>
        <time>2026-05-16T12:18:03+02:00</time>
      </trkpt>
      <trkpt lat="47.58708" lon="5.85602">
        <ele>199.40039</ele>
        <time>2026-05-16T12:18:04+02:00</time>
      </trkpt>
      <trkpt lat="47.58701" lon="5.85603">
        <ele>199.40039</ele>
        <time>2026-05-16T12:18:05+02:00</time>
      </trkpt>
      <trkpt lat="47.58695" lon="5.85604">
        <ele>199.10059</ele>
        <time>2026-05-16T12:18:06+02:00</time>
      </trkpt>
      <trkpt lat="47.58688" lon="5.85605">
        <ele>198.10059</ele>
        <time>2026-05-16T12:18:07+02:00</time>
      </trkpt>
      <trkpt lat="47.58682" lon="5.85607">
        <ele>198.2002</ele>
        <time>2026-05-16T12:18:08+02:00</time>
      </trkpt>
      <trkpt lat="47.58675" lon="5.85608">
        <ele>198</ele>
        <time>2026-05-16T12:18:09+02:00</time>
      </trkpt>
      <trkpt lat="47.58669" lon="5.8561">
        <ele>197.90039</ele>
        <time>2026-05-16T12:18:10+02:00</time>
      </trkpt>
      <trkpt lat="47.58662" lon="5.85611">
        <ele>197.7998</ele>
        <time>2026-05-16T12:18:11+02:00</time>
      </trkpt>
      <trkpt lat="47.58656" lon="5.85613">
        <ele>197.7002</ele>
        <time>2026-05-16T12:18:12+02:00</time>
      </trkpt>
      <trkpt lat="47.58649" lon="5.85614">
        <ele>197.60059</ele>
        <time>2026-05-16T12:18:13+02:00</time>
      </trkpt>
      <trkpt lat="47.58642" lon="5.85615">
        <ele>197.90039</ele>
        <time>2026-05-16T12:18:14+02:00</time>
      </trkpt>
      <trkpt lat="47.58636" lon="5.85615">
        <ele>197.90039</ele>
        <time>2026-05-16T12:18:15+02:00</time>
      </trkpt>
      <trkpt lat="47.58631" lon="5.85616">
        <ele>197.90039</ele>
        <time>2026-05-16T12:18:16+02:00</time>
      </trkpt>
      <trkpt lat="47.58627" lon="5.85617">
        <ele>197.7998</ele>
        <time>2026-05-16T12:18:17+02:00</time>
      </trkpt>
      <trkpt lat="47.58626" lon="5.85618">
        <ele>197.7998</ele>
        <time>2026-05-16T12:18:18+02:00</time>
      </trkpt>
      <trkpt lat="47.58625" lon="5.85619">
        <ele>197.7002</ele>
        <time>2026-05-16T12:18:19+02:00</time>
      </trkpt>
      <trkpt lat="47.58625" lon="5.85619">
        <ele>197.7002</ele>
        <time>2026-05-16T12:18:20+02:00</time>
      </trkpt>
      <trkpt lat="47.58625" lon="5.85619">
        <ele>197.7002</ele>
        <time>2026-05-16T12:18:21+02:00</time>
      </trkpt>
      <trkpt lat="47.58625" lon="5.85619">
        <ele>197.7002</ele>
        <time>2026-05-16T12:18:22+02:00</time>
      </trkpt>
      <trkpt lat="47.58608" lon="5.85618">
        <ele>197.60059</ele>
        <time>2026-05-16T12:30:08+02:00</time>
      </trkpt>
      <trkpt lat="47.58605" lon="5.85619">
        <ele>197.5</ele>
        <time>2026-05-16T12:30:09+02:00</time>
      </trkpt>
      <trkpt lat="47.58602" lon="5.85619">
        <ele>197.5</ele>
        <time>2026-05-16T12:30:10+02:00</time>
      </trkpt>
      <trkpt lat="47.586" lon="5.85619">
        <ele>197.5</ele>
        <time>2026-05-16T12:30:11+02:00</time>
      </trkpt>
      <trkpt lat="47.58597" lon="5.85619">
        <ele>197.5</ele>
        <time>2026-05-16T12:30:12+02:00</time>
      </trkpt>
      <trkpt lat="47.58594" lon="5.8562">
        <ele>197.40039</ele>
        <time>2026-05-16T12:30:13+02:00</time>
      </trkpt>
      <trkpt lat="47.5859" lon="5.8562">
        <ele>197.40039</ele>
        <time>2026-05-16T12:30:14+02:00</time>
      </trkpt>
      <trkpt lat="47.58587" lon="5.85621">
        <ele>197.40039</ele>
        <time>2026-05-16T12:30:15+02:00</time>
      </trkpt>
      <trkpt lat="47.58583" lon="5.85621">
        <ele>197.40039</ele>
        <time>2026-05-16T12:30:16+02:00</time>
      </trkpt>
      <trkpt lat="47.58579" lon="5.85622">
        <ele>197.40039</ele>
        <time>2026-05-16T12:30:17+02:00</time>
      </trkpt>
      <trkpt lat="47.58574" lon="5.85623">
        <ele>197.90039</ele>
        <time>2026-05-16T12:30:18+02:00</time>
      </trkpt>
      <trkpt lat="47.5857" lon="5.85624">
        <ele>197.7998</ele>
        <time>2026-05-16T12:30:19+02:00</time>
      </trkpt>
      <trkpt lat="47.58565" lon="5.85626">
        <ele>197.7002</ele>
        <time>2026-05-16T12:30:20+02:00</time>
      </trkpt>
      <trkpt lat="47.58561" lon="5.85628">
        <ele>197.5</ele>
        <time>2026-05-16T12:30:21+02:00</time>
      </trkpt>
      <trkpt lat="47.58556" lon="5.85631">
        <ele>197.5</ele>
        <time>2026-05-16T12:30:22+02:00</time>
      </trkpt>
      <trkpt lat="47.58552" lon="5.85635">
        <ele>197.5</ele>
        <time>2026-05-16T12:30:23+02:00</time>
      </trkpt>
      <trkpt lat="47.58547" lon="5.85638">
        <ele>197.2002</ele>
        <time>2026-05-16T12:30:24+02:00</time>
      </trkpt>
      <trkpt lat="47.58543" lon="5.85643">
        <ele>197.2998</ele>
        <time>2026-05-16T12:30:25+02:00</time>
      </trkpt>
      <trkpt lat="47.58539" lon="5.85647">
        <ele>197.2998</ele>
        <time>2026-05-16T12:30:26+02:00</time>
      </trkpt>
      <trkpt lat="47.58534" lon="5.85652">
        <ele>197.40039</ele>
        <time>2026-05-16T12:30:27+02:00</time>
      </trkpt>
      <trkpt lat="47.58529" lon="5.85656">
        <ele>197.5</ele>
        <time>2026-05-16T12:30:28+02:00</time>
      </trkpt>
      <trkpt lat="47.58525" lon="5.85661">
        <ele>197.7998</ele>
        <time>2026-05-16T12:30:29+02:00</time>
      </trkpt>
      <trkpt lat="47.58521" lon="5.85666">
        <ele>198.10059</ele>
        <time>2026-05-16T12:30:30+02:00</time>
      </trkpt>
      <trkpt lat="47.58519" lon="5.85668">
        <ele>198.10059</ele>
        <time>2026-05-16T12:30:31+02:00</time>
      </trkpt>
      <trkpt lat="47.58512" lon="5.85676">
        <ele>198.2002</ele>
        <time>2026-05-16T12:30:32+02:00</time>
      </trkpt>
      <trkpt lat="47.58508" lon="5.85682">
        <ele>198.2998</ele>
        <time>2026-05-16T12:30:33+02:00</time>
      </trkpt>
      <trkpt lat="47.58504" lon="5.85687">
        <ele>198.2002</ele>
        <time>2026-05-16T12:30:34+02:00</time>
      </trkpt>
      <trkpt lat="47.585" lon="5.85693">
        <ele>198.2998</ele>
        <time>2026-05-16T12:30:35+02:00</time>
      </trkpt>
      <trkpt lat="47.58496" lon="5.85699">
        <ele>198.2998</ele>
        <time>2026-05-16T12:30:36+02:00</time>
      </trkpt>
      <trkpt lat="47.58492" lon="5.85705">
        <ele>198.40039</ele>
        <time>2026-05-16T12:30:37+02:00</time>
      </trkpt>
      <trkpt lat="47.58488" lon="5.85711">
        <ele>198.2998</ele>
        <time>2026-05-16T12:30:38+02:00</time>
      </trkpt>
      <trkpt lat="47.58485" lon="5.85718">
        <ele>198.2998</ele>
        <time>2026-05-16T12:30:39+02:00</time>
      </trkpt>
      <trkpt lat="47.58481" lon="5.85724">
        <ele>198.2998</ele>
        <time>2026-05-16T12:30:40+02:00</time>
      </trkpt>
      <trkpt lat="47.58478" lon="5.85731">
        <ele>198.2998</ele>
        <time>2026-05-16T12:30:41+02:00</time>
      </trkpt>
      <trkpt lat="47.58474" lon="5.85738">
        <ele>198.10059</ele>
        <time>2026-05-16T12:30:42+02:00</time>
      </trkpt>
      <trkpt lat="47.5847" lon="5.85745">
        <ele>198</ele>
        <time>2026-05-16T12:30:43+02:00</time>
      </trkpt>
      <trkpt lat="47.58467" lon="5.85752">
        <ele>197.90039</ele>
        <time>2026-05-16T12:30:44+02:00</time>
      </trkpt>
      <trkpt lat="47.58464" lon="5.8576">
        <ele>197.90039</ele>
        <time>2026-05-16T12:30:45+02:00</time>
      </trkpt>
      <trkpt lat="47.58461" lon="5.85768">
        <ele>198</ele>
        <time>2026-05-16T12:30:46+02:00</time>
      </trkpt>
      <trkpt lat="47.58458" lon="5.85776">
        <ele>198.10059</ele>
        <time>2026-05-16T12:30:47+02:00</time>
      </trkpt>
      <trkpt lat="47.58455" lon="5.85783">
        <ele>198.2998</ele>
        <time>2026-05-16T12:30:48+02:00</time>
      </trkpt>
      <trkpt lat="47.58452" lon="5.85792">
        <ele>198.40039</ele>
        <time>2026-05-16T12:30:49+02:00</time>
      </trkpt>
      <trkpt lat="47.5845" lon="5.858">
        <ele>198.40039</ele>
        <time>2026-05-16T12:30:50+02:00</time>
      </trkpt>
      <trkpt lat="47.58447" lon="5.85808">
        <ele>198.40039</ele>
        <time>2026-05-16T12:30:51+02:00</time>
      </trkpt>
      <trkpt lat="47.58444" lon="5.85815">
        <ele>198.40039</ele>
        <time>2026-05-16T12:30:52+02:00</time>
      </trkpt>
      <trkpt lat="47.58441" lon="5.85823">
        <ele>198.5</ele>
        <time>2026-05-16T12:30:53+02:00</time>
      </trkpt>
      <trkpt lat="47.58437" lon="5.85831">
        <ele>198.60059</ele>
        <time>2026-05-16T12:30:54+02:00</time>
      </trkpt>
      <trkpt lat="47.58434" lon="5.85838">
        <ele>198.60059</ele>
        <time>2026-05-16T12:30:55+02:00</time>
      </trkpt>
      <trkpt lat="47.58431" lon="5.85846">
        <ele>198.60059</ele>
        <time>2026-05-16T12:30:56+02:00</time>
      </trkpt>
      <trkpt lat="47.58428" lon="5.85853">
        <ele>198.5</ele>
        <time>2026-05-16T12:30:57+02:00</time>
      </trkpt>
      <trkpt lat="47.58426" lon="5.8586">
        <ele>198.5</ele>
        <time>2026-05-16T12:30:58+02:00</time>
      </trkpt>
      <trkpt lat="47.58423" lon="5.85867">
        <ele>198.7002</ele>
        <time>2026-05-16T12:30:59+02:00</time>
      </trkpt>
      <trkpt lat="47.58422" lon="5.85873">
        <ele>198.90039</ele>
        <time>2026-05-16T12:31:00+02:00</time>
      </trkpt>
      <trkpt lat="47.58421" lon="5.8588">
        <ele>198.90039</ele>
        <time>2026-05-16T12:31:01+02:00</time>
      </trkpt>
      <trkpt lat="47.5842" lon="5.85887">
        <ele>199.10059</ele>
        <time>2026-05-16T12:31:02+02:00</time>
      </trkpt>
      <trkpt lat="47.58418" lon="5.85892">
        <ele>199.2002</ele>
        <time>2026-05-16T12:31:03+02:00</time>
      </trkpt>
      <trkpt lat="47.58416" lon="5.85896">
        <ele>199</ele>
        <time>2026-05-16T12:31:04+02:00</time>
      </trkpt>
      <trkpt lat="47.58415" lon="5.85898">
        <ele>199</ele>
        <time>2026-05-16T12:31:05+02:00</time>
      </trkpt>
      <trkpt lat="47.58415" lon="5.85899">
        <ele>199</ele>
        <time>2026-05-16T12:31:06+02:00</time>
      </trkpt>
      <trkpt lat="47.58416" lon="5.85899">
        <ele>199</ele>
        <time>2026-05-16T12:31:07+02:00</time>
      </trkpt>
      <trkpt lat="47.58417" lon="5.85898">
        <ele>199.2998</ele>
        <time>2026-05-16T12:31:08+02:00</time>
      </trkpt>
      <trkpt lat="47.58418" lon="5.85896">
        <ele>199.2002</ele>
        <time>2026-05-16T12:31:09+02:00</time>
      </trkpt>
      <trkpt lat="47.58418" lon="5.85893">
        <ele>199.2002</ele>
        <time>2026-05-16T12:31:10+02:00</time>
      </trkpt>
      <trkpt lat="47.58418" lon="5.8589">
        <ele>199.2002</ele>
        <time>2026-05-16T12:31:11+02:00</time>
      </trkpt>
      <trkpt lat="47.58418" lon="5.85886">
        <ele>199.10059</ele>
        <time>2026-05-16T12:31:12+02:00</time>
      </trkpt>
      <trkpt lat="47.5842" lon="5.85883">
        <ele>199.10059</ele>
        <time>2026-05-16T12:31:13+02:00</time>
      </trkpt>
      <trkpt lat="47.58421" lon="5.85882">
        <ele>199.10059</ele>
        <time>2026-05-16T12:31:14+02:00</time>
      </trkpt>
      <trkpt lat="47.58423" lon="5.85881">
        <ele>199.2002</ele>
        <time>2026-05-16T12:31:15+02:00</time>
      </trkpt>
      <trkpt lat="47.58423" lon="5.8588">
        <ele>199</ele>
        <time>2026-05-16T12:31:16+02:00</time>
      </trkpt>
      <trkpt lat="47.58423" lon="5.8588">
        <ele>199</ele>
        <time>2026-05-16T12:31:17+02:00</time>
      </trkpt>
      <trkpt lat="47.58423" lon="5.8588">
        <ele>199</ele>
        <time>2026-05-16T12:31:18+02:00</time>
      </trkpt>
      <trkpt lat="47.58423" lon="5.8588">
        <ele>199</ele>
        <time>2026-05-16T12:31:19+02:00</time>
      </trkpt>
      <trkpt lat="47.5837" lon="5.86004">
        <ele>198.7002</ele>
        <time>2026-05-16T12:39:43+02:00</time>
      </trkpt>
      <trkpt lat="47.58368" lon="5.86012">
        <ele>198.7998</ele>
        <time>2026-05-16T12:39:44+02:00</time>
      </trkpt>
      <trkpt lat="47.58365" lon="5.8602">
        <ele>198.90039</ele>
        <time>2026-05-16T12:39:45+02:00</time>
      </trkpt>
      <trkpt lat="47.58362" lon="5.86027">
        <ele>198.90039</ele>
        <time>2026-05-16T12:39:46+02:00</time>
      </trkpt>
      <trkpt lat="47.58359" lon="5.86034">
        <ele>198.90039</ele>
        <time>2026-05-16T12:39:47+02:00</time>
      </trkpt>
      <trkpt lat="47.58355" lon="5.86042">
        <ele>198.7998</ele>
        <time>2026-05-16T12:39:48+02:00</time>
      </trkpt>
      <trkpt lat="47.58352" lon="5.8605">
        <ele>198.7002</ele>
        <time>2026-05-16T12:39:49+02:00</time>
      </trkpt>
      <trkpt lat="47.5835" lon="5.86057">
        <ele>198.7998</ele>
        <time>2026-05-16T12:39:50+02:00</time>
      </trkpt>
      <trkpt lat="47.58347" lon="5.86065">
        <ele>198.60059</ele>
        <time>2026-05-16T12:39:51+02:00</time>
      </trkpt>
      <trkpt lat="47.58344" lon="5.86072">
        <ele>198.7002</ele>
        <time>2026-05-16T12:39:52+02:00</time>
      </trkpt>
      <trkpt lat="47.58341" lon="5.8608">
        <ele>198.7002</ele>
        <time>2026-05-16T12:39:53+02:00</time>
      </trkpt>
      <trkpt lat="47.58338" lon="5.86088">
        <ele>198.7998</ele>
        <time>2026-05-16T12:39:54+02:00</time>
      </trkpt>
      <trkpt lat="47.58336" lon="5.86096">
        <ele>199</ele>
        <time>2026-05-16T12:39:55+02:00</time>
      </trkpt>
      <trkpt lat="47.58334" lon="5.861">
        <ele>198.7998</ele>
        <time>2026-05-16T12:39:56+02:00</time>
      </trkpt>
      <trkpt lat="47.5833" lon="5.86112">
        <ele>198.90039</ele>
        <time>2026-05-16T12:39:57+02:00</time>
      </trkpt>
      <trkpt lat="47.58328" lon="5.8612">
        <ele>198.7002</ele>
        <time>2026-05-16T12:39:58+02:00</time>
      </trkpt>
      <trkpt lat="47.58325" lon="5.86129">
        <ele>198.7998</ele>
        <time>2026-05-16T12:39:59+02:00</time>
      </trkpt>
      <trkpt lat="47.58323" lon="5.86137">
        <ele>198.60059</ele>
        <time>2026-05-16T12:40:00+02:00</time>
      </trkpt>
      <trkpt lat="47.5832" lon="5.86145">
        <ele>198.7002</ele>
        <time>2026-05-16T12:40:01+02:00</time>
      </trkpt>
      <trkpt lat="47.58318" lon="5.86153">
        <ele>198.7002</ele>
        <time>2026-05-16T12:40:02+02:00</time>
      </trkpt>
      <trkpt lat="47.58317" lon="5.86158">
        <ele>198.90039</ele>
        <time>2026-05-16T12:40:03+02:00</time>
      </trkpt>
      <trkpt lat="47.58314" lon="5.8617">
        <ele>199</ele>
        <time>2026-05-16T12:40:04+02:00</time>
      </trkpt>
      <trkpt lat="47.58311" lon="5.86178">
        <ele>198.7002</ele>
        <time>2026-05-16T12:40:05+02:00</time>
      </trkpt>
      <trkpt lat="47.58309" lon="5.86187">
        <ele>198.7002</ele>
        <time>2026-05-16T12:40:06+02:00</time>
      </trkpt>
      <trkpt lat="47.58307" lon="5.86195">
        <ele>198.7002</ele>
        <time>2026-05-16T12:40:07+02:00</time>
      </trkpt>
      <trkpt lat="47.58304" lon="5.86204">
        <ele>198.5</ele>
        <time>2026-05-16T12:40:08+02:00</time>
      </trkpt>
      <trkpt lat="47.58302" lon="5.86212">
        <ele>198.60059</ele>
        <time>2026-05-16T12:40:09+02:00</time>
      </trkpt>
      <trkpt lat="47.583" lon="5.86221">
        <ele>198.40039</ele>
        <time>2026-05-16T12:40:10+02:00</time>
      </trkpt>
      <trkpt lat="47.58298" lon="5.8623">
        <ele>198.40039</ele>
        <time>2026-05-16T12:40:11+02:00</time>
      </trkpt>
      <trkpt lat="47.58296" lon="5.86239">
        <ele>198.40039</ele>
        <time>2026-05-16T12:40:12+02:00</time>
      </trkpt>
      <trkpt lat="47.58294" lon="5.86248">
        <ele>198.40039</ele>
        <time>2026-05-16T12:40:13+02:00</time>
      </trkpt>
      <trkpt lat="47.58292" lon="5.86257">
        <ele>198.60059</ele>
        <time>2026-05-16T12:40:14+02:00</time>
      </trkpt>
      <trkpt lat="47.5829" lon="5.86265">
        <ele>198.7998</ele>
        <time>2026-05-16T12:40:15+02:00</time>
      </trkpt>
      <trkpt lat="47.58288" lon="5.86274">
        <ele>198.60059</ele>
        <time>2026-05-16T12:40:16+02:00</time>
      </trkpt>
      <trkpt lat="47.58286" lon="5.86282">
        <ele>198.60059</ele>
        <time>2026-05-16T12:40:17+02:00</time>
      </trkpt>
      <trkpt lat="47.58285" lon="5.86291">
        <ele>198.60059</ele>
        <time>2026-05-16T12:40:18+02:00</time>
      </trkpt>
      <trkpt lat="47.58283" lon="5.86299">
        <ele>198.40039</ele>
        <time>2026-05-16T12:40:19+02:00</time>
      </trkpt>
      <trkpt lat="47.58281" lon="5.86308">
        <ele>198.60059</ele>
        <time>2026-05-16T12:40:20+02:00</time>
      </trkpt>
      <trkpt lat="47.5828" lon="5.86317">
        <ele>198.7998</ele>
        <time>2026-05-16T12:40:21+02:00</time>
      </trkpt>
      <trkpt lat="47.58278" lon="5.86325">
        <ele>199.10059</ele>
        <time>2026-05-16T12:40:22+02:00</time>
      </trkpt>
      <trkpt lat="47.58277" lon="5.86334">
        <ele>199.10059</ele>
        <time>2026-05-16T12:40:23+02:00</time>
      </trkpt>
      <trkpt lat="47.58276" lon="5.86343">
        <ele>199.10059</ele>
        <time>2026-05-16T12:40:24+02:00</time>
      </trkpt>
      <trkpt lat="47.58275" lon="5.86352">
        <ele>199.10059</ele>
        <time>2026-05-16T12:40:25+02:00</time>
      </trkpt>
      <trkpt lat="47.58273" lon="5.86361">
        <ele>199</ele>
        <time>2026-05-16T12:40:26+02:00</time>
      </trkpt>
      <trkpt lat="47.58272" lon="5.86369">
        <ele>199</ele>
        <time>2026-05-16T12:40:27+02:00</time>
      </trkpt>
      <trkpt lat="47.5827" lon="5.86378">
        <ele>198.7002</ele>
        <time>2026-05-16T12:40:28+02:00</time>
      </trkpt>
      <trkpt lat="47.58269" lon="5.86387">
        <ele>198.7002</ele>
        <time>2026-05-16T12:40:29+02:00</time>
      </trkpt>
      <trkpt lat="47.58269" lon="5.86392">
        <ele>198.7002</ele>
        <time>2026-05-16T12:40:30+02:00</time>
      </trkpt>
      <trkpt lat="47.58267" lon="5.86405">
        <ele>198.7002</ele>
        <time>2026-05-16T12:40:31+02:00</time>
      </trkpt>
      <trkpt lat="47.58266" lon="5.86414">
        <ele>198.40039</ele>
        <time>2026-05-16T12:40:32+02:00</time>
      </trkpt>
      <trkpt lat="47.58265" lon="5.86423">
        <ele>198.40039</ele>
        <time>2026-05-16T12:40:33+02:00</time>
      </trkpt>
      <trkpt lat="47.58264" lon="5.86432">
        <ele>198.40039</ele>
        <time>2026-05-16T12:40:34+02:00</time>
      </trkpt>
      <trkpt lat="47.58263" lon="5.86441">
        <ele>198.40039</ele>
        <time>2026-05-16T12:40:35+02:00</time>
      </trkpt>
      <trkpt lat="47.58262" lon="5.8645">
        <ele>198.40039</ele>
        <time>2026-05-16T12:40:36+02:00</time>
      </trkpt>
      <trkpt lat="47.58262" lon="5.86459">
        <ele>198.40039</ele>
        <time>2026-05-16T12:40:37+02:00</time>
      </trkpt>
      <trkpt lat="47.58261" lon="5.86468">
        <ele>198.40039</ele>
        <time>2026-05-16T12:40:38+02:00</time>
      </trkpt>
      <trkpt lat="47.5826" lon="5.86477">
        <ele>198.40039</ele>
        <time>2026-05-16T12:40:39+02:00</time>
      </trkpt>
      <trkpt lat="47.5826" lon="5.86482">
        <ele>198.2998</ele>
        <time>2026-05-16T12:40:40+02:00</time>
      </trkpt>
      <trkpt lat="47.58259" lon="5.86495">
        <ele>198.2002</ele>
        <time>2026-05-16T12:40:41+02:00</time>
      </trkpt>
      <trkpt lat="47.58259" lon="5.86504">
        <ele>198.2002</ele>
        <time>2026-05-16T12:40:42+02:00</time>
      </trkpt>
      <trkpt lat="47.58258" lon="5.86512">
        <ele>198.2998</ele>
        <time>2026-05-16T12:40:43+02:00</time>
      </trkpt>
      <trkpt lat="47.58258" lon="5.86521">
        <ele>198.60059</ele>
        <time>2026-05-16T12:40:44+02:00</time>
      </trkpt>
      <trkpt lat="47.58257" lon="5.86529">
        <ele>198.90039</ele>
        <time>2026-05-16T12:40:45+02:00</time>
      </trkpt>
      <trkpt lat="47.58257" lon="5.86538">
        <ele>199</ele>
        <time>2026-05-16T12:40:46+02:00</time>
      </trkpt>
      <trkpt lat="47.58256" lon="5.86547">
        <ele>199.10059</ele>
        <time>2026-05-16T12:40:47+02:00</time>
      </trkpt>
      <trkpt lat="47.58256" lon="5.86556">
        <ele>199.10059</ele>
        <time>2026-05-16T12:40:48+02:00</time>
      </trkpt>
      <trkpt lat="47.58256" lon="5.86565">
        <ele>199.10059</ele>
        <time>2026-05-16T12:40:49+02:00</time>
      </trkpt>
      <trkpt lat="47.58255" lon="5.86573">
        <ele>199</ele>
        <time>2026-05-16T12:40:50+02:00</time>
      </trkpt>
      <trkpt lat="47.58255" lon="5.86582">
        <ele>199.10059</ele>
        <time>2026-05-16T12:40:51+02:00</time>
      </trkpt>
      <trkpt lat="47.58255" lon="5.86591">
        <ele>199.10059</ele>
        <time>2026-05-16T12:40:52+02:00</time>
      </trkpt>
      <trkpt lat="47.58254" lon="5.866">
        <ele>198.60059</ele>
        <time>2026-05-16T12:40:53+02:00</time>
      </trkpt>
      <trkpt lat="47.58254" lon="5.86609">
        <ele>198.60059</ele>
        <time>2026-05-16T12:40:54+02:00</time>
      </trkpt>
      <trkpt lat="47.58254" lon="5.86617">
        <ele>198.5</ele>
        <time>2026-05-16T12:40:55+02:00</time>
      </trkpt>
      <trkpt lat="47.58254" lon="5.86626">
        <ele>198.5</ele>
        <time>2026-05-16T12:40:56+02:00</time>
      </trkpt>
      <trkpt lat="47.58255" lon="5.86635">
        <ele>199</ele>
        <time>2026-05-16T12:40:57+02:00</time>
      </trkpt>
      <trkpt lat="47.58255" lon="5.86644">
        <ele>198.90039</ele>
        <time>2026-05-16T12:40:58+02:00</time>
      </trkpt>
      <trkpt lat="47.58256" lon="5.86652">
        <ele>198.90039</ele>
        <time>2026-05-16T12:40:59+02:00</time>
      </trkpt>
      <trkpt lat="47.58256" lon="5.86661">
        <ele>198.90039</ele>
        <time>2026-05-16T12:41:00+02:00</time>
      </trkpt>
      <trkpt lat="47.58257" lon="5.8667">
        <ele>198.7998</ele>
        <time>2026-05-16T12:41:01+02:00</time>
      </trkpt>
      <trkpt lat="47.58258" lon="5.86679">
        <ele>198.7998</ele>
        <time>2026-05-16T12:41:02+02:00</time>
      </trkpt>
      <trkpt lat="47.58259" lon="5.86688">
        <ele>198.7998</ele>
        <time>2026-05-16T12:41:03+02:00</time>
      </trkpt>
      <trkpt lat="47.58259" lon="5.86697">
        <ele>198.7002</ele>
        <time>2026-05-16T12:41:04+02:00</time>
      </trkpt>
      <trkpt lat="47.5826" lon="5.86705">
        <ele>198.7002</ele>
        <time>2026-05-16T12:41:05+02:00</time>
      </trkpt>
      <trkpt lat="47.58262" lon="5.86714">
        <ele>199.2002</ele>
        <time>2026-05-16T12:41:06+02:00</time>
      </trkpt>
      <trkpt lat="47.58263" lon="5.86719">
        <ele>199.2002</ele>
        <time>2026-05-16T12:41:07+02:00</time>
      </trkpt>
      <trkpt lat="47.58265" lon="5.86732">
        <ele>199.10059</ele>
        <time>2026-05-16T12:41:08+02:00</time>
      </trkpt>
      <trkpt lat="47.58267" lon="5.86741">
        <ele>199.60059</ele>
        <time>2026-05-16T12:41:09+02:00</time>
      </trkpt>
      <trkpt lat="47.58269" lon="5.8675">
        <ele>199.5</ele>
        <time>2026-05-16T12:41:10+02:00</time>
      </trkpt>
      <trkpt lat="47.58271" lon="5.86759">
        <ele>199.40039</ele>
        <time>2026-05-16T12:41:11+02:00</time>
      </trkpt>
      <trkpt lat="47.58273" lon="5.86768">
        <ele>199.60059</ele>
        <time>2026-05-16T12:41:12+02:00</time>
      </trkpt>
      <trkpt lat="47.58275" lon="5.86776">
        <ele>199.2002</ele>
        <time>2026-05-16T12:41:13+02:00</time>
      </trkpt>
      <trkpt lat="47.58278" lon="5.86785">
        <ele>199.2998</ele>
        <time>2026-05-16T12:41:14+02:00</time>
      </trkpt>
      <trkpt lat="47.5828" lon="5.86793">
        <ele>198.90039</ele>
        <time>2026-05-16T12:41:15+02:00</time>
      </trkpt>
      <trkpt lat="47.58283" lon="5.86802">
        <ele>198.7002</ele>
        <time>2026-05-16T12:41:16+02:00</time>
      </trkpt>
      <trkpt lat="47.58284" lon="5.86806">
        <ele>199.2998</ele>
        <time>2026-05-16T12:41:17+02:00</time>
      </trkpt>
      <trkpt lat="47.58288" lon="5.86818">
        <ele>198.90039</ele>
        <time>2026-05-16T12:41:18+02:00</time>
      </trkpt>
      <trkpt lat="47.58291" lon="5.86826">
        <ele>199.2002</ele>
        <time>2026-05-16T12:41:19+02:00</time>
      </trkpt>
      <trkpt lat="47.58293" lon="5.86835">
        <ele>198.90039</ele>
        <time>2026-05-16T12:41:20+02:00</time>
      </trkpt>
      <trkpt lat="47.58296" lon="5.86843">
        <ele>198.90039</ele>
        <time>2026-05-16T12:41:21+02:00</time>
      </trkpt>
      <trkpt lat="47.58299" lon="5.86851">
        <ele>198.5</ele>
        <time>2026-05-16T12:41:22+02:00</time>
      </trkpt>
      <trkpt lat="47.58302" lon="5.86858">
        <ele>198.90039</ele>
        <time>2026-05-16T12:41:23+02:00</time>
      </trkpt>
      <trkpt lat="47.58305" lon="5.86865">
        <ele>198.7002</ele>
        <time>2026-05-16T12:41:24+02:00</time>
      </trkpt>
      <trkpt lat="47.58307" lon="5.86872">
        <ele>199</ele>
        <time>2026-05-16T12:41:25+02:00</time>
      </trkpt>
      <trkpt lat="47.5831" lon="5.86879">
        <ele>198.90039</ele>
        <time>2026-05-16T12:41:26+02:00</time>
      </trkpt>
      <trkpt lat="47.58314" lon="5.86886">
        <ele>199.2002</ele>
        <time>2026-05-16T12:41:27+02:00</time>
      </trkpt>
      <trkpt lat="47.58317" lon="5.86893">
        <ele>199.2002</ele>
        <time>2026-05-16T12:41:28+02:00</time>
      </trkpt>
      <trkpt lat="47.5832" lon="5.86899">
        <ele>199.40039</ele>
        <time>2026-05-16T12:41:29+02:00</time>
      </trkpt>
      <trkpt lat="47.58323" lon="5.86906">
        <ele>199</ele>
        <time>2026-05-16T12:41:30+02:00</time>
      </trkpt>
      <trkpt lat="47.58326" lon="5.86913">
        <ele>198.90039</ele>
        <time>2026-05-16T12:41:31+02:00</time>
      </trkpt>
      <trkpt lat="47.5833" lon="5.8692">
        <ele>199</ele>
        <time>2026-05-16T12:41:32+02:00</time>
      </trkpt>
      <trkpt lat="47.58334" lon="5.86928">
        <ele>198.90039</ele>
        <time>2026-05-16T12:41:33+02:00</time>
      </trkpt>
      <trkpt lat="47.58338" lon="5.86935">
        <ele>199.2998</ele>
        <time>2026-05-16T12:41:34+02:00</time>
      </trkpt>
      <trkpt lat="47.58342" lon="5.86942">
        <ele>199.2002</ele>
        <time>2026-05-16T12:41:35+02:00</time>
      </trkpt>
      <trkpt lat="47.58346" lon="5.86948">
        <ele>198.7998</ele>
        <time>2026-05-16T12:41:36+02:00</time>
      </trkpt>
      <trkpt lat="47.58351" lon="5.86954">
        <ele>198.40039</ele>
        <time>2026-05-16T12:41:37+02:00</time>
      </trkpt>
      <trkpt lat="47.58355" lon="5.8696">
        <ele>198.2998</ele>
        <time>2026-05-16T12:41:38+02:00</time>
      </trkpt>
      <trkpt lat="47.5836" lon="5.86966">
        <ele>198.10059</ele>
        <time>2026-05-16T12:41:39+02:00</time>
      </trkpt>
      <trkpt lat="47.58365" lon="5.86971">
        <ele>198</ele>
        <time>2026-05-16T12:41:40+02:00</time>
      </trkpt>
      <trkpt lat="47.5837" lon="5.86976">
        <ele>198</ele>
        <time>2026-05-16T12:41:41+02:00</time>
      </trkpt>
      <trkpt lat="47.58375" lon="5.86981">
        <ele>198</ele>
        <time>2026-05-16T12:41:42+02:00</time>
      </trkpt>
      <trkpt lat="47.58379" lon="5.86986">
        <ele>198.10059</ele>
        <time>2026-05-16T12:41:43+02:00</time>
      </trkpt>
      <trkpt lat="47.58383" lon="5.8699">
        <ele>198.40039</ele>
        <time>2026-05-16T12:41:44+02:00</time>
      </trkpt>
      <trkpt lat="47.58388" lon="5.86994">
        <ele>198.40039</ele>
        <time>2026-05-16T12:41:45+02:00</time>
      </trkpt>
      <trkpt lat="47.58391" lon="5.86997">
        <ele>198.60059</ele>
        <time>2026-05-16T12:41:46+02:00</time>
      </trkpt>
      <trkpt lat="47.58395" lon="5.87001">
        <ele>198.60059</ele>
        <time>2026-05-16T12:41:47+02:00</time>
      </trkpt>
      <trkpt lat="47.58398" lon="5.87004">
        <ele>198.60059</ele>
        <time>2026-05-16T12:41:48+02:00</time>
      </trkpt>
      <trkpt lat="47.58401" lon="5.87007">
        <ele>198.7002</ele>
        <time>2026-05-16T12:41:49+02:00</time>
      </trkpt>
      <trkpt lat="47.58404" lon="5.87009">
        <ele>198.7002</ele>
        <time>2026-05-16T12:41:50+02:00</time>
      </trkpt>
      <trkpt lat="47.58407" lon="5.87011">
        <ele>198.40039</ele>
        <time>2026-05-16T12:41:51+02:00</time>
      </trkpt>
      <trkpt lat="47.58409" lon="5.87013">
        <ele>198.40039</ele>
        <time>2026-05-16T12:41:52+02:00</time>
      </trkpt>
      <trkpt lat="47.58411" lon="5.87013">
        <ele>198.40039</ele>
        <time>2026-05-16T12:41:53+02:00</time>
      </trkpt>
      <trkpt lat="47.58413" lon="5.87013">
        <ele>198.10059</ele>
        <time>2026-05-16T12:41:54+02:00</time>
      </trkpt>
      <trkpt lat="47.58416" lon="5.87012">
        <ele>198.10059</ele>
        <time>2026-05-16T12:41:55+02:00</time>
      </trkpt>
      <trkpt lat="47.58418" lon="5.87009">
        <ele>198</ele>
        <time>2026-05-16T12:41:56+02:00</time>
      </trkpt>
      <trkpt lat="47.58421" lon="5.87007">
        <ele>198</ele>
        <time>2026-05-16T12:41:57+02:00</time>
      </trkpt>
      <trkpt lat="47.58424" lon="5.87004">
        <ele>198.40039</ele>
        <time>2026-05-16T12:41:58+02:00</time>
      </trkpt>
      <trkpt lat="47.58428" lon="5.87002">
        <ele>198.40039</ele>
        <time>2026-05-16T12:41:59+02:00</time>
      </trkpt>
      <trkpt lat="47.58432" lon="5.86999">
        <ele>198.7002</ele>
        <time>2026-05-16T12:42:00+02:00</time>
      </trkpt>
      <trkpt lat="47.58436" lon="5.86997">
        <ele>199</ele>
        <time>2026-05-16T12:42:01+02:00</time>
      </trkpt>
      <trkpt lat="47.5844" lon="5.86996">
        <ele>200.10059</ele>
        <time>2026-05-16T12:42:02+02:00</time>
      </trkpt>
      <trkpt lat="47.58444" lon="5.86996">
        <ele>200.10059</ele>
        <time>2026-05-16T12:42:03+02:00</time>
      </trkpt>
      <trkpt lat="47.58449" lon="5.86997">
        <ele>199.5</ele>
        <time>2026-05-16T12:42:04+02:00</time>
      </trkpt>
      <trkpt lat="47.58454" lon="5.86998">
        <ele>199.7002</ele>
        <time>2026-05-16T12:42:05+02:00</time>
      </trkpt>
      <trkpt lat="47.58458" lon="5.87">
        <ele>200</ele>
        <time>2026-05-16T12:42:06+02:00</time>
      </trkpt>
      <trkpt lat="47.58462" lon="5.87002">
        <ele>200</ele>
        <time>2026-05-16T12:42:07+02:00</time>
      </trkpt>
      <trkpt lat="47.58467" lon="5.87003">
        <ele>200.40039</ele>
        <time>2026-05-16T12:42:08+02:00</time>
      </trkpt>
      <trkpt lat="47.58472" lon="5.87005">
        <ele>199.90039</ele>
        <time>2026-05-16T12:42:09+02:00</time>
      </trkpt>
      <trkpt lat="47.58477" lon="5.87007">
        <ele>200.5</ele>
        <time>2026-05-16T12:42:10+02:00</time>
      </trkpt>
      <trkpt lat="47.58482" lon="5.87009">
        <ele>201.2002</ele>
        <time>2026-05-16T12:42:11+02:00</time>
      </trkpt>
      <trkpt lat="47.58487" lon="5.87011">
        <ele>201.60059</ele>
        <time>2026-05-16T12:42:12+02:00</time>
      </trkpt>
      <trkpt lat="47.58492" lon="5.87012">
        <ele>201.60059</ele>
        <time>2026-05-16T12:42:13+02:00</time>
      </trkpt>
      <trkpt lat="47.58497" lon="5.87014">
        <ele>200.90039</ele>
        <time>2026-05-16T12:42:14+02:00</time>
      </trkpt>
      <trkpt lat="47.58502" lon="5.87016">
        <ele>201.10059</ele>
        <time>2026-05-16T12:42:15+02:00</time>
      </trkpt>
      <trkpt lat="47.58507" lon="5.87018">
        <ele>201.2998</ele>
        <time>2026-05-16T12:42:16+02:00</time>
      </trkpt>
      <trkpt lat="47.58511" lon="5.87019">
        <ele>201.5</ele>
        <time>2026-05-16T12:42:17+02:00</time>
      </trkpt>
      <trkpt lat="47.58516" lon="5.87021">
        <ele>201.7998</ele>
        <time>2026-05-16T12:42:18+02:00</time>
      </trkpt>
      <trkpt lat="47.58521" lon="5.87023">
        <ele>200.5</ele>
        <time>2026-05-16T12:42:19+02:00</time>
      </trkpt>
      <trkpt lat="47.58526" lon="5.87024">
        <ele>200.7002</ele>
        <time>2026-05-16T12:42:20+02:00</time>
      </trkpt>
      <trkpt lat="47.58531" lon="5.87026">
        <ele>201.10059</ele>
        <time>2026-05-16T12:42:21+02:00</time>
      </trkpt>
      <trkpt lat="47.58536" lon="5.87028">
        <ele>201.5</ele>
        <time>2026-05-16T12:42:22+02:00</time>
      </trkpt>
      <trkpt lat="47.58541" lon="5.8703">
        <ele>202.10059</ele>
        <time>2026-05-16T12:42:23+02:00</time>
      </trkpt>
      <trkpt lat="47.58543" lon="5.87031">
        <ele>200.90039</ele>
        <time>2026-05-16T12:42:24+02:00</time>
      </trkpt>
      <trkpt lat="47.58551" lon="5.87034">
        <ele>202.7002</ele>
        <time>2026-05-16T12:42:25+02:00</time>
      </trkpt>
      <trkpt lat="47.58555" lon="5.87036">
        <ele>202.7002</ele>
        <time>2026-05-16T12:42:26+02:00</time>
      </trkpt>
      <trkpt lat="47.5856" lon="5.87037">
        <ele>203.40039</ele>
        <time>2026-05-16T12:42:27+02:00</time>
      </trkpt>
      <trkpt lat="47.58563" lon="5.87038">
        <ele>204</ele>
        <time>2026-05-16T12:42:28+02:00</time>
      </trkpt>
      <trkpt lat="47.58569" lon="5.8704">
        <ele>202.90039</ele>
        <time>2026-05-16T12:42:29+02:00</time>
      </trkpt>
      <trkpt lat="47.58574" lon="5.87041">
        <ele>202.7998</ele>
        <time>2026-05-16T12:42:30+02:00</time>
      </trkpt>
      <trkpt lat="47.58578" lon="5.87042">
        <ele>202.7998</ele>
        <time>2026-05-16T12:42:31+02:00</time>
      </trkpt>
      <trkpt lat="47.58582" lon="5.87043">
        <ele>202.5</ele>
        <time>2026-05-16T12:42:32+02:00</time>
      </trkpt>
      <trkpt lat="47.58585" lon="5.87043">
        <ele>202.10059</ele>
        <time>2026-05-16T12:42:33+02:00</time>
      </trkpt>
      <trkpt lat="47.58589" lon="5.87044">
        <ele>202.10059</ele>
        <time>2026-05-16T12:42:34+02:00</time>
      </trkpt>
      <trkpt lat="47.58593" lon="5.87044">
        <ele>201.60059</ele>
        <time>2026-05-16T12:42:35+02:00</time>
      </trkpt>
      <trkpt lat="47.58597" lon="5.87044">
        <ele>201.2002</ele>
        <time>2026-05-16T12:42:36+02:00</time>
      </trkpt>
      <trkpt lat="47.586" lon="5.87045">
        <ele>201.2002</ele>
        <time>2026-05-16T12:42:37+02:00</time>
      </trkpt>
      <trkpt lat="47.58603" lon="5.87046">
        <ele>201.10059</ele>
        <time>2026-05-16T12:42:38+02:00</time>
      </trkpt>
      <trkpt lat="47.58607" lon="5.87048">
        <ele>199.10059</ele>
        <time>2026-05-16T12:42:39+02:00</time>
      </trkpt>
      <trkpt lat="47.5861" lon="5.87049">
        <ele>199.10059</ele>
        <time>2026-05-16T12:42:40+02:00</time>
      </trkpt>
      <trkpt lat="47.58614" lon="5.8705">
        <ele>199</ele>
        <time>2026-05-16T12:42:41+02:00</time>
      </trkpt>
      <trkpt lat="47.58618" lon="5.87051">
        <ele>199</ele>
        <time>2026-05-16T12:42:42+02:00</time>
      </trkpt>
      <trkpt lat="47.58622" lon="5.87052">
        <ele>198.90039</ele>
        <time>2026-05-16T12:42:43+02:00</time>
      </trkpt>
      <trkpt lat="47.58626" lon="5.87053">
        <ele>198.90039</ele>
        <time>2026-05-16T12:42:44+02:00</time>
      </trkpt>
      <trkpt lat="47.58631" lon="5.87054">
        <ele>198.90039</ele>
        <time>2026-05-16T12:42:45+02:00</time>
      </trkpt>
      <trkpt lat="47.58636" lon="5.87055">
        <ele>198.90039</ele>
        <time>2026-05-16T12:42:46+02:00</time>
      </trkpt>
      <trkpt lat="47.58642" lon="5.87056">
        <ele>198.7998</ele>
        <time>2026-05-16T12:42:47+02:00</time>
      </trkpt>
      <trkpt lat="47.58644" lon="5.87057">
        <ele>197.10059</ele>
        <time>2026-05-16T12:42:48+02:00</time>
      </trkpt>
      <trkpt lat="47.58654" lon="5.87059">
        <ele>197</ele>
        <time>2026-05-16T12:42:49+02:00</time>
      </trkpt>
      <trkpt lat="47.5866" lon="5.8706">
        <ele>196.90039</ele>
        <time>2026-05-16T12:42:50+02:00</time>
      </trkpt>
      <trkpt lat="47.58667" lon="5.87062">
        <ele>196.90039</ele>
        <time>2026-05-16T12:42:51+02:00</time>
      </trkpt>
      <trkpt lat="47.58674" lon="5.87063">
        <ele>196.7998</ele>
        <time>2026-05-16T12:42:52+02:00</time>
      </trkpt>
      <trkpt lat="47.58681" lon="5.87064">
        <ele>196.7998</ele>
        <time>2026-05-16T12:42:53+02:00</time>
      </trkpt>
      <trkpt lat="47.58689" lon="5.87066">
        <ele>196</ele>
        <time>2026-05-16T12:42:54+02:00</time>
      </trkpt>
      <trkpt lat="47.58696" lon="5.87068">
        <ele>195.90039</ele>
        <time>2026-05-16T12:42:55+02:00</time>
      </trkpt>
      <trkpt lat="47.58704" lon="5.8707">
        <ele>195.60059</ele>
        <time>2026-05-16T12:42:56+02:00</time>
      </trkpt>
      <trkpt lat="47.58712" lon="5.87072">
        <ele>195.5</ele>
        <time>2026-05-16T12:42:57+02:00</time>
      </trkpt>
      <trkpt lat="47.5872" lon="5.87075">
        <ele>196.10059</ele>
        <time>2026-05-16T12:42:58+02:00</time>
      </trkpt>
      <trkpt lat="47.58729" lon="5.87077">
        <ele>197</ele>
        <time>2026-05-16T12:42:59+02:00</time>
      </trkpt>
      <trkpt lat="47.58737" lon="5.87079">
        <ele>198.7002</ele>
        <time>2026-05-16T12:43:00+02:00</time>
      </trkpt>
      <trkpt lat="47.58746" lon="5.87081">
        <ele>199.10059</ele>
        <time>2026-05-16T12:43:01+02:00</time>
      </trkpt>
      <trkpt lat="47.58755" lon="5.87084">
        <ele>198.5</ele>
        <time>2026-05-16T12:43:02+02:00</time>
      </trkpt>
      <trkpt lat="47.58764" lon="5.87088">
        <ele>198.7998</ele>
        <time>2026-05-16T12:43:03+02:00</time>
      </trkpt>
      <trkpt lat="47.58773" lon="5.87093">
        <ele>198.2002</ele>
        <time>2026-05-16T12:43:04+02:00</time>
      </trkpt>
      <trkpt lat="47.58782" lon="5.87098">
        <ele>198.10059</ele>
        <time>2026-05-16T12:43:05+02:00</time>
      </trkpt>
      <trkpt lat="47.58791" lon="5.87102">
        <ele>197.7998</ele>
        <time>2026-05-16T12:43:06+02:00</time>
      </trkpt>
      <trkpt lat="47.58799" lon="5.87106">
        <ele>197.7998</ele>
        <time>2026-05-16T12:43:07+02:00</time>
      </trkpt>
      <trkpt lat="47.58807" lon="5.87109">
        <ele>198</ele>
        <time>2026-05-16T12:43:08+02:00</time>
      </trkpt>
      <trkpt lat="47.58815" lon="5.87112">
        <ele>198</ele>
        <time>2026-05-16T12:43:09+02:00</time>
      </trkpt>
      <trkpt lat="47.58823" lon="5.87114">
        <ele>198.10059</ele>
        <time>2026-05-16T12:43:10+02:00</time>
      </trkpt>
      <trkpt lat="47.5883" lon="5.87117">
        <ele>198.2998</ele>
        <time>2026-05-16T12:43:11+02:00</time>
      </trkpt>
      <trkpt lat="47.58838" lon="5.87118">
        <ele>198.2998</ele>
        <time>2026-05-16T12:43:12+02:00</time>
      </trkpt>
      <trkpt lat="47.58845" lon="5.87119">
        <ele>198.2998</ele>
        <time>2026-05-16T12:43:13+02:00</time>
      </trkpt>
      <trkpt lat="47.58852" lon="5.87121">
        <ele>198.2998</ele>
        <time>2026-05-16T12:43:14+02:00</time>
      </trkpt>
      <trkpt lat="47.58859" lon="5.87123">
        <ele>198.2998</ele>
        <time>2026-05-16T12:43:15+02:00</time>
      </trkpt>
      <trkpt lat="47.58866" lon="5.87124">
        <ele>198.2998</ele>
        <time>2026-05-16T12:43:16+02:00</time>
      </trkpt>
      <trkpt lat="47.58873" lon="5.87124">
        <ele>198.2998</ele>
        <time>2026-05-16T12:43:17+02:00</time>
      </trkpt>
      <trkpt lat="47.5888" lon="5.87124">
        <ele>198.2998</ele>
        <time>2026-05-16T12:43:18+02:00</time>
      </trkpt>
      <trkpt lat="47.58887" lon="5.87123">
        <ele>198.2998</ele>
        <time>2026-05-16T12:43:19+02:00</time>
      </trkpt>
      <trkpt lat="47.58894" lon="5.87122">
        <ele>198.2998</ele>
        <time>2026-05-16T12:43:20+02:00</time>
      </trkpt>
      <trkpt lat="47.58901" lon="5.87121">
        <ele>198.2998</ele>
        <time>2026-05-16T12:43:21+02:00</time>
      </trkpt>
      <trkpt lat="47.58904" lon="5.8712">
        <ele>198.2998</ele>
        <time>2026-05-16T12:43:22+02:00</time>
      </trkpt>
      <trkpt lat="47.58915" lon="5.87117">
        <ele>198.2998</ele>
        <time>2026-05-16T12:43:23+02:00</time>
      </trkpt>
      <trkpt lat="47.58922" lon="5.87114">
        <ele>198.2998</ele>
        <time>2026-05-16T12:43:24+02:00</time>
      </trkpt>
      <trkpt lat="47.58925" lon="5.87112">
        <ele>198.2998</ele>
        <time>2026-05-16T12:43:25+02:00</time>
      </trkpt>
      <trkpt lat="47.58936" lon="5.87107">
        <ele>198.10059</ele>
        <time>2026-05-16T12:43:26+02:00</time>
      </trkpt>
      <trkpt lat="47.58943" lon="5.87103">
        <ele>198.2002</ele>
        <time>2026-05-16T12:43:27+02:00</time>
      </trkpt>
      <trkpt lat="47.5895" lon="5.87099">
        <ele>198</ele>
        <time>2026-05-16T12:43:28+02:00</time>
      </trkpt>
      <trkpt lat="47.58957" lon="5.87095">
        <ele>198</ele>
        <time>2026-05-16T12:43:29+02:00</time>
      </trkpt>
      <trkpt lat="47.58964" lon="5.87091">
        <ele>198</ele>
        <time>2026-05-16T12:43:30+02:00</time>
      </trkpt>
      <trkpt lat="47.58971" lon="5.87087">
        <ele>198</ele>
        <time>2026-05-16T12:43:31+02:00</time>
      </trkpt>
      <trkpt lat="47.58978" lon="5.87083">
        <ele>198</ele>
        <time>2026-05-16T12:43:32+02:00</time>
      </trkpt>
      <trkpt lat="47.58985" lon="5.87079">
        <ele>198.2002</ele>
        <time>2026-05-16T12:43:33+02:00</time>
      </trkpt>
      <trkpt lat="47.58993" lon="5.87074">
        <ele>198.2998</ele>
        <time>2026-05-16T12:43:34+02:00</time>
      </trkpt>
      <trkpt lat="47.58999" lon="5.87069">
        <ele>198.2998</ele>
        <time>2026-05-16T12:43:35+02:00</time>
      </trkpt>
      <trkpt lat="47.59006" lon="5.87066">
        <ele>198.2998</ele>
        <time>2026-05-16T12:43:36+02:00</time>
      </trkpt>
      <trkpt lat="47.59013" lon="5.87062">
        <ele>197.90039</ele>
        <time>2026-05-16T12:43:37+02:00</time>
      </trkpt>
      <trkpt lat="47.5902" lon="5.87058">
        <ele>198</ele>
        <time>2026-05-16T12:43:38+02:00</time>
      </trkpt>
      <trkpt lat="47.59027" lon="5.87054">
        <ele>197.90039</ele>
        <time>2026-05-16T12:43:39+02:00</time>
      </trkpt>
      <trkpt lat="47.59034" lon="5.8705">
        <ele>197.90039</ele>
        <time>2026-05-16T12:43:40+02:00</time>
      </trkpt>
      <trkpt lat="47.59041" lon="5.87046">
        <ele>198</ele>
        <time>2026-05-16T12:43:41+02:00</time>
      </trkpt>
      <trkpt lat="47.59047" lon="5.87042">
        <ele>198</ele>
        <time>2026-05-16T12:43:42+02:00</time>
      </trkpt>
      <trkpt lat="47.59054" lon="5.87038">
        <ele>198.40039</ele>
        <time>2026-05-16T12:43:43+02:00</time>
      </trkpt>
      <trkpt lat="47.5906" lon="5.87034">
        <ele>198.2998</ele>
        <time>2026-05-16T12:43:44+02:00</time>
      </trkpt>
      <trkpt lat="47.59067" lon="5.8703">
        <ele>198.2002</ele>
        <time>2026-05-16T12:43:45+02:00</time>
      </trkpt>
      <trkpt lat="47.59073" lon="5.87025">
        <ele>198.10059</ele>
        <time>2026-05-16T12:43:46+02:00</time>
      </trkpt>
      <trkpt lat="47.5908" lon="5.87021">
        <ele>197.7998</ele>
        <time>2026-05-16T12:43:47+02:00</time>
      </trkpt>
      <trkpt lat="47.59086" lon="5.87016">
        <ele>197.90039</ele>
        <time>2026-05-16T12:43:48+02:00</time>
      </trkpt>
      <trkpt lat="47.59092" lon="5.87012">
        <ele>197.90039</ele>
        <time>2026-05-16T12:43:49+02:00</time>
      </trkpt>
      <trkpt lat="47.59099" lon="5.87007">
        <ele>197.90039</ele>
        <time>2026-05-16T12:43:50+02:00</time>
      </trkpt>
      <trkpt lat="47.59105" lon="5.87002">
        <ele>198.2998</ele>
        <time>2026-05-16T12:43:51+02:00</time>
      </trkpt>
      <trkpt lat="47.59112" lon="5.86998">
        <ele>198.2002</ele>
        <time>2026-05-16T12:43:52+02:00</time>
      </trkpt>
      <trkpt lat="47.59118" lon="5.86994">
        <ele>198.60059</ele>
        <time>2026-05-16T12:43:53+02:00</time>
      </trkpt>
      <trkpt lat="47.59125" lon="5.86989">
        <ele>198.5</ele>
        <time>2026-05-16T12:43:54+02:00</time>
      </trkpt>
      <trkpt lat="47.59131" lon="5.86985">
        <ele>198.2998</ele>
        <time>2026-05-16T12:43:55+02:00</time>
      </trkpt>
      <trkpt lat="47.59138" lon="5.8698">
        <ele>198</ele>
        <time>2026-05-16T12:43:56+02:00</time>
      </trkpt>
      <trkpt lat="47.59144" lon="5.86976">
        <ele>197.7002</ele>
        <time>2026-05-16T12:43:57+02:00</time>
      </trkpt>
      <trkpt lat="47.5915" lon="5.86971">
        <ele>197.7998</ele>
        <time>2026-05-16T12:43:58+02:00</time>
      </trkpt>
      <trkpt lat="47.59153" lon="5.86969">
        <ele>198.10059</ele>
        <time>2026-05-16T12:43:59+02:00</time>
      </trkpt>
      <trkpt lat="47.59163" lon="5.86963">
        <ele>198.10059</ele>
        <time>2026-05-16T12:44:00+02:00</time>
      </trkpt>
      <trkpt lat="47.5917" lon="5.86959">
        <ele>198.5</ele>
        <time>2026-05-16T12:44:01+02:00</time>
      </trkpt>
      <trkpt lat="47.59177" lon="5.86955">
        <ele>198.40039</ele>
        <time>2026-05-16T12:44:02+02:00</time>
      </trkpt>
      <trkpt lat="47.59184" lon="5.86952">
        <ele>199</ele>
        <time>2026-05-16T12:44:03+02:00</time>
      </trkpt>
      <trkpt lat="47.5919" lon="5.86948">
        <ele>198.7002</ele>
        <time>2026-05-16T12:44:04+02:00</time>
      </trkpt>
      <trkpt lat="47.59197" lon="5.86944">
        <ele>198.60059</ele>
        <time>2026-05-16T12:44:05+02:00</time>
      </trkpt>
      <trkpt lat="47.59203" lon="5.8694">
        <ele>198.10059</ele>
        <time>2026-05-16T12:44:06+02:00</time>
      </trkpt>
      <trkpt lat="47.5921" lon="5.86937">
        <ele>197.90039</ele>
        <time>2026-05-16T12:44:07+02:00</time>
      </trkpt>
      <trkpt lat="47.59217" lon="5.86933">
        <ele>197.90039</ele>
        <time>2026-05-16T12:44:08+02:00</time>
      </trkpt>
      <trkpt lat="47.59221" lon="5.86932">
        <ele>197.90039</ele>
        <time>2026-05-16T12:44:09+02:00</time>
      </trkpt>
      <trkpt lat="47.59231" lon="5.86928">
        <ele>198</ele>
        <time>2026-05-16T12:44:10+02:00</time>
      </trkpt>
      <trkpt lat="47.59237" lon="5.86925">
        <ele>198.2998</ele>
        <time>2026-05-16T12:44:11+02:00</time>
      </trkpt>
      <trkpt lat="47.59245" lon="5.86922">
        <ele>198.2998</ele>
        <time>2026-05-16T12:44:12+02:00</time>
      </trkpt>
      <trkpt lat="47.59252" lon="5.8692">
        <ele>198.2998</ele>
        <time>2026-05-16T12:44:13+02:00</time>
      </trkpt>
      <trkpt lat="47.59258" lon="5.86918">
        <ele>198.40039</ele>
        <time>2026-05-16T12:44:14+02:00</time>
      </trkpt>
      <trkpt lat="47.59266" lon="5.86916">
        <ele>198.2998</ele>
        <time>2026-05-16T12:44:15+02:00</time>
      </trkpt>
      <trkpt lat="47.59273" lon="5.86914">
        <ele>198.2002</ele>
        <time>2026-05-16T12:44:16+02:00</time>
      </trkpt>
      <trkpt lat="47.5928" lon="5.86913">
        <ele>198.2998</ele>
        <time>2026-05-16T12:44:17+02:00</time>
      </trkpt>
      <trkpt lat="47.59287" lon="5.86911">
        <ele>198.2998</ele>
        <time>2026-05-16T12:44:18+02:00</time>
      </trkpt>
      <trkpt lat="47.59294" lon="5.8691">
        <ele>198</ele>
        <time>2026-05-16T12:44:19+02:00</time>
      </trkpt>
      <trkpt lat="47.59301" lon="5.86908">
        <ele>198</ele>
        <time>2026-05-16T12:44:20+02:00</time>
      </trkpt>
      <trkpt lat="47.59308" lon="5.86907">
        <ele>198</ele>
        <time>2026-05-16T12:44:21+02:00</time>
      </trkpt>
      <trkpt lat="47.59315" lon="5.86906">
        <ele>198.10059</ele>
        <time>2026-05-16T12:44:22+02:00</time>
      </trkpt>
      <trkpt lat="47.59322" lon="5.86904">
        <ele>198.10059</ele>
        <time>2026-05-16T12:44:23+02:00</time>
      </trkpt>
      <trkpt lat="47.59329" lon="5.86902">
        <ele>198.10059</ele>
        <time>2026-05-16T12:44:24+02:00</time>
      </trkpt>
      <trkpt lat="47.59335" lon="5.869">
        <ele>197.7998</ele>
        <time>2026-05-16T12:44:25+02:00</time>
      </trkpt>
      <trkpt lat="47.59343" lon="5.86899">
        <ele>197.7998</ele>
        <time>2026-05-16T12:44:26+02:00</time>
      </trkpt>
      <trkpt lat="47.59349" lon="5.86898">
        <ele>197.90039</ele>
        <time>2026-05-16T12:44:27+02:00</time>
      </trkpt>
      <trkpt lat="47.59356" lon="5.86897">
        <ele>197.90039</ele>
        <time>2026-05-16T12:44:28+02:00</time>
      </trkpt>
      <trkpt lat="47.59363" lon="5.86896">
        <ele>197.90039</ele>
        <time>2026-05-16T12:44:29+02:00</time>
      </trkpt>
      <trkpt lat="47.59369" lon="5.86895">
        <ele>197.90039</ele>
        <time>2026-05-16T12:44:30+02:00</time>
      </trkpt>
      <trkpt lat="47.59376" lon="5.86894">
        <ele>197.90039</ele>
        <time>2026-05-16T12:44:31+02:00</time>
      </trkpt>
      <trkpt lat="47.59383" lon="5.86893">
        <ele>197.7998</ele>
        <time>2026-05-16T12:44:32+02:00</time>
      </trkpt>
      <trkpt lat="47.5939" lon="5.86892">
        <ele>197.7002</ele>
        <time>2026-05-16T12:44:33+02:00</time>
      </trkpt>
      <trkpt lat="47.59396" lon="5.86891">
        <ele>197.7002</ele>
        <time>2026-05-16T12:44:34+02:00</time>
      </trkpt>
      <trkpt lat="47.59403" lon="5.8689">
        <ele>197.7002</ele>
        <time>2026-05-16T12:44:35+02:00</time>
      </trkpt>
      <trkpt lat="47.59407" lon="5.8689">
        <ele>197.7002</ele>
        <time>2026-05-16T12:44:36+02:00</time>
      </trkpt>
      <trkpt lat="47.59417" lon="5.86889">
        <ele>197.7002</ele>
        <time>2026-05-16T12:44:37+02:00</time>
      </trkpt>
      <trkpt lat="47.59424" lon="5.86888">
        <ele>197.7002</ele>
        <time>2026-05-16T12:44:38+02:00</time>
      </trkpt>
      <trkpt lat="47.5943" lon="5.86888">
        <ele>197.7002</ele>
        <time>2026-05-16T12:44:39+02:00</time>
      </trkpt>
      <trkpt lat="47.59437" lon="5.86887">
        <ele>197.7002</ele>
        <time>2026-05-16T12:44:40+02:00</time>
      </trkpt>
      <trkpt lat="47.59444" lon="5.86886">
        <ele>197.7002</ele>
        <time>2026-05-16T12:44:41+02:00</time>
      </trkpt>
      <trkpt lat="47.59451" lon="5.86886">
        <ele>197.7998</ele>
        <time>2026-05-16T12:44:42+02:00</time>
      </trkpt>
      <trkpt lat="47.59458" lon="5.86886">
        <ele>197.7998</ele>
        <time>2026-05-16T12:44:43+02:00</time>
      </trkpt>
      <trkpt lat="47.59466" lon="5.86885">
        <ele>197.7998</ele>
        <time>2026-05-16T12:44:44+02:00</time>
      </trkpt>
      <trkpt lat="47.59472" lon="5.86884">
        <ele>197.7002</ele>
        <time>2026-05-16T12:44:45+02:00</time>
      </trkpt>
      <trkpt lat="47.5948" lon="5.86884">
        <ele>197.7002</ele>
        <time>2026-05-16T12:44:46+02:00</time>
      </trkpt>
      <trkpt lat="47.59487" lon="5.86883">
        <ele>197.7002</ele>
        <time>2026-05-16T12:44:47+02:00</time>
      </trkpt>
      <trkpt lat="47.59494" lon="5.86883">
        <ele>197.7002</ele>
        <time>2026-05-16T12:44:48+02:00</time>
      </trkpt>
      <trkpt lat="47.59501" lon="5.86883">
        <ele>197.7002</ele>
        <time>2026-05-16T12:44:49+02:00</time>
      </trkpt>
      <trkpt lat="47.59509" lon="5.86882">
        <ele>197.7002</ele>
        <time>2026-05-16T12:44:50+02:00</time>
      </trkpt>
      <trkpt lat="47.59516" lon="5.86882">
        <ele>197.7002</ele>
        <time>2026-05-16T12:44:51+02:00</time>
      </trkpt>
      <trkpt lat="47.59523" lon="5.86882">
        <ele>197.7002</ele>
        <time>2026-05-16T12:44:52+02:00</time>
      </trkpt>
      <trkpt lat="47.5953" lon="5.86882">
        <ele>197.7998</ele>
        <time>2026-05-16T12:44:53+02:00</time>
      </trkpt>
      <trkpt lat="47.59537" lon="5.86883">
        <ele>197.7998</ele>
        <time>2026-05-16T12:44:54+02:00</time>
      </trkpt>
      <trkpt lat="47.59544" lon="5.86883">
        <ele>197.7998</ele>
        <time>2026-05-16T12:44:55+02:00</time>
      </trkpt>
      <trkpt lat="47.59551" lon="5.86883">
        <ele>197.7998</ele>
        <time>2026-05-16T12:44:56+02:00</time>
      </trkpt>
      <trkpt lat="47.59557" lon="5.86883">
        <ele>197.90039</ele>
        <time>2026-05-16T12:44:57+02:00</time>
      </trkpt>
      <trkpt lat="47.59564" lon="5.86883">
        <ele>197.90039</ele>
        <time>2026-05-16T12:44:58+02:00</time>
      </trkpt>
      <trkpt lat="47.59571" lon="5.86883">
        <ele>197.90039</ele>
        <time>2026-05-16T12:44:59+02:00</time>
      </trkpt>
      <trkpt lat="47.59577" lon="5.86884">
        <ele>198</ele>
        <time>2026-05-16T12:45:00+02:00</time>
      </trkpt>
      <trkpt lat="47.59584" lon="5.86884">
        <ele>198</ele>
        <time>2026-05-16T12:45:01+02:00</time>
      </trkpt>
      <trkpt lat="47.59591" lon="5.86885">
        <ele>198.2998</ele>
        <time>2026-05-16T12:45:02+02:00</time>
      </trkpt>
      <trkpt lat="47.59598" lon="5.86886">
        <ele>198.2998</ele>
        <time>2026-05-16T12:45:03+02:00</time>
      </trkpt>
      <trkpt lat="47.59605" lon="5.86887">
        <ele>198.2998</ele>
        <time>2026-05-16T12:45:04+02:00</time>
      </trkpt>
      <trkpt lat="47.59612" lon="5.86888">
        <ele>198.2998</ele>
        <time>2026-05-16T12:45:05+02:00</time>
      </trkpt>
      <trkpt lat="47.59618" lon="5.86889">
        <ele>198.2998</ele>
        <time>2026-05-16T12:45:06+02:00</time>
      </trkpt>
      <trkpt lat="47.59624" lon="5.8689">
        <ele>198.2998</ele>
        <time>2026-05-16T12:45:07+02:00</time>
      </trkpt>
      <trkpt lat="47.59631" lon="5.86891">
        <ele>198.2998</ele>
        <time>2026-05-16T12:45:08+02:00</time>
      </trkpt>
      <trkpt lat="47.59638" lon="5.86892">
        <ele>198.2998</ele>
        <time>2026-05-16T12:45:09+02:00</time>
      </trkpt>
      <trkpt lat="47.59644" lon="5.86892">
        <ele>198.2998</ele>
        <time>2026-05-16T12:45:10+02:00</time>
      </trkpt>
      <trkpt lat="47.59651" lon="5.86893">
        <ele>198.2998</ele>
        <time>2026-05-16T12:45:11+02:00</time>
      </trkpt>
      <trkpt lat="47.59658" lon="5.86893">
        <ele>198.2998</ele>
        <time>2026-05-16T12:45:12+02:00</time>
      </trkpt>
      <trkpt lat="47.59665" lon="5.86894">
        <ele>198.2002</ele>
        <time>2026-05-16T12:45:13+02:00</time>
      </trkpt>
      <trkpt lat="47.59672" lon="5.86894">
        <ele>198.2002</ele>
        <time>2026-05-16T12:45:14+02:00</time>
      </trkpt>
      <trkpt lat="47.59678" lon="5.86895">
        <ele>198.2002</ele>
        <time>2026-05-16T12:45:15+02:00</time>
      </trkpt>
      <trkpt lat="47.59685" lon="5.86895">
        <ele>198.2002</ele>
        <time>2026-05-16T12:45:16+02:00</time>
      </trkpt>
      <trkpt lat="47.59692" lon="5.86896">
        <ele>198.2002</ele>
        <time>2026-05-16T12:45:17+02:00</time>
      </trkpt>
      <trkpt lat="47.59698" lon="5.86897">
        <ele>198.2002</ele>
        <time>2026-05-16T12:45:18+02:00</time>
      </trkpt>
      <trkpt lat="47.59705" lon="5.86897">
        <ele>198.10059</ele>
        <time>2026-05-16T12:45:19+02:00</time>
      </trkpt>
      <trkpt lat="47.59711" lon="5.86898">
        <ele>198.10059</ele>
        <time>2026-05-16T12:45:20+02:00</time>
      </trkpt>
      <trkpt lat="47.59718" lon="5.86899">
        <ele>198.10059</ele>
        <time>2026-05-16T12:45:21+02:00</time>
      </trkpt>
      <trkpt lat="47.59725" lon="5.869">
        <ele>198.10059</ele>
        <time>2026-05-16T12:45:22+02:00</time>
      </trkpt>
      <trkpt lat="47.59732" lon="5.86901">
        <ele>198</ele>
        <time>2026-05-16T12:45:23+02:00</time>
      </trkpt>
      <trkpt lat="47.59739" lon="5.86902">
        <ele>198.2002</ele>
        <time>2026-05-16T12:45:24+02:00</time>
      </trkpt>
      <trkpt lat="47.59746" lon="5.86904">
        <ele>198.2002</ele>
        <time>2026-05-16T12:45:25+02:00</time>
      </trkpt>
      <trkpt lat="47.59752" lon="5.86905">
        <ele>198.2002</ele>
        <time>2026-05-16T12:45:26+02:00</time>
      </trkpt>
      <trkpt lat="47.59759" lon="5.86906">
        <ele>198.2002</ele>
        <time>2026-05-16T12:45:27+02:00</time>
      </trkpt>
      <trkpt lat="47.59766" lon="5.86907">
        <ele>198.2002</ele>
        <time>2026-05-16T12:45:28+02:00</time>
      </trkpt>
      <trkpt lat="47.59773" lon="5.86908">
        <ele>198.2002</ele>
        <time>2026-05-16T12:45:29+02:00</time>
      </trkpt>
      <trkpt lat="47.59779" lon="5.86909">
        <ele>198.10059</ele>
        <time>2026-05-16T12:45:30+02:00</time>
      </trkpt>
      <trkpt lat="47.59786" lon="5.86911">
        <ele>198.2998</ele>
        <time>2026-05-16T12:45:31+02:00</time>
      </trkpt>
      <trkpt lat="47.59793" lon="5.86912">
        <ele>198.2998</ele>
        <time>2026-05-16T12:45:32+02:00</time>
      </trkpt>
      <trkpt lat="47.59799" lon="5.86913">
        <ele>198.2998</ele>
        <time>2026-05-16T12:45:33+02:00</time>
      </trkpt>
      <trkpt lat="47.59806" lon="5.86914">
        <ele>198.2002</ele>
        <time>2026-05-16T12:45:34+02:00</time>
      </trkpt>
      <trkpt lat="47.59812" lon="5.86915">
        <ele>198</ele>
        <time>2026-05-16T12:45:35+02:00</time>
      </trkpt>
      <trkpt lat="47.59818" lon="5.86916">
        <ele>197.90039</ele>
        <time>2026-05-16T12:45:36+02:00</time>
      </trkpt>
      <trkpt lat="47.59825" lon="5.86918">
        <ele>197.7998</ele>
        <time>2026-05-16T12:45:37+02:00</time>
      </trkpt>
      <trkpt lat="47.59831" lon="5.86919">
        <ele>197.60059</ele>
        <time>2026-05-16T12:45:38+02:00</time>
      </trkpt>
      <trkpt lat="47.59837" lon="5.8692">
        <ele>197.5</ele>
        <time>2026-05-16T12:45:39+02:00</time>
      </trkpt>
      <trkpt lat="47.59844" lon="5.86922">
        <ele>197.5</ele>
        <time>2026-05-16T12:45:40+02:00</time>
      </trkpt>
      <trkpt lat="47.5985" lon="5.86923">
        <ele>197.5</ele>
        <time>2026-05-16T12:45:41+02:00</time>
      </trkpt>
      <trkpt lat="47.59856" lon="5.86925">
        <ele>197.40039</ele>
        <time>2026-05-16T12:45:42+02:00</time>
      </trkpt>
      <trkpt lat="47.59862" lon="5.86926">
        <ele>197.40039</ele>
        <time>2026-05-16T12:45:43+02:00</time>
      </trkpt>
      <trkpt lat="47.59868" lon="5.86928">
        <ele>198</ele>
        <time>2026-05-16T12:45:44+02:00</time>
      </trkpt>
      <trkpt lat="47.59874" lon="5.8693">
        <ele>198.10059</ele>
        <time>2026-05-16T12:45:45+02:00</time>
      </trkpt>
      <trkpt lat="47.59878" lon="5.86931">
        <ele>198.10059</ele>
        <time>2026-05-16T12:45:46+02:00</time>
      </trkpt>
      <trkpt lat="47.59887" lon="5.86934">
        <ele>198.10059</ele>
        <time>2026-05-16T12:45:47+02:00</time>
      </trkpt>
      <trkpt lat="47.59894" lon="5.86937">
        <ele>198.40039</ele>
        <time>2026-05-16T12:45:48+02:00</time>
      </trkpt>
      <trkpt lat="47.599" lon="5.86939">
        <ele>198.2998</ele>
        <time>2026-05-16T12:45:49+02:00</time>
      </trkpt>
      <trkpt lat="47.59907" lon="5.86941">
        <ele>198.2998</ele>
        <time>2026-05-16T12:45:50+02:00</time>
      </trkpt>
      <trkpt lat="47.59913" lon="5.86943">
        <ele>198.10059</ele>
        <time>2026-05-16T12:45:51+02:00</time>
      </trkpt>
      <trkpt lat="47.5992" lon="5.86945">
        <ele>197.7998</ele>
        <time>2026-05-16T12:45:52+02:00</time>
      </trkpt>
      <trkpt lat="47.59926" lon="5.86948">
        <ele>197.60059</ele>
        <time>2026-05-16T12:45:53+02:00</time>
      </trkpt>
      <trkpt lat="47.59932" lon="5.8695">
        <ele>197.5</ele>
        <time>2026-05-16T12:45:54+02:00</time>
      </trkpt>
      <trkpt lat="47.59939" lon="5.86953">
        <ele>197.5</ele>
        <time>2026-05-16T12:45:55+02:00</time>
      </trkpt>
      <trkpt lat="47.59942" lon="5.86954">
        <ele>198</ele>
        <time>2026-05-16T12:45:56+02:00</time>
      </trkpt>
      <trkpt lat="47.59952" lon="5.86958">
        <ele>198</ele>
        <time>2026-05-16T12:45:57+02:00</time>
      </trkpt>
      <trkpt lat="47.59958" lon="5.86961">
        <ele>198</ele>
        <time>2026-05-16T12:45:58+02:00</time>
      </trkpt>
      <trkpt lat="47.59964" lon="5.86964">
        <ele>198.2998</ele>
        <time>2026-05-16T12:45:59+02:00</time>
      </trkpt>
      <trkpt lat="47.59971" lon="5.86968">
        <ele>198.2998</ele>
        <time>2026-05-16T12:46:00+02:00</time>
      </trkpt>
      <trkpt lat="47.59977" lon="5.86972">
        <ele>198.2002</ele>
        <time>2026-05-16T12:46:01+02:00</time>
      </trkpt>
      <trkpt lat="47.59984" lon="5.86976">
        <ele>198</ele>
        <time>2026-05-16T12:46:02+02:00</time>
      </trkpt>
      <trkpt lat="47.5999" lon="5.8698">
        <ele>198</ele>
        <time>2026-05-16T12:46:03+02:00</time>
      </trkpt>
      <trkpt lat="47.59996" lon="5.86986">
        <ele>198</ele>
        <time>2026-05-16T12:46:04+02:00</time>
      </trkpt>
      <trkpt lat="47.60002" lon="5.86992">
        <ele>198.2998</ele>
        <time>2026-05-16T12:46:05+02:00</time>
      </trkpt>
      <trkpt lat="47.60008" lon="5.86999">
        <ele>198.40039</ele>
        <time>2026-05-16T12:46:06+02:00</time>
      </trkpt>
      <trkpt lat="47.60014" lon="5.87006">
        <ele>198.40039</ele>
        <time>2026-05-16T12:46:07+02:00</time>
      </trkpt>
      <trkpt lat="47.60019" lon="5.87014">
        <ele>198.2998</ele>
        <time>2026-05-16T12:46:08+02:00</time>
      </trkpt>
      <trkpt lat="47.60024" lon="5.87022">
        <ele>198.2998</ele>
        <time>2026-05-16T12:46:09+02:00</time>
      </trkpt>
      <trkpt lat="47.60029" lon="5.87029">
        <ele>198.2998</ele>
        <time>2026-05-16T12:46:10+02:00</time>
      </trkpt>
      <trkpt lat="47.60032" lon="5.87033">
        <ele>198.40039</ele>
        <time>2026-05-16T12:46:11+02:00</time>
      </trkpt>
      <trkpt lat="47.60034" lon="5.87037">
        <ele>198.40039</ele>
        <time>2026-05-16T12:46:12+02:00</time>
      </trkpt>
      <trkpt lat="47.60037" lon="5.87041">
        <ele>198.40039</ele>
        <time>2026-05-16T12:46:13+02:00</time>
      </trkpt>
      <trkpt lat="47.6004" lon="5.87046">
        <ele>198.2998</ele>
        <time>2026-05-16T12:46:14+02:00</time>
      </trkpt>
      <trkpt lat="47.60043" lon="5.87051">
        <ele>198.2998</ele>
        <time>2026-05-16T12:46:15+02:00</time>
      </trkpt>
      <trkpt lat="47.60046" lon="5.87057">
        <ele>198.2998</ele>
        <time>2026-05-16T12:46:16+02:00</time>
      </trkpt>
      <trkpt lat="47.60049" lon="5.87063">
        <ele>198.2998</ele>
        <time>2026-05-16T12:46:17+02:00</time>
      </trkpt>
      <trkpt lat="47.60052" lon="5.8707">
        <ele>198.40039</ele>
        <time>2026-05-16T12:46:18+02:00</time>
      </trkpt>
      <trkpt lat="47.60055" lon="5.87077">
        <ele>198.40039</ele>
        <time>2026-05-16T12:46:19+02:00</time>
      </trkpt>
      <trkpt lat="47.60059" lon="5.87084">
        <ele>198.2998</ele>
        <time>2026-05-16T12:46:20+02:00</time>
      </trkpt>
      <trkpt lat="47.60062" lon="5.87091">
        <ele>198.2998</ele>
        <time>2026-05-16T12:46:21+02:00</time>
      </trkpt>
      <trkpt lat="47.60066" lon="5.87099">
        <ele>198.2998</ele>
        <time>2026-05-16T12:46:22+02:00</time>
      </trkpt>
      <trkpt lat="47.60067" lon="5.87102">
        <ele>198.2998</ele>
        <time>2026-05-16T12:46:23+02:00</time>
      </trkpt>
      <trkpt lat="47.60071" lon="5.87114">
        <ele>198.2998</ele>
        <time>2026-05-16T12:46:24+02:00</time>
      </trkpt>
      <trkpt lat="47.60074" lon="5.87122">
        <ele>198.2998</ele>
        <time>2026-05-16T12:46:25+02:00</time>
      </trkpt>
      <trkpt lat="47.60078" lon="5.8713">
        <ele>198.2998</ele>
        <time>2026-05-16T12:46:26+02:00</time>
      </trkpt>
      <trkpt lat="47.60081" lon="5.87138">
        <ele>198.2998</ele>
        <time>2026-05-16T12:46:27+02:00</time>
      </trkpt>
      <trkpt lat="47.60084" lon="5.87146">
        <ele>198.2998</ele>
        <time>2026-05-16T12:46:28+02:00</time>
      </trkpt>
      <trkpt lat="47.60087" lon="5.87154">
        <ele>198.2998</ele>
        <time>2026-05-16T12:46:29+02:00</time>
      </trkpt>
      <trkpt lat="47.60091" lon="5.87162">
        <ele>198.2998</ele>
        <time>2026-05-16T12:46:30+02:00</time>
      </trkpt>
      <trkpt lat="47.60094" lon="5.8717">
        <ele>198.2998</ele>
        <time>2026-05-16T12:46:31+02:00</time>
      </trkpt>
      <trkpt lat="47.60097" lon="5.87178">
        <ele>198.2998</ele>
        <time>2026-05-16T12:46:32+02:00</time>
      </trkpt>
      <trkpt lat="47.60101" lon="5.87187">
        <ele>198.2998</ele>
        <time>2026-05-16T12:46:33+02:00</time>
      </trkpt>
      <trkpt lat="47.60104" lon="5.87195">
        <ele>198.2998</ele>
        <time>2026-05-16T12:46:34+02:00</time>
      </trkpt>
      <trkpt lat="47.60107" lon="5.87204">
        <ele>198.2998</ele>
        <time>2026-05-16T12:46:35+02:00</time>
      </trkpt>
      <trkpt lat="47.6011" lon="5.87212">
        <ele>198.2998</ele>
        <time>2026-05-16T12:46:36+02:00</time>
      </trkpt>
      <trkpt lat="47.60114" lon="5.87221">
        <ele>198.2998</ele>
        <time>2026-05-16T12:46:37+02:00</time>
      </trkpt>
      <trkpt lat="47.60117" lon="5.87229">
        <ele>198.2998</ele>
        <time>2026-05-16T12:46:38+02:00</time>
      </trkpt>
      <trkpt lat="47.6012" lon="5.87238">
        <ele>198.2998</ele>
        <time>2026-05-16T12:46:39+02:00</time>
      </trkpt>
      <trkpt lat="47.60123" lon="5.87246">
        <ele>198.2998</ele>
        <time>2026-05-16T12:46:40+02:00</time>
      </trkpt>
      <trkpt lat="47.60126" lon="5.87255">
        <ele>198.2998</ele>
        <time>2026-05-16T12:46:41+02:00</time>
      </trkpt>
      <trkpt lat="47.60129" lon="5.87263">
        <ele>198.2998</ele>
        <time>2026-05-16T12:46:42+02:00</time>
      </trkpt>
      <trkpt lat="47.60132" lon="5.87272">
        <ele>198.2998</ele>
        <time>2026-05-16T12:46:43+02:00</time>
      </trkpt>
      <trkpt lat="47.60135" lon="5.87281">
        <ele>198.2998</ele>
        <time>2026-05-16T12:46:44+02:00</time>
      </trkpt>
      <trkpt lat="47.60139" lon="5.87289">
        <ele>198.2998</ele>
        <time>2026-05-16T12:46:45+02:00</time>
      </trkpt>
      <trkpt lat="47.60142" lon="5.87297">
        <ele>198.2998</ele>
        <time>2026-05-16T12:46:46+02:00</time>
      </trkpt>
      <trkpt lat="47.60146" lon="5.87306">
        <ele>198.2998</ele>
        <time>2026-05-16T12:46:47+02:00</time>
      </trkpt>
      <trkpt lat="47.60149" lon="5.87315">
        <ele>198.2998</ele>
        <time>2026-05-16T12:46:48+02:00</time>
      </trkpt>
      <trkpt lat="47.60152" lon="5.87323">
        <ele>198.2998</ele>
        <time>2026-05-16T12:46:49+02:00</time>
      </trkpt>
      <trkpt lat="47.60156" lon="5.87332">
        <ele>198.2998</ele>
        <time>2026-05-16T12:46:50+02:00</time>
      </trkpt>
      <trkpt lat="47.60159" lon="5.8734">
        <ele>198.2998</ele>
        <time>2026-05-16T12:46:51+02:00</time>
      </trkpt>
      <trkpt lat="47.60162" lon="5.87349">
        <ele>198.2998</ele>
        <time>2026-05-16T12:46:52+02:00</time>
      </trkpt>
      <trkpt lat="47.60165" lon="5.87358">
        <ele>198.2998</ele>
        <time>2026-05-16T12:46:53+02:00</time>
      </trkpt>
      <trkpt lat="47.60167" lon="5.87367">
        <ele>198.2998</ele>
        <time>2026-05-16T12:46:54+02:00</time>
      </trkpt>
      <trkpt lat="47.6017" lon="5.87376">
        <ele>198.2998</ele>
        <time>2026-05-16T12:46:55+02:00</time>
      </trkpt>
      <trkpt lat="47.60173" lon="5.87385">
        <ele>198.40039</ele>
        <time>2026-05-16T12:46:56+02:00</time>
      </trkpt>
      <trkpt lat="47.60175" lon="5.87395">
        <ele>198.60059</ele>
        <time>2026-05-16T12:46:57+02:00</time>
      </trkpt>
      <trkpt lat="47.60178" lon="5.87405">
        <ele>199</ele>
        <time>2026-05-16T12:46:58+02:00</time>
      </trkpt>
      <trkpt lat="47.6018" lon="5.87414">
        <ele>199.10059</ele>
        <time>2026-05-16T12:46:59+02:00</time>
      </trkpt>
      <trkpt lat="47.60183" lon="5.87424">
        <ele>199.2002</ele>
        <time>2026-05-16T12:47:00+02:00</time>
      </trkpt>
      <trkpt lat="47.60185" lon="5.87433">
        <ele>199.10059</ele>
        <time>2026-05-16T12:47:01+02:00</time>
      </trkpt>
      <trkpt lat="47.60187" lon="5.87443">
        <ele>199.10059</ele>
        <time>2026-05-16T12:47:02+02:00</time>
      </trkpt>
      <trkpt lat="47.6019" lon="5.87452">
        <ele>199.10059</ele>
        <time>2026-05-16T12:47:03+02:00</time>
      </trkpt>
      <trkpt lat="47.60192" lon="5.87461">
        <ele>199.10059</ele>
        <time>2026-05-16T12:47:04+02:00</time>
      </trkpt>
      <trkpt lat="47.60195" lon="5.8747">
        <ele>199.10059</ele>
        <time>2026-05-16T12:47:05+02:00</time>
      </trkpt>
      <trkpt lat="47.60197" lon="5.87479">
        <ele>199.10059</ele>
        <time>2026-05-16T12:47:06+02:00</time>
      </trkpt>
      <trkpt lat="47.60199" lon="5.87488">
        <ele>199.10059</ele>
        <time>2026-05-16T12:47:07+02:00</time>
      </trkpt>
      <trkpt lat="47.60201" lon="5.87497">
        <ele>199.10059</ele>
        <time>2026-05-16T12:47:08+02:00</time>
      </trkpt>
      <trkpt lat="47.60204" lon="5.87506">
        <ele>199.10059</ele>
        <time>2026-05-16T12:47:09+02:00</time>
      </trkpt>
      <trkpt lat="47.60206" lon="5.87515">
        <ele>199.10059</ele>
        <time>2026-05-16T12:47:10+02:00</time>
      </trkpt>
      <trkpt lat="47.60208" lon="5.87524">
        <ele>199.2002</ele>
        <time>2026-05-16T12:47:11+02:00</time>
      </trkpt>
      <trkpt lat="47.6021" lon="5.87532">
        <ele>199.2002</ele>
        <time>2026-05-16T12:47:12+02:00</time>
      </trkpt>
      <trkpt lat="47.60212" lon="5.87541">
        <ele>199.2002</ele>
        <time>2026-05-16T12:47:13+02:00</time>
      </trkpt>
      <trkpt lat="47.60214" lon="5.87549">
        <ele>199.2002</ele>
        <time>2026-05-16T12:47:14+02:00</time>
      </trkpt>
      <trkpt lat="47.60217" lon="5.87558">
        <ele>199.2002</ele>
        <time>2026-05-16T12:47:15+02:00</time>
      </trkpt>
      <trkpt lat="47.60219" lon="5.87567">
        <ele>199.10059</ele>
        <time>2026-05-16T12:47:16+02:00</time>
      </trkpt>
      <trkpt lat="47.60222" lon="5.87575">
        <ele>199.10059</ele>
        <time>2026-05-16T12:47:17+02:00</time>
      </trkpt>
      <trkpt lat="47.60225" lon="5.87583">
        <ele>199.10059</ele>
        <time>2026-05-16T12:47:18+02:00</time>
      </trkpt>
      <trkpt lat="47.60228" lon="5.87591">
        <ele>199.10059</ele>
        <time>2026-05-16T12:47:19+02:00</time>
      </trkpt>
      <trkpt lat="47.60232" lon="5.87599">
        <ele>199.10059</ele>
        <time>2026-05-16T12:47:20+02:00</time>
      </trkpt>
      <trkpt lat="47.60235" lon="5.87608">
        <ele>199.10059</ele>
        <time>2026-05-16T12:47:21+02:00</time>
      </trkpt>
      <trkpt lat="47.60238" lon="5.87616">
        <ele>199.10059</ele>
        <time>2026-05-16T12:47:22+02:00</time>
      </trkpt>
      <trkpt lat="47.60242" lon="5.87624">
        <ele>199.10059</ele>
        <time>2026-05-16T12:47:23+02:00</time>
      </trkpt>
      <trkpt lat="47.60245" lon="5.87633">
        <ele>199.2002</ele>
        <time>2026-05-16T12:47:24+02:00</time>
      </trkpt>
      <trkpt lat="47.60248" lon="5.87641">
        <ele>199.2002</ele>
        <time>2026-05-16T12:47:25+02:00</time>
      </trkpt>
      <trkpt lat="47.60252" lon="5.87649">
        <ele>199.2002</ele>
        <time>2026-05-16T12:47:26+02:00</time>
      </trkpt>
      <trkpt lat="47.60256" lon="5.87658">
        <ele>199.2998</ele>
        <time>2026-05-16T12:47:27+02:00</time>
      </trkpt>
      <trkpt lat="47.60259" lon="5.87667">
        <ele>199.2002</ele>
        <time>2026-05-16T12:47:28+02:00</time>
      </trkpt>
      <trkpt lat="47.60261" lon="5.87671">
        <ele>199.2002</ele>
        <time>2026-05-16T12:47:29+02:00</time>
      </trkpt>
      <trkpt lat="47.60266" lon="5.87683">
        <ele>199.2002</ele>
        <time>2026-05-16T12:47:30+02:00</time>
      </trkpt>
      <trkpt lat="47.6027" lon="5.87691">
        <ele>199.10059</ele>
        <time>2026-05-16T12:47:31+02:00</time>
      </trkpt>
      <trkpt lat="47.60274" lon="5.87699">
        <ele>199.10059</ele>
        <time>2026-05-16T12:47:32+02:00</time>
      </trkpt>
      <trkpt lat="47.60278" lon="5.87707">
        <ele>199.10059</ele>
        <time>2026-05-16T12:47:33+02:00</time>
      </trkpt>
      <trkpt lat="47.60282" lon="5.87715">
        <ele>199.2002</ele>
        <time>2026-05-16T12:47:34+02:00</time>
      </trkpt>
      <trkpt lat="47.60286" lon="5.87723">
        <ele>199.2002</ele>
        <time>2026-05-16T12:47:35+02:00</time>
      </trkpt>
      <trkpt lat="47.6029" lon="5.87731">
        <ele>199.2002</ele>
        <time>2026-05-16T12:47:36+02:00</time>
      </trkpt>
      <trkpt lat="47.60294" lon="5.87739">
        <ele>199.10059</ele>
        <time>2026-05-16T12:47:37+02:00</time>
      </trkpt>
      <trkpt lat="47.60298" lon="5.87747">
        <ele>199.10059</ele>
        <time>2026-05-16T12:47:38+02:00</time>
      </trkpt>
      <trkpt lat="47.60301" lon="5.87754">
        <ele>199.10059</ele>
        <time>2026-05-16T12:47:39+02:00</time>
      </trkpt>
      <trkpt lat="47.60306" lon="5.87762">
        <ele>199.10059</ele>
        <time>2026-05-16T12:47:40+02:00</time>
      </trkpt>
      <trkpt lat="47.6031" lon="5.8777">
        <ele>199.2002</ele>
        <time>2026-05-16T12:47:41+02:00</time>
      </trkpt>
      <trkpt lat="47.60314" lon="5.87778">
        <ele>199.2002</ele>
        <time>2026-05-16T12:47:42+02:00</time>
      </trkpt>
      <trkpt lat="47.60318" lon="5.87786">
        <ele>199.2002</ele>
        <time>2026-05-16T12:47:43+02:00</time>
      </trkpt>
      <trkpt lat="47.60322" lon="5.87794">
        <ele>199.10059</ele>
        <time>2026-05-16T12:47:44+02:00</time>
      </trkpt>
      <trkpt lat="47.60325" lon="5.87802">
        <ele>199.10059</ele>
        <time>2026-05-16T12:47:45+02:00</time>
      </trkpt>
      <trkpt lat="47.60329" lon="5.8781">
        <ele>199.10059</ele>
        <time>2026-05-16T12:47:46+02:00</time>
      </trkpt>
      <trkpt lat="47.60332" lon="5.87819">
        <ele>199.10059</ele>
        <time>2026-05-16T12:47:47+02:00</time>
      </trkpt>
      <trkpt lat="47.60335" lon="5.87828">
        <ele>199.10059</ele>
        <time>2026-05-16T12:47:48+02:00</time>
      </trkpt>
      <trkpt lat="47.60337" lon="5.87832">
        <ele>199.10059</ele>
        <time>2026-05-16T12:47:49+02:00</time>
      </trkpt>
      <trkpt lat="47.60341" lon="5.87846">
        <ele>199.10059</ele>
        <time>2026-05-16T12:47:50+02:00</time>
      </trkpt>
      <trkpt lat="47.60344" lon="5.87855">
        <ele>199.10059</ele>
        <time>2026-05-16T12:47:51+02:00</time>
      </trkpt>
      <trkpt lat="47.60345" lon="5.8786">
        <ele>199.10059</ele>
        <time>2026-05-16T12:47:52+02:00</time>
      </trkpt>
      <trkpt lat="47.60348" lon="5.87874">
        <ele>199.10059</ele>
        <time>2026-05-16T12:47:53+02:00</time>
      </trkpt>
      <trkpt lat="47.6035" lon="5.87884">
        <ele>199.2002</ele>
        <time>2026-05-16T12:47:54+02:00</time>
      </trkpt>
      <trkpt lat="47.60352" lon="5.87894">
        <ele>199.10059</ele>
        <time>2026-05-16T12:47:55+02:00</time>
      </trkpt>
      <trkpt lat="47.60354" lon="5.87903">
        <ele>199.10059</ele>
        <time>2026-05-16T12:47:56+02:00</time>
      </trkpt>
      <trkpt lat="47.60356" lon="5.87913">
        <ele>199.10059</ele>
        <time>2026-05-16T12:47:57+02:00</time>
      </trkpt>
      <trkpt lat="47.60359" lon="5.87922">
        <ele>199.10059</ele>
        <time>2026-05-16T12:47:58+02:00</time>
      </trkpt>
      <trkpt lat="47.6036" lon="5.87927">
        <ele>199.10059</ele>
        <time>2026-05-16T12:47:59+02:00</time>
      </trkpt>
      <trkpt lat="47.60365" lon="5.8794">
        <ele>199.10059</ele>
        <time>2026-05-16T12:48:00+02:00</time>
      </trkpt>
      <trkpt lat="47.60368" lon="5.8795">
        <ele>199.2002</ele>
        <time>2026-05-16T12:48:01+02:00</time>
      </trkpt>
      <trkpt lat="47.6037" lon="5.8796">
        <ele>199.2002</ele>
        <time>2026-05-16T12:48:02+02:00</time>
      </trkpt>
      <trkpt lat="47.60372" lon="5.87971">
        <ele>199.2002</ele>
        <time>2026-05-16T12:48:03+02:00</time>
      </trkpt>
      <trkpt lat="47.60374" lon="5.87981">
        <ele>199.10059</ele>
        <time>2026-05-16T12:48:04+02:00</time>
      </trkpt>
      <trkpt lat="47.60375" lon="5.87991">
        <ele>199.10059</ele>
        <time>2026-05-16T12:48:05+02:00</time>
      </trkpt>
      <trkpt lat="47.60377" lon="5.88001">
        <ele>199.10059</ele>
        <time>2026-05-16T12:48:06+02:00</time>
      </trkpt>
      <trkpt lat="47.60378" lon="5.88011">
        <ele>199</ele>
        <time>2026-05-16T12:48:07+02:00</time>
      </trkpt>
      <trkpt lat="47.6038" lon="5.88021">
        <ele>199</ele>
        <time>2026-05-16T12:48:08+02:00</time>
      </trkpt>
      <trkpt lat="47.60381" lon="5.88031">
        <ele>199</ele>
        <time>2026-05-16T12:48:09+02:00</time>
      </trkpt>
      <trkpt lat="47.60383" lon="5.88041">
        <ele>199</ele>
        <time>2026-05-16T12:48:10+02:00</time>
      </trkpt>
      <trkpt lat="47.60384" lon="5.88051">
        <ele>199.10059</ele>
        <time>2026-05-16T12:48:11+02:00</time>
      </trkpt>
      <trkpt lat="47.60385" lon="5.88061">
        <ele>199.10059</ele>
        <time>2026-05-16T12:48:12+02:00</time>
      </trkpt>
      <trkpt lat="47.60386" lon="5.88071">
        <ele>199.10059</ele>
        <time>2026-05-16T12:48:13+02:00</time>
      </trkpt>
      <trkpt lat="47.60388" lon="5.88081">
        <ele>199.10059</ele>
        <time>2026-05-16T12:48:14+02:00</time>
      </trkpt>
      <trkpt lat="47.60388" lon="5.88091">
        <ele>199.2002</ele>
        <time>2026-05-16T12:48:15+02:00</time>
      </trkpt>
      <trkpt lat="47.60389" lon="5.881">
        <ele>199.2002</ele>
        <time>2026-05-16T12:48:16+02:00</time>
      </trkpt>
      <trkpt lat="47.60391" lon="5.88109">
        <ele>199.2002</ele>
        <time>2026-05-16T12:48:17+02:00</time>
      </trkpt>
      <trkpt lat="47.60394" lon="5.88118">
        <ele>199.2002</ele>
        <time>2026-05-16T12:48:18+02:00</time>
      </trkpt>
      <trkpt lat="47.60398" lon="5.88126">
        <ele>199.2002</ele>
        <time>2026-05-16T12:48:19+02:00</time>
      </trkpt>
      <trkpt lat="47.60403" lon="5.88132">
        <ele>199.2002</ele>
        <time>2026-05-16T12:48:20+02:00</time>
      </trkpt>
      <trkpt lat="47.60408" lon="5.88138">
        <ele>199.2002</ele>
        <time>2026-05-16T12:48:21+02:00</time>
      </trkpt>
      <trkpt lat="47.60413" lon="5.88143">
        <ele>199.2002</ele>
        <time>2026-05-16T12:48:22+02:00</time>
      </trkpt>
      <trkpt lat="47.60418" lon="5.88148">
        <ele>199.2002</ele>
        <time>2026-05-16T12:48:23+02:00</time>
      </trkpt>
      <trkpt lat="47.60424" lon="5.88152">
        <ele>199.2002</ele>
        <time>2026-05-16T12:48:24+02:00</time>
      </trkpt>
      <trkpt lat="47.6043" lon="5.88156">
        <ele>199.2002</ele>
        <time>2026-05-16T12:48:25+02:00</time>
      </trkpt>
      <trkpt lat="47.60436" lon="5.8816">
        <ele>199.2002</ele>
        <time>2026-05-16T12:48:26+02:00</time>
      </trkpt>
      <trkpt lat="47.60443" lon="5.88162">
        <ele>199.2002</ele>
        <time>2026-05-16T12:48:27+02:00</time>
      </trkpt>
      <trkpt lat="47.60449" lon="5.88163">
        <ele>199.2002</ele>
        <time>2026-05-16T12:48:28+02:00</time>
      </trkpt>
      <trkpt lat="47.60456" lon="5.88163">
        <ele>199.2002</ele>
        <time>2026-05-16T12:48:29+02:00</time>
      </trkpt>
      <trkpt lat="47.60463" lon="5.88162">
        <ele>199.2002</ele>
        <time>2026-05-16T12:48:30+02:00</time>
      </trkpt>
      <trkpt lat="47.60469" lon="5.8816">
        <ele>199.2002</ele>
        <time>2026-05-16T12:48:31+02:00</time>
      </trkpt>
      <trkpt lat="47.60475" lon="5.88158">
        <ele>199.2002</ele>
        <time>2026-05-16T12:48:32+02:00</time>
      </trkpt>
      <trkpt lat="47.60482" lon="5.88155">
        <ele>199.2002</ele>
        <time>2026-05-16T12:48:33+02:00</time>
      </trkpt>
      <trkpt lat="47.60488" lon="5.88153">
        <ele>199.2002</ele>
        <time>2026-05-16T12:48:34+02:00</time>
      </trkpt>
      <trkpt lat="47.60495" lon="5.88152">
        <ele>199.2002</ele>
        <time>2026-05-16T12:48:35+02:00</time>
      </trkpt>
      <trkpt lat="47.60501" lon="5.8815">
        <ele>199.2002</ele>
        <time>2026-05-16T12:48:36+02:00</time>
      </trkpt>
      <trkpt lat="47.60508" lon="5.88149">
        <ele>199.2002</ele>
        <time>2026-05-16T12:48:37+02:00</time>
      </trkpt>
      <trkpt lat="47.60515" lon="5.88148">
        <ele>199.2002</ele>
        <time>2026-05-16T12:48:38+02:00</time>
      </trkpt>
      <trkpt lat="47.60521" lon="5.88147">
        <ele>199.2002</ele>
        <time>2026-05-16T12:48:39+02:00</time>
      </trkpt>
      <trkpt lat="47.60528" lon="5.88146">
        <ele>199.2002</ele>
        <time>2026-05-16T12:48:40+02:00</time>
      </trkpt>
      <trkpt lat="47.60535" lon="5.88145">
        <ele>199.2002</ele>
        <time>2026-05-16T12:48:41+02:00</time>
      </trkpt>
      <trkpt lat="47.60541" lon="5.88145">
        <ele>199.2002</ele>
        <time>2026-05-16T12:48:42+02:00</time>
      </trkpt>
      <trkpt lat="47.60548" lon="5.88144">
        <ele>199.2002</ele>
        <time>2026-05-16T12:48:43+02:00</time>
      </trkpt>
      <trkpt lat="47.60555" lon="5.88143">
        <ele>199.2002</ele>
        <time>2026-05-16T12:48:44+02:00</time>
      </trkpt>
      <trkpt lat="47.60562" lon="5.88142">
        <ele>199.2002</ele>
        <time>2026-05-16T12:48:45+02:00</time>
      </trkpt>
      <trkpt lat="47.60568" lon="5.88141">
        <ele>199.2002</ele>
        <time>2026-05-16T12:48:46+02:00</time>
      </trkpt>
      <trkpt lat="47.60575" lon="5.8814">
        <ele>199.2002</ele>
        <time>2026-05-16T12:48:47+02:00</time>
      </trkpt>
      <trkpt lat="47.60582" lon="5.88139">
        <ele>199.2002</ele>
        <time>2026-05-16T12:48:48+02:00</time>
      </trkpt>
      <trkpt lat="47.60589" lon="5.88138">
        <ele>199.2002</ele>
        <time>2026-05-16T12:48:49+02:00</time>
      </trkpt>
      <trkpt lat="47.60596" lon="5.88138">
        <ele>199.2002</ele>
        <time>2026-05-16T12:48:50+02:00</time>
      </trkpt>
      <trkpt lat="47.60603" lon="5.88138">
        <ele>199.2002</ele>
        <time>2026-05-16T12:48:51+02:00</time>
      </trkpt>
      <trkpt lat="47.6061" lon="5.88138">
        <ele>199.2002</ele>
        <time>2026-05-16T12:48:52+02:00</time>
      </trkpt>
      <trkpt lat="47.60616" lon="5.88138">
        <ele>199.2002</ele>
        <time>2026-05-16T12:48:53+02:00</time>
      </trkpt>
      <trkpt lat="47.60624" lon="5.88139">
        <ele>199.2002</ele>
        <time>2026-05-16T12:48:54+02:00</time>
      </trkpt>
      <trkpt lat="47.60631" lon="5.8814">
        <ele>199.2002</ele>
        <time>2026-05-16T12:48:55+02:00</time>
      </trkpt>
      <trkpt lat="47.60637" lon="5.88141">
        <ele>199.2002</ele>
        <time>2026-05-16T12:48:56+02:00</time>
      </trkpt>
      <trkpt lat="47.60644" lon="5.88143">
        <ele>199.2002</ele>
        <time>2026-05-16T12:48:57+02:00</time>
      </trkpt>
      <trkpt lat="47.60651" lon="5.88147">
        <ele>199.2002</ele>
        <time>2026-05-16T12:48:58+02:00</time>
      </trkpt>
      <trkpt lat="47.60657" lon="5.88151">
        <ele>199.2002</ele>
        <time>2026-05-16T12:48:59+02:00</time>
      </trkpt>
      <trkpt lat="47.60664" lon="5.88155">
        <ele>199.2002</ele>
        <time>2026-05-16T12:49:00+02:00</time>
      </trkpt>
      <trkpt lat="47.6067" lon="5.8816">
        <ele>199.2002</ele>
        <time>2026-05-16T12:49:01+02:00</time>
      </trkpt>
      <trkpt lat="47.60676" lon="5.88164">
        <ele>199.2002</ele>
        <time>2026-05-16T12:49:02+02:00</time>
      </trkpt>
      <trkpt lat="47.60682" lon="5.88169">
        <ele>199.2002</ele>
        <time>2026-05-16T12:49:03+02:00</time>
      </trkpt>
      <trkpt lat="47.60688" lon="5.88175">
        <ele>199.2002</ele>
        <time>2026-05-16T12:49:04+02:00</time>
      </trkpt>
      <trkpt lat="47.60694" lon="5.8818">
        <ele>199.2002</ele>
        <time>2026-05-16T12:49:05+02:00</time>
      </trkpt>
      <trkpt lat="47.607" lon="5.88186">
        <ele>199.2002</ele>
        <time>2026-05-16T12:49:06+02:00</time>
      </trkpt>
      <trkpt lat="47.60705" lon="5.88192">
        <ele>199.2002</ele>
        <time>2026-05-16T12:49:07+02:00</time>
      </trkpt>
      <trkpt lat="47.60711" lon="5.88198">
        <ele>199.2002</ele>
        <time>2026-05-16T12:49:08+02:00</time>
      </trkpt>
      <trkpt lat="47.60716" lon="5.88205">
        <ele>199.2002</ele>
        <time>2026-05-16T12:49:09+02:00</time>
      </trkpt>
      <trkpt lat="47.60721" lon="5.88213">
        <ele>199.2002</ele>
        <time>2026-05-16T12:49:10+02:00</time>
      </trkpt>
      <trkpt lat="47.60725" lon="5.88221">
        <ele>199.2002</ele>
        <time>2026-05-16T12:49:11+02:00</time>
      </trkpt>
      <trkpt lat="47.60729" lon="5.88229">
        <ele>199.2002</ele>
        <time>2026-05-16T12:49:12+02:00</time>
      </trkpt>
      <trkpt lat="47.60733" lon="5.88237">
        <ele>199.2002</ele>
        <time>2026-05-16T12:49:13+02:00</time>
      </trkpt>
      <trkpt lat="47.60737" lon="5.88246">
        <ele>199.2002</ele>
        <time>2026-05-16T12:49:14+02:00</time>
      </trkpt>
      <trkpt lat="47.6074" lon="5.88255">
        <ele>199.2002</ele>
        <time>2026-05-16T12:49:15+02:00</time>
      </trkpt>
      <trkpt lat="47.60743" lon="5.88265">
        <ele>199.2002</ele>
        <time>2026-05-16T12:49:16+02:00</time>
      </trkpt>
      <trkpt lat="47.60746" lon="5.88274">
        <ele>199.2002</ele>
        <time>2026-05-16T12:49:17+02:00</time>
      </trkpt>
      <trkpt lat="47.60747" lon="5.88279">
        <ele>199.2002</ele>
        <time>2026-05-16T12:49:18+02:00</time>
      </trkpt>
      <trkpt lat="47.60751" lon="5.88293">
        <ele>199.2002</ele>
        <time>2026-05-16T12:49:19+02:00</time>
      </trkpt>
      <trkpt lat="47.60754" lon="5.88303">
        <ele>199.2002</ele>
        <time>2026-05-16T12:49:20+02:00</time>
      </trkpt>
      <trkpt lat="47.60757" lon="5.88312">
        <ele>199.2002</ele>
        <time>2026-05-16T12:49:21+02:00</time>
      </trkpt>
      <trkpt lat="47.60759" lon="5.88322">
        <ele>199.2002</ele>
        <time>2026-05-16T12:49:22+02:00</time>
      </trkpt>
      <trkpt lat="47.60762" lon="5.88331">
        <ele>199.2002</ele>
        <time>2026-05-16T12:49:23+02:00</time>
      </trkpt>
      <trkpt lat="47.60764" lon="5.88341">
        <ele>199.2002</ele>
        <time>2026-05-16T12:49:24+02:00</time>
      </trkpt>
      <trkpt lat="47.60766" lon="5.88351">
        <ele>199.2002</ele>
        <time>2026-05-16T12:49:25+02:00</time>
      </trkpt>
      <trkpt lat="47.60768" lon="5.8836">
        <ele>199.2002</ele>
        <time>2026-05-16T12:49:26+02:00</time>
      </trkpt>
      <trkpt lat="47.6077" lon="5.8837">
        <ele>199.2002</ele>
        <time>2026-05-16T12:49:27+02:00</time>
      </trkpt>
      <trkpt lat="47.60771" lon="5.88381">
        <ele>199.2002</ele>
        <time>2026-05-16T12:49:28+02:00</time>
      </trkpt>
      <trkpt lat="47.60771" lon="5.88391">
        <ele>199.2002</ele>
        <time>2026-05-16T12:49:29+02:00</time>
      </trkpt>
      <trkpt lat="47.60771" lon="5.88401">
        <ele>199.2002</ele>
        <time>2026-05-16T12:49:30+02:00</time>
      </trkpt>
      <trkpt lat="47.60771" lon="5.88411">
        <ele>199.2002</ele>
        <time>2026-05-16T12:49:31+02:00</time>
      </trkpt>
      <trkpt lat="47.60771" lon="5.88421">
        <ele>199.2002</ele>
        <time>2026-05-16T12:49:32+02:00</time>
      </trkpt>
      <trkpt lat="47.60771" lon="5.88431">
        <ele>199.2002</ele>
        <time>2026-05-16T12:49:33+02:00</time>
      </trkpt>
      <trkpt lat="47.60771" lon="5.8844">
        <ele>199.2002</ele>
        <time>2026-05-16T12:49:34+02:00</time>
      </trkpt>
      <trkpt lat="47.6077" lon="5.88448">
        <ele>199.2002</ele>
        <time>2026-05-16T12:49:35+02:00</time>
      </trkpt>
      <trkpt lat="47.60768" lon="5.88454">
        <ele>199.2002</ele>
        <time>2026-05-16T12:49:36+02:00</time>
      </trkpt>
      <trkpt lat="47.60766" lon="5.8846">
        <ele>199.2002</ele>
        <time>2026-05-16T12:49:37+02:00</time>
      </trkpt>
      <trkpt lat="47.60764" lon="5.88466">
        <ele>199.2002</ele>
        <time>2026-05-16T12:49:38+02:00</time>
      </trkpt>
      <trkpt lat="47.60763" lon="5.88473">
        <ele>199.2002</ele>
        <time>2026-05-16T12:49:39+02:00</time>
      </trkpt>
      <trkpt lat="47.60763" lon="5.88481">
        <ele>199.2002</ele>
        <time>2026-05-16T12:49:40+02:00</time>
      </trkpt>
      <trkpt lat="47.60762" lon="5.88489">
        <ele>199.2002</ele>
        <time>2026-05-16T12:49:41+02:00</time>
      </trkpt>
      <trkpt lat="47.60761" lon="5.88497">
        <ele>199.2002</ele>
        <time>2026-05-16T12:49:42+02:00</time>
      </trkpt>
      <trkpt lat="47.6076" lon="5.88505">
        <ele>199.2002</ele>
        <time>2026-05-16T12:49:43+02:00</time>
      </trkpt>
      <trkpt lat="47.60759" lon="5.88513">
        <ele>199.2002</ele>
        <time>2026-05-16T12:49:44+02:00</time>
      </trkpt>
      <trkpt lat="47.60758" lon="5.88522">
        <ele>199.2002</ele>
        <time>2026-05-16T12:49:45+02:00</time>
      </trkpt>
      <trkpt lat="47.60757" lon="5.8853">
        <ele>199.2002</ele>
        <time>2026-05-16T12:49:46+02:00</time>
      </trkpt>
      <trkpt lat="47.60755" lon="5.88539">
        <ele>199.2002</ele>
        <time>2026-05-16T12:49:47+02:00</time>
      </trkpt>
      <trkpt lat="47.60754" lon="5.88547">
        <ele>199.2002</ele>
        <time>2026-05-16T12:49:48+02:00</time>
      </trkpt>
      <trkpt lat="47.60751" lon="5.88555">
        <ele>199.2002</ele>
        <time>2026-05-16T12:49:49+02:00</time>
      </trkpt>
      <trkpt lat="47.6075" lon="5.88564">
        <ele>199.2002</ele>
        <time>2026-05-16T12:49:50+02:00</time>
      </trkpt>
      <trkpt lat="47.60747" lon="5.88572">
        <ele>199.2002</ele>
        <time>2026-05-16T12:49:51+02:00</time>
      </trkpt>
      <trkpt lat="47.60745" lon="5.8858">
        <ele>199.2998</ele>
        <time>2026-05-16T12:49:52+02:00</time>
      </trkpt>
      <trkpt lat="47.60742" lon="5.88588">
        <ele>199.40039</ele>
        <time>2026-05-16T12:49:53+02:00</time>
      </trkpt>
      <trkpt lat="47.60739" lon="5.88596">
        <ele>199.40039</ele>
        <time>2026-05-16T12:49:54+02:00</time>
      </trkpt>
      <trkpt lat="47.60737" lon="5.88604">
        <ele>199.2998</ele>
        <time>2026-05-16T12:49:55+02:00</time>
      </trkpt>
      <trkpt lat="47.60734" lon="5.88613">
        <ele>199.40039</ele>
        <time>2026-05-16T12:49:56+02:00</time>
      </trkpt>
      <trkpt lat="47.60731" lon="5.88621">
        <ele>199.5</ele>
        <time>2026-05-16T12:49:57+02:00</time>
      </trkpt>
      <trkpt lat="47.60728" lon="5.88629">
        <ele>199.5</ele>
        <time>2026-05-16T12:49:58+02:00</time>
      </trkpt>
      <trkpt lat="47.60725" lon="5.88637">
        <ele>199.5</ele>
        <time>2026-05-16T12:49:59+02:00</time>
      </trkpt>
      <trkpt lat="47.60722" lon="5.88645">
        <ele>199.5</ele>
        <time>2026-05-16T12:50:00+02:00</time>
      </trkpt>
      <trkpt lat="47.60719" lon="5.88653">
        <ele>199.5</ele>
        <time>2026-05-16T12:50:01+02:00</time>
      </trkpt>
      <trkpt lat="47.60715" lon="5.88661">
        <ele>199.5</ele>
        <time>2026-05-16T12:50:02+02:00</time>
      </trkpt>
      <trkpt lat="47.60712" lon="5.88668">
        <ele>199.5</ele>
        <time>2026-05-16T12:50:03+02:00</time>
      </trkpt>
      <trkpt lat="47.60708" lon="5.88676">
        <ele>199.40039</ele>
        <time>2026-05-16T12:50:04+02:00</time>
      </trkpt>
      <trkpt lat="47.60705" lon="5.88684">
        <ele>199.40039</ele>
        <time>2026-05-16T12:50:05+02:00</time>
      </trkpt>
      <trkpt lat="47.60701" lon="5.88692">
        <ele>199.40039</ele>
        <time>2026-05-16T12:50:06+02:00</time>
      </trkpt>
      <trkpt lat="47.60697" lon="5.887">
        <ele>199.40039</ele>
        <time>2026-05-16T12:50:07+02:00</time>
      </trkpt>
      <trkpt lat="47.60693" lon="5.88708">
        <ele>199.40039</ele>
        <time>2026-05-16T12:50:08+02:00</time>
      </trkpt>
      <trkpt lat="47.6069" lon="5.88717">
        <ele>199.2998</ele>
        <time>2026-05-16T12:50:09+02:00</time>
      </trkpt>
      <trkpt lat="47.60686" lon="5.88725">
        <ele>199.2998</ele>
        <time>2026-05-16T12:50:10+02:00</time>
      </trkpt>
      <trkpt lat="47.60682" lon="5.88733">
        <ele>199.2998</ele>
        <time>2026-05-16T12:50:11+02:00</time>
      </trkpt>
      <trkpt lat="47.60678" lon="5.88741">
        <ele>199.2998</ele>
        <time>2026-05-16T12:50:12+02:00</time>
      </trkpt>
      <trkpt lat="47.60674" lon="5.8875">
        <ele>199.2998</ele>
        <time>2026-05-16T12:50:13+02:00</time>
      </trkpt>
      <trkpt lat="47.60671" lon="5.88758">
        <ele>199.2998</ele>
        <time>2026-05-16T12:50:14+02:00</time>
      </trkpt>
      <trkpt lat="47.60666" lon="5.88766">
        <ele>199.2998</ele>
        <time>2026-05-16T12:50:15+02:00</time>
      </trkpt>
      <trkpt lat="47.60664" lon="5.8877">
        <ele>199.2998</ele>
        <time>2026-05-16T12:50:16+02:00</time>
      </trkpt>
      <trkpt lat="47.60658" lon="5.88782">
        <ele>199.2998</ele>
        <time>2026-05-16T12:50:17+02:00</time>
      </trkpt>
      <trkpt lat="47.60654" lon="5.8879">
        <ele>199.2998</ele>
        <time>2026-05-16T12:50:18+02:00</time>
      </trkpt>
      <trkpt lat="47.6065" lon="5.88798">
        <ele>199.2998</ele>
        <time>2026-05-16T12:50:19+02:00</time>
      </trkpt>
      <trkpt lat="47.60646" lon="5.88806">
        <ele>199.2998</ele>
        <time>2026-05-16T12:50:20+02:00</time>
      </trkpt>
      <trkpt lat="47.60642" lon="5.88814">
        <ele>199.2998</ele>
        <time>2026-05-16T12:50:21+02:00</time>
      </trkpt>
      <trkpt lat="47.60639" lon="5.88822">
        <ele>199.2998</ele>
        <time>2026-05-16T12:50:22+02:00</time>
      </trkpt>
      <trkpt lat="47.60635" lon="5.8883">
        <ele>199.2998</ele>
        <time>2026-05-16T12:50:23+02:00</time>
      </trkpt>
      <trkpt lat="47.60631" lon="5.88838">
        <ele>199.2998</ele>
        <time>2026-05-16T12:50:24+02:00</time>
      </trkpt>
      <trkpt lat="47.60628" lon="5.88846">
        <ele>199.2998</ele>
        <time>2026-05-16T12:50:25+02:00</time>
      </trkpt>
      <trkpt lat="47.60624" lon="5.88855">
        <ele>199.2998</ele>
        <time>2026-05-16T12:50:26+02:00</time>
      </trkpt>
      <trkpt lat="47.60622" lon="5.88863">
        <ele>199.2998</ele>
        <time>2026-05-16T12:50:27+02:00</time>
      </trkpt>
      <trkpt lat="47.60619" lon="5.88872">
        <ele>199.2998</ele>
        <time>2026-05-16T12:50:28+02:00</time>
      </trkpt>
      <trkpt lat="47.60617" lon="5.88881">
        <ele>199.2998</ele>
        <time>2026-05-16T12:50:29+02:00</time>
      </trkpt>
      <trkpt lat="47.60615" lon="5.88889">
        <ele>199.2998</ele>
        <time>2026-05-16T12:50:30+02:00</time>
      </trkpt>
      <trkpt lat="47.60614" lon="5.88899">
        <ele>199.2998</ele>
        <time>2026-05-16T12:50:31+02:00</time>
      </trkpt>
      <trkpt lat="47.60612" lon="5.88908">
        <ele>199.2998</ele>
        <time>2026-05-16T12:50:32+02:00</time>
      </trkpt>
      <trkpt lat="47.60611" lon="5.88917">
        <ele>199.2998</ele>
        <time>2026-05-16T12:50:33+02:00</time>
      </trkpt>
      <trkpt lat="47.60609" lon="5.88927">
        <ele>199.2998</ele>
        <time>2026-05-16T12:50:34+02:00</time>
      </trkpt>
      <trkpt lat="47.60608" lon="5.88937">
        <ele>199.2998</ele>
        <time>2026-05-16T12:50:35+02:00</time>
      </trkpt>
      <trkpt lat="47.60607" lon="5.88946">
        <ele>199.2998</ele>
        <time>2026-05-16T12:50:36+02:00</time>
      </trkpt>
      <trkpt lat="47.60606" lon="5.88956">
        <ele>199.2998</ele>
        <time>2026-05-16T12:50:37+02:00</time>
      </trkpt>
      <trkpt lat="47.60605" lon="5.88966">
        <ele>199.2998</ele>
        <time>2026-05-16T12:50:38+02:00</time>
      </trkpt>
      <trkpt lat="47.60605" lon="5.88975">
        <ele>199.2998</ele>
        <time>2026-05-16T12:50:39+02:00</time>
      </trkpt>
      <trkpt lat="47.60605" lon="5.88985">
        <ele>199.2998</ele>
        <time>2026-05-16T12:50:40+02:00</time>
      </trkpt>
      <trkpt lat="47.60605" lon="5.88994">
        <ele>199.2998</ele>
        <time>2026-05-16T12:50:41+02:00</time>
      </trkpt>
      <trkpt lat="47.60604" lon="5.89004">
        <ele>199.2998</ele>
        <time>2026-05-16T12:50:42+02:00</time>
      </trkpt>
      <trkpt lat="47.60604" lon="5.89013">
        <ele>199.2998</ele>
        <time>2026-05-16T12:50:43+02:00</time>
      </trkpt>
      <trkpt lat="47.60604" lon="5.89023">
        <ele>199.2998</ele>
        <time>2026-05-16T12:50:44+02:00</time>
      </trkpt>
      <trkpt lat="47.60604" lon="5.89032">
        <ele>199.2998</ele>
        <time>2026-05-16T12:50:45+02:00</time>
      </trkpt>
      <trkpt lat="47.60605" lon="5.89042">
        <ele>199.2998</ele>
        <time>2026-05-16T12:50:46+02:00</time>
      </trkpt>
      <trkpt lat="47.60606" lon="5.89051">
        <ele>199.2998</ele>
        <time>2026-05-16T12:50:47+02:00</time>
      </trkpt>
      <trkpt lat="47.60607" lon="5.89061">
        <ele>199.2998</ele>
        <time>2026-05-16T12:50:48+02:00</time>
      </trkpt>
      <trkpt lat="47.60608" lon="5.89071">
        <ele>199.2998</ele>
        <time>2026-05-16T12:50:49+02:00</time>
      </trkpt>
      <trkpt lat="47.60609" lon="5.8908">
        <ele>199.2998</ele>
        <time>2026-05-16T12:50:50+02:00</time>
      </trkpt>
      <trkpt lat="47.60611" lon="5.89089">
        <ele>199.2998</ele>
        <time>2026-05-16T12:50:51+02:00</time>
      </trkpt>
      <trkpt lat="47.60612" lon="5.89094">
        <ele>199.2998</ele>
        <time>2026-05-16T12:50:52+02:00</time>
      </trkpt>
      <trkpt lat="47.60615" lon="5.89107">
        <ele>199.2998</ele>
        <time>2026-05-16T12:50:53+02:00</time>
      </trkpt>
      <trkpt lat="47.60617" lon="5.89117">
        <ele>199.2998</ele>
        <time>2026-05-16T12:50:54+02:00</time>
      </trkpt>
      <trkpt lat="47.6062" lon="5.89126">
        <ele>199.2998</ele>
        <time>2026-05-16T12:50:55+02:00</time>
      </trkpt>
      <trkpt lat="47.60623" lon="5.89135">
        <ele>199.2998</ele>
        <time>2026-05-16T12:50:56+02:00</time>
      </trkpt>
      <trkpt lat="47.60626" lon="5.89143">
        <ele>199.2998</ele>
        <time>2026-05-16T12:50:57+02:00</time>
      </trkpt>
      <trkpt lat="47.60629" lon="5.89152">
        <ele>199.2998</ele>
        <time>2026-05-16T12:50:58+02:00</time>
      </trkpt>
      <trkpt lat="47.60633" lon="5.8916">
        <ele>199.2998</ele>
        <time>2026-05-16T12:50:59+02:00</time>
      </trkpt>
      <trkpt lat="47.60636" lon="5.89169">
        <ele>199.2998</ele>
        <time>2026-05-16T12:51:00+02:00</time>
      </trkpt>
      <trkpt lat="47.6064" lon="5.89177">
        <ele>199.2998</ele>
        <time>2026-05-16T12:51:01+02:00</time>
      </trkpt>
      <trkpt lat="47.60643" lon="5.89184">
        <ele>199.2998</ele>
        <time>2026-05-16T12:51:02+02:00</time>
      </trkpt>
      <trkpt lat="47.60646" lon="5.89192">
        <ele>199.2998</ele>
        <time>2026-05-16T12:51:03+02:00</time>
      </trkpt>
      <trkpt lat="47.60649" lon="5.892">
        <ele>199.2998</ele>
        <time>2026-05-16T12:51:04+02:00</time>
      </trkpt>
      <trkpt lat="47.60652" lon="5.89209">
        <ele>199.2002</ele>
        <time>2026-05-16T12:51:05+02:00</time>
      </trkpt>
      <trkpt lat="47.60652" lon="5.89213">
        <ele>199.2002</ele>
        <time>2026-05-16T12:51:06+02:00</time>
      </trkpt>
      <trkpt lat="47.60656" lon="5.89228">
        <ele>199.2998</ele>
        <time>2026-05-16T12:51:07+02:00</time>
      </trkpt>
      <trkpt lat="47.60658" lon="5.89238">
        <ele>199.2998</ele>
        <time>2026-05-16T12:51:08+02:00</time>
      </trkpt>
      <trkpt lat="47.60661" lon="5.89247">
        <ele>199.2998</ele>
        <time>2026-05-16T12:51:09+02:00</time>
      </trkpt>
      <trkpt lat="47.60663" lon="5.89257">
        <ele>199.2998</ele>
        <time>2026-05-16T12:51:10+02:00</time>
      </trkpt>
      <trkpt lat="47.60665" lon="5.89267">
        <ele>199.2998</ele>
        <time>2026-05-16T12:51:11+02:00</time>
      </trkpt>
      <trkpt lat="47.60668" lon="5.89276">
        <ele>199.2998</ele>
        <time>2026-05-16T12:51:12+02:00</time>
      </trkpt>
      <trkpt lat="47.6067" lon="5.89286">
        <ele>199.2998</ele>
        <time>2026-05-16T12:51:13+02:00</time>
      </trkpt>
      <trkpt lat="47.60672" lon="5.89296">
        <ele>199.2998</ele>
        <time>2026-05-16T12:51:14+02:00</time>
      </trkpt>
      <trkpt lat="47.60675" lon="5.89306">
        <ele>199.2998</ele>
        <time>2026-05-16T12:51:15+02:00</time>
      </trkpt>
      <trkpt lat="47.60678" lon="5.89315">
        <ele>199.2998</ele>
        <time>2026-05-16T12:51:16+02:00</time>
      </trkpt>
      <trkpt lat="47.60681" lon="5.89325">
        <ele>199.2998</ele>
        <time>2026-05-16T12:51:17+02:00</time>
      </trkpt>
      <trkpt lat="47.60684" lon="5.89335">
        <ele>199.2998</ele>
        <time>2026-05-16T12:51:18+02:00</time>
      </trkpt>
      <trkpt lat="47.60686" lon="5.89345">
        <ele>199.2998</ele>
        <time>2026-05-16T12:51:19+02:00</time>
      </trkpt>
      <trkpt lat="47.60688" lon="5.89355">
        <ele>199.2998</ele>
        <time>2026-05-16T12:51:20+02:00</time>
      </trkpt>
      <trkpt lat="47.60691" lon="5.89365">
        <ele>199.2998</ele>
        <time>2026-05-16T12:51:21+02:00</time>
      </trkpt>
      <trkpt lat="47.60693" lon="5.89374">
        <ele>199.2998</ele>
        <time>2026-05-16T12:51:22+02:00</time>
      </trkpt>
      <trkpt lat="47.60696" lon="5.89384">
        <ele>199.2998</ele>
        <time>2026-05-16T12:51:23+02:00</time>
      </trkpt>
      <trkpt lat="47.60698" lon="5.89394">
        <ele>199.2998</ele>
        <time>2026-05-16T12:51:24+02:00</time>
      </trkpt>
      <trkpt lat="47.60701" lon="5.89404">
        <ele>199.2998</ele>
        <time>2026-05-16T12:51:25+02:00</time>
      </trkpt>
      <trkpt lat="47.60703" lon="5.89413">
        <ele>199.2998</ele>
        <time>2026-05-16T12:51:26+02:00</time>
      </trkpt>
      <trkpt lat="47.60706" lon="5.89423">
        <ele>199.2998</ele>
        <time>2026-05-16T12:51:27+02:00</time>
      </trkpt>
      <trkpt lat="47.60708" lon="5.89432">
        <ele>199.2998</ele>
        <time>2026-05-16T12:51:28+02:00</time>
      </trkpt>
      <trkpt lat="47.6071" lon="5.89442">
        <ele>199.2998</ele>
        <time>2026-05-16T12:51:29+02:00</time>
      </trkpt>
      <trkpt lat="47.60711" lon="5.89452">
        <ele>199.2998</ele>
        <time>2026-05-16T12:51:30+02:00</time>
      </trkpt>
      <trkpt lat="47.60714" lon="5.89461">
        <ele>199.2998</ele>
        <time>2026-05-16T12:51:31+02:00</time>
      </trkpt>
      <trkpt lat="47.60716" lon="5.89471">
        <ele>199.2998</ele>
        <time>2026-05-16T12:51:32+02:00</time>
      </trkpt>
      <trkpt lat="47.60724" lon="5.89505">
        <ele>199.2998</ele>
        <time>2026-05-16T12:51:33+02:00</time>
      </trkpt>
      <trkpt lat="47.60727" lon="5.8952">
        <ele>199.2998</ele>
        <time>2026-05-16T12:51:34+02:00</time>
      </trkpt>
      <trkpt lat="47.60729" lon="5.8953">
        <ele>199.2998</ele>
        <time>2026-05-16T12:51:35+02:00</time>
      </trkpt>
      <trkpt lat="47.60731" lon="5.8954">
        <ele>199.2998</ele>
        <time>2026-05-16T12:51:36+02:00</time>
      </trkpt>
      <trkpt lat="47.60733" lon="5.8955">
        <ele>199.2998</ele>
        <time>2026-05-16T12:51:37+02:00</time>
      </trkpt>
      <trkpt lat="47.60735" lon="5.8956">
        <ele>199.2998</ele>
        <time>2026-05-16T12:51:38+02:00</time>
      </trkpt>
      <trkpt lat="47.60737" lon="5.8957">
        <ele>199.2998</ele>
        <time>2026-05-16T12:51:39+02:00</time>
      </trkpt>
      <trkpt lat="47.60739" lon="5.8958">
        <ele>199.40039</ele>
        <time>2026-05-16T12:51:40+02:00</time>
      </trkpt>
      <trkpt lat="47.6074" lon="5.89589">
        <ele>199.5</ele>
        <time>2026-05-16T12:51:41+02:00</time>
      </trkpt>
      <trkpt lat="47.60743" lon="5.89599">
        <ele>199.5</ele>
        <time>2026-05-16T12:51:42+02:00</time>
      </trkpt>
      <trkpt lat="47.60746" lon="5.89608">
        <ele>199.2998</ele>
        <time>2026-05-16T12:51:43+02:00</time>
      </trkpt>
      <trkpt lat="47.60748" lon="5.89617">
        <ele>199.2998</ele>
        <time>2026-05-16T12:51:44+02:00</time>
      </trkpt>
      <trkpt lat="47.60751" lon="5.89626">
        <ele>199.2998</ele>
        <time>2026-05-16T12:51:45+02:00</time>
      </trkpt>
      <trkpt lat="47.60755" lon="5.89635">
        <ele>199.2998</ele>
        <time>2026-05-16T12:51:46+02:00</time>
      </trkpt>
      <trkpt lat="47.60758" lon="5.89643">
        <ele>199.2998</ele>
        <time>2026-05-16T12:51:47+02:00</time>
      </trkpt>
      <trkpt lat="47.60762" lon="5.89652">
        <ele>199.2998</ele>
        <time>2026-05-16T12:51:48+02:00</time>
      </trkpt>
      <trkpt lat="47.60766" lon="5.8966">
        <ele>199.2998</ele>
        <time>2026-05-16T12:51:49+02:00</time>
      </trkpt>
      <trkpt lat="47.6077" lon="5.89668">
        <ele>199.2998</ele>
        <time>2026-05-16T12:51:50+02:00</time>
      </trkpt>
      <trkpt lat="47.60774" lon="5.89675">
        <ele>199.2998</ele>
        <time>2026-05-16T12:51:51+02:00</time>
      </trkpt>
      <trkpt lat="47.60779" lon="5.89683">
        <ele>199.2002</ele>
        <time>2026-05-16T12:51:52+02:00</time>
      </trkpt>
      <trkpt lat="47.60784" lon="5.8969">
        <ele>199.2002</ele>
        <time>2026-05-16T12:51:53+02:00</time>
      </trkpt>
      <trkpt lat="47.60788" lon="5.89696">
        <ele>199.2002</ele>
        <time>2026-05-16T12:51:54+02:00</time>
      </trkpt>
      <trkpt lat="47.60793" lon="5.89703">
        <ele>199.2002</ele>
        <time>2026-05-16T12:51:55+02:00</time>
      </trkpt>
      <trkpt lat="47.60798" lon="5.8971">
        <ele>199.40039</ele>
        <time>2026-05-16T12:51:56+02:00</time>
      </trkpt>
      <trkpt lat="47.60803" lon="5.89717">
        <ele>200.2998</ele>
        <time>2026-05-16T12:51:57+02:00</time>
      </trkpt>
      <trkpt lat="47.60808" lon="5.89724">
        <ele>201.7002</ele>
        <time>2026-05-16T12:51:58+02:00</time>
      </trkpt>
      <trkpt lat="47.60813" lon="5.8973">
        <ele>202.90039</ele>
        <time>2026-05-16T12:51:59+02:00</time>
      </trkpt>
      <trkpt lat="47.60818" lon="5.89737">
        <ele>202.40039</ele>
        <time>2026-05-16T12:52:00+02:00</time>
      </trkpt>
      <trkpt lat="47.60823" lon="5.89743">
        <ele>202.2998</ele>
        <time>2026-05-16T12:52:01+02:00</time>
      </trkpt>
      <trkpt lat="47.60828" lon="5.89749">
        <ele>202.60059</ele>
        <time>2026-05-16T12:52:02+02:00</time>
      </trkpt>
      <trkpt lat="47.60833" lon="5.89755">
        <ele>202.40039</ele>
        <time>2026-05-16T12:52:03+02:00</time>
      </trkpt>
      <trkpt lat="47.60839" lon="5.89761">
        <ele>202.40039</ele>
        <time>2026-05-16T12:52:04+02:00</time>
      </trkpt>
      <trkpt lat="47.60845" lon="5.89767">
        <ele>202.40039</ele>
        <time>2026-05-16T12:52:05+02:00</time>
      </trkpt>
      <trkpt lat="47.6085" lon="5.89772">
        <ele>202</ele>
        <time>2026-05-16T12:52:06+02:00</time>
      </trkpt>
      <trkpt lat="47.60856" lon="5.89778">
        <ele>201.7998</ele>
        <time>2026-05-16T12:52:07+02:00</time>
      </trkpt>
      <trkpt lat="47.60859" lon="5.8978">
        <ele>201.7998</ele>
        <time>2026-05-16T12:52:08+02:00</time>
      </trkpt>
      <trkpt lat="47.60867" lon="5.89788">
        <ele>201.5</ele>
        <time>2026-05-16T12:52:09+02:00</time>
      </trkpt>
      <trkpt lat="47.60874" lon="5.89793">
        <ele>201.2998</ele>
        <time>2026-05-16T12:52:10+02:00</time>
      </trkpt>
      <trkpt lat="47.6088" lon="5.89797">
        <ele>201</ele>
        <time>2026-05-16T12:52:11+02:00</time>
      </trkpt>
      <trkpt lat="47.60886" lon="5.89802">
        <ele>200.7998</ele>
        <time>2026-05-16T12:52:12+02:00</time>
      </trkpt>
      <trkpt lat="47.60892" lon="5.89806">
        <ele>200.7002</ele>
        <time>2026-05-16T12:52:13+02:00</time>
      </trkpt>
      <trkpt lat="47.60898" lon="5.8981">
        <ele>200.60059</ele>
        <time>2026-05-16T12:52:14+02:00</time>
      </trkpt>
      <trkpt lat="47.60905" lon="5.89814">
        <ele>200.60059</ele>
        <time>2026-05-16T12:52:15+02:00</time>
      </trkpt>
      <trkpt lat="47.60911" lon="5.89817">
        <ele>200.5</ele>
        <time>2026-05-16T12:52:16+02:00</time>
      </trkpt>
      <trkpt lat="47.60917" lon="5.89821">
        <ele>200.5</ele>
        <time>2026-05-16T12:52:17+02:00</time>
      </trkpt>
      <trkpt lat="47.60924" lon="5.89824">
        <ele>200.5</ele>
        <time>2026-05-16T12:52:18+02:00</time>
      </trkpt>
      <trkpt lat="47.6093" lon="5.89827">
        <ele>200.5</ele>
        <time>2026-05-16T12:52:19+02:00</time>
      </trkpt>
      <trkpt lat="47.60937" lon="5.8983">
        <ele>200.5</ele>
        <time>2026-05-16T12:52:20+02:00</time>
      </trkpt>
      <trkpt lat="47.60944" lon="5.89833">
        <ele>200.5</ele>
        <time>2026-05-16T12:52:21+02:00</time>
      </trkpt>
      <trkpt lat="47.6095" lon="5.89836">
        <ele>200.5</ele>
        <time>2026-05-16T12:52:22+02:00</time>
      </trkpt>
      <trkpt lat="47.60957" lon="5.89838">
        <ele>200.60059</ele>
        <time>2026-05-16T12:52:23+02:00</time>
      </trkpt>
      <trkpt lat="47.60964" lon="5.8984">
        <ele>200.60059</ele>
        <time>2026-05-16T12:52:24+02:00</time>
      </trkpt>
      <trkpt lat="47.6097" lon="5.89842">
        <ele>200.60059</ele>
        <time>2026-05-16T12:52:25+02:00</time>
      </trkpt>
      <trkpt lat="47.60977" lon="5.89843">
        <ele>200.60059</ele>
        <time>2026-05-16T12:52:26+02:00</time>
      </trkpt>
      <trkpt lat="47.60984" lon="5.89845">
        <ele>200.60059</ele>
        <time>2026-05-16T12:52:27+02:00</time>
      </trkpt>
      <trkpt lat="47.60991" lon="5.89847">
        <ele>200.7998</ele>
        <time>2026-05-16T12:52:28+02:00</time>
      </trkpt>
      <trkpt lat="47.60998" lon="5.89848">
        <ele>200.7998</ele>
        <time>2026-05-16T12:52:29+02:00</time>
      </trkpt>
      <trkpt lat="47.61004" lon="5.89849">
        <ele>200.90039</ele>
        <time>2026-05-16T12:52:30+02:00</time>
      </trkpt>
      <trkpt lat="47.61011" lon="5.8985">
        <ele>200.90039</ele>
        <time>2026-05-16T12:52:31+02:00</time>
      </trkpt>
      <trkpt lat="47.61018" lon="5.89851">
        <ele>201</ele>
        <time>2026-05-16T12:52:32+02:00</time>
      </trkpt>
      <trkpt lat="47.61025" lon="5.89852">
        <ele>201</ele>
        <time>2026-05-16T12:52:33+02:00</time>
      </trkpt>
      <trkpt lat="47.61032" lon="5.89853">
        <ele>201</ele>
        <time>2026-05-16T12:52:34+02:00</time>
      </trkpt>
      <trkpt lat="47.61039" lon="5.89853">
        <ele>201.10059</ele>
        <time>2026-05-16T12:52:35+02:00</time>
      </trkpt>
      <trkpt lat="47.61046" lon="5.89854">
        <ele>201.2002</ele>
        <time>2026-05-16T12:52:36+02:00</time>
      </trkpt>
      <trkpt lat="47.61053" lon="5.89855">
        <ele>201.2998</ele>
        <time>2026-05-16T12:52:37+02:00</time>
      </trkpt>
      <trkpt lat="47.6106" lon="5.89856">
        <ele>201.40039</ele>
        <time>2026-05-16T12:52:38+02:00</time>
      </trkpt>
      <trkpt lat="47.61067" lon="5.89857">
        <ele>201.40039</ele>
        <time>2026-05-16T12:52:39+02:00</time>
      </trkpt>
      <trkpt lat="47.61073" lon="5.89857">
        <ele>201.5</ele>
        <time>2026-05-16T12:52:40+02:00</time>
      </trkpt>
      <trkpt lat="47.6108" lon="5.89858">
        <ele>201.60059</ele>
        <time>2026-05-16T12:52:41+02:00</time>
      </trkpt>
      <trkpt lat="47.61087" lon="5.89859">
        <ele>201.60059</ele>
        <time>2026-05-16T12:52:42+02:00</time>
      </trkpt>
      <trkpt lat="47.61094" lon="5.8986">
        <ele>201.7002</ele>
        <time>2026-05-16T12:52:43+02:00</time>
      </trkpt>
      <trkpt lat="47.61101" lon="5.8986">
        <ele>201.7002</ele>
        <time>2026-05-16T12:52:44+02:00</time>
      </trkpt>
      <trkpt lat="47.61107" lon="5.89861">
        <ele>201.7998</ele>
        <time>2026-05-16T12:52:45+02:00</time>
      </trkpt>
      <trkpt lat="47.61114" lon="5.89862">
        <ele>201.90039</ele>
        <time>2026-05-16T12:52:46+02:00</time>
      </trkpt>
      <trkpt lat="47.61121" lon="5.89863">
        <ele>202</ele>
        <time>2026-05-16T12:52:47+02:00</time>
      </trkpt>
      <trkpt lat="47.61128" lon="5.89864">
        <ele>202.10059</ele>
        <time>2026-05-16T12:52:48+02:00</time>
      </trkpt>
      <trkpt lat="47.61135" lon="5.89865">
        <ele>202.10059</ele>
        <time>2026-05-16T12:52:49+02:00</time>
      </trkpt>
      <trkpt lat="47.61142" lon="5.89865">
        <ele>202.10059</ele>
        <time>2026-05-16T12:52:50+02:00</time>
      </trkpt>
      <trkpt lat="47.61148" lon="5.89866">
        <ele>202.10059</ele>
        <time>2026-05-16T12:52:51+02:00</time>
      </trkpt>
      <trkpt lat="47.61155" lon="5.89867">
        <ele>202.2002</ele>
        <time>2026-05-16T12:52:52+02:00</time>
      </trkpt>
      <trkpt lat="47.61162" lon="5.89868">
        <ele>202.2002</ele>
        <time>2026-05-16T12:52:53+02:00</time>
      </trkpt>
      <trkpt lat="47.61168" lon="5.89869">
        <ele>202.2002</ele>
        <time>2026-05-16T12:52:54+02:00</time>
      </trkpt>
      <trkpt lat="47.61175" lon="5.8987">
        <ele>202.2002</ele>
        <time>2026-05-16T12:52:55+02:00</time>
      </trkpt>
      <trkpt lat="47.61181" lon="5.89871">
        <ele>202.2002</ele>
        <time>2026-05-16T12:52:56+02:00</time>
      </trkpt>
      <trkpt lat="47.61187" lon="5.89871">
        <ele>202.10059</ele>
        <time>2026-05-16T12:52:57+02:00</time>
      </trkpt>
      <trkpt lat="47.61194" lon="5.89872">
        <ele>202.10059</ele>
        <time>2026-05-16T12:52:58+02:00</time>
      </trkpt>
      <trkpt lat="47.61201" lon="5.89873">
        <ele>202</ele>
        <time>2026-05-16T12:52:59+02:00</time>
      </trkpt>
      <trkpt lat="47.61208" lon="5.89874">
        <ele>202</ele>
        <time>2026-05-16T12:53:00+02:00</time>
      </trkpt>
      <trkpt lat="47.61215" lon="5.89874">
        <ele>201.90039</ele>
        <time>2026-05-16T12:53:01+02:00</time>
      </trkpt>
      <trkpt lat="47.61218" lon="5.89874">
        <ele>201.90039</ele>
        <time>2026-05-16T12:53:02+02:00</time>
      </trkpt>
      <trkpt lat="47.61228" lon="5.89875">
        <ele>201.7998</ele>
        <time>2026-05-16T12:53:03+02:00</time>
      </trkpt>
      <trkpt lat="47.61235" lon="5.89876">
        <ele>201.7998</ele>
        <time>2026-05-16T12:53:04+02:00</time>
      </trkpt>
      <trkpt lat="47.61241" lon="5.89877">
        <ele>201.7998</ele>
        <time>2026-05-16T12:53:05+02:00</time>
      </trkpt>
      <trkpt lat="47.61245" lon="5.89877">
        <ele>201.7998</ele>
        <time>2026-05-16T12:53:06+02:00</time>
      </trkpt>
      <trkpt lat="47.61255" lon="5.89878">
        <ele>201.7998</ele>
        <time>2026-05-16T12:53:07+02:00</time>
      </trkpt>
      <trkpt lat="47.61261" lon="5.89879">
        <ele>201.7998</ele>
        <time>2026-05-16T12:53:08+02:00</time>
      </trkpt>
      <trkpt lat="47.61268" lon="5.89879">
        <ele>201.7998</ele>
        <time>2026-05-16T12:53:09+02:00</time>
      </trkpt>
      <trkpt lat="47.61274" lon="5.8988">
        <ele>201.90039</ele>
        <time>2026-05-16T12:53:10+02:00</time>
      </trkpt>
      <trkpt lat="47.61281" lon="5.89881">
        <ele>201.90039</ele>
        <time>2026-05-16T12:53:11+02:00</time>
      </trkpt>
      <trkpt lat="47.61288" lon="5.89882">
        <ele>202</ele>
        <time>2026-05-16T12:53:12+02:00</time>
      </trkpt>
      <trkpt lat="47.61295" lon="5.89883">
        <ele>202</ele>
        <time>2026-05-16T12:53:13+02:00</time>
      </trkpt>
      <trkpt lat="47.61302" lon="5.89884">
        <ele>202.10059</ele>
        <time>2026-05-16T12:53:14+02:00</time>
      </trkpt>
      <trkpt lat="47.61308" lon="5.89885">
        <ele>202.10059</ele>
        <time>2026-05-16T12:53:15+02:00</time>
      </trkpt>
      <trkpt lat="47.61315" lon="5.89886">
        <ele>202.10059</ele>
        <time>2026-05-16T12:53:16+02:00</time>
      </trkpt>
      <trkpt lat="47.61322" lon="5.89887">
        <ele>202.10059</ele>
        <time>2026-05-16T12:53:17+02:00</time>
      </trkpt>
      <trkpt lat="47.61329" lon="5.89887">
        <ele>202.2002</ele>
        <time>2026-05-16T12:53:18+02:00</time>
      </trkpt>
      <trkpt lat="47.61335" lon="5.89888">
        <ele>202.2002</ele>
        <time>2026-05-16T12:53:19+02:00</time>
      </trkpt>
      <trkpt lat="47.61342" lon="5.89889">
        <ele>202.10059</ele>
        <time>2026-05-16T12:53:20+02:00</time>
      </trkpt>
      <trkpt lat="47.61348" lon="5.89889">
        <ele>202.10059</ele>
        <time>2026-05-16T12:53:21+02:00</time>
      </trkpt>
      <trkpt lat="47.61355" lon="5.8989">
        <ele>202</ele>
        <time>2026-05-16T12:53:22+02:00</time>
      </trkpt>
      <trkpt lat="47.61361" lon="5.89889">
        <ele>202</ele>
        <time>2026-05-16T12:53:23+02:00</time>
      </trkpt>
      <trkpt lat="47.61366" lon="5.89889">
        <ele>201.90039</ele>
        <time>2026-05-16T12:53:24+02:00</time>
      </trkpt>
      <trkpt lat="47.61372" lon="5.89889">
        <ele>201.90039</ele>
        <time>2026-05-16T12:53:25+02:00</time>
      </trkpt>
      <trkpt lat="47.61378" lon="5.89889">
        <ele>201.7998</ele>
        <time>2026-05-16T12:53:26+02:00</time>
      </trkpt>
      <trkpt lat="47.61383" lon="5.8989">
        <ele>201.7998</ele>
        <time>2026-05-16T12:53:27+02:00</time>
      </trkpt>
      <trkpt lat="47.61388" lon="5.89891">
        <ele>201.7002</ele>
        <time>2026-05-16T12:53:28+02:00</time>
      </trkpt>
      <trkpt lat="47.61392" lon="5.89892">
        <ele>201.7002</ele>
        <time>2026-05-16T12:53:29+02:00</time>
      </trkpt>
      <trkpt lat="47.61396" lon="5.89892">
        <ele>201.7002</ele>
        <time>2026-05-16T12:53:30+02:00</time>
      </trkpt>
      <trkpt lat="47.61398" lon="5.89892">
        <ele>201.60059</ele>
        <time>2026-05-16T12:53:31+02:00</time>
      </trkpt>
      <trkpt lat="47.61401" lon="5.89893">
        <ele>201.60059</ele>
        <time>2026-05-16T12:53:32+02:00</time>
      </trkpt>
      <trkpt lat="47.61402" lon="5.89895">
        <ele>201.60059</ele>
        <time>2026-05-16T12:53:33+02:00</time>
      </trkpt>
      <trkpt lat="47.61403" lon="5.89897">
        <ele>201.60059</ele>
        <time>2026-05-16T12:53:34+02:00</time>
      </trkpt>
      <trkpt lat="47.61403" lon="5.89899">
        <ele>201.60059</ele>
        <time>2026-05-16T12:53:35+02:00</time>
      </trkpt>
      <trkpt lat="47.61404" lon="5.89901">
        <ele>201.5</ele>
        <time>2026-05-16T12:53:36+02:00</time>
      </trkpt>
      <trkpt lat="47.61404" lon="5.89903">
        <ele>201.5</ele>
        <time>2026-05-16T12:53:37+02:00</time>
      </trkpt>
      <trkpt lat="47.61403" lon="5.89904">
        <ele>201.60059</ele>
        <time>2026-05-16T12:53:38+02:00</time>
      </trkpt>
      <trkpt lat="47.61403" lon="5.89906">
        <ele>201.60059</ele>
        <time>2026-05-16T12:53:39+02:00</time>
      </trkpt>
      <trkpt lat="47.61402" lon="5.89907">
        <ele>201.60059</ele>
        <time>2026-05-16T12:53:40+02:00</time>
      </trkpt>
      <trkpt lat="47.61402" lon="5.89907">
        <ele>201.60059</ele>
        <time>2026-05-16T12:53:41+02:00</time>
      </trkpt>
      <trkpt lat="47.61402" lon="5.89908">
        <ele>201.60059</ele>
        <time>2026-05-16T12:53:42+02:00</time>
      </trkpt>
      <trkpt lat="47.6142" lon="5.89898">
        <ele>201.40039</ele>
        <time>2026-05-16T12:55:45+02:00</time>
      </trkpt>
      <trkpt lat="47.61425" lon="5.89899">
        <ele>201.40039</ele>
        <time>2026-05-16T12:55:46+02:00</time>
      </trkpt>
      <trkpt lat="47.6143" lon="5.89901">
        <ele>201.2998</ele>
        <time>2026-05-16T12:55:47+02:00</time>
      </trkpt>
      <trkpt lat="47.61436" lon="5.89903">
        <ele>201.2998</ele>
        <time>2026-05-16T12:55:48+02:00</time>
      </trkpt>
      <trkpt lat="47.61441" lon="5.89905">
        <ele>201.2998</ele>
        <time>2026-05-16T12:55:49+02:00</time>
      </trkpt>
      <trkpt lat="47.61446" lon="5.89906">
        <ele>201.10059</ele>
        <time>2026-05-16T12:55:50+02:00</time>
      </trkpt>
      <trkpt lat="47.61451" lon="5.89907">
        <ele>201.10059</ele>
        <time>2026-05-16T12:55:51+02:00</time>
      </trkpt>
      <trkpt lat="47.61456" lon="5.89908">
        <ele>201</ele>
        <time>2026-05-16T12:55:52+02:00</time>
      </trkpt>
      <trkpt lat="47.61463" lon="5.89909">
        <ele>200.90039</ele>
        <time>2026-05-16T12:55:53+02:00</time>
      </trkpt>
      <trkpt lat="47.61469" lon="5.8991">
        <ele>200.60059</ele>
        <time>2026-05-16T12:55:54+02:00</time>
      </trkpt>
      <trkpt lat="47.61476" lon="5.89911">
        <ele>200.40039</ele>
        <time>2026-05-16T12:55:55+02:00</time>
      </trkpt>
      <trkpt lat="47.61483" lon="5.89911">
        <ele>200.10059</ele>
        <time>2026-05-16T12:55:56+02:00</time>
      </trkpt>
      <trkpt lat="47.61489" lon="5.89911">
        <ele>199.90039</ele>
        <time>2026-05-16T12:55:57+02:00</time>
      </trkpt>
      <trkpt lat="47.61496" lon="5.89909">
        <ele>199.2998</ele>
        <time>2026-05-16T12:55:58+02:00</time>
      </trkpt>
      <trkpt lat="47.61499" lon="5.89909">
        <ele>199.2998</ele>
        <time>2026-05-16T12:55:59+02:00</time>
      </trkpt>
      <trkpt lat="47.61509" lon="5.89906">
        <ele>199.2002</ele>
        <time>2026-05-16T12:56:00+02:00</time>
      </trkpt>
      <trkpt lat="47.61515" lon="5.89903">
        <ele>199.2998</ele>
        <time>2026-05-16T12:56:01+02:00</time>
      </trkpt>
      <trkpt lat="47.61521" lon="5.89901">
        <ele>199.2998</ele>
        <time>2026-05-16T12:56:02+02:00</time>
      </trkpt>
      <trkpt lat="47.61528" lon="5.899">
        <ele>199.2998</ele>
        <time>2026-05-16T12:56:03+02:00</time>
      </trkpt>
      <trkpt lat="47.61534" lon="5.89899">
        <ele>199.2998</ele>
        <time>2026-05-16T12:56:04+02:00</time>
      </trkpt>
      <trkpt lat="47.61541" lon="5.89899">
        <ele>199.2998</ele>
        <time>2026-05-16T12:56:05+02:00</time>
      </trkpt>
      <trkpt lat="47.61548" lon="5.89899">
        <ele>199.2998</ele>
        <time>2026-05-16T12:56:06+02:00</time>
      </trkpt>
      <trkpt lat="47.61554" lon="5.899">
        <ele>199.2998</ele>
        <time>2026-05-16T12:56:07+02:00</time>
      </trkpt>
      <trkpt lat="47.61561" lon="5.89901">
        <ele>199.2998</ele>
        <time>2026-05-16T12:56:08+02:00</time>
      </trkpt>
      <trkpt lat="47.61568" lon="5.89902">
        <ele>199.2998</ele>
        <time>2026-05-16T12:56:09+02:00</time>
      </trkpt>
      <trkpt lat="47.61575" lon="5.89902">
        <ele>199.2998</ele>
        <time>2026-05-16T12:56:10+02:00</time>
      </trkpt>
      <trkpt lat="47.61582" lon="5.89903">
        <ele>199.2998</ele>
        <time>2026-05-16T12:56:11+02:00</time>
      </trkpt>
      <trkpt lat="47.61588" lon="5.89904">
        <ele>199.2998</ele>
        <time>2026-05-16T12:56:12+02:00</time>
      </trkpt>
      <trkpt lat="47.61595" lon="5.89905">
        <ele>199.2998</ele>
        <time>2026-05-16T12:56:13+02:00</time>
      </trkpt>
      <trkpt lat="47.61602" lon="5.89905">
        <ele>199.2998</ele>
        <time>2026-05-16T12:56:14+02:00</time>
      </trkpt>
      <trkpt lat="47.61609" lon="5.89906">
        <ele>199.2998</ele>
        <time>2026-05-16T12:56:15+02:00</time>
      </trkpt>
      <trkpt lat="47.61616" lon="5.89907">
        <ele>199.2998</ele>
        <time>2026-05-16T12:56:16+02:00</time>
      </trkpt>
      <trkpt lat="47.61624" lon="5.89908">
        <ele>199.2998</ele>
        <time>2026-05-16T12:56:17+02:00</time>
      </trkpt>
      <trkpt lat="47.6163" lon="5.89909">
        <ele>199.2998</ele>
        <time>2026-05-16T12:56:18+02:00</time>
      </trkpt>
      <trkpt lat="47.61637" lon="5.8991">
        <ele>199.2002</ele>
        <time>2026-05-16T12:56:19+02:00</time>
      </trkpt>
      <trkpt lat="47.61644" lon="5.89912">
        <ele>199.2998</ele>
        <time>2026-05-16T12:56:20+02:00</time>
      </trkpt>
      <trkpt lat="47.61651" lon="5.89914">
        <ele>199.2998</ele>
        <time>2026-05-16T12:56:21+02:00</time>
      </trkpt>
      <trkpt lat="47.61658" lon="5.89916">
        <ele>199.2998</ele>
        <time>2026-05-16T12:56:22+02:00</time>
      </trkpt>
      <trkpt lat="47.61665" lon="5.89918">
        <ele>199.2998</ele>
        <time>2026-05-16T12:56:23+02:00</time>
      </trkpt>
      <trkpt lat="47.61672" lon="5.89922">
        <ele>199.2998</ele>
        <time>2026-05-16T12:56:24+02:00</time>
      </trkpt>
      <trkpt lat="47.61678" lon="5.89926">
        <ele>199.2998</ele>
        <time>2026-05-16T12:56:25+02:00</time>
      </trkpt>
      <trkpt lat="47.61685" lon="5.89931">
        <ele>199.2998</ele>
        <time>2026-05-16T12:56:26+02:00</time>
      </trkpt>
      <trkpt lat="47.61691" lon="5.89935">
        <ele>199.2998</ele>
        <time>2026-05-16T12:56:27+02:00</time>
      </trkpt>
      <trkpt lat="47.61698" lon="5.89939">
        <ele>199.2998</ele>
        <time>2026-05-16T12:56:28+02:00</time>
      </trkpt>
      <trkpt lat="47.61704" lon="5.89944">
        <ele>199.2998</ele>
        <time>2026-05-16T12:56:29+02:00</time>
      </trkpt>
      <trkpt lat="47.61711" lon="5.89948">
        <ele>199.2998</ele>
        <time>2026-05-16T12:56:30+02:00</time>
      </trkpt>
      <trkpt lat="47.61717" lon="5.89953">
        <ele>199.2998</ele>
        <time>2026-05-16T12:56:31+02:00</time>
      </trkpt>
      <trkpt lat="47.61723" lon="5.89959">
        <ele>199.2998</ele>
        <time>2026-05-16T12:56:32+02:00</time>
      </trkpt>
      <trkpt lat="47.61729" lon="5.89964">
        <ele>199.2998</ele>
        <time>2026-05-16T12:56:33+02:00</time>
      </trkpt>
      <trkpt lat="47.61735" lon="5.89969">
        <ele>199.2998</ele>
        <time>2026-05-16T12:56:34+02:00</time>
      </trkpt>
      <trkpt lat="47.61741" lon="5.89975">
        <ele>199.2998</ele>
        <time>2026-05-16T12:56:35+02:00</time>
      </trkpt>
      <trkpt lat="47.61747" lon="5.89981">
        <ele>199.2998</ele>
        <time>2026-05-16T12:56:36+02:00</time>
      </trkpt>
      <trkpt lat="47.61752" lon="5.89986">
        <ele>199.2998</ele>
        <time>2026-05-16T12:56:37+02:00</time>
      </trkpt>
      <trkpt lat="47.61758" lon="5.89993">
        <ele>199.2998</ele>
        <time>2026-05-16T12:56:38+02:00</time>
      </trkpt>
      <trkpt lat="47.61763" lon="5.9">
        <ele>199.2998</ele>
        <time>2026-05-16T12:56:39+02:00</time>
      </trkpt>
      <trkpt lat="47.61768" lon="5.90007">
        <ele>199.2998</ele>
        <time>2026-05-16T12:56:40+02:00</time>
      </trkpt>
      <trkpt lat="47.61773" lon="5.90014">
        <ele>199.2998</ele>
        <time>2026-05-16T12:56:41+02:00</time>
      </trkpt>
      <trkpt lat="47.61778" lon="5.90021">
        <ele>199.2998</ele>
        <time>2026-05-16T12:56:42+02:00</time>
      </trkpt>
      <trkpt lat="47.61782" lon="5.90029">
        <ele>199.2998</ele>
        <time>2026-05-16T12:56:43+02:00</time>
      </trkpt>
      <trkpt lat="47.61787" lon="5.90036">
        <ele>199.2998</ele>
        <time>2026-05-16T12:56:44+02:00</time>
      </trkpt>
      <trkpt lat="47.61791" lon="5.90044">
        <ele>199.2998</ele>
        <time>2026-05-16T12:56:45+02:00</time>
      </trkpt>
      <trkpt lat="47.61796" lon="5.90052">
        <ele>199.2998</ele>
        <time>2026-05-16T12:56:46+02:00</time>
      </trkpt>
      <trkpt lat="47.618" lon="5.9006">
        <ele>199.2998</ele>
        <time>2026-05-16T12:56:47+02:00</time>
      </trkpt>
      <trkpt lat="47.61804" lon="5.90069">
        <ele>199.2998</ele>
        <time>2026-05-16T12:56:48+02:00</time>
      </trkpt>
      <trkpt lat="47.61807" lon="5.90077">
        <ele>199.2998</ele>
        <time>2026-05-16T12:56:49+02:00</time>
      </trkpt>
      <trkpt lat="47.61811" lon="5.90086">
        <ele>199.2998</ele>
        <time>2026-05-16T12:56:50+02:00</time>
      </trkpt>
      <trkpt lat="47.61815" lon="5.90094">
        <ele>199.2998</ele>
        <time>2026-05-16T12:56:51+02:00</time>
      </trkpt>
      <trkpt lat="47.61819" lon="5.90102">
        <ele>199.2998</ele>
        <time>2026-05-16T12:56:52+02:00</time>
      </trkpt>
      <trkpt lat="47.61823" lon="5.90111">
        <ele>199.2998</ele>
        <time>2026-05-16T12:56:53+02:00</time>
      </trkpt>
      <trkpt lat="47.61827" lon="5.90119">
        <ele>199.2998</ele>
        <time>2026-05-16T12:56:54+02:00</time>
      </trkpt>
      <trkpt lat="47.61831" lon="5.90127">
        <ele>199.2998</ele>
        <time>2026-05-16T12:56:55+02:00</time>
      </trkpt>
      <trkpt lat="47.61835" lon="5.90136">
        <ele>199.2998</ele>
        <time>2026-05-16T12:56:56+02:00</time>
      </trkpt>
      <trkpt lat="47.61839" lon="5.90144">
        <ele>199.2998</ele>
        <time>2026-05-16T12:56:57+02:00</time>
      </trkpt>
      <trkpt lat="47.61842" lon="5.90153">
        <ele>199.2998</ele>
        <time>2026-05-16T12:56:58+02:00</time>
      </trkpt>
      <trkpt lat="47.61845" lon="5.90162">
        <ele>199.2998</ele>
        <time>2026-05-16T12:56:59+02:00</time>
      </trkpt>
      <trkpt lat="47.61849" lon="5.90171">
        <ele>199.2998</ele>
        <time>2026-05-16T12:57:00+02:00</time>
      </trkpt>
      <trkpt lat="47.61852" lon="5.9018">
        <ele>199.2998</ele>
        <time>2026-05-16T12:57:01+02:00</time>
      </trkpt>
      <trkpt lat="47.61855" lon="5.90189">
        <ele>199.2998</ele>
        <time>2026-05-16T12:57:02+02:00</time>
      </trkpt>
      <trkpt lat="47.61858" lon="5.90198">
        <ele>199.2998</ele>
        <time>2026-05-16T12:57:03+02:00</time>
      </trkpt>
      <trkpt lat="47.61861" lon="5.90207">
        <ele>199.2998</ele>
        <time>2026-05-16T12:57:04+02:00</time>
      </trkpt>
      <trkpt lat="47.61863" lon="5.90211">
        <ele>199.2998</ele>
        <time>2026-05-16T12:57:05+02:00</time>
      </trkpt>
      <trkpt lat="47.61867" lon="5.90225">
        <ele>199.2998</ele>
        <time>2026-05-16T12:57:06+02:00</time>
      </trkpt>
      <trkpt lat="47.6187" lon="5.90234">
        <ele>199.2998</ele>
        <time>2026-05-16T12:57:07+02:00</time>
      </trkpt>
      <trkpt lat="47.61872" lon="5.90243">
        <ele>199.2998</ele>
        <time>2026-05-16T12:57:08+02:00</time>
      </trkpt>
      <trkpt lat="47.61875" lon="5.90253">
        <ele>199.2998</ele>
        <time>2026-05-16T12:57:09+02:00</time>
      </trkpt>
      <trkpt lat="47.61879" lon="5.90262">
        <ele>199.2998</ele>
        <time>2026-05-16T12:57:10+02:00</time>
      </trkpt>
      <trkpt lat="47.61882" lon="5.90271">
        <ele>199.2998</ele>
        <time>2026-05-16T12:57:11+02:00</time>
      </trkpt>
      <trkpt lat="47.61886" lon="5.9028">
        <ele>199.2998</ele>
        <time>2026-05-16T12:57:12+02:00</time>
      </trkpt>
      <trkpt lat="47.61889" lon="5.90289">
        <ele>199.2998</ele>
        <time>2026-05-16T12:57:13+02:00</time>
      </trkpt>
      <trkpt lat="47.61892" lon="5.90298">
        <ele>199.2998</ele>
        <time>2026-05-16T12:57:14+02:00</time>
      </trkpt>
      <trkpt lat="47.61895" lon="5.90307">
        <ele>199.2998</ele>
        <time>2026-05-16T12:57:15+02:00</time>
      </trkpt>
      <trkpt lat="47.61899" lon="5.90316">
        <ele>199.2998</ele>
        <time>2026-05-16T12:57:16+02:00</time>
      </trkpt>
      <trkpt lat="47.61902" lon="5.90325">
        <ele>199.2998</ele>
        <time>2026-05-16T12:57:17+02:00</time>
      </trkpt>
      <trkpt lat="47.61905" lon="5.90334">
        <ele>199.2998</ele>
        <time>2026-05-16T12:57:18+02:00</time>
      </trkpt>
      <trkpt lat="47.61908" lon="5.90343">
        <ele>199.2998</ele>
        <time>2026-05-16T12:57:19+02:00</time>
      </trkpt>
      <trkpt lat="47.61912" lon="5.90352">
        <ele>199.2998</ele>
        <time>2026-05-16T12:57:20+02:00</time>
      </trkpt>
      <trkpt lat="47.61915" lon="5.90361">
        <ele>199.2998</ele>
        <time>2026-05-16T12:57:21+02:00</time>
      </trkpt>
      <trkpt lat="47.61917" lon="5.90365">
        <ele>199.2998</ele>
        <time>2026-05-16T12:57:22+02:00</time>
      </trkpt>
      <trkpt lat="47.61921" lon="5.90378">
        <ele>199.2998</ele>
        <time>2026-05-16T12:57:23+02:00</time>
      </trkpt>
      <trkpt lat="47.61925" lon="5.90387">
        <ele>199.2998</ele>
        <time>2026-05-16T12:57:24+02:00</time>
      </trkpt>
      <trkpt lat="47.61929" lon="5.90396">
        <ele>199.2998</ele>
        <time>2026-05-16T12:57:25+02:00</time>
      </trkpt>
      <trkpt lat="47.61932" lon="5.90404">
        <ele>199.2998</ele>
        <time>2026-05-16T12:57:26+02:00</time>
      </trkpt>
      <trkpt lat="47.61935" lon="5.90413">
        <ele>199.2998</ele>
        <time>2026-05-16T12:57:27+02:00</time>
      </trkpt>
      <trkpt lat="47.61938" lon="5.90422">
        <ele>199.2998</ele>
        <time>2026-05-16T12:57:28+02:00</time>
      </trkpt>
      <trkpt lat="47.61942" lon="5.90431">
        <ele>199.2998</ele>
        <time>2026-05-16T12:57:29+02:00</time>
      </trkpt>
      <trkpt lat="47.61945" lon="5.9044">
        <ele>199.2998</ele>
        <time>2026-05-16T12:57:30+02:00</time>
      </trkpt>
      <trkpt lat="47.61948" lon="5.90449">
        <ele>199.2998</ele>
        <time>2026-05-16T12:57:31+02:00</time>
      </trkpt>
      <trkpt lat="47.61951" lon="5.90458">
        <ele>199.2998</ele>
        <time>2026-05-16T12:57:32+02:00</time>
      </trkpt>
      <trkpt lat="47.61954" lon="5.90467">
        <ele>199.2998</ele>
        <time>2026-05-16T12:57:33+02:00</time>
      </trkpt>
      <trkpt lat="47.61957" lon="5.90476">
        <ele>199.2998</ele>
        <time>2026-05-16T12:57:34+02:00</time>
      </trkpt>
      <trkpt lat="47.6196" lon="5.90486">
        <ele>199.2998</ele>
        <time>2026-05-16T12:57:35+02:00</time>
      </trkpt>
      <trkpt lat="47.61962" lon="5.90495">
        <ele>199.2998</ele>
        <time>2026-05-16T12:57:36+02:00</time>
      </trkpt>
      <trkpt lat="47.61965" lon="5.90504">
        <ele>199.2998</ele>
        <time>2026-05-16T12:57:37+02:00</time>
      </trkpt>
      <trkpt lat="47.61968" lon="5.90514">
        <ele>199.2998</ele>
        <time>2026-05-16T12:57:38+02:00</time>
      </trkpt>
      <trkpt lat="47.6197" lon="5.90523">
        <ele>199.2998</ele>
        <time>2026-05-16T12:57:39+02:00</time>
      </trkpt>
      <trkpt lat="47.61972" lon="5.90532">
        <ele>199.2998</ele>
        <time>2026-05-16T12:57:40+02:00</time>
      </trkpt>
      <trkpt lat="47.61975" lon="5.90541">
        <ele>199.2998</ele>
        <time>2026-05-16T12:57:41+02:00</time>
      </trkpt>
      <trkpt lat="47.61977" lon="5.90551">
        <ele>199.2998</ele>
        <time>2026-05-16T12:57:42+02:00</time>
      </trkpt>
      <trkpt lat="47.61979" lon="5.90561">
        <ele>199.2998</ele>
        <time>2026-05-16T12:57:43+02:00</time>
      </trkpt>
      <trkpt lat="47.61982" lon="5.9057">
        <ele>199.2998</ele>
        <time>2026-05-16T12:57:44+02:00</time>
      </trkpt>
      <trkpt lat="47.61985" lon="5.9058">
        <ele>199.2998</ele>
        <time>2026-05-16T12:57:45+02:00</time>
      </trkpt>
      <trkpt lat="47.61987" lon="5.9059">
        <ele>199.2998</ele>
        <time>2026-05-16T12:57:46+02:00</time>
      </trkpt>
      <trkpt lat="47.6199" lon="5.906">
        <ele>199.2998</ele>
        <time>2026-05-16T12:57:47+02:00</time>
      </trkpt>
      <trkpt lat="47.61992" lon="5.90609">
        <ele>199.2998</ele>
        <time>2026-05-16T12:57:48+02:00</time>
      </trkpt>
      <trkpt lat="47.61995" lon="5.90619">
        <ele>199.2998</ele>
        <time>2026-05-16T12:57:49+02:00</time>
      </trkpt>
      <trkpt lat="47.61996" lon="5.90624">
        <ele>199.2998</ele>
        <time>2026-05-16T12:57:50+02:00</time>
      </trkpt>
      <trkpt lat="47.62" lon="5.90638">
        <ele>199.2998</ele>
        <time>2026-05-16T12:57:51+02:00</time>
      </trkpt>
      <trkpt lat="47.62003" lon="5.90648">
        <ele>199.2998</ele>
        <time>2026-05-16T12:57:52+02:00</time>
      </trkpt>
      <trkpt lat="47.62006" lon="5.90658">
        <ele>199.2998</ele>
        <time>2026-05-16T12:57:53+02:00</time>
      </trkpt>
      <trkpt lat="47.62008" lon="5.90667">
        <ele>199.2998</ele>
        <time>2026-05-16T12:57:54+02:00</time>
      </trkpt>
      <trkpt lat="47.62012" lon="5.90677">
        <ele>199.2998</ele>
        <time>2026-05-16T12:57:55+02:00</time>
      </trkpt>
      <trkpt lat="47.62015" lon="5.90685">
        <ele>199.2998</ele>
        <time>2026-05-16T12:57:56+02:00</time>
      </trkpt>
      <trkpt lat="47.62019" lon="5.90694">
        <ele>199.2998</ele>
        <time>2026-05-16T12:57:57+02:00</time>
      </trkpt>
      <trkpt lat="47.62023" lon="5.90703">
        <ele>199.2998</ele>
        <time>2026-05-16T12:57:58+02:00</time>
      </trkpt>
      <trkpt lat="47.62027" lon="5.90711">
        <ele>199.2998</ele>
        <time>2026-05-16T12:57:59+02:00</time>
      </trkpt>
      <trkpt lat="47.62031" lon="5.90719">
        <ele>199.2998</ele>
        <time>2026-05-16T12:58:00+02:00</time>
      </trkpt>
      <trkpt lat="47.62036" lon="5.90726">
        <ele>199.2998</ele>
        <time>2026-05-16T12:58:01+02:00</time>
      </trkpt>
      <trkpt lat="47.6204" lon="5.90733">
        <ele>199.2998</ele>
        <time>2026-05-16T12:58:02+02:00</time>
      </trkpt>
      <trkpt lat="47.62045" lon="5.90741">
        <ele>199.2998</ele>
        <time>2026-05-16T12:58:03+02:00</time>
      </trkpt>
      <trkpt lat="47.6205" lon="5.90748">
        <ele>199.2998</ele>
        <time>2026-05-16T12:58:04+02:00</time>
      </trkpt>
      <trkpt lat="47.62055" lon="5.90755">
        <ele>199.2998</ele>
        <time>2026-05-16T12:58:05+02:00</time>
      </trkpt>
      <trkpt lat="47.6206" lon="5.90763">
        <ele>199.2998</ele>
        <time>2026-05-16T12:58:06+02:00</time>
      </trkpt>
      <trkpt lat="47.62065" lon="5.9077">
        <ele>199.2998</ele>
        <time>2026-05-16T12:58:07+02:00</time>
      </trkpt>
      <trkpt lat="47.6207" lon="5.90776">
        <ele>199.2998</ele>
        <time>2026-05-16T12:58:08+02:00</time>
      </trkpt>
      <trkpt lat="47.62075" lon="5.90783">
        <ele>199.2998</ele>
        <time>2026-05-16T12:58:09+02:00</time>
      </trkpt>
      <trkpt lat="47.6208" lon="5.9079">
        <ele>199.2998</ele>
        <time>2026-05-16T12:58:10+02:00</time>
      </trkpt>
      <trkpt lat="47.62085" lon="5.90797">
        <ele>199.2998</ele>
        <time>2026-05-16T12:58:11+02:00</time>
      </trkpt>
      <trkpt lat="47.6209" lon="5.90804">
        <ele>199.2998</ele>
        <time>2026-05-16T12:58:12+02:00</time>
      </trkpt>
      <trkpt lat="47.62095" lon="5.90811">
        <ele>199.2998</ele>
        <time>2026-05-16T12:58:13+02:00</time>
      </trkpt>
      <trkpt lat="47.621" lon="5.90818">
        <ele>199.2998</ele>
        <time>2026-05-16T12:58:14+02:00</time>
      </trkpt>
      <trkpt lat="47.62105" lon="5.90825">
        <ele>199.2998</ele>
        <time>2026-05-16T12:58:15+02:00</time>
      </trkpt>
      <trkpt lat="47.6211" lon="5.90832">
        <ele>199.2998</ele>
        <time>2026-05-16T12:58:16+02:00</time>
      </trkpt>
      <trkpt lat="47.62115" lon="5.90838">
        <ele>199.2998</ele>
        <time>2026-05-16T12:58:17+02:00</time>
      </trkpt>
      <trkpt lat="47.6212" lon="5.90845">
        <ele>199.2998</ele>
        <time>2026-05-16T12:58:18+02:00</time>
      </trkpt>
      <trkpt lat="47.62124" lon="5.90851">
        <ele>199.2998</ele>
        <time>2026-05-16T12:58:19+02:00</time>
      </trkpt>
      <trkpt lat="47.62129" lon="5.90858">
        <ele>199.2998</ele>
        <time>2026-05-16T12:58:20+02:00</time>
      </trkpt>
      <trkpt lat="47.62134" lon="5.90864">
        <ele>199.2998</ele>
        <time>2026-05-16T12:58:21+02:00</time>
      </trkpt>
      <trkpt lat="47.62139" lon="5.90871">
        <ele>199.2998</ele>
        <time>2026-05-16T12:58:22+02:00</time>
      </trkpt>
      <trkpt lat="47.62144" lon="5.90878">
        <ele>199.2998</ele>
        <time>2026-05-16T12:58:23+02:00</time>
      </trkpt>
      <trkpt lat="47.62149" lon="5.90885">
        <ele>199.2998</ele>
        <time>2026-05-16T12:58:24+02:00</time>
      </trkpt>
      <trkpt lat="47.62154" lon="5.90892">
        <ele>199.2998</ele>
        <time>2026-05-16T12:58:25+02:00</time>
      </trkpt>
      <trkpt lat="47.62156" lon="5.90896">
        <ele>199.2998</ele>
        <time>2026-05-16T12:58:26+02:00</time>
      </trkpt>
      <trkpt lat="47.62164" lon="5.90906">
        <ele>199.2998</ele>
        <time>2026-05-16T12:58:27+02:00</time>
      </trkpt>
      <trkpt lat="47.62168" lon="5.90913">
        <ele>199.2998</ele>
        <time>2026-05-16T12:58:28+02:00</time>
      </trkpt>
      <trkpt lat="47.62173" lon="5.90919">
        <ele>199.2998</ele>
        <time>2026-05-16T12:58:29+02:00</time>
      </trkpt>
      <trkpt lat="47.62178" lon="5.90926">
        <ele>199.2998</ele>
        <time>2026-05-16T12:58:30+02:00</time>
      </trkpt>
      <trkpt lat="47.62184" lon="5.90932">
        <ele>199.2998</ele>
        <time>2026-05-16T12:58:31+02:00</time>
      </trkpt>
      <trkpt lat="47.62189" lon="5.90939">
        <ele>199.2998</ele>
        <time>2026-05-16T12:58:32+02:00</time>
      </trkpt>
      <trkpt lat="47.62194" lon="5.90945">
        <ele>199.2998</ele>
        <time>2026-05-16T12:58:33+02:00</time>
      </trkpt>
      <trkpt lat="47.62199" lon="5.90951">
        <ele>199.2998</ele>
        <time>2026-05-16T12:58:34+02:00</time>
      </trkpt>
      <trkpt lat="47.62205" lon="5.90957">
        <ele>199.2998</ele>
        <time>2026-05-16T12:58:35+02:00</time>
      </trkpt>
      <trkpt lat="47.6221" lon="5.90963">
        <ele>199.2998</ele>
        <time>2026-05-16T12:58:36+02:00</time>
      </trkpt>
      <trkpt lat="47.62216" lon="5.90969">
        <ele>199.2998</ele>
        <time>2026-05-16T12:58:37+02:00</time>
      </trkpt>
      <trkpt lat="47.62221" lon="5.90974">
        <ele>199.2998</ele>
        <time>2026-05-16T12:58:38+02:00</time>
      </trkpt>
      <trkpt lat="47.62227" lon="5.9098">
        <ele>199.2998</ele>
        <time>2026-05-16T12:58:39+02:00</time>
      </trkpt>
      <trkpt lat="47.62233" lon="5.90985">
        <ele>199.2998</ele>
        <time>2026-05-16T12:58:40+02:00</time>
      </trkpt>
      <trkpt lat="47.62238" lon="5.90991">
        <ele>199.2998</ele>
        <time>2026-05-16T12:58:41+02:00</time>
      </trkpt>
      <trkpt lat="47.62244" lon="5.90996">
        <ele>199.2998</ele>
        <time>2026-05-16T12:58:42+02:00</time>
      </trkpt>
      <trkpt lat="47.6225" lon="5.91001">
        <ele>199.2998</ele>
        <time>2026-05-16T12:58:43+02:00</time>
      </trkpt>
      <trkpt lat="47.62255" lon="5.91007">
        <ele>199.2998</ele>
        <time>2026-05-16T12:58:44+02:00</time>
      </trkpt>
      <trkpt lat="47.6226" lon="5.91012">
        <ele>199.2998</ele>
        <time>2026-05-16T12:58:45+02:00</time>
      </trkpt>
      <trkpt lat="47.62266" lon="5.91018">
        <ele>199.2998</ele>
        <time>2026-05-16T12:58:46+02:00</time>
      </trkpt>
      <trkpt lat="47.62271" lon="5.91024">
        <ele>199.2998</ele>
        <time>2026-05-16T12:58:47+02:00</time>
      </trkpt>
      <trkpt lat="47.62274" lon="5.91027">
        <ele>199.2998</ele>
        <time>2026-05-16T12:58:48+02:00</time>
      </trkpt>
      <trkpt lat="47.62282" lon="5.91035">
        <ele>199.2998</ele>
        <time>2026-05-16T12:58:49+02:00</time>
      </trkpt>
      <trkpt lat="47.62288" lon="5.9104">
        <ele>199.2998</ele>
        <time>2026-05-16T12:58:50+02:00</time>
      </trkpt>
      <trkpt lat="47.62293" lon="5.91046">
        <ele>199.2998</ele>
        <time>2026-05-16T12:58:51+02:00</time>
      </trkpt>
      <trkpt lat="47.62295" lon="5.91049">
        <ele>199.2998</ele>
        <time>2026-05-16T12:58:52+02:00</time>
      </trkpt>
      <trkpt lat="47.62303" lon="5.91059">
        <ele>199.2998</ele>
        <time>2026-05-16T12:58:53+02:00</time>
      </trkpt>
      <trkpt lat="47.62308" lon="5.91065">
        <ele>199.2998</ele>
        <time>2026-05-16T12:58:54+02:00</time>
      </trkpt>
      <trkpt lat="47.62313" lon="5.91071">
        <ele>199.2998</ele>
        <time>2026-05-16T12:58:55+02:00</time>
      </trkpt>
      <trkpt lat="47.62318" lon="5.91077">
        <ele>199.2998</ele>
        <time>2026-05-16T12:58:56+02:00</time>
      </trkpt>
      <trkpt lat="47.62323" lon="5.91083">
        <ele>199.2998</ele>
        <time>2026-05-16T12:58:57+02:00</time>
      </trkpt>
      <trkpt lat="47.62328" lon="5.9109">
        <ele>199.2998</ele>
        <time>2026-05-16T12:58:58+02:00</time>
      </trkpt>
      <trkpt lat="47.62333" lon="5.91097">
        <ele>199.2998</ele>
        <time>2026-05-16T12:58:59+02:00</time>
      </trkpt>
      <trkpt lat="47.62338" lon="5.91103">
        <ele>199.2998</ele>
        <time>2026-05-16T12:59:00+02:00</time>
      </trkpt>
      <trkpt lat="47.62343" lon="5.9111">
        <ele>199.2998</ele>
        <time>2026-05-16T12:59:01+02:00</time>
      </trkpt>
      <trkpt lat="47.62348" lon="5.91116">
        <ele>199.2998</ele>
        <time>2026-05-16T12:59:02+02:00</time>
      </trkpt>
      <trkpt lat="47.62353" lon="5.91122">
        <ele>199.2998</ele>
        <time>2026-05-16T12:59:03+02:00</time>
      </trkpt>
      <trkpt lat="47.62358" lon="5.91128">
        <ele>199.2998</ele>
        <time>2026-05-16T12:59:04+02:00</time>
      </trkpt>
      <trkpt lat="47.62362" lon="5.91135">
        <ele>199.2998</ele>
        <time>2026-05-16T12:59:05+02:00</time>
      </trkpt>
      <trkpt lat="47.62367" lon="5.91141">
        <ele>199.2998</ele>
        <time>2026-05-16T12:59:06+02:00</time>
      </trkpt>
      <trkpt lat="47.62372" lon="5.91148">
        <ele>199.2998</ele>
        <time>2026-05-16T12:59:07+02:00</time>
      </trkpt>
      <trkpt lat="47.62377" lon="5.91154">
        <ele>199.2998</ele>
        <time>2026-05-16T12:59:08+02:00</time>
      </trkpt>
      <trkpt lat="47.62381" lon="5.91161">
        <ele>199.2998</ele>
        <time>2026-05-16T12:59:09+02:00</time>
      </trkpt>
      <trkpt lat="47.62386" lon="5.91167">
        <ele>199.2998</ele>
        <time>2026-05-16T12:59:10+02:00</time>
      </trkpt>
      <trkpt lat="47.62391" lon="5.91174">
        <ele>199.2998</ele>
        <time>2026-05-16T12:59:11+02:00</time>
      </trkpt>
      <trkpt lat="47.62396" lon="5.91181">
        <ele>199.2998</ele>
        <time>2026-05-16T12:59:12+02:00</time>
      </trkpt>
      <trkpt lat="47.624" lon="5.91188">
        <ele>199.2998</ele>
        <time>2026-05-16T12:59:13+02:00</time>
      </trkpt>
      <trkpt lat="47.62405" lon="5.91194">
        <ele>199.2998</ele>
        <time>2026-05-16T12:59:14+02:00</time>
      </trkpt>
      <trkpt lat="47.62409" lon="5.91201">
        <ele>199.2998</ele>
        <time>2026-05-16T12:59:15+02:00</time>
      </trkpt>
      <trkpt lat="47.62414" lon="5.91208">
        <ele>199.2998</ele>
        <time>2026-05-16T12:59:16+02:00</time>
      </trkpt>
      <trkpt lat="47.62418" lon="5.91215">
        <ele>199.2998</ele>
        <time>2026-05-16T12:59:17+02:00</time>
      </trkpt>
      <trkpt lat="47.62423" lon="5.91222">
        <ele>199.2998</ele>
        <time>2026-05-16T12:59:18+02:00</time>
      </trkpt>
      <trkpt lat="47.62428" lon="5.91229">
        <ele>199.2998</ele>
        <time>2026-05-16T12:59:19+02:00</time>
      </trkpt>
      <trkpt lat="47.62432" lon="5.91236">
        <ele>199.2998</ele>
        <time>2026-05-16T12:59:20+02:00</time>
      </trkpt>
      <trkpt lat="47.62437" lon="5.91244">
        <ele>199.2998</ele>
        <time>2026-05-16T12:59:21+02:00</time>
      </trkpt>
      <trkpt lat="47.62442" lon="5.91251">
        <ele>199.2998</ele>
        <time>2026-05-16T12:59:22+02:00</time>
      </trkpt>
      <trkpt lat="47.62444" lon="5.91255">
        <ele>199.2998</ele>
        <time>2026-05-16T12:59:23+02:00</time>
      </trkpt>
      <trkpt lat="47.62451" lon="5.91266">
        <ele>199.2998</ele>
        <time>2026-05-16T12:59:24+02:00</time>
      </trkpt>
      <trkpt lat="47.62455" lon="5.91274">
        <ele>199.2998</ele>
        <time>2026-05-16T12:59:25+02:00</time>
      </trkpt>
      <trkpt lat="47.6246" lon="5.91282">
        <ele>199.2998</ele>
        <time>2026-05-16T12:59:26+02:00</time>
      </trkpt>
      <trkpt lat="47.62465" lon="5.91289">
        <ele>199.2998</ele>
        <time>2026-05-16T12:59:27+02:00</time>
      </trkpt>
      <trkpt lat="47.6247" lon="5.91297">
        <ele>199.40039</ele>
        <time>2026-05-16T12:59:28+02:00</time>
      </trkpt>
      <trkpt lat="47.62474" lon="5.91304">
        <ele>199.2998</ele>
        <time>2026-05-16T12:59:29+02:00</time>
      </trkpt>
      <trkpt lat="47.62479" lon="5.91312">
        <ele>199.2998</ele>
        <time>2026-05-16T12:59:30+02:00</time>
      </trkpt>
      <trkpt lat="47.62484" lon="5.9132">
        <ele>199.2998</ele>
        <time>2026-05-16T12:59:31+02:00</time>
      </trkpt>
      <trkpt lat="47.62489" lon="5.91327">
        <ele>199.2998</ele>
        <time>2026-05-16T12:59:32+02:00</time>
      </trkpt>
      <trkpt lat="47.62491" lon="5.91331">
        <ele>199.40039</ele>
        <time>2026-05-16T12:59:33+02:00</time>
      </trkpt>
      <trkpt lat="47.62498" lon="5.91342">
        <ele>199.2998</ele>
        <time>2026-05-16T12:59:34+02:00</time>
      </trkpt>
      <trkpt lat="47.62503" lon="5.9135">
        <ele>199.2998</ele>
        <time>2026-05-16T12:59:35+02:00</time>
      </trkpt>
      <trkpt lat="47.62507" lon="5.91357">
        <ele>199.2998</ele>
        <time>2026-05-16T12:59:36+02:00</time>
      </trkpt>
      <trkpt lat="47.62512" lon="5.91364">
        <ele>199.2998</ele>
        <time>2026-05-16T12:59:37+02:00</time>
      </trkpt>
      <trkpt lat="47.62517" lon="5.91369">
        <ele>199.2998</ele>
        <time>2026-05-16T12:59:38+02:00</time>
      </trkpt>
      <trkpt lat="47.62523" lon="5.91374">
        <ele>199.2998</ele>
        <time>2026-05-16T12:59:39+02:00</time>
      </trkpt>
      <trkpt lat="47.62529" lon="5.91378">
        <ele>199.2998</ele>
        <time>2026-05-16T12:59:40+02:00</time>
      </trkpt>
      <trkpt lat="47.62534" lon="5.91383">
        <ele>199.2998</ele>
        <time>2026-05-16T12:59:41+02:00</time>
      </trkpt>
      <trkpt lat="47.62539" lon="5.9139">
        <ele>199.2998</ele>
        <time>2026-05-16T12:59:42+02:00</time>
      </trkpt>
      <trkpt lat="47.62544" lon="5.91397">
        <ele>199.2998</ele>
        <time>2026-05-16T12:59:43+02:00</time>
      </trkpt>
      <trkpt lat="47.62549" lon="5.91404">
        <ele>199.2998</ele>
        <time>2026-05-16T12:59:44+02:00</time>
      </trkpt>
      <trkpt lat="47.62553" lon="5.91411">
        <ele>199.2998</ele>
        <time>2026-05-16T12:59:45+02:00</time>
      </trkpt>
      <trkpt lat="47.62557" lon="5.91418">
        <ele>199.2998</ele>
        <time>2026-05-16T12:59:46+02:00</time>
      </trkpt>
      <trkpt lat="47.62562" lon="5.91425">
        <ele>199.2998</ele>
        <time>2026-05-16T12:59:47+02:00</time>
      </trkpt>
      <trkpt lat="47.62566" lon="5.91432">
        <ele>199.2998</ele>
        <time>2026-05-16T12:59:48+02:00</time>
      </trkpt>
      <trkpt lat="47.6257" lon="5.91438">
        <ele>199.2998</ele>
        <time>2026-05-16T12:59:49+02:00</time>
      </trkpt>
      <trkpt lat="47.62575" lon="5.91445">
        <ele>199.2998</ele>
        <time>2026-05-16T12:59:50+02:00</time>
      </trkpt>
      <trkpt lat="47.62579" lon="5.91452">
        <ele>199.2998</ele>
        <time>2026-05-16T12:59:51+02:00</time>
      </trkpt>
      <trkpt lat="47.62583" lon="5.91458">
        <ele>199.2998</ele>
        <time>2026-05-16T12:59:52+02:00</time>
      </trkpt>
      <trkpt lat="47.62587" lon="5.91465">
        <ele>199.2002</ele>
        <time>2026-05-16T12:59:53+02:00</time>
      </trkpt>
      <trkpt lat="47.62591" lon="5.91472">
        <ele>199.2998</ele>
        <time>2026-05-16T12:59:54+02:00</time>
      </trkpt>
      <trkpt lat="47.62595" lon="5.91479">
        <ele>199.2998</ele>
        <time>2026-05-16T12:59:55+02:00</time>
      </trkpt>
      <trkpt lat="47.62599" lon="5.91486">
        <ele>199.2998</ele>
        <time>2026-05-16T12:59:56+02:00</time>
      </trkpt>
      <trkpt lat="47.62604" lon="5.91493">
        <ele>199.2002</ele>
        <time>2026-05-16T12:59:57+02:00</time>
      </trkpt>
      <trkpt lat="47.62608" lon="5.915">
        <ele>199.2002</ele>
        <time>2026-05-16T12:59:58+02:00</time>
      </trkpt>
      <trkpt lat="47.62612" lon="5.91507">
        <ele>199.2998</ele>
        <time>2026-05-16T12:59:59+02:00</time>
      </trkpt>
      <trkpt lat="47.62616" lon="5.91513">
        <ele>199.2998</ele>
        <time>2026-05-16T13:00:00+02:00</time>
      </trkpt>
      <trkpt lat="47.62621" lon="5.9152">
        <ele>199.2998</ele>
        <time>2026-05-16T13:00:01+02:00</time>
      </trkpt>
      <trkpt lat="47.62625" lon="5.91527">
        <ele>199.2002</ele>
        <time>2026-05-16T13:00:02+02:00</time>
      </trkpt>
      <trkpt lat="47.62629" lon="5.91533">
        <ele>199.2002</ele>
        <time>2026-05-16T13:00:03+02:00</time>
      </trkpt>
      <trkpt lat="47.62633" lon="5.9154">
        <ele>199.2998</ele>
        <time>2026-05-16T13:00:04+02:00</time>
      </trkpt>
      <trkpt lat="47.62637" lon="5.91546">
        <ele>199.2998</ele>
        <time>2026-05-16T13:00:05+02:00</time>
      </trkpt>
      <trkpt lat="47.62641" lon="5.91552">
        <ele>199.2998</ele>
        <time>2026-05-16T13:00:06+02:00</time>
      </trkpt>
      <trkpt lat="47.62644" lon="5.91557">
        <ele>199.2998</ele>
        <time>2026-05-16T13:00:07+02:00</time>
      </trkpt>
      <trkpt lat="47.62647" lon="5.91563">
        <ele>199.2998</ele>
        <time>2026-05-16T13:00:08+02:00</time>
      </trkpt>
      <trkpt lat="47.6265" lon="5.91569">
        <ele>199.2002</ele>
        <time>2026-05-16T13:00:09+02:00</time>
      </trkpt>
      <trkpt lat="47.62653" lon="5.91575">
        <ele>199.2998</ele>
        <time>2026-05-16T13:00:10+02:00</time>
      </trkpt>
      <trkpt lat="47.62656" lon="5.91581">
        <ele>199.2998</ele>
        <time>2026-05-16T13:00:11+02:00</time>
      </trkpt>
      <trkpt lat="47.62659" lon="5.91587">
        <ele>199.2998</ele>
        <time>2026-05-16T13:00:12+02:00</time>
      </trkpt>
      <trkpt lat="47.62662" lon="5.91592">
        <ele>199.2002</ele>
        <time>2026-05-16T13:00:13+02:00</time>
      </trkpt>
      <trkpt lat="47.62666" lon="5.91597">
        <ele>199.2998</ele>
        <time>2026-05-16T13:00:14+02:00</time>
      </trkpt>
      <trkpt lat="47.6267" lon="5.91602">
        <ele>199.2998</ele>
        <time>2026-05-16T13:00:15+02:00</time>
      </trkpt>
      <trkpt lat="47.62674" lon="5.91607">
        <ele>199.2998</ele>
        <time>2026-05-16T13:00:16+02:00</time>
      </trkpt>
      <trkpt lat="47.62678" lon="5.91611">
        <ele>199.2998</ele>
        <time>2026-05-16T13:00:17+02:00</time>
      </trkpt>
      <trkpt lat="47.62682" lon="5.91616">
        <ele>199.2998</ele>
        <time>2026-05-16T13:00:18+02:00</time>
      </trkpt>
      <trkpt lat="47.62687" lon="5.91621">
        <ele>199.2998</ele>
        <time>2026-05-16T13:00:19+02:00</time>
      </trkpt>
      <trkpt lat="47.62692" lon="5.91625">
        <ele>199.2998</ele>
        <time>2026-05-16T13:00:20+02:00</time>
      </trkpt>
      <trkpt lat="47.62697" lon="5.91629">
        <ele>199.2998</ele>
        <time>2026-05-16T13:00:21+02:00</time>
      </trkpt>
      <trkpt lat="47.62702" lon="5.91633">
        <ele>199.2998</ele>
        <time>2026-05-16T13:00:22+02:00</time>
      </trkpt>
      <trkpt lat="47.62707" lon="5.91637">
        <ele>199.2998</ele>
        <time>2026-05-16T13:00:23+02:00</time>
      </trkpt>
      <trkpt lat="47.62713" lon="5.91641">
        <ele>199.2998</ele>
        <time>2026-05-16T13:00:24+02:00</time>
      </trkpt>
      <trkpt lat="47.62718" lon="5.91645">
        <ele>199.2998</ele>
        <time>2026-05-16T13:00:25+02:00</time>
      </trkpt>
      <trkpt lat="47.62723" lon="5.91648">
        <ele>199.2998</ele>
        <time>2026-05-16T13:00:26+02:00</time>
      </trkpt>
      <trkpt lat="47.62729" lon="5.91652">
        <ele>199.2002</ele>
        <time>2026-05-16T13:00:27+02:00</time>
      </trkpt>
      <trkpt lat="47.62734" lon="5.91655">
        <ele>199.2002</ele>
        <time>2026-05-16T13:00:28+02:00</time>
      </trkpt>
      <trkpt lat="47.6274" lon="5.91657">
        <ele>199.2998</ele>
        <time>2026-05-16T13:00:29+02:00</time>
      </trkpt>
      <trkpt lat="47.62746" lon="5.9166">
        <ele>199.2002</ele>
        <time>2026-05-16T13:00:30+02:00</time>
      </trkpt>
      <trkpt lat="47.62752" lon="5.91662">
        <ele>199.2002</ele>
        <time>2026-05-16T13:00:31+02:00</time>
      </trkpt>
      <trkpt lat="47.62758" lon="5.91665">
        <ele>199.2998</ele>
        <time>2026-05-16T13:00:32+02:00</time>
      </trkpt>
      <trkpt lat="47.62764" lon="5.91667">
        <ele>199.2998</ele>
        <time>2026-05-16T13:00:33+02:00</time>
      </trkpt>
      <trkpt lat="47.62769" lon="5.9167">
        <ele>199.2998</ele>
        <time>2026-05-16T13:00:34+02:00</time>
      </trkpt>
      <trkpt lat="47.62773" lon="5.91671">
        <ele>199.2998</ele>
        <time>2026-05-16T13:00:35+02:00</time>
      </trkpt>
      <trkpt lat="47.62781" lon="5.91675">
        <ele>199.2002</ele>
        <time>2026-05-16T13:00:36+02:00</time>
      </trkpt>
      <trkpt lat="47.62787" lon="5.91679">
        <ele>199.2002</ele>
        <time>2026-05-16T13:00:37+02:00</time>
      </trkpt>
      <trkpt lat="47.62793" lon="5.91682">
        <ele>199.2002</ele>
        <time>2026-05-16T13:00:38+02:00</time>
      </trkpt>
      <trkpt lat="47.62798" lon="5.91685">
        <ele>199.2998</ele>
        <time>2026-05-16T13:00:39+02:00</time>
      </trkpt>
      <trkpt lat="47.62803" lon="5.91688">
        <ele>199.2998</ele>
        <time>2026-05-16T13:00:40+02:00</time>
      </trkpt>
      <trkpt lat="47.62808" lon="5.9169">
        <ele>199.40039</ele>
        <time>2026-05-16T13:00:41+02:00</time>
      </trkpt>
      <trkpt lat="47.62813" lon="5.91692">
        <ele>199.40039</ele>
        <time>2026-05-16T13:00:42+02:00</time>
      </trkpt>
      <trkpt lat="47.62818" lon="5.91693">
        <ele>199.40039</ele>
        <time>2026-05-16T13:00:43+02:00</time>
      </trkpt>
      <trkpt lat="47.62824" lon="5.91695">
        <ele>199.2998</ele>
        <time>2026-05-16T13:00:44+02:00</time>
      </trkpt>
      <trkpt lat="47.62827" lon="5.91696">
        <ele>199.2998</ele>
        <time>2026-05-16T13:00:45+02:00</time>
      </trkpt>
      <trkpt lat="47.62835" lon="5.91699">
        <ele>199.2998</ele>
        <time>2026-05-16T13:00:46+02:00</time>
      </trkpt>
      <trkpt lat="47.6284" lon="5.917">
        <ele>199.40039</ele>
        <time>2026-05-16T13:00:47+02:00</time>
      </trkpt>
      <trkpt lat="47.62846" lon="5.91702">
        <ele>199.40039</ele>
        <time>2026-05-16T13:00:48+02:00</time>
      </trkpt>
      <trkpt lat="47.62852" lon="5.91704">
        <ele>199.40039</ele>
        <time>2026-05-16T13:00:49+02:00</time>
      </trkpt>
      <trkpt lat="47.62858" lon="5.91705">
        <ele>199.40039</ele>
        <time>2026-05-16T13:00:50+02:00</time>
      </trkpt>
      <trkpt lat="47.62864" lon="5.91706">
        <ele>199.40039</ele>
        <time>2026-05-16T13:00:51+02:00</time>
      </trkpt>
      <trkpt lat="47.62867" lon="5.91707">
        <ele>199.40039</ele>
        <time>2026-05-16T13:00:52+02:00</time>
      </trkpt>
      <trkpt lat="47.62876" lon="5.91709">
        <ele>199.7002</ele>
        <time>2026-05-16T13:00:53+02:00</time>
      </trkpt>
      <trkpt lat="47.62882" lon="5.91711">
        <ele>199.60059</ele>
        <time>2026-05-16T13:00:54+02:00</time>
      </trkpt>
      <trkpt lat="47.62888" lon="5.91713">
        <ele>199.40039</ele>
        <time>2026-05-16T13:00:55+02:00</time>
      </trkpt>
      <trkpt lat="47.62895" lon="5.91716">
        <ele>199.10059</ele>
        <time>2026-05-16T13:00:56+02:00</time>
      </trkpt>
      <trkpt lat="47.62901" lon="5.91718">
        <ele>199.2002</ele>
        <time>2026-05-16T13:00:57+02:00</time>
      </trkpt>
      <trkpt lat="47.62907" lon="5.9172">
        <ele>199.2002</ele>
        <time>2026-05-16T13:00:58+02:00</time>
      </trkpt>
      <trkpt lat="47.62913" lon="5.91723">
        <ele>199.2998</ele>
        <time>2026-05-16T13:00:59+02:00</time>
      </trkpt>
      <trkpt lat="47.62919" lon="5.91725">
        <ele>199.2998</ele>
        <time>2026-05-16T13:01:00+02:00</time>
      </trkpt>
      <trkpt lat="47.62926" lon="5.91727">
        <ele>199.5</ele>
        <time>2026-05-16T13:01:01+02:00</time>
      </trkpt>
      <trkpt lat="47.62932" lon="5.91729">
        <ele>199.5</ele>
        <time>2026-05-16T13:01:02+02:00</time>
      </trkpt>
      <trkpt lat="47.62938" lon="5.91731">
        <ele>199.5</ele>
        <time>2026-05-16T13:01:03+02:00</time>
      </trkpt>
      <trkpt lat="47.62945" lon="5.91733">
        <ele>199.5</ele>
        <time>2026-05-16T13:01:04+02:00</time>
      </trkpt>
      <trkpt lat="47.62951" lon="5.91735">
        <ele>200</ele>
        <time>2026-05-16T13:01:05+02:00</time>
      </trkpt>
      <trkpt lat="47.62958" lon="5.91737">
        <ele>200</ele>
        <time>2026-05-16T13:01:06+02:00</time>
      </trkpt>
      <trkpt lat="47.62965" lon="5.91739">
        <ele>200</ele>
        <time>2026-05-16T13:01:07+02:00</time>
      </trkpt>
      <trkpt lat="47.62971" lon="5.9174">
        <ele>200.10059</ele>
        <time>2026-05-16T13:01:08+02:00</time>
      </trkpt>
      <trkpt lat="47.62977" lon="5.91741">
        <ele>200.10059</ele>
        <time>2026-05-16T13:01:09+02:00</time>
      </trkpt>
      <trkpt lat="47.62984" lon="5.91742">
        <ele>200.2002</ele>
        <time>2026-05-16T13:01:10+02:00</time>
      </trkpt>
      <trkpt lat="47.62991" lon="5.91744">
        <ele>200.7002</ele>
        <time>2026-05-16T13:01:11+02:00</time>
      </trkpt>
      <trkpt lat="47.62997" lon="5.91745">
        <ele>200.7998</ele>
        <time>2026-05-16T13:01:12+02:00</time>
      </trkpt>
      <trkpt lat="47.63004" lon="5.91746">
        <ele>200.7998</ele>
        <time>2026-05-16T13:01:13+02:00</time>
      </trkpt>
      <trkpt lat="47.6301" lon="5.91747">
        <ele>200.90039</ele>
        <time>2026-05-16T13:01:14+02:00</time>
      </trkpt>
      <trkpt lat="47.63017" lon="5.91748">
        <ele>200.90039</ele>
        <time>2026-05-16T13:01:15+02:00</time>
      </trkpt>
      <trkpt lat="47.63024" lon="5.91749">
        <ele>201</ele>
        <time>2026-05-16T13:01:16+02:00</time>
      </trkpt>
      <trkpt lat="47.6303" lon="5.91749">
        <ele>201</ele>
        <time>2026-05-16T13:01:17+02:00</time>
      </trkpt>
      <trkpt lat="47.63036" lon="5.9175">
        <ele>201</ele>
        <time>2026-05-16T13:01:18+02:00</time>
      </trkpt>
      <trkpt lat="47.63043" lon="5.9175">
        <ele>201</ele>
        <time>2026-05-16T13:01:19+02:00</time>
      </trkpt>
      <trkpt lat="47.6305" lon="5.91751">
        <ele>201.10059</ele>
        <time>2026-05-16T13:01:20+02:00</time>
      </trkpt>
      <trkpt lat="47.63057" lon="5.91751">
        <ele>201</ele>
        <time>2026-05-16T13:01:21+02:00</time>
      </trkpt>
      <trkpt lat="47.63063" lon="5.91751">
        <ele>200.7998</ele>
        <time>2026-05-16T13:01:22+02:00</time>
      </trkpt>
      <trkpt lat="47.6307" lon="5.91751">
        <ele>199.90039</ele>
        <time>2026-05-16T13:01:23+02:00</time>
      </trkpt>
      <trkpt lat="47.63077" lon="5.91751">
        <ele>199.5</ele>
        <time>2026-05-16T13:01:24+02:00</time>
      </trkpt>
      <trkpt lat="47.63083" lon="5.91751">
        <ele>199.40039</ele>
        <time>2026-05-16T13:01:25+02:00</time>
      </trkpt>
      <trkpt lat="47.6309" lon="5.9175">
        <ele>199.40039</ele>
        <time>2026-05-16T13:01:26+02:00</time>
      </trkpt>
      <trkpt lat="47.63097" lon="5.9175">
        <ele>199.40039</ele>
        <time>2026-05-16T13:01:27+02:00</time>
      </trkpt>
      <trkpt lat="47.63104" lon="5.9175">
        <ele>199.40039</ele>
        <time>2026-05-16T13:01:28+02:00</time>
      </trkpt>
      <trkpt lat="47.6311" lon="5.91749">
        <ele>199.40039</ele>
        <time>2026-05-16T13:01:29+02:00</time>
      </trkpt>
      <trkpt lat="47.63117" lon="5.91748">
        <ele>199.40039</ele>
        <time>2026-05-16T13:01:30+02:00</time>
      </trkpt>
      <trkpt lat="47.63124" lon="5.91748">
        <ele>199.40039</ele>
        <time>2026-05-16T13:01:31+02:00</time>
      </trkpt>
      <trkpt lat="47.63131" lon="5.91747">
        <ele>199.5</ele>
        <time>2026-05-16T13:01:32+02:00</time>
      </trkpt>
      <trkpt lat="47.63138" lon="5.91746">
        <ele>199.5</ele>
        <time>2026-05-16T13:01:33+02:00</time>
      </trkpt>
      <trkpt lat="47.63144" lon="5.91744">
        <ele>199.5</ele>
        <time>2026-05-16T13:01:34+02:00</time>
      </trkpt>
      <trkpt lat="47.63151" lon="5.91743">
        <ele>199.5</ele>
        <time>2026-05-16T13:01:35+02:00</time>
      </trkpt>
      <trkpt lat="47.63157" lon="5.91742">
        <ele>199.2998</ele>
        <time>2026-05-16T13:01:36+02:00</time>
      </trkpt>
      <trkpt lat="47.63161" lon="5.91741">
        <ele>199.2998</ele>
        <time>2026-05-16T13:01:37+02:00</time>
      </trkpt>
      <trkpt lat="47.6317" lon="5.91739">
        <ele>199.2998</ele>
        <time>2026-05-16T13:01:38+02:00</time>
      </trkpt>
      <trkpt lat="47.63176" lon="5.91738">
        <ele>199.2998</ele>
        <time>2026-05-16T13:01:39+02:00</time>
      </trkpt>
      <trkpt lat="47.63183" lon="5.91737">
        <ele>199.2998</ele>
        <time>2026-05-16T13:01:40+02:00</time>
      </trkpt>
      <trkpt lat="47.63189" lon="5.91736">
        <ele>199.40039</ele>
        <time>2026-05-16T13:01:41+02:00</time>
      </trkpt>
      <trkpt lat="47.63195" lon="5.91735">
        <ele>199.40039</ele>
        <time>2026-05-16T13:01:42+02:00</time>
      </trkpt>
      <trkpt lat="47.63201" lon="5.91733">
        <ele>199.2998</ele>
        <time>2026-05-16T13:01:43+02:00</time>
      </trkpt>
      <trkpt lat="47.63207" lon="5.91732">
        <ele>199.2002</ele>
        <time>2026-05-16T13:01:44+02:00</time>
      </trkpt>
      <trkpt lat="47.63213" lon="5.9173">
        <ele>199.2002</ele>
        <time>2026-05-16T13:01:45+02:00</time>
      </trkpt>
      <trkpt lat="47.63218" lon="5.91728">
        <ele>199.2998</ele>
        <time>2026-05-16T13:01:46+02:00</time>
      </trkpt>
      <trkpt lat="47.63224" lon="5.91726">
        <ele>199.5</ele>
        <time>2026-05-16T13:01:47+02:00</time>
      </trkpt>
      <trkpt lat="47.6323" lon="5.91723">
        <ele>199.7998</ele>
        <time>2026-05-16T13:01:48+02:00</time>
      </trkpt>
      <trkpt lat="47.63235" lon="5.91721">
        <ele>200</ele>
        <time>2026-05-16T13:01:49+02:00</time>
      </trkpt>
      <trkpt lat="47.6324" lon="5.91719">
        <ele>200.10059</ele>
        <time>2026-05-16T13:01:50+02:00</time>
      </trkpt>
      <trkpt lat="47.63244" lon="5.91718">
        <ele>200.2002</ele>
        <time>2026-05-16T13:01:51+02:00</time>
      </trkpt>
      <trkpt lat="47.63249" lon="5.91717">
        <ele>200.2002</ele>
        <time>2026-05-16T13:01:52+02:00</time>
      </trkpt>
      <trkpt lat="47.63252" lon="5.91716">
        <ele>199.7998</ele>
        <time>2026-05-16T13:01:53+02:00</time>
      </trkpt>
      <trkpt lat="47.63256" lon="5.91716">
        <ele>199.7998</ele>
        <time>2026-05-16T13:01:54+02:00</time>
      </trkpt>
      <trkpt lat="47.63258" lon="5.91715">
        <ele>199.7998</ele>
        <time>2026-05-16T13:01:55+02:00</time>
      </trkpt>
      <trkpt lat="47.63262" lon="5.91715">
        <ele>199.7998</ele>
        <time>2026-05-16T13:01:56+02:00</time>
      </trkpt>
      <trkpt lat="47.63264" lon="5.91714">
        <ele>199.7998</ele>
        <time>2026-05-16T13:01:57+02:00</time>
      </trkpt>
      <trkpt lat="47.63266" lon="5.91714">
        <ele>199.7998</ele>
        <time>2026-05-16T13:01:58+02:00</time>
      </trkpt>
      <trkpt lat="47.63268" lon="5.91714">
        <ele>199.7998</ele>
        <time>2026-05-16T13:01:59+02:00</time>
      </trkpt>
      <trkpt lat="47.63269" lon="5.91714">
        <ele>199.7998</ele>
        <time>2026-05-16T13:02:00+02:00</time>
      </trkpt>
      <trkpt lat="47.63271" lon="5.91715">
        <ele>199.7998</ele>
        <time>2026-05-16T13:02:01+02:00</time>
      </trkpt>
      <trkpt lat="47.63272" lon="5.91715">
        <ele>199.7998</ele>
        <time>2026-05-16T13:02:02+02:00</time>
      </trkpt>
      <trkpt lat="47.63273" lon="5.91714">
        <ele>199.7998</ele>
        <time>2026-05-16T13:02:03+02:00</time>
      </trkpt>
      <trkpt lat="47.63273" lon="5.91714">
        <ele>199.7998</ele>
        <time>2026-05-16T13:02:04+02:00</time>
      </trkpt>
      <trkpt lat="47.63273" lon="5.91714">
        <ele>199.7998</ele>
        <time>2026-05-16T13:02:05+02:00</time>
      </trkpt>
      <trkpt lat="47.63273" lon="5.91714">
        <ele>199.7998</ele>
        <time>2026-05-16T13:02:06+02:00</time>
      </trkpt>
      <trkpt lat="47.63273" lon="5.91714">
        <ele>199.7998</ele>
        <time>2026-05-16T13:02:07+02:00</time>
      </trkpt>
      <trkpt lat="47.6329" lon="5.91707">
        <ele>199.40039</ele>
        <time>2026-05-16T13:02:51+02:00</time>
      </trkpt>
      <trkpt lat="47.63295" lon="5.91706">
        <ele>199.40039</ele>
        <time>2026-05-16T13:02:52+02:00</time>
      </trkpt>
      <trkpt lat="47.633" lon="5.91706">
        <ele>199.40039</ele>
        <time>2026-05-16T13:02:53+02:00</time>
      </trkpt>
      <trkpt lat="47.63306" lon="5.91705">
        <ele>199.40039</ele>
        <time>2026-05-16T13:02:54+02:00</time>
      </trkpt>
      <trkpt lat="47.63312" lon="5.91704">
        <ele>199.40039</ele>
        <time>2026-05-16T13:02:55+02:00</time>
      </trkpt>
      <trkpt lat="47.63317" lon="5.91702">
        <ele>199.2998</ele>
        <time>2026-05-16T13:02:56+02:00</time>
      </trkpt>
      <trkpt lat="47.63323" lon="5.91702">
        <ele>199.2998</ele>
        <time>2026-05-16T13:02:57+02:00</time>
      </trkpt>
      <trkpt lat="47.63329" lon="5.91701">
        <ele>199.2002</ele>
        <time>2026-05-16T13:02:58+02:00</time>
      </trkpt>
      <trkpt lat="47.63336" lon="5.91701">
        <ele>199.2002</ele>
        <time>2026-05-16T13:02:59+02:00</time>
      </trkpt>
      <trkpt lat="47.63342" lon="5.91701">
        <ele>199.2002</ele>
        <time>2026-05-16T13:03:00+02:00</time>
      </trkpt>
      <trkpt lat="47.63348" lon="5.91702">
        <ele>199.2002</ele>
        <time>2026-05-16T13:03:01+02:00</time>
      </trkpt>
      <trkpt lat="47.63354" lon="5.91702">
        <ele>199.2002</ele>
        <time>2026-05-16T13:03:02+02:00</time>
      </trkpt>
      <trkpt lat="47.6336" lon="5.91701">
        <ele>199.2002</ele>
        <time>2026-05-16T13:03:03+02:00</time>
      </trkpt>
      <trkpt lat="47.63367" lon="5.91699">
        <ele>199.2002</ele>
        <time>2026-05-16T13:03:04+02:00</time>
      </trkpt>
      <trkpt lat="47.63373" lon="5.91697">
        <ele>199.2002</ele>
        <time>2026-05-16T13:03:05+02:00</time>
      </trkpt>
      <trkpt lat="47.63379" lon="5.91695">
        <ele>199.2002</ele>
        <time>2026-05-16T13:03:06+02:00</time>
      </trkpt>
      <trkpt lat="47.63385" lon="5.91693">
        <ele>199.2002</ele>
        <time>2026-05-16T13:03:07+02:00</time>
      </trkpt>
      <trkpt lat="47.63391" lon="5.9169">
        <ele>199.2998</ele>
        <time>2026-05-16T13:03:08+02:00</time>
      </trkpt>
      <trkpt lat="47.63397" lon="5.91688">
        <ele>199.2998</ele>
        <time>2026-05-16T13:03:09+02:00</time>
      </trkpt>
      <trkpt lat="47.63403" lon="5.91686">
        <ele>199.2998</ele>
        <time>2026-05-16T13:03:10+02:00</time>
      </trkpt>
      <trkpt lat="47.63409" lon="5.91683">
        <ele>199.2998</ele>
        <time>2026-05-16T13:03:11+02:00</time>
      </trkpt>
      <trkpt lat="47.63415" lon="5.91681">
        <ele>199.40039</ele>
        <time>2026-05-16T13:03:12+02:00</time>
      </trkpt>
      <trkpt lat="47.63421" lon="5.91679">
        <ele>199.40039</ele>
        <time>2026-05-16T13:03:13+02:00</time>
      </trkpt>
      <trkpt lat="47.63427" lon="5.91676">
        <ele>199.40039</ele>
        <time>2026-05-16T13:03:14+02:00</time>
      </trkpt>
      <trkpt lat="47.63434" lon="5.91674">
        <ele>199.2998</ele>
        <time>2026-05-16T13:03:15+02:00</time>
      </trkpt>
      <trkpt lat="47.6344" lon="5.91671">
        <ele>199.2002</ele>
        <time>2026-05-16T13:03:16+02:00</time>
      </trkpt>
      <trkpt lat="47.63446" lon="5.91669">
        <ele>199.2002</ele>
        <time>2026-05-16T13:03:17+02:00</time>
      </trkpt>
      <trkpt lat="47.63452" lon="5.91667">
        <ele>199.2002</ele>
        <time>2026-05-16T13:03:18+02:00</time>
      </trkpt>
      <trkpt lat="47.63458" lon="5.91665">
        <ele>199.2002</ele>
        <time>2026-05-16T13:03:19+02:00</time>
      </trkpt>
      <trkpt lat="47.63465" lon="5.91663">
        <ele>199.2002</ele>
        <time>2026-05-16T13:03:20+02:00</time>
      </trkpt>
      <trkpt lat="47.63471" lon="5.91661">
        <ele>199.2002</ele>
        <time>2026-05-16T13:03:21+02:00</time>
      </trkpt>
      <trkpt lat="47.63478" lon="5.91659">
        <ele>199.2002</ele>
        <time>2026-05-16T13:03:22+02:00</time>
      </trkpt>
      <trkpt lat="47.63485" lon="5.91658">
        <ele>199.2002</ele>
        <time>2026-05-16T13:03:23+02:00</time>
      </trkpt>
      <trkpt lat="47.63492" lon="5.91657">
        <ele>199.10059</ele>
        <time>2026-05-16T13:03:24+02:00</time>
      </trkpt>
      <trkpt lat="47.63499" lon="5.91657">
        <ele>199.10059</ele>
        <time>2026-05-16T13:03:25+02:00</time>
      </trkpt>
      <trkpt lat="47.63506" lon="5.91657">
        <ele>199.10059</ele>
        <time>2026-05-16T13:03:26+02:00</time>
      </trkpt>
      <trkpt lat="47.63513" lon="5.91657">
        <ele>199.10059</ele>
        <time>2026-05-16T13:03:27+02:00</time>
      </trkpt>
      <trkpt lat="47.63519" lon="5.91658">
        <ele>199.10059</ele>
        <time>2026-05-16T13:03:28+02:00</time>
      </trkpt>
      <trkpt lat="47.63526" lon="5.91659">
        <ele>199.10059</ele>
        <time>2026-05-16T13:03:29+02:00</time>
      </trkpt>
      <trkpt lat="47.63533" lon="5.91661">
        <ele>199.10059</ele>
        <time>2026-05-16T13:03:30+02:00</time>
      </trkpt>
      <trkpt lat="47.6354" lon="5.91663">
        <ele>199.10059</ele>
        <time>2026-05-16T13:03:31+02:00</time>
      </trkpt>
      <trkpt lat="47.63547" lon="5.91666">
        <ele>199.2002</ele>
        <time>2026-05-16T13:03:32+02:00</time>
      </trkpt>
      <trkpt lat="47.63554" lon="5.91668">
        <ele>199.2002</ele>
        <time>2026-05-16T13:03:33+02:00</time>
      </trkpt>
      <trkpt lat="47.63561" lon="5.91671">
        <ele>199.2998</ele>
        <time>2026-05-16T13:03:34+02:00</time>
      </trkpt>
      <trkpt lat="47.63567" lon="5.91675">
        <ele>199.5</ele>
        <time>2026-05-16T13:03:35+02:00</time>
      </trkpt>
      <trkpt lat="47.63574" lon="5.91679">
        <ele>199.40039</ele>
        <time>2026-05-16T13:03:36+02:00</time>
      </trkpt>
      <trkpt lat="47.63577" lon="5.91681">
        <ele>199.40039</ele>
        <time>2026-05-16T13:03:37+02:00</time>
      </trkpt>
      <trkpt lat="47.63587" lon="5.91688">
        <ele>199.2998</ele>
        <time>2026-05-16T13:03:38+02:00</time>
      </trkpt>
      <trkpt lat="47.63592" lon="5.91692">
        <ele>199.2002</ele>
        <time>2026-05-16T13:03:39+02:00</time>
      </trkpt>
      <trkpt lat="47.63598" lon="5.91697">
        <ele>199.2998</ele>
        <time>2026-05-16T13:03:40+02:00</time>
      </trkpt>
      <trkpt lat="47.63604" lon="5.91701">
        <ele>199.60059</ele>
        <time>2026-05-16T13:03:41+02:00</time>
      </trkpt>
      <trkpt lat="47.63609" lon="5.91706">
        <ele>199.7998</ele>
        <time>2026-05-16T13:03:42+02:00</time>
      </trkpt>
      <trkpt lat="47.63615" lon="5.91711">
        <ele>200.10059</ele>
        <time>2026-05-16T13:03:43+02:00</time>
      </trkpt>
      <trkpt lat="47.63621" lon="5.91717">
        <ele>200.2998</ele>
        <time>2026-05-16T13:03:44+02:00</time>
      </trkpt>
      <trkpt lat="47.63626" lon="5.91722">
        <ele>200.5</ele>
        <time>2026-05-16T13:03:45+02:00</time>
      </trkpt>
      <trkpt lat="47.63631" lon="5.91728">
        <ele>200.7998</ele>
        <time>2026-05-16T13:03:46+02:00</time>
      </trkpt>
      <trkpt lat="47.63637" lon="5.91733">
        <ele>201.2002</ele>
        <time>2026-05-16T13:03:47+02:00</time>
      </trkpt>
      <trkpt lat="47.63641" lon="5.91739">
        <ele>201.2002</ele>
        <time>2026-05-16T13:03:48+02:00</time>
      </trkpt>
      <trkpt lat="47.63646" lon="5.91745">
        <ele>201.2998</ele>
        <time>2026-05-16T13:03:49+02:00</time>
      </trkpt>
      <trkpt lat="47.63651" lon="5.91751">
        <ele>201.2998</ele>
        <time>2026-05-16T13:03:50+02:00</time>
      </trkpt>
      <trkpt lat="47.63656" lon="5.91758">
        <ele>201.2998</ele>
        <time>2026-05-16T13:03:51+02:00</time>
      </trkpt>
      <trkpt lat="47.63661" lon="5.91764">
        <ele>201.2998</ele>
        <time>2026-05-16T13:03:52+02:00</time>
      </trkpt>
      <trkpt lat="47.63665" lon="5.91771">
        <ele>201.2998</ele>
        <time>2026-05-16T13:03:53+02:00</time>
      </trkpt>
      <trkpt lat="47.6367" lon="5.91777">
        <ele>201.2998</ele>
        <time>2026-05-16T13:03:54+02:00</time>
      </trkpt>
      <trkpt lat="47.63674" lon="5.91785">
        <ele>201.2998</ele>
        <time>2026-05-16T13:03:55+02:00</time>
      </trkpt>
      <trkpt lat="47.63679" lon="5.91791">
        <ele>201.2998</ele>
        <time>2026-05-16T13:03:56+02:00</time>
      </trkpt>
      <trkpt lat="47.63683" lon="5.91798">
        <ele>201.2998</ele>
        <time>2026-05-16T13:03:57+02:00</time>
      </trkpt>
      <trkpt lat="47.63687" lon="5.91806">
        <ele>201.2998</ele>
        <time>2026-05-16T13:03:58+02:00</time>
      </trkpt>
      <trkpt lat="47.63691" lon="5.91813">
        <ele>201.2998</ele>
        <time>2026-05-16T13:03:59+02:00</time>
      </trkpt>
      <trkpt lat="47.63696" lon="5.91821">
        <ele>201.2998</ele>
        <time>2026-05-16T13:04:00+02:00</time>
      </trkpt>
      <trkpt lat="47.63699" lon="5.91829">
        <ele>201.2998</ele>
        <time>2026-05-16T13:04:01+02:00</time>
      </trkpt>
      <trkpt lat="47.63704" lon="5.91837">
        <ele>201.2998</ele>
        <time>2026-05-16T13:04:02+02:00</time>
      </trkpt>
      <trkpt lat="47.63707" lon="5.91845">
        <ele>201.2998</ele>
        <time>2026-05-16T13:04:03+02:00</time>
      </trkpt>
      <trkpt lat="47.63711" lon="5.91853">
        <ele>201.2998</ele>
        <time>2026-05-16T13:04:04+02:00</time>
      </trkpt>
      <trkpt lat="47.63714" lon="5.91862">
        <ele>201.2998</ele>
        <time>2026-05-16T13:04:05+02:00</time>
      </trkpt>
      <trkpt lat="47.63717" lon="5.9187">
        <ele>201.2998</ele>
        <time>2026-05-16T13:04:06+02:00</time>
      </trkpt>
      <trkpt lat="47.63721" lon="5.91878">
        <ele>201.2998</ele>
        <time>2026-05-16T13:04:07+02:00</time>
      </trkpt>
      <trkpt lat="47.63724" lon="5.91886">
        <ele>201.2998</ele>
        <time>2026-05-16T13:04:08+02:00</time>
      </trkpt>
      <trkpt lat="47.63727" lon="5.91894">
        <ele>201.2998</ele>
        <time>2026-05-16T13:04:09+02:00</time>
      </trkpt>
      <trkpt lat="47.6373" lon="5.91903">
        <ele>201.2998</ele>
        <time>2026-05-16T13:04:10+02:00</time>
      </trkpt>
      <trkpt lat="47.63733" lon="5.91911">
        <ele>201.2998</ele>
        <time>2026-05-16T13:04:11+02:00</time>
      </trkpt>
      <trkpt lat="47.63736" lon="5.91919">
        <ele>201.2998</ele>
        <time>2026-05-16T13:04:12+02:00</time>
      </trkpt>
      <trkpt lat="47.6374" lon="5.91928">
        <ele>201.2998</ele>
        <time>2026-05-16T13:04:13+02:00</time>
      </trkpt>
      <trkpt lat="47.63743" lon="5.91936">
        <ele>201.2998</ele>
        <time>2026-05-16T13:04:14+02:00</time>
      </trkpt>
      <trkpt lat="47.63746" lon="5.91944">
        <ele>201.2998</ele>
        <time>2026-05-16T13:04:15+02:00</time>
      </trkpt>
      <trkpt lat="47.63749" lon="5.91952">
        <ele>201.2998</ele>
        <time>2026-05-16T13:04:16+02:00</time>
      </trkpt>
      <trkpt lat="47.63752" lon="5.91961">
        <ele>201.2998</ele>
        <time>2026-05-16T13:04:17+02:00</time>
      </trkpt>
      <trkpt lat="47.63756" lon="5.91969">
        <ele>201.2998</ele>
        <time>2026-05-16T13:04:18+02:00</time>
      </trkpt>
      <trkpt lat="47.63759" lon="5.91977">
        <ele>201.2998</ele>
        <time>2026-05-16T13:04:19+02:00</time>
      </trkpt>
      <trkpt lat="47.63762" lon="5.91985">
        <ele>201.2998</ele>
        <time>2026-05-16T13:04:20+02:00</time>
      </trkpt>
      <trkpt lat="47.63765" lon="5.91993">
        <ele>201.2998</ele>
        <time>2026-05-16T13:04:21+02:00</time>
      </trkpt>
      <trkpt lat="47.63769" lon="5.92002">
        <ele>201.2998</ele>
        <time>2026-05-16T13:04:22+02:00</time>
      </trkpt>
      <trkpt lat="47.63772" lon="5.9201">
        <ele>201.2998</ele>
        <time>2026-05-16T13:04:23+02:00</time>
      </trkpt>
      <trkpt lat="47.63775" lon="5.92018">
        <ele>201.2998</ele>
        <time>2026-05-16T13:04:24+02:00</time>
      </trkpt>
      <trkpt lat="47.63778" lon="5.92026">
        <ele>201.2998</ele>
        <time>2026-05-16T13:04:25+02:00</time>
      </trkpt>
      <trkpt lat="47.63781" lon="5.92034">
        <ele>201.2998</ele>
        <time>2026-05-16T13:04:26+02:00</time>
      </trkpt>
      <trkpt lat="47.63784" lon="5.92042">
        <ele>201.2998</ele>
        <time>2026-05-16T13:04:27+02:00</time>
      </trkpt>
      <trkpt lat="47.63788" lon="5.9205">
        <ele>201.2998</ele>
        <time>2026-05-16T13:04:28+02:00</time>
      </trkpt>
      <trkpt lat="47.6379" lon="5.92058">
        <ele>201.2998</ele>
        <time>2026-05-16T13:04:29+02:00</time>
      </trkpt>
      <trkpt lat="47.63793" lon="5.92066">
        <ele>201.2998</ele>
        <time>2026-05-16T13:04:30+02:00</time>
      </trkpt>
      <trkpt lat="47.63797" lon="5.92074">
        <ele>201.2998</ele>
        <time>2026-05-16T13:04:31+02:00</time>
      </trkpt>
      <trkpt lat="47.638" lon="5.92083">
        <ele>201.2998</ele>
        <time>2026-05-16T13:04:32+02:00</time>
      </trkpt>
      <trkpt lat="47.63803" lon="5.92091">
        <ele>201.2998</ele>
        <time>2026-05-16T13:04:33+02:00</time>
      </trkpt>
      <trkpt lat="47.63806" lon="5.92099">
        <ele>201.2998</ele>
        <time>2026-05-16T13:04:34+02:00</time>
      </trkpt>
      <trkpt lat="47.63807" lon="5.92103">
        <ele>201.2998</ele>
        <time>2026-05-16T13:04:35+02:00</time>
      </trkpt>
      <trkpt lat="47.63812" lon="5.92115">
        <ele>201.2998</ele>
        <time>2026-05-16T13:04:36+02:00</time>
      </trkpt>
      <trkpt lat="47.63815" lon="5.92123">
        <ele>201.40039</ele>
        <time>2026-05-16T13:04:37+02:00</time>
      </trkpt>
      <trkpt lat="47.63818" lon="5.92131">
        <ele>201.60059</ele>
        <time>2026-05-16T13:04:38+02:00</time>
      </trkpt>
      <trkpt lat="47.63821" lon="5.92139">
        <ele>201.7002</ele>
        <time>2026-05-16T13:04:39+02:00</time>
      </trkpt>
      <trkpt lat="47.63825" lon="5.92147">
        <ele>201.90039</ele>
        <time>2026-05-16T13:04:40+02:00</time>
      </trkpt>
      <trkpt lat="47.63828" lon="5.92155">
        <ele>201.90039</ele>
        <time>2026-05-16T13:04:41+02:00</time>
      </trkpt>
      <trkpt lat="47.63831" lon="5.92163">
        <ele>201.90039</ele>
        <time>2026-05-16T13:04:42+02:00</time>
      </trkpt>
      <trkpt lat="47.63834" lon="5.92171">
        <ele>202</ele>
        <time>2026-05-16T13:04:43+02:00</time>
      </trkpt>
      <trkpt lat="47.63836" lon="5.92179">
        <ele>201.90039</ele>
        <time>2026-05-16T13:04:44+02:00</time>
      </trkpt>
      <trkpt lat="47.6384" lon="5.92187">
        <ele>201.90039</ele>
        <time>2026-05-16T13:04:45+02:00</time>
      </trkpt>
      <trkpt lat="47.63843" lon="5.92195">
        <ele>201.90039</ele>
        <time>2026-05-16T13:04:46+02:00</time>
      </trkpt>
      <trkpt lat="47.63846" lon="5.92203">
        <ele>201.90039</ele>
        <time>2026-05-16T13:04:47+02:00</time>
      </trkpt>
      <trkpt lat="47.63849" lon="5.92212">
        <ele>201.7998</ele>
        <time>2026-05-16T13:04:48+02:00</time>
      </trkpt>
      <trkpt lat="47.63852" lon="5.9222">
        <ele>201.90039</ele>
        <time>2026-05-16T13:04:49+02:00</time>
      </trkpt>
      <trkpt lat="47.63855" lon="5.92228">
        <ele>201.7998</ele>
        <time>2026-05-16T13:04:50+02:00</time>
      </trkpt>
      <trkpt lat="47.63858" lon="5.92236">
        <ele>202.10059</ele>
        <time>2026-05-16T13:04:51+02:00</time>
      </trkpt>
      <trkpt lat="47.63861" lon="5.92244">
        <ele>202</ele>
        <time>2026-05-16T13:04:52+02:00</time>
      </trkpt>
      <trkpt lat="47.63864" lon="5.92252">
        <ele>202.10059</ele>
        <time>2026-05-16T13:04:53+02:00</time>
      </trkpt>
      <trkpt lat="47.63867" lon="5.9226">
        <ele>201.90039</ele>
        <time>2026-05-16T13:04:54+02:00</time>
      </trkpt>
      <trkpt lat="47.6387" lon="5.92268">
        <ele>201.7002</ele>
        <time>2026-05-16T13:04:55+02:00</time>
      </trkpt>
      <trkpt lat="47.63873" lon="5.92276">
        <ele>201.40039</ele>
        <time>2026-05-16T13:04:56+02:00</time>
      </trkpt>
      <trkpt lat="47.63876" lon="5.92284">
        <ele>201.5</ele>
        <time>2026-05-16T13:04:57+02:00</time>
      </trkpt>
      <trkpt lat="47.63879" lon="5.92292">
        <ele>201.2998</ele>
        <time>2026-05-16T13:04:58+02:00</time>
      </trkpt>
      <trkpt lat="47.63882" lon="5.923">
        <ele>201.5</ele>
        <time>2026-05-16T13:04:59+02:00</time>
      </trkpt>
      <trkpt lat="47.63885" lon="5.92308">
        <ele>201.40039</ele>
        <time>2026-05-16T13:05:00+02:00</time>
      </trkpt>
      <trkpt lat="47.63888" lon="5.92316">
        <ele>201.2002</ele>
        <time>2026-05-16T13:05:01+02:00</time>
      </trkpt>
      <trkpt lat="47.63891" lon="5.92323">
        <ele>201.2998</ele>
        <time>2026-05-16T13:05:02+02:00</time>
      </trkpt>
      <trkpt lat="47.63894" lon="5.92331">
        <ele>201.2002</ele>
        <time>2026-05-16T13:05:03+02:00</time>
      </trkpt>
      <trkpt lat="47.63897" lon="5.92339">
        <ele>201.7998</ele>
        <time>2026-05-16T13:05:04+02:00</time>
      </trkpt>
      <trkpt lat="47.639" lon="5.92347">
        <ele>202.10059</ele>
        <time>2026-05-16T13:05:05+02:00</time>
      </trkpt>
      <trkpt lat="47.63903" lon="5.92356">
        <ele>203.5</ele>
        <time>2026-05-16T13:05:06+02:00</time>
      </trkpt>
      <trkpt lat="47.63906" lon="5.92363">
        <ele>204.2998</ele>
        <time>2026-05-16T13:05:07+02:00</time>
      </trkpt>
      <trkpt lat="47.63909" lon="5.92371">
        <ele>204.5</ele>
        <time>2026-05-16T13:05:08+02:00</time>
      </trkpt>
      <trkpt lat="47.63912" lon="5.92379">
        <ele>204.7998</ele>
        <time>2026-05-16T13:05:09+02:00</time>
      </trkpt>
      <trkpt lat="47.63915" lon="5.92387">
        <ele>204.7998</ele>
        <time>2026-05-16T13:05:10+02:00</time>
      </trkpt>
      <trkpt lat="47.63919" lon="5.92395">
        <ele>205</ele>
        <time>2026-05-16T13:05:11+02:00</time>
      </trkpt>
      <trkpt lat="47.63922" lon="5.92403">
        <ele>204.7002</ele>
        <time>2026-05-16T13:05:12+02:00</time>
      </trkpt>
      <trkpt lat="47.63925" lon="5.92411">
        <ele>205</ele>
        <time>2026-05-16T13:05:13+02:00</time>
      </trkpt>
      <trkpt lat="47.63928" lon="5.92419">
        <ele>203.60059</ele>
        <time>2026-05-16T13:05:14+02:00</time>
      </trkpt>
      <trkpt lat="47.63931" lon="5.92427">
        <ele>202.60059</ele>
        <time>2026-05-16T13:05:15+02:00</time>
      </trkpt>
      <trkpt lat="47.63934" lon="5.92436">
        <ele>201.5</ele>
        <time>2026-05-16T13:05:16+02:00</time>
      </trkpt>
      <trkpt lat="47.63938" lon="5.92443">
        <ele>201.2998</ele>
        <time>2026-05-16T13:05:17+02:00</time>
      </trkpt>
      <trkpt lat="47.63939" lon="5.92448">
        <ele>201.2002</ele>
        <time>2026-05-16T13:05:18+02:00</time>
      </trkpt>
      <trkpt lat="47.63943" lon="5.92459">
        <ele>201.2998</ele>
        <time>2026-05-16T13:05:19+02:00</time>
      </trkpt>
      <trkpt lat="47.63947" lon="5.92468">
        <ele>201.2998</ele>
        <time>2026-05-16T13:05:20+02:00</time>
      </trkpt>
      <trkpt lat="47.6395" lon="5.92476">
        <ele>201.2998</ele>
        <time>2026-05-16T13:05:21+02:00</time>
      </trkpt>
      <trkpt lat="47.63953" lon="5.92484">
        <ele>201.2998</ele>
        <time>2026-05-16T13:05:22+02:00</time>
      </trkpt>
      <trkpt lat="47.63956" lon="5.92492">
        <ele>201.2998</ele>
        <time>2026-05-16T13:05:23+02:00</time>
      </trkpt>
      <trkpt lat="47.63959" lon="5.925">
        <ele>201.2998</ele>
        <time>2026-05-16T13:05:24+02:00</time>
      </trkpt>
      <trkpt lat="47.63962" lon="5.92509">
        <ele>201.2998</ele>
        <time>2026-05-16T13:05:25+02:00</time>
      </trkpt>
      <trkpt lat="47.63965" lon="5.92517">
        <ele>201.2998</ele>
        <time>2026-05-16T13:05:26+02:00</time>
      </trkpt>
      <trkpt lat="47.63968" lon="5.92525">
        <ele>201.2998</ele>
        <time>2026-05-16T13:05:27+02:00</time>
      </trkpt>
      <trkpt lat="47.63971" lon="5.92533">
        <ele>201.2998</ele>
        <time>2026-05-16T13:05:28+02:00</time>
      </trkpt>
      <trkpt lat="47.63974" lon="5.92541">
        <ele>201.2998</ele>
        <time>2026-05-16T13:05:29+02:00</time>
      </trkpt>
      <trkpt lat="47.63977" lon="5.92549">
        <ele>201.2998</ele>
        <time>2026-05-16T13:05:30+02:00</time>
      </trkpt>
      <trkpt lat="47.6398" lon="5.92557">
        <ele>201.2998</ele>
        <time>2026-05-16T13:05:31+02:00</time>
      </trkpt>
      <trkpt lat="47.63982" lon="5.92561">
        <ele>201.2998</ele>
        <time>2026-05-16T13:05:32+02:00</time>
      </trkpt>
      <trkpt lat="47.63986" lon="5.92573">
        <ele>201.2998</ele>
        <time>2026-05-16T13:05:33+02:00</time>
      </trkpt>
      <trkpt lat="47.63989" lon="5.92581">
        <ele>201.2998</ele>
        <time>2026-05-16T13:05:34+02:00</time>
      </trkpt>
      <trkpt lat="47.63992" lon="5.92589">
        <ele>201.2998</ele>
        <time>2026-05-16T13:05:35+02:00</time>
      </trkpt>
      <trkpt lat="47.63995" lon="5.92598">
        <ele>201.2998</ele>
        <time>2026-05-16T13:05:36+02:00</time>
      </trkpt>
      <trkpt lat="47.63998" lon="5.92606">
        <ele>201.2998</ele>
        <time>2026-05-16T13:05:37+02:00</time>
      </trkpt>
      <trkpt lat="47.64001" lon="5.92614">
        <ele>201.2998</ele>
        <time>2026-05-16T13:05:38+02:00</time>
      </trkpt>
      <trkpt lat="47.64004" lon="5.92623">
        <ele>201.2998</ele>
        <time>2026-05-16T13:05:39+02:00</time>
      </trkpt>
      <trkpt lat="47.64007" lon="5.92631">
        <ele>201.2998</ele>
        <time>2026-05-16T13:05:40+02:00</time>
      </trkpt>
      <trkpt lat="47.64011" lon="5.92639">
        <ele>201.2998</ele>
        <time>2026-05-16T13:05:41+02:00</time>
      </trkpt>
      <trkpt lat="47.64014" lon="5.92648">
        <ele>201.2998</ele>
        <time>2026-05-16T13:05:42+02:00</time>
      </trkpt>
      <trkpt lat="47.64017" lon="5.92656">
        <ele>201.2998</ele>
        <time>2026-05-16T13:05:43+02:00</time>
      </trkpt>
      <trkpt lat="47.6402" lon="5.92665">
        <ele>201.2998</ele>
        <time>2026-05-16T13:05:44+02:00</time>
      </trkpt>
      <trkpt lat="47.64023" lon="5.92673">
        <ele>201.2998</ele>
        <time>2026-05-16T13:05:45+02:00</time>
      </trkpt>
      <trkpt lat="47.64026" lon="5.92682">
        <ele>201.2998</ele>
        <time>2026-05-16T13:05:46+02:00</time>
      </trkpt>
      <trkpt lat="47.64029" lon="5.9269">
        <ele>201.2998</ele>
        <time>2026-05-16T13:05:47+02:00</time>
      </trkpt>
      <trkpt lat="47.64032" lon="5.92699">
        <ele>201.2998</ele>
        <time>2026-05-16T13:05:48+02:00</time>
      </trkpt>
      <trkpt lat="47.64034" lon="5.92703">
        <ele>201.2998</ele>
        <time>2026-05-16T13:05:49+02:00</time>
      </trkpt>
      <trkpt lat="47.64039" lon="5.92716">
        <ele>201.2998</ele>
        <time>2026-05-16T13:05:50+02:00</time>
      </trkpt>
      <trkpt lat="47.64042" lon="5.92724">
        <ele>201.2998</ele>
        <time>2026-05-16T13:05:51+02:00</time>
      </trkpt>
      <trkpt lat="47.64045" lon="5.92733">
        <ele>201.2998</ele>
        <time>2026-05-16T13:05:52+02:00</time>
      </trkpt>
      <trkpt lat="47.64049" lon="5.92741">
        <ele>201.2002</ele>
        <time>2026-05-16T13:05:53+02:00</time>
      </trkpt>
      <trkpt lat="47.64052" lon="5.9275">
        <ele>201.2002</ele>
        <time>2026-05-16T13:05:54+02:00</time>
      </trkpt>
      <trkpt lat="47.64055" lon="5.92759">
        <ele>201.2002</ele>
        <time>2026-05-16T13:05:55+02:00</time>
      </trkpt>
      <trkpt lat="47.64058" lon="5.92767">
        <ele>201.2002</ele>
        <time>2026-05-16T13:05:56+02:00</time>
      </trkpt>
      <trkpt lat="47.64061" lon="5.92776">
        <ele>201.2002</ele>
        <time>2026-05-16T13:05:57+02:00</time>
      </trkpt>
      <trkpt lat="47.64065" lon="5.92785">
        <ele>201.2998</ele>
        <time>2026-05-16T13:05:58+02:00</time>
      </trkpt>
      <trkpt lat="47.64068" lon="5.92794">
        <ele>201.2998</ele>
        <time>2026-05-16T13:05:59+02:00</time>
      </trkpt>
      <trkpt lat="47.64071" lon="5.92802">
        <ele>201.2002</ele>
        <time>2026-05-16T13:06:00+02:00</time>
      </trkpt>
      <trkpt lat="47.64074" lon="5.92811">
        <ele>201.2002</ele>
        <time>2026-05-16T13:06:01+02:00</time>
      </trkpt>
      <trkpt lat="47.64078" lon="5.9282">
        <ele>201.2002</ele>
        <time>2026-05-16T13:06:02+02:00</time>
      </trkpt>
      <trkpt lat="47.64081" lon="5.92829">
        <ele>201.2002</ele>
        <time>2026-05-16T13:06:03+02:00</time>
      </trkpt>
      <trkpt lat="47.64084" lon="5.92838">
        <ele>201.2998</ele>
        <time>2026-05-16T13:06:04+02:00</time>
      </trkpt>
      <trkpt lat="47.64087" lon="5.92847">
        <ele>201.2998</ele>
        <time>2026-05-16T13:06:05+02:00</time>
      </trkpt>
      <trkpt lat="47.6409" lon="5.92856">
        <ele>201.2998</ele>
        <time>2026-05-16T13:06:06+02:00</time>
      </trkpt>
      <trkpt lat="47.64094" lon="5.92865">
        <ele>201.2998</ele>
        <time>2026-05-16T13:06:07+02:00</time>
      </trkpt>
      <trkpt lat="47.64097" lon="5.92874">
        <ele>201.2998</ele>
        <time>2026-05-16T13:06:08+02:00</time>
      </trkpt>
      <trkpt lat="47.641" lon="5.92883">
        <ele>201.2998</ele>
        <time>2026-05-16T13:06:09+02:00</time>
      </trkpt>
      <trkpt lat="47.64103" lon="5.92892">
        <ele>201.2998</ele>
        <time>2026-05-16T13:06:10+02:00</time>
      </trkpt>
      <trkpt lat="47.64106" lon="5.92901">
        <ele>201.2998</ele>
        <time>2026-05-16T13:06:11+02:00</time>
      </trkpt>
      <trkpt lat="47.64109" lon="5.9291">
        <ele>201.2998</ele>
        <time>2026-05-16T13:06:12+02:00</time>
      </trkpt>
      <trkpt lat="47.64112" lon="5.92919">
        <ele>201.2998</ele>
        <time>2026-05-16T13:06:13+02:00</time>
      </trkpt>
      <trkpt lat="47.64115" lon="5.92929">
        <ele>201.2998</ele>
        <time>2026-05-16T13:06:14+02:00</time>
      </trkpt>
      <trkpt lat="47.64118" lon="5.92938">
        <ele>201.2998</ele>
        <time>2026-05-16T13:06:15+02:00</time>
      </trkpt>
      <trkpt lat="47.64121" lon="5.92947">
        <ele>201.2998</ele>
        <time>2026-05-16T13:06:16+02:00</time>
      </trkpt>
      <trkpt lat="47.64124" lon="5.92957">
        <ele>201.2998</ele>
        <time>2026-05-16T13:06:17+02:00</time>
      </trkpt>
      <trkpt lat="47.64126" lon="5.92967">
        <ele>201.2998</ele>
        <time>2026-05-16T13:06:18+02:00</time>
      </trkpt>
      <trkpt lat="47.64129" lon="5.92977">
        <ele>201.2998</ele>
        <time>2026-05-16T13:06:19+02:00</time>
      </trkpt>
      <trkpt lat="47.64132" lon="5.92987">
        <ele>201.2998</ele>
        <time>2026-05-16T13:06:20+02:00</time>
      </trkpt>
      <trkpt lat="47.64134" lon="5.92997">
        <ele>201.2998</ele>
        <time>2026-05-16T13:06:21+02:00</time>
      </trkpt>
      <trkpt lat="47.64136" lon="5.93007">
        <ele>201.2998</ele>
        <time>2026-05-16T13:06:22+02:00</time>
      </trkpt>
      <trkpt lat="47.64138" lon="5.93017">
        <ele>201.2998</ele>
        <time>2026-05-16T13:06:23+02:00</time>
      </trkpt>
      <trkpt lat="47.6414" lon="5.93027">
        <ele>201.2998</ele>
        <time>2026-05-16T13:06:24+02:00</time>
      </trkpt>
      <trkpt lat="47.64141" lon="5.93037">
        <ele>201.2998</ele>
        <time>2026-05-16T13:06:25+02:00</time>
      </trkpt>
      <trkpt lat="47.64142" lon="5.93047">
        <ele>201.2998</ele>
        <time>2026-05-16T13:06:26+02:00</time>
      </trkpt>
      <trkpt lat="47.64143" lon="5.93057">
        <ele>201.2998</ele>
        <time>2026-05-16T13:06:27+02:00</time>
      </trkpt>
      <trkpt lat="47.64144" lon="5.93067">
        <ele>201.2998</ele>
        <time>2026-05-16T13:06:28+02:00</time>
      </trkpt>
      <trkpt lat="47.64145" lon="5.93077">
        <ele>201.2998</ele>
        <time>2026-05-16T13:06:29+02:00</time>
      </trkpt>
      <trkpt lat="47.64146" lon="5.93087">
        <ele>201.2998</ele>
        <time>2026-05-16T13:06:30+02:00</time>
      </trkpt>
      <trkpt lat="47.64147" lon="5.93097">
        <ele>201.2998</ele>
        <time>2026-05-16T13:06:31+02:00</time>
      </trkpt>
      <trkpt lat="47.64148" lon="5.93107">
        <ele>201.2998</ele>
        <time>2026-05-16T13:06:32+02:00</time>
      </trkpt>
      <trkpt lat="47.64149" lon="5.93117">
        <ele>201.2998</ele>
        <time>2026-05-16T13:06:33+02:00</time>
      </trkpt>
      <trkpt lat="47.6415" lon="5.93127">
        <ele>201.2998</ele>
        <time>2026-05-16T13:06:34+02:00</time>
      </trkpt>
      <trkpt lat="47.6415" lon="5.93136">
        <ele>201.2998</ele>
        <time>2026-05-16T13:06:35+02:00</time>
      </trkpt>
      <trkpt lat="47.64151" lon="5.93145">
        <ele>201.2998</ele>
        <time>2026-05-16T13:06:36+02:00</time>
      </trkpt>
      <trkpt lat="47.64152" lon="5.93154">
        <ele>201.2998</ele>
        <time>2026-05-16T13:06:37+02:00</time>
      </trkpt>
      <trkpt lat="47.64153" lon="5.93162">
        <ele>201.2998</ele>
        <time>2026-05-16T13:06:38+02:00</time>
      </trkpt>
      <trkpt lat="47.64154" lon="5.93171">
        <ele>201.2998</ele>
        <time>2026-05-16T13:06:39+02:00</time>
      </trkpt>
      <trkpt lat="47.64155" lon="5.93179">
        <ele>201.2998</ele>
        <time>2026-05-16T13:06:40+02:00</time>
      </trkpt>
      <trkpt lat="47.64155" lon="5.93187">
        <ele>201.2998</ele>
        <time>2026-05-16T13:06:41+02:00</time>
      </trkpt>
      <trkpt lat="47.64155" lon="5.93194">
        <ele>201.2998</ele>
        <time>2026-05-16T13:06:42+02:00</time>
      </trkpt>
      <trkpt lat="47.64155" lon="5.93202">
        <ele>201.2998</ele>
        <time>2026-05-16T13:06:43+02:00</time>
      </trkpt>
      <trkpt lat="47.64156" lon="5.9321">
        <ele>201.2998</ele>
        <time>2026-05-16T13:06:44+02:00</time>
      </trkpt>
      <trkpt lat="47.64156" lon="5.93218">
        <ele>201.2998</ele>
        <time>2026-05-16T13:06:45+02:00</time>
      </trkpt>
      <trkpt lat="47.64158" lon="5.93227">
        <ele>201.2002</ele>
        <time>2026-05-16T13:06:46+02:00</time>
      </trkpt>
      <trkpt lat="47.64159" lon="5.93236">
        <ele>201.2002</ele>
        <time>2026-05-16T13:06:47+02:00</time>
      </trkpt>
      <trkpt lat="47.6416" lon="5.93245">
        <ele>201.2002</ele>
        <time>2026-05-16T13:06:48+02:00</time>
      </trkpt>
      <trkpt lat="47.6416" lon="5.93254">
        <ele>201.2002</ele>
        <time>2026-05-16T13:06:49+02:00</time>
      </trkpt>
      <trkpt lat="47.6416" lon="5.93264">
        <ele>201.2002</ele>
        <time>2026-05-16T13:06:50+02:00</time>
      </trkpt>
      <trkpt lat="47.64161" lon="5.93273">
        <ele>201.2998</ele>
        <time>2026-05-16T13:06:51+02:00</time>
      </trkpt>
      <trkpt lat="47.64161" lon="5.93283">
        <ele>201.2998</ele>
        <time>2026-05-16T13:06:52+02:00</time>
      </trkpt>
      <trkpt lat="47.64161" lon="5.93292">
        <ele>201.2998</ele>
        <time>2026-05-16T13:06:53+02:00</time>
      </trkpt>
      <trkpt lat="47.64161" lon="5.93302">
        <ele>201.2998</ele>
        <time>2026-05-16T13:06:54+02:00</time>
      </trkpt>
      <trkpt lat="47.6416" lon="5.93311">
        <ele>201.2998</ele>
        <time>2026-05-16T13:06:55+02:00</time>
      </trkpt>
      <trkpt lat="47.6416" lon="5.93321">
        <ele>201.2998</ele>
        <time>2026-05-16T13:06:56+02:00</time>
      </trkpt>
      <trkpt lat="47.64158" lon="5.9333">
        <ele>201.2998</ele>
        <time>2026-05-16T13:06:57+02:00</time>
      </trkpt>
      <trkpt lat="47.64157" lon="5.9334">
        <ele>201.2998</ele>
        <time>2026-05-16T13:06:58+02:00</time>
      </trkpt>
      <trkpt lat="47.64156" lon="5.93349">
        <ele>201.2998</ele>
        <time>2026-05-16T13:06:59+02:00</time>
      </trkpt>
      <trkpt lat="47.64155" lon="5.93359">
        <ele>201.2998</ele>
        <time>2026-05-16T13:07:00+02:00</time>
      </trkpt>
      <trkpt lat="47.64153" lon="5.93369">
        <ele>201.2998</ele>
        <time>2026-05-16T13:07:01+02:00</time>
      </trkpt>
      <trkpt lat="47.64152" lon="5.93378">
        <ele>201.2998</ele>
        <time>2026-05-16T13:07:02+02:00</time>
      </trkpt>
      <trkpt lat="47.6415" lon="5.93388">
        <ele>201.2998</ele>
        <time>2026-05-16T13:07:03+02:00</time>
      </trkpt>
      <trkpt lat="47.64148" lon="5.93397">
        <ele>201.40039</ele>
        <time>2026-05-16T13:07:04+02:00</time>
      </trkpt>
      <trkpt lat="47.64145" lon="5.93407">
        <ele>201.40039</ele>
        <time>2026-05-16T13:07:05+02:00</time>
      </trkpt>
      <trkpt lat="47.64143" lon="5.93416">
        <ele>201.5</ele>
        <time>2026-05-16T13:07:06+02:00</time>
      </trkpt>
      <trkpt lat="47.64141" lon="5.93426">
        <ele>201.60059</ele>
        <time>2026-05-16T13:07:07+02:00</time>
      </trkpt>
      <trkpt lat="47.6414" lon="5.9343">
        <ele>201.60059</ele>
        <time>2026-05-16T13:07:08+02:00</time>
      </trkpt>
      <trkpt lat="47.64136" lon="5.93444">
        <ele>201.2998</ele>
        <time>2026-05-16T13:07:09+02:00</time>
      </trkpt>
      <trkpt lat="47.64134" lon="5.93454">
        <ele>201.2998</ele>
        <time>2026-05-16T13:07:10+02:00</time>
      </trkpt>
      <trkpt lat="47.64132" lon="5.93463">
        <ele>201.2998</ele>
        <time>2026-05-16T13:07:11+02:00</time>
      </trkpt>
      <trkpt lat="47.64129" lon="5.93473">
        <ele>201.2998</ele>
        <time>2026-05-16T13:07:12+02:00</time>
      </trkpt>
      <trkpt lat="47.64127" lon="5.93482">
        <ele>201.2998</ele>
        <time>2026-05-16T13:07:13+02:00</time>
      </trkpt>
      <trkpt lat="47.64124" lon="5.93491">
        <ele>201.2002</ele>
        <time>2026-05-16T13:07:14+02:00</time>
      </trkpt>
      <trkpt lat="47.64123" lon="5.93501">
        <ele>201.2998</ele>
        <time>2026-05-16T13:07:15+02:00</time>
      </trkpt>
      <trkpt lat="47.6412" lon="5.9351">
        <ele>201.2998</ele>
        <time>2026-05-16T13:07:16+02:00</time>
      </trkpt>
      <trkpt lat="47.64118" lon="5.93519">
        <ele>201.2998</ele>
        <time>2026-05-16T13:07:17+02:00</time>
      </trkpt>
      <trkpt lat="47.64115" lon="5.93528">
        <ele>201.2998</ele>
        <time>2026-05-16T13:07:18+02:00</time>
      </trkpt>
      <trkpt lat="47.64113" lon="5.93537">
        <ele>201.2998</ele>
        <time>2026-05-16T13:07:19+02:00</time>
      </trkpt>
      <trkpt lat="47.64111" lon="5.93547">
        <ele>201.2998</ele>
        <time>2026-05-16T13:07:20+02:00</time>
      </trkpt>
      <trkpt lat="47.64108" lon="5.93556">
        <ele>201.2002</ele>
        <time>2026-05-16T13:07:21+02:00</time>
      </trkpt>
      <trkpt lat="47.64106" lon="5.93565">
        <ele>201.2998</ele>
        <time>2026-05-16T13:07:22+02:00</time>
      </trkpt>
      <trkpt lat="47.64104" lon="5.93574">
        <ele>201.2998</ele>
        <time>2026-05-16T13:07:23+02:00</time>
      </trkpt>
      <trkpt lat="47.64102" lon="5.93584">
        <ele>201.2998</ele>
        <time>2026-05-16T13:07:24+02:00</time>
      </trkpt>
      <trkpt lat="47.641" lon="5.93594">
        <ele>201.40039</ele>
        <time>2026-05-16T13:07:25+02:00</time>
      </trkpt>
      <trkpt lat="47.64098" lon="5.93603">
        <ele>201.2998</ele>
        <time>2026-05-16T13:07:26+02:00</time>
      </trkpt>
      <trkpt lat="47.64097" lon="5.93613">
        <ele>201.2998</ele>
        <time>2026-05-16T13:07:27+02:00</time>
      </trkpt>
      <trkpt lat="47.64096" lon="5.93623">
        <ele>201.2998</ele>
        <time>2026-05-16T13:07:28+02:00</time>
      </trkpt>
      <trkpt lat="47.64095" lon="5.93633">
        <ele>201.2998</ele>
        <time>2026-05-16T13:07:29+02:00</time>
      </trkpt>
      <trkpt lat="47.64095" lon="5.93643">
        <ele>201.2998</ele>
        <time>2026-05-16T13:07:30+02:00</time>
      </trkpt>
      <trkpt lat="47.64095" lon="5.93653">
        <ele>201.2998</ele>
        <time>2026-05-16T13:07:31+02:00</time>
      </trkpt>
      <trkpt lat="47.64095" lon="5.93664">
        <ele>201.2998</ele>
        <time>2026-05-16T13:07:32+02:00</time>
      </trkpt>
      <trkpt lat="47.64094" lon="5.93674">
        <ele>201.2998</ele>
        <time>2026-05-16T13:07:33+02:00</time>
      </trkpt>
      <trkpt lat="47.64094" lon="5.93684">
        <ele>201.2998</ele>
        <time>2026-05-16T13:07:34+02:00</time>
      </trkpt>
      <trkpt lat="47.64094" lon="5.93695">
        <ele>201.2998</ele>
        <time>2026-05-16T13:07:35+02:00</time>
      </trkpt>
      <trkpt lat="47.64094" lon="5.93705">
        <ele>201.2998</ele>
        <time>2026-05-16T13:07:36+02:00</time>
      </trkpt>
      <trkpt lat="47.64094" lon="5.93716">
        <ele>201.2998</ele>
        <time>2026-05-16T13:07:37+02:00</time>
      </trkpt>
      <trkpt lat="47.64094" lon="5.93726">
        <ele>201.2998</ele>
        <time>2026-05-16T13:07:38+02:00</time>
      </trkpt>
      <trkpt lat="47.64094" lon="5.93737">
        <ele>201.2998</ele>
        <time>2026-05-16T13:07:39+02:00</time>
      </trkpt>
      <trkpt lat="47.64093" lon="5.93747">
        <ele>201.2002</ele>
        <time>2026-05-16T13:07:40+02:00</time>
      </trkpt>
      <trkpt lat="47.64093" lon="5.93758">
        <ele>201.2002</ele>
        <time>2026-05-16T13:07:41+02:00</time>
      </trkpt>
      <trkpt lat="47.64093" lon="5.93768">
        <ele>201.2002</ele>
        <time>2026-05-16T13:07:42+02:00</time>
      </trkpt>
      <trkpt lat="47.64093" lon="5.93778">
        <ele>201.2002</ele>
        <time>2026-05-16T13:07:43+02:00</time>
      </trkpt>
      <trkpt lat="47.64093" lon="5.93788">
        <ele>201.2002</ele>
        <time>2026-05-16T13:07:44+02:00</time>
      </trkpt>
      <trkpt lat="47.64093" lon="5.93798">
        <ele>201.2002</ele>
        <time>2026-05-16T13:07:45+02:00</time>
      </trkpt>
      <trkpt lat="47.64092" lon="5.93809">
        <ele>201.2998</ele>
        <time>2026-05-16T13:07:46+02:00</time>
      </trkpt>
      <trkpt lat="47.64092" lon="5.93819">
        <ele>201.40039</ele>
        <time>2026-05-16T13:07:47+02:00</time>
      </trkpt>
      <trkpt lat="47.64091" lon="5.93829">
        <ele>201.40039</ele>
        <time>2026-05-16T13:07:48+02:00</time>
      </trkpt>
      <trkpt lat="47.6409" lon="5.93839">
        <ele>201.40039</ele>
        <time>2026-05-16T13:07:49+02:00</time>
      </trkpt>
      <trkpt lat="47.64089" lon="5.93849">
        <ele>201.40039</ele>
        <time>2026-05-16T13:07:50+02:00</time>
      </trkpt>
      <trkpt lat="47.64087" lon="5.93859">
        <ele>201.2998</ele>
        <time>2026-05-16T13:07:51+02:00</time>
      </trkpt>
      <trkpt lat="47.64085" lon="5.93868">
        <ele>201.2998</ele>
        <time>2026-05-16T13:07:52+02:00</time>
      </trkpt>
      <trkpt lat="47.64082" lon="5.93878">
        <ele>201.40039</ele>
        <time>2026-05-16T13:07:53+02:00</time>
      </trkpt>
      <trkpt lat="47.6408" lon="5.93887">
        <ele>201.40039</ele>
        <time>2026-05-16T13:07:54+02:00</time>
      </trkpt>
      <trkpt lat="47.64077" lon="5.93896">
        <ele>201.5</ele>
        <time>2026-05-16T13:07:55+02:00</time>
      </trkpt>
      <trkpt lat="47.64074" lon="5.93906">
        <ele>201.5</ele>
        <time>2026-05-16T13:07:56+02:00</time>
      </trkpt>
      <trkpt lat="47.64071" lon="5.93914">
        <ele>201.5</ele>
        <time>2026-05-16T13:07:57+02:00</time>
      </trkpt>
      <trkpt lat="47.64068" lon="5.93923">
        <ele>201.2998</ele>
        <time>2026-05-16T13:07:58+02:00</time>
      </trkpt>
      <trkpt lat="47.64065" lon="5.93932">
        <ele>201.40039</ele>
        <time>2026-05-16T13:07:59+02:00</time>
      </trkpt>
      <trkpt lat="47.64061" lon="5.9394">
        <ele>201.40039</ele>
        <time>2026-05-16T13:08:00+02:00</time>
      </trkpt>
      <trkpt lat="47.64057" lon="5.93947">
        <ele>201.2998</ele>
        <time>2026-05-16T13:08:01+02:00</time>
      </trkpt>
      <trkpt lat="47.64053" lon="5.93955">
        <ele>201.40039</ele>
        <time>2026-05-16T13:08:02+02:00</time>
      </trkpt>
      <trkpt lat="47.64049" lon="5.93963">
        <ele>201.40039</ele>
        <time>2026-05-16T13:08:03+02:00</time>
      </trkpt>
      <trkpt lat="47.64046" lon="5.93971">
        <ele>201.2998</ele>
        <time>2026-05-16T13:08:04+02:00</time>
      </trkpt>
      <trkpt lat="47.64042" lon="5.93979">
        <ele>201.40039</ele>
        <time>2026-05-16T13:08:05+02:00</time>
      </trkpt>
      <trkpt lat="47.64039" lon="5.93987">
        <ele>201.40039</ele>
        <time>2026-05-16T13:08:06+02:00</time>
      </trkpt>
      <trkpt lat="47.64034" lon="5.93994">
        <ele>201.40039</ele>
        <time>2026-05-16T13:08:07+02:00</time>
      </trkpt>
      <trkpt lat="47.6403" lon="5.94002">
        <ele>201.5</ele>
        <time>2026-05-16T13:08:08+02:00</time>
      </trkpt>
      <trkpt lat="47.64026" lon="5.94009">
        <ele>201.5</ele>
        <time>2026-05-16T13:08:09+02:00</time>
      </trkpt>
      <trkpt lat="47.64021" lon="5.94016">
        <ele>201.40039</ele>
        <time>2026-05-16T13:08:10+02:00</time>
      </trkpt>
      <trkpt lat="47.64017" lon="5.94023">
        <ele>201.40039</ele>
        <time>2026-05-16T13:08:11+02:00</time>
      </trkpt>
      <trkpt lat="47.64013" lon="5.9403">
        <ele>201.5</ele>
        <time>2026-05-16T13:08:12+02:00</time>
      </trkpt>
      <trkpt lat="47.64012" lon="5.94034">
        <ele>201.5</ele>
        <time>2026-05-16T13:08:13+02:00</time>
      </trkpt>
      <trkpt lat="47.64007" lon="5.94046">
        <ele>201.60059</ele>
        <time>2026-05-16T13:08:14+02:00</time>
      </trkpt>
      <trkpt lat="47.63997" lon="5.94081">
        <ele>201.90039</ele>
        <time>2026-05-16T13:08:15+02:00</time>
      </trkpt>
      <trkpt lat="47.63996" lon="5.9409">
        <ele>202</ele>
        <time>2026-05-16T13:08:16+02:00</time>
      </trkpt>
      <trkpt lat="47.63994" lon="5.94099">
        <ele>202</ele>
        <time>2026-05-16T13:08:17+02:00</time>
      </trkpt>
      <trkpt lat="47.63992" lon="5.94109">
        <ele>202.10059</ele>
        <time>2026-05-16T13:08:18+02:00</time>
      </trkpt>
      <trkpt lat="47.63991" lon="5.94118">
        <ele>202.10059</ele>
        <time>2026-05-16T13:08:19+02:00</time>
      </trkpt>
      <trkpt lat="47.63989" lon="5.94127">
        <ele>202.2002</ele>
        <time>2026-05-16T13:08:20+02:00</time>
      </trkpt>
      <trkpt lat="47.63987" lon="5.94137">
        <ele>202.2998</ele>
        <time>2026-05-16T13:08:21+02:00</time>
      </trkpt>
      <trkpt lat="47.63985" lon="5.94146">
        <ele>202.2998</ele>
        <time>2026-05-16T13:08:22+02:00</time>
      </trkpt>
      <trkpt lat="47.63983" lon="5.94155">
        <ele>202.2002</ele>
        <time>2026-05-16T13:08:23+02:00</time>
      </trkpt>
      <trkpt lat="47.63982" lon="5.94165">
        <ele>202.2002</ele>
        <time>2026-05-16T13:08:24+02:00</time>
      </trkpt>
      <trkpt lat="47.6398" lon="5.94174">
        <ele>202.40039</ele>
        <time>2026-05-16T13:08:25+02:00</time>
      </trkpt>
      <trkpt lat="47.63978" lon="5.94184">
        <ele>202.5</ele>
        <time>2026-05-16T13:08:26+02:00</time>
      </trkpt>
      <trkpt lat="47.63976" lon="5.94193">
        <ele>202.5</ele>
        <time>2026-05-16T13:08:27+02:00</time>
      </trkpt>
      <trkpt lat="47.63975" lon="5.94203">
        <ele>202.60059</ele>
        <time>2026-05-16T13:08:28+02:00</time>
      </trkpt>
      <trkpt lat="47.63974" lon="5.94207">
        <ele>202.60059</ele>
        <time>2026-05-16T13:08:29+02:00</time>
      </trkpt>
      <trkpt lat="47.63971" lon="5.94222">
        <ele>202.2998</ele>
        <time>2026-05-16T13:08:30+02:00</time>
      </trkpt>
      <trkpt lat="47.6397" lon="5.94231">
        <ele>202.2998</ele>
        <time>2026-05-16T13:08:31+02:00</time>
      </trkpt>
      <trkpt lat="47.63968" lon="5.94241">
        <ele>202.2998</ele>
        <time>2026-05-16T13:08:32+02:00</time>
      </trkpt>
      <trkpt lat="47.63966" lon="5.9425">
        <ele>202.2002</ele>
        <time>2026-05-16T13:08:33+02:00</time>
      </trkpt>
      <trkpt lat="47.63965" lon="5.94259">
        <ele>202.2002</ele>
        <time>2026-05-16T13:08:34+02:00</time>
      </trkpt>
      <trkpt lat="47.63962" lon="5.94268">
        <ele>202.2002</ele>
        <time>2026-05-16T13:08:35+02:00</time>
      </trkpt>
      <trkpt lat="47.6396" lon="5.94276">
        <ele>202.40039</ele>
        <time>2026-05-16T13:08:36+02:00</time>
      </trkpt>
      <trkpt lat="47.63958" lon="5.94285">
        <ele>202.40039</ele>
        <time>2026-05-16T13:08:37+02:00</time>
      </trkpt>
      <trkpt lat="47.63956" lon="5.94292">
        <ele>202.40039</ele>
        <time>2026-05-16T13:08:38+02:00</time>
      </trkpt>
      <trkpt lat="47.63954" lon="5.94299">
        <ele>202.40039</ele>
        <time>2026-05-16T13:08:39+02:00</time>
      </trkpt>
      <trkpt lat="47.63952" lon="5.94306">
        <ele>202.2998</ele>
        <time>2026-05-16T13:08:40+02:00</time>
      </trkpt>
      <trkpt lat="47.6395" lon="5.94313">
        <ele>202.2002</ele>
        <time>2026-05-16T13:08:41+02:00</time>
      </trkpt>
      <trkpt lat="47.63949" lon="5.94319">
        <ele>202.2002</ele>
        <time>2026-05-16T13:08:42+02:00</time>
      </trkpt>
      <trkpt lat="47.63948" lon="5.94326">
        <ele>202.10059</ele>
        <time>2026-05-16T13:08:43+02:00</time>
      </trkpt>
      <trkpt lat="47.63947" lon="5.94333">
        <ele>202.10059</ele>
        <time>2026-05-16T13:08:44+02:00</time>
      </trkpt>
      <trkpt lat="47.63946" lon="5.94341">
        <ele>202.10059</ele>
        <time>2026-05-16T13:08:45+02:00</time>
      </trkpt>
      <trkpt lat="47.63945" lon="5.94348">
        <ele>202.2002</ele>
        <time>2026-05-16T13:08:46+02:00</time>
      </trkpt>
      <trkpt lat="47.63943" lon="5.94355">
        <ele>202.10059</ele>
        <time>2026-05-16T13:08:47+02:00</time>
      </trkpt>
      <trkpt lat="47.63942" lon="5.94363">
        <ele>202.2998</ele>
        <time>2026-05-16T13:08:48+02:00</time>
      </trkpt>
      <trkpt lat="47.63941" lon="5.9437">
        <ele>202.2998</ele>
        <time>2026-05-16T13:08:49+02:00</time>
      </trkpt>
      <trkpt lat="47.63939" lon="5.94378">
        <ele>202.2002</ele>
        <time>2026-05-16T13:08:50+02:00</time>
      </trkpt>
      <trkpt lat="47.63938" lon="5.94385">
        <ele>202.2002</ele>
        <time>2026-05-16T13:08:51+02:00</time>
      </trkpt>
      <trkpt lat="47.63936" lon="5.94393">
        <ele>202.2002</ele>
        <time>2026-05-16T13:08:52+02:00</time>
      </trkpt>
      <trkpt lat="47.63936" lon="5.94396">
        <ele>202.2002</ele>
        <time>2026-05-16T13:08:53+02:00</time>
      </trkpt>
      <trkpt lat="47.63934" lon="5.94408">
        <ele>202.10059</ele>
        <time>2026-05-16T13:08:54+02:00</time>
      </trkpt>
      <trkpt lat="47.63933" lon="5.94415">
        <ele>202.2002</ele>
        <time>2026-05-16T13:08:55+02:00</time>
      </trkpt>
      <trkpt lat="47.63931" lon="5.94423">
        <ele>202.2002</ele>
        <time>2026-05-16T13:08:56+02:00</time>
      </trkpt>
      <trkpt lat="47.6393" lon="5.94431">
        <ele>202.10059</ele>
        <time>2026-05-16T13:08:57+02:00</time>
      </trkpt>
      <trkpt lat="47.63929" lon="5.94438">
        <ele>202.10059</ele>
        <time>2026-05-16T13:08:58+02:00</time>
      </trkpt>
      <trkpt lat="47.63928" lon="5.94446">
        <ele>202.10059</ele>
        <time>2026-05-16T13:08:59+02:00</time>
      </trkpt>
      <trkpt lat="47.63926" lon="5.94454">
        <ele>202.10059</ele>
        <time>2026-05-16T13:09:00+02:00</time>
      </trkpt>
      <trkpt lat="47.63925" lon="5.94462">
        <ele>202.2002</ele>
        <time>2026-05-16T13:09:01+02:00</time>
      </trkpt>
      <trkpt lat="47.63923" lon="5.9447">
        <ele>202.2002</ele>
        <time>2026-05-16T13:09:02+02:00</time>
      </trkpt>
      <trkpt lat="47.63922" lon="5.94478">
        <ele>202.2002</ele>
        <time>2026-05-16T13:09:03+02:00</time>
      </trkpt>
      <trkpt lat="47.6392" lon="5.94487">
        <ele>202.2002</ele>
        <time>2026-05-16T13:09:04+02:00</time>
      </trkpt>
      <trkpt lat="47.63919" lon="5.94495">
        <ele>202.2998</ele>
        <time>2026-05-16T13:09:05+02:00</time>
      </trkpt>
      <trkpt lat="47.63918" lon="5.94503">
        <ele>202.2998</ele>
        <time>2026-05-16T13:09:06+02:00</time>
      </trkpt>
      <trkpt lat="47.63916" lon="5.94511">
        <ele>202.2998</ele>
        <time>2026-05-16T13:09:07+02:00</time>
      </trkpt>
      <trkpt lat="47.63915" lon="5.9452">
        <ele>202.2998</ele>
        <time>2026-05-16T13:09:08+02:00</time>
      </trkpt>
      <trkpt lat="47.63913" lon="5.94529">
        <ele>202.2998</ele>
        <time>2026-05-16T13:09:09+02:00</time>
      </trkpt>
      <trkpt lat="47.63912" lon="5.94533">
        <ele>202.2002</ele>
        <time>2026-05-16T13:09:10+02:00</time>
      </trkpt>
      <trkpt lat="47.6391" lon="5.94546">
        <ele>202.2002</ele>
        <time>2026-05-16T13:09:11+02:00</time>
      </trkpt>
      <trkpt lat="47.63908" lon="5.94555">
        <ele>202.10059</ele>
        <time>2026-05-16T13:09:12+02:00</time>
      </trkpt>
      <trkpt lat="47.63907" lon="5.94563">
        <ele>202.10059</ele>
        <time>2026-05-16T13:09:13+02:00</time>
      </trkpt>
      <trkpt lat="47.63905" lon="5.94572">
        <ele>202.10059</ele>
        <time>2026-05-16T13:09:14+02:00</time>
      </trkpt>
      <trkpt lat="47.63903" lon="5.94581">
        <ele>202.10059</ele>
        <time>2026-05-16T13:09:15+02:00</time>
      </trkpt>
      <trkpt lat="47.63901" lon="5.9459">
        <ele>202.2002</ele>
        <time>2026-05-16T13:09:16+02:00</time>
      </trkpt>
      <trkpt lat="47.639" lon="5.94599">
        <ele>202.2002</ele>
        <time>2026-05-16T13:09:17+02:00</time>
      </trkpt>
      <trkpt lat="47.63898" lon="5.94607">
        <ele>202.2002</ele>
        <time>2026-05-16T13:09:18+02:00</time>
      </trkpt>
      <trkpt lat="47.63896" lon="5.94616">
        <ele>202.2002</ele>
        <time>2026-05-16T13:09:19+02:00</time>
      </trkpt>
      <trkpt lat="47.63895" lon="5.94625">
        <ele>202.2002</ele>
        <time>2026-05-16T13:09:20+02:00</time>
      </trkpt>
      <trkpt lat="47.63893" lon="5.94634">
        <ele>202.10059</ele>
        <time>2026-05-16T13:09:21+02:00</time>
      </trkpt>
      <trkpt lat="47.63891" lon="5.94643">
        <ele>202</ele>
        <time>2026-05-16T13:09:22+02:00</time>
      </trkpt>
      <trkpt lat="47.6389" lon="5.94652">
        <ele>202.10059</ele>
        <time>2026-05-16T13:09:23+02:00</time>
      </trkpt>
      <trkpt lat="47.63888" lon="5.9466">
        <ele>202</ele>
        <time>2026-05-16T13:09:24+02:00</time>
      </trkpt>
      <trkpt lat="47.63887" lon="5.94669">
        <ele>202.10059</ele>
        <time>2026-05-16T13:09:25+02:00</time>
      </trkpt>
      <trkpt lat="47.63885" lon="5.94678">
        <ele>202.10059</ele>
        <time>2026-05-16T13:09:26+02:00</time>
      </trkpt>
      <trkpt lat="47.63883" lon="5.94687">
        <ele>202.2002</ele>
        <time>2026-05-16T13:09:27+02:00</time>
      </trkpt>
      <trkpt lat="47.63881" lon="5.94696">
        <ele>202.2002</ele>
        <time>2026-05-16T13:09:28+02:00</time>
      </trkpt>
      <trkpt lat="47.6388" lon="5.94705">
        <ele>202.2002</ele>
        <time>2026-05-16T13:09:29+02:00</time>
      </trkpt>
      <trkpt lat="47.63878" lon="5.94714">
        <ele>202.2002</ele>
        <time>2026-05-16T13:09:30+02:00</time>
      </trkpt>
      <trkpt lat="47.63877" lon="5.94723">
        <ele>202.10059</ele>
        <time>2026-05-16T13:09:31+02:00</time>
      </trkpt>
      <trkpt lat="47.63875" lon="5.94732">
        <ele>201.90039</ele>
        <time>2026-05-16T13:09:32+02:00</time>
      </trkpt>
      <trkpt lat="47.63873" lon="5.94741">
        <ele>201.90039</ele>
        <time>2026-05-16T13:09:33+02:00</time>
      </trkpt>
      <trkpt lat="47.63872" lon="5.9475">
        <ele>201.90039</ele>
        <time>2026-05-16T13:09:34+02:00</time>
      </trkpt>
      <trkpt lat="47.6387" lon="5.94759">
        <ele>202</ele>
        <time>2026-05-16T13:09:35+02:00</time>
      </trkpt>
      <trkpt lat="47.63868" lon="5.94768">
        <ele>202</ele>
        <time>2026-05-16T13:09:36+02:00</time>
      </trkpt>
      <trkpt lat="47.63867" lon="5.94776">
        <ele>202.2002</ele>
        <time>2026-05-16T13:09:37+02:00</time>
      </trkpt>
      <trkpt lat="47.63865" lon="5.94785">
        <ele>202.2002</ele>
        <time>2026-05-16T13:09:38+02:00</time>
      </trkpt>
      <trkpt lat="47.63863" lon="5.94795">
        <ele>202.2002</ele>
        <time>2026-05-16T13:09:39+02:00</time>
      </trkpt>
      <trkpt lat="47.63862" lon="5.94804">
        <ele>202.2002</ele>
        <time>2026-05-16T13:09:40+02:00</time>
      </trkpt>
      <trkpt lat="47.6386" lon="5.94813">
        <ele>202.60059</ele>
        <time>2026-05-16T13:09:41+02:00</time>
      </trkpt>
      <trkpt lat="47.63858" lon="5.94822">
        <ele>202.60059</ele>
        <time>2026-05-16T13:09:42+02:00</time>
      </trkpt>
      <trkpt lat="47.63857" lon="5.94831">
        <ele>202.60059</ele>
        <time>2026-05-16T13:09:43+02:00</time>
      </trkpt>
      <trkpt lat="47.63855" lon="5.9484">
        <ele>203</ele>
        <time>2026-05-16T13:09:44+02:00</time>
      </trkpt>
      <trkpt lat="47.63853" lon="5.94849">
        <ele>203.10059</ele>
        <time>2026-05-16T13:09:45+02:00</time>
      </trkpt>
      <trkpt lat="47.63851" lon="5.94858">
        <ele>202.7998</ele>
        <time>2026-05-16T13:09:46+02:00</time>
      </trkpt>
      <trkpt lat="47.6385" lon="5.94867">
        <ele>202.2998</ele>
        <time>2026-05-16T13:09:47+02:00</time>
      </trkpt>
      <trkpt lat="47.63848" lon="5.94876">
        <ele>202.10059</ele>
        <time>2026-05-16T13:09:48+02:00</time>
      </trkpt>
      <trkpt lat="47.63846" lon="5.94885">
        <ele>202.10059</ele>
        <time>2026-05-16T13:09:49+02:00</time>
      </trkpt>
      <trkpt lat="47.63844" lon="5.94894">
        <ele>202.60059</ele>
        <time>2026-05-16T13:09:50+02:00</time>
      </trkpt>
      <trkpt lat="47.63843" lon="5.94903">
        <ele>202.60059</ele>
        <time>2026-05-16T13:09:51+02:00</time>
      </trkpt>
      <trkpt lat="47.63841" lon="5.94912">
        <ele>202.60059</ele>
        <time>2026-05-16T13:09:52+02:00</time>
      </trkpt>
      <trkpt lat="47.63839" lon="5.94921">
        <ele>202.5</ele>
        <time>2026-05-16T13:09:53+02:00</time>
      </trkpt>
      <trkpt lat="47.63838" lon="5.9493">
        <ele>203</ele>
        <time>2026-05-16T13:09:54+02:00</time>
      </trkpt>
      <trkpt lat="47.63836" lon="5.94939">
        <ele>203</ele>
        <time>2026-05-16T13:09:55+02:00</time>
      </trkpt>
      <trkpt lat="47.63835" lon="5.94948">
        <ele>202.90039</ele>
        <time>2026-05-16T13:09:56+02:00</time>
      </trkpt>
      <trkpt lat="47.63833" lon="5.94957">
        <ele>202.5</ele>
        <time>2026-05-16T13:09:57+02:00</time>
      </trkpt>
      <trkpt lat="47.63831" lon="5.94966">
        <ele>202.5</ele>
        <time>2026-05-16T13:09:58+02:00</time>
      </trkpt>
      <trkpt lat="47.6383" lon="5.94975">
        <ele>202.10059</ele>
        <time>2026-05-16T13:09:59+02:00</time>
      </trkpt>
      <trkpt lat="47.63828" lon="5.94984">
        <ele>202</ele>
        <time>2026-05-16T13:10:00+02:00</time>
      </trkpt>
      <trkpt lat="47.63827" lon="5.94989">
        <ele>202</ele>
        <time>2026-05-16T13:10:01+02:00</time>
      </trkpt>
      <trkpt lat="47.63824" lon="5.95003">
        <ele>202.40039</ele>
        <time>2026-05-16T13:10:02+02:00</time>
      </trkpt>
      <trkpt lat="47.63823" lon="5.95012">
        <ele>202.5</ele>
        <time>2026-05-16T13:10:03+02:00</time>
      </trkpt>
      <trkpt lat="47.63821" lon="5.95021">
        <ele>203</ele>
        <time>2026-05-16T13:10:04+02:00</time>
      </trkpt>
      <trkpt lat="47.63819" lon="5.95031">
        <ele>203</ele>
        <time>2026-05-16T13:10:05+02:00</time>
      </trkpt>
      <trkpt lat="47.63817" lon="5.9504">
        <ele>203</ele>
        <time>2026-05-16T13:10:06+02:00</time>
      </trkpt>
      <trkpt lat="47.63816" lon="5.95049">
        <ele>202.7998</ele>
        <time>2026-05-16T13:10:07+02:00</time>
      </trkpt>
      <trkpt lat="47.63814" lon="5.95058">
        <ele>202.90039</ele>
        <time>2026-05-16T13:10:08+02:00</time>
      </trkpt>
      <trkpt lat="47.63813" lon="5.95067">
        <ele>202.40039</ele>
        <time>2026-05-16T13:10:09+02:00</time>
      </trkpt>
      <trkpt lat="47.63812" lon="5.95075">
        <ele>202</ele>
        <time>2026-05-16T13:10:10+02:00</time>
      </trkpt>
      <trkpt lat="47.63812" lon="5.95084">
        <ele>201.90039</ele>
        <time>2026-05-16T13:10:11+02:00</time>
      </trkpt>
      <trkpt lat="47.63811" lon="5.95092">
        <ele>201.7998</ele>
        <time>2026-05-16T13:10:12+02:00</time>
      </trkpt>
      <trkpt lat="47.63811" lon="5.951">
        <ele>201.90039</ele>
        <time>2026-05-16T13:10:13+02:00</time>
      </trkpt>
      <trkpt lat="47.6381" lon="5.95107">
        <ele>201.90039</ele>
        <time>2026-05-16T13:10:14+02:00</time>
      </trkpt>
      <trkpt lat="47.63809" lon="5.95114">
        <ele>202.5</ele>
        <time>2026-05-16T13:10:15+02:00</time>
      </trkpt>
      <trkpt lat="47.63809" lon="5.95121">
        <ele>202.5</ele>
        <time>2026-05-16T13:10:16+02:00</time>
      </trkpt>
      <trkpt lat="47.63808" lon="5.95127">
        <ele>202.5</ele>
        <time>2026-05-16T13:10:17+02:00</time>
      </trkpt>
      <trkpt lat="47.63807" lon="5.95133">
        <ele>202.5</ele>
        <time>2026-05-16T13:10:18+02:00</time>
      </trkpt>
      <trkpt lat="47.63807" lon="5.95137">
        <ele>202.5</ele>
        <time>2026-05-16T13:10:19+02:00</time>
      </trkpt>
      <trkpt lat="47.63807" lon="5.9514">
        <ele>202.5</ele>
        <time>2026-05-16T13:10:20+02:00</time>
      </trkpt>
      <trkpt lat="47.63807" lon="5.95143">
        <ele>202.5</ele>
        <time>2026-05-16T13:10:21+02:00</time>
      </trkpt>
      <trkpt lat="47.63807" lon="5.95146">
        <ele>202.5</ele>
        <time>2026-05-16T13:10:22+02:00</time>
      </trkpt>
      <trkpt lat="47.63807" lon="5.9515">
        <ele>202.5</ele>
        <time>2026-05-16T13:10:23+02:00</time>
      </trkpt>
      <trkpt lat="47.63807" lon="5.95154">
        <ele>202.5</ele>
        <time>2026-05-16T13:10:24+02:00</time>
      </trkpt>
      <trkpt lat="47.63806" lon="5.95158">
        <ele>202.5</ele>
        <time>2026-05-16T13:10:25+02:00</time>
      </trkpt>
      <trkpt lat="47.63806" lon="5.95163">
        <ele>202.5</ele>
        <time>2026-05-16T13:10:26+02:00</time>
      </trkpt>
      <trkpt lat="47.63806" lon="5.95168">
        <ele>202.5</ele>
        <time>2026-05-16T13:10:27+02:00</time>
      </trkpt>
      <trkpt lat="47.63805" lon="5.95173">
        <ele>202.5</ele>
        <time>2026-05-16T13:10:28+02:00</time>
      </trkpt>
      <trkpt lat="47.63805" lon="5.95178">
        <ele>202.5</ele>
        <time>2026-05-16T13:10:29+02:00</time>
      </trkpt>
      <trkpt lat="47.63804" lon="5.95183">
        <ele>203.7002</ele>
        <time>2026-05-16T13:10:30+02:00</time>
      </trkpt>
      <trkpt lat="47.63805" lon="5.95187">
        <ele>202.60059</ele>
        <time>2026-05-16T13:10:31+02:00</time>
      </trkpt>
      <trkpt lat="47.63805" lon="5.95192">
        <ele>202.60059</ele>
        <time>2026-05-16T13:10:32+02:00</time>
      </trkpt>
      <trkpt lat="47.63804" lon="5.95195">
        <ele>202.7002</ele>
        <time>2026-05-16T13:10:33+02:00</time>
      </trkpt>
      <trkpt lat="47.63804" lon="5.952">
        <ele>202.7002</ele>
        <time>2026-05-16T13:10:34+02:00</time>
      </trkpt>
      <trkpt lat="47.63804" lon="5.95204">
        <ele>202</ele>
        <time>2026-05-16T13:10:35+02:00</time>
      </trkpt>
      <trkpt lat="47.63803" lon="5.95209">
        <ele>202</ele>
        <time>2026-05-16T13:10:36+02:00</time>
      </trkpt>
      <trkpt lat="47.63803" lon="5.95213">
        <ele>201.60059</ele>
        <time>2026-05-16T13:10:37+02:00</time>
      </trkpt>
      <trkpt lat="47.63803" lon="5.95218">
        <ele>201.60059</ele>
        <time>2026-05-16T13:10:38+02:00</time>
      </trkpt>
      <trkpt lat="47.63803" lon="5.95223">
        <ele>201.7002</ele>
        <time>2026-05-16T13:10:39+02:00</time>
      </trkpt>
      <trkpt lat="47.63804" lon="5.95227">
        <ele>201.7002</ele>
        <time>2026-05-16T13:10:40+02:00</time>
      </trkpt>
      <trkpt lat="47.63804" lon="5.95232">
        <ele>202</ele>
        <time>2026-05-16T13:10:41+02:00</time>
      </trkpt>
      <trkpt lat="47.63804" lon="5.95235">
        <ele>202</ele>
        <time>2026-05-16T13:10:42+02:00</time>
      </trkpt>
      <trkpt lat="47.63805" lon="5.95239">
        <ele>203.2998</ele>
        <time>2026-05-16T13:10:43+02:00</time>
      </trkpt>
      <trkpt lat="47.63805" lon="5.95243">
        <ele>203.2998</ele>
        <time>2026-05-16T13:10:44+02:00</time>
      </trkpt>
      <trkpt lat="47.63806" lon="5.95247">
        <ele>203.40039</ele>
        <time>2026-05-16T13:10:45+02:00</time>
      </trkpt>
      <trkpt lat="47.63807" lon="5.95252">
        <ele>203.40039</ele>
        <time>2026-05-16T13:10:46+02:00</time>
      </trkpt>
      <trkpt lat="47.63807" lon="5.95256">
        <ele>203.40039</ele>
        <time>2026-05-16T13:10:47+02:00</time>
      </trkpt>
      <trkpt lat="47.63809" lon="5.9526">
        <ele>203.40039</ele>
        <time>2026-05-16T13:10:48+02:00</time>
      </trkpt>
      <trkpt lat="47.63809" lon="5.95265">
        <ele>203.5</ele>
        <time>2026-05-16T13:10:49+02:00</time>
      </trkpt>
      <trkpt lat="47.6381" lon="5.9527">
        <ele>205.60059</ele>
        <time>2026-05-16T13:10:50+02:00</time>
      </trkpt>
      <trkpt lat="47.63812" lon="5.95274">
        <ele>205.7002</ele>
        <time>2026-05-16T13:10:51+02:00</time>
      </trkpt>
      <trkpt lat="47.63813" lon="5.95279">
        <ele>205.7998</ele>
        <time>2026-05-16T13:10:52+02:00</time>
      </trkpt>
      <trkpt lat="47.63814" lon="5.95283">
        <ele>205.7998</ele>
        <time>2026-05-16T13:10:53+02:00</time>
      </trkpt>
      <trkpt lat="47.63815" lon="5.95287">
        <ele>205.7998</ele>
        <time>2026-05-16T13:10:54+02:00</time>
      </trkpt>
      <trkpt lat="47.63817" lon="5.95291">
        <ele>208.7002</ele>
        <time>2026-05-16T13:10:55+02:00</time>
      </trkpt>
      <trkpt lat="47.63818" lon="5.95296">
        <ele>208.90039</ele>
        <time>2026-05-16T13:10:56+02:00</time>
      </trkpt>
      <trkpt lat="47.6382" lon="5.953">
        <ele>208.90039</ele>
        <time>2026-05-16T13:10:57+02:00</time>
      </trkpt>
      <trkpt lat="47.63821" lon="5.95304">
        <ele>208.90039</ele>
        <time>2026-05-16T13:10:58+02:00</time>
      </trkpt>
      <trkpt lat="47.63823" lon="5.95308">
        <ele>212.2002</ele>
        <time>2026-05-16T13:10:59+02:00</time>
      </trkpt>
      <trkpt lat="47.63825" lon="5.95312">
        <ele>212.2002</ele>
        <time>2026-05-16T13:11:00+02:00</time>
      </trkpt>
      <trkpt lat="47.63826" lon="5.95316">
        <ele>212.40039</ele>
        <time>2026-05-16T13:11:01+02:00</time>
      </trkpt>
      <trkpt lat="47.63828" lon="5.95321">
        <ele>216.5</ele>
        <time>2026-05-16T13:11:02+02:00</time>
      </trkpt>
      <trkpt lat="47.63829" lon="5.95325">
        <ele>216.7002</ele>
        <time>2026-05-16T13:11:03+02:00</time>
      </trkpt>
      <trkpt lat="47.63831" lon="5.95329">
        <ele>216.7002</ele>
        <time>2026-05-16T13:11:04+02:00</time>
      </trkpt>
      <trkpt lat="47.63832" lon="5.95334">
        <ele>216.7998</ele>
        <time>2026-05-16T13:11:05+02:00</time>
      </trkpt>
      <trkpt lat="47.63834" lon="5.9534">
        <ele>221.5</ele>
        <time>2026-05-16T13:11:06+02:00</time>
      </trkpt>
      <trkpt lat="47.63835" lon="5.95345">
        <ele>221.5</ele>
        <time>2026-05-16T13:11:07+02:00</time>
      </trkpt>
      <trkpt lat="47.63837" lon="5.9535">
        <ele>221.7002</ele>
        <time>2026-05-16T13:11:08+02:00</time>
      </trkpt>
      <trkpt lat="47.63839" lon="5.95355">
        <ele>225.90039</ele>
        <time>2026-05-16T13:11:09+02:00</time>
      </trkpt>
      <trkpt lat="47.63841" lon="5.9536">
        <ele>226.2002</ele>
        <time>2026-05-16T13:11:10+02:00</time>
      </trkpt>
      <trkpt lat="47.63843" lon="5.95365">
        <ele>226.5</ele>
        <time>2026-05-16T13:11:11+02:00</time>
      </trkpt>
      <trkpt lat="47.63843" lon="5.95367">
        <ele>226.5</ele>
        <time>2026-05-16T13:11:12+02:00</time>
      </trkpt>
      <trkpt lat="47.63846" lon="5.95373">
        <ele>229</ele>
        <time>2026-05-16T13:11:13+02:00</time>
      </trkpt>
      <trkpt lat="47.63847" lon="5.95376">
        <ele>229.5</ele>
        <time>2026-05-16T13:11:14+02:00</time>
      </trkpt>
      <trkpt lat="47.63849" lon="5.9538">
        <ele>229.5</ele>
        <time>2026-05-16T13:11:15+02:00</time>
      </trkpt>
      <trkpt lat="47.63849" lon="5.95383">
        <ele>228.2002</ele>
        <time>2026-05-16T13:11:16+02:00</time>
      </trkpt>
      <trkpt lat="47.63851" lon="5.95387">
        <ele>229.60059</ele>
        <time>2026-05-16T13:11:17+02:00</time>
      </trkpt>
      <trkpt lat="47.63851" lon="5.95389">
        <ele>229.60059</ele>
        <time>2026-05-16T13:11:18+02:00</time>
      </trkpt>
      <trkpt lat="47.63853" lon="5.95395">
        <ele>227.7998</ele>
        <time>2026-05-16T13:11:19+02:00</time>
      </trkpt>
      <trkpt lat="47.63855" lon="5.95399">
        <ele>225.2002</ele>
        <time>2026-05-16T13:11:20+02:00</time>
      </trkpt>
      <trkpt lat="47.63857" lon="5.95404">
        <ele>228.40039</ele>
        <time>2026-05-16T13:11:21+02:00</time>
      </trkpt>
      <trkpt lat="47.63859" lon="5.95408">
        <ele>226.7998</ele>
        <time>2026-05-16T13:11:22+02:00</time>
      </trkpt>
      <trkpt lat="47.63861" lon="5.95412">
        <ele>226.7998</ele>
        <time>2026-05-16T13:11:23+02:00</time>
      </trkpt>
      <trkpt lat="47.63863" lon="5.95416">
        <ele>230.5</ele>
        <time>2026-05-16T13:11:24+02:00</time>
      </trkpt>
      <trkpt lat="47.63865" lon="5.95422">
        <ele>228.90039</ele>
        <time>2026-05-16T13:11:25+02:00</time>
      </trkpt>
      <trkpt lat="47.63868" lon="5.95426">
        <ele>229.7998</ele>
        <time>2026-05-16T13:11:26+02:00</time>
      </trkpt>
      <trkpt lat="47.63871" lon="5.9543">
        <ele>229.7998</ele>
        <time>2026-05-16T13:11:27+02:00</time>
      </trkpt>
      <trkpt lat="47.63873" lon="5.95435">
        <ele>227.60059</ele>
        <time>2026-05-16T13:11:28+02:00</time>
      </trkpt>
      <trkpt lat="47.63876" lon="5.9544">
        <ele>230</ele>
        <time>2026-05-16T13:11:29+02:00</time>
      </trkpt>
      <trkpt lat="47.63879" lon="5.95445">
        <ele>228.10059</ele>
        <time>2026-05-16T13:11:30+02:00</time>
      </trkpt>
      <trkpt lat="47.63882" lon="5.9545">
        <ele>230.40039</ele>
        <time>2026-05-16T13:11:31+02:00</time>
      </trkpt>
      <trkpt lat="47.63884" lon="5.95454">
        <ele>228.7002</ele>
        <time>2026-05-16T13:11:32+02:00</time>
      </trkpt>
      <trkpt lat="47.63887" lon="5.95459">
        <ele>230</ele>
        <time>2026-05-16T13:11:33+02:00</time>
      </trkpt>
      <trkpt lat="47.63889" lon="5.95463">
        <ele>230</ele>
        <time>2026-05-16T13:11:34+02:00</time>
      </trkpt>
      <trkpt lat="47.63892" lon="5.95468">
        <ele>231.5</ele>
        <time>2026-05-16T13:11:35+02:00</time>
      </trkpt>
      <trkpt lat="47.63895" lon="5.95473">
        <ele>231.5</ele>
        <time>2026-05-16T13:11:36+02:00</time>
      </trkpt>
      <trkpt lat="47.63896" lon="5.95476">
        <ele>231.5</ele>
        <time>2026-05-16T13:11:37+02:00</time>
      </trkpt>
      <trkpt lat="47.639" lon="5.95483">
        <ele>230.7002</ele>
        <time>2026-05-16T13:11:38+02:00</time>
      </trkpt>
      <trkpt lat="47.63903" lon="5.95489">
        <ele>229.90039</ele>
        <time>2026-05-16T13:11:39+02:00</time>
      </trkpt>
      <trkpt lat="47.63907" lon="5.95494">
        <ele>227.2002</ele>
        <time>2026-05-16T13:11:40+02:00</time>
      </trkpt>
      <trkpt lat="47.6391" lon="5.955">
        <ele>229.10059</ele>
        <time>2026-05-16T13:11:41+02:00</time>
      </trkpt>
      <trkpt lat="47.63913" lon="5.95505">
        <ele>227.2998</ele>
        <time>2026-05-16T13:11:42+02:00</time>
      </trkpt>
      <trkpt lat="47.63917" lon="5.9551">
        <ele>229.2998</ele>
        <time>2026-05-16T13:11:43+02:00</time>
      </trkpt>
      <trkpt lat="47.63921" lon="5.95515">
        <ele>228.5</ele>
        <time>2026-05-16T13:11:44+02:00</time>
      </trkpt>
      <trkpt lat="47.63924" lon="5.95521">
        <ele>225.7998</ele>
        <time>2026-05-16T13:11:45+02:00</time>
      </trkpt>
      <trkpt lat="47.63926" lon="5.95526">
        <ele>227</ele>
        <time>2026-05-16T13:11:46+02:00</time>
      </trkpt>
      <trkpt lat="47.63929" lon="5.95531">
        <ele>224.7998</ele>
        <time>2026-05-16T13:11:47+02:00</time>
      </trkpt>
      <trkpt lat="47.63933" lon="5.95536">
        <ele>226.7002</ele>
        <time>2026-05-16T13:11:48+02:00</time>
      </trkpt>
      <trkpt lat="47.63936" lon="5.95541">
        <ele>225.10059</ele>
        <time>2026-05-16T13:11:49+02:00</time>
      </trkpt>
      <trkpt lat="47.63939" lon="5.95547">
        <ele>224.7002</ele>
        <time>2026-05-16T13:11:50+02:00</time>
      </trkpt>
      <trkpt lat="47.63942" lon="5.95553">
        <ele>224.7002</ele>
        <time>2026-05-16T13:11:51+02:00</time>
      </trkpt>
      <trkpt lat="47.63946" lon="5.95559">
        <ele>223.60059</ele>
        <time>2026-05-16T13:11:52+02:00</time>
      </trkpt>
      <trkpt lat="47.63949" lon="5.95565">
        <ele>223.10059</ele>
        <time>2026-05-16T13:11:53+02:00</time>
      </trkpt>
      <trkpt lat="47.63952" lon="5.9557">
        <ele>223.10059</ele>
        <time>2026-05-16T13:11:54+02:00</time>
      </trkpt>
      <trkpt lat="47.63956" lon="5.95577">
        <ele>224</ele>
        <time>2026-05-16T13:11:55+02:00</time>
      </trkpt>
      <trkpt lat="47.63959" lon="5.95583">
        <ele>223.40039</ele>
        <time>2026-05-16T13:11:56+02:00</time>
      </trkpt>
      <trkpt lat="47.63963" lon="5.95588">
        <ele>225.7002</ele>
        <time>2026-05-16T13:11:57+02:00</time>
      </trkpt>
      <trkpt lat="47.63966" lon="5.95594">
        <ele>227.2998</ele>
        <time>2026-05-16T13:11:58+02:00</time>
      </trkpt>
      <trkpt lat="47.63969" lon="5.95601">
        <ele>227.10059</ele>
        <time>2026-05-16T13:11:59+02:00</time>
      </trkpt>
      <trkpt lat="47.63972" lon="5.95607">
        <ele>226.7998</ele>
        <time>2026-05-16T13:12:00+02:00</time>
      </trkpt>
      <trkpt lat="47.63975" lon="5.95614">
        <ele>224.90039</ele>
        <time>2026-05-16T13:12:01+02:00</time>
      </trkpt>
      <trkpt lat="47.63978" lon="5.95621">
        <ele>226</ele>
        <time>2026-05-16T13:12:02+02:00</time>
      </trkpt>
      <trkpt lat="47.6398" lon="5.95628">
        <ele>224.7998</ele>
        <time>2026-05-16T13:12:03+02:00</time>
      </trkpt>
      <trkpt lat="47.63981" lon="5.95635">
        <ele>223.2998</ele>
        <time>2026-05-16T13:12:04+02:00</time>
      </trkpt>
      <trkpt lat="47.63983" lon="5.95642">
        <ele>221.7998</ele>
        <time>2026-05-16T13:12:05+02:00</time>
      </trkpt>
      <trkpt lat="47.63984" lon="5.95649">
        <ele>222.10059</ele>
        <time>2026-05-16T13:12:06+02:00</time>
      </trkpt>
      <trkpt lat="47.63986" lon="5.95656">
        <ele>222.10059</ele>
        <time>2026-05-16T13:12:07+02:00</time>
      </trkpt>
      <trkpt lat="47.63987" lon="5.95664">
        <ele>220</ele>
        <time>2026-05-16T13:12:08+02:00</time>
      </trkpt>
      <trkpt lat="47.63988" lon="5.95671">
        <ele>217.90039</ele>
        <time>2026-05-16T13:12:09+02:00</time>
      </trkpt>
      <trkpt lat="47.63988" lon="5.95678">
        <ele>215.7002</ele>
        <time>2026-05-16T13:12:10+02:00</time>
      </trkpt>
      <trkpt lat="47.63989" lon="5.95686">
        <ele>213.40039</ele>
        <time>2026-05-16T13:12:11+02:00</time>
      </trkpt>
      <trkpt lat="47.6399" lon="5.95693">
        <ele>213.7998</ele>
        <time>2026-05-16T13:12:12+02:00</time>
      </trkpt>
      <trkpt lat="47.6399" lon="5.957">
        <ele>211.40039</ele>
        <time>2026-05-16T13:12:13+02:00</time>
      </trkpt>
      <trkpt lat="47.63991" lon="5.95707">
        <ele>211.40039</ele>
        <time>2026-05-16T13:12:14+02:00</time>
      </trkpt>
      <trkpt lat="47.63991" lon="5.95714">
        <ele>207.7002</ele>
        <time>2026-05-16T13:12:15+02:00</time>
      </trkpt>
      <trkpt lat="47.63992" lon="5.9572">
        <ele>203.7998</ele>
        <time>2026-05-16T13:12:16+02:00</time>
      </trkpt>
      <trkpt lat="47.63991" lon="5.95727">
        <ele>201.2002</ele>
        <time>2026-05-16T13:12:17+02:00</time>
      </trkpt>
      <trkpt lat="47.63991" lon="5.95734">
        <ele>200.40039</ele>
        <time>2026-05-16T13:12:18+02:00</time>
      </trkpt>
      <trkpt lat="47.6399" lon="5.9574">
        <ele>200.40039</ele>
        <time>2026-05-16T13:12:19+02:00</time>
      </trkpt>
      <trkpt lat="47.63989" lon="5.95746">
        <ele>200</ele>
        <time>2026-05-16T13:12:20+02:00</time>
      </trkpt>
      <trkpt lat="47.63988" lon="5.95752">
        <ele>201.5</ele>
        <time>2026-05-16T13:12:21+02:00</time>
      </trkpt>
      <trkpt lat="47.63988" lon="5.95759">
        <ele>201.5</ele>
        <time>2026-05-16T13:12:22+02:00</time>
      </trkpt>
      <trkpt lat="47.63987" lon="5.95765">
        <ele>203</ele>
        <time>2026-05-16T13:12:23+02:00</time>
      </trkpt>
      <trkpt lat="47.63987" lon="5.95767">
        <ele>203</ele>
        <time>2026-05-16T13:12:24+02:00</time>
      </trkpt>
      <trkpt lat="47.63987" lon="5.95776">
        <ele>203.7998</ele>
        <time>2026-05-16T13:12:25+02:00</time>
      </trkpt>
      <trkpt lat="47.63987" lon="5.95781">
        <ele>204.2998</ele>
        <time>2026-05-16T13:12:26+02:00</time>
      </trkpt>
      <trkpt lat="47.63988" lon="5.95786">
        <ele>204.7002</ele>
        <time>2026-05-16T13:12:27+02:00</time>
      </trkpt>
      <trkpt lat="47.63988" lon="5.95791">
        <ele>204.7002</ele>
        <time>2026-05-16T13:12:28+02:00</time>
      </trkpt>
      <trkpt lat="47.63989" lon="5.95797">
        <ele>205.2002</ele>
        <time>2026-05-16T13:12:29+02:00</time>
      </trkpt>
      <trkpt lat="47.6399" lon="5.95802">
        <ele>202.60059</ele>
        <time>2026-05-16T13:12:30+02:00</time>
      </trkpt>
      <trkpt lat="47.63991" lon="5.95807">
        <ele>203</ele>
        <time>2026-05-16T13:12:31+02:00</time>
      </trkpt>
      <trkpt lat="47.63993" lon="5.95812">
        <ele>203.60059</ele>
        <time>2026-05-16T13:12:32+02:00</time>
      </trkpt>
      <trkpt lat="47.63994" lon="5.95817">
        <ele>203.60059</ele>
        <time>2026-05-16T13:12:33+02:00</time>
      </trkpt>
      <trkpt lat="47.63996" lon="5.95822">
        <ele>201.60059</ele>
        <time>2026-05-16T13:12:34+02:00</time>
      </trkpt>
      <trkpt lat="47.63999" lon="5.95827">
        <ele>201.60059</ele>
        <time>2026-05-16T13:12:35+02:00</time>
      </trkpt>
      <trkpt lat="47.64001" lon="5.95832">
        <ele>199.10059</ele>
        <time>2026-05-16T13:12:36+02:00</time>
      </trkpt>
      <trkpt lat="47.64003" lon="5.95837">
        <ele>200.7002</ele>
        <time>2026-05-16T13:12:37+02:00</time>
      </trkpt>
      <trkpt lat="47.64005" lon="5.95841">
        <ele>200.7002</ele>
        <time>2026-05-16T13:12:38+02:00</time>
      </trkpt>
      <trkpt lat="47.64007" lon="5.95845">
        <ele>199.5</ele>
        <time>2026-05-16T13:12:39+02:00</time>
      </trkpt>
      <trkpt lat="47.64009" lon="5.95849">
        <ele>201.40039</ele>
        <time>2026-05-16T13:12:40+02:00</time>
      </trkpt>
      <trkpt lat="47.64011" lon="5.95853">
        <ele>201.40039</ele>
        <time>2026-05-16T13:12:41+02:00</time>
      </trkpt>
      <trkpt lat="47.64013" lon="5.95858">
        <ele>201.7998</ele>
        <time>2026-05-16T13:12:42+02:00</time>
      </trkpt>
      <trkpt lat="47.64015" lon="5.95862">
        <ele>201.7998</ele>
        <time>2026-05-16T13:12:43+02:00</time>
      </trkpt>
      <trkpt lat="47.64017" lon="5.95867">
        <ele>202.7002</ele>
        <time>2026-05-16T13:12:44+02:00</time>
      </trkpt>
      <trkpt lat="47.64019" lon="5.95872">
        <ele>201.7002</ele>
        <time>2026-05-16T13:12:45+02:00</time>
      </trkpt>
      <trkpt lat="47.64021" lon="5.95877">
        <ele>201.7002</ele>
        <time>2026-05-16T13:12:46+02:00</time>
      </trkpt>
      <trkpt lat="47.64023" lon="5.95881">
        <ele>201.7998</ele>
        <time>2026-05-16T13:12:47+02:00</time>
      </trkpt>
      <trkpt lat="47.64025" lon="5.95886">
        <ele>202.60059</ele>
        <time>2026-05-16T13:12:48+02:00</time>
      </trkpt>
      <trkpt lat="47.64026" lon="5.95891">
        <ele>203.2002</ele>
        <time>2026-05-16T13:12:49+02:00</time>
      </trkpt>
      <trkpt lat="47.64028" lon="5.95897">
        <ele>203.2998</ele>
        <time>2026-05-16T13:12:50+02:00</time>
      </trkpt>
      <trkpt lat="47.6403" lon="5.95902">
        <ele>205.2002</ele>
        <time>2026-05-16T13:12:51+02:00</time>
      </trkpt>
      <trkpt lat="47.64031" lon="5.95907">
        <ele>204.40039</ele>
        <time>2026-05-16T13:12:52+02:00</time>
      </trkpt>
      <trkpt lat="47.64033" lon="5.95913">
        <ele>204.40039</ele>
        <time>2026-05-16T13:12:53+02:00</time>
      </trkpt>
      <trkpt lat="47.64034" lon="5.95918">
        <ele>205.7998</ele>
        <time>2026-05-16T13:12:54+02:00</time>
      </trkpt>
      <trkpt lat="47.64036" lon="5.95924">
        <ele>203.90039</ele>
        <time>2026-05-16T13:12:55+02:00</time>
      </trkpt>
      <trkpt lat="47.64037" lon="5.9593">
        <ele>203.90039</ele>
        <time>2026-05-16T13:12:56+02:00</time>
      </trkpt>
      <trkpt lat="47.64039" lon="5.95936">
        <ele>203.90039</ele>
        <time>2026-05-16T13:12:57+02:00</time>
      </trkpt>
      <trkpt lat="47.6404" lon="5.95942">
        <ele>204</ele>
        <time>2026-05-16T13:12:58+02:00</time>
      </trkpt>
      <trkpt lat="47.64041" lon="5.95948">
        <ele>201.2998</ele>
        <time>2026-05-16T13:12:59+02:00</time>
      </trkpt>
      <trkpt lat="47.64042" lon="5.95954">
        <ele>201.7998</ele>
        <time>2026-05-16T13:13:00+02:00</time>
      </trkpt>
      <trkpt lat="47.64044" lon="5.95959">
        <ele>202.2998</ele>
        <time>2026-05-16T13:13:01+02:00</time>
      </trkpt>
      <trkpt lat="47.64045" lon="5.95965">
        <ele>202.2998</ele>
        <time>2026-05-16T13:13:02+02:00</time>
      </trkpt>
      <trkpt lat="47.64046" lon="5.9597">
        <ele>202.7002</ele>
        <time>2026-05-16T13:13:03+02:00</time>
      </trkpt>
      <trkpt lat="47.64047" lon="5.95975">
        <ele>201.2002</ele>
        <time>2026-05-16T13:13:04+02:00</time>
      </trkpt>
      <trkpt lat="47.64048" lon="5.9598">
        <ele>201.2002</ele>
        <time>2026-05-16T13:13:05+02:00</time>
      </trkpt>
      <trkpt lat="47.64049" lon="5.95984">
        <ele>201.10059</ele>
        <time>2026-05-16T13:13:06+02:00</time>
      </trkpt>
      <trkpt lat="47.64049" lon="5.95989">
        <ele>201.10059</ele>
        <time>2026-05-16T13:13:07+02:00</time>
      </trkpt>
      <trkpt lat="47.6405" lon="5.95993">
        <ele>201.10059</ele>
        <time>2026-05-16T13:13:08+02:00</time>
      </trkpt>
      <trkpt lat="47.6405" lon="5.95997">
        <ele>201.10059</ele>
        <time>2026-05-16T13:13:09+02:00</time>
      </trkpt>
      <trkpt lat="47.64051" lon="5.96">
        <ele>203</ele>
        <time>2026-05-16T13:13:10+02:00</time>
      </trkpt>
      <trkpt lat="47.64052" lon="5.96004">
        <ele>203</ele>
        <time>2026-05-16T13:13:11+02:00</time>
      </trkpt>
      <trkpt lat="47.64053" lon="5.96007">
        <ele>200.2998</ele>
        <time>2026-05-16T13:13:12+02:00</time>
      </trkpt>
      <trkpt lat="47.64055" lon="5.96011">
        <ele>202.90039</ele>
        <time>2026-05-16T13:13:13+02:00</time>
      </trkpt>
      <trkpt lat="47.64057" lon="5.96016">
        <ele>202.90039</ele>
        <time>2026-05-16T13:13:14+02:00</time>
      </trkpt>
      <trkpt lat="47.64058" lon="5.96021">
        <ele>205.60059</ele>
        <time>2026-05-16T13:13:15+02:00</time>
      </trkpt>
      <trkpt lat="47.6406" lon="5.96026">
        <ele>204.7002</ele>
        <time>2026-05-16T13:13:16+02:00</time>
      </trkpt>
      <trkpt lat="47.64061" lon="5.96031">
        <ele>204.7002</ele>
        <time>2026-05-16T13:13:17+02:00</time>
      </trkpt>
      <trkpt lat="47.64062" lon="5.96037">
        <ele>205.90039</ele>
        <time>2026-05-16T13:13:18+02:00</time>
      </trkpt>
      <trkpt lat="47.64063" lon="5.96042">
        <ele>205.90039</ele>
        <time>2026-05-16T13:13:19+02:00</time>
      </trkpt>
      <trkpt lat="47.64064" lon="5.96048">
        <ele>206.90039</ele>
        <time>2026-05-16T13:13:20+02:00</time>
      </trkpt>
      <trkpt lat="47.64066" lon="5.96054">
        <ele>203.90039</ele>
        <time>2026-05-16T13:13:21+02:00</time>
      </trkpt>
      <trkpt lat="47.64067" lon="5.96059">
        <ele>203.90039</ele>
        <time>2026-05-16T13:13:22+02:00</time>
      </trkpt>
      <trkpt lat="47.64069" lon="5.96065">
        <ele>205.2002</ele>
        <time>2026-05-16T13:13:23+02:00</time>
      </trkpt>
      <trkpt lat="47.6407" lon="5.96072">
        <ele>206</ele>
        <time>2026-05-16T13:13:24+02:00</time>
      </trkpt>
      <trkpt lat="47.64071" lon="5.96077">
        <ele>210.10059</ele>
        <time>2026-05-16T13:13:25+02:00</time>
      </trkpt>
      <trkpt lat="47.64073" lon="5.96084">
        <ele>210.10059</ele>
        <time>2026-05-16T13:13:26+02:00</time>
      </trkpt>
      <trkpt lat="47.64074" lon="5.9609">
        <ele>213.2998</ele>
        <time>2026-05-16T13:13:27+02:00</time>
      </trkpt>
      <trkpt lat="47.64076" lon="5.96093">
        <ele>210.40039</ele>
        <time>2026-05-16T13:13:28+02:00</time>
      </trkpt>
      <trkpt lat="47.64078" lon="5.96103">
        <ele>212</ele>
        <time>2026-05-16T13:13:29+02:00</time>
      </trkpt>
      <trkpt lat="47.64079" lon="5.9611">
        <ele>212</ele>
        <time>2026-05-16T13:13:30+02:00</time>
      </trkpt>
      <trkpt lat="47.64081" lon="5.96117">
        <ele>212.10059</ele>
        <time>2026-05-16T13:13:31+02:00</time>
      </trkpt>
      <trkpt lat="47.64082" lon="5.96124">
        <ele>208</ele>
        <time>2026-05-16T13:13:32+02:00</time>
      </trkpt>
      <trkpt lat="47.64084" lon="5.96131">
        <ele>209</ele>
        <time>2026-05-16T13:13:33+02:00</time>
      </trkpt>
      <trkpt lat="47.64086" lon="5.96138">
        <ele>210.10059</ele>
        <time>2026-05-16T13:13:34+02:00</time>
      </trkpt>
      <trkpt lat="47.64087" lon="5.96144">
        <ele>210.10059</ele>
        <time>2026-05-16T13:13:35+02:00</time>
      </trkpt>
      <trkpt lat="47.64089" lon="5.96151">
        <ele>206.40039</ele>
        <time>2026-05-16T13:13:36+02:00</time>
      </trkpt>
      <trkpt lat="47.6409" lon="5.96158">
        <ele>207.40039</ele>
        <time>2026-05-16T13:13:37+02:00</time>
      </trkpt>
      <trkpt lat="47.64091" lon="5.96162">
        <ele>207.40039</ele>
        <time>2026-05-16T13:13:38+02:00</time>
      </trkpt>
      <trkpt lat="47.64094" lon="5.96172">
        <ele>210.2998</ele>
        <time>2026-05-16T13:13:39+02:00</time>
      </trkpt>
      <trkpt lat="47.64095" lon="5.96179">
        <ele>210.2998</ele>
        <time>2026-05-16T13:13:40+02:00</time>
      </trkpt>
      <trkpt lat="47.64097" lon="5.96186">
        <ele>214.2998</ele>
        <time>2026-05-16T13:13:41+02:00</time>
      </trkpt>
      <trkpt lat="47.64098" lon="5.96193">
        <ele>216.7002</ele>
        <time>2026-05-16T13:13:42+02:00</time>
      </trkpt>
      <trkpt lat="47.641" lon="5.962">
        <ele>214.7998</ele>
        <time>2026-05-16T13:13:43+02:00</time>
      </trkpt>
      <trkpt lat="47.64102" lon="5.96207">
        <ele>215</ele>
        <time>2026-05-16T13:13:44+02:00</time>
      </trkpt>
      <trkpt lat="47.64103" lon="5.96214">
        <ele>215</ele>
        <time>2026-05-16T13:13:45+02:00</time>
      </trkpt>
      <trkpt lat="47.64105" lon="5.96221">
        <ele>210.60059</ele>
        <time>2026-05-16T13:13:46+02:00</time>
      </trkpt>
      <trkpt lat="47.64107" lon="5.96228">
        <ele>211.5</ele>
        <time>2026-05-16T13:13:47+02:00</time>
      </trkpt>
      <trkpt lat="47.64108" lon="5.96232">
        <ele>212.60059</ele>
        <time>2026-05-16T13:13:48+02:00</time>
      </trkpt>
      <trkpt lat="47.64111" lon="5.96243">
        <ele>208.7002</ele>
        <time>2026-05-16T13:13:49+02:00</time>
      </trkpt>
      <trkpt lat="47.64113" lon="5.96251">
        <ele>209.7998</ele>
        <time>2026-05-16T13:13:50+02:00</time>
      </trkpt>
      <trkpt lat="47.64115" lon="5.96258">
        <ele>211.40039</ele>
        <time>2026-05-16T13:13:51+02:00</time>
      </trkpt>
      <trkpt lat="47.64117" lon="5.96266">
        <ele>209.60059</ele>
        <time>2026-05-16T13:13:52+02:00</time>
      </trkpt>
      <trkpt lat="47.64119" lon="5.96273">
        <ele>209.60059</ele>
        <time>2026-05-16T13:13:53+02:00</time>
      </trkpt>
      <trkpt lat="47.64121" lon="5.96281">
        <ele>213.10059</ele>
        <time>2026-05-16T13:13:54+02:00</time>
      </trkpt>
      <trkpt lat="47.64124" lon="5.96289">
        <ele>212.7002</ele>
        <time>2026-05-16T13:13:55+02:00</time>
      </trkpt>
      <trkpt lat="47.64126" lon="5.96296">
        <ele>214.2002</ele>
        <time>2026-05-16T13:13:56+02:00</time>
      </trkpt>
      <trkpt lat="47.64129" lon="5.96304">
        <ele>211.2998</ele>
        <time>2026-05-16T13:13:57+02:00</time>
      </trkpt>
      <trkpt lat="47.64131" lon="5.96311">
        <ele>211.7002</ele>
        <time>2026-05-16T13:13:58+02:00</time>
      </trkpt>
      <trkpt lat="47.64134" lon="5.96319">
        <ele>208.2002</ele>
        <time>2026-05-16T13:13:59+02:00</time>
      </trkpt>
      <trkpt lat="47.64136" lon="5.96327">
        <ele>209.10059</ele>
        <time>2026-05-16T13:14:00+02:00</time>
      </trkpt>
      <trkpt lat="47.64139" lon="5.96335">
        <ele>210.10059</ele>
        <time>2026-05-16T13:14:01+02:00</time>
      </trkpt>
      <trkpt lat="47.6414" lon="5.96339">
        <ele>206</ele>
        <time>2026-05-16T13:14:02+02:00</time>
      </trkpt>
      <trkpt lat="47.64144" lon="5.96352">
        <ele>207.7002</ele>
        <time>2026-05-16T13:14:03+02:00</time>
      </trkpt>
      <trkpt lat="47.64147" lon="5.96361">
        <ele>205.90039</ele>
        <time>2026-05-16T13:14:04+02:00</time>
      </trkpt>
      <trkpt lat="47.6415" lon="5.96371">
        <ele>208.5</ele>
        <time>2026-05-16T13:14:05+02:00</time>
      </trkpt>
      <trkpt lat="47.64152" lon="5.96381">
        <ele>208.2002</ele>
        <time>2026-05-16T13:14:06+02:00</time>
      </trkpt>
      <trkpt lat="47.64155" lon="5.96392">
        <ele>209.90039</ele>
        <time>2026-05-16T13:14:07+02:00</time>
      </trkpt>
      <trkpt lat="47.64159" lon="5.96403">
        <ele>207.90039</ele>
        <time>2026-05-16T13:14:08+02:00</time>
      </trkpt>
      <trkpt lat="47.64162" lon="5.96414">
        <ele>209.60059</ele>
        <time>2026-05-16T13:14:09+02:00</time>
      </trkpt>
      <trkpt lat="47.64166" lon="5.96425">
        <ele>207.10059</ele>
        <time>2026-05-16T13:14:10+02:00</time>
      </trkpt>
      <trkpt lat="47.6417" lon="5.96436">
        <ele>206.2998</ele>
        <time>2026-05-16T13:14:11+02:00</time>
      </trkpt>
      <trkpt lat="47.64174" lon="5.96448">
        <ele>210.60059</ele>
        <time>2026-05-16T13:14:12+02:00</time>
      </trkpt>
      <trkpt lat="47.64177" lon="5.9646">
        <ele>209.5</ele>
        <time>2026-05-16T13:14:13+02:00</time>
      </trkpt>
      <trkpt lat="47.64182" lon="5.96472">
        <ele>207.2998</ele>
        <time>2026-05-16T13:14:14+02:00</time>
      </trkpt>
      <trkpt lat="47.64185" lon="5.96485">
        <ele>208.10059</ele>
        <time>2026-05-16T13:14:15+02:00</time>
      </trkpt>
      <trkpt lat="47.64189" lon="5.96498">
        <ele>206.90039</ele>
        <time>2026-05-16T13:14:16+02:00</time>
      </trkpt>
      <trkpt lat="47.64192" lon="5.96513">
        <ele>204.40039</ele>
        <time>2026-05-16T13:14:17+02:00</time>
      </trkpt>
      <trkpt lat="47.64196" lon="5.96527">
        <ele>207.90039</ele>
        <time>2026-05-16T13:14:18+02:00</time>
      </trkpt>
      <trkpt lat="47.64199" lon="5.96542">
        <ele>211.40039</ele>
        <time>2026-05-16T13:14:19+02:00</time>
      </trkpt>
      <trkpt lat="47.64203" lon="5.96557">
        <ele>213</ele>
        <time>2026-05-16T13:14:20+02:00</time>
      </trkpt>
      <trkpt lat="47.64206" lon="5.96573">
        <ele>211</ele>
        <time>2026-05-16T13:14:21+02:00</time>
      </trkpt>
      <trkpt lat="47.64208" lon="5.96581">
        <ele>211.2002</ele>
        <time>2026-05-16T13:14:22+02:00</time>
      </trkpt>
      <trkpt lat="47.64214" lon="5.96605">
        <ele>210.40039</ele>
        <time>2026-05-16T13:14:23+02:00</time>
      </trkpt>
      <trkpt lat="47.64218" lon="5.96621">
        <ele>208.90039</ele>
        <time>2026-05-16T13:14:24+02:00</time>
      </trkpt>
      <trkpt lat="47.64222" lon="5.96637">
        <ele>209.7002</ele>
        <time>2026-05-16T13:14:25+02:00</time>
      </trkpt>
      <trkpt lat="47.64226" lon="5.96654">
        <ele>210</ele>
        <time>2026-05-16T13:14:26+02:00</time>
      </trkpt>
      <trkpt lat="47.6423" lon="5.9667">
        <ele>211.7002</ele>
        <time>2026-05-16T13:14:27+02:00</time>
      </trkpt>
      <trkpt lat="47.64235" lon="5.96685">
        <ele>209</ele>
        <time>2026-05-16T13:14:28+02:00</time>
      </trkpt>
      <trkpt lat="47.64238" lon="5.967">
        <ele>207.2002</ele>
        <time>2026-05-16T13:14:29+02:00</time>
      </trkpt>
      <trkpt lat="47.64242" lon="5.96712">
        <ele>207.7998</ele>
        <time>2026-05-16T13:14:30+02:00</time>
      </trkpt>
      <trkpt lat="47.64244" lon="5.96721">
        <ele>206.7002</ele>
        <time>2026-05-16T13:14:31+02:00</time>
      </trkpt>
      <trkpt lat="47.64245" lon="5.9673">
        <ele>208.2002</ele>
        <time>2026-05-16T13:14:32+02:00</time>
      </trkpt>
      <trkpt lat="47.64247" lon="5.96738">
        <ele>209.40039</ele>
        <time>2026-05-16T13:14:33+02:00</time>
      </trkpt>
      <trkpt lat="47.64248" lon="5.96746">
        <ele>209.40039</ele>
        <time>2026-05-16T13:14:34+02:00</time>
      </trkpt>
      <trkpt lat="47.6425" lon="5.96752">
        <ele>208.40039</ele>
        <time>2026-05-16T13:14:35+02:00</time>
      </trkpt>
      <trkpt lat="47.64252" lon="5.96758">
        <ele>209.2002</ele>
        <time>2026-05-16T13:14:36+02:00</time>
      </trkpt>
      <trkpt lat="47.64255" lon="5.96761">
        <ele>207.10059</ele>
        <time>2026-05-16T13:14:37+02:00</time>
      </trkpt>
      <trkpt lat="47.64259" lon="5.96762">
        <ele>207.10059</ele>
        <time>2026-05-16T13:14:38+02:00</time>
      </trkpt>
      <trkpt lat="47.64263" lon="5.96762">
        <ele>205</ele>
        <time>2026-05-16T13:14:39+02:00</time>
      </trkpt>
      <trkpt lat="47.64268" lon="5.9676">
        <ele>203.10059</ele>
        <time>2026-05-16T13:14:40+02:00</time>
      </trkpt>
      <trkpt lat="47.64273" lon="5.96757">
        <ele>201.7998</ele>
        <time>2026-05-16T13:14:41+02:00</time>
      </trkpt>
      <trkpt lat="47.64278" lon="5.96754">
        <ele>201.60059</ele>
        <time>2026-05-16T13:14:42+02:00</time>
      </trkpt>
      <trkpt lat="47.6428" lon="5.96752">
        <ele>201.2998</ele>
        <time>2026-05-16T13:14:43+02:00</time>
      </trkpt>
      <trkpt lat="47.64289" lon="5.96748">
        <ele>201.90039</ele>
        <time>2026-05-16T13:14:44+02:00</time>
      </trkpt>
      <trkpt lat="47.64295" lon="5.96745">
        <ele>204</ele>
        <time>2026-05-16T13:14:45+02:00</time>
      </trkpt>
      <trkpt lat="47.64301" lon="5.96743">
        <ele>206.2002</ele>
        <time>2026-05-16T13:14:46+02:00</time>
      </trkpt>
      <trkpt lat="47.64307" lon="5.9674">
        <ele>208.40039</ele>
        <time>2026-05-16T13:14:47+02:00</time>
      </trkpt>
      <trkpt lat="47.64314" lon="5.96737">
        <ele>215</ele>
        <time>2026-05-16T13:14:48+02:00</time>
      </trkpt>
      <trkpt lat="47.6432" lon="5.96734">
        <ele>217.2998</ele>
        <time>2026-05-16T13:14:49+02:00</time>
      </trkpt>
      <trkpt lat="47.64327" lon="5.96732">
        <ele>217.7002</ele>
        <time>2026-05-16T13:14:50+02:00</time>
      </trkpt>
      <trkpt lat="47.64334" lon="5.9673">
        <ele>217</ele>
        <time>2026-05-16T13:14:51+02:00</time>
      </trkpt>
      <trkpt lat="47.6434" lon="5.96727">
        <ele>216.5</ele>
        <time>2026-05-16T13:14:52+02:00</time>
      </trkpt>
      <trkpt lat="47.64347" lon="5.96724">
        <ele>215.5</ele>
        <time>2026-05-16T13:14:53+02:00</time>
      </trkpt>
      <trkpt lat="47.64353" lon="5.96722">
        <ele>214.90039</ele>
        <time>2026-05-16T13:14:54+02:00</time>
      </trkpt>
      <trkpt lat="47.64359" lon="5.96719">
        <ele>214.90039</ele>
        <time>2026-05-16T13:14:55+02:00</time>
      </trkpt>
      <trkpt lat="47.64365" lon="5.96717">
        <ele>213.90039</ele>
        <time>2026-05-16T13:14:56+02:00</time>
      </trkpt>
      <trkpt lat="47.64371" lon="5.96714">
        <ele>213.40039</ele>
        <time>2026-05-16T13:14:57+02:00</time>
      </trkpt>
      <trkpt lat="47.64377" lon="5.96711">
        <ele>213.60059</ele>
        <time>2026-05-16T13:14:58+02:00</time>
      </trkpt>
      <trkpt lat="47.64383" lon="5.96708">
        <ele>213.10059</ele>
        <time>2026-05-16T13:14:59+02:00</time>
      </trkpt>
      <trkpt lat="47.6439" lon="5.96705">
        <ele>212.60059</ele>
        <time>2026-05-16T13:15:00+02:00</time>
      </trkpt>
      <trkpt lat="47.64396" lon="5.96701">
        <ele>212.7998</ele>
        <time>2026-05-16T13:15:01+02:00</time>
      </trkpt>
      <trkpt lat="47.64399" lon="5.967">
        <ele>212.7998</ele>
        <time>2026-05-16T13:15:02+02:00</time>
      </trkpt>
      <trkpt lat="47.64408" lon="5.96694">
        <ele>212.5</ele>
        <time>2026-05-16T13:15:03+02:00</time>
      </trkpt>
      <trkpt lat="47.64414" lon="5.9669">
        <ele>211.7998</ele>
        <time>2026-05-16T13:15:04+02:00</time>
      </trkpt>
      <trkpt lat="47.6442" lon="5.96686">
        <ele>212</ele>
        <time>2026-05-16T13:15:05+02:00</time>
      </trkpt>
      <trkpt lat="47.64427" lon="5.96682">
        <ele>211.2002</ele>
        <time>2026-05-16T13:15:06+02:00</time>
      </trkpt>
      <trkpt lat="47.64433" lon="5.96679">
        <ele>210.5</ele>
        <time>2026-05-16T13:15:07+02:00</time>
      </trkpt>
      <trkpt lat="47.64439" lon="5.96675">
        <ele>211.2002</ele>
        <time>2026-05-16T13:15:08+02:00</time>
      </trkpt>
      <trkpt lat="47.64445" lon="5.96671">
        <ele>210.5</ele>
        <time>2026-05-16T13:15:09+02:00</time>
      </trkpt>
      <trkpt lat="47.64452" lon="5.96667">
        <ele>210.60059</ele>
        <time>2026-05-16T13:15:10+02:00</time>
      </trkpt>
      <trkpt lat="47.64458" lon="5.96663">
        <ele>210</ele>
        <time>2026-05-16T13:15:11+02:00</time>
      </trkpt>
      <trkpt lat="47.64464" lon="5.9666">
        <ele>211</ele>
        <time>2026-05-16T13:15:12+02:00</time>
      </trkpt>
      <trkpt lat="47.64467" lon="5.96658">
        <ele>211</ele>
        <time>2026-05-16T13:15:13+02:00</time>
      </trkpt>
      <trkpt lat="47.64476" lon="5.96652">
        <ele>211.7002</ele>
        <time>2026-05-16T13:15:14+02:00</time>
      </trkpt>
      <trkpt lat="47.64482" lon="5.96648">
        <ele>211.2998</ele>
        <time>2026-05-16T13:15:15+02:00</time>
      </trkpt>
      <trkpt lat="47.64488" lon="5.96644">
        <ele>210.7998</ele>
        <time>2026-05-16T13:15:16+02:00</time>
      </trkpt>
      <trkpt lat="47.64494" lon="5.96641">
        <ele>212.10059</ele>
        <time>2026-05-16T13:15:17+02:00</time>
      </trkpt>
      <trkpt lat="47.645" lon="5.96637">
        <ele>211.7002</ele>
        <time>2026-05-16T13:15:18+02:00</time>
      </trkpt>
      <trkpt lat="47.64506" lon="5.96634">
        <ele>212.90039</ele>
        <time>2026-05-16T13:15:19+02:00</time>
      </trkpt>
      <trkpt lat="47.64512" lon="5.9663">
        <ele>212.60059</ele>
        <time>2026-05-16T13:15:20+02:00</time>
      </trkpt>
      <trkpt lat="47.64518" lon="5.96626">
        <ele>213.90039</ele>
        <time>2026-05-16T13:15:21+02:00</time>
      </trkpt>
      <trkpt lat="47.64525" lon="5.96623">
        <ele>213.5</ele>
        <time>2026-05-16T13:15:22+02:00</time>
      </trkpt>
      <trkpt lat="47.6453" lon="5.96619">
        <ele>212.90039</ele>
        <time>2026-05-16T13:15:23+02:00</time>
      </trkpt>
      <trkpt lat="47.64536" lon="5.96616">
        <ele>213.60059</ele>
        <time>2026-05-16T13:15:24+02:00</time>
      </trkpt>
      <trkpt lat="47.64543" lon="5.96613">
        <ele>212.90039</ele>
        <time>2026-05-16T13:15:25+02:00</time>
      </trkpt>
      <trkpt lat="47.64548" lon="5.96609">
        <ele>213.5</ele>
        <time>2026-05-16T13:15:26+02:00</time>
      </trkpt>
      <trkpt lat="47.64554" lon="5.96606">
        <ele>212.7002</ele>
        <time>2026-05-16T13:15:27+02:00</time>
      </trkpt>
      <trkpt lat="47.64559" lon="5.96603">
        <ele>212</ele>
        <time>2026-05-16T13:15:28+02:00</time>
      </trkpt>
      <trkpt lat="47.64565" lon="5.966">
        <ele>212.10059</ele>
        <time>2026-05-16T13:15:29+02:00</time>
      </trkpt>
      <trkpt lat="47.64571" lon="5.96597">
        <ele>211.2998</ele>
        <time>2026-05-16T13:15:30+02:00</time>
      </trkpt>
      <trkpt lat="47.64577" lon="5.96594">
        <ele>210.5</ele>
        <time>2026-05-16T13:15:31+02:00</time>
      </trkpt>
      <trkpt lat="47.64583" lon="5.96591">
        <ele>210.2998</ele>
        <time>2026-05-16T13:15:32+02:00</time>
      </trkpt>
      <trkpt lat="47.64588" lon="5.96589">
        <ele>209.5</ele>
        <time>2026-05-16T13:15:33+02:00</time>
      </trkpt>
      <trkpt lat="47.64594" lon="5.96585">
        <ele>208.90039</ele>
        <time>2026-05-16T13:15:34+02:00</time>
      </trkpt>
      <trkpt lat="47.646" lon="5.96583">
        <ele>208.5</ele>
        <time>2026-05-16T13:15:35+02:00</time>
      </trkpt>
      <trkpt lat="47.64605" lon="5.96581">
        <ele>208</ele>
        <time>2026-05-16T13:15:36+02:00</time>
      </trkpt>
      <trkpt lat="47.64611" lon="5.96578">
        <ele>207.5</ele>
        <time>2026-05-16T13:15:37+02:00</time>
      </trkpt>
      <trkpt lat="47.64617" lon="5.96575">
        <ele>207.10059</ele>
        <time>2026-05-16T13:15:38+02:00</time>
      </trkpt>
      <trkpt lat="47.64622" lon="5.96571">
        <ele>207</ele>
        <time>2026-05-16T13:15:39+02:00</time>
      </trkpt>
      <trkpt lat="47.64628" lon="5.96568">
        <ele>206.7002</ele>
        <time>2026-05-16T13:15:40+02:00</time>
      </trkpt>
      <trkpt lat="47.64633" lon="5.96565">
        <ele>207.10059</ele>
        <time>2026-05-16T13:15:41+02:00</time>
      </trkpt>
      <trkpt lat="47.64639" lon="5.96563">
        <ele>207.10059</ele>
        <time>2026-05-16T13:15:42+02:00</time>
      </trkpt>
      <trkpt lat="47.64645" lon="5.9656">
        <ele>207.10059</ele>
        <time>2026-05-16T13:15:43+02:00</time>
      </trkpt>
      <trkpt lat="47.6465" lon="5.96558">
        <ele>207.2002</ele>
        <time>2026-05-16T13:15:44+02:00</time>
      </trkpt>
      <trkpt lat="47.64656" lon="5.96557">
        <ele>208</ele>
        <time>2026-05-16T13:15:45+02:00</time>
      </trkpt>
      <trkpt lat="47.64662" lon="5.96555">
        <ele>208.10059</ele>
        <time>2026-05-16T13:15:46+02:00</time>
      </trkpt>
      <trkpt lat="47.64668" lon="5.96554">
        <ele>208.2002</ele>
        <time>2026-05-16T13:15:47+02:00</time>
      </trkpt>
      <trkpt lat="47.64674" lon="5.96553">
        <ele>208.40039</ele>
        <time>2026-05-16T13:15:48+02:00</time>
      </trkpt>
      <trkpt lat="47.6468" lon="5.96553">
        <ele>208.60059</ele>
        <time>2026-05-16T13:15:49+02:00</time>
      </trkpt>
      <trkpt lat="47.64686" lon="5.96553">
        <ele>208.7998</ele>
        <time>2026-05-16T13:15:50+02:00</time>
      </trkpt>
      <trkpt lat="47.64692" lon="5.96553">
        <ele>209.2002</ele>
        <time>2026-05-16T13:15:51+02:00</time>
      </trkpt>
      <trkpt lat="47.64698" lon="5.96553">
        <ele>209.5</ele>
        <time>2026-05-16T13:15:52+02:00</time>
      </trkpt>
      <trkpt lat="47.64704" lon="5.96553">
        <ele>209.90039</ele>
        <time>2026-05-16T13:15:53+02:00</time>
      </trkpt>
      <trkpt lat="47.64709" lon="5.96554">
        <ele>210.40039</ele>
        <time>2026-05-16T13:15:54+02:00</time>
      </trkpt>
      <trkpt lat="47.64714" lon="5.96555">
        <ele>210.90039</ele>
        <time>2026-05-16T13:15:55+02:00</time>
      </trkpt>
      <trkpt lat="47.6472" lon="5.96555">
        <ele>211.40039</ele>
        <time>2026-05-16T13:15:56+02:00</time>
      </trkpt>
      <trkpt lat="47.64725" lon="5.96555">
        <ele>211.7998</ele>
        <time>2026-05-16T13:15:57+02:00</time>
      </trkpt>
      <trkpt lat="47.64731" lon="5.96555">
        <ele>212.2002</ele>
        <time>2026-05-16T13:15:58+02:00</time>
      </trkpt>
      <trkpt lat="47.64737" lon="5.96555">
        <ele>212.60059</ele>
        <time>2026-05-16T13:15:59+02:00</time>
      </trkpt>
      <trkpt lat="47.64742" lon="5.96554">
        <ele>213</ele>
        <time>2026-05-16T13:16:00+02:00</time>
      </trkpt>
      <trkpt lat="47.64749" lon="5.96554">
        <ele>213.5</ele>
        <time>2026-05-16T13:16:01+02:00</time>
      </trkpt>
      <trkpt lat="47.64755" lon="5.96553">
        <ele>214.10059</ele>
        <time>2026-05-16T13:16:02+02:00</time>
      </trkpt>
      <trkpt lat="47.64761" lon="5.96552">
        <ele>214.7998</ele>
        <time>2026-05-16T13:16:03+02:00</time>
      </trkpt>
      <trkpt lat="47.64767" lon="5.96552">
        <ele>215.40039</ele>
        <time>2026-05-16T13:16:04+02:00</time>
      </trkpt>
      <trkpt lat="47.64773" lon="5.96551">
        <ele>215.90039</ele>
        <time>2026-05-16T13:16:05+02:00</time>
      </trkpt>
      <trkpt lat="47.64778" lon="5.96551">
        <ele>216.40039</ele>
        <time>2026-05-16T13:16:06+02:00</time>
      </trkpt>
      <trkpt lat="47.64784" lon="5.9655">
        <ele>216.90039</ele>
        <time>2026-05-16T13:16:07+02:00</time>
      </trkpt>
      <trkpt lat="47.64789" lon="5.96549">
        <ele>218.7002</ele>
        <time>2026-05-16T13:16:08+02:00</time>
      </trkpt>
      <trkpt lat="47.64794" lon="5.96549">
        <ele>219</ele>
        <time>2026-05-16T13:16:09+02:00</time>
      </trkpt>
      <trkpt lat="47.64799" lon="5.96548">
        <ele>219.10059</ele>
        <time>2026-05-16T13:16:10+02:00</time>
      </trkpt>
      <trkpt lat="47.64805" lon="5.96547">
        <ele>219.2002</ele>
        <time>2026-05-16T13:16:11+02:00</time>
      </trkpt>
      <trkpt lat="47.6481" lon="5.96546">
        <ele>219.2002</ele>
        <time>2026-05-16T13:16:12+02:00</time>
      </trkpt>
      <trkpt lat="47.64816" lon="5.96545">
        <ele>219.2002</ele>
        <time>2026-05-16T13:16:13+02:00</time>
      </trkpt>
      <trkpt lat="47.64821" lon="5.96545">
        <ele>219.2998</ele>
        <time>2026-05-16T13:16:14+02:00</time>
      </trkpt>
      <trkpt lat="47.64827" lon="5.96544">
        <ele>219.2998</ele>
        <time>2026-05-16T13:16:15+02:00</time>
      </trkpt>
      <trkpt lat="47.64832" lon="5.96544">
        <ele>219.2002</ele>
        <time>2026-05-16T13:16:16+02:00</time>
      </trkpt>
      <trkpt lat="47.64838" lon="5.96543">
        <ele>219.10059</ele>
        <time>2026-05-16T13:16:17+02:00</time>
      </trkpt>
      <trkpt lat="47.64843" lon="5.96543">
        <ele>218.7998</ele>
        <time>2026-05-16T13:16:18+02:00</time>
      </trkpt>
      <trkpt lat="47.64848" lon="5.96543">
        <ele>218.2998</ele>
        <time>2026-05-16T13:16:19+02:00</time>
      </trkpt>
      <trkpt lat="47.64854" lon="5.96543">
        <ele>217.90039</ele>
        <time>2026-05-16T13:16:20+02:00</time>
      </trkpt>
      <trkpt lat="47.6486" lon="5.96544">
        <ele>217.7998</ele>
        <time>2026-05-16T13:16:21+02:00</time>
      </trkpt>
      <trkpt lat="47.64865" lon="5.96544">
        <ele>217.90039</ele>
        <time>2026-05-16T13:16:22+02:00</time>
      </trkpt>
      <trkpt lat="47.64871" lon="5.96544">
        <ele>218.10059</ele>
        <time>2026-05-16T13:16:23+02:00</time>
      </trkpt>
      <trkpt lat="47.64876" lon="5.96544">
        <ele>218.2998</ele>
        <time>2026-05-16T13:16:24+02:00</time>
      </trkpt>
      <trkpt lat="47.64882" lon="5.96545">
        <ele>218.5</ele>
        <time>2026-05-16T13:16:25+02:00</time>
      </trkpt>
      <trkpt lat="47.64888" lon="5.96545">
        <ele>218.7998</ele>
        <time>2026-05-16T13:16:26+02:00</time>
      </trkpt>
      <trkpt lat="47.64893" lon="5.96545">
        <ele>219.10059</ele>
        <time>2026-05-16T13:16:27+02:00</time>
      </trkpt>
      <trkpt lat="47.64898" lon="5.96546">
        <ele>219.40039</ele>
        <time>2026-05-16T13:16:28+02:00</time>
      </trkpt>
      <trkpt lat="47.64904" lon="5.96546">
        <ele>219.60059</ele>
        <time>2026-05-16T13:16:29+02:00</time>
      </trkpt>
      <trkpt lat="47.6491" lon="5.96547">
        <ele>219.7002</ele>
        <time>2026-05-16T13:16:30+02:00</time>
      </trkpt>
      <trkpt lat="47.64916" lon="5.96547">
        <ele>219.7002</ele>
        <time>2026-05-16T13:16:31+02:00</time>
      </trkpt>
      <trkpt lat="47.64922" lon="5.96548">
        <ele>219.7002</ele>
        <time>2026-05-16T13:16:32+02:00</time>
      </trkpt>
      <trkpt lat="47.64929" lon="5.96549">
        <ele>219.5</ele>
        <time>2026-05-16T13:16:33+02:00</time>
      </trkpt>
      <trkpt lat="47.64931" lon="5.9655">
        <ele>218.2998</ele>
        <time>2026-05-16T13:16:34+02:00</time>
      </trkpt>
      <trkpt lat="47.6494" lon="5.96551">
        <ele>217.90039</ele>
        <time>2026-05-16T13:16:35+02:00</time>
      </trkpt>
      <trkpt lat="47.64946" lon="5.96552">
        <ele>217.60059</ele>
        <time>2026-05-16T13:16:36+02:00</time>
      </trkpt>
      <trkpt lat="47.64949" lon="5.96553">
        <ele>217.2998</ele>
        <time>2026-05-16T13:16:37+02:00</time>
      </trkpt>
      <trkpt lat="47.64957" lon="5.96554">
        <ele>216.90039</ele>
        <time>2026-05-16T13:16:38+02:00</time>
      </trkpt>
      <trkpt lat="47.64962" lon="5.96555">
        <ele>216.5</ele>
        <time>2026-05-16T13:16:39+02:00</time>
      </trkpt>
      <trkpt lat="47.64967" lon="5.96556">
        <ele>216.10059</ele>
        <time>2026-05-16T13:16:40+02:00</time>
      </trkpt>
      <trkpt lat="47.64973" lon="5.96558">
        <ele>214.2998</ele>
        <time>2026-05-16T13:16:41+02:00</time>
      </trkpt>
      <trkpt lat="47.64979" lon="5.96559">
        <ele>214.10059</ele>
        <time>2026-05-16T13:16:42+02:00</time>
      </trkpt>
      <trkpt lat="47.64984" lon="5.96561">
        <ele>213.7998</ele>
        <time>2026-05-16T13:16:43+02:00</time>
      </trkpt>
      <trkpt lat="47.6499" lon="5.96563">
        <ele>213.60059</ele>
        <time>2026-05-16T13:16:44+02:00</time>
      </trkpt>
      <trkpt lat="47.64996" lon="5.96565">
        <ele>213.2998</ele>
        <time>2026-05-16T13:16:45+02:00</time>
      </trkpt>
      <trkpt lat="47.65002" lon="5.96567">
        <ele>211.10059</ele>
        <time>2026-05-16T13:16:46+02:00</time>
      </trkpt>
      <trkpt lat="47.65008" lon="5.96569">
        <ele>210.90039</ele>
        <time>2026-05-16T13:16:47+02:00</time>
      </trkpt>
      <trkpt lat="47.65014" lon="5.96571">
        <ele>210.7002</ele>
        <time>2026-05-16T13:16:48+02:00</time>
      </trkpt>
      <trkpt lat="47.65019" lon="5.96573">
        <ele>210.60059</ele>
        <time>2026-05-16T13:16:49+02:00</time>
      </trkpt>
      <trkpt lat="47.65025" lon="5.96575">
        <ele>208.60059</ele>
        <time>2026-05-16T13:16:50+02:00</time>
      </trkpt>
      <trkpt lat="47.65031" lon="5.96577">
        <ele>208.5</ele>
        <time>2026-05-16T13:16:51+02:00</time>
      </trkpt>
      <trkpt lat="47.65037" lon="5.96578">
        <ele>208.40039</ele>
        <time>2026-05-16T13:16:52+02:00</time>
      </trkpt>
      <trkpt lat="47.6504" lon="5.96579">
        <ele>208.40039</ele>
        <time>2026-05-16T13:16:53+02:00</time>
      </trkpt>
      <trkpt lat="47.65048" lon="5.96578">
        <ele>208.2002</ele>
        <time>2026-05-16T13:16:54+02:00</time>
      </trkpt>
      <trkpt lat="47.65054" lon="5.96578">
        <ele>208.10059</ele>
        <time>2026-05-16T13:16:55+02:00</time>
      </trkpt>
      <trkpt lat="47.65059" lon="5.96578">
        <ele>208</ele>
        <time>2026-05-16T13:16:56+02:00</time>
      </trkpt>
      <trkpt lat="47.65065" lon="5.96577">
        <ele>207.90039</ele>
        <time>2026-05-16T13:16:57+02:00</time>
      </trkpt>
      <trkpt lat="47.6507" lon="5.96576">
        <ele>207.90039</ele>
        <time>2026-05-16T13:16:58+02:00</time>
      </trkpt>
      <trkpt lat="47.65076" lon="5.96576">
        <ele>207.7002</ele>
        <time>2026-05-16T13:16:59+02:00</time>
      </trkpt>
      <trkpt lat="47.65082" lon="5.96575">
        <ele>207.40039</ele>
        <time>2026-05-16T13:17:00+02:00</time>
      </trkpt>
      <trkpt lat="47.65087" lon="5.96574">
        <ele>209.2998</ele>
        <time>2026-05-16T13:17:01+02:00</time>
      </trkpt>
      <trkpt lat="47.65093" lon="5.96573">
        <ele>209.10059</ele>
        <time>2026-05-16T13:17:02+02:00</time>
      </trkpt>
      <trkpt lat="47.65098" lon="5.96573">
        <ele>208.90039</ele>
        <time>2026-05-16T13:17:03+02:00</time>
      </trkpt>
      <trkpt lat="47.65103" lon="5.96572">
        <ele>208.60059</ele>
        <time>2026-05-16T13:17:04+02:00</time>
      </trkpt>
      <trkpt lat="47.65108" lon="5.96571">
        <ele>208.40039</ele>
        <time>2026-05-16T13:17:05+02:00</time>
      </trkpt>
      <trkpt lat="47.65114" lon="5.96569">
        <ele>208.10059</ele>
        <time>2026-05-16T13:17:06+02:00</time>
      </trkpt>
      <trkpt lat="47.65119" lon="5.96568">
        <ele>207.7998</ele>
        <time>2026-05-16T13:17:07+02:00</time>
      </trkpt>
      <trkpt lat="47.65125" lon="5.96567">
        <ele>207.40039</ele>
        <time>2026-05-16T13:17:08+02:00</time>
      </trkpt>
      <trkpt lat="47.6513" lon="5.96567">
        <ele>207.10059</ele>
        <time>2026-05-16T13:17:09+02:00</time>
      </trkpt>
      <trkpt lat="47.65136" lon="5.96566">
        <ele>207.7998</ele>
        <time>2026-05-16T13:17:10+02:00</time>
      </trkpt>
      <trkpt lat="47.65141" lon="5.96565">
        <ele>207.2998</ele>
        <time>2026-05-16T13:17:11+02:00</time>
      </trkpt>
      <trkpt lat="47.65147" lon="5.96565">
        <ele>206.7002</ele>
        <time>2026-05-16T13:17:12+02:00</time>
      </trkpt>
      <trkpt lat="47.65152" lon="5.96565">
        <ele>206.10059</ele>
        <time>2026-05-16T13:17:13+02:00</time>
      </trkpt>
      <trkpt lat="47.65158" lon="5.96565">
        <ele>205.2002</ele>
        <time>2026-05-16T13:17:14+02:00</time>
      </trkpt>
      <trkpt lat="47.65164" lon="5.96564">
        <ele>204.2002</ele>
        <time>2026-05-16T13:17:15+02:00</time>
      </trkpt>
      <trkpt lat="47.65169" lon="5.96564">
        <ele>203.40039</ele>
        <time>2026-05-16T13:17:16+02:00</time>
      </trkpt>
      <trkpt lat="47.65175" lon="5.96564">
        <ele>203.10059</ele>
        <time>2026-05-16T13:17:17+02:00</time>
      </trkpt>
      <trkpt lat="47.65181" lon="5.96564">
        <ele>203</ele>
        <time>2026-05-16T13:17:18+02:00</time>
      </trkpt>
      <trkpt lat="47.65186" lon="5.96564">
        <ele>203</ele>
        <time>2026-05-16T13:17:19+02:00</time>
      </trkpt>
      <trkpt lat="47.65192" lon="5.96564">
        <ele>203.10059</ele>
        <time>2026-05-16T13:17:20+02:00</time>
      </trkpt>
      <trkpt lat="47.65195" lon="5.96563">
        <ele>203.10059</ele>
        <time>2026-05-16T13:17:21+02:00</time>
      </trkpt>
      <trkpt lat="47.65204" lon="5.96563">
        <ele>203.40039</ele>
        <time>2026-05-16T13:17:22+02:00</time>
      </trkpt>
      <trkpt lat="47.6521" lon="5.96563">
        <ele>203.5</ele>
        <time>2026-05-16T13:17:23+02:00</time>
      </trkpt>
      <trkpt lat="47.65216" lon="5.96563">
        <ele>203.7002</ele>
        <time>2026-05-16T13:17:24+02:00</time>
      </trkpt>
      <trkpt lat="47.65222" lon="5.96562">
        <ele>204</ele>
        <time>2026-05-16T13:17:25+02:00</time>
      </trkpt>
      <trkpt lat="47.65228" lon="5.96562">
        <ele>204.2998</ele>
        <time>2026-05-16T13:17:26+02:00</time>
      </trkpt>
      <trkpt lat="47.65235" lon="5.96561">
        <ele>204.60059</ele>
        <time>2026-05-16T13:17:27+02:00</time>
      </trkpt>
      <trkpt lat="47.65238" lon="5.9656">
        <ele>205</ele>
        <time>2026-05-16T13:17:28+02:00</time>
      </trkpt>
      <trkpt lat="47.65247" lon="5.96558">
        <ele>205.2998</ele>
        <time>2026-05-16T13:17:29+02:00</time>
      </trkpt>
      <trkpt lat="47.65253" lon="5.96556">
        <ele>206.2998</ele>
        <time>2026-05-16T13:17:30+02:00</time>
      </trkpt>
      <trkpt lat="47.65259" lon="5.96553">
        <ele>206.5</ele>
        <time>2026-05-16T13:17:31+02:00</time>
      </trkpt>
      <trkpt lat="47.65264" lon="5.96549">
        <ele>207.40039</ele>
        <time>2026-05-16T13:17:32+02:00</time>
      </trkpt>
      <trkpt lat="47.6527" lon="5.96546">
        <ele>207.60059</ele>
        <time>2026-05-16T13:17:33+02:00</time>
      </trkpt>
      <trkpt lat="47.65275" lon="5.96541">
        <ele>207.7998</ele>
        <time>2026-05-16T13:17:34+02:00</time>
      </trkpt>
      <trkpt lat="47.6528" lon="5.96536">
        <ele>208.60059</ele>
        <time>2026-05-16T13:17:35+02:00</time>
      </trkpt>
      <trkpt lat="47.65286" lon="5.96532">
        <ele>208.7998</ele>
        <time>2026-05-16T13:17:36+02:00</time>
      </trkpt>
      <trkpt lat="47.65292" lon="5.96529">
        <ele>209.7998</ele>
        <time>2026-05-16T13:17:37+02:00</time>
      </trkpt>
      <trkpt lat="47.65299" lon="5.96528">
        <ele>210</ele>
        <time>2026-05-16T13:17:38+02:00</time>
      </trkpt>
      <trkpt lat="47.65305" lon="5.96528">
        <ele>210.10059</ele>
        <time>2026-05-16T13:17:39+02:00</time>
      </trkpt>
      <trkpt lat="47.65311" lon="5.96529">
        <ele>210.2002</ele>
        <time>2026-05-16T13:17:40+02:00</time>
      </trkpt>
      <trkpt lat="47.65317" lon="5.96531">
        <ele>210.2002</ele>
        <time>2026-05-16T13:17:41+02:00</time>
      </trkpt>
      <trkpt lat="47.6532" lon="5.96532">
        <ele>209.60059</ele>
        <time>2026-05-16T13:17:42+02:00</time>
      </trkpt>
      <trkpt lat="47.65329" lon="5.96532">
        <ele>209.40039</ele>
        <time>2026-05-16T13:17:43+02:00</time>
      </trkpt>
      <trkpt lat="47.65334" lon="5.96529">
        <ele>209.7998</ele>
        <time>2026-05-16T13:17:44+02:00</time>
      </trkpt>
      <trkpt lat="47.65339" lon="5.96524">
        <ele>209.2998</ele>
        <time>2026-05-16T13:17:45+02:00</time>
      </trkpt>
      <trkpt lat="47.65343" lon="5.96518">
        <ele>209.2002</ele>
        <time>2026-05-16T13:17:46+02:00</time>
      </trkpt>
      <trkpt lat="47.65347" lon="5.96512">
        <ele>209.60059</ele>
        <time>2026-05-16T13:17:47+02:00</time>
      </trkpt>
      <trkpt lat="47.6535" lon="5.96506">
        <ele>209.2002</ele>
        <time>2026-05-16T13:17:48+02:00</time>
      </trkpt>
      <trkpt lat="47.65352" lon="5.96503">
        <ele>209.2002</ele>
        <time>2026-05-16T13:17:49+02:00</time>
      </trkpt>
      <trkpt lat="47.65355" lon="5.96493">
        <ele>208.7002</ele>
        <time>2026-05-16T13:17:50+02:00</time>
      </trkpt>
      <trkpt lat="47.65356" lon="5.96486">
        <ele>209.2998</ele>
        <time>2026-05-16T13:17:51+02:00</time>
      </trkpt>
      <trkpt lat="47.65358" lon="5.96481">
        <ele>209.2998</ele>
        <time>2026-05-16T13:17:52+02:00</time>
      </trkpt>
      <trkpt lat="47.6536" lon="5.96477">
        <ele>209.2002</ele>
        <time>2026-05-16T13:17:53+02:00</time>
      </trkpt>
      <trkpt lat="47.65363" lon="5.96476">
        <ele>209.2002</ele>
        <time>2026-05-16T13:17:54+02:00</time>
      </trkpt>
      <trkpt lat="47.65366" lon="5.96478">
        <ele>208.2002</ele>
        <time>2026-05-16T13:17:55+02:00</time>
      </trkpt>
      <trkpt lat="47.65371" lon="5.96481">
        <ele>206.60059</ele>
        <time>2026-05-16T13:17:56+02:00</time>
      </trkpt>
      <trkpt lat="47.65373" lon="5.96482">
        <ele>206</ele>
        <time>2026-05-16T13:17:57+02:00</time>
      </trkpt>
      <trkpt lat="47.6538" lon="5.96484">
        <ele>206.5</ele>
        <time>2026-05-16T13:17:58+02:00</time>
      </trkpt>
      <trkpt lat="47.65385" lon="5.96485">
        <ele>207.5</ele>
        <time>2026-05-16T13:17:59+02:00</time>
      </trkpt>
      <trkpt lat="47.6539" lon="5.96486">
        <ele>208.7002</ele>
        <time>2026-05-16T13:18:00+02:00</time>
      </trkpt>
      <trkpt lat="47.65395" lon="5.96485">
        <ele>209.7998</ele>
        <time>2026-05-16T13:18:01+02:00</time>
      </trkpt>
      <trkpt lat="47.65399" lon="5.96485">
        <ele>209.7998</ele>
        <time>2026-05-16T13:18:02+02:00</time>
      </trkpt>
      <trkpt lat="47.65402" lon="5.96487">
        <ele>210.7998</ele>
        <time>2026-05-16T13:18:03+02:00</time>
      </trkpt>
      <trkpt lat="47.65405" lon="5.9649">
        <ele>210.7002</ele>
        <time>2026-05-16T13:18:04+02:00</time>
      </trkpt>
      <trkpt lat="47.65407" lon="5.96494">
        <ele>211.5</ele>
        <time>2026-05-16T13:18:05+02:00</time>
      </trkpt>
      <trkpt lat="47.6541" lon="5.965">
        <ele>211</ele>
        <time>2026-05-16T13:18:06+02:00</time>
      </trkpt>
      <trkpt lat="47.65412" lon="5.96505">
        <ele>211.7002</ele>
        <time>2026-05-16T13:18:07+02:00</time>
      </trkpt>
      <trkpt lat="47.65415" lon="5.96511">
        <ele>210.90039</ele>
        <time>2026-05-16T13:18:08+02:00</time>
      </trkpt>
      <trkpt lat="47.65417" lon="5.96517">
        <ele>210</ele>
        <time>2026-05-16T13:18:09+02:00</time>
      </trkpt>
      <trkpt lat="47.65421" lon="5.96523">
        <ele>210.2002</ele>
        <time>2026-05-16T13:18:10+02:00</time>
      </trkpt>
      <trkpt lat="47.65424" lon="5.96529">
        <ele>208.7998</ele>
        <time>2026-05-16T13:18:11+02:00</time>
      </trkpt>
      <trkpt lat="47.65429" lon="5.96534">
        <ele>207</ele>
        <time>2026-05-16T13:18:12+02:00</time>
      </trkpt>
      <trkpt lat="47.65434" lon="5.96539">
        <ele>207</ele>
        <time>2026-05-16T13:18:13+02:00</time>
      </trkpt>
      <trkpt lat="47.6544" lon="5.96543">
        <ele>204.5</ele>
        <time>2026-05-16T13:18:14+02:00</time>
      </trkpt>
      <trkpt lat="47.65445" lon="5.96546">
        <ele>203.7998</ele>
        <time>2026-05-16T13:18:15+02:00</time>
      </trkpt>
      <trkpt lat="47.65451" lon="5.96548">
        <ele>203.7002</ele>
        <time>2026-05-16T13:18:16+02:00</time>
      </trkpt>
      <trkpt lat="47.65457" lon="5.96549">
        <ele>203.60059</ele>
        <time>2026-05-16T13:18:17+02:00</time>
      </trkpt>
      <trkpt lat="47.6546" lon="5.96549">
        <ele>203.60059</ele>
        <time>2026-05-16T13:18:18+02:00</time>
      </trkpt>
      <trkpt lat="47.6547" lon="5.96548">
        <ele>203.5</ele>
        <time>2026-05-16T13:18:19+02:00</time>
      </trkpt>
      <trkpt lat="47.65477" lon="5.96546">
        <ele>203.5</ele>
        <time>2026-05-16T13:18:20+02:00</time>
      </trkpt>
      <trkpt lat="47.65483" lon="5.96545">
        <ele>203.40039</ele>
        <time>2026-05-16T13:18:21+02:00</time>
      </trkpt>
      <trkpt lat="47.65489" lon="5.96543">
        <ele>203.40039</ele>
        <time>2026-05-16T13:18:22+02:00</time>
      </trkpt>
      <trkpt lat="47.65495" lon="5.9654">
        <ele>203.7002</ele>
        <time>2026-05-16T13:18:23+02:00</time>
      </trkpt>
      <trkpt lat="47.65502" lon="5.96538">
        <ele>203.40039</ele>
        <time>2026-05-16T13:18:24+02:00</time>
      </trkpt>
      <trkpt lat="47.65508" lon="5.96535">
        <ele>203.10059</ele>
        <time>2026-05-16T13:18:25+02:00</time>
      </trkpt>
      <trkpt lat="47.65514" lon="5.96532">
        <ele>203</ele>
        <time>2026-05-16T13:18:26+02:00</time>
      </trkpt>
      <trkpt lat="47.6552" lon="5.96528">
        <ele>202.7002</ele>
        <time>2026-05-16T13:18:27+02:00</time>
      </trkpt>
      <trkpt lat="47.65526" lon="5.96525">
        <ele>202.7998</ele>
        <time>2026-05-16T13:18:28+02:00</time>
      </trkpt>
      <trkpt lat="47.65532" lon="5.9652">
        <ele>202.90039</ele>
        <time>2026-05-16T13:18:29+02:00</time>
      </trkpt>
      <trkpt lat="47.65537" lon="5.96516">
        <ele>203</ele>
        <time>2026-05-16T13:18:30+02:00</time>
      </trkpt>
      <trkpt lat="47.65543" lon="5.96512">
        <ele>203.2998</ele>
        <time>2026-05-16T13:18:31+02:00</time>
      </trkpt>
      <trkpt lat="47.65549" lon="5.96507">
        <ele>203.2998</ele>
        <time>2026-05-16T13:18:32+02:00</time>
      </trkpt>
      <trkpt lat="47.65555" lon="5.96502">
        <ele>203</ele>
        <time>2026-05-16T13:18:33+02:00</time>
      </trkpt>
      <trkpt lat="47.6556" lon="5.96497">
        <ele>202.7002</ele>
        <time>2026-05-16T13:18:34+02:00</time>
      </trkpt>
      <trkpt lat="47.65566" lon="5.96492">
        <ele>202.7002</ele>
        <time>2026-05-16T13:18:35+02:00</time>
      </trkpt>
      <trkpt lat="47.65571" lon="5.96487">
        <ele>202.7998</ele>
        <time>2026-05-16T13:18:36+02:00</time>
      </trkpt>
      <trkpt lat="47.65577" lon="5.96482">
        <ele>202.90039</ele>
        <time>2026-05-16T13:18:37+02:00</time>
      </trkpt>
      <trkpt lat="47.65579" lon="5.9648">
        <ele>203.2002</ele>
        <time>2026-05-16T13:18:38+02:00</time>
      </trkpt>
      <trkpt lat="47.65587" lon="5.96472">
        <ele>203.2002</ele>
        <time>2026-05-16T13:18:39+02:00</time>
      </trkpt>
      <trkpt lat="47.65593" lon="5.96468">
        <ele>203.2002</ele>
        <time>2026-05-16T13:18:40+02:00</time>
      </trkpt>
      <trkpt lat="47.65598" lon="5.96463">
        <ele>202.7002</ele>
        <time>2026-05-16T13:18:41+02:00</time>
      </trkpt>
      <trkpt lat="47.65603" lon="5.96458">
        <ele>202.7998</ele>
        <time>2026-05-16T13:18:42+02:00</time>
      </trkpt>
      <trkpt lat="47.65609" lon="5.96454">
        <ele>202.7002</ele>
        <time>2026-05-16T13:18:43+02:00</time>
      </trkpt>
      <trkpt lat="47.65614" lon="5.96449">
        <ele>202.7998</ele>
        <time>2026-05-16T13:18:44+02:00</time>
      </trkpt>
      <trkpt lat="47.65619" lon="5.96445">
        <ele>203.10059</ele>
        <time>2026-05-16T13:18:45+02:00</time>
      </trkpt>
      <trkpt lat="47.65624" lon="5.9644">
        <ele>203.10059</ele>
        <time>2026-05-16T13:18:46+02:00</time>
      </trkpt>
      <trkpt lat="47.65629" lon="5.96436">
        <ele>203.2998</ele>
        <time>2026-05-16T13:18:47+02:00</time>
      </trkpt>
      <trkpt lat="47.65632" lon="5.96433">
        <ele>203.2998</ele>
        <time>2026-05-16T13:18:48+02:00</time>
      </trkpt>
      <trkpt lat="47.65639" lon="5.96426">
        <ele>202.90039</ele>
        <time>2026-05-16T13:18:49+02:00</time>
      </trkpt>
      <trkpt lat="47.65644" lon="5.96422">
        <ele>202.90039</ele>
        <time>2026-05-16T13:18:50+02:00</time>
      </trkpt>
      <trkpt lat="47.65649" lon="5.96418">
        <ele>202.7002</ele>
        <time>2026-05-16T13:18:51+02:00</time>
      </trkpt>
      <trkpt lat="47.65654" lon="5.96413">
        <ele>202.7002</ele>
        <time>2026-05-16T13:18:52+02:00</time>
      </trkpt>
      <trkpt lat="47.65659" lon="5.96408">
        <ele>202.90039</ele>
        <time>2026-05-16T13:18:53+02:00</time>
      </trkpt>
      <trkpt lat="47.65664" lon="5.96404">
        <ele>203</ele>
        <time>2026-05-16T13:18:54+02:00</time>
      </trkpt>
      <trkpt lat="47.6567" lon="5.964">
        <ele>203.2998</ele>
        <time>2026-05-16T13:18:55+02:00</time>
      </trkpt>
      <trkpt lat="47.65675" lon="5.96395">
        <ele>203.2998</ele>
        <time>2026-05-16T13:18:56+02:00</time>
      </trkpt>
      <trkpt lat="47.6568" lon="5.9639">
        <ele>203.10059</ele>
        <time>2026-05-16T13:18:57+02:00</time>
      </trkpt>
      <trkpt lat="47.65684" lon="5.96386">
        <ele>203</ele>
        <time>2026-05-16T13:18:58+02:00</time>
      </trkpt>
      <trkpt lat="47.65689" lon="5.96382">
        <ele>202.7998</ele>
        <time>2026-05-16T13:18:59+02:00</time>
      </trkpt>
      <trkpt lat="47.65693" lon="5.96378">
        <ele>202.7998</ele>
        <time>2026-05-16T13:19:00+02:00</time>
      </trkpt>
      <trkpt lat="47.65698" lon="5.96374">
        <ele>202.7998</ele>
        <time>2026-05-16T13:19:01+02:00</time>
      </trkpt>
      <trkpt lat="47.65703" lon="5.9637">
        <ele>202.90039</ele>
        <time>2026-05-16T13:19:02+02:00</time>
      </trkpt>
      <trkpt lat="47.65708" lon="5.96366">
        <ele>203.2998</ele>
        <time>2026-05-16T13:19:03+02:00</time>
      </trkpt>
      <trkpt lat="47.65713" lon="5.96361">
        <ele>203.2998</ele>
        <time>2026-05-16T13:19:04+02:00</time>
      </trkpt>
      <trkpt lat="47.65717" lon="5.96357">
        <ele>203.5</ele>
        <time>2026-05-16T13:19:05+02:00</time>
      </trkpt>
      <trkpt lat="47.65722" lon="5.96353">
        <ele>203.2998</ele>
        <time>2026-05-16T13:19:06+02:00</time>
      </trkpt>
      <trkpt lat="47.65727" lon="5.96349">
        <ele>202.90039</ele>
        <time>2026-05-16T13:19:07+02:00</time>
      </trkpt>
      <trkpt lat="47.65731" lon="5.96345">
        <ele>202.7998</ele>
        <time>2026-05-16T13:19:08+02:00</time>
      </trkpt>
      <trkpt lat="47.65736" lon="5.96341">
        <ele>202.7002</ele>
        <time>2026-05-16T13:19:09+02:00</time>
      </trkpt>
      <trkpt lat="47.6574" lon="5.96337">
        <ele>202.7002</ele>
        <time>2026-05-16T13:19:10+02:00</time>
      </trkpt>
      <trkpt lat="47.65745" lon="5.96334">
        <ele>203.2002</ele>
        <time>2026-05-16T13:19:11+02:00</time>
      </trkpt>
      <trkpt lat="47.65748" lon="5.96332">
        <ele>203.2002</ele>
        <time>2026-05-16T13:19:12+02:00</time>
      </trkpt>
      <trkpt lat="47.65757" lon="5.96328">
        <ele>203.10059</ele>
        <time>2026-05-16T13:19:13+02:00</time>
      </trkpt>
      <trkpt lat="47.65762" lon="5.96326">
        <ele>203.10059</ele>
        <time>2026-05-16T13:19:14+02:00</time>
      </trkpt>
      <trkpt lat="47.65769" lon="5.96323">
        <ele>203.5</ele>
        <time>2026-05-16T13:19:15+02:00</time>
      </trkpt>
      <trkpt lat="47.65776" lon="5.96321">
        <ele>203.40039</ele>
        <time>2026-05-16T13:19:16+02:00</time>
      </trkpt>
      <trkpt lat="47.65783" lon="5.9632">
        <ele>203.40039</ele>
        <time>2026-05-16T13:19:17+02:00</time>
      </trkpt>
      <trkpt lat="47.6579" lon="5.96318">
        <ele>203.40039</ele>
        <time>2026-05-16T13:19:18+02:00</time>
      </trkpt>
      <trkpt lat="47.65793" lon="5.96317">
        <ele>204.10059</ele>
        <time>2026-05-16T13:19:19+02:00</time>
      </trkpt>
      <trkpt lat="47.65804" lon="5.96317">
        <ele>204</ele>
        <time>2026-05-16T13:19:20+02:00</time>
      </trkpt>
      <trkpt lat="47.65811" lon="5.96317">
        <ele>203.90039</ele>
        <time>2026-05-16T13:19:21+02:00</time>
      </trkpt>
      <trkpt lat="47.65819" lon="5.96317">
        <ele>203.90039</ele>
        <time>2026-05-16T13:19:22+02:00</time>
      </trkpt>
      <trkpt lat="47.65826" lon="5.96317">
        <ele>203.7998</ele>
        <time>2026-05-16T13:19:23+02:00</time>
      </trkpt>
      <trkpt lat="47.65834" lon="5.96317">
        <ele>203.7002</ele>
        <time>2026-05-16T13:19:24+02:00</time>
      </trkpt>
      <trkpt lat="47.65841" lon="5.96317">
        <ele>203.7002</ele>
        <time>2026-05-16T13:19:25+02:00</time>
      </trkpt>
      <trkpt lat="47.65848" lon="5.96317">
        <ele>203.7002</ele>
        <time>2026-05-16T13:19:26+02:00</time>
      </trkpt>
      <trkpt lat="47.65855" lon="5.96317">
        <ele>203.60059</ele>
        <time>2026-05-16T13:19:27+02:00</time>
      </trkpt>
      <trkpt lat="47.65862" lon="5.96318">
        <ele>203.2002</ele>
        <time>2026-05-16T13:19:28+02:00</time>
      </trkpt>
      <trkpt lat="47.6587" lon="5.96319">
        <ele>203.10059</ele>
        <time>2026-05-16T13:19:29+02:00</time>
      </trkpt>
      <trkpt lat="47.65877" lon="5.9632">
        <ele>203.10059</ele>
        <time>2026-05-16T13:19:30+02:00</time>
      </trkpt>
      <trkpt lat="47.65884" lon="5.96322">
        <ele>203.10059</ele>
        <time>2026-05-16T13:19:31+02:00</time>
      </trkpt>
      <trkpt lat="47.65891" lon="5.96324">
        <ele>203.10059</ele>
        <time>2026-05-16T13:19:32+02:00</time>
      </trkpt>
      <trkpt lat="47.65898" lon="5.96326">
        <ele>203</ele>
        <time>2026-05-16T13:19:33+02:00</time>
      </trkpt>
      <trkpt lat="47.65904" lon="5.96328">
        <ele>203</ele>
        <time>2026-05-16T13:19:34+02:00</time>
      </trkpt>
      <trkpt lat="47.65911" lon="5.96331">
        <ele>203</ele>
        <time>2026-05-16T13:19:35+02:00</time>
      </trkpt>
      <trkpt lat="47.65917" lon="5.96335">
        <ele>203.10059</ele>
        <time>2026-05-16T13:19:36+02:00</time>
      </trkpt>
      <trkpt lat="47.65923" lon="5.96338">
        <ele>203.2002</ele>
        <time>2026-05-16T13:19:37+02:00</time>
      </trkpt>
      <trkpt lat="47.6593" lon="5.96342">
        <ele>203.2002</ele>
        <time>2026-05-16T13:19:38+02:00</time>
      </trkpt>
      <trkpt lat="47.65936" lon="5.96346">
        <ele>203.2998</ele>
        <time>2026-05-16T13:19:39+02:00</time>
      </trkpt>
      <trkpt lat="47.65942" lon="5.9635">
        <ele>203.2998</ele>
        <time>2026-05-16T13:19:40+02:00</time>
      </trkpt>
      <trkpt lat="47.65948" lon="5.96354">
        <ele>203.2998</ele>
        <time>2026-05-16T13:19:41+02:00</time>
      </trkpt>
      <trkpt lat="47.65954" lon="5.96358">
        <ele>203.2998</ele>
        <time>2026-05-16T13:19:42+02:00</time>
      </trkpt>
      <trkpt lat="47.6596" lon="5.96363">
        <ele>203.2998</ele>
        <time>2026-05-16T13:19:43+02:00</time>
      </trkpt>
      <trkpt lat="47.65965" lon="5.96368">
        <ele>203.2998</ele>
        <time>2026-05-16T13:19:44+02:00</time>
      </trkpt>
      <trkpt lat="47.65971" lon="5.96373">
        <ele>203.2998</ele>
        <time>2026-05-16T13:19:45+02:00</time>
      </trkpt>
      <trkpt lat="47.65976" lon="5.96379">
        <ele>203.2998</ele>
        <time>2026-05-16T13:19:46+02:00</time>
      </trkpt>
      <trkpt lat="47.65982" lon="5.96385">
        <ele>203.2998</ele>
        <time>2026-05-16T13:19:47+02:00</time>
      </trkpt>
      <trkpt lat="47.65987" lon="5.96391">
        <ele>203.2998</ele>
        <time>2026-05-16T13:19:48+02:00</time>
      </trkpt>
      <trkpt lat="47.65991" lon="5.96397">
        <ele>203.2998</ele>
        <time>2026-05-16T13:19:49+02:00</time>
      </trkpt>
      <trkpt lat="47.65996" lon="5.96403">
        <ele>203.2998</ele>
        <time>2026-05-16T13:19:50+02:00</time>
      </trkpt>
      <trkpt lat="47.66" lon="5.96409">
        <ele>203.2998</ele>
        <time>2026-05-16T13:19:51+02:00</time>
      </trkpt>
      <trkpt lat="47.66005" lon="5.96416">
        <ele>203.2998</ele>
        <time>2026-05-16T13:19:52+02:00</time>
      </trkpt>
      <trkpt lat="47.6601" lon="5.96422">
        <ele>203.2002</ele>
        <time>2026-05-16T13:19:53+02:00</time>
      </trkpt>
      <trkpt lat="47.66015" lon="5.96428">
        <ele>203.2002</ele>
        <time>2026-05-16T13:19:54+02:00</time>
      </trkpt>
      <trkpt lat="47.6602" lon="5.96434">
        <ele>203.2998</ele>
        <time>2026-05-16T13:19:55+02:00</time>
      </trkpt>
      <trkpt lat="47.66025" lon="5.96439">
        <ele>203.2998</ele>
        <time>2026-05-16T13:19:56+02:00</time>
      </trkpt>
      <trkpt lat="47.66031" lon="5.96443">
        <ele>203.2002</ele>
        <time>2026-05-16T13:19:57+02:00</time>
      </trkpt>
      <trkpt lat="47.66036" lon="5.96448">
        <ele>203.10059</ele>
        <time>2026-05-16T13:19:58+02:00</time>
      </trkpt>
      <trkpt lat="47.66042" lon="5.96452">
        <ele>203.10059</ele>
        <time>2026-05-16T13:19:59+02:00</time>
      </trkpt>
      <trkpt lat="47.66048" lon="5.96455">
        <ele>203.2002</ele>
        <time>2026-05-16T13:20:00+02:00</time>
      </trkpt>
      <trkpt lat="47.66054" lon="5.96457">
        <ele>203.5</ele>
        <time>2026-05-16T13:20:01+02:00</time>
      </trkpt>
      <trkpt lat="47.6606" lon="5.96459">
        <ele>204.10059</ele>
        <time>2026-05-16T13:20:02+02:00</time>
      </trkpt>
      <trkpt lat="47.66066" lon="5.9646">
        <ele>204.60059</ele>
        <time>2026-05-16T13:20:03+02:00</time>
      </trkpt>
      <trkpt lat="47.66072" lon="5.9646">
        <ele>205.10059</ele>
        <time>2026-05-16T13:20:04+02:00</time>
      </trkpt>
      <trkpt lat="47.66078" lon="5.9646">
        <ele>205.60059</ele>
        <time>2026-05-16T13:20:05+02:00</time>
      </trkpt>
      <trkpt lat="47.66084" lon="5.96459">
        <ele>206.2002</ele>
        <time>2026-05-16T13:20:06+02:00</time>
      </trkpt>
      <trkpt lat="47.6609" lon="5.96458">
        <ele>206.7002</ele>
        <time>2026-05-16T13:20:07+02:00</time>
      </trkpt>
      <trkpt lat="47.66096" lon="5.96456">
        <ele>207.10059</ele>
        <time>2026-05-16T13:20:08+02:00</time>
      </trkpt>
      <trkpt lat="47.66102" lon="5.96454">
        <ele>207.90039</ele>
        <time>2026-05-16T13:20:09+02:00</time>
      </trkpt>
      <trkpt lat="47.66108" lon="5.96452">
        <ele>208.2002</ele>
        <time>2026-05-16T13:20:10+02:00</time>
      </trkpt>
      <trkpt lat="47.66114" lon="5.96449">
        <ele>208.40039</ele>
        <time>2026-05-16T13:20:11+02:00</time>
      </trkpt>
      <trkpt lat="47.6612" lon="5.96447">
        <ele>208.60059</ele>
        <time>2026-05-16T13:20:12+02:00</time>
      </trkpt>
      <trkpt lat="47.66126" lon="5.96445">
        <ele>209</ele>
        <time>2026-05-16T13:20:13+02:00</time>
      </trkpt>
      <trkpt lat="47.66132" lon="5.96443">
        <ele>209.10059</ele>
        <time>2026-05-16T13:20:14+02:00</time>
      </trkpt>
      <trkpt lat="47.66137" lon="5.96441">
        <ele>209.2998</ele>
        <time>2026-05-16T13:20:15+02:00</time>
      </trkpt>
      <trkpt lat="47.66142" lon="5.96439">
        <ele>209.60059</ele>
        <time>2026-05-16T13:20:16+02:00</time>
      </trkpt>
      <trkpt lat="47.66148" lon="5.96437">
        <ele>210.2002</ele>
        <time>2026-05-16T13:20:17+02:00</time>
      </trkpt>
      <trkpt lat="47.66153" lon="5.96434">
        <ele>210.40039</ele>
        <time>2026-05-16T13:20:18+02:00</time>
      </trkpt>
      <trkpt lat="47.66158" lon="5.96431">
        <ele>210.7002</ele>
        <time>2026-05-16T13:20:19+02:00</time>
      </trkpt>
      <trkpt lat="47.66163" lon="5.96428">
        <ele>211</ele>
        <time>2026-05-16T13:20:20+02:00</time>
      </trkpt>
      <trkpt lat="47.66169" lon="5.96426">
        <ele>211.40039</ele>
        <time>2026-05-16T13:20:21+02:00</time>
      </trkpt>
      <trkpt lat="47.66175" lon="5.96424">
        <ele>211.5</ele>
        <time>2026-05-16T13:20:22+02:00</time>
      </trkpt>
      <trkpt lat="47.66181" lon="5.96423">
        <ele>211.60059</ele>
        <time>2026-05-16T13:20:23+02:00</time>
      </trkpt>
      <trkpt lat="47.66187" lon="5.96421">
        <ele>211.60059</ele>
        <time>2026-05-16T13:20:24+02:00</time>
      </trkpt>
      <trkpt lat="47.66193" lon="5.9642">
        <ele>211.90039</ele>
        <time>2026-05-16T13:20:25+02:00</time>
      </trkpt>
      <trkpt lat="47.66198" lon="5.96418">
        <ele>211.90039</ele>
        <time>2026-05-16T13:20:26+02:00</time>
      </trkpt>
      <trkpt lat="47.66205" lon="5.96416">
        <ele>211.90039</ele>
        <time>2026-05-16T13:20:27+02:00</time>
      </trkpt>
      <trkpt lat="47.6621" lon="5.96414">
        <ele>211.90039</ele>
        <time>2026-05-16T13:20:28+02:00</time>
      </trkpt>
      <trkpt lat="47.66216" lon="5.96412">
        <ele>211.90039</ele>
        <time>2026-05-16T13:20:29+02:00</time>
      </trkpt>
      <trkpt lat="47.66222" lon="5.96409">
        <ele>212</ele>
        <time>2026-05-16T13:20:30+02:00</time>
      </trkpt>
      <trkpt lat="47.66227" lon="5.96406">
        <ele>212</ele>
        <time>2026-05-16T13:20:31+02:00</time>
      </trkpt>
      <trkpt lat="47.66231" lon="5.96405">
        <ele>212</ele>
        <time>2026-05-16T13:20:32+02:00</time>
      </trkpt>
      <trkpt lat="47.66242" lon="5.96401">
        <ele>212.2002</ele>
        <time>2026-05-16T13:20:33+02:00</time>
      </trkpt>
      <trkpt lat="47.66248" lon="5.96399">
        <ele>212.2002</ele>
        <time>2026-05-16T13:20:34+02:00</time>
      </trkpt>
      <trkpt lat="47.66255" lon="5.96397">
        <ele>212.10059</ele>
        <time>2026-05-16T13:20:35+02:00</time>
      </trkpt>
      <trkpt lat="47.66262" lon="5.96395">
        <ele>212</ele>
        <time>2026-05-16T13:20:36+02:00</time>
      </trkpt>
      <trkpt lat="47.66269" lon="5.96393">
        <ele>212.2002</ele>
        <time>2026-05-16T13:20:37+02:00</time>
      </trkpt>
      <trkpt lat="47.66275" lon="5.96391">
        <ele>212.10059</ele>
        <time>2026-05-16T13:20:38+02:00</time>
      </trkpt>
      <trkpt lat="47.66282" lon="5.96388">
        <ele>212</ele>
        <time>2026-05-16T13:20:39+02:00</time>
      </trkpt>
      <trkpt lat="47.66288" lon="5.96386">
        <ele>212</ele>
        <time>2026-05-16T13:20:40+02:00</time>
      </trkpt>
      <trkpt lat="47.66294" lon="5.96384">
        <ele>212.2002</ele>
        <time>2026-05-16T13:20:41+02:00</time>
      </trkpt>
      <trkpt lat="47.66301" lon="5.96382">
        <ele>212.10059</ele>
        <time>2026-05-16T13:20:42+02:00</time>
      </trkpt>
      <trkpt lat="47.66307" lon="5.9638">
        <ele>212</ele>
        <time>2026-05-16T13:20:43+02:00</time>
      </trkpt>
      <trkpt lat="47.66313" lon="5.96378">
        <ele>211.7998</ele>
        <time>2026-05-16T13:20:44+02:00</time>
      </trkpt>
      <trkpt lat="47.66319" lon="5.96376">
        <ele>211.90039</ele>
        <time>2026-05-16T13:20:45+02:00</time>
      </trkpt>
      <trkpt lat="47.66326" lon="5.96374">
        <ele>211.40039</ele>
        <time>2026-05-16T13:20:46+02:00</time>
      </trkpt>
      <trkpt lat="47.66332" lon="5.96371">
        <ele>211.2002</ele>
        <time>2026-05-16T13:20:47+02:00</time>
      </trkpt>
      <trkpt lat="47.66338" lon="5.96369">
        <ele>210.90039</ele>
        <time>2026-05-16T13:20:48+02:00</time>
      </trkpt>
      <trkpt lat="47.66341" lon="5.96368">
        <ele>211.2002</ele>
        <time>2026-05-16T13:20:49+02:00</time>
      </trkpt>
      <trkpt lat="47.6635" lon="5.96365">
        <ele>210.7002</ele>
        <time>2026-05-16T13:20:50+02:00</time>
      </trkpt>
      <trkpt lat="47.66356" lon="5.96363">
        <ele>210.5</ele>
        <time>2026-05-16T13:20:51+02:00</time>
      </trkpt>
      <trkpt lat="47.66362" lon="5.96361">
        <ele>210.2998</ele>
        <time>2026-05-16T13:20:52+02:00</time>
      </trkpt>
      <trkpt lat="47.66367" lon="5.96359">
        <ele>210.40039</ele>
        <time>2026-05-16T13:20:53+02:00</time>
      </trkpt>
      <trkpt lat="47.66373" lon="5.96359">
        <ele>210.2002</ele>
        <time>2026-05-16T13:20:54+02:00</time>
      </trkpt>
      <trkpt lat="47.66379" lon="5.96359">
        <ele>210.10059</ele>
        <time>2026-05-16T13:20:55+02:00</time>
      </trkpt>
      <trkpt lat="47.66384" lon="5.9636">
        <ele>209.90039</ele>
        <time>2026-05-16T13:20:56+02:00</time>
      </trkpt>
      <trkpt lat="47.6639" lon="5.96362">
        <ele>209.5</ele>
        <time>2026-05-16T13:20:57+02:00</time>
      </trkpt>
      <trkpt lat="47.66395" lon="5.96365">
        <ele>209.40039</ele>
        <time>2026-05-16T13:20:58+02:00</time>
      </trkpt>
      <trkpt lat="47.664" lon="5.96369">
        <ele>209.10059</ele>
        <time>2026-05-16T13:20:59+02:00</time>
      </trkpt>
      <trkpt lat="47.66405" lon="5.96373">
        <ele>209.10059</ele>
        <time>2026-05-16T13:21:00+02:00</time>
      </trkpt>
      <trkpt lat="47.6641" lon="5.96376">
        <ele>209</ele>
        <time>2026-05-16T13:21:01+02:00</time>
      </trkpt>
      <trkpt lat="47.66416" lon="5.96379">
        <ele>208.7998</ele>
        <time>2026-05-16T13:21:02+02:00</time>
      </trkpt>
      <trkpt lat="47.6642" lon="5.96383">
        <ele>208.7998</ele>
        <time>2026-05-16T13:21:03+02:00</time>
      </trkpt>
      <trkpt lat="47.66426" lon="5.96388">
        <ele>208.7002</ele>
        <time>2026-05-16T13:21:04+02:00</time>
      </trkpt>
      <trkpt lat="47.66431" lon="5.96392">
        <ele>208.7002</ele>
        <time>2026-05-16T13:21:05+02:00</time>
      </trkpt>
      <trkpt lat="47.66436" lon="5.96396">
        <ele>208.60059</ele>
        <time>2026-05-16T13:21:06+02:00</time>
      </trkpt>
      <trkpt lat="47.66441" lon="5.964">
        <ele>208.7002</ele>
        <time>2026-05-16T13:21:07+02:00</time>
      </trkpt>
      <trkpt lat="47.66446" lon="5.96404">
        <ele>208.60059</ele>
        <time>2026-05-16T13:21:08+02:00</time>
      </trkpt>
      <trkpt lat="47.66452" lon="5.96408">
        <ele>208.7002</ele>
        <time>2026-05-16T13:21:09+02:00</time>
      </trkpt>
      <trkpt lat="47.66457" lon="5.96412">
        <ele>208.7002</ele>
        <time>2026-05-16T13:21:10+02:00</time>
      </trkpt>
      <trkpt lat="47.66462" lon="5.96416">
        <ele>208.7002</ele>
        <time>2026-05-16T13:21:11+02:00</time>
      </trkpt>
      <trkpt lat="47.66467" lon="5.9642">
        <ele>208.7998</ele>
        <time>2026-05-16T13:21:12+02:00</time>
      </trkpt>
      <trkpt lat="47.66472" lon="5.96424">
        <ele>208.7998</ele>
        <time>2026-05-16T13:21:13+02:00</time>
      </trkpt>
      <trkpt lat="47.66477" lon="5.96427">
        <ele>208.90039</ele>
        <time>2026-05-16T13:21:14+02:00</time>
      </trkpt>
      <trkpt lat="47.66483" lon="5.96431">
        <ele>208.90039</ele>
        <time>2026-05-16T13:21:15+02:00</time>
      </trkpt>
      <trkpt lat="47.66488" lon="5.96435">
        <ele>209</ele>
        <time>2026-05-16T13:21:16+02:00</time>
      </trkpt>
      <trkpt lat="47.66494" lon="5.9644">
        <ele>209</ele>
        <time>2026-05-16T13:21:17+02:00</time>
      </trkpt>
      <trkpt lat="47.66497" lon="5.96442">
        <ele>209</ele>
        <time>2026-05-16T13:21:18+02:00</time>
      </trkpt>
      <trkpt lat="47.66506" lon="5.96449">
        <ele>209.2002</ele>
        <time>2026-05-16T13:21:19+02:00</time>
      </trkpt>
      <trkpt lat="47.66511" lon="5.96453">
        <ele>209.2998</ele>
        <time>2026-05-16T13:21:20+02:00</time>
      </trkpt>
      <trkpt lat="47.66517" lon="5.96458">
        <ele>209.2998</ele>
        <time>2026-05-16T13:21:21+02:00</time>
      </trkpt>
      <trkpt lat="47.66523" lon="5.96463">
        <ele>209.5</ele>
        <time>2026-05-16T13:21:22+02:00</time>
      </trkpt>
      <trkpt lat="47.6653" lon="5.96467">
        <ele>209.5</ele>
        <time>2026-05-16T13:21:23+02:00</time>
      </trkpt>
      <trkpt lat="47.66535" lon="5.96472">
        <ele>209.5</ele>
        <time>2026-05-16T13:21:24+02:00</time>
      </trkpt>
      <trkpt lat="47.66541" lon="5.96477">
        <ele>209.60059</ele>
        <time>2026-05-16T13:21:25+02:00</time>
      </trkpt>
      <trkpt lat="47.66546" lon="5.96481">
        <ele>209.7002</ele>
        <time>2026-05-16T13:21:26+02:00</time>
      </trkpt>
      <trkpt lat="47.66552" lon="5.96486">
        <ele>209.7998</ele>
        <time>2026-05-16T13:21:27+02:00</time>
      </trkpt>
      <trkpt lat="47.66557" lon="5.9649">
        <ele>209.7998</ele>
        <time>2026-05-16T13:21:28+02:00</time>
      </trkpt>
      <trkpt lat="47.66563" lon="5.96495">
        <ele>209.90039</ele>
        <time>2026-05-16T13:21:29+02:00</time>
      </trkpt>
      <trkpt lat="47.66569" lon="5.96499">
        <ele>209.7998</ele>
        <time>2026-05-16T13:21:30+02:00</time>
      </trkpt>
      <trkpt lat="47.66574" lon="5.96504">
        <ele>209.7998</ele>
        <time>2026-05-16T13:21:31+02:00</time>
      </trkpt>
      <trkpt lat="47.66577" lon="5.96506">
        <ele>209.7998</ele>
        <time>2026-05-16T13:21:32+02:00</time>
      </trkpt>
      <trkpt lat="47.66585" lon="5.96512">
        <ele>209.7002</ele>
        <time>2026-05-16T13:21:33+02:00</time>
      </trkpt>
      <trkpt lat="47.66591" lon="5.96516">
        <ele>209.60059</ele>
        <time>2026-05-16T13:21:34+02:00</time>
      </trkpt>
      <trkpt lat="47.66594" lon="5.96519">
        <ele>209.60059</ele>
        <time>2026-05-16T13:21:35+02:00</time>
      </trkpt>
      <trkpt lat="47.66602" lon="5.96525">
        <ele>209.40039</ele>
        <time>2026-05-16T13:21:36+02:00</time>
      </trkpt>
      <trkpt lat="47.66607" lon="5.9653">
        <ele>209.40039</ele>
        <time>2026-05-16T13:21:37+02:00</time>
      </trkpt>
      <trkpt lat="47.66612" lon="5.96534">
        <ele>209.2998</ele>
        <time>2026-05-16T13:21:38+02:00</time>
      </trkpt>
      <trkpt lat="47.66617" lon="5.96538">
        <ele>209.2998</ele>
        <time>2026-05-16T13:21:39+02:00</time>
      </trkpt>
      <trkpt lat="47.66622" lon="5.96541">
        <ele>209.2002</ele>
        <time>2026-05-16T13:21:40+02:00</time>
      </trkpt>
      <trkpt lat="47.66626" lon="5.96544">
        <ele>209.2002</ele>
        <time>2026-05-16T13:21:41+02:00</time>
      </trkpt>
      <trkpt lat="47.66631" lon="5.96547">
        <ele>209.2002</ele>
        <time>2026-05-16T13:21:42+02:00</time>
      </trkpt>
      <trkpt lat="47.66635" lon="5.96551">
        <ele>209.2002</ele>
        <time>2026-05-16T13:21:43+02:00</time>
      </trkpt>
      <trkpt lat="47.66638" lon="5.96553">
        <ele>209.2002</ele>
        <time>2026-05-16T13:21:44+02:00</time>
      </trkpt>
      <trkpt lat="47.66641" lon="5.96556">
        <ele>209.2002</ele>
        <time>2026-05-16T13:21:45+02:00</time>
      </trkpt>
      <trkpt lat="47.66642" lon="5.96559">
        <ele>209.10059</ele>
        <time>2026-05-16T13:21:46+02:00</time>
      </trkpt>
      <trkpt lat="47.66643" lon="5.9656">
        <ele>209.2002</ele>
        <time>2026-05-16T13:21:47+02:00</time>
      </trkpt>
      <trkpt lat="47.66643" lon="5.96561">
        <ele>209.2002</ele>
        <time>2026-05-16T13:21:48+02:00</time>
      </trkpt>
      <trkpt lat="47.66643" lon="5.96561">
        <ele>209.2002</ele>
        <time>2026-05-16T13:21:49+02:00</time>
      </trkpt>
      <trkpt lat="47.66643" lon="5.96561">
        <ele>209.2002</ele>
        <time>2026-05-16T13:21:50+02:00</time>
      </trkpt>
      <trkpt lat="47.66643" lon="5.96561">
        <ele>209.2002</ele>
        <time>2026-05-16T13:21:51+02:00</time>
      </trkpt>
      <trkpt lat="47.66652" lon="5.96561">
        <ele>209.2002</ele>
        <time>2026-05-16T13:22:24+02:00</time>
      </trkpt>
      <trkpt lat="47.66653" lon="5.96559">
        <ele>209.2002</ele>
        <time>2026-05-16T13:22:25+02:00</time>
      </trkpt>
      <trkpt lat="47.66655" lon="5.96558">
        <ele>209.2002</ele>
        <time>2026-05-16T13:22:26+02:00</time>
      </trkpt>
      <trkpt lat="47.66658" lon="5.96558">
        <ele>209.2002</ele>
        <time>2026-05-16T13:22:27+02:00</time>
      </trkpt>
      <trkpt lat="47.6666" lon="5.96558">
        <ele>209.2002</ele>
        <time>2026-05-16T13:22:28+02:00</time>
      </trkpt>
      <trkpt lat="47.66663" lon="5.96557">
        <ele>209.2998</ele>
        <time>2026-05-16T13:22:29+02:00</time>
      </trkpt>
      <trkpt lat="47.66665" lon="5.96555">
        <ele>209.2998</ele>
        <time>2026-05-16T13:22:30+02:00</time>
      </trkpt>
      <trkpt lat="47.66665" lon="5.96552">
        <ele>209.2998</ele>
        <time>2026-05-16T13:22:31+02:00</time>
      </trkpt>
      <trkpt lat="47.66665" lon="5.9655">
        <ele>209.2998</ele>
        <time>2026-05-16T13:22:32+02:00</time>
      </trkpt>
      <trkpt lat="47.66665" lon="5.96548">
        <ele>209.2998</ele>
        <time>2026-05-16T13:22:33+02:00</time>
      </trkpt>
      <trkpt lat="47.66665" lon="5.96548">
        <ele>209.2998</ele>
        <time>2026-05-16T13:22:34+02:00</time>
      </trkpt>
      <trkpt lat="47.66665" lon="5.96548">
        <ele>209.2998</ele>
        <time>2026-05-16T13:22:35+02:00</time>
      </trkpt>
      <trkpt lat="47.66665" lon="5.96548">
        <ele>209.2998</ele>
        <time>2026-05-16T13:22:36+02:00</time>
      </trkpt>
      <trkpt lat="47.66665" lon="5.96548">
        <ele>209.2998</ele>
        <time>2026-05-16T13:22:37+02:00</time>
      </trkpt>
      <trkpt lat="47.66612" lon="5.96625">
        <ele>209</ele>
        <time>2026-05-16T14:38:46+02:00</time>
      </trkpt>
      <trkpt lat="47.66607" lon="5.96631">
        <ele>209</ele>
        <time>2026-05-16T14:38:47+02:00</time>
      </trkpt>
      <trkpt lat="47.66604" lon="5.96636">
        <ele>209.10059</ele>
        <time>2026-05-16T14:38:48+02:00</time>
      </trkpt>
      <trkpt lat="47.66601" lon="5.9664">
        <ele>209</ele>
        <time>2026-05-16T14:38:49+02:00</time>
      </trkpt>
      <trkpt lat="47.66599" lon="5.96645">
        <ele>209.10059</ele>
        <time>2026-05-16T14:38:50+02:00</time>
      </trkpt>
      <trkpt lat="47.66596" lon="5.96649">
        <ele>209.10059</ele>
        <time>2026-05-16T14:38:51+02:00</time>
      </trkpt>
      <trkpt lat="47.66586" lon="5.96663">
        <ele>209.2002</ele>
        <time>2026-05-16T14:38:52+02:00</time>
      </trkpt>
      <trkpt lat="47.66583" lon="5.96668">
        <ele>209.2002</ele>
        <time>2026-05-16T14:38:53+02:00</time>
      </trkpt>
      <trkpt lat="47.66581" lon="5.96673">
        <ele>209.2998</ele>
        <time>2026-05-16T14:38:54+02:00</time>
      </trkpt>
      <trkpt lat="47.66578" lon="5.96678">
        <ele>209.40039</ele>
        <time>2026-05-16T14:38:55+02:00</time>
      </trkpt>
      <trkpt lat="47.66575" lon="5.96683">
        <ele>209.40039</ele>
        <time>2026-05-16T14:38:56+02:00</time>
      </trkpt>
      <trkpt lat="47.66572" lon="5.96688">
        <ele>209.40039</ele>
        <time>2026-05-16T14:38:57+02:00</time>
      </trkpt>
      <trkpt lat="47.66569" lon="5.96693">
        <ele>209.40039</ele>
        <time>2026-05-16T14:38:58+02:00</time>
      </trkpt>
      <trkpt lat="47.66565" lon="5.96698">
        <ele>209.40039</ele>
        <time>2026-05-16T14:38:59+02:00</time>
      </trkpt>
      <trkpt lat="47.66562" lon="5.96703">
        <ele>209.40039</ele>
        <time>2026-05-16T14:39:00+02:00</time>
      </trkpt>
      <trkpt lat="47.66559" lon="5.96709">
        <ele>209.40039</ele>
        <time>2026-05-16T14:39:01+02:00</time>
      </trkpt>
      <trkpt lat="47.66557" lon="5.96712">
        <ele>209.40039</ele>
        <time>2026-05-16T14:39:02+02:00</time>
      </trkpt>
      <trkpt lat="47.66551" lon="5.9672">
        <ele>209.40039</ele>
        <time>2026-05-16T14:39:03+02:00</time>
      </trkpt>
      <trkpt lat="47.66548" lon="5.96725">
        <ele>209.2998</ele>
        <time>2026-05-16T14:39:04+02:00</time>
      </trkpt>
      <trkpt lat="47.66544" lon="5.96731">
        <ele>209.2998</ele>
        <time>2026-05-16T14:39:05+02:00</time>
      </trkpt>
      <trkpt lat="47.66541" lon="5.96737">
        <ele>209.2998</ele>
        <time>2026-05-16T14:39:06+02:00</time>
      </trkpt>
      <trkpt lat="47.66538" lon="5.96742">
        <ele>209</ele>
        <time>2026-05-16T14:39:07+02:00</time>
      </trkpt>
      <trkpt lat="47.66534" lon="5.96748">
        <ele>208.7998</ele>
        <time>2026-05-16T14:39:08+02:00</time>
      </trkpt>
      <trkpt lat="47.66531" lon="5.96754">
        <ele>208.7002</ele>
        <time>2026-05-16T14:39:09+02:00</time>
      </trkpt>
      <trkpt lat="47.66528" lon="5.96759">
        <ele>208.40039</ele>
        <time>2026-05-16T14:39:10+02:00</time>
      </trkpt>
      <trkpt lat="47.66524" lon="5.96765">
        <ele>207.90039</ele>
        <time>2026-05-16T14:39:11+02:00</time>
      </trkpt>
      <trkpt lat="47.6652" lon="5.96771">
        <ele>207.7998</ele>
        <time>2026-05-16T14:39:12+02:00</time>
      </trkpt>
      <trkpt lat="47.66517" lon="5.96777">
        <ele>207.5</ele>
        <time>2026-05-16T14:39:13+02:00</time>
      </trkpt>
      <trkpt lat="47.66513" lon="5.96783">
        <ele>207.10059</ele>
        <time>2026-05-16T14:39:14+02:00</time>
      </trkpt>
      <trkpt lat="47.6651" lon="5.96789">
        <ele>207.10059</ele>
        <time>2026-05-16T14:39:15+02:00</time>
      </trkpt>
      <trkpt lat="47.66506" lon="5.96795">
        <ele>206.7998</ele>
        <time>2026-05-16T14:39:16+02:00</time>
      </trkpt>
      <trkpt lat="47.66503" lon="5.96801">
        <ele>206.5</ele>
        <time>2026-05-16T14:39:17+02:00</time>
      </trkpt>
      <trkpt lat="47.66501" lon="5.96804">
        <ele>206.5</ele>
        <time>2026-05-16T14:39:18+02:00</time>
      </trkpt>
      <trkpt lat="47.66496" lon="5.96813">
        <ele>206.5</ele>
        <time>2026-05-16T14:39:19+02:00</time>
      </trkpt>
      <trkpt lat="47.66492" lon="5.96819">
        <ele>206.7002</ele>
        <time>2026-05-16T14:39:20+02:00</time>
      </trkpt>
      <trkpt lat="47.66488" lon="5.96825">
        <ele>206.90039</ele>
        <time>2026-05-16T14:39:21+02:00</time>
      </trkpt>
      <trkpt lat="47.66484" lon="5.96831">
        <ele>206.90039</ele>
        <time>2026-05-16T14:39:22+02:00</time>
      </trkpt>
      <trkpt lat="47.6648" lon="5.96838">
        <ele>207.2002</ele>
        <time>2026-05-16T14:39:23+02:00</time>
      </trkpt>
      <trkpt lat="47.66476" lon="5.96844">
        <ele>207.40039</ele>
        <time>2026-05-16T14:39:24+02:00</time>
      </trkpt>
      <trkpt lat="47.66472" lon="5.9685">
        <ele>207.7002</ele>
        <time>2026-05-16T14:39:25+02:00</time>
      </trkpt>
      <trkpt lat="47.66469" lon="5.96856">
        <ele>207.7998</ele>
        <time>2026-05-16T14:39:26+02:00</time>
      </trkpt>
      <trkpt lat="47.66465" lon="5.96862">
        <ele>208</ele>
        <time>2026-05-16T14:39:27+02:00</time>
      </trkpt>
      <trkpt lat="47.66461" lon="5.96868">
        <ele>208.2998</ele>
        <time>2026-05-16T14:39:28+02:00</time>
      </trkpt>
      <trkpt lat="47.66459" lon="5.96871">
        <ele>208.2998</ele>
        <time>2026-05-16T14:39:29+02:00</time>
      </trkpt>
      <trkpt lat="47.66454" lon="5.9688">
        <ele>208.40039</ele>
        <time>2026-05-16T14:39:30+02:00</time>
      </trkpt>
      <trkpt lat="47.6645" lon="5.96886">
        <ele>208.2998</ele>
        <time>2026-05-16T14:39:31+02:00</time>
      </trkpt>
      <trkpt lat="47.66446" lon="5.96893">
        <ele>208.2998</ele>
        <time>2026-05-16T14:39:32+02:00</time>
      </trkpt>
      <trkpt lat="47.66443" lon="5.96899">
        <ele>208.2998</ele>
        <time>2026-05-16T14:39:33+02:00</time>
      </trkpt>
      <trkpt lat="47.66441" lon="5.96906">
        <ele>208.40039</ele>
        <time>2026-05-16T14:39:34+02:00</time>
      </trkpt>
      <trkpt lat="47.66439" lon="5.96913">
        <ele>208.40039</ele>
        <time>2026-05-16T14:39:35+02:00</time>
      </trkpt>
      <trkpt lat="47.66437" lon="5.9692">
        <ele>208.60059</ele>
        <time>2026-05-16T14:39:36+02:00</time>
      </trkpt>
      <trkpt lat="47.66438" lon="5.96929">
        <ele>208.7002</ele>
        <time>2026-05-16T14:39:37+02:00</time>
      </trkpt>
      <trkpt lat="47.66438" lon="5.96937">
        <ele>208.7998</ele>
        <time>2026-05-16T14:39:38+02:00</time>
      </trkpt>
      <trkpt lat="47.6644" lon="5.96945">
        <ele>209</ele>
        <time>2026-05-16T14:39:39+02:00</time>
      </trkpt>
      <trkpt lat="47.66442" lon="5.96953">
        <ele>209.10059</ele>
        <time>2026-05-16T14:39:40+02:00</time>
      </trkpt>
      <trkpt lat="47.66445" lon="5.96961">
        <ele>209.2998</ele>
        <time>2026-05-16T14:39:41+02:00</time>
      </trkpt>
      <trkpt lat="47.66447" lon="5.96968">
        <ele>209.2998</ele>
        <time>2026-05-16T14:39:42+02:00</time>
      </trkpt>
      <trkpt lat="47.66449" lon="5.96976">
        <ele>209.40039</ele>
        <time>2026-05-16T14:39:43+02:00</time>
      </trkpt>
      <trkpt lat="47.66451" lon="5.96984">
        <ele>209.60059</ele>
        <time>2026-05-16T14:39:44+02:00</time>
      </trkpt>
      <trkpt lat="47.66453" lon="5.96992">
        <ele>209.60059</ele>
        <time>2026-05-16T14:39:45+02:00</time>
      </trkpt>
      <trkpt lat="47.66456" lon="5.97">
        <ele>209.7998</ele>
        <time>2026-05-16T14:39:46+02:00</time>
      </trkpt>
      <trkpt lat="47.66458" lon="5.97009">
        <ele>209.7998</ele>
        <time>2026-05-16T14:39:47+02:00</time>
      </trkpt>
      <trkpt lat="47.6646" lon="5.97017">
        <ele>209.90039</ele>
        <time>2026-05-16T14:39:48+02:00</time>
      </trkpt>
      <trkpt lat="47.66462" lon="5.97025">
        <ele>210</ele>
        <time>2026-05-16T14:39:49+02:00</time>
      </trkpt>
      <trkpt lat="47.66464" lon="5.97033">
        <ele>210.10059</ele>
        <time>2026-05-16T14:39:50+02:00</time>
      </trkpt>
      <trkpt lat="47.66467" lon="5.97041">
        <ele>210.2002</ele>
        <time>2026-05-16T14:39:51+02:00</time>
      </trkpt>
      <trkpt lat="47.66469" lon="5.97049">
        <ele>210.2998</ele>
        <time>2026-05-16T14:39:52+02:00</time>
      </trkpt>
      <trkpt lat="47.6647" lon="5.97056">
        <ele>210.40039</ele>
        <time>2026-05-16T14:39:53+02:00</time>
      </trkpt>
      <trkpt lat="47.66472" lon="5.9706">
        <ele>210.40039</ele>
        <time>2026-05-16T14:39:54+02:00</time>
      </trkpt>
      <trkpt lat="47.66474" lon="5.97072">
        <ele>210.5</ele>
        <time>2026-05-16T14:39:55+02:00</time>
      </trkpt>
      <trkpt lat="47.66476" lon="5.97079">
        <ele>210.7002</ele>
        <time>2026-05-16T14:39:56+02:00</time>
      </trkpt>
      <trkpt lat="47.66477" lon="5.97087">
        <ele>210.90039</ele>
        <time>2026-05-16T14:39:57+02:00</time>
      </trkpt>
      <trkpt lat="47.66478" lon="5.9709">
        <ele>211.2002</ele>
        <time>2026-05-16T14:39:58+02:00</time>
      </trkpt>
      <trkpt lat="47.6648" lon="5.97101">
        <ele>211.5</ele>
        <time>2026-05-16T14:39:59+02:00</time>
      </trkpt>
      <trkpt lat="47.66481" lon="5.97108">
        <ele>211.7998</ele>
        <time>2026-05-16T14:40:00+02:00</time>
      </trkpt>
      <trkpt lat="47.66481" lon="5.97114">
        <ele>211.7998</ele>
        <time>2026-05-16T14:40:01+02:00</time>
      </trkpt>
      <trkpt lat="47.66481" lon="5.9712">
        <ele>212.10059</ele>
        <time>2026-05-16T14:40:02+02:00</time>
      </trkpt>
      <trkpt lat="47.66481" lon="5.97126">
        <ele>212.40039</ele>
        <time>2026-05-16T14:40:03+02:00</time>
      </trkpt>
      <trkpt lat="47.66479" lon="5.97131">
        <ele>212.2998</ele>
        <time>2026-05-16T14:40:04+02:00</time>
      </trkpt>
      <trkpt lat="47.66479" lon="5.97134">
        <ele>212.5</ele>
        <time>2026-05-16T14:40:05+02:00</time>
      </trkpt>
      <trkpt lat="47.66476" lon="5.97142">
        <ele>212.7002</ele>
        <time>2026-05-16T14:40:06+02:00</time>
      </trkpt>
      <trkpt lat="47.66474" lon="5.97147">
        <ele>212.60059</ele>
        <time>2026-05-16T14:40:07+02:00</time>
      </trkpt>
      <trkpt lat="47.66472" lon="5.97151">
        <ele>212.7998</ele>
        <time>2026-05-16T14:40:08+02:00</time>
      </trkpt>
      <trkpt lat="47.6647" lon="5.97153">
        <ele>212.7998</ele>
        <time>2026-05-16T14:40:09+02:00</time>
      </trkpt>
      <trkpt lat="47.66466" lon="5.97154">
        <ele>212.7002</ele>
        <time>2026-05-16T14:40:10+02:00</time>
      </trkpt>
      <trkpt lat="47.66462" lon="5.97155">
        <ele>212.7002</ele>
        <time>2026-05-16T14:40:11+02:00</time>
      </trkpt>
      <trkpt lat="47.66459" lon="5.97156">
        <ele>212.7002</ele>
        <time>2026-05-16T14:40:12+02:00</time>
      </trkpt>
      <trkpt lat="47.66456" lon="5.97157">
        <ele>212.60059</ele>
        <time>2026-05-16T14:40:13+02:00</time>
      </trkpt>
      <trkpt lat="47.66452" lon="5.97159">
        <ele>212.7002</ele>
        <time>2026-05-16T14:40:14+02:00</time>
      </trkpt>
      <trkpt lat="47.66449" lon="5.97161">
        <ele>212.7002</ele>
        <time>2026-05-16T14:40:15+02:00</time>
      </trkpt>
      <trkpt lat="47.66448" lon="5.97164">
        <ele>212.7002</ele>
        <time>2026-05-16T14:40:16+02:00</time>
      </trkpt>
      <trkpt lat="47.66447" lon="5.97167">
        <ele>212.7002</ele>
        <time>2026-05-16T14:40:17+02:00</time>
      </trkpt>
      <trkpt lat="47.66446" lon="5.97171">
        <ele>212.7002</ele>
        <time>2026-05-16T14:40:18+02:00</time>
      </trkpt>
      <trkpt lat="47.66446" lon="5.97175">
        <ele>212.7002</ele>
        <time>2026-05-16T14:40:19+02:00</time>
      </trkpt>
      <trkpt lat="47.66445" lon="5.97179">
        <ele>212.7998</ele>
        <time>2026-05-16T14:40:20+02:00</time>
      </trkpt>
      <trkpt lat="47.66444" lon="5.97183">
        <ele>212.7998</ele>
        <time>2026-05-16T14:40:21+02:00</time>
      </trkpt>
      <trkpt lat="47.66443" lon="5.97187">
        <ele>213</ele>
        <time>2026-05-16T14:40:22+02:00</time>
      </trkpt>
      <trkpt lat="47.66443" lon="5.97191">
        <ele>213</ele>
        <time>2026-05-16T14:40:23+02:00</time>
      </trkpt>
      <trkpt lat="47.66442" lon="5.97195">
        <ele>213.10059</ele>
        <time>2026-05-16T14:40:24+02:00</time>
      </trkpt>
      <trkpt lat="47.66443" lon="5.97199">
        <ele>213.10059</ele>
        <time>2026-05-16T14:40:25+02:00</time>
      </trkpt>
      <trkpt lat="47.66443" lon="5.97202">
        <ele>213.2002</ele>
        <time>2026-05-16T14:40:26+02:00</time>
      </trkpt>
      <trkpt lat="47.66445" lon="5.97204">
        <ele>213.2002</ele>
        <time>2026-05-16T14:40:27+02:00</time>
      </trkpt>
      <trkpt lat="47.66446" lon="5.97205">
        <ele>213.2002</ele>
        <time>2026-05-16T14:40:28+02:00</time>
      </trkpt>
      <trkpt lat="47.66447" lon="5.97206">
        <ele>213.2998</ele>
        <time>2026-05-16T14:40:29+02:00</time>
      </trkpt>
      <trkpt lat="47.66448" lon="5.97206">
        <ele>213.2998</ele>
        <time>2026-05-16T14:40:30+02:00</time>
      </trkpt>
      <trkpt lat="47.6645" lon="5.97206">
        <ele>213.2998</ele>
        <time>2026-05-16T14:40:31+02:00</time>
      </trkpt>
      <trkpt lat="47.66452" lon="5.97207">
        <ele>213.2998</ele>
        <time>2026-05-16T14:40:32+02:00</time>
      </trkpt>
      <trkpt lat="47.66453" lon="5.97206">
        <ele>213.2998</ele>
        <time>2026-05-16T14:40:33+02:00</time>
      </trkpt>
      <trkpt lat="47.66453" lon="5.97206">
        <ele>213.2998</ele>
        <time>2026-05-16T14:40:34+02:00</time>
      </trkpt>
      <trkpt lat="47.66453" lon="5.97205">
        <ele>213.2998</ele>
        <time>2026-05-16T14:40:35+02:00</time>
      </trkpt>
      <trkpt lat="47.66453" lon="5.97205">
        <ele>213.2998</ele>
        <time>2026-05-16T14:40:36+02:00</time>
      </trkpt>
      <trkpt lat="47.66453" lon="5.97205">
        <ele>213.2998</ele>
        <time>2026-05-16T14:40:37+02:00</time>
      </trkpt>
      <trkpt lat="47.66453" lon="5.97205">
        <ele>213.2998</ele>
        <time>2026-05-16T14:54:28+02:00</time>
      </trkpt>
      <trkpt lat="47.66453" lon="5.97205">
        <ele>213.2998</ele>
        <time>2026-05-16T14:54:29+02:00</time>
      </trkpt>
      <trkpt lat="47.66453" lon="5.97205">
        <ele>213.2998</ele>
        <time>2026-05-16T14:54:30+02:00</time>
      </trkpt>
      <trkpt lat="47.66453" lon="5.97205">
        <ele>213.2998</ele>
        <time>2026-05-16T14:54:31+02:00</time>
      </trkpt>
      <trkpt lat="47.66453" lon="5.97205">
        <ele>213.2998</ele>
        <time>2026-05-16T14:54:32+02:00</time>
      </trkpt>
      <trkpt lat="47.66453" lon="5.97205">
        <ele>213.2998</ele>
        <time>2026-05-16T14:54:33+02:00</time>
      </trkpt>
      <trkpt lat="47.66453" lon="5.97205">
        <ele>213.2998</ele>
        <time>2026-05-16T14:54:34+02:00</time>
      </trkpt>
      <trkpt lat="47.66453" lon="5.97205">
        <ele>213.2998</ele>
        <time>2026-05-16T14:54:35+02:00</time>
      </trkpt>
      <trkpt lat="47.66453" lon="5.97205">
        <ele>213.2998</ele>
        <time>2026-05-16T14:54:36+02:00</time>
      </trkpt>
      <trkpt lat="47.66453" lon="5.97205">
        <ele>213.2998</ele>
        <time>2026-05-16T14:54:37+02:00</time>
      </trkpt>
      <trkpt lat="47.66453" lon="5.97205">
        <ele>213.2998</ele>
        <time>2026-05-16T14:54:38+02:00</time>
      </trkpt>
      <trkpt lat="47.66453" lon="5.97205">
        <ele>213.2998</ele>
        <time>2026-05-16T14:54:39+02:00</time>
      </trkpt>
      <trkpt lat="47.66453" lon="5.97205">
        <ele>213.2998</ele>
        <time>2026-05-16T14:54:40+02:00</time>
      </trkpt>
      <trkpt lat="47.66453" lon="5.97205">
        <ele>213.2998</ele>
        <time>2026-05-16T14:54:41+02:00</time>
      </trkpt>
      <trkpt lat="47.66453" lon="5.97205">
        <ele>213.2998</ele>
        <time>2026-05-16T14:54:42+02:00</time>
      </trkpt>
      <trkpt lat="47.66453" lon="5.97205">
        <ele>213.2998</ele>
        <time>2026-05-16T14:54:43+02:00</time>
      </trkpt>
      <trkpt lat="47.66453" lon="5.97205">
        <ele>213.2998</ele>
        <time>2026-05-16T14:54:44+02:00</time>
      </trkpt>
      <trkpt lat="47.66453" lon="5.97205">
        <ele>213.2998</ele>
        <time>2026-05-16T14:54:45+02:00</time>
      </trkpt>
      <trkpt lat="47.66453" lon="5.97205">
        <ele>213.2998</ele>
        <time>2026-05-16T14:54:46+02:00</time>
      </trkpt>
      <trkpt lat="47.66453" lon="5.97205">
        <ele>213.2998</ele>
        <time>2026-05-16T14:54:47+02:00</time>
      </trkpt>
      <trkpt lat="47.66446" lon="5.97207">
        <ele>213.2002</ele>
        <time>2026-05-16T14:54:48+02:00</time>
      </trkpt>
      <trkpt lat="47.66445" lon="5.97207">
        <ele>213.2002</ele>
        <time>2026-05-16T14:54:49+02:00</time>
      </trkpt>
      <trkpt lat="47.66443" lon="5.97209">
        <ele>213.2002</ele>
        <time>2026-05-16T14:54:50+02:00</time>
      </trkpt>
      <trkpt lat="47.66441" lon="5.9721">
        <ele>213.2998</ele>
        <time>2026-05-16T14:54:51+02:00</time>
      </trkpt>
      <trkpt lat="47.66439" lon="5.97212">
        <ele>213.2002</ele>
        <time>2026-05-16T14:54:52+02:00</time>
      </trkpt>
      <trkpt lat="47.66438" lon="5.97214">
        <ele>213.2002</ele>
        <time>2026-05-16T14:54:53+02:00</time>
      </trkpt>
      <trkpt lat="47.66437" lon="5.97216">
        <ele>213.2002</ele>
        <time>2026-05-16T14:54:54+02:00</time>
      </trkpt>
      <trkpt lat="47.66436" lon="5.97219">
        <ele>213.2998</ele>
        <time>2026-05-16T14:54:55+02:00</time>
      </trkpt>
      <trkpt lat="47.66435" lon="5.97222">
        <ele>213.2998</ele>
        <time>2026-05-16T14:54:56+02:00</time>
      </trkpt>
      <trkpt lat="47.66434" lon="5.97225">
        <ele>213.2002</ele>
        <time>2026-05-16T14:54:57+02:00</time>
      </trkpt>
      <trkpt lat="47.66432" lon="5.97229">
        <ele>213.2998</ele>
        <time>2026-05-16T14:54:58+02:00</time>
      </trkpt>
      <trkpt lat="47.66431" lon="5.97234">
        <ele>213.2998</ele>
        <time>2026-05-16T14:54:59+02:00</time>
      </trkpt>
      <trkpt lat="47.6643" lon="5.97239">
        <ele>213.40039</ele>
        <time>2026-05-16T14:55:00+02:00</time>
      </trkpt>
      <trkpt lat="47.66429" lon="5.97245">
        <ele>213.40039</ele>
        <time>2026-05-16T14:55:01+02:00</time>
      </trkpt>
      <trkpt lat="47.66428" lon="5.9725">
        <ele>213.40039</ele>
        <time>2026-05-16T14:55:02+02:00</time>
      </trkpt>
      <trkpt lat="47.66427" lon="5.97256">
        <ele>213.40039</ele>
        <time>2026-05-16T14:55:03+02:00</time>
      </trkpt>
      <trkpt lat="47.66426" lon="5.97263">
        <ele>213.40039</ele>
        <time>2026-05-16T14:55:04+02:00</time>
      </trkpt>
      <trkpt lat="47.66425" lon="5.97269">
        <ele>213.40039</ele>
        <time>2026-05-16T14:55:05+02:00</time>
      </trkpt>
      <trkpt lat="47.66424" lon="5.97275">
        <ele>213.40039</ele>
        <time>2026-05-16T14:55:06+02:00</time>
      </trkpt>
      <trkpt lat="47.66422" lon="5.97282">
        <ele>213.40039</ele>
        <time>2026-05-16T14:55:07+02:00</time>
      </trkpt>
      <trkpt lat="47.66421" lon="5.97288">
        <ele>213.40039</ele>
        <time>2026-05-16T14:55:08+02:00</time>
      </trkpt>
      <trkpt lat="47.66419" lon="5.97294">
        <ele>213.40039</ele>
        <time>2026-05-16T14:55:09+02:00</time>
      </trkpt>
      <trkpt lat="47.66417" lon="5.973">
        <ele>213.2998</ele>
        <time>2026-05-16T14:55:10+02:00</time>
      </trkpt>
      <trkpt lat="47.66414" lon="5.97306">
        <ele>213.2998</ele>
        <time>2026-05-16T14:55:11+02:00</time>
      </trkpt>
      <trkpt lat="47.66413" lon="5.97309">
        <ele>213.2998</ele>
        <time>2026-05-16T14:55:12+02:00</time>
      </trkpt>
      <trkpt lat="47.66409" lon="5.97317">
        <ele>213.2002</ele>
        <time>2026-05-16T14:55:13+02:00</time>
      </trkpt>
      <trkpt lat="47.66407" lon="5.97322">
        <ele>213.2002</ele>
        <time>2026-05-16T14:55:14+02:00</time>
      </trkpt>
      <trkpt lat="47.66404" lon="5.97328">
        <ele>213.2002</ele>
        <time>2026-05-16T14:55:15+02:00</time>
      </trkpt>
      <trkpt lat="47.66402" lon="5.97333">
        <ele>213.2002</ele>
        <time>2026-05-16T14:55:16+02:00</time>
      </trkpt>
      <trkpt lat="47.66399" lon="5.97338">
        <ele>213.10059</ele>
        <time>2026-05-16T14:55:17+02:00</time>
      </trkpt>
      <trkpt lat="47.66396" lon="5.97344">
        <ele>213.10059</ele>
        <time>2026-05-16T14:55:18+02:00</time>
      </trkpt>
      <trkpt lat="47.66394" lon="5.97349">
        <ele>213</ele>
        <time>2026-05-16T14:55:19+02:00</time>
      </trkpt>
      <trkpt lat="47.66391" lon="5.97355">
        <ele>213</ele>
        <time>2026-05-16T14:55:20+02:00</time>
      </trkpt>
      <trkpt lat="47.66388" lon="5.9736">
        <ele>213</ele>
        <time>2026-05-16T14:55:21+02:00</time>
      </trkpt>
      <trkpt lat="47.66385" lon="5.97365">
        <ele>213</ele>
        <time>2026-05-16T14:55:22+02:00</time>
      </trkpt>
      <trkpt lat="47.66384" lon="5.97367">
        <ele>213</ele>
        <time>2026-05-16T14:55:23+02:00</time>
      </trkpt>
      <trkpt lat="47.66379" lon="5.97375">
        <ele>212.90039</ele>
        <time>2026-05-16T14:55:24+02:00</time>
      </trkpt>
      <trkpt lat="47.66375" lon="5.97379">
        <ele>212.7998</ele>
        <time>2026-05-16T14:55:25+02:00</time>
      </trkpt>
      <trkpt lat="47.66372" lon="5.97383">
        <ele>212.7998</ele>
        <time>2026-05-16T14:55:26+02:00</time>
      </trkpt>
      <trkpt lat="47.66368" lon="5.97388">
        <ele>212.7998</ele>
        <time>2026-05-16T14:55:27+02:00</time>
      </trkpt>
      <trkpt lat="47.66365" lon="5.97392">
        <ele>212.7002</ele>
        <time>2026-05-16T14:55:28+02:00</time>
      </trkpt>
      <trkpt lat="47.66361" lon="5.97397">
        <ele>212.7002</ele>
        <time>2026-05-16T14:55:29+02:00</time>
      </trkpt>
      <trkpt lat="47.66359" lon="5.97399">
        <ele>212.7002</ele>
        <time>2026-05-16T14:55:30+02:00</time>
      </trkpt>
      <trkpt lat="47.66353" lon="5.97406">
        <ele>212.60059</ele>
        <time>2026-05-16T14:55:31+02:00</time>
      </trkpt>
      <trkpt lat="47.6635" lon="5.9741">
        <ele>212.7002</ele>
        <time>2026-05-16T14:55:32+02:00</time>
      </trkpt>
      <trkpt lat="47.66345" lon="5.97412">
        <ele>212.60059</ele>
        <time>2026-05-16T14:55:33+02:00</time>
      </trkpt>
      <trkpt lat="47.6634" lon="5.97414">
        <ele>212.60059</ele>
        <time>2026-05-16T14:55:34+02:00</time>
      </trkpt>
      <trkpt lat="47.66335" lon="5.97414">
        <ele>212.5</ele>
        <time>2026-05-16T14:55:35+02:00</time>
      </trkpt>
      <trkpt lat="47.66331" lon="5.97415">
        <ele>212.5</ele>
        <time>2026-05-16T14:55:36+02:00</time>
      </trkpt>
      <trkpt lat="47.66326" lon="5.97415">
        <ele>212.40039</ele>
        <time>2026-05-16T14:55:37+02:00</time>
      </trkpt>
      <trkpt lat="47.66321" lon="5.97414">
        <ele>212.2998</ele>
        <time>2026-05-16T14:55:38+02:00</time>
      </trkpt>
      <trkpt lat="47.66316" lon="5.97414">
        <ele>212.2998</ele>
        <time>2026-05-16T14:55:39+02:00</time>
      </trkpt>
      <trkpt lat="47.66311" lon="5.97413">
        <ele>212.2002</ele>
        <time>2026-05-16T14:55:40+02:00</time>
      </trkpt>
      <trkpt lat="47.66306" lon="5.97413">
        <ele>212.10059</ele>
        <time>2026-05-16T14:55:41+02:00</time>
      </trkpt>
      <trkpt lat="47.66301" lon="5.97413">
        <ele>212</ele>
        <time>2026-05-16T14:55:42+02:00</time>
      </trkpt>
      <trkpt lat="47.66297" lon="5.97416">
        <ele>212.2002</ele>
        <time>2026-05-16T14:55:43+02:00</time>
      </trkpt>
      <trkpt lat="47.66292" lon="5.9742">
        <ele>212.10059</ele>
        <time>2026-05-16T14:55:44+02:00</time>
      </trkpt>
      <trkpt lat="47.66289" lon="5.97425">
        <ele>212.2002</ele>
        <time>2026-05-16T14:55:45+02:00</time>
      </trkpt>
      <trkpt lat="47.66285" lon="5.97432">
        <ele>212.2002</ele>
        <time>2026-05-16T14:55:46+02:00</time>
      </trkpt>
      <trkpt lat="47.66283" lon="5.9744">
        <ele>212.2998</ele>
        <time>2026-05-16T14:55:47+02:00</time>
      </trkpt>
      <trkpt lat="47.66281" lon="5.97448">
        <ele>212.5</ele>
        <time>2026-05-16T14:55:48+02:00</time>
      </trkpt>
      <trkpt lat="47.6628" lon="5.97456">
        <ele>212.7002</ele>
        <time>2026-05-16T14:55:49+02:00</time>
      </trkpt>
      <trkpt lat="47.66279" lon="5.97464">
        <ele>212.90039</ele>
        <time>2026-05-16T14:55:50+02:00</time>
      </trkpt>
      <trkpt lat="47.66277" lon="5.97472">
        <ele>213.10059</ele>
        <time>2026-05-16T14:55:51+02:00</time>
      </trkpt>
      <trkpt lat="47.66277" lon="5.97481">
        <ele>213.2998</ele>
        <time>2026-05-16T14:55:52+02:00</time>
      </trkpt>
      <trkpt lat="47.66276" lon="5.97489">
        <ele>213.5</ele>
        <time>2026-05-16T14:55:53+02:00</time>
      </trkpt>
      <trkpt lat="47.66275" lon="5.97497">
        <ele>213.60059</ele>
        <time>2026-05-16T14:55:54+02:00</time>
      </trkpt>
      <trkpt lat="47.66273" lon="5.97506">
        <ele>213.7998</ele>
        <time>2026-05-16T14:55:55+02:00</time>
      </trkpt>
      <trkpt lat="47.66272" lon="5.97514">
        <ele>213.7998</ele>
        <time>2026-05-16T14:55:56+02:00</time>
      </trkpt>
      <trkpt lat="47.66271" lon="5.97523">
        <ele>213.90039</ele>
        <time>2026-05-16T14:55:57+02:00</time>
      </trkpt>
      <trkpt lat="47.6627" lon="5.97531">
        <ele>214</ele>
        <time>2026-05-16T14:55:58+02:00</time>
      </trkpt>
      <trkpt lat="47.66269" lon="5.9754">
        <ele>214.10059</ele>
        <time>2026-05-16T14:55:59+02:00</time>
      </trkpt>
      <trkpt lat="47.66268" lon="5.97548">
        <ele>214.2002</ele>
        <time>2026-05-16T14:56:00+02:00</time>
      </trkpt>
      <trkpt lat="47.66266" lon="5.97557">
        <ele>214.2998</ele>
        <time>2026-05-16T14:56:01+02:00</time>
      </trkpt>
      <trkpt lat="47.66264" lon="5.97565">
        <ele>214.40039</ele>
        <time>2026-05-16T14:56:02+02:00</time>
      </trkpt>
      <trkpt lat="47.66261" lon="5.97573">
        <ele>214.40039</ele>
        <time>2026-05-16T14:56:03+02:00</time>
      </trkpt>
      <trkpt lat="47.66259" lon="5.97581">
        <ele>214.5</ele>
        <time>2026-05-16T14:56:04+02:00</time>
      </trkpt>
      <trkpt lat="47.66256" lon="5.97588">
        <ele>214.60059</ele>
        <time>2026-05-16T14:56:05+02:00</time>
      </trkpt>
      <trkpt lat="47.66252" lon="5.97596">
        <ele>214.5</ele>
        <time>2026-05-16T14:56:06+02:00</time>
      </trkpt>
      <trkpt lat="47.66248" lon="5.97603">
        <ele>214.5</ele>
        <time>2026-05-16T14:56:07+02:00</time>
      </trkpt>
      <trkpt lat="47.66243" lon="5.97609">
        <ele>214.40039</ele>
        <time>2026-05-16T14:56:08+02:00</time>
      </trkpt>
      <trkpt lat="47.66239" lon="5.97616">
        <ele>214.5</ele>
        <time>2026-05-16T14:56:09+02:00</time>
      </trkpt>
      <trkpt lat="47.66234" lon="5.97623">
        <ele>214.40039</ele>
        <time>2026-05-16T14:56:10+02:00</time>
      </trkpt>
      <trkpt lat="47.6623" lon="5.97629">
        <ele>214.2002</ele>
        <time>2026-05-16T14:56:11+02:00</time>
      </trkpt>
      <trkpt lat="47.66226" lon="5.97636">
        <ele>214.2002</ele>
        <time>2026-05-16T14:56:12+02:00</time>
      </trkpt>
      <trkpt lat="47.66221" lon="5.97643">
        <ele>214.2002</ele>
        <time>2026-05-16T14:56:13+02:00</time>
      </trkpt>
      <trkpt lat="47.66217" lon="5.97649">
        <ele>214.2002</ele>
        <time>2026-05-16T14:56:14+02:00</time>
      </trkpt>
      <trkpt lat="47.66213" lon="5.97655">
        <ele>214.10059</ele>
        <time>2026-05-16T14:56:15+02:00</time>
      </trkpt>
      <trkpt lat="47.66208" lon="5.97661">
        <ele>214.10059</ele>
        <time>2026-05-16T14:56:16+02:00</time>
      </trkpt>
      <trkpt lat="47.66205" lon="5.97667">
        <ele>214.2002</ele>
        <time>2026-05-16T14:56:17+02:00</time>
      </trkpt>
      <trkpt lat="47.662" lon="5.97673">
        <ele>214.10059</ele>
        <time>2026-05-16T14:56:18+02:00</time>
      </trkpt>
      <trkpt lat="47.66196" lon="5.97679">
        <ele>214.10059</ele>
        <time>2026-05-16T14:56:19+02:00</time>
      </trkpt>
      <trkpt lat="47.66192" lon="5.97685">
        <ele>214.10059</ele>
        <time>2026-05-16T14:56:20+02:00</time>
      </trkpt>
      <trkpt lat="47.66188" lon="5.97691">
        <ele>214.2002</ele>
        <time>2026-05-16T14:56:21+02:00</time>
      </trkpt>
      <trkpt lat="47.66184" lon="5.97697">
        <ele>214</ele>
        <time>2026-05-16T14:56:22+02:00</time>
      </trkpt>
      <trkpt lat="47.6618" lon="5.97704">
        <ele>213.7998</ele>
        <time>2026-05-16T14:56:23+02:00</time>
      </trkpt>
      <trkpt lat="47.66176" lon="5.9771">
        <ele>214</ele>
        <time>2026-05-16T14:56:24+02:00</time>
      </trkpt>
      <trkpt lat="47.66172" lon="5.97717">
        <ele>213.7998</ele>
        <time>2026-05-16T14:56:25+02:00</time>
      </trkpt>
      <trkpt lat="47.66168" lon="5.97723">
        <ele>213.60059</ele>
        <time>2026-05-16T14:56:26+02:00</time>
      </trkpt>
      <trkpt lat="47.66164" lon="5.9773">
        <ele>213.7002</ele>
        <time>2026-05-16T14:56:27+02:00</time>
      </trkpt>
      <trkpt lat="47.6616" lon="5.97737">
        <ele>213.5</ele>
        <time>2026-05-16T14:56:28+02:00</time>
      </trkpt>
      <trkpt lat="47.66157" lon="5.97744">
        <ele>213.40039</ele>
        <time>2026-05-16T14:56:29+02:00</time>
      </trkpt>
      <trkpt lat="47.66153" lon="5.97752">
        <ele>213.60059</ele>
        <time>2026-05-16T14:56:30+02:00</time>
      </trkpt>
      <trkpt lat="47.66149" lon="5.97759">
        <ele>213.2998</ele>
        <time>2026-05-16T14:56:31+02:00</time>
      </trkpt>
      <trkpt lat="47.66147" lon="5.97763">
        <ele>213.5</ele>
        <time>2026-05-16T14:56:32+02:00</time>
      </trkpt>
      <trkpt lat="47.66142" lon="5.97774">
        <ele>213.5</ele>
        <time>2026-05-16T14:56:33+02:00</time>
      </trkpt>
      <trkpt lat="47.66138" lon="5.9778">
        <ele>213.5</ele>
        <time>2026-05-16T14:56:34+02:00</time>
      </trkpt>
      <trkpt lat="47.66135" lon="5.97787">
        <ele>213.7998</ele>
        <time>2026-05-16T14:56:35+02:00</time>
      </trkpt>
      <trkpt lat="47.66131" lon="5.97793">
        <ele>213.60059</ele>
        <time>2026-05-16T14:56:36+02:00</time>
      </trkpt>
      <trkpt lat="47.66128" lon="5.978">
        <ele>213.60059</ele>
        <time>2026-05-16T14:56:37+02:00</time>
      </trkpt>
      <trkpt lat="47.66125" lon="5.97807">
        <ele>213.90039</ele>
        <time>2026-05-16T14:56:38+02:00</time>
      </trkpt>
      <trkpt lat="47.66122" lon="5.97814">
        <ele>213.7998</ele>
        <time>2026-05-16T14:56:39+02:00</time>
      </trkpt>
      <trkpt lat="47.66118" lon="5.97821">
        <ele>214.10059</ele>
        <time>2026-05-16T14:56:40+02:00</time>
      </trkpt>
      <trkpt lat="47.66115" lon="5.97827">
        <ele>213.7998</ele>
        <time>2026-05-16T14:56:41+02:00</time>
      </trkpt>
      <trkpt lat="47.66113" lon="5.97831">
        <ele>214.10059</ele>
        <time>2026-05-16T14:56:42+02:00</time>
      </trkpt>
      <trkpt lat="47.66108" lon="5.97841">
        <ele>214.2002</ele>
        <time>2026-05-16T14:56:43+02:00</time>
      </trkpt>
      <trkpt lat="47.66105" lon="5.97848">
        <ele>214.10059</ele>
        <time>2026-05-16T14:56:44+02:00</time>
      </trkpt>
      <trkpt lat="47.66101" lon="5.97855">
        <ele>214.2002</ele>
        <time>2026-05-16T14:56:45+02:00</time>
      </trkpt>
      <trkpt lat="47.66097" lon="5.97862">
        <ele>213.90039</ele>
        <time>2026-05-16T14:56:46+02:00</time>
      </trkpt>
      <trkpt lat="47.66094" lon="5.9787">
        <ele>214.10059</ele>
        <time>2026-05-16T14:56:47+02:00</time>
      </trkpt>
      <trkpt lat="47.6609" lon="5.97878">
        <ele>214.10059</ele>
        <time>2026-05-16T14:56:48+02:00</time>
      </trkpt>
      <trkpt lat="47.66087" lon="5.97885">
        <ele>214</ele>
        <time>2026-05-16T14:56:49+02:00</time>
      </trkpt>
      <trkpt lat="47.66083" lon="5.97893">
        <ele>214.10059</ele>
        <time>2026-05-16T14:56:50+02:00</time>
      </trkpt>
      <trkpt lat="47.6608" lon="5.979">
        <ele>214</ele>
        <time>2026-05-16T14:56:51+02:00</time>
      </trkpt>
      <trkpt lat="47.66076" lon="5.97908">
        <ele>214</ele>
        <time>2026-05-16T14:56:52+02:00</time>
      </trkpt>
      <trkpt lat="47.66073" lon="5.97915">
        <ele>214.2002</ele>
        <time>2026-05-16T14:56:53+02:00</time>
      </trkpt>
      <trkpt lat="47.66069" lon="5.97922">
        <ele>213.90039</ele>
        <time>2026-05-16T14:56:54+02:00</time>
      </trkpt>
      <trkpt lat="47.66066" lon="5.97929">
        <ele>214</ele>
        <time>2026-05-16T14:56:55+02:00</time>
      </trkpt>
      <trkpt lat="47.66062" lon="5.97936">
        <ele>213.90039</ele>
        <time>2026-05-16T14:56:56+02:00</time>
      </trkpt>
      <trkpt lat="47.66059" lon="5.97944">
        <ele>214.2002</ele>
        <time>2026-05-16T14:56:57+02:00</time>
      </trkpt>
      <trkpt lat="47.66055" lon="5.97951">
        <ele>213.7998</ele>
        <time>2026-05-16T14:56:58+02:00</time>
      </trkpt>
      <trkpt lat="47.66052" lon="5.97958">
        <ele>213.60059</ele>
        <time>2026-05-16T14:56:59+02:00</time>
      </trkpt>
      <trkpt lat="47.66049" lon="5.97966">
        <ele>214</ele>
        <time>2026-05-16T14:57:00+02:00</time>
      </trkpt>
      <trkpt lat="47.66046" lon="5.97973">
        <ele>213.60059</ele>
        <time>2026-05-16T14:57:01+02:00</time>
      </trkpt>
      <trkpt lat="47.66042" lon="5.9798">
        <ele>214.2002</ele>
        <time>2026-05-16T14:57:02+02:00</time>
      </trkpt>
      <trkpt lat="47.66038" lon="5.97987">
        <ele>214.10059</ele>
        <time>2026-05-16T14:57:03+02:00</time>
      </trkpt>
      <trkpt lat="47.66034" lon="5.97994">
        <ele>214</ele>
        <time>2026-05-16T14:57:04+02:00</time>
      </trkpt>
      <trkpt lat="47.66031" lon="5.98001">
        <ele>214.40039</ele>
        <time>2026-05-16T14:57:05+02:00</time>
      </trkpt>
      <trkpt lat="47.66026" lon="5.98008">
        <ele>214</ele>
        <time>2026-05-16T14:57:06+02:00</time>
      </trkpt>
      <trkpt lat="47.66023" lon="5.98016">
        <ele>214.2002</ele>
        <time>2026-05-16T14:57:07+02:00</time>
      </trkpt>
      <trkpt lat="47.66018" lon="5.98024">
        <ele>214.10059</ele>
        <time>2026-05-16T14:57:08+02:00</time>
      </trkpt>
      <trkpt lat="47.66014" lon="5.98032">
        <ele>214.40039</ele>
        <time>2026-05-16T14:57:09+02:00</time>
      </trkpt>
      <trkpt lat="47.6601" lon="5.9804">
        <ele>214.2002</ele>
        <time>2026-05-16T14:57:10+02:00</time>
      </trkpt>
      <trkpt lat="47.66006" lon="5.98048">
        <ele>213.90039</ele>
        <time>2026-05-16T14:57:11+02:00</time>
      </trkpt>
      <trkpt lat="47.66002" lon="5.98056">
        <ele>214.10059</ele>
        <time>2026-05-16T14:57:12+02:00</time>
      </trkpt>
      <trkpt lat="47.65997" lon="5.98064">
        <ele>213.60059</ele>
        <time>2026-05-16T14:57:13+02:00</time>
      </trkpt>
      <trkpt lat="47.65993" lon="5.98072">
        <ele>213.2002</ele>
        <time>2026-05-16T14:57:14+02:00</time>
      </trkpt>
      <trkpt lat="47.65989" lon="5.9808">
        <ele>213.2002</ele>
        <time>2026-05-16T14:57:15+02:00</time>
      </trkpt>
      <trkpt lat="47.65984" lon="5.98088">
        <ele>213.40039</ele>
        <time>2026-05-16T14:57:16+02:00</time>
      </trkpt>
      <trkpt lat="47.6598" lon="5.98096">
        <ele>213.2002</ele>
        <time>2026-05-16T14:57:17+02:00</time>
      </trkpt>
      <trkpt lat="47.65975" lon="5.98104">
        <ele>212.90039</ele>
        <time>2026-05-16T14:57:18+02:00</time>
      </trkpt>
      <trkpt lat="47.65971" lon="5.98112">
        <ele>212.40039</ele>
        <time>2026-05-16T14:57:19+02:00</time>
      </trkpt>
      <trkpt lat="47.65966" lon="5.9812">
        <ele>212.10059</ele>
        <time>2026-05-16T14:57:20+02:00</time>
      </trkpt>
      <trkpt lat="47.65962" lon="5.98128">
        <ele>212.10059</ele>
        <time>2026-05-16T14:57:21+02:00</time>
      </trkpt>
      <trkpt lat="47.65957" lon="5.98136">
        <ele>212</ele>
        <time>2026-05-16T14:57:22+02:00</time>
      </trkpt>
      <trkpt lat="47.65953" lon="5.98144">
        <ele>212.10059</ele>
        <time>2026-05-16T14:57:23+02:00</time>
      </trkpt>
      <trkpt lat="47.65948" lon="5.98151">
        <ele>211.60059</ele>
        <time>2026-05-16T14:57:24+02:00</time>
      </trkpt>
      <trkpt lat="47.65943" lon="5.98158">
        <ele>211.10059</ele>
        <time>2026-05-16T14:57:25+02:00</time>
      </trkpt>
      <trkpt lat="47.65938" lon="5.98165">
        <ele>211.60059</ele>
        <time>2026-05-16T14:57:26+02:00</time>
      </trkpt>
      <trkpt lat="47.65934" lon="5.98173">
        <ele>211.5</ele>
        <time>2026-05-16T14:57:27+02:00</time>
      </trkpt>
      <trkpt lat="47.65929" lon="5.98181">
        <ele>211.2002</ele>
        <time>2026-05-16T14:57:28+02:00</time>
      </trkpt>
      <trkpt lat="47.65924" lon="5.98188">
        <ele>210.5</ele>
        <time>2026-05-16T14:57:29+02:00</time>
      </trkpt>
      <trkpt lat="47.65922" lon="5.98192">
        <ele>210.7002</ele>
        <time>2026-05-16T14:57:30+02:00</time>
      </trkpt>
      <trkpt lat="47.65915" lon="5.98204">
        <ele>210.5</ele>
        <time>2026-05-16T14:57:31+02:00</time>
      </trkpt>
      <trkpt lat="47.65911" lon="5.98213">
        <ele>210.40039</ele>
        <time>2026-05-16T14:57:32+02:00</time>
      </trkpt>
      <trkpt lat="47.65906" lon="5.98221">
        <ele>210.2002</ele>
        <time>2026-05-16T14:57:33+02:00</time>
      </trkpt>
      <trkpt lat="47.65902" lon="5.98229">
        <ele>210</ele>
        <time>2026-05-16T14:57:34+02:00</time>
      </trkpt>
      <trkpt lat="47.65898" lon="5.98238">
        <ele>210.2002</ele>
        <time>2026-05-16T14:57:35+02:00</time>
      </trkpt>
      <trkpt lat="47.65893" lon="5.98246">
        <ele>210.2002</ele>
        <time>2026-05-16T14:57:36+02:00</time>
      </trkpt>
      <trkpt lat="47.65889" lon="5.98255">
        <ele>210.40039</ele>
        <time>2026-05-16T14:57:37+02:00</time>
      </trkpt>
      <trkpt lat="47.65884" lon="5.98263">
        <ele>210.5</ele>
        <time>2026-05-16T14:57:38+02:00</time>
      </trkpt>
      <trkpt lat="47.65879" lon="5.98271">
        <ele>210.5</ele>
        <time>2026-05-16T14:57:39+02:00</time>
      </trkpt>
      <trkpt lat="47.65874" lon="5.98278">
        <ele>210.40039</ele>
        <time>2026-05-16T14:57:40+02:00</time>
      </trkpt>
      <trkpt lat="47.6587" lon="5.98286">
        <ele>210.5</ele>
        <time>2026-05-16T14:57:41+02:00</time>
      </trkpt>
      <trkpt lat="47.65865" lon="5.98293">
        <ele>210.60059</ele>
        <time>2026-05-16T14:57:42+02:00</time>
      </trkpt>
      <trkpt lat="47.65859" lon="5.983">
        <ele>210.7002</ele>
        <time>2026-05-16T14:57:43+02:00</time>
      </trkpt>
      <trkpt lat="47.65854" lon="5.98305">
        <ele>210.90039</ele>
        <time>2026-05-16T14:57:44+02:00</time>
      </trkpt>
      <trkpt lat="47.65848" lon="5.98311">
        <ele>211</ele>
        <time>2026-05-16T14:57:45+02:00</time>
      </trkpt>
      <trkpt lat="47.65842" lon="5.98316">
        <ele>210.90039</ele>
        <time>2026-05-16T14:57:46+02:00</time>
      </trkpt>
      <trkpt lat="47.65835" lon="5.98321">
        <ele>211.10059</ele>
        <time>2026-05-16T14:57:47+02:00</time>
      </trkpt>
      <trkpt lat="47.65829" lon="5.98326">
        <ele>211.40039</ele>
        <time>2026-05-16T14:57:48+02:00</time>
      </trkpt>
      <trkpt lat="47.65823" lon="5.9833">
        <ele>211.40039</ele>
        <time>2026-05-16T14:57:49+02:00</time>
      </trkpt>
      <trkpt lat="47.65817" lon="5.98335">
        <ele>211.60059</ele>
        <time>2026-05-16T14:57:50+02:00</time>
      </trkpt>
      <trkpt lat="47.65811" lon="5.98341">
        <ele>211.60059</ele>
        <time>2026-05-16T14:57:51+02:00</time>
      </trkpt>
      <trkpt lat="47.65806" lon="5.98347">
        <ele>211.7002</ele>
        <time>2026-05-16T14:57:52+02:00</time>
      </trkpt>
      <trkpt lat="47.65801" lon="5.98354">
        <ele>211.90039</ele>
        <time>2026-05-16T14:57:53+02:00</time>
      </trkpt>
      <trkpt lat="47.65796" lon="5.98362">
        <ele>212.10059</ele>
        <time>2026-05-16T14:57:54+02:00</time>
      </trkpt>
      <trkpt lat="47.65791" lon="5.98369">
        <ele>212.40039</ele>
        <time>2026-05-16T14:57:55+02:00</time>
      </trkpt>
      <trkpt lat="47.65787" lon="5.98378">
        <ele>212.40039</ele>
        <time>2026-05-16T14:57:56+02:00</time>
      </trkpt>
      <trkpt lat="47.65783" lon="5.98387">
        <ele>212.60059</ele>
        <time>2026-05-16T14:57:57+02:00</time>
      </trkpt>
      <trkpt lat="47.6578" lon="5.98396">
        <ele>212.5</ele>
        <time>2026-05-16T14:57:58+02:00</time>
      </trkpt>
      <trkpt lat="47.65776" lon="5.98406">
        <ele>212.90039</ele>
        <time>2026-05-16T14:57:59+02:00</time>
      </trkpt>
      <trkpt lat="47.65773" lon="5.98415">
        <ele>213.10059</ele>
        <time>2026-05-16T14:58:00+02:00</time>
      </trkpt>
      <trkpt lat="47.65769" lon="5.98423">
        <ele>213.5</ele>
        <time>2026-05-16T14:58:01+02:00</time>
      </trkpt>
      <trkpt lat="47.65766" lon="5.98432">
        <ele>214.2002</ele>
        <time>2026-05-16T14:58:02+02:00</time>
      </trkpt>
      <trkpt lat="47.65762" lon="5.98441">
        <ele>214.2998</ele>
        <time>2026-05-16T14:58:03+02:00</time>
      </trkpt>
      <trkpt lat="47.65759" lon="5.98449">
        <ele>214.7998</ele>
        <time>2026-05-16T14:58:04+02:00</time>
      </trkpt>
      <trkpt lat="47.65756" lon="5.98458">
        <ele>215</ele>
        <time>2026-05-16T14:58:05+02:00</time>
      </trkpt>
      <trkpt lat="47.65753" lon="5.98466">
        <ele>215.5</ele>
        <time>2026-05-16T14:58:06+02:00</time>
      </trkpt>
      <trkpt lat="47.6575" lon="5.98474">
        <ele>215.60059</ele>
        <time>2026-05-16T14:58:07+02:00</time>
      </trkpt>
      <trkpt lat="47.65747" lon="5.98482">
        <ele>216</ele>
        <time>2026-05-16T14:58:08+02:00</time>
      </trkpt>
      <trkpt lat="47.65744" lon="5.98491">
        <ele>216</ele>
        <time>2026-05-16T14:58:09+02:00</time>
      </trkpt>
      <trkpt lat="47.65741" lon="5.98499">
        <ele>216.2002</ele>
        <time>2026-05-16T14:58:10+02:00</time>
      </trkpt>
      <trkpt lat="47.6574" lon="5.98503">
        <ele>216.2002</ele>
        <time>2026-05-16T14:58:11+02:00</time>
      </trkpt>
      <trkpt lat="47.65735" lon="5.98515">
        <ele>217</ele>
        <time>2026-05-16T14:58:12+02:00</time>
      </trkpt>
      <trkpt lat="47.65732" lon="5.98523">
        <ele>217</ele>
        <time>2026-05-16T14:58:13+02:00</time>
      </trkpt>
      <trkpt lat="47.65729" lon="5.98531">
        <ele>216.90039</ele>
        <time>2026-05-16T14:58:14+02:00</time>
      </trkpt>
      <trkpt lat="47.65726" lon="5.9854">
        <ele>217.2998</ele>
        <time>2026-05-16T14:58:15+02:00</time>
      </trkpt>
      <trkpt lat="47.65723" lon="5.98548">
        <ele>216.7998</ele>
        <time>2026-05-16T14:58:16+02:00</time>
      </trkpt>
      <trkpt lat="47.6572" lon="5.98556">
        <ele>217</ele>
        <time>2026-05-16T14:58:17+02:00</time>
      </trkpt>
      <trkpt lat="47.65717" lon="5.98564">
        <ele>216.7002</ele>
        <time>2026-05-16T14:58:18+02:00</time>
      </trkpt>
      <trkpt lat="47.65714" lon="5.98572">
        <ele>217.10059</ele>
        <time>2026-05-16T14:58:19+02:00</time>
      </trkpt>
      <trkpt lat="47.65711" lon="5.9858">
        <ele>216.90039</ele>
        <time>2026-05-16T14:58:20+02:00</time>
      </trkpt>
      <trkpt lat="47.65708" lon="5.98588">
        <ele>217.5</ele>
        <time>2026-05-16T14:58:21+02:00</time>
      </trkpt>
      <trkpt lat="47.65705" lon="5.98596">
        <ele>217.2002</ele>
        <time>2026-05-16T14:58:22+02:00</time>
      </trkpt>
      <trkpt lat="47.65702" lon="5.98604">
        <ele>217.7998</ele>
        <time>2026-05-16T14:58:23+02:00</time>
      </trkpt>
      <trkpt lat="47.65699" lon="5.98612">
        <ele>217.5</ele>
        <time>2026-05-16T14:58:24+02:00</time>
      </trkpt>
      <trkpt lat="47.65696" lon="5.9862">
        <ele>218.2002</ele>
        <time>2026-05-16T14:58:25+02:00</time>
      </trkpt>
      <trkpt lat="47.65695" lon="5.98624">
        <ele>218.2002</ele>
        <time>2026-05-16T14:58:26+02:00</time>
      </trkpt>
      <trkpt lat="47.6569" lon="5.98636">
        <ele>218.5</ele>
        <time>2026-05-16T14:58:27+02:00</time>
      </trkpt>
      <trkpt lat="47.65687" lon="5.98644">
        <ele>218.2002</ele>
        <time>2026-05-16T14:58:28+02:00</time>
      </trkpt>
      <trkpt lat="47.65684" lon="5.98652">
        <ele>218.7998</ele>
        <time>2026-05-16T14:58:29+02:00</time>
      </trkpt>
      <trkpt lat="47.65682" lon="5.98656">
        <ele>217.90039</ele>
        <time>2026-05-16T14:58:30+02:00</time>
      </trkpt>
      <trkpt lat="47.65678" lon="5.98668">
        <ele>218.40039</ele>
        <time>2026-05-16T14:58:31+02:00</time>
      </trkpt>
      <trkpt lat="47.65675" lon="5.98677">
        <ele>218.10059</ele>
        <time>2026-05-16T14:58:32+02:00</time>
      </trkpt>
      <trkpt lat="47.65672" lon="5.98685">
        <ele>218.7002</ele>
        <time>2026-05-16T14:58:33+02:00</time>
      </trkpt>
      <trkpt lat="47.65669" lon="5.98692">
        <ele>218.2998</ele>
        <time>2026-05-16T14:58:34+02:00</time>
      </trkpt>
      <trkpt lat="47.65666" lon="5.987">
        <ele>218</ele>
        <time>2026-05-16T14:58:35+02:00</time>
      </trkpt>
      <trkpt lat="47.65664" lon="5.98707">
        <ele>218.5</ele>
        <time>2026-05-16T14:58:36+02:00</time>
      </trkpt>
      <trkpt lat="47.65661" lon="5.98715">
        <ele>219</ele>
        <time>2026-05-16T14:58:37+02:00</time>
      </trkpt>
      <trkpt lat="47.65659" lon="5.98722">
        <ele>218.60059</ele>
        <time>2026-05-16T14:58:38+02:00</time>
      </trkpt>
      <trkpt lat="47.65656" lon="5.9873">
        <ele>219</ele>
        <time>2026-05-16T14:58:39+02:00</time>
      </trkpt>
      <trkpt lat="47.65654" lon="5.98738">
        <ele>218.60059</ele>
        <time>2026-05-16T14:58:40+02:00</time>
      </trkpt>
      <trkpt lat="47.65652" lon="5.98745">
        <ele>218.60059</ele>
        <time>2026-05-16T14:58:41+02:00</time>
      </trkpt>
      <trkpt lat="47.6565" lon="5.98753">
        <ele>218.7998</ele>
        <time>2026-05-16T14:58:42+02:00</time>
      </trkpt>
      <trkpt lat="47.65648" lon="5.98761">
        <ele>218.2998</ele>
        <time>2026-05-16T14:58:43+02:00</time>
      </trkpt>
      <trkpt lat="47.65647" lon="5.9877">
        <ele>218.5</ele>
        <time>2026-05-16T14:58:44+02:00</time>
      </trkpt>
      <trkpt lat="47.65645" lon="5.98778">
        <ele>218.7002</ele>
        <time>2026-05-16T14:58:45+02:00</time>
      </trkpt>
      <trkpt lat="47.65644" lon="5.98787">
        <ele>218.7998</ele>
        <time>2026-05-16T14:58:46+02:00</time>
      </trkpt>
      <trkpt lat="47.65643" lon="5.98792">
        <ele>219</ele>
        <time>2026-05-16T14:58:47+02:00</time>
      </trkpt>
      <trkpt lat="47.65641" lon="5.98805">
        <ele>218.40039</ele>
        <time>2026-05-16T14:58:48+02:00</time>
      </trkpt>
      <trkpt lat="47.65639" lon="5.98814">
        <ele>218.5</ele>
        <time>2026-05-16T14:58:49+02:00</time>
      </trkpt>
      <trkpt lat="47.65637" lon="5.98824">
        <ele>217.7998</ele>
        <time>2026-05-16T14:58:50+02:00</time>
      </trkpt>
      <trkpt lat="47.65636" lon="5.98828">
        <ele>217.7998</ele>
        <time>2026-05-16T14:58:51+02:00</time>
      </trkpt>
      <trkpt lat="47.65634" lon="5.98842">
        <ele>217.7998</ele>
        <time>2026-05-16T14:58:52+02:00</time>
      </trkpt>
      <trkpt lat="47.65632" lon="5.98852">
        <ele>217.7998</ele>
        <time>2026-05-16T14:58:53+02:00</time>
      </trkpt>
      <trkpt lat="47.6563" lon="5.98861">
        <ele>216.90039</ele>
        <time>2026-05-16T14:58:54+02:00</time>
      </trkpt>
      <trkpt lat="47.65629" lon="5.98871">
        <ele>216.90039</ele>
        <time>2026-05-16T14:58:55+02:00</time>
      </trkpt>
      <trkpt lat="47.65627" lon="5.98881">
        <ele>216.90039</ele>
        <time>2026-05-16T14:58:56+02:00</time>
      </trkpt>
      <trkpt lat="47.65625" lon="5.9889">
        <ele>216</ele>
        <time>2026-05-16T14:58:57+02:00</time>
      </trkpt>
      <trkpt lat="47.65624" lon="5.98899">
        <ele>216</ele>
        <time>2026-05-16T14:58:58+02:00</time>
      </trkpt>
      <trkpt lat="47.65621" lon="5.98908">
        <ele>216.10059</ele>
        <time>2026-05-16T14:58:59+02:00</time>
      </trkpt>
      <trkpt lat="47.6562" lon="5.98918">
        <ele>216.2002</ele>
        <time>2026-05-16T14:59:00+02:00</time>
      </trkpt>
      <trkpt lat="47.65618" lon="5.98927">
        <ele>215.2998</ele>
        <time>2026-05-16T14:59:01+02:00</time>
      </trkpt>
      <trkpt lat="47.65616" lon="5.98937">
        <ele>215.40039</ele>
        <time>2026-05-16T14:59:02+02:00</time>
      </trkpt>
      <trkpt lat="47.65614" lon="5.98947">
        <ele>215.5</ele>
        <time>2026-05-16T14:59:03+02:00</time>
      </trkpt>
      <trkpt lat="47.65612" lon="5.98956">
        <ele>214.5</ele>
        <time>2026-05-16T14:59:04+02:00</time>
      </trkpt>
      <trkpt lat="47.6561" lon="5.98966">
        <ele>214.60059</ele>
        <time>2026-05-16T14:59:05+02:00</time>
      </trkpt>
      <trkpt lat="47.65608" lon="5.98976">
        <ele>213.7002</ele>
        <time>2026-05-16T14:59:06+02:00</time>
      </trkpt>
      <trkpt lat="47.65607" lon="5.98985">
        <ele>213.7002</ele>
        <time>2026-05-16T14:59:07+02:00</time>
      </trkpt>
      <trkpt lat="47.65605" lon="5.98994">
        <ele>213.7998</ele>
        <time>2026-05-16T14:59:08+02:00</time>
      </trkpt>
      <trkpt lat="47.65603" lon="5.99003">
        <ele>213.90039</ele>
        <time>2026-05-16T14:59:09+02:00</time>
      </trkpt>
      <trkpt lat="47.65601" lon="5.99011">
        <ele>212.90039</ele>
        <time>2026-05-16T14:59:10+02:00</time>
      </trkpt>
      <trkpt lat="47.656" lon="5.9902">
        <ele>213</ele>
        <time>2026-05-16T14:59:11+02:00</time>
      </trkpt>
      <trkpt lat="47.65598" lon="5.99028">
        <ele>213</ele>
        <time>2026-05-16T14:59:12+02:00</time>
      </trkpt>
      <trkpt lat="47.65596" lon="5.99037">
        <ele>212.10059</ele>
        <time>2026-05-16T14:59:13+02:00</time>
      </trkpt>
      <trkpt lat="47.65595" lon="5.99045">
        <ele>212.2002</ele>
        <time>2026-05-16T14:59:14+02:00</time>
      </trkpt>
      <trkpt lat="47.65593" lon="5.99053">
        <ele>212.2002</ele>
        <time>2026-05-16T14:59:15+02:00</time>
      </trkpt>
      <trkpt lat="47.65591" lon="5.99061">
        <ele>212.2002</ele>
        <time>2026-05-16T14:59:16+02:00</time>
      </trkpt>
      <trkpt lat="47.6559" lon="5.99069">
        <ele>211.60059</ele>
        <time>2026-05-16T14:59:17+02:00</time>
      </trkpt>
      <trkpt lat="47.65588" lon="5.99077">
        <ele>211.60059</ele>
        <time>2026-05-16T14:59:18+02:00</time>
      </trkpt>
      <trkpt lat="47.65587" lon="5.99085">
        <ele>211.60059</ele>
        <time>2026-05-16T14:59:19+02:00</time>
      </trkpt>
      <trkpt lat="47.65585" lon="5.99093">
        <ele>211.60059</ele>
        <time>2026-05-16T14:59:20+02:00</time>
      </trkpt>
      <trkpt lat="47.65584" lon="5.99102">
        <ele>211.2002</ele>
        <time>2026-05-16T14:59:21+02:00</time>
      </trkpt>
      <trkpt lat="47.65583" lon="5.99106">
        <ele>211.2002</ele>
        <time>2026-05-16T14:59:22+02:00</time>
      </trkpt>
      <trkpt lat="47.6558" lon="5.99118">
        <ele>211.2002</ele>
        <time>2026-05-16T14:59:23+02:00</time>
      </trkpt>
      <trkpt lat="47.65579" lon="5.99125">
        <ele>210.7998</ele>
        <time>2026-05-16T14:59:24+02:00</time>
      </trkpt>
      <trkpt lat="47.65577" lon="5.99133">
        <ele>210.7998</ele>
        <time>2026-05-16T14:59:25+02:00</time>
      </trkpt>
      <trkpt lat="47.65576" lon="5.99141">
        <ele>210.7998</ele>
        <time>2026-05-16T14:59:26+02:00</time>
      </trkpt>
      <trkpt lat="47.65574" lon="5.99148">
        <ele>210.7998</ele>
        <time>2026-05-16T14:59:27+02:00</time>
      </trkpt>
      <trkpt lat="47.65572" lon="5.99156">
        <ele>210.5</ele>
        <time>2026-05-16T14:59:28+02:00</time>
      </trkpt>
      <trkpt lat="47.6557" lon="5.99163">
        <ele>210.60059</ele>
        <time>2026-05-16T14:59:29+02:00</time>
      </trkpt>
      <trkpt lat="47.65568" lon="5.99171">
        <ele>210.7002</ele>
        <time>2026-05-16T14:59:30+02:00</time>
      </trkpt>
      <trkpt lat="47.65566" lon="5.99179">
        <ele>210.40039</ele>
        <time>2026-05-16T14:59:31+02:00</time>
      </trkpt>
      <trkpt lat="47.65563" lon="5.99187">
        <ele>210.5</ele>
        <time>2026-05-16T14:59:32+02:00</time>
      </trkpt>
      <trkpt lat="47.65561" lon="5.99196">
        <ele>210.2998</ele>
        <time>2026-05-16T14:59:33+02:00</time>
      </trkpt>
      <trkpt lat="47.65558" lon="5.99205">
        <ele>210.40039</ele>
        <time>2026-05-16T14:59:34+02:00</time>
      </trkpt>
      <trkpt lat="47.65555" lon="5.99214">
        <ele>210.10059</ele>
        <time>2026-05-16T14:59:35+02:00</time>
      </trkpt>
      <trkpt lat="47.65553" lon="5.99223">
        <ele>210.2998</ele>
        <time>2026-05-16T14:59:36+02:00</time>
      </trkpt>
      <trkpt lat="47.6555" lon="5.99233">
        <ele>209.90039</ele>
        <time>2026-05-16T14:59:37+02:00</time>
      </trkpt>
      <trkpt lat="47.65547" lon="5.99242">
        <ele>210.10059</ele>
        <time>2026-05-16T14:59:38+02:00</time>
      </trkpt>
      <trkpt lat="47.65544" lon="5.99252">
        <ele>209.7002</ele>
        <time>2026-05-16T14:59:39+02:00</time>
      </trkpt>
      <trkpt lat="47.65541" lon="5.99262">
        <ele>209.90039</ele>
        <time>2026-05-16T14:59:40+02:00</time>
      </trkpt>
      <trkpt lat="47.65538" lon="5.99271">
        <ele>209.60059</ele>
        <time>2026-05-16T14:59:41+02:00</time>
      </trkpt>
      <trkpt lat="47.65535" lon="5.99281">
        <ele>209.7998</ele>
        <time>2026-05-16T14:59:42+02:00</time>
      </trkpt>
      <trkpt lat="47.65532" lon="5.99291">
        <ele>209.5</ele>
        <time>2026-05-16T14:59:43+02:00</time>
      </trkpt>
      <trkpt lat="47.65529" lon="5.993">
        <ele>209.60059</ele>
        <time>2026-05-16T14:59:44+02:00</time>
      </trkpt>
      <trkpt lat="47.65526" lon="5.9931">
        <ele>209.40039</ele>
        <time>2026-05-16T14:59:45+02:00</time>
      </trkpt>
      <trkpt lat="47.65523" lon="5.9932">
        <ele>209.5</ele>
        <time>2026-05-16T14:59:46+02:00</time>
      </trkpt>
      <trkpt lat="47.6552" lon="5.99329">
        <ele>209.2002</ele>
        <time>2026-05-16T14:59:47+02:00</time>
      </trkpt>
      <trkpt lat="47.65517" lon="5.99339">
        <ele>209.5</ele>
        <time>2026-05-16T14:59:48+02:00</time>
      </trkpt>
      <trkpt lat="47.65514" lon="5.99349">
        <ele>209.2002</ele>
        <time>2026-05-16T14:59:49+02:00</time>
      </trkpt>
      <trkpt lat="47.65511" lon="5.99359">
        <ele>209.40039</ele>
        <time>2026-05-16T14:59:50+02:00</time>
      </trkpt>
      <trkpt lat="47.65508" lon="5.99369">
        <ele>209.10059</ele>
        <time>2026-05-16T14:59:51+02:00</time>
      </trkpt>
      <trkpt lat="47.65505" lon="5.99379">
        <ele>209.2002</ele>
        <time>2026-05-16T14:59:52+02:00</time>
      </trkpt>
      <trkpt lat="47.65503" lon="5.99388">
        <ele>208.7998</ele>
        <time>2026-05-16T14:59:53+02:00</time>
      </trkpt>
      <trkpt lat="47.65499" lon="5.99398">
        <ele>209</ele>
        <time>2026-05-16T14:59:54+02:00</time>
      </trkpt>
      <trkpt lat="47.65497" lon="5.99408">
        <ele>208.60059</ele>
        <time>2026-05-16T14:59:55+02:00</time>
      </trkpt>
      <trkpt lat="47.65495" lon="5.99413">
        <ele>208.60059</ele>
        <time>2026-05-16T14:59:56+02:00</time>
      </trkpt>
      <trkpt lat="47.6549" lon="5.99428">
        <ele>208.2998</ele>
        <time>2026-05-16T14:59:57+02:00</time>
      </trkpt>
      <trkpt lat="47.65487" lon="5.99438">
        <ele>208.5</ele>
        <time>2026-05-16T14:59:58+02:00</time>
      </trkpt>
      <trkpt lat="47.65484" lon="5.99448">
        <ele>208.10059</ele>
        <time>2026-05-16T14:59:59+02:00</time>
      </trkpt>
      <trkpt lat="47.65483" lon="5.99452">
        <ele>208.2002</ele>
        <time>2026-05-16T15:00:00+02:00</time>
      </trkpt>
      <trkpt lat="47.65479" lon="5.99467">
        <ele>207.7998</ele>
        <time>2026-05-16T15:00:01+02:00</time>
      </trkpt>
      <trkpt lat="47.65476" lon="5.99477">
        <ele>208</ele>
        <time>2026-05-16T15:00:02+02:00</time>
      </trkpt>
      <trkpt lat="47.65473" lon="5.99486">
        <ele>207.60059</ele>
        <time>2026-05-16T15:00:03+02:00</time>
      </trkpt>
      <trkpt lat="47.6547" lon="5.99496">
        <ele>207.7002</ele>
        <time>2026-05-16T15:00:04+02:00</time>
      </trkpt>
      <trkpt lat="47.65467" lon="5.99505">
        <ele>207.40039</ele>
        <time>2026-05-16T15:00:05+02:00</time>
      </trkpt>
      <trkpt lat="47.65464" lon="5.99514">
        <ele>207.5</ele>
        <time>2026-05-16T15:00:06+02:00</time>
      </trkpt>
      <trkpt lat="47.65461" lon="5.99522">
        <ele>207.2002</ele>
        <time>2026-05-16T15:00:07+02:00</time>
      </trkpt>
      <trkpt lat="47.65458" lon="5.99531">
        <ele>207.2998</ele>
        <time>2026-05-16T15:00:08+02:00</time>
      </trkpt>
      <trkpt lat="47.65455" lon="5.99539">
        <ele>207.10059</ele>
        <time>2026-05-16T15:00:09+02:00</time>
      </trkpt>
      <trkpt lat="47.65452" lon="5.99547">
        <ele>207</ele>
        <time>2026-05-16T15:00:10+02:00</time>
      </trkpt>
      <trkpt lat="47.65448" lon="5.99555">
        <ele>207.2998</ele>
        <time>2026-05-16T15:00:11+02:00</time>
      </trkpt>
      <trkpt lat="47.65445" lon="5.99564">
        <ele>207.2998</ele>
        <time>2026-05-16T15:00:12+02:00</time>
      </trkpt>
      <trkpt lat="47.65442" lon="5.99572">
        <ele>207.7002</ele>
        <time>2026-05-16T15:00:13+02:00</time>
      </trkpt>
      <trkpt lat="47.65438" lon="5.9958">
        <ele>207.7998</ele>
        <time>2026-05-16T15:00:14+02:00</time>
      </trkpt>
      <trkpt lat="47.65435" lon="5.99588">
        <ele>208.10059</ele>
        <time>2026-05-16T15:00:15+02:00</time>
      </trkpt>
      <trkpt lat="47.65431" lon="5.99597">
        <ele>208.2002</ele>
        <time>2026-05-16T15:00:16+02:00</time>
      </trkpt>
      <trkpt lat="47.65429" lon="5.99601">
        <ele>208.2002</ele>
        <time>2026-05-16T15:00:17+02:00</time>
      </trkpt>
      <trkpt lat="47.65424" lon="5.99614">
        <ele>208.5</ele>
        <time>2026-05-16T15:00:18+02:00</time>
      </trkpt>
      <trkpt lat="47.65421" lon="5.99622">
        <ele>208.60059</ele>
        <time>2026-05-16T15:00:19+02:00</time>
      </trkpt>
      <trkpt lat="47.65417" lon="5.99631">
        <ele>208.60059</ele>
        <time>2026-05-16T15:00:20+02:00</time>
      </trkpt>
      <trkpt lat="47.65413" lon="5.99639">
        <ele>209</ele>
        <time>2026-05-16T15:00:21+02:00</time>
      </trkpt>
      <trkpt lat="47.6541" lon="5.99648">
        <ele>208.90039</ele>
        <time>2026-05-16T15:00:22+02:00</time>
      </trkpt>
      <trkpt lat="47.65406" lon="5.99657">
        <ele>209.2998</ele>
        <time>2026-05-16T15:00:23+02:00</time>
      </trkpt>
      <trkpt lat="47.65402" lon="5.99665">
        <ele>209.2002</ele>
        <time>2026-05-16T15:00:24+02:00</time>
      </trkpt>
      <trkpt lat="47.65399" lon="5.99674">
        <ele>209.10059</ele>
        <time>2026-05-16T15:00:25+02:00</time>
      </trkpt>
      <trkpt lat="47.65395" lon="5.99683">
        <ele>209.40039</ele>
        <time>2026-05-16T15:00:26+02:00</time>
      </trkpt>
      <trkpt lat="47.65394" lon="5.99687">
        <ele>209</ele>
        <time>2026-05-16T15:00:27+02:00</time>
      </trkpt>
      <trkpt lat="47.65389" lon="5.99699">
        <ele>209.2998</ele>
        <time>2026-05-16T15:00:28+02:00</time>
      </trkpt>
      <trkpt lat="47.65385" lon="5.99707">
        <ele>209.10059</ele>
        <time>2026-05-16T15:00:29+02:00</time>
      </trkpt>
      <trkpt lat="47.65382" lon="5.99715">
        <ele>209</ele>
        <time>2026-05-16T15:00:30+02:00</time>
      </trkpt>
      <trkpt lat="47.65378" lon="5.99723">
        <ele>209.10059</ele>
        <time>2026-05-16T15:00:31+02:00</time>
      </trkpt>
      <trkpt lat="47.65375" lon="5.99731">
        <ele>208.90039</ele>
        <time>2026-05-16T15:00:32+02:00</time>
      </trkpt>
      <trkpt lat="47.65372" lon="5.99739">
        <ele>209</ele>
        <time>2026-05-16T15:00:33+02:00</time>
      </trkpt>
      <trkpt lat="47.6537" lon="5.99748">
        <ele>208.7002</ele>
        <time>2026-05-16T15:00:34+02:00</time>
      </trkpt>
      <trkpt lat="47.65367" lon="5.99756">
        <ele>208.7998</ele>
        <time>2026-05-16T15:00:35+02:00</time>
      </trkpt>
      <trkpt lat="47.65364" lon="5.99764">
        <ele>208.60059</ele>
        <time>2026-05-16T15:00:36+02:00</time>
      </trkpt>
      <trkpt lat="47.65361" lon="5.99771">
        <ele>208.60059</ele>
        <time>2026-05-16T15:00:37+02:00</time>
      </trkpt>
      <trkpt lat="47.65357" lon="5.99779">
        <ele>208.40039</ele>
        <time>2026-05-16T15:00:38+02:00</time>
      </trkpt>
      <trkpt lat="47.65354" lon="5.99786">
        <ele>208.40039</ele>
        <time>2026-05-16T15:00:39+02:00</time>
      </trkpt>
      <trkpt lat="47.6535" lon="5.99793">
        <ele>208.2002</ele>
        <time>2026-05-16T15:00:40+02:00</time>
      </trkpt>
      <trkpt lat="47.65349" lon="5.99797">
        <ele>208.2002</ele>
        <time>2026-05-16T15:00:41+02:00</time>
      </trkpt>
      <trkpt lat="47.65344" lon="5.99809">
        <ele>208.10059</ele>
        <time>2026-05-16T15:00:42+02:00</time>
      </trkpt>
      <trkpt lat="47.65341" lon="5.99816">
        <ele>208</ele>
        <time>2026-05-16T15:00:43+02:00</time>
      </trkpt>
      <trkpt lat="47.65337" lon="5.99821">
        <ele>208</ele>
        <time>2026-05-16T15:00:44+02:00</time>
      </trkpt>
      <trkpt lat="47.65333" lon="5.99825">
        <ele>207.7998</ele>
        <time>2026-05-16T15:00:45+02:00</time>
      </trkpt>
      <trkpt lat="47.65328" lon="5.99826">
        <ele>207.60059</ele>
        <time>2026-05-16T15:00:46+02:00</time>
      </trkpt>
      <trkpt lat="47.65323" lon="5.99826">
        <ele>207.5</ele>
        <time>2026-05-16T15:00:47+02:00</time>
      </trkpt>
      <trkpt lat="47.65317" lon="5.99823">
        <ele>207.2998</ele>
        <time>2026-05-16T15:00:48+02:00</time>
      </trkpt>
      <trkpt lat="47.65312" lon="5.99819">
        <ele>207.2002</ele>
        <time>2026-05-16T15:00:49+02:00</time>
      </trkpt>
      <trkpt lat="47.65306" lon="5.99816">
        <ele>207.10059</ele>
        <time>2026-05-16T15:00:50+02:00</time>
      </trkpt>
      <trkpt lat="47.653" lon="5.99813">
        <ele>207.10059</ele>
        <time>2026-05-16T15:00:51+02:00</time>
      </trkpt>
      <trkpt lat="47.65294" lon="5.99809">
        <ele>207</ele>
        <time>2026-05-16T15:00:52+02:00</time>
      </trkpt>
      <trkpt lat="47.65288" lon="5.99806">
        <ele>206.90039</ele>
        <time>2026-05-16T15:00:53+02:00</time>
      </trkpt>
      <trkpt lat="47.65281" lon="5.99803">
        <ele>207</ele>
        <time>2026-05-16T15:00:54+02:00</time>
      </trkpt>
      <trkpt lat="47.65275" lon="5.99799">
        <ele>206.90039</ele>
        <time>2026-05-16T15:00:55+02:00</time>
      </trkpt>
      <trkpt lat="47.65268" lon="5.99796">
        <ele>206.90039</ele>
        <time>2026-05-16T15:00:56+02:00</time>
      </trkpt>
      <trkpt lat="47.65262" lon="5.99793">
        <ele>206.7002</ele>
        <time>2026-05-16T15:00:57+02:00</time>
      </trkpt>
      <trkpt lat="47.65256" lon="5.9979">
        <ele>206.5</ele>
        <time>2026-05-16T15:00:58+02:00</time>
      </trkpt>
      <trkpt lat="47.65249" lon="5.99787">
        <ele>206.10059</ele>
        <time>2026-05-16T15:00:59+02:00</time>
      </trkpt>
      <trkpt lat="47.65243" lon="5.99783">
        <ele>205.7998</ele>
        <time>2026-05-16T15:01:00+02:00</time>
      </trkpt>
      <trkpt lat="47.65237" lon="5.9978">
        <ele>205.7002</ele>
        <time>2026-05-16T15:01:01+02:00</time>
      </trkpt>
      <trkpt lat="47.65231" lon="5.99777">
        <ele>205.7002</ele>
        <time>2026-05-16T15:01:02+02:00</time>
      </trkpt>
      <trkpt lat="47.65225" lon="5.99775">
        <ele>205.5</ele>
        <time>2026-05-16T15:01:03+02:00</time>
      </trkpt>
      <trkpt lat="47.65218" lon="5.99773">
        <ele>205.5</ele>
        <time>2026-05-16T15:01:04+02:00</time>
      </trkpt>
      <trkpt lat="47.65212" lon="5.99773">
        <ele>205.40039</ele>
        <time>2026-05-16T15:01:05+02:00</time>
      </trkpt>
      <trkpt lat="47.65206" lon="5.99772">
        <ele>205.40039</ele>
        <time>2026-05-16T15:01:06+02:00</time>
      </trkpt>
      <trkpt lat="47.65199" lon="5.99772">
        <ele>205.40039</ele>
        <time>2026-05-16T15:01:07+02:00</time>
      </trkpt>
      <trkpt lat="47.65193" lon="5.99772">
        <ele>205.40039</ele>
        <time>2026-05-16T15:01:08+02:00</time>
      </trkpt>
      <trkpt lat="47.65187" lon="5.99772">
        <ele>205.40039</ele>
        <time>2026-05-16T15:01:09+02:00</time>
      </trkpt>
      <trkpt lat="47.65181" lon="5.99772">
        <ele>205.40039</ele>
        <time>2026-05-16T15:01:10+02:00</time>
      </trkpt>
      <trkpt lat="47.65174" lon="5.99772">
        <ele>205.40039</ele>
        <time>2026-05-16T15:01:11+02:00</time>
      </trkpt>
      <trkpt lat="47.65168" lon="5.99771">
        <ele>205.40039</ele>
        <time>2026-05-16T15:01:12+02:00</time>
      </trkpt>
      <trkpt lat="47.65162" lon="5.9977">
        <ele>205.40039</ele>
        <time>2026-05-16T15:01:13+02:00</time>
      </trkpt>
      <trkpt lat="47.65156" lon="5.9977">
        <ele>205.5</ele>
        <time>2026-05-16T15:01:14+02:00</time>
      </trkpt>
      <trkpt lat="47.65152" lon="5.99769">
        <ele>205.5</ele>
        <time>2026-05-16T15:01:15+02:00</time>
      </trkpt>
      <trkpt lat="47.65143" lon="5.99769">
        <ele>205.60059</ele>
        <time>2026-05-16T15:01:16+02:00</time>
      </trkpt>
      <trkpt lat="47.65137" lon="5.99768">
        <ele>205.7002</ele>
        <time>2026-05-16T15:01:17+02:00</time>
      </trkpt>
      <trkpt lat="47.65131" lon="5.99767">
        <ele>205.7998</ele>
        <time>2026-05-16T15:01:18+02:00</time>
      </trkpt>
      <trkpt lat="47.65125" lon="5.99766">
        <ele>206</ele>
        <time>2026-05-16T15:01:19+02:00</time>
      </trkpt>
      <trkpt lat="47.65119" lon="5.99765">
        <ele>206.10059</ele>
        <time>2026-05-16T15:01:20+02:00</time>
      </trkpt>
      <trkpt lat="47.65112" lon="5.99764">
        <ele>206.2002</ele>
        <time>2026-05-16T15:01:21+02:00</time>
      </trkpt>
      <trkpt lat="47.65107" lon="5.99763">
        <ele>206.2998</ele>
        <time>2026-05-16T15:01:22+02:00</time>
      </trkpt>
      <trkpt lat="47.65101" lon="5.99762">
        <ele>206.40039</ele>
        <time>2026-05-16T15:01:23+02:00</time>
      </trkpt>
      <trkpt lat="47.65095" lon="5.99761">
        <ele>206.40039</ele>
        <time>2026-05-16T15:01:24+02:00</time>
      </trkpt>
      <trkpt lat="47.65089" lon="5.99759">
        <ele>206.60059</ele>
        <time>2026-05-16T15:01:25+02:00</time>
      </trkpt>
      <trkpt lat="47.65083" lon="5.99757">
        <ele>206.60059</ele>
        <time>2026-05-16T15:01:26+02:00</time>
      </trkpt>
      <trkpt lat="47.65077" lon="5.99755">
        <ele>206.7002</ele>
        <time>2026-05-16T15:01:27+02:00</time>
      </trkpt>
      <trkpt lat="47.65072" lon="5.99751">
        <ele>206.7002</ele>
        <time>2026-05-16T15:01:28+02:00</time>
      </trkpt>
      <trkpt lat="47.65067" lon="5.99747">
        <ele>206.7998</ele>
        <time>2026-05-16T15:01:29+02:00</time>
      </trkpt>
      <trkpt lat="47.65062" lon="5.9974">
        <ele>206.7998</ele>
        <time>2026-05-16T15:01:30+02:00</time>
      </trkpt>
      <trkpt lat="47.65059" lon="5.99733">
        <ele>206.7998</ele>
        <time>2026-05-16T15:01:31+02:00</time>
      </trkpt>
      <trkpt lat="47.65056" lon="5.99725">
        <ele>206.7998</ele>
        <time>2026-05-16T15:01:32+02:00</time>
      </trkpt>
      <trkpt lat="47.65054" lon="5.99717">
        <ele>206.7002</ele>
        <time>2026-05-16T15:01:33+02:00</time>
      </trkpt>
      <trkpt lat="47.65053" lon="5.99708">
        <ele>206.7002</ele>
        <time>2026-05-16T15:01:34+02:00</time>
      </trkpt>
      <trkpt lat="47.65051" lon="5.997">
        <ele>206.60059</ele>
        <time>2026-05-16T15:01:35+02:00</time>
      </trkpt>
      <trkpt lat="47.65049" lon="5.99691">
        <ele>206.5</ele>
        <time>2026-05-16T15:01:36+02:00</time>
      </trkpt>
      <trkpt lat="47.65049" lon="5.99687">
        <ele>206.40039</ele>
        <time>2026-05-16T15:01:37+02:00</time>
      </trkpt>
      <trkpt lat="47.65046" lon="5.99674">
        <ele>206.40039</ele>
        <time>2026-05-16T15:01:38+02:00</time>
      </trkpt>
      <trkpt lat="47.65045" lon="5.99666">
        <ele>206.2998</ele>
        <time>2026-05-16T15:01:39+02:00</time>
      </trkpt>
      <trkpt lat="47.65043" lon="5.99657">
        <ele>206.2002</ele>
        <time>2026-05-16T15:01:40+02:00</time>
      </trkpt>
      <trkpt lat="47.65041" lon="5.99649">
        <ele>206.2002</ele>
        <time>2026-05-16T15:01:41+02:00</time>
      </trkpt>
      <trkpt lat="47.65039" lon="5.9964">
        <ele>206.10059</ele>
        <time>2026-05-16T15:01:42+02:00</time>
      </trkpt>
      <trkpt lat="47.65037" lon="5.99632">
        <ele>206.10059</ele>
        <time>2026-05-16T15:01:43+02:00</time>
      </trkpt>
      <trkpt lat="47.65035" lon="5.99623">
        <ele>206.2002</ele>
        <time>2026-05-16T15:01:44+02:00</time>
      </trkpt>
      <trkpt lat="47.65033" lon="5.99615">
        <ele>206.2002</ele>
        <time>2026-05-16T15:01:45+02:00</time>
      </trkpt>
      <trkpt lat="47.6503" lon="5.99607">
        <ele>206.2998</ele>
        <time>2026-05-16T15:01:46+02:00</time>
      </trkpt>
      <trkpt lat="47.65029" lon="5.99599">
        <ele>206.60059</ele>
        <time>2026-05-16T15:01:47+02:00</time>
      </trkpt>
      <trkpt lat="47.65026" lon="5.99592">
        <ele>206.7998</ele>
        <time>2026-05-16T15:01:48+02:00</time>
      </trkpt>
      <trkpt lat="47.65024" lon="5.99585">
        <ele>206.90039</ele>
        <time>2026-05-16T15:01:49+02:00</time>
      </trkpt>
      <trkpt lat="47.65022" lon="5.99578">
        <ele>206.7002</ele>
        <time>2026-05-16T15:01:50+02:00</time>
      </trkpt>
      <trkpt lat="47.6502" lon="5.99572">
        <ele>206.7002</ele>
        <time>2026-05-16T15:01:51+02:00</time>
      </trkpt>
      <trkpt lat="47.65019" lon="5.99566">
        <ele>206.5</ele>
        <time>2026-05-16T15:01:52+02:00</time>
      </trkpt>
      <trkpt lat="47.65016" lon="5.99561">
        <ele>206.2998</ele>
        <time>2026-05-16T15:01:53+02:00</time>
      </trkpt>
      <trkpt lat="47.65012" lon="5.99559">
        <ele>206.10059</ele>
        <time>2026-05-16T15:01:54+02:00</time>
      </trkpt>
      <trkpt lat="47.65009" lon="5.9956">
        <ele>206.10059</ele>
        <time>2026-05-16T15:01:55+02:00</time>
      </trkpt>
      <trkpt lat="47.65005" lon="5.99563">
        <ele>206</ele>
        <time>2026-05-16T15:01:56+02:00</time>
      </trkpt>
      <trkpt lat="47.65001" lon="5.99567">
        <ele>205.7998</ele>
        <time>2026-05-16T15:01:57+02:00</time>
      </trkpt>
      <trkpt lat="47.64998" lon="5.99571">
        <ele>206.10059</ele>
        <time>2026-05-16T15:01:58+02:00</time>
      </trkpt>
      <trkpt lat="47.64993" lon="5.99575">
        <ele>206</ele>
        <time>2026-05-16T15:01:59+02:00</time>
      </trkpt>
      <trkpt lat="47.64992" lon="5.99577">
        <ele>206</ele>
        <time>2026-05-16T15:02:00+02:00</time>
      </trkpt>
      <trkpt lat="47.64985" lon="5.99585">
        <ele>206.2002</ele>
        <time>2026-05-16T15:02:01+02:00</time>
      </trkpt>
      <trkpt lat="47.64981" lon="5.9959">
        <ele>206.40039</ele>
        <time>2026-05-16T15:02:02+02:00</time>
      </trkpt>
      <trkpt lat="47.64977" lon="5.99595">
        <ele>206.10059</ele>
        <time>2026-05-16T15:02:03+02:00</time>
      </trkpt>
      <trkpt lat="47.64972" lon="5.996">
        <ele>206.10059</ele>
        <time>2026-05-16T15:02:04+02:00</time>
      </trkpt>
      <trkpt lat="47.64967" lon="5.99605">
        <ele>206.2998</ele>
        <time>2026-05-16T15:02:05+02:00</time>
      </trkpt>
      <trkpt lat="47.64963" lon="5.9961">
        <ele>206.10059</ele>
        <time>2026-05-16T15:02:06+02:00</time>
      </trkpt>
      <trkpt lat="47.64958" lon="5.99615">
        <ele>206.10059</ele>
        <time>2026-05-16T15:02:07+02:00</time>
      </trkpt>
      <trkpt lat="47.64953" lon="5.99621">
        <ele>206</ele>
        <time>2026-05-16T15:02:08+02:00</time>
      </trkpt>
      <trkpt lat="47.64949" lon="5.99626">
        <ele>206.2002</ele>
        <time>2026-05-16T15:02:09+02:00</time>
      </trkpt>
      <trkpt lat="47.64944" lon="5.99631">
        <ele>206.10059</ele>
        <time>2026-05-16T15:02:10+02:00</time>
      </trkpt>
      <trkpt lat="47.6494" lon="5.99637">
        <ele>205.90039</ele>
        <time>2026-05-16T15:02:11+02:00</time>
      </trkpt>
      <trkpt lat="47.64935" lon="5.99642">
        <ele>205.90039</ele>
        <time>2026-05-16T15:02:12+02:00</time>
      </trkpt>
      <trkpt lat="47.64931" lon="5.99648">
        <ele>206</ele>
        <time>2026-05-16T15:02:13+02:00</time>
      </trkpt>
      <trkpt lat="47.64926" lon="5.99653">
        <ele>206</ele>
        <time>2026-05-16T15:02:14+02:00</time>
      </trkpt>
      <trkpt lat="47.64921" lon="5.99658">
        <ele>206.2002</ele>
        <time>2026-05-16T15:02:15+02:00</time>
      </trkpt>
      <trkpt lat="47.64917" lon="5.99664">
        <ele>206</ele>
        <time>2026-05-16T15:02:16+02:00</time>
      </trkpt>
      <trkpt lat="47.64914" lon="5.99666">
        <ele>206.10059</ele>
        <time>2026-05-16T15:02:17+02:00</time>
      </trkpt>
      <trkpt lat="47.64907" lon="5.99674">
        <ele>206.10059</ele>
        <time>2026-05-16T15:02:18+02:00</time>
      </trkpt>
      <trkpt lat="47.64902" lon="5.99679">
        <ele>205.90039</ele>
        <time>2026-05-16T15:02:19+02:00</time>
      </trkpt>
      <trkpt lat="47.64897" lon="5.99685">
        <ele>206</ele>
        <time>2026-05-16T15:02:20+02:00</time>
      </trkpt>
      <trkpt lat="47.64893" lon="5.9969">
        <ele>205.90039</ele>
        <time>2026-05-16T15:02:21+02:00</time>
      </trkpt>
      <trkpt lat="47.64888" lon="5.99695">
        <ele>205.90039</ele>
        <time>2026-05-16T15:02:22+02:00</time>
      </trkpt>
      <trkpt lat="47.64883" lon="5.997">
        <ele>205.90039</ele>
        <time>2026-05-16T15:02:23+02:00</time>
      </trkpt>
      <trkpt lat="47.64879" lon="5.99706">
        <ele>205.7002</ele>
        <time>2026-05-16T15:02:24+02:00</time>
      </trkpt>
      <trkpt lat="47.64874" lon="5.99711">
        <ele>205.7998</ele>
        <time>2026-05-16T15:02:25+02:00</time>
      </trkpt>
      <trkpt lat="47.64869" lon="5.99716">
        <ele>205.7002</ele>
        <time>2026-05-16T15:02:26+02:00</time>
      </trkpt>
      <trkpt lat="47.64864" lon="5.99721">
        <ele>205.7002</ele>
        <time>2026-05-16T15:02:27+02:00</time>
      </trkpt>
      <trkpt lat="47.64859" lon="5.99727">
        <ele>205.7002</ele>
        <time>2026-05-16T15:02:28+02:00</time>
      </trkpt>
      <trkpt lat="47.64854" lon="5.99732">
        <ele>205.60059</ele>
        <time>2026-05-16T15:02:29+02:00</time>
      </trkpt>
      <trkpt lat="47.6485" lon="5.99738">
        <ele>205.5</ele>
        <time>2026-05-16T15:02:30+02:00</time>
      </trkpt>
      <trkpt lat="47.64845" lon="5.99743">
        <ele>205.7002</ele>
        <time>2026-05-16T15:02:31+02:00</time>
      </trkpt>
      <trkpt lat="47.6484" lon="5.99748">
        <ele>205.60059</ele>
        <time>2026-05-16T15:02:32+02:00</time>
      </trkpt>
      <trkpt lat="47.64835" lon="5.99754">
        <ele>205.7002</ele>
        <time>2026-05-16T15:02:33+02:00</time>
      </trkpt>
      <trkpt lat="47.6483" lon="5.99759">
        <ele>205.60059</ele>
        <time>2026-05-16T15:02:34+02:00</time>
      </trkpt>
      <trkpt lat="47.64825" lon="5.99765">
        <ele>205.7998</ele>
        <time>2026-05-16T15:02:35+02:00</time>
      </trkpt>
      <trkpt lat="47.6482" lon="5.9977">
        <ele>205.7998</ele>
        <time>2026-05-16T15:02:36+02:00</time>
      </trkpt>
      <trkpt lat="47.64816" lon="5.99776">
        <ele>205.7002</ele>
        <time>2026-05-16T15:02:37+02:00</time>
      </trkpt>
      <trkpt lat="47.64811" lon="5.99782">
        <ele>205.7998</ele>
        <time>2026-05-16T15:02:38+02:00</time>
      </trkpt>
      <trkpt lat="47.64806" lon="5.99788">
        <ele>205.90039</ele>
        <time>2026-05-16T15:02:39+02:00</time>
      </trkpt>
      <trkpt lat="47.64802" lon="5.99794">
        <ele>206</ele>
        <time>2026-05-16T15:02:40+02:00</time>
      </trkpt>
      <trkpt lat="47.64797" lon="5.998">
        <ele>205.7998</ele>
        <time>2026-05-16T15:02:41+02:00</time>
      </trkpt>
      <trkpt lat="47.64793" lon="5.99806">
        <ele>206</ele>
        <time>2026-05-16T15:02:42+02:00</time>
      </trkpt>
      <trkpt lat="47.64788" lon="5.99812">
        <ele>205.90039</ele>
        <time>2026-05-16T15:02:43+02:00</time>
      </trkpt>
      <trkpt lat="47.64784" lon="5.99819">
        <ele>205.7002</ele>
        <time>2026-05-16T15:02:44+02:00</time>
      </trkpt>
      <trkpt lat="47.64779" lon="5.99825">
        <ele>205.7002</ele>
        <time>2026-05-16T15:02:45+02:00</time>
      </trkpt>
      <trkpt lat="47.64775" lon="5.99831">
        <ele>205.7998</ele>
        <time>2026-05-16T15:02:46+02:00</time>
      </trkpt>
      <trkpt lat="47.6477" lon="5.99837">
        <ele>205.90039</ele>
        <time>2026-05-16T15:02:47+02:00</time>
      </trkpt>
      <trkpt lat="47.64768" lon="5.99841">
        <ele>205.7002</ele>
        <time>2026-05-16T15:02:48+02:00</time>
      </trkpt>
      <trkpt lat="47.64762" lon="5.99851">
        <ele>205.60059</ele>
        <time>2026-05-16T15:02:49+02:00</time>
      </trkpt>
      <trkpt lat="47.64757" lon="5.99857">
        <ele>205.7002</ele>
        <time>2026-05-16T15:02:50+02:00</time>
      </trkpt>
      <trkpt lat="47.64753" lon="5.99863">
        <ele>205.90039</ele>
        <time>2026-05-16T15:02:51+02:00</time>
      </trkpt>
      <trkpt lat="47.6475" lon="5.9987">
        <ele>205.7002</ele>
        <time>2026-05-16T15:02:52+02:00</time>
      </trkpt>
      <trkpt lat="47.64746" lon="5.99877">
        <ele>205.60059</ele>
        <time>2026-05-16T15:02:53+02:00</time>
      </trkpt>
      <trkpt lat="47.64742" lon="5.99884">
        <ele>205.7998</ele>
        <time>2026-05-16T15:02:54+02:00</time>
      </trkpt>
      <trkpt lat="47.64739" lon="5.99891">
        <ele>205.7002</ele>
        <time>2026-05-16T15:02:55+02:00</time>
      </trkpt>
      <trkpt lat="47.64736" lon="5.99899">
        <ele>205.90039</ele>
        <time>2026-05-16T15:02:56+02:00</time>
      </trkpt>
      <trkpt lat="47.64732" lon="5.99907">
        <ele>205.7998</ele>
        <time>2026-05-16T15:02:57+02:00</time>
      </trkpt>
      <trkpt lat="47.64729" lon="5.99915">
        <ele>205.7002</ele>
        <time>2026-05-16T15:02:58+02:00</time>
      </trkpt>
      <trkpt lat="47.64727" lon="5.99923">
        <ele>205.7002</ele>
        <time>2026-05-16T15:02:59+02:00</time>
      </trkpt>
      <trkpt lat="47.64724" lon="5.99931">
        <ele>205.60059</ele>
        <time>2026-05-16T15:03:00+02:00</time>
      </trkpt>
      <trkpt lat="47.64721" lon="5.99939">
        <ele>205.40039</ele>
        <time>2026-05-16T15:03:01+02:00</time>
      </trkpt>
      <trkpt lat="47.64719" lon="5.99947">
        <ele>205.40039</ele>
        <time>2026-05-16T15:03:02+02:00</time>
      </trkpt>
      <trkpt lat="47.64716" lon="5.99955">
        <ele>205.2998</ele>
        <time>2026-05-16T15:03:03+02:00</time>
      </trkpt>
      <trkpt lat="47.64713" lon="5.99964">
        <ele>205.2998</ele>
        <time>2026-05-16T15:03:04+02:00</time>
      </trkpt>
      <trkpt lat="47.64711" lon="5.99972">
        <ele>205.2002</ele>
        <time>2026-05-16T15:03:05+02:00</time>
      </trkpt>
      <trkpt lat="47.64708" lon="5.9998">
        <ele>205.2002</ele>
        <time>2026-05-16T15:03:06+02:00</time>
      </trkpt>
      <trkpt lat="47.64706" lon="5.99989">
        <ele>205.2998</ele>
        <time>2026-05-16T15:03:07+02:00</time>
      </trkpt>
      <trkpt lat="47.64704" lon="5.99997">
        <ele>205.40039</ele>
        <time>2026-05-16T15:03:08+02:00</time>
      </trkpt>
      <trkpt lat="47.64702" lon="6.00005">
        <ele>205.5</ele>
        <time>2026-05-16T15:03:09+02:00</time>
      </trkpt>
      <trkpt lat="47.647" lon="6.00014">
        <ele>205.40039</ele>
        <time>2026-05-16T15:03:10+02:00</time>
      </trkpt>
      <trkpt lat="47.64698" lon="6.00022">
        <ele>205.2998</ele>
        <time>2026-05-16T15:03:11+02:00</time>
      </trkpt>
      <trkpt lat="47.64696" lon="6.00031">
        <ele>205.2998</ele>
        <time>2026-05-16T15:03:12+02:00</time>
      </trkpt>
      <trkpt lat="47.64694" lon="6.00039">
        <ele>205.2002</ele>
        <time>2026-05-16T15:03:13+02:00</time>
      </trkpt>
      <trkpt lat="47.64692" lon="6.00048">
        <ele>205.2002</ele>
        <time>2026-05-16T15:03:14+02:00</time>
      </trkpt>
      <trkpt lat="47.6469" lon="6.00057">
        <ele>205.2002</ele>
        <time>2026-05-16T15:03:15+02:00</time>
      </trkpt>
      <trkpt lat="47.64688" lon="6.00066">
        <ele>205.2002</ele>
        <time>2026-05-16T15:03:16+02:00</time>
      </trkpt>
      <trkpt lat="47.64686" lon="6.00074">
        <ele>205.2002</ele>
        <time>2026-05-16T15:03:17+02:00</time>
      </trkpt>
      <trkpt lat="47.64684" lon="6.00083">
        <ele>205.2002</ele>
        <time>2026-05-16T15:03:18+02:00</time>
      </trkpt>
      <trkpt lat="47.64683" lon="6.00092">
        <ele>205.2998</ele>
        <time>2026-05-16T15:03:19+02:00</time>
      </trkpt>
      <trkpt lat="47.64681" lon="6.001">
        <ele>205.2998</ele>
        <time>2026-05-16T15:03:20+02:00</time>
      </trkpt>
      <trkpt lat="47.64679" lon="6.00109">
        <ele>205.40039</ele>
        <time>2026-05-16T15:03:21+02:00</time>
      </trkpt>
      <trkpt lat="47.64676" lon="6.00118">
        <ele>205.2998</ele>
        <time>2026-05-16T15:03:22+02:00</time>
      </trkpt>
      <trkpt lat="47.64675" lon="6.00127">
        <ele>205.2998</ele>
        <time>2026-05-16T15:03:23+02:00</time>
      </trkpt>
      <trkpt lat="47.64673" lon="6.00136">
        <ele>205.2998</ele>
        <time>2026-05-16T15:03:24+02:00</time>
      </trkpt>
      <trkpt lat="47.64671" lon="6.00145">
        <ele>205.2002</ele>
        <time>2026-05-16T15:03:25+02:00</time>
      </trkpt>
      <trkpt lat="47.64671" lon="6.00154">
        <ele>205.2002</ele>
        <time>2026-05-16T15:03:26+02:00</time>
      </trkpt>
      <trkpt lat="47.6467" lon="6.00163">
        <ele>205.2002</ele>
        <time>2026-05-16T15:03:27+02:00</time>
      </trkpt>
      <trkpt lat="47.6467" lon="6.00173">
        <ele>205.2002</ele>
        <time>2026-05-16T15:03:28+02:00</time>
      </trkpt>
      <trkpt lat="47.6467" lon="6.00182">
        <ele>205.2002</ele>
        <time>2026-05-16T15:03:29+02:00</time>
      </trkpt>
      <trkpt lat="47.6467" lon="6.00191">
        <ele>205.2002</ele>
        <time>2026-05-16T15:03:30+02:00</time>
      </trkpt>
      <trkpt lat="47.64671" lon="6.00201">
        <ele>205.2002</ele>
        <time>2026-05-16T15:03:31+02:00</time>
      </trkpt>
      <trkpt lat="47.64671" lon="6.0021">
        <ele>205.2002</ele>
        <time>2026-05-16T15:03:32+02:00</time>
      </trkpt>
      <trkpt lat="47.64673" lon="6.00219">
        <ele>205.2002</ele>
        <time>2026-05-16T15:03:33+02:00</time>
      </trkpt>
      <trkpt lat="47.64674" lon="6.00228">
        <ele>205.2002</ele>
        <time>2026-05-16T15:03:34+02:00</time>
      </trkpt>
      <trkpt lat="47.64675" lon="6.00236">
        <ele>205.2002</ele>
        <time>2026-05-16T15:03:35+02:00</time>
      </trkpt>
      <trkpt lat="47.64676" lon="6.00245">
        <ele>205.2002</ele>
        <time>2026-05-16T15:03:36+02:00</time>
      </trkpt>
      <trkpt lat="47.64678" lon="6.00254">
        <ele>205.2998</ele>
        <time>2026-05-16T15:03:37+02:00</time>
      </trkpt>
      <trkpt lat="47.64679" lon="6.00264">
        <ele>205.2998</ele>
        <time>2026-05-16T15:03:38+02:00</time>
      </trkpt>
      <trkpt lat="47.64681" lon="6.00273">
        <ele>205.2998</ele>
        <time>2026-05-16T15:03:39+02:00</time>
      </trkpt>
      <trkpt lat="47.64682" lon="6.00282">
        <ele>205.2998</ele>
        <time>2026-05-16T15:03:40+02:00</time>
      </trkpt>
      <trkpt lat="47.64683" lon="6.00291">
        <ele>205.2998</ele>
        <time>2026-05-16T15:03:41+02:00</time>
      </trkpt>
      <trkpt lat="47.64684" lon="6.003">
        <ele>205.2998</ele>
        <time>2026-05-16T15:03:42+02:00</time>
      </trkpt>
      <trkpt lat="47.64684" lon="6.0031">
        <ele>205.2998</ele>
        <time>2026-05-16T15:03:43+02:00</time>
      </trkpt>
      <trkpt lat="47.64685" lon="6.00319">
        <ele>205.2998</ele>
        <time>2026-05-16T15:03:44+02:00</time>
      </trkpt>
      <trkpt lat="47.64686" lon="6.00328">
        <ele>205.2998</ele>
        <time>2026-05-16T15:03:45+02:00</time>
      </trkpt>
      <trkpt lat="47.64687" lon="6.00338">
        <ele>205.2998</ele>
        <time>2026-05-16T15:03:46+02:00</time>
      </trkpt>
      <trkpt lat="47.64687" lon="6.00348">
        <ele>205.2998</ele>
        <time>2026-05-16T15:03:47+02:00</time>
      </trkpt>
      <trkpt lat="47.64688" lon="6.00357">
        <ele>205.2998</ele>
        <time>2026-05-16T15:03:48+02:00</time>
      </trkpt>
      <trkpt lat="47.64688" lon="6.00367">
        <ele>205.2998</ele>
        <time>2026-05-16T15:03:49+02:00</time>
      </trkpt>
      <trkpt lat="47.64688" lon="6.00377">
        <ele>205.2998</ele>
        <time>2026-05-16T15:03:50+02:00</time>
      </trkpt>
      <trkpt lat="47.64689" lon="6.00387">
        <ele>205.40039</ele>
        <time>2026-05-16T15:03:51+02:00</time>
      </trkpt>
      <trkpt lat="47.64689" lon="6.00396">
        <ele>205.40039</ele>
        <time>2026-05-16T15:03:52+02:00</time>
      </trkpt>
      <trkpt lat="47.64689" lon="6.00406">
        <ele>205.40039</ele>
        <time>2026-05-16T15:03:53+02:00</time>
      </trkpt>
      <trkpt lat="47.64689" lon="6.00415">
        <ele>205.40039</ele>
        <time>2026-05-16T15:03:54+02:00</time>
      </trkpt>
      <trkpt lat="47.64689" lon="6.00424">
        <ele>205.40039</ele>
        <time>2026-05-16T15:03:55+02:00</time>
      </trkpt>
      <trkpt lat="47.64689" lon="6.00434">
        <ele>205.40039</ele>
        <time>2026-05-16T15:03:56+02:00</time>
      </trkpt>
      <trkpt lat="47.64689" lon="6.00443">
        <ele>205.40039</ele>
        <time>2026-05-16T15:03:57+02:00</time>
      </trkpt>
      <trkpt lat="47.64689" lon="6.00448">
        <ele>205.40039</ele>
        <time>2026-05-16T15:03:58+02:00</time>
      </trkpt>
      <trkpt lat="47.64689" lon="6.00463">
        <ele>205.40039</ele>
        <time>2026-05-16T15:03:59+02:00</time>
      </trkpt>
      <trkpt lat="47.6469" lon="6.00472">
        <ele>205.40039</ele>
        <time>2026-05-16T15:04:00+02:00</time>
      </trkpt>
      <trkpt lat="47.6469" lon="6.00482">
        <ele>205.40039</ele>
        <time>2026-05-16T15:04:01+02:00</time>
      </trkpt>
      <trkpt lat="47.6469" lon="6.00492">
        <ele>205.40039</ele>
        <time>2026-05-16T15:04:02+02:00</time>
      </trkpt>
      <trkpt lat="47.64691" lon="6.00502">
        <ele>205.40039</ele>
        <time>2026-05-16T15:04:03+02:00</time>
      </trkpt>
      <trkpt lat="47.64691" lon="6.00512">
        <ele>205.2998</ele>
        <time>2026-05-16T15:04:04+02:00</time>
      </trkpt>
      <trkpt lat="47.64691" lon="6.00522">
        <ele>205.2998</ele>
        <time>2026-05-16T15:04:05+02:00</time>
      </trkpt>
      <trkpt lat="47.64692" lon="6.00532">
        <ele>205.2998</ele>
        <time>2026-05-16T15:04:06+02:00</time>
      </trkpt>
      <trkpt lat="47.64694" lon="6.00541">
        <ele>205.2998</ele>
        <time>2026-05-16T15:04:07+02:00</time>
      </trkpt>
      <trkpt lat="47.64695" lon="6.00551">
        <ele>205.5</ele>
        <time>2026-05-16T15:04:08+02:00</time>
      </trkpt>
      <trkpt lat="47.64695" lon="6.00561">
        <ele>205.5</ele>
        <time>2026-05-16T15:04:09+02:00</time>
      </trkpt>
      <trkpt lat="47.64696" lon="6.0057">
        <ele>205.5</ele>
        <time>2026-05-16T15:04:10+02:00</time>
      </trkpt>
      <trkpt lat="47.64697" lon="6.0058">
        <ele>205.5</ele>
        <time>2026-05-16T15:04:11+02:00</time>
      </trkpt>
      <trkpt lat="47.64697" lon="6.00589">
        <ele>205.5</ele>
        <time>2026-05-16T15:04:12+02:00</time>
      </trkpt>
      <trkpt lat="47.64698" lon="6.00599">
        <ele>205.5</ele>
        <time>2026-05-16T15:04:13+02:00</time>
      </trkpt>
      <trkpt lat="47.64698" lon="6.00608">
        <ele>205.40039</ele>
        <time>2026-05-16T15:04:14+02:00</time>
      </trkpt>
      <trkpt lat="47.64698" lon="6.00618">
        <ele>205.40039</ele>
        <time>2026-05-16T15:04:15+02:00</time>
      </trkpt>
      <trkpt lat="47.64697" lon="6.00627">
        <ele>205.40039</ele>
        <time>2026-05-16T15:04:16+02:00</time>
      </trkpt>
      <trkpt lat="47.64697" lon="6.00636">
        <ele>205.2998</ele>
        <time>2026-05-16T15:04:17+02:00</time>
      </trkpt>
      <trkpt lat="47.64696" lon="6.00645">
        <ele>205.2998</ele>
        <time>2026-05-16T15:04:18+02:00</time>
      </trkpt>
      <trkpt lat="47.64695" lon="6.00655">
        <ele>205.2998</ele>
        <time>2026-05-16T15:04:19+02:00</time>
      </trkpt>
      <trkpt lat="47.64694" lon="6.00664">
        <ele>205.2002</ele>
        <time>2026-05-16T15:04:20+02:00</time>
      </trkpt>
      <trkpt lat="47.64693" lon="6.00673">
        <ele>205.2002</ele>
        <time>2026-05-16T15:04:21+02:00</time>
      </trkpt>
      <trkpt lat="47.64692" lon="6.00683">
        <ele>205.2002</ele>
        <time>2026-05-16T15:04:22+02:00</time>
      </trkpt>
      <trkpt lat="47.64691" lon="6.00692">
        <ele>205.2002</ele>
        <time>2026-05-16T15:04:23+02:00</time>
      </trkpt>
      <trkpt lat="47.6469" lon="6.00702">
        <ele>205.2002</ele>
        <time>2026-05-16T15:04:24+02:00</time>
      </trkpt>
      <trkpt lat="47.64688" lon="6.00711">
        <ele>205.2002</ele>
        <time>2026-05-16T15:04:25+02:00</time>
      </trkpt>
      <trkpt lat="47.64687" lon="6.00721">
        <ele>205.2002</ele>
        <time>2026-05-16T15:04:26+02:00</time>
      </trkpt>
      <trkpt lat="47.64687" lon="6.00731">
        <ele>205.2002</ele>
        <time>2026-05-16T15:04:27+02:00</time>
      </trkpt>
      <trkpt lat="47.64686" lon="6.00741">
        <ele>205.2002</ele>
        <time>2026-05-16T15:04:28+02:00</time>
      </trkpt>
      <trkpt lat="47.64685" lon="6.00751">
        <ele>205.2998</ele>
        <time>2026-05-16T15:04:29+02:00</time>
      </trkpt>
      <trkpt lat="47.64684" lon="6.00755">
        <ele>205.40039</ele>
        <time>2026-05-16T15:04:30+02:00</time>
      </trkpt>
      <trkpt lat="47.64684" lon="6.0077">
        <ele>205.5</ele>
        <time>2026-05-16T15:04:31+02:00</time>
      </trkpt>
      <trkpt lat="47.64684" lon="6.0078">
        <ele>205.5</ele>
        <time>2026-05-16T15:04:32+02:00</time>
      </trkpt>
      <trkpt lat="47.64684" lon="6.0079">
        <ele>205.5</ele>
        <time>2026-05-16T15:04:33+02:00</time>
      </trkpt>
      <trkpt lat="47.64684" lon="6.008">
        <ele>205.5</ele>
        <time>2026-05-16T15:04:34+02:00</time>
      </trkpt>
      <trkpt lat="47.64684" lon="6.0081">
        <ele>205.5</ele>
        <time>2026-05-16T15:04:35+02:00</time>
      </trkpt>
      <trkpt lat="47.64684" lon="6.00836">
        <ele>205.60059</ele>
        <time>2026-05-16T15:04:36+02:00</time>
      </trkpt>
      <trkpt lat="47.64685" lon="6.00851">
        <ele>205.60059</ele>
        <time>2026-05-16T15:04:37+02:00</time>
      </trkpt>
      <trkpt lat="47.64685" lon="6.00861">
        <ele>205.60059</ele>
        <time>2026-05-16T15:04:38+02:00</time>
      </trkpt>
      <trkpt lat="47.64684" lon="6.00871">
        <ele>205.5</ele>
        <time>2026-05-16T15:04:39+02:00</time>
      </trkpt>
      <trkpt lat="47.64683" lon="6.0088">
        <ele>205.5</ele>
        <time>2026-05-16T15:04:40+02:00</time>
      </trkpt>
      <trkpt lat="47.6468" lon="6.00889">
        <ele>205.2998</ele>
        <time>2026-05-16T15:04:41+02:00</time>
      </trkpt>
      <trkpt lat="47.64678" lon="6.00898">
        <ele>205.2998</ele>
        <time>2026-05-16T15:04:42+02:00</time>
      </trkpt>
      <trkpt lat="47.64675" lon="6.00906">
        <ele>205.2002</ele>
        <time>2026-05-16T15:04:43+02:00</time>
      </trkpt>
      <trkpt lat="47.64672" lon="6.00913">
        <ele>205.2002</ele>
        <time>2026-05-16T15:04:44+02:00</time>
      </trkpt>
      <trkpt lat="47.6467" lon="6.0092">
        <ele>205.2002</ele>
        <time>2026-05-16T15:04:45+02:00</time>
      </trkpt>
      <trkpt lat="47.64668" lon="6.00927">
        <ele>205.2002</ele>
        <time>2026-05-16T15:04:46+02:00</time>
      </trkpt>
      <trkpt lat="47.64668" lon="6.00934">
        <ele>205.2002</ele>
        <time>2026-05-16T15:04:47+02:00</time>
      </trkpt>
      <trkpt lat="47.64669" lon="6.00942">
        <ele>205.2002</ele>
        <time>2026-05-16T15:04:48+02:00</time>
      </trkpt>
      <trkpt lat="47.6467" lon="6.0095">
        <ele>205.2002</ele>
        <time>2026-05-16T15:04:49+02:00</time>
      </trkpt>
      <trkpt lat="47.6467" lon="6.00954">
        <ele>205.2002</ele>
        <time>2026-05-16T15:04:50+02:00</time>
      </trkpt>
      <trkpt lat="47.64671" lon="6.00967">
        <ele>205.2002</ele>
        <time>2026-05-16T15:04:51+02:00</time>
      </trkpt>
      <trkpt lat="47.64671" lon="6.00976">
        <ele>205.2002</ele>
        <time>2026-05-16T15:04:52+02:00</time>
      </trkpt>
      <trkpt lat="47.64672" lon="6.00985">
        <ele>205.10059</ele>
        <time>2026-05-16T15:04:53+02:00</time>
      </trkpt>
      <trkpt lat="47.64673" lon="6.00994">
        <ele>205.10059</ele>
        <time>2026-05-16T15:04:54+02:00</time>
      </trkpt>
      <trkpt lat="47.64673" lon="6.01003">
        <ele>205.10059</ele>
        <time>2026-05-16T15:04:55+02:00</time>
      </trkpt>
      <trkpt lat="47.64674" lon="6.01012">
        <ele>205.10059</ele>
        <time>2026-05-16T15:04:56+02:00</time>
      </trkpt>
      <trkpt lat="47.64674" lon="6.01022">
        <ele>205.10059</ele>
        <time>2026-05-16T15:04:57+02:00</time>
      </trkpt>
      <trkpt lat="47.64675" lon="6.01031">
        <ele>205.10059</ele>
        <time>2026-05-16T15:04:58+02:00</time>
      </trkpt>
      <trkpt lat="47.64676" lon="6.0104">
        <ele>205.10059</ele>
        <time>2026-05-16T15:04:59+02:00</time>
      </trkpt>
      <trkpt lat="47.64676" lon="6.0105">
        <ele>205.10059</ele>
        <time>2026-05-16T15:05:00+02:00</time>
      </trkpt>
      <trkpt lat="47.64678" lon="6.01059">
        <ele>205.10059</ele>
        <time>2026-05-16T15:05:01+02:00</time>
      </trkpt>
      <trkpt lat="47.64679" lon="6.01069">
        <ele>205.10059</ele>
        <time>2026-05-16T15:05:02+02:00</time>
      </trkpt>
      <trkpt lat="47.6468" lon="6.01078">
        <ele>205.10059</ele>
        <time>2026-05-16T15:05:03+02:00</time>
      </trkpt>
      <trkpt lat="47.64681" lon="6.01088">
        <ele>205.10059</ele>
        <time>2026-05-16T15:05:04+02:00</time>
      </trkpt>
      <trkpt lat="47.64682" lon="6.01097">
        <ele>205.10059</ele>
        <time>2026-05-16T15:05:05+02:00</time>
      </trkpt>
      <trkpt lat="47.64683" lon="6.01106">
        <ele>205.2002</ele>
        <time>2026-05-16T15:05:06+02:00</time>
      </trkpt>
      <trkpt lat="47.64684" lon="6.01116">
        <ele>205.2002</ele>
        <time>2026-05-16T15:05:07+02:00</time>
      </trkpt>
      <trkpt lat="47.64685" lon="6.01125">
        <ele>205.2002</ele>
        <time>2026-05-16T15:05:08+02:00</time>
      </trkpt>
      <trkpt lat="47.64685" lon="6.0113">
        <ele>205.2002</ele>
        <time>2026-05-16T15:05:09+02:00</time>
      </trkpt>
      <trkpt lat="47.64687" lon="6.01144">
        <ele>205.2002</ele>
        <time>2026-05-16T15:05:10+02:00</time>
      </trkpt>
      <trkpt lat="47.64688" lon="6.01153">
        <ele>205.2002</ele>
        <time>2026-05-16T15:05:11+02:00</time>
      </trkpt>
      <trkpt lat="47.64689" lon="6.01163">
        <ele>205.2002</ele>
        <time>2026-05-16T15:05:12+02:00</time>
      </trkpt>
      <trkpt lat="47.6469" lon="6.01172">
        <ele>205.2002</ele>
        <time>2026-05-16T15:05:13+02:00</time>
      </trkpt>
      <trkpt lat="47.64691" lon="6.01181">
        <ele>205.2002</ele>
        <time>2026-05-16T15:05:14+02:00</time>
      </trkpt>
      <trkpt lat="47.64692" lon="6.01191">
        <ele>205.2002</ele>
        <time>2026-05-16T15:05:15+02:00</time>
      </trkpt>
      <trkpt lat="47.64694" lon="6.012">
        <ele>205.2002</ele>
        <time>2026-05-16T15:05:16+02:00</time>
      </trkpt>
      <trkpt lat="47.64695" lon="6.0121">
        <ele>205.2002</ele>
        <time>2026-05-16T15:05:17+02:00</time>
      </trkpt>
      <trkpt lat="47.64696" lon="6.0122">
        <ele>205.2002</ele>
        <time>2026-05-16T15:05:18+02:00</time>
      </trkpt>
      <trkpt lat="47.64697" lon="6.0123">
        <ele>205.2002</ele>
        <time>2026-05-16T15:05:19+02:00</time>
      </trkpt>
      <trkpt lat="47.64699" lon="6.01239">
        <ele>205.2002</ele>
        <time>2026-05-16T15:05:20+02:00</time>
      </trkpt>
      <trkpt lat="47.647" lon="6.01249">
        <ele>205.2002</ele>
        <time>2026-05-16T15:05:21+02:00</time>
      </trkpt>
      <trkpt lat="47.64701" lon="6.01259">
        <ele>205.10059</ele>
        <time>2026-05-16T15:05:22+02:00</time>
      </trkpt>
      <trkpt lat="47.64703" lon="6.01268">
        <ele>205.10059</ele>
        <time>2026-05-16T15:05:23+02:00</time>
      </trkpt>
      <trkpt lat="47.64704" lon="6.01278">
        <ele>205.10059</ele>
        <time>2026-05-16T15:05:24+02:00</time>
      </trkpt>
      <trkpt lat="47.64705" lon="6.01287">
        <ele>205.10059</ele>
        <time>2026-05-16T15:05:25+02:00</time>
      </trkpt>
      <trkpt lat="47.64707" lon="6.01297">
        <ele>205.10059</ele>
        <time>2026-05-16T15:05:26+02:00</time>
      </trkpt>
      <trkpt lat="47.64709" lon="6.01306">
        <ele>205.10059</ele>
        <time>2026-05-16T15:05:27+02:00</time>
      </trkpt>
      <trkpt lat="47.6471" lon="6.01315">
        <ele>205.10059</ele>
        <time>2026-05-16T15:05:28+02:00</time>
      </trkpt>
      <trkpt lat="47.64712" lon="6.01325">
        <ele>205.2002</ele>
        <time>2026-05-16T15:05:29+02:00</time>
      </trkpt>
      <trkpt lat="47.64714" lon="6.01334">
        <ele>205.2002</ele>
        <time>2026-05-16T15:05:30+02:00</time>
      </trkpt>
      <trkpt lat="47.64716" lon="6.01343">
        <ele>205.2002</ele>
        <time>2026-05-16T15:05:31+02:00</time>
      </trkpt>
      <trkpt lat="47.64718" lon="6.01353">
        <ele>205.2998</ele>
        <time>2026-05-16T15:05:32+02:00</time>
      </trkpt>
      <trkpt lat="47.64721" lon="6.01362">
        <ele>205.2002</ele>
        <time>2026-05-16T15:05:33+02:00</time>
      </trkpt>
      <trkpt lat="47.64723" lon="6.01371">
        <ele>205.2002</ele>
        <time>2026-05-16T15:05:34+02:00</time>
      </trkpt>
      <trkpt lat="47.64726" lon="6.0138">
        <ele>205.2002</ele>
        <time>2026-05-16T15:05:35+02:00</time>
      </trkpt>
      <trkpt lat="47.64728" lon="6.0139">
        <ele>205.2002</ele>
        <time>2026-05-16T15:05:36+02:00</time>
      </trkpt>
      <trkpt lat="47.64729" lon="6.01395">
        <ele>205.2002</ele>
        <time>2026-05-16T15:05:37+02:00</time>
      </trkpt>
      <trkpt lat="47.64731" lon="6.01409">
        <ele>205.2002</ele>
        <time>2026-05-16T15:05:38+02:00</time>
      </trkpt>
      <trkpt lat="47.64733" lon="6.01419">
        <ele>205.2002</ele>
        <time>2026-05-16T15:05:39+02:00</time>
      </trkpt>
      <trkpt lat="47.64734" lon="6.01428">
        <ele>205.2002</ele>
        <time>2026-05-16T15:05:40+02:00</time>
      </trkpt>
      <trkpt lat="47.64736" lon="6.01437">
        <ele>205.2002</ele>
        <time>2026-05-16T15:05:41+02:00</time>
      </trkpt>
      <trkpt lat="47.64737" lon="6.01446">
        <ele>205.2002</ele>
        <time>2026-05-16T15:05:42+02:00</time>
      </trkpt>
      <trkpt lat="47.64739" lon="6.01454">
        <ele>205.2002</ele>
        <time>2026-05-16T15:05:43+02:00</time>
      </trkpt>
      <trkpt lat="47.64741" lon="6.01463">
        <ele>205.2002</ele>
        <time>2026-05-16T15:05:44+02:00</time>
      </trkpt>
      <trkpt lat="47.64743" lon="6.01471">
        <ele>205.2002</ele>
        <time>2026-05-16T15:05:45+02:00</time>
      </trkpt>
      <trkpt lat="47.64746" lon="6.0148">
        <ele>205.2002</ele>
        <time>2026-05-16T15:05:46+02:00</time>
      </trkpt>
      <trkpt lat="47.64748" lon="6.0149">
        <ele>205.2002</ele>
        <time>2026-05-16T15:05:47+02:00</time>
      </trkpt>
      <trkpt lat="47.64751" lon="6.01499">
        <ele>205.2002</ele>
        <time>2026-05-16T15:05:48+02:00</time>
      </trkpt>
      <trkpt lat="47.64753" lon="6.01508">
        <ele>205.2002</ele>
        <time>2026-05-16T15:05:49+02:00</time>
      </trkpt>
      <trkpt lat="47.64756" lon="6.01518">
        <ele>205.2002</ele>
        <time>2026-05-16T15:05:50+02:00</time>
      </trkpt>
      <trkpt lat="47.64758" lon="6.01527">
        <ele>205.2002</ele>
        <time>2026-05-16T15:05:51+02:00</time>
      </trkpt>
      <trkpt lat="47.64761" lon="6.01536">
        <ele>205.2002</ele>
        <time>2026-05-16T15:05:52+02:00</time>
      </trkpt>
      <trkpt lat="47.64764" lon="6.01545">
        <ele>205.2002</ele>
        <time>2026-05-16T15:05:53+02:00</time>
      </trkpt>
      <trkpt lat="47.64767" lon="6.01554">
        <ele>205.2002</ele>
        <time>2026-05-16T15:05:54+02:00</time>
      </trkpt>
      <trkpt lat="47.6477" lon="6.01562">
        <ele>205.2002</ele>
        <time>2026-05-16T15:05:55+02:00</time>
      </trkpt>
      <trkpt lat="47.64774" lon="6.01571">
        <ele>205.2002</ele>
        <time>2026-05-16T15:05:56+02:00</time>
      </trkpt>
      <trkpt lat="47.64778" lon="6.01579">
        <ele>205.2002</ele>
        <time>2026-05-16T15:05:57+02:00</time>
      </trkpt>
      <trkpt lat="47.64782" lon="6.01587">
        <ele>205.2002</ele>
        <time>2026-05-16T15:05:58+02:00</time>
      </trkpt>
      <trkpt lat="47.64786" lon="6.01595">
        <ele>205.2002</ele>
        <time>2026-05-16T15:05:59+02:00</time>
      </trkpt>
      <trkpt lat="47.6479" lon="6.01603">
        <ele>205.2002</ele>
        <time>2026-05-16T15:06:00+02:00</time>
      </trkpt>
      <trkpt lat="47.64794" lon="6.01611">
        <ele>205.2002</ele>
        <time>2026-05-16T15:06:01+02:00</time>
      </trkpt>
      <trkpt lat="47.64798" lon="6.01619">
        <ele>205.2002</ele>
        <time>2026-05-16T15:06:02+02:00</time>
      </trkpt>
      <trkpt lat="47.64802" lon="6.01626">
        <ele>205.2002</ele>
        <time>2026-05-16T15:06:03+02:00</time>
      </trkpt>
      <trkpt lat="47.64806" lon="6.01634">
        <ele>205.2002</ele>
        <time>2026-05-16T15:06:04+02:00</time>
      </trkpt>
      <trkpt lat="47.6481" lon="6.01642">
        <ele>205.2002</ele>
        <time>2026-05-16T15:06:05+02:00</time>
      </trkpt>
      <trkpt lat="47.64815" lon="6.0165">
        <ele>205.2002</ele>
        <time>2026-05-16T15:06:06+02:00</time>
      </trkpt>
      <trkpt lat="47.64818" lon="6.01658">
        <ele>205.2002</ele>
        <time>2026-05-16T15:06:07+02:00</time>
      </trkpt>
      <trkpt lat="47.64821" lon="6.01666">
        <ele>205.2002</ele>
        <time>2026-05-16T15:06:08+02:00</time>
      </trkpt>
      <trkpt lat="47.64824" lon="6.01675">
        <ele>205.2002</ele>
        <time>2026-05-16T15:06:09+02:00</time>
      </trkpt>
      <trkpt lat="47.64827" lon="6.01683">
        <ele>205.2002</ele>
        <time>2026-05-16T15:06:10+02:00</time>
      </trkpt>
      <trkpt lat="47.64831" lon="6.01692">
        <ele>205.2002</ele>
        <time>2026-05-16T15:06:11+02:00</time>
      </trkpt>
      <trkpt lat="47.64833" lon="6.01701">
        <ele>205.2002</ele>
        <time>2026-05-16T15:06:12+02:00</time>
      </trkpt>
      <trkpt lat="47.64836" lon="6.0171">
        <ele>205.2002</ele>
        <time>2026-05-16T15:06:13+02:00</time>
      </trkpt>
      <trkpt lat="47.64839" lon="6.01719">
        <ele>205.2002</ele>
        <time>2026-05-16T15:06:14+02:00</time>
      </trkpt>
      <trkpt lat="47.64841" lon="6.01728">
        <ele>205.2002</ele>
        <time>2026-05-16T15:06:15+02:00</time>
      </trkpt>
      <trkpt lat="47.64844" lon="6.01737">
        <ele>205.2002</ele>
        <time>2026-05-16T15:06:16+02:00</time>
      </trkpt>
      <trkpt lat="47.64847" lon="6.01746">
        <ele>205.2002</ele>
        <time>2026-05-16T15:06:17+02:00</time>
      </trkpt>
      <trkpt lat="47.6485" lon="6.01754">
        <ele>205.2002</ele>
        <time>2026-05-16T15:06:18+02:00</time>
      </trkpt>
      <trkpt lat="47.64853" lon="6.01762">
        <ele>205.2002</ele>
        <time>2026-05-16T15:06:19+02:00</time>
      </trkpt>
      <trkpt lat="47.64856" lon="6.01771">
        <ele>205.2002</ele>
        <time>2026-05-16T15:06:20+02:00</time>
      </trkpt>
      <trkpt lat="47.6486" lon="6.01779">
        <ele>205.2002</ele>
        <time>2026-05-16T15:06:21+02:00</time>
      </trkpt>
      <trkpt lat="47.64863" lon="6.01787">
        <ele>205.2002</ele>
        <time>2026-05-16T15:06:22+02:00</time>
      </trkpt>
      <trkpt lat="47.64867" lon="6.01795">
        <ele>205.2002</ele>
        <time>2026-05-16T15:06:23+02:00</time>
      </trkpt>
      <trkpt lat="47.6487" lon="6.01803">
        <ele>205.2002</ele>
        <time>2026-05-16T15:06:24+02:00</time>
      </trkpt>
      <trkpt lat="47.64872" lon="6.01807">
        <ele>205.2002</ele>
        <time>2026-05-16T15:06:25+02:00</time>
      </trkpt>
      <trkpt lat="47.64877" lon="6.01819">
        <ele>205.2002</ele>
        <time>2026-05-16T15:06:26+02:00</time>
      </trkpt>
      <trkpt lat="47.6488" lon="6.01828">
        <ele>205.2002</ele>
        <time>2026-05-16T15:06:27+02:00</time>
      </trkpt>
      <trkpt lat="47.64882" lon="6.01836">
        <ele>205.2002</ele>
        <time>2026-05-16T15:06:28+02:00</time>
      </trkpt>
      <trkpt lat="47.64886" lon="6.01845">
        <ele>205.2002</ele>
        <time>2026-05-16T15:06:29+02:00</time>
      </trkpt>
      <trkpt lat="47.64889" lon="6.01853">
        <ele>205.2002</ele>
        <time>2026-05-16T15:06:30+02:00</time>
      </trkpt>
      <trkpt lat="47.64892" lon="6.01862">
        <ele>205.2002</ele>
        <time>2026-05-16T15:06:31+02:00</time>
      </trkpt>
      <trkpt lat="47.64895" lon="6.01871">
        <ele>205.2002</ele>
        <time>2026-05-16T15:06:32+02:00</time>
      </trkpt>
      <trkpt lat="47.64898" lon="6.01879">
        <ele>205.2002</ele>
        <time>2026-05-16T15:06:33+02:00</time>
      </trkpt>
      <trkpt lat="47.64901" lon="6.01888">
        <ele>205.2002</ele>
        <time>2026-05-16T15:06:34+02:00</time>
      </trkpt>
      <trkpt lat="47.64904" lon="6.01896">
        <ele>205.2002</ele>
        <time>2026-05-16T15:06:35+02:00</time>
      </trkpt>
      <trkpt lat="47.64908" lon="6.01904">
        <ele>205.2002</ele>
        <time>2026-05-16T15:06:36+02:00</time>
      </trkpt>
      <trkpt lat="47.64911" lon="6.01912">
        <ele>205.2002</ele>
        <time>2026-05-16T15:06:37+02:00</time>
      </trkpt>
      <trkpt lat="47.64914" lon="6.01919">
        <ele>205.2002</ele>
        <time>2026-05-16T15:06:38+02:00</time>
      </trkpt>
      <trkpt lat="47.64926" lon="6.01948">
        <ele>205.2002</ele>
        <time>2026-05-16T15:06:39+02:00</time>
      </trkpt>
      <trkpt lat="47.6493" lon="6.01954">
        <ele>205.2002</ele>
        <time>2026-05-16T15:06:40+02:00</time>
      </trkpt>
      <trkpt lat="47.64934" lon="6.0196">
        <ele>205.2002</ele>
        <time>2026-05-16T15:06:41+02:00</time>
      </trkpt>
      <trkpt lat="47.64939" lon="6.01965">
        <ele>205.2002</ele>
        <time>2026-05-16T15:06:42+02:00</time>
      </trkpt>
      <trkpt lat="47.64944" lon="6.0197">
        <ele>205.2002</ele>
        <time>2026-05-16T15:06:43+02:00</time>
      </trkpt>
      <trkpt lat="47.6495" lon="6.01974">
        <ele>205.2002</ele>
        <time>2026-05-16T15:06:44+02:00</time>
      </trkpt>
      <trkpt lat="47.64956" lon="6.01978">
        <ele>205.2002</ele>
        <time>2026-05-16T15:06:45+02:00</time>
      </trkpt>
      <trkpt lat="47.64962" lon="6.0198">
        <ele>205.2998</ele>
        <time>2026-05-16T15:06:46+02:00</time>
      </trkpt>
      <trkpt lat="47.64965" lon="6.01981">
        <ele>205.2998</ele>
        <time>2026-05-16T15:06:47+02:00</time>
      </trkpt>
      <trkpt lat="47.64974" lon="6.01984">
        <ele>205.40039</ele>
        <time>2026-05-16T15:06:48+02:00</time>
      </trkpt>
      <trkpt lat="47.6498" lon="6.01986">
        <ele>205.7002</ele>
        <time>2026-05-16T15:06:49+02:00</time>
      </trkpt>
      <trkpt lat="47.64986" lon="6.01988">
        <ele>206</ele>
        <time>2026-05-16T15:06:50+02:00</time>
      </trkpt>
      <trkpt lat="47.64992" lon="6.01991">
        <ele>206.2002</ele>
        <time>2026-05-16T15:06:51+02:00</time>
      </trkpt>
      <trkpt lat="47.64998" lon="6.01993">
        <ele>206.5</ele>
        <time>2026-05-16T15:06:52+02:00</time>
      </trkpt>
      <trkpt lat="47.65004" lon="6.01995">
        <ele>206.7998</ele>
        <time>2026-05-16T15:06:53+02:00</time>
      </trkpt>
      <trkpt lat="47.6501" lon="6.01998">
        <ele>207</ele>
        <time>2026-05-16T15:06:54+02:00</time>
      </trkpt>
      <trkpt lat="47.65016" lon="6.02">
        <ele>207.10059</ele>
        <time>2026-05-16T15:06:55+02:00</time>
      </trkpt>
      <trkpt lat="47.65021" lon="6.02003">
        <ele>207.10059</ele>
        <time>2026-05-16T15:06:56+02:00</time>
      </trkpt>
      <trkpt lat="47.65026" lon="6.02006">
        <ele>206.90039</ele>
        <time>2026-05-16T15:06:57+02:00</time>
      </trkpt>
      <trkpt lat="47.65032" lon="6.02008">
        <ele>206.7002</ele>
        <time>2026-05-16T15:06:58+02:00</time>
      </trkpt>
      <trkpt lat="47.65037" lon="6.02011">
        <ele>206.60059</ele>
        <time>2026-05-16T15:06:59+02:00</time>
      </trkpt>
      <trkpt lat="47.65042" lon="6.02013">
        <ele>206.60059</ele>
        <time>2026-05-16T15:07:00+02:00</time>
      </trkpt>
      <trkpt lat="47.65048" lon="6.02014">
        <ele>206.5</ele>
        <time>2026-05-16T15:07:01+02:00</time>
      </trkpt>
      <trkpt lat="47.65053" lon="6.02017">
        <ele>206.5</ele>
        <time>2026-05-16T15:07:02+02:00</time>
      </trkpt>
      <trkpt lat="47.65059" lon="6.02019">
        <ele>206.40039</ele>
        <time>2026-05-16T15:07:03+02:00</time>
      </trkpt>
      <trkpt lat="47.65065" lon="6.02021">
        <ele>206.40039</ele>
        <time>2026-05-16T15:07:04+02:00</time>
      </trkpt>
      <trkpt lat="47.6507" lon="6.02022">
        <ele>206.40039</ele>
        <time>2026-05-16T15:07:05+02:00</time>
      </trkpt>
      <trkpt lat="47.65076" lon="6.02023">
        <ele>206.40039</ele>
        <time>2026-05-16T15:07:06+02:00</time>
      </trkpt>
      <trkpt lat="47.65082" lon="6.02024">
        <ele>206.2998</ele>
        <time>2026-05-16T15:07:07+02:00</time>
      </trkpt>
      <trkpt lat="47.65088" lon="6.02025">
        <ele>206.2998</ele>
        <time>2026-05-16T15:07:08+02:00</time>
      </trkpt>
      <trkpt lat="47.65094" lon="6.02027">
        <ele>206.2998</ele>
        <time>2026-05-16T15:07:09+02:00</time>
      </trkpt>
      <trkpt lat="47.65099" lon="6.02028">
        <ele>206.2998</ele>
        <time>2026-05-16T15:07:10+02:00</time>
      </trkpt>
      <trkpt lat="47.65106" lon="6.0203">
        <ele>206.2998</ele>
        <time>2026-05-16T15:07:11+02:00</time>
      </trkpt>
      <trkpt lat="47.65112" lon="6.02031">
        <ele>206.2998</ele>
        <time>2026-05-16T15:07:12+02:00</time>
      </trkpt>
      <trkpt lat="47.65117" lon="6.02033">
        <ele>206.2998</ele>
        <time>2026-05-16T15:07:13+02:00</time>
      </trkpt>
      <trkpt lat="47.65123" lon="6.02035">
        <ele>206.2998</ele>
        <time>2026-05-16T15:07:14+02:00</time>
      </trkpt>
      <trkpt lat="47.6513" lon="6.02037">
        <ele>206.2998</ele>
        <time>2026-05-16T15:07:15+02:00</time>
      </trkpt>
      <trkpt lat="47.65136" lon="6.02039">
        <ele>206.2998</ele>
        <time>2026-05-16T15:07:16+02:00</time>
      </trkpt>
      <trkpt lat="47.65141" lon="6.02042">
        <ele>206.2998</ele>
        <time>2026-05-16T15:07:17+02:00</time>
      </trkpt>
      <trkpt lat="47.65148" lon="6.02044">
        <ele>206.2998</ele>
        <time>2026-05-16T15:07:18+02:00</time>
      </trkpt>
      <trkpt lat="47.65154" lon="6.02046">
        <ele>206.2998</ele>
        <time>2026-05-16T15:07:19+02:00</time>
      </trkpt>
      <trkpt lat="47.6516" lon="6.02048">
        <ele>206.2998</ele>
        <time>2026-05-16T15:07:20+02:00</time>
      </trkpt>
      <trkpt lat="47.65166" lon="6.0205">
        <ele>206.40039</ele>
        <time>2026-05-16T15:07:21+02:00</time>
      </trkpt>
      <trkpt lat="47.65172" lon="6.02052">
        <ele>206.40039</ele>
        <time>2026-05-16T15:07:22+02:00</time>
      </trkpt>
      <trkpt lat="47.65178" lon="6.02053">
        <ele>206.5</ele>
        <time>2026-05-16T15:07:23+02:00</time>
      </trkpt>
      <trkpt lat="47.65181" lon="6.02054">
        <ele>206.5</ele>
        <time>2026-05-16T15:07:24+02:00</time>
      </trkpt>
      <trkpt lat="47.65191" lon="6.02056">
        <ele>206.60059</ele>
        <time>2026-05-16T15:07:25+02:00</time>
      </trkpt>
      <trkpt lat="47.65197" lon="6.02057">
        <ele>206.60059</ele>
        <time>2026-05-16T15:07:26+02:00</time>
      </trkpt>
      <trkpt lat="47.65204" lon="6.02058">
        <ele>206.7998</ele>
        <time>2026-05-16T15:07:27+02:00</time>
      </trkpt>
      <trkpt lat="47.6521" lon="6.02058">
        <ele>206.7998</ele>
        <time>2026-05-16T15:07:28+02:00</time>
      </trkpt>
      <trkpt lat="47.65217" lon="6.02059">
        <ele>206.90039</ele>
        <time>2026-05-16T15:07:29+02:00</time>
      </trkpt>
      <trkpt lat="47.65223" lon="6.02059">
        <ele>207</ele>
        <time>2026-05-16T15:07:30+02:00</time>
      </trkpt>
      <trkpt lat="47.6523" lon="6.02059">
        <ele>207</ele>
        <time>2026-05-16T15:07:31+02:00</time>
      </trkpt>
      <trkpt lat="47.65236" lon="6.02059">
        <ele>207.10059</ele>
        <time>2026-05-16T15:07:32+02:00</time>
      </trkpt>
      <trkpt lat="47.65243" lon="6.02059">
        <ele>207.10059</ele>
        <time>2026-05-16T15:07:33+02:00</time>
      </trkpt>
      <trkpt lat="47.65249" lon="6.02058">
        <ele>207.10059</ele>
        <time>2026-05-16T15:07:34+02:00</time>
      </trkpt>
      <trkpt lat="47.65255" lon="6.02057">
        <ele>207.10059</ele>
        <time>2026-05-16T15:07:35+02:00</time>
      </trkpt>
      <trkpt lat="47.65262" lon="6.02056">
        <ele>207</ele>
        <time>2026-05-16T15:07:36+02:00</time>
      </trkpt>
      <trkpt lat="47.65268" lon="6.02055">
        <ele>206.90039</ele>
        <time>2026-05-16T15:07:37+02:00</time>
      </trkpt>
      <trkpt lat="47.65274" lon="6.02054">
        <ele>206.7998</ele>
        <time>2026-05-16T15:07:38+02:00</time>
      </trkpt>
      <trkpt lat="47.65281" lon="6.02052">
        <ele>206.7002</ele>
        <time>2026-05-16T15:07:39+02:00</time>
      </trkpt>
      <trkpt lat="47.65287" lon="6.0205">
        <ele>206.7002</ele>
        <time>2026-05-16T15:07:40+02:00</time>
      </trkpt>
      <trkpt lat="47.65293" lon="6.02048">
        <ele>206.60059</ele>
        <time>2026-05-16T15:07:41+02:00</time>
      </trkpt>
      <trkpt lat="47.65299" lon="6.02046">
        <ele>206.5</ele>
        <time>2026-05-16T15:07:42+02:00</time>
      </trkpt>
      <trkpt lat="47.65306" lon="6.02043">
        <ele>206.40039</ele>
        <time>2026-05-16T15:07:43+02:00</time>
      </trkpt>
      <trkpt lat="47.65312" lon="6.02041">
        <ele>206.5</ele>
        <time>2026-05-16T15:07:44+02:00</time>
      </trkpt>
      <trkpt lat="47.65318" lon="6.02038">
        <ele>206.5</ele>
        <time>2026-05-16T15:07:45+02:00</time>
      </trkpt>
      <trkpt lat="47.65324" lon="6.02035">
        <ele>206.40039</ele>
        <time>2026-05-16T15:07:46+02:00</time>
      </trkpt>
      <trkpt lat="47.6533" lon="6.02032">
        <ele>206.60059</ele>
        <time>2026-05-16T15:07:47+02:00</time>
      </trkpt>
      <trkpt lat="47.65336" lon="6.02029">
        <ele>206.60059</ele>
        <time>2026-05-16T15:07:48+02:00</time>
      </trkpt>
      <trkpt lat="47.65341" lon="6.02026">
        <ele>206.5</ele>
        <time>2026-05-16T15:07:49+02:00</time>
      </trkpt>
      <trkpt lat="47.65347" lon="6.02022">
        <ele>206.7002</ele>
        <time>2026-05-16T15:07:50+02:00</time>
      </trkpt>
      <trkpt lat="47.65353" lon="6.02019">
        <ele>206.7002</ele>
        <time>2026-05-16T15:07:51+02:00</time>
      </trkpt>
      <trkpt lat="47.65358" lon="6.02015">
        <ele>206.7998</ele>
        <time>2026-05-16T15:07:52+02:00</time>
      </trkpt>
      <trkpt lat="47.65364" lon="6.02011">
        <ele>206.7998</ele>
        <time>2026-05-16T15:07:53+02:00</time>
      </trkpt>
      <trkpt lat="47.6537" lon="6.02007">
        <ele>207</ele>
        <time>2026-05-16T15:07:54+02:00</time>
      </trkpt>
      <trkpt lat="47.65375" lon="6.02003">
        <ele>207</ele>
        <time>2026-05-16T15:07:55+02:00</time>
      </trkpt>
      <trkpt lat="47.65381" lon="6.01999">
        <ele>207.2002</ele>
        <time>2026-05-16T15:07:56+02:00</time>
      </trkpt>
      <trkpt lat="47.65386" lon="6.01995">
        <ele>207.2002</ele>
        <time>2026-05-16T15:07:57+02:00</time>
      </trkpt>
      <trkpt lat="47.65391" lon="6.01991">
        <ele>207.2002</ele>
        <time>2026-05-16T15:07:58+02:00</time>
      </trkpt>
      <trkpt lat="47.65396" lon="6.01986">
        <ele>207.40039</ele>
        <time>2026-05-16T15:07:59+02:00</time>
      </trkpt>
      <trkpt lat="47.65402" lon="6.01982">
        <ele>207.60059</ele>
        <time>2026-05-16T15:08:00+02:00</time>
      </trkpt>
      <trkpt lat="47.65407" lon="6.01978">
        <ele>207.60059</ele>
        <time>2026-05-16T15:08:01+02:00</time>
      </trkpt>
      <trkpt lat="47.65412" lon="6.01974">
        <ele>207.60059</ele>
        <time>2026-05-16T15:08:02+02:00</time>
      </trkpt>
      <trkpt lat="47.65417" lon="6.01969">
        <ele>207.7998</ele>
        <time>2026-05-16T15:08:03+02:00</time>
      </trkpt>
      <trkpt lat="47.65423" lon="6.01965">
        <ele>207.7998</ele>
        <time>2026-05-16T15:08:04+02:00</time>
      </trkpt>
      <trkpt lat="47.65428" lon="6.01961">
        <ele>207.90039</ele>
        <time>2026-05-16T15:08:05+02:00</time>
      </trkpt>
      <trkpt lat="47.65433" lon="6.01957">
        <ele>207.90039</ele>
        <time>2026-05-16T15:08:06+02:00</time>
      </trkpt>
      <trkpt lat="47.65436" lon="6.01955">
        <ele>208</ele>
        <time>2026-05-16T15:08:07+02:00</time>
      </trkpt>
      <trkpt lat="47.65444" lon="6.01948">
        <ele>207.90039</ele>
        <time>2026-05-16T15:08:08+02:00</time>
      </trkpt>
      <trkpt lat="47.6545" lon="6.01943">
        <ele>208</ele>
        <time>2026-05-16T15:08:09+02:00</time>
      </trkpt>
      <trkpt lat="47.65455" lon="6.01939">
        <ele>208</ele>
        <time>2026-05-16T15:08:10+02:00</time>
      </trkpt>
      <trkpt lat="47.6546" lon="6.01934">
        <ele>207.90039</ele>
        <time>2026-05-16T15:08:11+02:00</time>
      </trkpt>
      <trkpt lat="47.65466" lon="6.0193">
        <ele>207.7998</ele>
        <time>2026-05-16T15:08:12+02:00</time>
      </trkpt>
      <trkpt lat="47.65471" lon="6.01925">
        <ele>207.7002</ele>
        <time>2026-05-16T15:08:13+02:00</time>
      </trkpt>
      <trkpt lat="47.65476" lon="6.0192">
        <ele>207.60059</ele>
        <time>2026-05-16T15:08:14+02:00</time>
      </trkpt>
      <trkpt lat="47.65482" lon="6.01914">
        <ele>207.5</ele>
        <time>2026-05-16T15:08:15+02:00</time>
      </trkpt>
      <trkpt lat="47.65486" lon="6.01908">
        <ele>207.5</ele>
        <time>2026-05-16T15:08:16+02:00</time>
      </trkpt>
      <trkpt lat="47.65492" lon="6.01903">
        <ele>207.40039</ele>
        <time>2026-05-16T15:08:17+02:00</time>
      </trkpt>
      <trkpt lat="47.65497" lon="6.01899">
        <ele>207.2998</ele>
        <time>2026-05-16T15:08:18+02:00</time>
      </trkpt>
      <trkpt lat="47.65501" lon="6.01895">
        <ele>207.2002</ele>
        <time>2026-05-16T15:08:19+02:00</time>
      </trkpt>
      <trkpt lat="47.65505" lon="6.01891">
        <ele>207.10059</ele>
        <time>2026-05-16T15:08:20+02:00</time>
      </trkpt>
      <trkpt lat="47.65508" lon="6.01888">
        <ele>207.10059</ele>
        <time>2026-05-16T15:08:21+02:00</time>
      </trkpt>
      <trkpt lat="47.65511" lon="6.01885">
        <ele>206.90039</ele>
        <time>2026-05-16T15:08:22+02:00</time>
      </trkpt>
      <trkpt lat="47.65514" lon="6.01883">
        <ele>206.90039</ele>
        <time>2026-05-16T15:08:23+02:00</time>
      </trkpt>
      <trkpt lat="47.65516" lon="6.01882">
        <ele>206.7998</ele>
        <time>2026-05-16T15:08:24+02:00</time>
      </trkpt>
      <trkpt lat="47.65516" lon="6.0188">
        <ele>206.7998</ele>
        <time>2026-05-16T15:08:25+02:00</time>
      </trkpt>
      <trkpt lat="47.65516" lon="6.01878">
        <ele>206.90039</ele>
        <time>2026-05-16T15:08:26+02:00</time>
      </trkpt>
      <trkpt lat="47.65516" lon="6.01876">
        <ele>206.90039</ele>
        <time>2026-05-16T15:08:27+02:00</time>
      </trkpt>
      <trkpt lat="47.65515" lon="6.01873">
        <ele>207</ele>
        <time>2026-05-16T15:08:28+02:00</time>
      </trkpt>
      <trkpt lat="47.65514" lon="6.01871">
        <ele>207</ele>
        <time>2026-05-16T15:08:29+02:00</time>
      </trkpt>
      <trkpt lat="47.65513" lon="6.01865">
        <ele>207</ele>
        <time>2026-05-16T15:08:30+02:00</time>
      </trkpt>
      <trkpt lat="47.65514" lon="6.01859">
        <ele>207</ele>
        <time>2026-05-16T15:08:31+02:00</time>
      </trkpt>
      <trkpt lat="47.65515" lon="6.01854">
        <ele>207</ele>
        <time>2026-05-16T15:08:32+02:00</time>
      </trkpt>
      <trkpt lat="47.65518" lon="6.01848">
        <ele>207</ele>
        <time>2026-05-16T15:08:33+02:00</time>
      </trkpt>
      <trkpt lat="47.6552" lon="6.01842">
        <ele>207</ele>
        <time>2026-05-16T15:08:34+02:00</time>
      </trkpt>
      <trkpt lat="47.65524" lon="6.01837">
        <ele>206.90039</ele>
        <time>2026-05-16T15:08:35+02:00</time>
      </trkpt>
      <trkpt lat="47.65528" lon="6.01832">
        <ele>206.7002</ele>
        <time>2026-05-16T15:08:36+02:00</time>
      </trkpt>
      <trkpt lat="47.65532" lon="6.01828">
        <ele>206.7002</ele>
        <time>2026-05-16T15:08:37+02:00</time>
      </trkpt>
      <trkpt lat="47.65538" lon="6.01824">
        <ele>206.7002</ele>
        <time>2026-05-16T15:08:38+02:00</time>
      </trkpt>
      <trkpt lat="47.65543" lon="6.01819">
        <ele>206.7002</ele>
        <time>2026-05-16T15:08:39+02:00</time>
      </trkpt>
      <trkpt lat="47.65549" lon="6.01815">
        <ele>206.60059</ele>
        <time>2026-05-16T15:08:40+02:00</time>
      </trkpt>
      <trkpt lat="47.65555" lon="6.0181">
        <ele>206.60059</ele>
        <time>2026-05-16T15:08:41+02:00</time>
      </trkpt>
      <trkpt lat="47.6556" lon="6.01804">
        <ele>206.40039</ele>
        <time>2026-05-16T15:08:42+02:00</time>
      </trkpt>
      <trkpt lat="47.65566" lon="6.01798">
        <ele>206.40039</ele>
        <time>2026-05-16T15:08:43+02:00</time>
      </trkpt>
      <trkpt lat="47.65571" lon="6.01791">
        <ele>206.5</ele>
        <time>2026-05-16T15:08:44+02:00</time>
      </trkpt>
      <trkpt lat="47.65575" lon="6.01784">
        <ele>206.5</ele>
        <time>2026-05-16T15:08:45+02:00</time>
      </trkpt>
      <trkpt lat="47.65579" lon="6.01776">
        <ele>206.7002</ele>
        <time>2026-05-16T15:08:46+02:00</time>
      </trkpt>
      <trkpt lat="47.65584" lon="6.01769">
        <ele>206.5</ele>
        <time>2026-05-16T15:08:47+02:00</time>
      </trkpt>
      <trkpt lat="47.65588" lon="6.01762">
        <ele>206.5</ele>
        <time>2026-05-16T15:08:48+02:00</time>
      </trkpt>
      <trkpt lat="47.65592" lon="6.01755">
        <ele>206.60059</ele>
        <time>2026-05-16T15:08:49+02:00</time>
      </trkpt>
      <trkpt lat="47.65596" lon="6.01748">
        <ele>206.90039</ele>
        <time>2026-05-16T15:08:50+02:00</time>
      </trkpt>
      <trkpt lat="47.656" lon="6.01741">
        <ele>206.90039</ele>
        <time>2026-05-16T15:08:51+02:00</time>
      </trkpt>
      <trkpt lat="47.65603" lon="6.01734">
        <ele>206.7002</ele>
        <time>2026-05-16T15:08:52+02:00</time>
      </trkpt>
      <trkpt lat="47.65605" lon="6.01731">
        <ele>206.90039</ele>
        <time>2026-05-16T15:08:53+02:00</time>
      </trkpt>
      <trkpt lat="47.65612" lon="6.01721">
        <ele>207</ele>
        <time>2026-05-16T15:08:54+02:00</time>
      </trkpt>
      <trkpt lat="47.65617" lon="6.01715">
        <ele>207.10059</ele>
        <time>2026-05-16T15:08:55+02:00</time>
      </trkpt>
      <trkpt lat="47.65619" lon="6.01713">
        <ele>207.10059</ele>
        <time>2026-05-16T15:08:56+02:00</time>
      </trkpt>
      <trkpt lat="47.65626" lon="6.01705">
        <ele>206.7998</ele>
        <time>2026-05-16T15:08:57+02:00</time>
      </trkpt>
      <trkpt lat="47.65631" lon="6.017">
        <ele>206.7998</ele>
        <time>2026-05-16T15:08:58+02:00</time>
      </trkpt>
      <trkpt lat="47.65636" lon="6.01696">
        <ele>206.7998</ele>
        <time>2026-05-16T15:08:59+02:00</time>
      </trkpt>
      <trkpt lat="47.65641" lon="6.01692">
        <ele>206.60059</ele>
        <time>2026-05-16T15:09:00+02:00</time>
      </trkpt>
      <trkpt lat="47.65646" lon="6.01687">
        <ele>206.7002</ele>
        <time>2026-05-16T15:09:01+02:00</time>
      </trkpt>
      <trkpt lat="47.6565" lon="6.01683">
        <ele>206.5</ele>
        <time>2026-05-16T15:09:02+02:00</time>
      </trkpt>
      <trkpt lat="47.65655" lon="6.01679">
        <ele>206.40039</ele>
        <time>2026-05-16T15:09:03+02:00</time>
      </trkpt>
      <trkpt lat="47.6566" lon="6.01679">
        <ele>206.2002</ele>
        <time>2026-05-16T15:09:04+02:00</time>
      </trkpt>
      <trkpt lat="47.65664" lon="6.01682">
        <ele>206</ele>
        <time>2026-05-16T15:09:05+02:00</time>
      </trkpt>
      <trkpt lat="47.65666" lon="6.01685">
        <ele>206</ele>
        <time>2026-05-16T15:09:06+02:00</time>
      </trkpt>
      <trkpt lat="47.65671" lon="6.01695">
        <ele>205.60059</ele>
        <time>2026-05-16T15:09:07+02:00</time>
      </trkpt>
      <trkpt lat="47.65675" lon="6.01699">
        <ele>205.2998</ele>
        <time>2026-05-16T15:09:08+02:00</time>
      </trkpt>
      <trkpt lat="47.65682" lon="6.01699">
        <ele>205.2002</ele>
        <time>2026-05-16T15:09:09+02:00</time>
      </trkpt>
      <trkpt lat="47.65687" lon="6.01697">
        <ele>205.2998</ele>
        <time>2026-05-16T15:09:10+02:00</time>
      </trkpt>
      <trkpt lat="47.65692" lon="6.01694">
        <ele>205.2998</ele>
        <time>2026-05-16T15:09:11+02:00</time>
      </trkpt>
      <trkpt lat="47.65698" lon="6.01691">
        <ele>205.2998</ele>
        <time>2026-05-16T15:09:12+02:00</time>
      </trkpt>
      <trkpt lat="47.65703" lon="6.01688">
        <ele>205.2998</ele>
        <time>2026-05-16T15:09:13+02:00</time>
      </trkpt>
      <trkpt lat="47.65709" lon="6.01685">
        <ele>205.2998</ele>
        <time>2026-05-16T15:09:14+02:00</time>
      </trkpt>
      <trkpt lat="47.65714" lon="6.01682">
        <ele>205.2002</ele>
        <time>2026-05-16T15:09:15+02:00</time>
      </trkpt>
      <trkpt lat="47.65719" lon="6.01679">
        <ele>205.2002</ele>
        <time>2026-05-16T15:09:16+02:00</time>
      </trkpt>
      <trkpt lat="47.65722" lon="6.01678">
        <ele>205.2002</ele>
        <time>2026-05-16T15:09:17+02:00</time>
      </trkpt>
      <trkpt lat="47.6573" lon="6.01673">
        <ele>205.10059</ele>
        <time>2026-05-16T15:09:18+02:00</time>
      </trkpt>
      <trkpt lat="47.65735" lon="6.0167">
        <ele>205.10059</ele>
        <time>2026-05-16T15:09:19+02:00</time>
      </trkpt>
      <trkpt lat="47.65741" lon="6.01667">
        <ele>205.10059</ele>
        <time>2026-05-16T15:09:20+02:00</time>
      </trkpt>
      <trkpt lat="47.65746" lon="6.01664">
        <ele>205.2002</ele>
        <time>2026-05-16T15:09:21+02:00</time>
      </trkpt>
      <trkpt lat="47.65751" lon="6.01661">
        <ele>205.2002</ele>
        <time>2026-05-16T15:09:22+02:00</time>
      </trkpt>
      <trkpt lat="47.65756" lon="6.01657">
        <ele>205.2002</ele>
        <time>2026-05-16T15:09:23+02:00</time>
      </trkpt>
      <trkpt lat="47.65761" lon="6.01652">
        <ele>205.40039</ele>
        <time>2026-05-16T15:09:24+02:00</time>
      </trkpt>
      <trkpt lat="47.65767" lon="6.01648">
        <ele>205.40039</ele>
        <time>2026-05-16T15:09:25+02:00</time>
      </trkpt>
      <trkpt lat="47.65772" lon="6.01643">
        <ele>205.5</ele>
        <time>2026-05-16T15:09:26+02:00</time>
      </trkpt>
      <trkpt lat="47.65778" lon="6.01639">
        <ele>205.2998</ele>
        <time>2026-05-16T15:09:27+02:00</time>
      </trkpt>
      <trkpt lat="47.65783" lon="6.01634">
        <ele>205.10059</ele>
        <time>2026-05-16T15:09:28+02:00</time>
      </trkpt>
      <trkpt lat="47.65788" lon="6.0163">
        <ele>205.10059</ele>
        <time>2026-05-16T15:09:29+02:00</time>
      </trkpt>
      <trkpt lat="47.65794" lon="6.01625">
        <ele>205.10059</ele>
        <time>2026-05-16T15:09:30+02:00</time>
      </trkpt>
      <trkpt lat="47.65799" lon="6.01621">
        <ele>205.2998</ele>
        <time>2026-05-16T15:09:31+02:00</time>
      </trkpt>
      <trkpt lat="47.65804" lon="6.01617">
        <ele>205.2998</ele>
        <time>2026-05-16T15:09:32+02:00</time>
      </trkpt>
      <trkpt lat="47.6581" lon="6.01613">
        <ele>205.7998</ele>
        <time>2026-05-16T15:09:33+02:00</time>
      </trkpt>
      <trkpt lat="47.65815" lon="6.01609">
        <ele>205.7998</ele>
        <time>2026-05-16T15:09:34+02:00</time>
      </trkpt>
      <trkpt lat="47.65821" lon="6.01605">
        <ele>205.7998</ele>
        <time>2026-05-16T15:09:35+02:00</time>
      </trkpt>
      <trkpt lat="47.65827" lon="6.016">
        <ele>206.5</ele>
        <time>2026-05-16T15:09:36+02:00</time>
      </trkpt>
      <trkpt lat="47.65832" lon="6.01594">
        <ele>207.10059</ele>
        <time>2026-05-16T15:09:37+02:00</time>
      </trkpt>
      <trkpt lat="47.65838" lon="6.0159">
        <ele>206.7002</ele>
        <time>2026-05-16T15:09:38+02:00</time>
      </trkpt>
      <trkpt lat="47.65844" lon="6.01585">
        <ele>206.60059</ele>
        <time>2026-05-16T15:09:39+02:00</time>
      </trkpt>
      <trkpt lat="47.65847" lon="6.01582">
        <ele>205.7998</ele>
        <time>2026-05-16T15:09:40+02:00</time>
      </trkpt>
      <trkpt lat="47.65856" lon="6.01575">
        <ele>205.90039</ele>
        <time>2026-05-16T15:09:41+02:00</time>
      </trkpt>
      <trkpt lat="47.65862" lon="6.01571">
        <ele>205.7002</ele>
        <time>2026-05-16T15:09:42+02:00</time>
      </trkpt>
      <trkpt lat="47.65868" lon="6.01567">
        <ele>206.60059</ele>
        <time>2026-05-16T15:09:43+02:00</time>
      </trkpt>
      <trkpt lat="47.65874" lon="6.01563">
        <ele>206.2002</ele>
        <time>2026-05-16T15:09:44+02:00</time>
      </trkpt>
      <trkpt lat="47.6588" lon="6.01559">
        <ele>206.40039</ele>
        <time>2026-05-16T15:09:45+02:00</time>
      </trkpt>
      <trkpt lat="47.65886" lon="6.01556">
        <ele>205.7002</ele>
        <time>2026-05-16T15:09:46+02:00</time>
      </trkpt>
      <trkpt lat="47.6589" lon="6.01554">
        <ele>205.7002</ele>
        <time>2026-05-16T15:09:47+02:00</time>
      </trkpt>
      <trkpt lat="47.65899" lon="6.01548">
        <ele>205.2002</ele>
        <time>2026-05-16T15:09:48+02:00</time>
      </trkpt>
      <trkpt lat="47.65906" lon="6.01545">
        <ele>205.10059</ele>
        <time>2026-05-16T15:09:49+02:00</time>
      </trkpt>
      <trkpt lat="47.65912" lon="6.01542">
        <ele>205.5</ele>
        <time>2026-05-16T15:09:50+02:00</time>
      </trkpt>
      <trkpt lat="47.65918" lon="6.01538">
        <ele>205.40039</ele>
        <time>2026-05-16T15:09:51+02:00</time>
      </trkpt>
      <trkpt lat="47.65924" lon="6.01535">
        <ele>205.90039</ele>
        <time>2026-05-16T15:09:52+02:00</time>
      </trkpt>
      <trkpt lat="47.6593" lon="6.01532">
        <ele>205.5</ele>
        <time>2026-05-16T15:09:53+02:00</time>
      </trkpt>
      <trkpt lat="47.65937" lon="6.01529">
        <ele>205.2002</ele>
        <time>2026-05-16T15:09:54+02:00</time>
      </trkpt>
      <trkpt lat="47.65943" lon="6.01526">
        <ele>204.7998</ele>
        <time>2026-05-16T15:09:55+02:00</time>
      </trkpt>
      <trkpt lat="47.6595" lon="6.01523">
        <ele>204.7998</ele>
        <time>2026-05-16T15:09:56+02:00</time>
      </trkpt>
      <trkpt lat="47.65956" lon="6.01521">
        <ele>204.90039</ele>
        <time>2026-05-16T15:09:57+02:00</time>
      </trkpt>
      <trkpt lat="47.65963" lon="6.01518">
        <ele>205</ele>
        <time>2026-05-16T15:09:58+02:00</time>
      </trkpt>
      <trkpt lat="47.65969" lon="6.01516">
        <ele>205</ele>
        <time>2026-05-16T15:09:59+02:00</time>
      </trkpt>
      <trkpt lat="47.65976" lon="6.01514">
        <ele>205</ele>
        <time>2026-05-16T15:10:00+02:00</time>
      </trkpt>
      <trkpt lat="47.65983" lon="6.01511">
        <ele>205</ele>
        <time>2026-05-16T15:10:01+02:00</time>
      </trkpt>
      <trkpt lat="47.65989" lon="6.01509">
        <ele>205.2998</ele>
        <time>2026-05-16T15:10:02+02:00</time>
      </trkpt>
      <trkpt lat="47.65996" lon="6.01507">
        <ele>205.2002</ele>
        <time>2026-05-16T15:10:03+02:00</time>
      </trkpt>
      <trkpt lat="47.66002" lon="6.01505">
        <ele>205.2002</ele>
        <time>2026-05-16T15:10:04+02:00</time>
      </trkpt>
      <trkpt lat="47.66009" lon="6.01503">
        <ele>205.2002</ele>
        <time>2026-05-16T15:10:05+02:00</time>
      </trkpt>
      <trkpt lat="47.66015" lon="6.015">
        <ele>205.5</ele>
        <time>2026-05-16T15:10:06+02:00</time>
      </trkpt>
      <trkpt lat="47.66022" lon="6.01498">
        <ele>205.40039</ele>
        <time>2026-05-16T15:10:07+02:00</time>
      </trkpt>
      <trkpt lat="47.66029" lon="6.01495">
        <ele>205.40039</ele>
        <time>2026-05-16T15:10:08+02:00</time>
      </trkpt>
      <trkpt lat="47.66035" lon="6.01493">
        <ele>205.2998</ele>
        <time>2026-05-16T15:10:09+02:00</time>
      </trkpt>
      <trkpt lat="47.66042" lon="6.01491">
        <ele>205.2998</ele>
        <time>2026-05-16T15:10:10+02:00</time>
      </trkpt>
      <trkpt lat="47.66048" lon="6.01489">
        <ele>205.10059</ele>
        <time>2026-05-16T15:10:11+02:00</time>
      </trkpt>
      <trkpt lat="47.66051" lon="6.01488">
        <ele>205.10059</ele>
        <time>2026-05-16T15:10:12+02:00</time>
      </trkpt>
      <trkpt lat="47.66061" lon="6.01486">
        <ele>205.10059</ele>
        <time>2026-05-16T15:10:13+02:00</time>
      </trkpt>
      <trkpt lat="47.66068" lon="6.01485">
        <ele>205.10059</ele>
        <time>2026-05-16T15:10:14+02:00</time>
      </trkpt>
      <trkpt lat="47.66075" lon="6.01485">
        <ele>205.2002</ele>
        <time>2026-05-16T15:10:15+02:00</time>
      </trkpt>
      <trkpt lat="47.66082" lon="6.01484">
        <ele>205.10059</ele>
        <time>2026-05-16T15:10:16+02:00</time>
      </trkpt>
      <trkpt lat="47.66088" lon="6.01483">
        <ele>205.2002</ele>
        <time>2026-05-16T15:10:17+02:00</time>
      </trkpt>
      <trkpt lat="47.66095" lon="6.01481">
        <ele>205.2002</ele>
        <time>2026-05-16T15:10:18+02:00</time>
      </trkpt>
      <trkpt lat="47.66102" lon="6.0148">
        <ele>205.2002</ele>
        <time>2026-05-16T15:10:19+02:00</time>
      </trkpt>
      <trkpt lat="47.66108" lon="6.01479">
        <ele>205.2002</ele>
        <time>2026-05-16T15:10:20+02:00</time>
      </trkpt>
      <trkpt lat="47.66115" lon="6.01478">
        <ele>205.2002</ele>
        <time>2026-05-16T15:10:21+02:00</time>
      </trkpt>
      <trkpt lat="47.66121" lon="6.01477">
        <ele>205.2002</ele>
        <time>2026-05-16T15:10:22+02:00</time>
      </trkpt>
      <trkpt lat="47.66128" lon="6.01477">
        <ele>205.2002</ele>
        <time>2026-05-16T15:10:23+02:00</time>
      </trkpt>
      <trkpt lat="47.66135" lon="6.01476">
        <ele>205.2002</ele>
        <time>2026-05-16T15:10:24+02:00</time>
      </trkpt>
      <trkpt lat="47.66142" lon="6.01475">
        <ele>205.2002</ele>
        <time>2026-05-16T15:10:25+02:00</time>
      </trkpt>
      <trkpt lat="47.66149" lon="6.01475">
        <ele>205.2002</ele>
        <time>2026-05-16T15:10:26+02:00</time>
      </trkpt>
      <trkpt lat="47.66155" lon="6.01474">
        <ele>205.2002</ele>
        <time>2026-05-16T15:10:27+02:00</time>
      </trkpt>
      <trkpt lat="47.66162" lon="6.01473">
        <ele>205.2002</ele>
        <time>2026-05-16T15:10:28+02:00</time>
      </trkpt>
      <trkpt lat="47.66169" lon="6.01472">
        <ele>205.2002</ele>
        <time>2026-05-16T15:10:29+02:00</time>
      </trkpt>
      <trkpt lat="47.66176" lon="6.01471">
        <ele>205.2002</ele>
        <time>2026-05-16T15:10:30+02:00</time>
      </trkpt>
      <trkpt lat="47.66182" lon="6.01471">
        <ele>205.2002</ele>
        <time>2026-05-16T15:10:31+02:00</time>
      </trkpt>
      <trkpt lat="47.66189" lon="6.0147">
        <ele>205.2002</ele>
        <time>2026-05-16T15:10:32+02:00</time>
      </trkpt>
      <trkpt lat="47.66196" lon="6.0147">
        <ele>205.2002</ele>
        <time>2026-05-16T15:10:33+02:00</time>
      </trkpt>
      <trkpt lat="47.66203" lon="6.01471">
        <ele>205.2002</ele>
        <time>2026-05-16T15:10:34+02:00</time>
      </trkpt>
      <trkpt lat="47.6621" lon="6.01473">
        <ele>205.2002</ele>
        <time>2026-05-16T15:10:35+02:00</time>
      </trkpt>
      <trkpt lat="47.66216" lon="6.01474">
        <ele>205.2002</ele>
        <time>2026-05-16T15:10:36+02:00</time>
      </trkpt>
      <trkpt lat="47.66223" lon="6.01476">
        <ele>205.2002</ele>
        <time>2026-05-16T15:10:37+02:00</time>
      </trkpt>
      <trkpt lat="47.6623" lon="6.01478">
        <ele>205.2002</ele>
        <time>2026-05-16T15:10:38+02:00</time>
      </trkpt>
      <trkpt lat="47.66237" lon="6.01479">
        <ele>205.2002</ele>
        <time>2026-05-16T15:10:39+02:00</time>
      </trkpt>
      <trkpt lat="47.66244" lon="6.01481">
        <ele>205.2002</ele>
        <time>2026-05-16T15:10:40+02:00</time>
      </trkpt>
      <trkpt lat="47.66251" lon="6.01483">
        <ele>205.2002</ele>
        <time>2026-05-16T15:10:41+02:00</time>
      </trkpt>
      <trkpt lat="47.66254" lon="6.01484">
        <ele>205.2002</ele>
        <time>2026-05-16T15:10:42+02:00</time>
      </trkpt>
      <trkpt lat="47.66264" lon="6.01486">
        <ele>205.2002</ele>
        <time>2026-05-16T15:10:43+02:00</time>
      </trkpt>
      <trkpt lat="47.66271" lon="6.01487">
        <ele>205.2002</ele>
        <time>2026-05-16T15:10:44+02:00</time>
      </trkpt>
      <trkpt lat="47.66278" lon="6.01489">
        <ele>205.2002</ele>
        <time>2026-05-16T15:10:45+02:00</time>
      </trkpt>
      <trkpt lat="47.66284" lon="6.01491">
        <ele>205.2002</ele>
        <time>2026-05-16T15:10:46+02:00</time>
      </trkpt>
      <trkpt lat="47.66291" lon="6.01493">
        <ele>205.2002</ele>
        <time>2026-05-16T15:10:47+02:00</time>
      </trkpt>
      <trkpt lat="47.66297" lon="6.01495">
        <ele>205.2002</ele>
        <time>2026-05-16T15:10:48+02:00</time>
      </trkpt>
      <trkpt lat="47.66304" lon="6.01498">
        <ele>205.10059</ele>
        <time>2026-05-16T15:10:49+02:00</time>
      </trkpt>
      <trkpt lat="47.6631" lon="6.01501">
        <ele>205.10059</ele>
        <time>2026-05-16T15:10:50+02:00</time>
      </trkpt>
      <trkpt lat="47.66317" lon="6.01504">
        <ele>205.2002</ele>
        <time>2026-05-16T15:10:51+02:00</time>
      </trkpt>
      <trkpt lat="47.66323" lon="6.01507">
        <ele>205.2002</ele>
        <time>2026-05-16T15:10:52+02:00</time>
      </trkpt>
      <trkpt lat="47.66326" lon="6.01509">
        <ele>205.2002</ele>
        <time>2026-05-16T15:10:53+02:00</time>
      </trkpt>
      <trkpt lat="47.66335" lon="6.01514">
        <ele>205.2002</ele>
        <time>2026-05-16T15:10:54+02:00</time>
      </trkpt>
      <trkpt lat="47.66342" lon="6.01517">
        <ele>205.2002</ele>
        <time>2026-05-16T15:10:55+02:00</time>
      </trkpt>
      <trkpt lat="47.66348" lon="6.0152">
        <ele>205.10059</ele>
        <time>2026-05-16T15:10:56+02:00</time>
      </trkpt>
      <trkpt lat="47.66354" lon="6.01524">
        <ele>205.10059</ele>
        <time>2026-05-16T15:10:57+02:00</time>
      </trkpt>
      <trkpt lat="47.6636" lon="6.01528">
        <ele>205.10059</ele>
        <time>2026-05-16T15:10:58+02:00</time>
      </trkpt>
      <trkpt lat="47.66367" lon="6.01531">
        <ele>205.10059</ele>
        <time>2026-05-16T15:10:59+02:00</time>
      </trkpt>
      <trkpt lat="47.66373" lon="6.01534">
        <ele>205.10059</ele>
        <time>2026-05-16T15:11:00+02:00</time>
      </trkpt>
      <trkpt lat="47.66379" lon="6.01538">
        <ele>205.2002</ele>
        <time>2026-05-16T15:11:01+02:00</time>
      </trkpt>
      <trkpt lat="47.66385" lon="6.01541">
        <ele>205.2002</ele>
        <time>2026-05-16T15:11:02+02:00</time>
      </trkpt>
      <trkpt lat="47.66392" lon="6.01545">
        <ele>205.2002</ele>
        <time>2026-05-16T15:11:03+02:00</time>
      </trkpt>
      <trkpt lat="47.66395" lon="6.01547">
        <ele>205.2002</ele>
        <time>2026-05-16T15:11:04+02:00</time>
      </trkpt>
      <trkpt lat="47.66404" lon="6.01553">
        <ele>205.2002</ele>
        <time>2026-05-16T15:11:05+02:00</time>
      </trkpt>
      <trkpt lat="47.6641" lon="6.01557">
        <ele>205.2002</ele>
        <time>2026-05-16T15:11:06+02:00</time>
      </trkpt>
      <trkpt lat="47.66417" lon="6.01561">
        <ele>205.2002</ele>
        <time>2026-05-16T15:11:07+02:00</time>
      </trkpt>
      <trkpt lat="47.66423" lon="6.01565">
        <ele>205.2002</ele>
        <time>2026-05-16T15:11:08+02:00</time>
      </trkpt>
      <trkpt lat="47.66429" lon="6.0157">
        <ele>205.2002</ele>
        <time>2026-05-16T15:11:09+02:00</time>
      </trkpt>
      <trkpt lat="47.66435" lon="6.01575">
        <ele>205.2002</ele>
        <time>2026-05-16T15:11:10+02:00</time>
      </trkpt>
      <trkpt lat="47.66441" lon="6.0158">
        <ele>205.2002</ele>
        <time>2026-05-16T15:11:11+02:00</time>
      </trkpt>
      <trkpt lat="47.66447" lon="6.01584">
        <ele>205.2002</ele>
        <time>2026-05-16T15:11:12+02:00</time>
      </trkpt>
      <trkpt lat="47.66453" lon="6.01589">
        <ele>205.2002</ele>
        <time>2026-05-16T15:11:13+02:00</time>
      </trkpt>
      <trkpt lat="47.66459" lon="6.01593">
        <ele>205.2002</ele>
        <time>2026-05-16T15:11:14+02:00</time>
      </trkpt>
      <trkpt lat="47.66465" lon="6.01598">
        <ele>205.2002</ele>
        <time>2026-05-16T15:11:15+02:00</time>
      </trkpt>
      <trkpt lat="47.66471" lon="6.01603">
        <ele>205.2002</ele>
        <time>2026-05-16T15:11:16+02:00</time>
      </trkpt>
      <trkpt lat="47.66477" lon="6.01608">
        <ele>205.2002</ele>
        <time>2026-05-16T15:11:17+02:00</time>
      </trkpt>
      <trkpt lat="47.66483" lon="6.01612">
        <ele>205.2002</ele>
        <time>2026-05-16T15:11:18+02:00</time>
      </trkpt>
      <trkpt lat="47.66488" lon="6.01617">
        <ele>205.2002</ele>
        <time>2026-05-16T15:11:19+02:00</time>
      </trkpt>
      <trkpt lat="47.66494" lon="6.01622">
        <ele>205.2002</ele>
        <time>2026-05-16T15:11:20+02:00</time>
      </trkpt>
      <trkpt lat="47.665" lon="6.01627">
        <ele>205.2002</ele>
        <time>2026-05-16T15:11:21+02:00</time>
      </trkpt>
      <trkpt lat="47.66506" lon="6.01633">
        <ele>205.2002</ele>
        <time>2026-05-16T15:11:22+02:00</time>
      </trkpt>
      <trkpt lat="47.66511" lon="6.01638">
        <ele>205.2002</ele>
        <time>2026-05-16T15:11:23+02:00</time>
      </trkpt>
      <trkpt lat="47.66517" lon="6.01643">
        <ele>205.2002</ele>
        <time>2026-05-16T15:11:24+02:00</time>
      </trkpt>
      <trkpt lat="47.66522" lon="6.01649">
        <ele>205.2002</ele>
        <time>2026-05-16T15:11:25+02:00</time>
      </trkpt>
      <trkpt lat="47.66528" lon="6.01655">
        <ele>205.2002</ele>
        <time>2026-05-16T15:11:26+02:00</time>
      </trkpt>
      <trkpt lat="47.66533" lon="6.0166">
        <ele>205.2002</ele>
        <time>2026-05-16T15:11:27+02:00</time>
      </trkpt>
      <trkpt lat="47.66539" lon="6.01666">
        <ele>205.2002</ele>
        <time>2026-05-16T15:11:28+02:00</time>
      </trkpt>
      <trkpt lat="47.66544" lon="6.01672">
        <ele>205.2002</ele>
        <time>2026-05-16T15:11:29+02:00</time>
      </trkpt>
      <trkpt lat="47.6655" lon="6.01677">
        <ele>205.2002</ele>
        <time>2026-05-16T15:11:30+02:00</time>
      </trkpt>
      <trkpt lat="47.66555" lon="6.01683">
        <ele>205.2002</ele>
        <time>2026-05-16T15:11:31+02:00</time>
      </trkpt>
      <trkpt lat="47.66558" lon="6.01686">
        <ele>205.2002</ele>
        <time>2026-05-16T15:11:32+02:00</time>
      </trkpt>
      <trkpt lat="47.66566" lon="6.01694">
        <ele>205.2002</ele>
        <time>2026-05-16T15:11:33+02:00</time>
      </trkpt>
      <trkpt lat="47.66571" lon="6.017">
        <ele>205.2002</ele>
        <time>2026-05-16T15:11:34+02:00</time>
      </trkpt>
      <trkpt lat="47.66576" lon="6.01705">
        <ele>205.2002</ele>
        <time>2026-05-16T15:11:35+02:00</time>
      </trkpt>
      <trkpt lat="47.66582" lon="6.01711">
        <ele>205.2002</ele>
        <time>2026-05-16T15:11:36+02:00</time>
      </trkpt>
      <trkpt lat="47.66587" lon="6.01716">
        <ele>205.2002</ele>
        <time>2026-05-16T15:11:37+02:00</time>
      </trkpt>
      <trkpt lat="47.66593" lon="6.01722">
        <ele>205.2002</ele>
        <time>2026-05-16T15:11:38+02:00</time>
      </trkpt>
      <trkpt lat="47.66598" lon="6.01727">
        <ele>205.2002</ele>
        <time>2026-05-16T15:11:39+02:00</time>
      </trkpt>
      <trkpt lat="47.66603" lon="6.01733">
        <ele>205.2002</ele>
        <time>2026-05-16T15:11:40+02:00</time>
      </trkpt>
      <trkpt lat="47.66608" lon="6.01739">
        <ele>205.2002</ele>
        <time>2026-05-16T15:11:41+02:00</time>
      </trkpt>
      <trkpt lat="47.66611" lon="6.01742">
        <ele>205.2002</ele>
        <time>2026-05-16T15:11:42+02:00</time>
      </trkpt>
      <trkpt lat="47.66618" lon="6.01752">
        <ele>205.2002</ele>
        <time>2026-05-16T15:11:43+02:00</time>
      </trkpt>
      <trkpt lat="47.66623" lon="6.01759">
        <ele>205.2002</ele>
        <time>2026-05-16T15:11:44+02:00</time>
      </trkpt>
      <trkpt lat="47.66625" lon="6.01762">
        <ele>205.2002</ele>
        <time>2026-05-16T15:11:45+02:00</time>
      </trkpt>
      <trkpt lat="47.66633" lon="6.01772">
        <ele>205.2002</ele>
        <time>2026-05-16T15:11:46+02:00</time>
      </trkpt>
      <trkpt lat="47.66637" lon="6.01779">
        <ele>205.2002</ele>
        <time>2026-05-16T15:11:47+02:00</time>
      </trkpt>
      <trkpt lat="47.66642" lon="6.01786">
        <ele>205.2002</ele>
        <time>2026-05-16T15:11:48+02:00</time>
      </trkpt>
      <trkpt lat="47.66644" lon="6.01789">
        <ele>205.2002</ele>
        <time>2026-05-16T15:11:49+02:00</time>
      </trkpt>
      <trkpt lat="47.66649" lon="6.01801">
        <ele>205.2002</ele>
        <time>2026-05-16T15:11:50+02:00</time>
      </trkpt>
      <trkpt lat="47.66652" lon="6.01809">
        <ele>205.2002</ele>
        <time>2026-05-16T15:11:51+02:00</time>
      </trkpt>
      <trkpt lat="47.66655" lon="6.01818">
        <ele>205.2002</ele>
        <time>2026-05-16T15:11:52+02:00</time>
      </trkpt>
      <trkpt lat="47.6666" lon="6.01826">
        <ele>205.2002</ele>
        <time>2026-05-16T15:11:53+02:00</time>
      </trkpt>
      <trkpt lat="47.66664" lon="6.01834">
        <ele>205.2002</ele>
        <time>2026-05-16T15:11:54+02:00</time>
      </trkpt>
      <trkpt lat="47.66668" lon="6.01841">
        <ele>205.2002</ele>
        <time>2026-05-16T15:11:55+02:00</time>
      </trkpt>
      <trkpt lat="47.66673" lon="6.01848">
        <ele>205.2002</ele>
        <time>2026-05-16T15:11:56+02:00</time>
      </trkpt>
      <trkpt lat="47.66678" lon="6.01856">
        <ele>205.2002</ele>
        <time>2026-05-16T15:11:57+02:00</time>
      </trkpt>
      <trkpt lat="47.66682" lon="6.01864">
        <ele>205.2002</ele>
        <time>2026-05-16T15:11:58+02:00</time>
      </trkpt>
      <trkpt lat="47.66687" lon="6.01871">
        <ele>205.2002</ele>
        <time>2026-05-16T15:11:59+02:00</time>
      </trkpt>
      <trkpt lat="47.66691" lon="6.01879">
        <ele>205.2002</ele>
        <time>2026-05-16T15:12:00+02:00</time>
      </trkpt>
      <trkpt lat="47.66696" lon="6.01887">
        <ele>205.2002</ele>
        <time>2026-05-16T15:12:01+02:00</time>
      </trkpt>
      <trkpt lat="47.667" lon="6.01895">
        <ele>205.2002</ele>
        <time>2026-05-16T15:12:02+02:00</time>
      </trkpt>
      <trkpt lat="47.66704" lon="6.01903">
        <ele>205.2002</ele>
        <time>2026-05-16T15:12:03+02:00</time>
      </trkpt>
      <trkpt lat="47.66709" lon="6.01911">
        <ele>205.2002</ele>
        <time>2026-05-16T15:12:04+02:00</time>
      </trkpt>
      <trkpt lat="47.66713" lon="6.0192">
        <ele>205.2002</ele>
        <time>2026-05-16T15:12:05+02:00</time>
      </trkpt>
      <trkpt lat="47.66717" lon="6.01928">
        <ele>205.2002</ele>
        <time>2026-05-16T15:12:06+02:00</time>
      </trkpt>
      <trkpt lat="47.6672" lon="6.01937">
        <ele>205.2002</ele>
        <time>2026-05-16T15:12:07+02:00</time>
      </trkpt>
      <trkpt lat="47.66724" lon="6.01946">
        <ele>205.2002</ele>
        <time>2026-05-16T15:12:08+02:00</time>
      </trkpt>
      <trkpt lat="47.66727" lon="6.01956">
        <ele>205.2002</ele>
        <time>2026-05-16T15:12:09+02:00</time>
      </trkpt>
      <trkpt lat="47.66729" lon="6.01965">
        <ele>205.2002</ele>
        <time>2026-05-16T15:12:10+02:00</time>
      </trkpt>
      <trkpt lat="47.66732" lon="6.01975">
        <ele>205.2002</ele>
        <time>2026-05-16T15:12:11+02:00</time>
      </trkpt>
      <trkpt lat="47.66735" lon="6.01984">
        <ele>205.2002</ele>
        <time>2026-05-16T15:12:12+02:00</time>
      </trkpt>
      <trkpt lat="47.66737" lon="6.01994">
        <ele>205.2002</ele>
        <time>2026-05-16T15:12:13+02:00</time>
      </trkpt>
      <trkpt lat="47.6674" lon="6.02003">
        <ele>205.2002</ele>
        <time>2026-05-16T15:12:14+02:00</time>
      </trkpt>
      <trkpt lat="47.66743" lon="6.02013">
        <ele>205.2002</ele>
        <time>2026-05-16T15:12:15+02:00</time>
      </trkpt>
      <trkpt lat="47.66745" lon="6.02023">
        <ele>205.2002</ele>
        <time>2026-05-16T15:12:16+02:00</time>
      </trkpt>
      <trkpt lat="47.66748" lon="6.02033">
        <ele>205.2998</ele>
        <time>2026-05-16T15:12:17+02:00</time>
      </trkpt>
      <trkpt lat="47.6675" lon="6.02042">
        <ele>205.2002</ele>
        <time>2026-05-16T15:12:18+02:00</time>
      </trkpt>
      <trkpt lat="47.66753" lon="6.02052">
        <ele>205.2002</ele>
        <time>2026-05-16T15:12:19+02:00</time>
      </trkpt>
      <trkpt lat="47.66755" lon="6.02061">
        <ele>205.2002</ele>
        <time>2026-05-16T15:12:20+02:00</time>
      </trkpt>
      <trkpt lat="47.66757" lon="6.0207">
        <ele>205.2002</ele>
        <time>2026-05-16T15:12:21+02:00</time>
      </trkpt>
      <trkpt lat="47.66759" lon="6.02079">
        <ele>205.2002</ele>
        <time>2026-05-16T15:12:22+02:00</time>
      </trkpt>
      <trkpt lat="47.66762" lon="6.02088">
        <ele>205.2002</ele>
        <time>2026-05-16T15:12:23+02:00</time>
      </trkpt>
      <trkpt lat="47.66763" lon="6.02097">
        <ele>205.2002</ele>
        <time>2026-05-16T15:12:24+02:00</time>
      </trkpt>
      <trkpt lat="47.66766" lon="6.02106">
        <ele>205.2002</ele>
        <time>2026-05-16T15:12:25+02:00</time>
      </trkpt>
      <trkpt lat="47.66767" lon="6.02111">
        <ele>205.2002</ele>
        <time>2026-05-16T15:12:26+02:00</time>
      </trkpt>
      <trkpt lat="47.6677" lon="6.02124">
        <ele>205.2998</ele>
        <time>2026-05-16T15:12:27+02:00</time>
      </trkpt>
      <trkpt lat="47.66773" lon="6.02133">
        <ele>205.2998</ele>
        <time>2026-05-16T15:12:28+02:00</time>
      </trkpt>
      <trkpt lat="47.66774" lon="6.02143">
        <ele>205.2998</ele>
        <time>2026-05-16T15:12:29+02:00</time>
      </trkpt>
      <trkpt lat="47.66777" lon="6.02152">
        <ele>205.2002</ele>
        <time>2026-05-16T15:12:30+02:00</time>
      </trkpt>
      <trkpt lat="47.66779" lon="6.02161">
        <ele>205.2002</ele>
        <time>2026-05-16T15:12:31+02:00</time>
      </trkpt>
      <trkpt lat="47.66781" lon="6.0217">
        <ele>205.2002</ele>
        <time>2026-05-16T15:12:32+02:00</time>
      </trkpt>
      <trkpt lat="47.66784" lon="6.0218">
        <ele>205.2002</ele>
        <time>2026-05-16T15:12:33+02:00</time>
      </trkpt>
      <trkpt lat="47.66786" lon="6.02189">
        <ele>205.2002</ele>
        <time>2026-05-16T15:12:34+02:00</time>
      </trkpt>
      <trkpt lat="47.66788" lon="6.02199">
        <ele>205.2002</ele>
        <time>2026-05-16T15:12:35+02:00</time>
      </trkpt>
      <trkpt lat="47.66791" lon="6.02208">
        <ele>205.2002</ele>
        <time>2026-05-16T15:12:36+02:00</time>
      </trkpt>
      <trkpt lat="47.66793" lon="6.02218">
        <ele>205.2002</ele>
        <time>2026-05-16T15:12:37+02:00</time>
      </trkpt>
      <trkpt lat="47.66795" lon="6.02227">
        <ele>205.2998</ele>
        <time>2026-05-16T15:12:38+02:00</time>
      </trkpt>
      <trkpt lat="47.66798" lon="6.02236">
        <ele>205.2998</ele>
        <time>2026-05-16T15:12:39+02:00</time>
      </trkpt>
      <trkpt lat="47.668" lon="6.02245">
        <ele>205.2002</ele>
        <time>2026-05-16T15:12:40+02:00</time>
      </trkpt>
      <trkpt lat="47.66803" lon="6.02255">
        <ele>205.2002</ele>
        <time>2026-05-16T15:12:41+02:00</time>
      </trkpt>
      <trkpt lat="47.66805" lon="6.02263">
        <ele>205.2002</ele>
        <time>2026-05-16T15:12:42+02:00</time>
      </trkpt>
      <trkpt lat="47.66808" lon="6.02272">
        <ele>205.2002</ele>
        <time>2026-05-16T15:12:43+02:00</time>
      </trkpt>
      <trkpt lat="47.66812" lon="6.0228">
        <ele>205.2002</ele>
        <time>2026-05-16T15:12:44+02:00</time>
      </trkpt>
      <trkpt lat="47.66815" lon="6.02289">
        <ele>205.2002</ele>
        <time>2026-05-16T15:12:45+02:00</time>
      </trkpt>
      <trkpt lat="47.66818" lon="6.02297">
        <ele>205.2002</ele>
        <time>2026-05-16T15:12:46+02:00</time>
      </trkpt>
      <trkpt lat="47.66821" lon="6.02306">
        <ele>205.2002</ele>
        <time>2026-05-16T15:12:47+02:00</time>
      </trkpt>
      <trkpt lat="47.66824" lon="6.02314">
        <ele>205.2998</ele>
        <time>2026-05-16T15:12:48+02:00</time>
      </trkpt>
      <trkpt lat="47.66828" lon="6.02323">
        <ele>205.2002</ele>
        <time>2026-05-16T15:12:49+02:00</time>
      </trkpt>
      <trkpt lat="47.66831" lon="6.02331">
        <ele>205.2002</ele>
        <time>2026-05-16T15:12:50+02:00</time>
      </trkpt>
      <trkpt lat="47.66835" lon="6.0234">
        <ele>205.2002</ele>
        <time>2026-05-16T15:12:51+02:00</time>
      </trkpt>
      <trkpt lat="47.66837" lon="6.02344">
        <ele>205.2002</ele>
        <time>2026-05-16T15:12:52+02:00</time>
      </trkpt>
      <trkpt lat="47.66842" lon="6.02356">
        <ele>205.2998</ele>
        <time>2026-05-16T15:12:53+02:00</time>
      </trkpt>
      <trkpt lat="47.66846" lon="6.02364">
        <ele>205.2998</ele>
        <time>2026-05-16T15:12:54+02:00</time>
      </trkpt>
      <trkpt lat="47.6685" lon="6.02372">
        <ele>205.2998</ele>
        <time>2026-05-16T15:12:55+02:00</time>
      </trkpt>
      <trkpt lat="47.66854" lon="6.0238">
        <ele>205.2002</ele>
        <time>2026-05-16T15:12:56+02:00</time>
      </trkpt>
      <trkpt lat="47.66858" lon="6.02388">
        <ele>205.2002</ele>
        <time>2026-05-16T15:12:57+02:00</time>
      </trkpt>
      <trkpt lat="47.66861" lon="6.02396">
        <ele>205.2002</ele>
        <time>2026-05-16T15:12:58+02:00</time>
      </trkpt>
      <trkpt lat="47.66865" lon="6.02404">
        <ele>205.2998</ele>
        <time>2026-05-16T15:12:59+02:00</time>
      </trkpt>
      <trkpt lat="47.66869" lon="6.02412">
        <ele>205.2998</ele>
        <time>2026-05-16T15:13:00+02:00</time>
      </trkpt>
      <trkpt lat="47.66873" lon="6.0242">
        <ele>205.40039</ele>
        <time>2026-05-16T15:13:01+02:00</time>
      </trkpt>
      <trkpt lat="47.66877" lon="6.02428">
        <ele>205.2002</ele>
        <time>2026-05-16T15:13:02+02:00</time>
      </trkpt>
      <trkpt lat="47.66882" lon="6.02436">
        <ele>205.2002</ele>
        <time>2026-05-16T15:13:03+02:00</time>
      </trkpt>
      <trkpt lat="47.66886" lon="6.02443">
        <ele>205.2998</ele>
        <time>2026-05-16T15:13:04+02:00</time>
      </trkpt>
      <trkpt lat="47.6689" lon="6.02451">
        <ele>205.2998</ele>
        <time>2026-05-16T15:13:05+02:00</time>
      </trkpt>
      <trkpt lat="47.66894" lon="6.02459">
        <ele>205.2998</ele>
        <time>2026-05-16T15:13:06+02:00</time>
      </trkpt>
      <trkpt lat="47.66899" lon="6.02467">
        <ele>205.2002</ele>
        <time>2026-05-16T15:13:07+02:00</time>
      </trkpt>
      <trkpt lat="47.66903" lon="6.02474">
        <ele>205.2002</ele>
        <time>2026-05-16T15:13:08+02:00</time>
      </trkpt>
      <trkpt lat="47.66906" lon="6.02478">
        <ele>205.2002</ele>
        <time>2026-05-16T15:13:09+02:00</time>
      </trkpt>
      <trkpt lat="47.66913" lon="6.02489">
        <ele>205.2002</ele>
        <time>2026-05-16T15:13:10+02:00</time>
      </trkpt>
      <trkpt lat="47.66917" lon="6.02497">
        <ele>205.2002</ele>
        <time>2026-05-16T15:13:11+02:00</time>
      </trkpt>
      <trkpt lat="47.66922" lon="6.02505">
        <ele>205.2998</ele>
        <time>2026-05-16T15:13:12+02:00</time>
      </trkpt>
      <trkpt lat="47.66926" lon="6.02512">
        <ele>205.2998</ele>
        <time>2026-05-16T15:13:13+02:00</time>
      </trkpt>
      <trkpt lat="47.66931" lon="6.0252">
        <ele>205.2002</ele>
        <time>2026-05-16T15:13:14+02:00</time>
      </trkpt>
      <trkpt lat="47.66935" lon="6.02528">
        <ele>205.2002</ele>
        <time>2026-05-16T15:13:15+02:00</time>
      </trkpt>
      <trkpt lat="47.6694" lon="6.02536">
        <ele>205.2998</ele>
        <time>2026-05-16T15:13:16+02:00</time>
      </trkpt>
      <trkpt lat="47.66945" lon="6.02543">
        <ele>205.2998</ele>
        <time>2026-05-16T15:13:17+02:00</time>
      </trkpt>
      <trkpt lat="47.66949" lon="6.02551">
        <ele>205.2998</ele>
        <time>2026-05-16T15:13:18+02:00</time>
      </trkpt>
      <trkpt lat="47.66954" lon="6.02559">
        <ele>205.2002</ele>
        <time>2026-05-16T15:13:19+02:00</time>
      </trkpt>
      <trkpt lat="47.66959" lon="6.02566">
        <ele>205.2998</ele>
        <time>2026-05-16T15:13:20+02:00</time>
      </trkpt>
      <trkpt lat="47.66963" lon="6.02574">
        <ele>205.2998</ele>
        <time>2026-05-16T15:13:21+02:00</time>
      </trkpt>
      <trkpt lat="47.66968" lon="6.02582">
        <ele>205.2998</ele>
        <time>2026-05-16T15:13:22+02:00</time>
      </trkpt>
      <trkpt lat="47.66972" lon="6.0259">
        <ele>205.2998</ele>
        <time>2026-05-16T15:13:23+02:00</time>
      </trkpt>
      <trkpt lat="47.66977" lon="6.02597">
        <ele>205.2002</ele>
        <time>2026-05-16T15:13:24+02:00</time>
      </trkpt>
      <trkpt lat="47.66981" lon="6.02605">
        <ele>205.40039</ele>
        <time>2026-05-16T15:13:25+02:00</time>
      </trkpt>
      <trkpt lat="47.66983" lon="6.02609">
        <ele>205.5</ele>
        <time>2026-05-16T15:13:26+02:00</time>
      </trkpt>
      <trkpt lat="47.6699" lon="6.0262">
        <ele>205.2998</ele>
        <time>2026-05-16T15:13:27+02:00</time>
      </trkpt>
      <trkpt lat="47.66994" lon="6.02628">
        <ele>205.40039</ele>
        <time>2026-05-16T15:13:28+02:00</time>
      </trkpt>
      <trkpt lat="47.66998" lon="6.02636">
        <ele>205.2002</ele>
        <time>2026-05-16T15:13:29+02:00</time>
      </trkpt>
      <trkpt lat="47.67003" lon="6.02643">
        <ele>205.2002</ele>
        <time>2026-05-16T15:13:30+02:00</time>
      </trkpt>
      <trkpt lat="47.67008" lon="6.02651">
        <ele>205.2998</ele>
        <time>2026-05-16T15:13:31+02:00</time>
      </trkpt>
      <trkpt lat="47.67012" lon="6.02658">
        <ele>205.2002</ele>
        <time>2026-05-16T15:13:32+02:00</time>
      </trkpt>
      <trkpt lat="47.67017" lon="6.02666">
        <ele>205.2998</ele>
        <time>2026-05-16T15:13:33+02:00</time>
      </trkpt>
      <trkpt lat="47.67019" lon="6.02669">
        <ele>205.2002</ele>
        <time>2026-05-16T15:13:34+02:00</time>
      </trkpt>
      <trkpt lat="47.67027" lon="6.02679">
        <ele>205.2002</ele>
        <time>2026-05-16T15:13:35+02:00</time>
      </trkpt>
      <trkpt lat="47.67032" lon="6.02686">
        <ele>205.2002</ele>
        <time>2026-05-16T15:13:36+02:00</time>
      </trkpt>
      <trkpt lat="47.67037" lon="6.02692">
        <ele>205.2002</ele>
        <time>2026-05-16T15:13:37+02:00</time>
      </trkpt>
      <trkpt lat="47.67043" lon="6.02699">
        <ele>205.2002</ele>
        <time>2026-05-16T15:13:38+02:00</time>
      </trkpt>
      <trkpt lat="47.67048" lon="6.02705">
        <ele>205.2002</ele>
        <time>2026-05-16T15:13:39+02:00</time>
      </trkpt>
      <trkpt lat="47.67054" lon="6.02711">
        <ele>205.10059</ele>
        <time>2026-05-16T15:13:40+02:00</time>
      </trkpt>
      <trkpt lat="47.67059" lon="6.02718">
        <ele>205.2002</ele>
        <time>2026-05-16T15:13:41+02:00</time>
      </trkpt>
      <trkpt lat="47.67065" lon="6.02724">
        <ele>205.2002</ele>
        <time>2026-05-16T15:13:42+02:00</time>
      </trkpt>
      <trkpt lat="47.67071" lon="6.0273">
        <ele>205.2002</ele>
        <time>2026-05-16T15:13:43+02:00</time>
      </trkpt>
      <trkpt lat="47.67076" lon="6.02736">
        <ele>205.2002</ele>
        <time>2026-05-16T15:13:44+02:00</time>
      </trkpt>
      <trkpt lat="47.67082" lon="6.02743">
        <ele>205.2002</ele>
        <time>2026-05-16T15:13:45+02:00</time>
      </trkpt>
      <trkpt lat="47.67087" lon="6.02749">
        <ele>205.2002</ele>
        <time>2026-05-16T15:13:46+02:00</time>
      </trkpt>
      <trkpt lat="47.67092" lon="6.02757">
        <ele>205.2002</ele>
        <time>2026-05-16T15:13:47+02:00</time>
      </trkpt>
      <trkpt lat="47.67097" lon="6.02763">
        <ele>205.2002</ele>
        <time>2026-05-16T15:13:48+02:00</time>
      </trkpt>
      <trkpt lat="47.671" lon="6.02767">
        <ele>205.10059</ele>
        <time>2026-05-16T15:13:49+02:00</time>
      </trkpt>
      <trkpt lat="47.67108" lon="6.02777">
        <ele>205.2002</ele>
        <time>2026-05-16T15:13:50+02:00</time>
      </trkpt>
      <trkpt lat="47.67113" lon="6.02783">
        <ele>205.2002</ele>
        <time>2026-05-16T15:13:51+02:00</time>
      </trkpt>
      <trkpt lat="47.67118" lon="6.0279">
        <ele>205.10059</ele>
        <time>2026-05-16T15:13:52+02:00</time>
      </trkpt>
      <trkpt lat="47.67124" lon="6.02797">
        <ele>205</ele>
        <time>2026-05-16T15:13:53+02:00</time>
      </trkpt>
      <trkpt lat="47.67129" lon="6.02804">
        <ele>205.10059</ele>
        <time>2026-05-16T15:13:54+02:00</time>
      </trkpt>
      <trkpt lat="47.67133" lon="6.02811">
        <ele>205.10059</ele>
        <time>2026-05-16T15:13:55+02:00</time>
      </trkpt>
      <trkpt lat="47.67138" lon="6.02818">
        <ele>205.2002</ele>
        <time>2026-05-16T15:13:56+02:00</time>
      </trkpt>
      <trkpt lat="47.67143" lon="6.02826">
        <ele>205.10059</ele>
        <time>2026-05-16T15:13:57+02:00</time>
      </trkpt>
      <trkpt lat="47.67148" lon="6.02834">
        <ele>205.10059</ele>
        <time>2026-05-16T15:13:58+02:00</time>
      </trkpt>
      <trkpt lat="47.67153" lon="6.02841">
        <ele>205.2002</ele>
        <time>2026-05-16T15:13:59+02:00</time>
      </trkpt>
      <trkpt lat="47.67157" lon="6.0285">
        <ele>205.2998</ele>
        <time>2026-05-16T15:14:00+02:00</time>
      </trkpt>
      <trkpt lat="47.67161" lon="6.02858">
        <ele>205.2998</ele>
        <time>2026-05-16T15:14:01+02:00</time>
      </trkpt>
      <trkpt lat="47.67166" lon="6.02867">
        <ele>205.10059</ele>
        <time>2026-05-16T15:14:02+02:00</time>
      </trkpt>
      <trkpt lat="47.67169" lon="6.02876">
        <ele>205</ele>
        <time>2026-05-16T15:14:03+02:00</time>
      </trkpt>
      <trkpt lat="47.67173" lon="6.02885">
        <ele>205</ele>
        <time>2026-05-16T15:14:04+02:00</time>
      </trkpt>
      <trkpt lat="47.67176" lon="6.02894">
        <ele>205</ele>
        <time>2026-05-16T15:14:05+02:00</time>
      </trkpt>
      <trkpt lat="47.67179" lon="6.02903">
        <ele>205</ele>
        <time>2026-05-16T15:14:06+02:00</time>
      </trkpt>
      <trkpt lat="47.67183" lon="6.02912">
        <ele>205.2002</ele>
        <time>2026-05-16T15:14:07+02:00</time>
      </trkpt>
      <trkpt lat="47.67186" lon="6.02921">
        <ele>205.2002</ele>
        <time>2026-05-16T15:14:08+02:00</time>
      </trkpt>
      <trkpt lat="47.67189" lon="6.0293">
        <ele>205.2998</ele>
        <time>2026-05-16T15:14:09+02:00</time>
      </trkpt>
      <trkpt lat="47.67192" lon="6.02939">
        <ele>205.10059</ele>
        <time>2026-05-16T15:14:10+02:00</time>
      </trkpt>
      <trkpt lat="47.67195" lon="6.02948">
        <ele>205.10059</ele>
        <time>2026-05-16T15:14:11+02:00</time>
      </trkpt>
      <trkpt lat="47.67198" lon="6.02958">
        <ele>205</ele>
        <time>2026-05-16T15:14:12+02:00</time>
      </trkpt>
      <trkpt lat="47.67201" lon="6.02967">
        <ele>205</ele>
        <time>2026-05-16T15:14:13+02:00</time>
      </trkpt>
      <trkpt lat="47.67203" lon="6.02977">
        <ele>205.10059</ele>
        <time>2026-05-16T15:14:14+02:00</time>
      </trkpt>
      <trkpt lat="47.67206" lon="6.02986">
        <ele>205.2002</ele>
        <time>2026-05-16T15:14:15+02:00</time>
      </trkpt>
      <trkpt lat="47.67207" lon="6.02996">
        <ele>205.2002</ele>
        <time>2026-05-16T15:14:16+02:00</time>
      </trkpt>
      <trkpt lat="47.67209" lon="6.03006">
        <ele>205.2002</ele>
        <time>2026-05-16T15:14:17+02:00</time>
      </trkpt>
      <trkpt lat="47.67211" lon="6.03016">
        <ele>205.2002</ele>
        <time>2026-05-16T15:14:18+02:00</time>
      </trkpt>
      <trkpt lat="47.67212" lon="6.03026">
        <ele>205.2002</ele>
        <time>2026-05-16T15:14:19+02:00</time>
      </trkpt>
      <trkpt lat="47.67214" lon="6.03036">
        <ele>205.2002</ele>
        <time>2026-05-16T15:14:20+02:00</time>
      </trkpt>
      <trkpt lat="47.67214" lon="6.03047">
        <ele>205.2002</ele>
        <time>2026-05-16T15:14:21+02:00</time>
      </trkpt>
      <trkpt lat="47.67215" lon="6.03057">
        <ele>205.2002</ele>
        <time>2026-05-16T15:14:22+02:00</time>
      </trkpt>
      <trkpt lat="47.67216" lon="6.03067">
        <ele>205.2002</ele>
        <time>2026-05-16T15:14:23+02:00</time>
      </trkpt>
      <trkpt lat="47.67217" lon="6.03076">
        <ele>205.2002</ele>
        <time>2026-05-16T15:14:24+02:00</time>
      </trkpt>
      <trkpt lat="47.67219" lon="6.03086">
        <ele>205.2002</ele>
        <time>2026-05-16T15:14:25+02:00</time>
      </trkpt>
      <trkpt lat="47.67219" lon="6.03096">
        <ele>205.2002</ele>
        <time>2026-05-16T15:14:26+02:00</time>
      </trkpt>
      <trkpt lat="47.67221" lon="6.03106">
        <ele>205.2002</ele>
        <time>2026-05-16T15:14:27+02:00</time>
      </trkpt>
      <trkpt lat="47.67222" lon="6.03116">
        <ele>205.10059</ele>
        <time>2026-05-16T15:14:28+02:00</time>
      </trkpt>
      <trkpt lat="47.67223" lon="6.03126">
        <ele>205.10059</ele>
        <time>2026-05-16T15:14:29+02:00</time>
      </trkpt>
      <trkpt lat="47.67224" lon="6.03136">
        <ele>205.10059</ele>
        <time>2026-05-16T15:14:30+02:00</time>
      </trkpt>
      <trkpt lat="47.67225" lon="6.03145">
        <ele>205.10059</ele>
        <time>2026-05-16T15:14:31+02:00</time>
      </trkpt>
      <trkpt lat="47.67226" lon="6.03155">
        <ele>205.10059</ele>
        <time>2026-05-16T15:14:32+02:00</time>
      </trkpt>
      <trkpt lat="47.67227" lon="6.03165">
        <ele>205.10059</ele>
        <time>2026-05-16T15:14:33+02:00</time>
      </trkpt>
      <trkpt lat="47.67228" lon="6.03175">
        <ele>205.10059</ele>
        <time>2026-05-16T15:14:34+02:00</time>
      </trkpt>
      <trkpt lat="47.67229" lon="6.03185">
        <ele>205.10059</ele>
        <time>2026-05-16T15:14:35+02:00</time>
      </trkpt>
      <trkpt lat="47.6723" lon="6.03195">
        <ele>205.10059</ele>
        <time>2026-05-16T15:14:36+02:00</time>
      </trkpt>
      <trkpt lat="47.67232" lon="6.03205">
        <ele>205.10059</ele>
        <time>2026-05-16T15:14:37+02:00</time>
      </trkpt>
      <trkpt lat="47.67233" lon="6.03215">
        <ele>205.2002</ele>
        <time>2026-05-16T15:14:38+02:00</time>
      </trkpt>
      <trkpt lat="47.67234" lon="6.03224">
        <ele>205.2002</ele>
        <time>2026-05-16T15:14:39+02:00</time>
      </trkpt>
      <trkpt lat="47.67235" lon="6.03234">
        <ele>205.2002</ele>
        <time>2026-05-16T15:14:40+02:00</time>
      </trkpt>
      <trkpt lat="47.67237" lon="6.03244">
        <ele>205.2002</ele>
        <time>2026-05-16T15:14:41+02:00</time>
      </trkpt>
      <trkpt lat="47.67239" lon="6.03254">
        <ele>205.2002</ele>
        <time>2026-05-16T15:14:42+02:00</time>
      </trkpt>
      <trkpt lat="47.67241" lon="6.03264">
        <ele>205.2002</ele>
        <time>2026-05-16T15:14:43+02:00</time>
      </trkpt>
      <trkpt lat="47.67243" lon="6.03273">
        <ele>205.2002</ele>
        <time>2026-05-16T15:14:44+02:00</time>
      </trkpt>
      <trkpt lat="47.67246" lon="6.03282">
        <ele>205.2002</ele>
        <time>2026-05-16T15:14:45+02:00</time>
      </trkpt>
      <trkpt lat="47.67248" lon="6.03292">
        <ele>205.2002</ele>
        <time>2026-05-16T15:14:46+02:00</time>
      </trkpt>
      <trkpt lat="47.67251" lon="6.03301">
        <ele>205.10059</ele>
        <time>2026-05-16T15:14:47+02:00</time>
      </trkpt>
      <trkpt lat="47.67254" lon="6.03311">
        <ele>205.10059</ele>
        <time>2026-05-16T15:14:48+02:00</time>
      </trkpt>
      <trkpt lat="47.67256" lon="6.03315">
        <ele>205</ele>
        <time>2026-05-16T15:14:49+02:00</time>
      </trkpt>
      <trkpt lat="47.6726" lon="6.03329">
        <ele>205</ele>
        <time>2026-05-16T15:14:50+02:00</time>
      </trkpt>
      <trkpt lat="47.67263" lon="6.03338">
        <ele>205.10059</ele>
        <time>2026-05-16T15:14:51+02:00</time>
      </trkpt>
      <trkpt lat="47.67266" lon="6.03347">
        <ele>205.10059</ele>
        <time>2026-05-16T15:14:52+02:00</time>
      </trkpt>
      <trkpt lat="47.67269" lon="6.03357">
        <ele>205.2998</ele>
        <time>2026-05-16T15:14:53+02:00</time>
      </trkpt>
      <trkpt lat="47.67271" lon="6.03366">
        <ele>205.2002</ele>
        <time>2026-05-16T15:14:54+02:00</time>
      </trkpt>
      <trkpt lat="47.67274" lon="6.03376">
        <ele>205.5</ele>
        <time>2026-05-16T15:14:55+02:00</time>
      </trkpt>
      <trkpt lat="47.67276" lon="6.03386">
        <ele>205.40039</ele>
        <time>2026-05-16T15:14:56+02:00</time>
      </trkpt>
      <trkpt lat="47.67278" lon="6.03396">
        <ele>205.2998</ele>
        <time>2026-05-16T15:14:57+02:00</time>
      </trkpt>
      <trkpt lat="47.67281" lon="6.03405">
        <ele>205.10059</ele>
        <time>2026-05-16T15:14:58+02:00</time>
      </trkpt>
      <trkpt lat="47.67283" lon="6.03415">
        <ele>205.10059</ele>
        <time>2026-05-16T15:14:59+02:00</time>
      </trkpt>
      <trkpt lat="47.67286" lon="6.03425">
        <ele>205</ele>
        <time>2026-05-16T15:15:00+02:00</time>
      </trkpt>
      <trkpt lat="47.67288" lon="6.03435">
        <ele>205</ele>
        <time>2026-05-16T15:15:01+02:00</time>
      </trkpt>
      <trkpt lat="47.67291" lon="6.03445">
        <ele>205.2002</ele>
        <time>2026-05-16T15:15:02+02:00</time>
      </trkpt>
      <trkpt lat="47.67293" lon="6.03455">
        <ele>205.2002</ele>
        <time>2026-05-16T15:15:03+02:00</time>
      </trkpt>
      <trkpt lat="47.67295" lon="6.03465">
        <ele>205.10059</ele>
        <time>2026-05-16T15:15:04+02:00</time>
      </trkpt>
      <trkpt lat="47.67297" lon="6.03474">
        <ele>205.40039</ele>
        <time>2026-05-16T15:15:05+02:00</time>
      </trkpt>
      <trkpt lat="47.67299" lon="6.03484">
        <ele>205.2998</ele>
        <time>2026-05-16T15:15:06+02:00</time>
      </trkpt>
      <trkpt lat="47.67301" lon="6.03493">
        <ele>205.2002</ele>
        <time>2026-05-16T15:15:07+02:00</time>
      </trkpt>
      <trkpt lat="47.67303" lon="6.03502">
        <ele>205.2002</ele>
        <time>2026-05-16T15:15:08+02:00</time>
      </trkpt>
      <trkpt lat="47.67306" lon="6.03511">
        <ele>205.10059</ele>
        <time>2026-05-16T15:15:09+02:00</time>
      </trkpt>
      <trkpt lat="47.67307" lon="6.0352">
        <ele>205.10059</ele>
        <time>2026-05-16T15:15:10+02:00</time>
      </trkpt>
      <trkpt lat="47.67309" lon="6.03529">
        <ele>205.10059</ele>
        <time>2026-05-16T15:15:11+02:00</time>
      </trkpt>
      <trkpt lat="47.67311" lon="6.03536">
        <ele>205.10059</ele>
        <time>2026-05-16T15:15:12+02:00</time>
      </trkpt>
      <trkpt lat="47.67312" lon="6.03545">
        <ele>205.10059</ele>
        <time>2026-05-16T15:15:13+02:00</time>
      </trkpt>
      <trkpt lat="47.67314" lon="6.03554">
        <ele>205.10059</ele>
        <time>2026-05-16T15:15:14+02:00</time>
      </trkpt>
      <trkpt lat="47.67317" lon="6.03563">
        <ele>205.10059</ele>
        <time>2026-05-16T15:15:15+02:00</time>
      </trkpt>
      <trkpt lat="47.67318" lon="6.03572">
        <ele>205.10059</ele>
        <time>2026-05-16T15:15:16+02:00</time>
      </trkpt>
      <trkpt lat="47.67321" lon="6.03582">
        <ele>205.2002</ele>
        <time>2026-05-16T15:15:17+02:00</time>
      </trkpt>
      <trkpt lat="47.67323" lon="6.03591">
        <ele>205.2998</ele>
        <time>2026-05-16T15:15:18+02:00</time>
      </trkpt>
      <trkpt lat="47.67325" lon="6.03601">
        <ele>205.10059</ele>
        <time>2026-05-16T15:15:19+02:00</time>
      </trkpt>
      <trkpt lat="47.67327" lon="6.0361">
        <ele>205.10059</ele>
        <time>2026-05-16T15:15:20+02:00</time>
      </trkpt>
      <trkpt lat="47.6733" lon="6.03619">
        <ele>205.10059</ele>
        <time>2026-05-16T15:15:21+02:00</time>
      </trkpt>
      <trkpt lat="47.67332" lon="6.03629">
        <ele>205.10059</ele>
        <time>2026-05-16T15:15:22+02:00</time>
      </trkpt>
      <trkpt lat="47.67334" lon="6.03638">
        <ele>205.10059</ele>
        <time>2026-05-16T15:15:23+02:00</time>
      </trkpt>
      <trkpt lat="47.67337" lon="6.03648">
        <ele>205.2002</ele>
        <time>2026-05-16T15:15:24+02:00</time>
      </trkpt>
      <trkpt lat="47.6734" lon="6.03657">
        <ele>205.2002</ele>
        <time>2026-05-16T15:15:25+02:00</time>
      </trkpt>
      <trkpt lat="47.67343" lon="6.03666">
        <ele>205.2002</ele>
        <time>2026-05-16T15:15:26+02:00</time>
      </trkpt>
      <trkpt lat="47.67346" lon="6.03676">
        <ele>205.2998</ele>
        <time>2026-05-16T15:15:27+02:00</time>
      </trkpt>
      <trkpt lat="47.67349" lon="6.03685">
        <ele>205.2002</ele>
        <time>2026-05-16T15:15:28+02:00</time>
      </trkpt>
      <trkpt lat="47.67352" lon="6.03694">
        <ele>205.2002</ele>
        <time>2026-05-16T15:15:29+02:00</time>
      </trkpt>
      <trkpt lat="47.67355" lon="6.03703">
        <ele>205.10059</ele>
        <time>2026-05-16T15:15:30+02:00</time>
      </trkpt>
      <trkpt lat="47.67359" lon="6.03712">
        <ele>205.10059</ele>
        <time>2026-05-16T15:15:31+02:00</time>
      </trkpt>
      <trkpt lat="47.67362" lon="6.0372">
        <ele>205.2002</ele>
        <time>2026-05-16T15:15:32+02:00</time>
      </trkpt>
      <trkpt lat="47.67366" lon="6.03728">
        <ele>205.2002</ele>
        <time>2026-05-16T15:15:33+02:00</time>
      </trkpt>
      <trkpt lat="47.6737" lon="6.03736">
        <ele>205.2998</ele>
        <time>2026-05-16T15:15:34+02:00</time>
      </trkpt>
      <trkpt lat="47.67375" lon="6.03744">
        <ele>205.2002</ele>
        <time>2026-05-16T15:15:35+02:00</time>
      </trkpt>
      <trkpt lat="47.67379" lon="6.03751">
        <ele>205.2002</ele>
        <time>2026-05-16T15:15:36+02:00</time>
      </trkpt>
      <trkpt lat="47.67383" lon="6.03758">
        <ele>205.2002</ele>
        <time>2026-05-16T15:15:37+02:00</time>
      </trkpt>
      <trkpt lat="47.67388" lon="6.03766">
        <ele>205.2002</ele>
        <time>2026-05-16T15:15:38+02:00</time>
      </trkpt>
      <trkpt lat="47.67392" lon="6.03773">
        <ele>205.2998</ele>
        <time>2026-05-16T15:15:39+02:00</time>
      </trkpt>
      <trkpt lat="47.67397" lon="6.0378">
        <ele>205.2998</ele>
        <time>2026-05-16T15:15:40+02:00</time>
      </trkpt>
      <trkpt lat="47.67401" lon="6.03788">
        <ele>205.10059</ele>
        <time>2026-05-16T15:15:41+02:00</time>
      </trkpt>
      <trkpt lat="47.67405" lon="6.03796">
        <ele>205</ele>
        <time>2026-05-16T15:15:42+02:00</time>
      </trkpt>
      <trkpt lat="47.6741" lon="6.03803">
        <ele>205.2002</ele>
        <time>2026-05-16T15:15:43+02:00</time>
      </trkpt>
      <trkpt lat="47.67414" lon="6.0381">
        <ele>205.2002</ele>
        <time>2026-05-16T15:15:44+02:00</time>
      </trkpt>
      <trkpt lat="47.67418" lon="6.03818">
        <ele>205.2998</ele>
        <time>2026-05-16T15:15:45+02:00</time>
      </trkpt>
      <trkpt lat="47.67423" lon="6.03825">
        <ele>205.2998</ele>
        <time>2026-05-16T15:15:46+02:00</time>
      </trkpt>
      <trkpt lat="47.67427" lon="6.03832">
        <ele>205.2002</ele>
        <time>2026-05-16T15:15:47+02:00</time>
      </trkpt>
      <trkpt lat="47.67431" lon="6.0384">
        <ele>205</ele>
        <time>2026-05-16T15:15:48+02:00</time>
      </trkpt>
      <trkpt lat="47.67436" lon="6.03848">
        <ele>205</ele>
        <time>2026-05-16T15:15:49+02:00</time>
      </trkpt>
      <trkpt lat="47.6744" lon="6.03856">
        <ele>205.2002</ele>
        <time>2026-05-16T15:15:50+02:00</time>
      </trkpt>
      <trkpt lat="47.67445" lon="6.03863">
        <ele>205.2998</ele>
        <time>2026-05-16T15:15:51+02:00</time>
      </trkpt>
      <trkpt lat="47.67449" lon="6.0387">
        <ele>205.2002</ele>
        <time>2026-05-16T15:15:52+02:00</time>
      </trkpt>
      <trkpt lat="47.67454" lon="6.03878">
        <ele>205.10059</ele>
        <time>2026-05-16T15:15:53+02:00</time>
      </trkpt>
      <trkpt lat="47.67458" lon="6.03885">
        <ele>205.2002</ele>
        <time>2026-05-16T15:15:54+02:00</time>
      </trkpt>
      <trkpt lat="47.67463" lon="6.03893">
        <ele>205.2002</ele>
        <time>2026-05-16T15:15:55+02:00</time>
      </trkpt>
      <trkpt lat="47.67467" lon="6.039">
        <ele>205.2998</ele>
        <time>2026-05-16T15:15:56+02:00</time>
      </trkpt>
      <trkpt lat="47.67472" lon="6.03907">
        <ele>205.2002</ele>
        <time>2026-05-16T15:15:57+02:00</time>
      </trkpt>
      <trkpt lat="47.67477" lon="6.03915">
        <ele>205.2002</ele>
        <time>2026-05-16T15:15:58+02:00</time>
      </trkpt>
      <trkpt lat="47.67482" lon="6.03922">
        <ele>205.2002</ele>
        <time>2026-05-16T15:15:59+02:00</time>
      </trkpt>
      <trkpt lat="47.67486" lon="6.0393">
        <ele>205.2002</ele>
        <time>2026-05-16T15:16:00+02:00</time>
      </trkpt>
      <trkpt lat="47.67491" lon="6.03937">
        <ele>205.2002</ele>
        <time>2026-05-16T15:16:01+02:00</time>
      </trkpt>
      <trkpt lat="47.67495" lon="6.03945">
        <ele>205.2002</ele>
        <time>2026-05-16T15:16:02+02:00</time>
      </trkpt>
      <trkpt lat="47.67499" lon="6.03952">
        <ele>205.2002</ele>
        <time>2026-05-16T15:16:03+02:00</time>
      </trkpt>
      <trkpt lat="47.67502" lon="6.03956">
        <ele>205.2002</ele>
        <time>2026-05-16T15:16:04+02:00</time>
      </trkpt>
      <trkpt lat="47.67509" lon="6.03967">
        <ele>205.2002</ele>
        <time>2026-05-16T15:16:05+02:00</time>
      </trkpt>
      <trkpt lat="47.67514" lon="6.03974">
        <ele>205.2002</ele>
        <time>2026-05-16T15:16:06+02:00</time>
      </trkpt>
      <trkpt lat="47.67519" lon="6.0398">
        <ele>205.2002</ele>
        <time>2026-05-16T15:16:07+02:00</time>
      </trkpt>
      <trkpt lat="47.67525" lon="6.03985">
        <ele>205.2002</ele>
        <time>2026-05-16T15:16:08+02:00</time>
      </trkpt>
      <trkpt lat="47.67531" lon="6.03988">
        <ele>205.2002</ele>
        <time>2026-05-16T15:16:09+02:00</time>
      </trkpt>
      <trkpt lat="47.67538" lon="6.0399">
        <ele>205.2002</ele>
        <time>2026-05-16T15:16:10+02:00</time>
      </trkpt>
      <trkpt lat="47.67544" lon="6.0399">
        <ele>205.2002</ele>
        <time>2026-05-16T15:16:11+02:00</time>
      </trkpt>
      <trkpt lat="47.67551" lon="6.03988">
        <ele>205.2002</ele>
        <time>2026-05-16T15:16:12+02:00</time>
      </trkpt>
      <trkpt lat="47.67557" lon="6.03985">
        <ele>205.2002</ele>
        <time>2026-05-16T15:16:13+02:00</time>
      </trkpt>
      <trkpt lat="47.67563" lon="6.03982">
        <ele>205.2002</ele>
        <time>2026-05-16T15:16:14+02:00</time>
      </trkpt>
      <trkpt lat="47.67569" lon="6.03977">
        <ele>205.2998</ele>
        <time>2026-05-16T15:16:15+02:00</time>
      </trkpt>
      <trkpt lat="47.67574" lon="6.03972">
        <ele>205.40039</ele>
        <time>2026-05-16T15:16:16+02:00</time>
      </trkpt>
      <trkpt lat="47.6758" lon="6.03966">
        <ele>205.40039</ele>
        <time>2026-05-16T15:16:17+02:00</time>
      </trkpt>
      <trkpt lat="47.67585" lon="6.03961">
        <ele>205.5</ele>
        <time>2026-05-16T15:16:18+02:00</time>
      </trkpt>
      <trkpt lat="47.6759" lon="6.03954">
        <ele>205.7002</ele>
        <time>2026-05-16T15:16:19+02:00</time>
      </trkpt>
      <trkpt lat="47.67595" lon="6.03948">
        <ele>205.5</ele>
        <time>2026-05-16T15:16:20+02:00</time>
      </trkpt>
      <trkpt lat="47.676" lon="6.03943">
        <ele>205.40039</ele>
        <time>2026-05-16T15:16:21+02:00</time>
      </trkpt>
      <trkpt lat="47.67605" lon="6.03937">
        <ele>205.40039</ele>
        <time>2026-05-16T15:16:22+02:00</time>
      </trkpt>
      <trkpt lat="47.6761" lon="6.03931">
        <ele>205.2998</ele>
        <time>2026-05-16T15:16:23+02:00</time>
      </trkpt>
      <trkpt lat="47.67615" lon="6.03925">
        <ele>205.40039</ele>
        <time>2026-05-16T15:16:24+02:00</time>
      </trkpt>
      <trkpt lat="47.6762" lon="6.0392">
        <ele>205.2998</ele>
        <time>2026-05-16T15:16:25+02:00</time>
      </trkpt>
      <trkpt lat="47.67625" lon="6.03914">
        <ele>205.2998</ele>
        <time>2026-05-16T15:16:26+02:00</time>
      </trkpt>
      <trkpt lat="47.6763" lon="6.03908">
        <ele>205.2998</ele>
        <time>2026-05-16T15:16:27+02:00</time>
      </trkpt>
      <trkpt lat="47.67635" lon="6.03902">
        <ele>205.2998</ele>
        <time>2026-05-16T15:16:28+02:00</time>
      </trkpt>
      <trkpt lat="47.6764" lon="6.03897">
        <ele>205.2998</ele>
        <time>2026-05-16T15:16:29+02:00</time>
      </trkpt>
      <trkpt lat="47.67645" lon="6.03891">
        <ele>205.40039</ele>
        <time>2026-05-16T15:16:30+02:00</time>
      </trkpt>
      <trkpt lat="47.6765" lon="6.03885">
        <ele>205.40039</ele>
        <time>2026-05-16T15:16:31+02:00</time>
      </trkpt>
      <trkpt lat="47.67655" lon="6.03879">
        <ele>205.40039</ele>
        <time>2026-05-16T15:16:32+02:00</time>
      </trkpt>
      <trkpt lat="47.6766" lon="6.03872">
        <ele>205.2998</ele>
        <time>2026-05-16T15:16:33+02:00</time>
      </trkpt>
      <trkpt lat="47.67665" lon="6.03866">
        <ele>205.40039</ele>
        <time>2026-05-16T15:16:34+02:00</time>
      </trkpt>
      <trkpt lat="47.6767" lon="6.0386">
        <ele>205.40039</ele>
        <time>2026-05-16T15:16:35+02:00</time>
      </trkpt>
      <trkpt lat="47.67675" lon="6.03854">
        <ele>205.40039</ele>
        <time>2026-05-16T15:16:36+02:00</time>
      </trkpt>
      <trkpt lat="47.6768" lon="6.03847">
        <ele>205.40039</ele>
        <time>2026-05-16T15:16:37+02:00</time>
      </trkpt>
      <trkpt lat="47.67687" lon="6.03841">
        <ele>205.40039</ele>
        <time>2026-05-16T15:16:38+02:00</time>
      </trkpt>
      <trkpt lat="47.67692" lon="6.03835">
        <ele>205.40039</ele>
        <time>2026-05-16T15:16:39+02:00</time>
      </trkpt>
      <trkpt lat="47.67698" lon="6.03829">
        <ele>205.2998</ele>
        <time>2026-05-16T15:16:40+02:00</time>
      </trkpt>
      <trkpt lat="47.67704" lon="6.03824">
        <ele>205.5</ele>
        <time>2026-05-16T15:16:41+02:00</time>
      </trkpt>
      <trkpt lat="47.6771" lon="6.03818">
        <ele>205.7002</ele>
        <time>2026-05-16T15:16:42+02:00</time>
      </trkpt>
      <trkpt lat="47.67716" lon="6.03813">
        <ele>205.60059</ele>
        <time>2026-05-16T15:16:43+02:00</time>
      </trkpt>
      <trkpt lat="47.67722" lon="6.03807">
        <ele>205.60059</ele>
        <time>2026-05-16T15:16:44+02:00</time>
      </trkpt>
      <trkpt lat="47.67727" lon="6.03801">
        <ele>205.60059</ele>
        <time>2026-05-16T15:16:45+02:00</time>
      </trkpt>
      <trkpt lat="47.67734" lon="6.03796">
        <ele>205.40039</ele>
        <time>2026-05-16T15:16:46+02:00</time>
      </trkpt>
      <trkpt lat="47.67739" lon="6.0379">
        <ele>205.5</ele>
        <time>2026-05-16T15:16:47+02:00</time>
      </trkpt>
      <trkpt lat="47.67745" lon="6.03784">
        <ele>205.60059</ele>
        <time>2026-05-16T15:16:48+02:00</time>
      </trkpt>
      <trkpt lat="47.67751" lon="6.03779">
        <ele>205.40039</ele>
        <time>2026-05-16T15:16:49+02:00</time>
      </trkpt>
      <trkpt lat="47.67756" lon="6.03774">
        <ele>205.2998</ele>
        <time>2026-05-16T15:16:50+02:00</time>
      </trkpt>
      <trkpt lat="47.67762" lon="6.03768">
        <ele>205.2002</ele>
        <time>2026-05-16T15:16:51+02:00</time>
      </trkpt>
      <trkpt lat="47.67765" lon="6.03765">
        <ele>205.2998</ele>
        <time>2026-05-16T15:16:52+02:00</time>
      </trkpt>
      <trkpt lat="47.67774" lon="6.03757">
        <ele>205.60059</ele>
        <time>2026-05-16T15:16:53+02:00</time>
      </trkpt>
      <trkpt lat="47.67779" lon="6.03751">
        <ele>205.5</ele>
        <time>2026-05-16T15:16:54+02:00</time>
      </trkpt>
      <trkpt lat="47.67785" lon="6.03746">
        <ele>205.7002</ele>
        <time>2026-05-16T15:16:55+02:00</time>
      </trkpt>
      <trkpt lat="47.67791" lon="6.0374">
        <ele>205.60059</ele>
        <time>2026-05-16T15:16:56+02:00</time>
      </trkpt>
      <trkpt lat="47.67796" lon="6.03735">
        <ele>205.40039</ele>
        <time>2026-05-16T15:16:57+02:00</time>
      </trkpt>
      <trkpt lat="47.67802" lon="6.0373">
        <ele>205.2998</ele>
        <time>2026-05-16T15:16:58+02:00</time>
      </trkpt>
      <trkpt lat="47.67808" lon="6.03725">
        <ele>205.2998</ele>
        <time>2026-05-16T15:16:59+02:00</time>
      </trkpt>
      <trkpt lat="47.67814" lon="6.03721">
        <ele>205.5</ele>
        <time>2026-05-16T15:17:00+02:00</time>
      </trkpt>
      <trkpt lat="47.6782" lon="6.03716">
        <ele>205.40039</ele>
        <time>2026-05-16T15:17:01+02:00</time>
      </trkpt>
      <trkpt lat="47.67825" lon="6.03711">
        <ele>205.60059</ele>
        <time>2026-05-16T15:17:02+02:00</time>
      </trkpt>
      <trkpt lat="47.67831" lon="6.03707">
        <ele>205.60059</ele>
        <time>2026-05-16T15:17:03+02:00</time>
      </trkpt>
      <trkpt lat="47.67837" lon="6.03703">
        <ele>205.40039</ele>
        <time>2026-05-16T15:17:04+02:00</time>
      </trkpt>
      <trkpt lat="47.67843" lon="6.03699">
        <ele>205.2002</ele>
        <time>2026-05-16T15:17:05+02:00</time>
      </trkpt>
      <trkpt lat="47.67849" lon="6.03694">
        <ele>205.2002</ele>
        <time>2026-05-16T15:17:06+02:00</time>
      </trkpt>
      <trkpt lat="47.67855" lon="6.0369">
        <ele>205.2998</ele>
        <time>2026-05-16T15:17:07+02:00</time>
      </trkpt>
      <trkpt lat="47.67862" lon="6.03686">
        <ele>205.2998</ele>
        <time>2026-05-16T15:17:08+02:00</time>
      </trkpt>
      <trkpt lat="47.67865" lon="6.03684">
        <ele>205.2998</ele>
        <time>2026-05-16T15:17:09+02:00</time>
      </trkpt>
      <trkpt lat="47.67874" lon="6.03679">
        <ele>205.5</ele>
        <time>2026-05-16T15:17:10+02:00</time>
      </trkpt>
      <trkpt lat="47.6788" lon="6.03675">
        <ele>205.5</ele>
        <time>2026-05-16T15:17:11+02:00</time>
      </trkpt>
      <trkpt lat="47.67887" lon="6.03672">
        <ele>205.60059</ele>
        <time>2026-05-16T15:17:12+02:00</time>
      </trkpt>
      <trkpt lat="47.67893" lon="6.03668">
        <ele>205.5</ele>
        <time>2026-05-16T15:17:13+02:00</time>
      </trkpt>
      <trkpt lat="47.67899" lon="6.03664">
        <ele>205.5</ele>
        <time>2026-05-16T15:17:14+02:00</time>
      </trkpt>
      <trkpt lat="47.67906" lon="6.0366">
        <ele>205.2998</ele>
        <time>2026-05-16T15:17:15+02:00</time>
      </trkpt>
      <trkpt lat="47.67912" lon="6.03657">
        <ele>205.2002</ele>
        <time>2026-05-16T15:17:16+02:00</time>
      </trkpt>
      <trkpt lat="47.67918" lon="6.03653">
        <ele>205.2998</ele>
        <time>2026-05-16T15:17:17+02:00</time>
      </trkpt>
      <trkpt lat="47.67924" lon="6.03649">
        <ele>205.2998</ele>
        <time>2026-05-16T15:17:18+02:00</time>
      </trkpt>
      <trkpt lat="47.6793" lon="6.03645">
        <ele>205.40039</ele>
        <time>2026-05-16T15:17:19+02:00</time>
      </trkpt>
      <trkpt lat="47.67936" lon="6.03642">
        <ele>205.40039</ele>
        <time>2026-05-16T15:17:20+02:00</time>
      </trkpt>
      <trkpt lat="47.67942" lon="6.03638">
        <ele>205.40039</ele>
        <time>2026-05-16T15:17:21+02:00</time>
      </trkpt>
      <trkpt lat="47.67948" lon="6.03634">
        <ele>205.2998</ele>
        <time>2026-05-16T15:17:22+02:00</time>
      </trkpt>
      <trkpt lat="47.67954" lon="6.0363">
        <ele>205.2998</ele>
        <time>2026-05-16T15:17:23+02:00</time>
      </trkpt>
      <trkpt lat="47.6796" lon="6.03626">
        <ele>205.2002</ele>
        <time>2026-05-16T15:17:24+02:00</time>
      </trkpt>
      <trkpt lat="47.67967" lon="6.03622">
        <ele>205.2002</ele>
        <time>2026-05-16T15:17:25+02:00</time>
      </trkpt>
      <trkpt lat="47.67973" lon="6.03618">
        <ele>205.2998</ele>
        <time>2026-05-16T15:17:26+02:00</time>
      </trkpt>
      <trkpt lat="47.67979" lon="6.03614">
        <ele>205.2998</ele>
        <time>2026-05-16T15:17:27+02:00</time>
      </trkpt>
      <trkpt lat="47.67986" lon="6.0361">
        <ele>205.2998</ele>
        <time>2026-05-16T15:17:28+02:00</time>
      </trkpt>
      <trkpt lat="47.67992" lon="6.03606">
        <ele>205.2002</ele>
        <time>2026-05-16T15:17:29+02:00</time>
      </trkpt>
      <trkpt lat="47.67998" lon="6.03601">
        <ele>205.2002</ele>
        <time>2026-05-16T15:17:30+02:00</time>
      </trkpt>
      <trkpt lat="47.68005" lon="6.03596">
        <ele>205.2002</ele>
        <time>2026-05-16T15:17:31+02:00</time>
      </trkpt>
      <trkpt lat="47.6801" lon="6.03591">
        <ele>205.2002</ele>
        <time>2026-05-16T15:17:32+02:00</time>
      </trkpt>
      <trkpt lat="47.68017" lon="6.03586">
        <ele>205.2998</ele>
        <time>2026-05-16T15:17:33+02:00</time>
      </trkpt>
      <trkpt lat="47.68022" lon="6.03581">
        <ele>205.2998</ele>
        <time>2026-05-16T15:17:34+02:00</time>
      </trkpt>
      <trkpt lat="47.68027" lon="6.03575">
        <ele>205.2998</ele>
        <time>2026-05-16T15:17:35+02:00</time>
      </trkpt>
      <trkpt lat="47.68033" lon="6.03571">
        <ele>205.2998</ele>
        <time>2026-05-16T15:17:36+02:00</time>
      </trkpt>
      <trkpt lat="47.6804" lon="6.03569">
        <ele>205.5</ele>
        <time>2026-05-16T15:17:37+02:00</time>
      </trkpt>
      <trkpt lat="47.68043" lon="6.03569">
        <ele>205.40039</ele>
        <time>2026-05-16T15:17:38+02:00</time>
      </trkpt>
      <trkpt lat="47.68054" lon="6.03569">
        <ele>205.40039</ele>
        <time>2026-05-16T15:17:39+02:00</time>
      </trkpt>
      <trkpt lat="47.68061" lon="6.0357">
        <ele>205.2998</ele>
        <time>2026-05-16T15:17:40+02:00</time>
      </trkpt>
      <trkpt lat="47.68068" lon="6.03571">
        <ele>205.2998</ele>
        <time>2026-05-16T15:17:41+02:00</time>
      </trkpt>
      <trkpt lat="47.68076" lon="6.03571">
        <ele>205.2998</ele>
        <time>2026-05-16T15:17:42+02:00</time>
      </trkpt>
      <trkpt lat="47.68083" lon="6.03573">
        <ele>205.2998</ele>
        <time>2026-05-16T15:17:43+02:00</time>
      </trkpt>
      <trkpt lat="47.6809" lon="6.03574">
        <ele>205.2998</ele>
        <time>2026-05-16T15:17:44+02:00</time>
      </trkpt>
      <trkpt lat="47.68097" lon="6.03576">
        <ele>205.2998</ele>
        <time>2026-05-16T15:17:45+02:00</time>
      </trkpt>
      <trkpt lat="47.68104" lon="6.03578">
        <ele>205.2998</ele>
        <time>2026-05-16T15:17:46+02:00</time>
      </trkpt>
      <trkpt lat="47.6811" lon="6.03579">
        <ele>205.2002</ele>
        <time>2026-05-16T15:17:47+02:00</time>
      </trkpt>
      <trkpt lat="47.68117" lon="6.03581">
        <ele>205.2002</ele>
        <time>2026-05-16T15:17:48+02:00</time>
      </trkpt>
      <trkpt lat="47.68124" lon="6.03581">
        <ele>205.2002</ele>
        <time>2026-05-16T15:17:49+02:00</time>
      </trkpt>
      <trkpt lat="47.6813" lon="6.03581">
        <ele>205.2002</ele>
        <time>2026-05-16T15:17:50+02:00</time>
      </trkpt>
      <trkpt lat="47.68137" lon="6.0358">
        <ele>205.2002</ele>
        <time>2026-05-16T15:17:51+02:00</time>
      </trkpt>
      <trkpt lat="47.68144" lon="6.03579">
        <ele>205.2002</ele>
        <time>2026-05-16T15:17:52+02:00</time>
      </trkpt>
      <trkpt lat="47.6815" lon="6.03578">
        <ele>205.2002</ele>
        <time>2026-05-16T15:17:53+02:00</time>
      </trkpt>
      <trkpt lat="47.68157" lon="6.03576">
        <ele>205.2002</ele>
        <time>2026-05-16T15:17:54+02:00</time>
      </trkpt>
      <trkpt lat="47.68164" lon="6.03574">
        <ele>205.40039</ele>
        <time>2026-05-16T15:17:55+02:00</time>
      </trkpt>
      <trkpt lat="47.68171" lon="6.03573">
        <ele>205.60059</ele>
        <time>2026-05-16T15:17:56+02:00</time>
      </trkpt>
      <trkpt lat="47.68178" lon="6.03571">
        <ele>205.7002</ele>
        <time>2026-05-16T15:17:57+02:00</time>
      </trkpt>
      <trkpt lat="47.68184" lon="6.03569">
        <ele>206.10059</ele>
        <time>2026-05-16T15:17:58+02:00</time>
      </trkpt>
      <trkpt lat="47.68191" lon="6.03569">
        <ele>206.2002</ele>
        <time>2026-05-16T15:17:59+02:00</time>
      </trkpt>
      <trkpt lat="47.68198" lon="6.03568">
        <ele>206.40039</ele>
        <time>2026-05-16T15:18:00+02:00</time>
      </trkpt>
      <trkpt lat="47.68205" lon="6.03568">
        <ele>206.5</ele>
        <time>2026-05-16T15:18:01+02:00</time>
      </trkpt>
      <trkpt lat="47.68211" lon="6.03567">
        <ele>206.60059</ele>
        <time>2026-05-16T15:18:02+02:00</time>
      </trkpt>
      <trkpt lat="47.68218" lon="6.03567">
        <ele>206.7002</ele>
        <time>2026-05-16T15:18:03+02:00</time>
      </trkpt>
      <trkpt lat="47.68225" lon="6.03567">
        <ele>206.7998</ele>
        <time>2026-05-16T15:18:04+02:00</time>
      </trkpt>
      <trkpt lat="47.68228" lon="6.03567">
        <ele>207</ele>
        <time>2026-05-16T15:18:05+02:00</time>
      </trkpt>
      <trkpt lat="47.68238" lon="6.03568">
        <ele>207.40039</ele>
        <time>2026-05-16T15:18:06+02:00</time>
      </trkpt>
      <trkpt lat="47.68245" lon="6.03568">
        <ele>207.5</ele>
        <time>2026-05-16T15:18:07+02:00</time>
      </trkpt>
      <trkpt lat="47.68251" lon="6.03569">
        <ele>207.5</ele>
        <time>2026-05-16T15:18:08+02:00</time>
      </trkpt>
      <trkpt lat="47.68258" lon="6.0357">
        <ele>207.40039</ele>
        <time>2026-05-16T15:18:09+02:00</time>
      </trkpt>
      <trkpt lat="47.68265" lon="6.03571">
        <ele>207.40039</ele>
        <time>2026-05-16T15:18:10+02:00</time>
      </trkpt>
      <trkpt lat="47.68271" lon="6.03572">
        <ele>207.5</ele>
        <time>2026-05-16T15:18:11+02:00</time>
      </trkpt>
      <trkpt lat="47.68277" lon="6.03573">
        <ele>207.5</ele>
        <time>2026-05-16T15:18:12+02:00</time>
      </trkpt>
      <trkpt lat="47.68281" lon="6.03574">
        <ele>207.5</ele>
        <time>2026-05-16T15:18:13+02:00</time>
      </trkpt>
      <trkpt lat="47.68291" lon="6.03575">
        <ele>207.5</ele>
        <time>2026-05-16T15:18:14+02:00</time>
      </trkpt>
      <trkpt lat="47.68298" lon="6.03577">
        <ele>207.5</ele>
        <time>2026-05-16T15:18:15+02:00</time>
      </trkpt>
      <trkpt lat="47.68304" lon="6.03578">
        <ele>207.5</ele>
        <time>2026-05-16T15:18:16+02:00</time>
      </trkpt>
      <trkpt lat="47.68308" lon="6.03579">
        <ele>207.40039</ele>
        <time>2026-05-16T15:18:17+02:00</time>
      </trkpt>
      <trkpt lat="47.68318" lon="6.03581">
        <ele>207.40039</ele>
        <time>2026-05-16T15:18:18+02:00</time>
      </trkpt>
      <trkpt lat="47.68324" lon="6.03583">
        <ele>207.40039</ele>
        <time>2026-05-16T15:18:19+02:00</time>
      </trkpt>
      <trkpt lat="47.68331" lon="6.03585">
        <ele>207.7002</ele>
        <time>2026-05-16T15:18:20+02:00</time>
      </trkpt>
      <trkpt lat="47.68338" lon="6.03587">
        <ele>207.7998</ele>
        <time>2026-05-16T15:18:21+02:00</time>
      </trkpt>
      <trkpt lat="47.68345" lon="6.03589">
        <ele>207.7998</ele>
        <time>2026-05-16T15:18:22+02:00</time>
      </trkpt>
      <trkpt lat="47.68351" lon="6.03591">
        <ele>208</ele>
        <time>2026-05-16T15:18:23+02:00</time>
      </trkpt>
      <trkpt lat="47.68358" lon="6.03593">
        <ele>208.2002</ele>
        <time>2026-05-16T15:18:24+02:00</time>
      </trkpt>
      <trkpt lat="47.68365" lon="6.03595">
        <ele>208.5</ele>
        <time>2026-05-16T15:18:25+02:00</time>
      </trkpt>
      <trkpt lat="47.68372" lon="6.03598">
        <ele>208.5</ele>
        <time>2026-05-16T15:18:26+02:00</time>
      </trkpt>
      <trkpt lat="47.68378" lon="6.03601">
        <ele>208.7002</ele>
        <time>2026-05-16T15:18:27+02:00</time>
      </trkpt>
      <trkpt lat="47.68384" lon="6.03604">
        <ele>208.7998</ele>
        <time>2026-05-16T15:18:28+02:00</time>
      </trkpt>
      <trkpt lat="47.68391" lon="6.03607">
        <ele>208.7998</ele>
        <time>2026-05-16T15:18:29+02:00</time>
      </trkpt>
      <trkpt lat="47.68397" lon="6.03611">
        <ele>208.90039</ele>
        <time>2026-05-16T15:18:30+02:00</time>
      </trkpt>
      <trkpt lat="47.68403" lon="6.03614">
        <ele>208.90039</ele>
        <time>2026-05-16T15:18:31+02:00</time>
      </trkpt>
      <trkpt lat="47.68409" lon="6.03618">
        <ele>209</ele>
        <time>2026-05-16T15:18:32+02:00</time>
      </trkpt>
      <trkpt lat="47.68416" lon="6.03621">
        <ele>209.10059</ele>
        <time>2026-05-16T15:18:33+02:00</time>
      </trkpt>
      <trkpt lat="47.68422" lon="6.03624">
        <ele>209.10059</ele>
        <time>2026-05-16T15:18:34+02:00</time>
      </trkpt>
      <trkpt lat="47.68427" lon="6.03625">
        <ele>209.2002</ele>
        <time>2026-05-16T15:18:35+02:00</time>
      </trkpt>
      <trkpt lat="47.68434" lon="6.03626">
        <ele>209.2998</ele>
        <time>2026-05-16T15:18:36+02:00</time>
      </trkpt>
      <trkpt lat="47.6844" lon="6.03625">
        <ele>209.40039</ele>
        <time>2026-05-16T15:18:37+02:00</time>
      </trkpt>
      <trkpt lat="47.68445" lon="6.03623">
        <ele>209.5</ele>
        <time>2026-05-16T15:18:38+02:00</time>
      </trkpt>
      <trkpt lat="47.68451" lon="6.0362">
        <ele>209.7998</ele>
        <time>2026-05-16T15:18:39+02:00</time>
      </trkpt>
      <trkpt lat="47.68456" lon="6.03617">
        <ele>209.90039</ele>
        <time>2026-05-16T15:18:40+02:00</time>
      </trkpt>
      <trkpt lat="47.68462" lon="6.03615">
        <ele>210</ele>
        <time>2026-05-16T15:18:41+02:00</time>
      </trkpt>
      <trkpt lat="47.68468" lon="6.03614">
        <ele>210.2002</ele>
        <time>2026-05-16T15:18:42+02:00</time>
      </trkpt>
      <trkpt lat="47.68474" lon="6.03615">
        <ele>210.2998</ele>
        <time>2026-05-16T15:18:43+02:00</time>
      </trkpt>
      <trkpt lat="47.68479" lon="6.03618">
        <ele>210.5</ele>
        <time>2026-05-16T15:18:44+02:00</time>
      </trkpt>
      <trkpt lat="47.68485" lon="6.0362">
        <ele>210.60059</ele>
        <time>2026-05-16T15:18:45+02:00</time>
      </trkpt>
      <trkpt lat="47.6849" lon="6.03624">
        <ele>210.5</ele>
        <time>2026-05-16T15:18:46+02:00</time>
      </trkpt>
      <trkpt lat="47.68496" lon="6.03627">
        <ele>210.7002</ele>
        <time>2026-05-16T15:18:47+02:00</time>
      </trkpt>
      <trkpt lat="47.68502" lon="6.03629">
        <ele>210.7998</ele>
        <time>2026-05-16T15:18:48+02:00</time>
      </trkpt>
      <trkpt lat="47.68508" lon="6.03632">
        <ele>210.7002</ele>
        <time>2026-05-16T15:18:49+02:00</time>
      </trkpt>
      <trkpt lat="47.68514" lon="6.03634">
        <ele>210.7998</ele>
        <time>2026-05-16T15:18:50+02:00</time>
      </trkpt>
      <trkpt lat="47.6852" lon="6.03637">
        <ele>210.90039</ele>
        <time>2026-05-16T15:18:51+02:00</time>
      </trkpt>
      <trkpt lat="47.68526" lon="6.03639">
        <ele>210.7002</ele>
        <time>2026-05-16T15:18:52+02:00</time>
      </trkpt>
      <trkpt lat="47.68532" lon="6.03642">
        <ele>210.7998</ele>
        <time>2026-05-16T15:18:53+02:00</time>
      </trkpt>
      <trkpt lat="47.68535" lon="6.03643">
        <ele>210.90039</ele>
        <time>2026-05-16T15:18:54+02:00</time>
      </trkpt>
      <trkpt lat="47.68544" lon="6.03645">
        <ele>210.90039</ele>
        <time>2026-05-16T15:18:55+02:00</time>
      </trkpt>
      <trkpt lat="47.6855" lon="6.03646">
        <ele>211</ele>
        <time>2026-05-16T15:18:56+02:00</time>
      </trkpt>
      <trkpt lat="47.68556" lon="6.03647">
        <ele>211.10059</ele>
        <time>2026-05-16T15:18:57+02:00</time>
      </trkpt>
      <trkpt lat="47.68562" lon="6.03648">
        <ele>210.90039</ele>
        <time>2026-05-16T15:18:58+02:00</time>
      </trkpt>
      <trkpt lat="47.68568" lon="6.03648">
        <ele>210.90039</ele>
        <time>2026-05-16T15:18:59+02:00</time>
      </trkpt>
      <trkpt lat="47.68574" lon="6.03648">
        <ele>211</ele>
        <time>2026-05-16T15:19:00+02:00</time>
      </trkpt>
      <trkpt lat="47.68579" lon="6.03648">
        <ele>211.10059</ele>
        <time>2026-05-16T15:19:01+02:00</time>
      </trkpt>
      <trkpt lat="47.68585" lon="6.03647">
        <ele>211.2998</ele>
        <time>2026-05-16T15:19:02+02:00</time>
      </trkpt>
      <trkpt lat="47.68589" lon="6.03645">
        <ele>211.2998</ele>
        <time>2026-05-16T15:19:03+02:00</time>
      </trkpt>
      <trkpt lat="47.68593" lon="6.03642">
        <ele>211.2998</ele>
        <time>2026-05-16T15:19:04+02:00</time>
      </trkpt>
      <trkpt lat="47.68597" lon="6.03638">
        <ele>211.5</ele>
        <time>2026-05-16T15:19:05+02:00</time>
      </trkpt>
      <trkpt lat="47.68601" lon="6.03635">
        <ele>211.5</ele>
        <time>2026-05-16T15:19:06+02:00</time>
      </trkpt>
      <trkpt lat="47.68604" lon="6.03631">
        <ele>211.5</ele>
        <time>2026-05-16T15:19:07+02:00</time>
      </trkpt>
      <trkpt lat="47.68607" lon="6.03628">
        <ele>211.90039</ele>
        <time>2026-05-16T15:19:08+02:00</time>
      </trkpt>
      <trkpt lat="47.68612" lon="6.03626">
        <ele>211.90039</ele>
        <time>2026-05-16T15:19:09+02:00</time>
      </trkpt>
      <trkpt lat="47.68616" lon="6.03626">
        <ele>212</ele>
        <time>2026-05-16T15:19:10+02:00</time>
      </trkpt>
      <trkpt lat="47.68622" lon="6.03627">
        <ele>212.10059</ele>
        <time>2026-05-16T15:19:11+02:00</time>
      </trkpt>
      <trkpt lat="47.68627" lon="6.03628">
        <ele>212.2998</ele>
        <time>2026-05-16T15:19:12+02:00</time>
      </trkpt>
      <trkpt lat="47.68632" lon="6.03629">
        <ele>212.40039</ele>
        <time>2026-05-16T15:19:13+02:00</time>
      </trkpt>
      <trkpt lat="47.68638" lon="6.0363">
        <ele>212.60059</ele>
        <time>2026-05-16T15:19:14+02:00</time>
      </trkpt>
      <trkpt lat="47.68643" lon="6.03631">
        <ele>212.40039</ele>
        <time>2026-05-16T15:19:15+02:00</time>
      </trkpt>
      <trkpt lat="47.68649" lon="6.03632">
        <ele>212.60059</ele>
        <time>2026-05-16T15:19:16+02:00</time>
      </trkpt>
      <trkpt lat="47.68655" lon="6.03633">
        <ele>212.90039</ele>
        <time>2026-05-16T15:19:17+02:00</time>
      </trkpt>
      <trkpt lat="47.68661" lon="6.03634">
        <ele>213.2002</ele>
        <time>2026-05-16T15:19:18+02:00</time>
      </trkpt>
      <trkpt lat="47.68667" lon="6.03635">
        <ele>213.60059</ele>
        <time>2026-05-16T15:19:19+02:00</time>
      </trkpt>
      <trkpt lat="47.68673" lon="6.03635">
        <ele>214.10059</ele>
        <time>2026-05-16T15:19:20+02:00</time>
      </trkpt>
      <trkpt lat="47.68679" lon="6.03636">
        <ele>214.60059</ele>
        <time>2026-05-16T15:19:21+02:00</time>
      </trkpt>
      <trkpt lat="47.68682" lon="6.03636">
        <ele>214.60059</ele>
        <time>2026-05-16T15:19:22+02:00</time>
      </trkpt>
      <trkpt lat="47.68692" lon="6.03638">
        <ele>215.7002</ele>
        <time>2026-05-16T15:19:23+02:00</time>
      </trkpt>
      <trkpt lat="47.68698" lon="6.03639">
        <ele>215.2998</ele>
        <time>2026-05-16T15:19:24+02:00</time>
      </trkpt>
      <trkpt lat="47.68701" lon="6.03639">
        <ele>215.7998</ele>
        <time>2026-05-16T15:19:25+02:00</time>
      </trkpt>
      <trkpt lat="47.68711" lon="6.03641">
        <ele>216.2998</ele>
        <time>2026-05-16T15:19:26+02:00</time>
      </trkpt>
      <trkpt lat="47.68718" lon="6.03642">
        <ele>217.2998</ele>
        <time>2026-05-16T15:19:27+02:00</time>
      </trkpt>
      <trkpt lat="47.68725" lon="6.03644">
        <ele>217.7998</ele>
        <time>2026-05-16T15:19:28+02:00</time>
      </trkpt>
      <trkpt lat="47.68731" lon="6.03645">
        <ele>218.2998</ele>
        <time>2026-05-16T15:19:29+02:00</time>
      </trkpt>
      <trkpt lat="47.68738" lon="6.03646">
        <ele>218.7998</ele>
        <time>2026-05-16T15:19:30+02:00</time>
      </trkpt>
      <trkpt lat="47.68744" lon="6.03647">
        <ele>219.10059</ele>
        <time>2026-05-16T15:19:31+02:00</time>
      </trkpt>
      <trkpt lat="47.68751" lon="6.03649">
        <ele>217.90039</ele>
        <time>2026-05-16T15:19:32+02:00</time>
      </trkpt>
      <trkpt lat="47.68757" lon="6.0365">
        <ele>217.7998</ele>
        <time>2026-05-16T15:19:33+02:00</time>
      </trkpt>
      <trkpt lat="47.68764" lon="6.03651">
        <ele>217.5</ele>
        <time>2026-05-16T15:19:34+02:00</time>
      </trkpt>
      <trkpt lat="47.68771" lon="6.03652">
        <ele>217.2998</ele>
        <time>2026-05-16T15:19:35+02:00</time>
      </trkpt>
      <trkpt lat="47.68778" lon="6.03653">
        <ele>217.10059</ele>
        <time>2026-05-16T15:19:36+02:00</time>
      </trkpt>
      <trkpt lat="47.68784" lon="6.03653">
        <ele>216.7998</ele>
        <time>2026-05-16T15:19:37+02:00</time>
      </trkpt>
      <trkpt lat="47.68791" lon="6.03654">
        <ele>216.60059</ele>
        <time>2026-05-16T15:19:38+02:00</time>
      </trkpt>
      <trkpt lat="47.68798" lon="6.03654">
        <ele>216.2998</ele>
        <time>2026-05-16T15:19:39+02:00</time>
      </trkpt>
      <trkpt lat="47.68805" lon="6.03654">
        <ele>215.7002</ele>
        <time>2026-05-16T15:19:40+02:00</time>
      </trkpt>
      <trkpt lat="47.68812" lon="6.03655">
        <ele>215.40039</ele>
        <time>2026-05-16T15:19:41+02:00</time>
      </trkpt>
      <trkpt lat="47.68818" lon="6.03656">
        <ele>213.60059</ele>
        <time>2026-05-16T15:19:42+02:00</time>
      </trkpt>
      <trkpt lat="47.68825" lon="6.03656">
        <ele>213.2998</ele>
        <time>2026-05-16T15:19:43+02:00</time>
      </trkpt>
      <trkpt lat="47.68832" lon="6.03657">
        <ele>213.10059</ele>
        <time>2026-05-16T15:19:44+02:00</time>
      </trkpt>
      <trkpt lat="47.68838" lon="6.03657">
        <ele>212.7998</ele>
        <time>2026-05-16T15:19:45+02:00</time>
      </trkpt>
      <trkpt lat="47.68845" lon="6.03657">
        <ele>212.2998</ele>
        <time>2026-05-16T15:19:46+02:00</time>
      </trkpt>
      <trkpt lat="47.68851" lon="6.03657">
        <ele>212.10059</ele>
        <time>2026-05-16T15:19:47+02:00</time>
      </trkpt>
      <trkpt lat="47.68858" lon="6.03656">
        <ele>211.7998</ele>
        <time>2026-05-16T15:19:48+02:00</time>
      </trkpt>
      <trkpt lat="47.68865" lon="6.03656">
        <ele>211.5</ele>
        <time>2026-05-16T15:19:49+02:00</time>
      </trkpt>
      <trkpt lat="47.68871" lon="6.03656">
        <ele>211.2002</ele>
        <time>2026-05-16T15:19:50+02:00</time>
      </trkpt>
      <trkpt lat="47.68878" lon="6.03657">
        <ele>211</ele>
        <time>2026-05-16T15:19:51+02:00</time>
      </trkpt>
      <trkpt lat="47.68884" lon="6.03658">
        <ele>210.90039</ele>
        <time>2026-05-16T15:19:52+02:00</time>
      </trkpt>
      <trkpt lat="47.6889" lon="6.03659">
        <ele>211</ele>
        <time>2026-05-16T15:19:53+02:00</time>
      </trkpt>
      <trkpt lat="47.68897" lon="6.03661">
        <ele>211.5</ele>
        <time>2026-05-16T15:19:54+02:00</time>
      </trkpt>
      <trkpt lat="47.68903" lon="6.03663">
        <ele>211.90039</ele>
        <time>2026-05-16T15:19:55+02:00</time>
      </trkpt>
      <trkpt lat="47.68909" lon="6.03665">
        <ele>211.2002</ele>
        <time>2026-05-16T15:19:56+02:00</time>
      </trkpt>
      <trkpt lat="47.68916" lon="6.03668">
        <ele>211.7002</ele>
        <time>2026-05-16T15:19:57+02:00</time>
      </trkpt>
      <trkpt lat="47.68922" lon="6.03671">
        <ele>212.2002</ele>
        <time>2026-05-16T15:19:58+02:00</time>
      </trkpt>
      <trkpt lat="47.68929" lon="6.03674">
        <ele>211.7998</ele>
        <time>2026-05-16T15:19:59+02:00</time>
      </trkpt>
      <trkpt lat="47.68932" lon="6.03676">
        <ele>212.5</ele>
        <time>2026-05-16T15:20:00+02:00</time>
      </trkpt>
      <trkpt lat="47.68942" lon="6.03681">
        <ele>213.10059</ele>
        <time>2026-05-16T15:20:01+02:00</time>
      </trkpt>
      <trkpt lat="47.68948" lon="6.03685">
        <ele>213</ele>
        <time>2026-05-16T15:20:02+02:00</time>
      </trkpt>
      <trkpt lat="47.68954" lon="6.03689">
        <ele>213.7002</ele>
        <time>2026-05-16T15:20:03+02:00</time>
      </trkpt>
      <trkpt lat="47.6896" lon="6.03693">
        <ele>214.2002</ele>
        <time>2026-05-16T15:20:04+02:00</time>
      </trkpt>
      <trkpt lat="47.68966" lon="6.03697">
        <ele>214.2002</ele>
        <time>2026-05-16T15:20:05+02:00</time>
      </trkpt>
      <trkpt lat="47.68972" lon="6.03702">
        <ele>214.7998</ele>
        <time>2026-05-16T15:20:06+02:00</time>
      </trkpt>
      <trkpt lat="47.68978" lon="6.03706">
        <ele>215.40039</ele>
        <time>2026-05-16T15:20:07+02:00</time>
      </trkpt>
      <trkpt lat="47.68984" lon="6.03711">
        <ele>215.2002</ele>
        <time>2026-05-16T15:20:08+02:00</time>
      </trkpt>
      <trkpt lat="47.6899" lon="6.03715">
        <ele>215.7998</ele>
        <time>2026-05-16T15:20:09+02:00</time>
      </trkpt>
      <trkpt lat="47.68993" lon="6.03717">
        <ele>215</ele>
        <time>2026-05-16T15:20:10+02:00</time>
      </trkpt>
      <trkpt lat="47.69002" lon="6.03724">
        <ele>216</ele>
        <time>2026-05-16T15:20:11+02:00</time>
      </trkpt>
      <trkpt lat="47.69007" lon="6.03728">
        <ele>215.5</ele>
        <time>2026-05-16T15:20:12+02:00</time>
      </trkpt>
      <trkpt lat="47.69013" lon="6.03732">
        <ele>215.7002</ele>
        <time>2026-05-16T15:20:13+02:00</time>
      </trkpt>
      <trkpt lat="47.69019" lon="6.03736">
        <ele>215</ele>
        <time>2026-05-16T15:20:14+02:00</time>
      </trkpt>
      <trkpt lat="47.69024" lon="6.0374">
        <ele>215.10059</ele>
        <time>2026-05-16T15:20:15+02:00</time>
      </trkpt>
      <trkpt lat="47.6903" lon="6.03744">
        <ele>214.5</ele>
        <time>2026-05-16T15:20:16+02:00</time>
      </trkpt>
      <trkpt lat="47.69035" lon="6.03748">
        <ele>214.5</ele>
        <time>2026-05-16T15:20:17+02:00</time>
      </trkpt>
      <trkpt lat="47.69041" lon="6.03752">
        <ele>214.10059</ele>
        <time>2026-05-16T15:20:18+02:00</time>
      </trkpt>
      <trkpt lat="47.69046" lon="6.03757">
        <ele>214.10059</ele>
        <time>2026-05-16T15:20:19+02:00</time>
      </trkpt>
      <trkpt lat="47.69051" lon="6.03761">
        <ele>213.5</ele>
        <time>2026-05-16T15:20:20+02:00</time>
      </trkpt>
      <trkpt lat="47.69057" lon="6.03765">
        <ele>213.5</ele>
        <time>2026-05-16T15:20:21+02:00</time>
      </trkpt>
      <trkpt lat="47.69063" lon="6.03769">
        <ele>212.90039</ele>
        <time>2026-05-16T15:20:22+02:00</time>
      </trkpt>
      <trkpt lat="47.69068" lon="6.03773">
        <ele>212.90039</ele>
        <time>2026-05-16T15:20:23+02:00</time>
      </trkpt>
      <trkpt lat="47.69073" lon="6.03777">
        <ele>212.2998</ele>
        <time>2026-05-16T15:20:24+02:00</time>
      </trkpt>
      <trkpt lat="47.69078" lon="6.03781">
        <ele>212.2002</ele>
        <time>2026-05-16T15:20:25+02:00</time>
      </trkpt>
      <trkpt lat="47.69083" lon="6.03784">
        <ele>212.2002</ele>
        <time>2026-05-16T15:20:26+02:00</time>
      </trkpt>
      <trkpt lat="47.69087" lon="6.03787">
        <ele>211.7002</ele>
        <time>2026-05-16T15:20:27+02:00</time>
      </trkpt>
      <trkpt lat="47.69091" lon="6.0379">
        <ele>211.7002</ele>
        <time>2026-05-16T15:20:28+02:00</time>
      </trkpt>
      <trkpt lat="47.69093" lon="6.03794">
        <ele>211.10059</ele>
        <time>2026-05-16T15:20:29+02:00</time>
      </trkpt>
      <trkpt lat="47.69094" lon="6.03798">
        <ele>211.10059</ele>
        <time>2026-05-16T15:20:30+02:00</time>
      </trkpt>
      <trkpt lat="47.69093" lon="6.03802">
        <ele>210.5</ele>
        <time>2026-05-16T15:20:31+02:00</time>
      </trkpt>
      <trkpt lat="47.69092" lon="6.03807">
        <ele>210.5</ele>
        <time>2026-05-16T15:20:32+02:00</time>
      </trkpt>
      <trkpt lat="47.69091" lon="6.03811">
        <ele>209.7998</ele>
        <time>2026-05-16T15:20:33+02:00</time>
      </trkpt>
      <trkpt lat="47.69089" lon="6.03816">
        <ele>209.7998</ele>
        <time>2026-05-16T15:20:34+02:00</time>
      </trkpt>
      <trkpt lat="47.69087" lon="6.0382">
        <ele>209</ele>
        <time>2026-05-16T15:20:35+02:00</time>
      </trkpt>
      <trkpt lat="47.69079" lon="6.03843">
        <ele>207.60059</ele>
        <time>2026-05-16T15:20:36+02:00</time>
      </trkpt>
      <trkpt lat="47.69076" lon="6.03849">
        <ele>207</ele>
        <time>2026-05-16T15:20:37+02:00</time>
      </trkpt>
      <trkpt lat="47.69073" lon="6.03855">
        <ele>206.5</ele>
        <time>2026-05-16T15:20:38+02:00</time>
      </trkpt>
      <trkpt lat="47.69071" lon="6.03862">
        <ele>206.2002</ele>
        <time>2026-05-16T15:20:39+02:00</time>
      </trkpt>
      <trkpt lat="47.69068" lon="6.03868">
        <ele>206.2998</ele>
        <time>2026-05-16T15:20:40+02:00</time>
      </trkpt>
      <trkpt lat="47.69066" lon="6.03874">
        <ele>206.2002</ele>
        <time>2026-05-16T15:20:41+02:00</time>
      </trkpt>
      <trkpt lat="47.69064" lon="6.0388">
        <ele>206.10059</ele>
        <time>2026-05-16T15:20:42+02:00</time>
      </trkpt>
      <trkpt lat="47.69061" lon="6.03886">
        <ele>206.10059</ele>
        <time>2026-05-16T15:20:43+02:00</time>
      </trkpt>
      <trkpt lat="47.69059" lon="6.03892">
        <ele>206.2002</ele>
        <time>2026-05-16T15:20:44+02:00</time>
      </trkpt>
      <trkpt lat="47.69058" lon="6.03895">
        <ele>206.2002</ele>
        <time>2026-05-16T15:20:45+02:00</time>
      </trkpt>
      <trkpt lat="47.69054" lon="6.03904">
        <ele>206.2002</ele>
        <time>2026-05-16T15:20:46+02:00</time>
      </trkpt>
      <trkpt lat="47.69051" lon="6.03911">
        <ele>206.2002</ele>
        <time>2026-05-16T15:20:47+02:00</time>
      </trkpt>
      <trkpt lat="47.69049" lon="6.03917">
        <ele>206.2002</ele>
        <time>2026-05-16T15:20:48+02:00</time>
      </trkpt>
      <trkpt lat="47.69047" lon="6.03923">
        <ele>206.2002</ele>
        <time>2026-05-16T15:20:49+02:00</time>
      </trkpt>
      <trkpt lat="47.69045" lon="6.03927">
        <ele>206.2998</ele>
        <time>2026-05-16T15:20:50+02:00</time>
      </trkpt>
      <trkpt lat="47.69041" lon="6.03936">
        <ele>206.2998</ele>
        <time>2026-05-16T15:20:51+02:00</time>
      </trkpt>
      <trkpt lat="47.69038" lon="6.03943">
        <ele>206.60059</ele>
        <time>2026-05-16T15:20:52+02:00</time>
      </trkpt>
      <trkpt lat="47.69035" lon="6.0395">
        <ele>207.2002</ele>
        <time>2026-05-16T15:20:53+02:00</time>
      </trkpt>
      <trkpt lat="47.69032" lon="6.03957">
        <ele>207.60059</ele>
        <time>2026-05-16T15:20:54+02:00</time>
      </trkpt>
      <trkpt lat="47.6903" lon="6.03964">
        <ele>207.60059</ele>
        <time>2026-05-16T15:20:55+02:00</time>
      </trkpt>
      <trkpt lat="47.69027" lon="6.03971">
        <ele>208.2998</ele>
        <time>2026-05-16T15:20:56+02:00</time>
      </trkpt>
      <trkpt lat="47.69024" lon="6.03978">
        <ele>208.90039</ele>
        <time>2026-05-16T15:20:57+02:00</time>
      </trkpt>
      <trkpt lat="47.69021" lon="6.03986">
        <ele>209.90039</ele>
        <time>2026-05-16T15:20:58+02:00</time>
      </trkpt>
      <trkpt lat="47.69018" lon="6.03994">
        <ele>210.7002</ele>
        <time>2026-05-16T15:20:59+02:00</time>
      </trkpt>
      <trkpt lat="47.69015" lon="6.04001">
        <ele>211.2002</ele>
        <time>2026-05-16T15:21:00+02:00</time>
      </trkpt>
      <trkpt lat="47.69012" lon="6.04008">
        <ele>211.40039</ele>
        <time>2026-05-16T15:21:01+02:00</time>
      </trkpt>
      <trkpt lat="47.69009" lon="6.04016">
        <ele>211.40039</ele>
        <time>2026-05-16T15:21:02+02:00</time>
      </trkpt>
      <trkpt lat="47.69006" lon="6.04023">
        <ele>211.40039</ele>
        <time>2026-05-16T15:21:03+02:00</time>
      </trkpt>
      <trkpt lat="47.69003" lon="6.04031">
        <ele>211.40039</ele>
        <time>2026-05-16T15:21:04+02:00</time>
      </trkpt>
      <trkpt lat="47.69" lon="6.04038">
        <ele>211.5</ele>
        <time>2026-05-16T15:21:05+02:00</time>
      </trkpt>
      <trkpt lat="47.68998" lon="6.04046">
        <ele>211.60059</ele>
        <time>2026-05-16T15:21:06+02:00</time>
      </trkpt>
      <trkpt lat="47.68995" lon="6.04054">
        <ele>211.60059</ele>
        <time>2026-05-16T15:21:07+02:00</time>
      </trkpt>
      <trkpt lat="47.68992" lon="6.04061">
        <ele>211.7002</ele>
        <time>2026-05-16T15:21:08+02:00</time>
      </trkpt>
      <trkpt lat="47.68988" lon="6.04068">
        <ele>211.7002</ele>
        <time>2026-05-16T15:21:09+02:00</time>
      </trkpt>
      <trkpt lat="47.68985" lon="6.04076">
        <ele>211.7002</ele>
        <time>2026-05-16T15:21:10+02:00</time>
      </trkpt>
      <trkpt lat="47.68982" lon="6.04083">
        <ele>211.7002</ele>
        <time>2026-05-16T15:21:11+02:00</time>
      </trkpt>
      <trkpt lat="47.6898" lon="6.04091">
        <ele>211.7002</ele>
        <time>2026-05-16T15:21:12+02:00</time>
      </trkpt>
      <trkpt lat="47.68977" lon="6.04099">
        <ele>211.7002</ele>
        <time>2026-05-16T15:21:13+02:00</time>
      </trkpt>
      <trkpt lat="47.68975" lon="6.04106">
        <ele>211.7002</ele>
        <time>2026-05-16T15:21:14+02:00</time>
      </trkpt>
      <trkpt lat="47.68972" lon="6.04113">
        <ele>211.7002</ele>
        <time>2026-05-16T15:21:15+02:00</time>
      </trkpt>
      <trkpt lat="47.68969" lon="6.0412">
        <ele>211.7998</ele>
        <time>2026-05-16T15:21:16+02:00</time>
      </trkpt>
      <trkpt lat="47.68966" lon="6.04127">
        <ele>211.7998</ele>
        <time>2026-05-16T15:21:17+02:00</time>
      </trkpt>
      <trkpt lat="47.68963" lon="6.04134">
        <ele>211.7998</ele>
        <time>2026-05-16T15:21:18+02:00</time>
      </trkpt>
      <trkpt lat="47.6896" lon="6.04141">
        <ele>211.90039</ele>
        <time>2026-05-16T15:21:19+02:00</time>
      </trkpt>
      <trkpt lat="47.68957" lon="6.04149">
        <ele>212.10059</ele>
        <time>2026-05-16T15:21:20+02:00</time>
      </trkpt>
      <trkpt lat="47.68953" lon="6.04156">
        <ele>212.40039</ele>
        <time>2026-05-16T15:21:21+02:00</time>
      </trkpt>
      <trkpt lat="47.6895" lon="6.04164">
        <ele>212.60059</ele>
        <time>2026-05-16T15:21:22+02:00</time>
      </trkpt>
      <trkpt lat="47.68947" lon="6.04172">
        <ele>212.90039</ele>
        <time>2026-05-16T15:21:23+02:00</time>
      </trkpt>
      <trkpt lat="47.68944" lon="6.04179">
        <ele>212.90039</ele>
        <time>2026-05-16T15:21:24+02:00</time>
      </trkpt>
      <trkpt lat="47.68941" lon="6.04187">
        <ele>213.10059</ele>
        <time>2026-05-16T15:21:25+02:00</time>
      </trkpt>
      <trkpt lat="47.68938" lon="6.04194">
        <ele>213.2002</ele>
        <time>2026-05-16T15:21:26+02:00</time>
      </trkpt>
      <trkpt lat="47.68935" lon="6.04202">
        <ele>213.40039</ele>
        <time>2026-05-16T15:21:27+02:00</time>
      </trkpt>
      <trkpt lat="47.68932" lon="6.04209">
        <ele>213.5</ele>
        <time>2026-05-16T15:21:28+02:00</time>
      </trkpt>
      <trkpt lat="47.68931" lon="6.04212">
        <ele>213.60059</ele>
        <time>2026-05-16T15:21:29+02:00</time>
      </trkpt>
      <trkpt lat="47.68926" lon="6.04222">
        <ele>213.7998</ele>
        <time>2026-05-16T15:21:30+02:00</time>
      </trkpt>
      <trkpt lat="47.68924" lon="6.04228">
        <ele>214.10059</ele>
        <time>2026-05-16T15:21:31+02:00</time>
      </trkpt>
      <trkpt lat="47.68923" lon="6.04233">
        <ele>214.5</ele>
        <time>2026-05-16T15:21:32+02:00</time>
      </trkpt>
      <trkpt lat="47.68921" lon="6.04237">
        <ele>214.5</ele>
        <time>2026-05-16T15:21:33+02:00</time>
      </trkpt>
      <trkpt lat="47.6892" lon="6.0424">
        <ele>214.90039</ele>
        <time>2026-05-16T15:21:34+02:00</time>
      </trkpt>
      <trkpt lat="47.68919" lon="6.04243">
        <ele>214.90039</ele>
        <time>2026-05-16T15:21:35+02:00</time>
      </trkpt>
      <trkpt lat="47.68918" lon="6.04246">
        <ele>214.90039</ele>
        <time>2026-05-16T15:21:36+02:00</time>
      </trkpt>
      <trkpt lat="47.68918" lon="6.04249">
        <ele>215.40039</ele>
        <time>2026-05-16T15:21:37+02:00</time>
      </trkpt>
      <trkpt lat="47.68918" lon="6.04252">
        <ele>215.40039</ele>
        <time>2026-05-16T15:21:38+02:00</time>
      </trkpt>
      <trkpt lat="47.68919" lon="6.04253">
        <ele>215.40039</ele>
        <time>2026-05-16T15:21:39+02:00</time>
      </trkpt>
      <trkpt lat="47.6892" lon="6.04253">
        <ele>215.40039</ele>
        <time>2026-05-16T15:21:40+02:00</time>
      </trkpt>
      <trkpt lat="47.6892" lon="6.04253">
        <ele>215.40039</ele>
        <time>2026-05-16T15:21:41+02:00</time>
      </trkpt>
      <trkpt lat="47.6892" lon="6.04253">
        <ele>215.40039</ele>
        <time>2026-05-16T15:21:42+02:00</time>
      </trkpt>
      <trkpt lat="47.6892" lon="6.04253">
        <ele>215.40039</ele>
        <time>2026-05-16T15:21:43+02:00</time>
      </trkpt>
      <trkpt lat="47.6892" lon="6.04253">
        <ele>215.40039</ele>
        <time>2026-05-16T15:28:02+02:00</time>
      </trkpt>
      <trkpt lat="47.6892" lon="6.04253">
        <ele>215.40039</ele>
        <time>2026-05-16T15:28:03+02:00</time>
      </trkpt>
      <trkpt lat="47.6892" lon="6.04253">
        <ele>215.40039</ele>
        <time>2026-05-16T15:28:04+02:00</time>
      </trkpt>
      <trkpt lat="47.6892" lon="6.04253">
        <ele>215.40039</ele>
        <time>2026-05-16T15:28:05+02:00</time>
      </trkpt>
      <trkpt lat="47.6892" lon="6.04253">
        <ele>215.40039</ele>
        <time>2026-05-16T15:28:06+02:00</time>
      </trkpt>
      <trkpt lat="47.6892" lon="6.04253">
        <ele>215.40039</ele>
        <time>2026-05-16T15:28:07+02:00</time>
      </trkpt>
      <trkpt lat="47.6892" lon="6.04253">
        <ele>215.40039</ele>
        <time>2026-05-16T15:28:08+02:00</time>
      </trkpt>
      <trkpt lat="47.6892" lon="6.04253">
        <ele>215.40039</ele>
        <time>2026-05-16T15:28:09+02:00</time>
      </trkpt>
      <trkpt lat="47.6892" lon="6.04253">
        <ele>215.40039</ele>
        <time>2026-05-16T15:28:10+02:00</time>
      </trkpt>
      <trkpt lat="47.68902" lon="6.04274">
        <ele>217.2002</ele>
        <time>2026-05-16T15:28:11+02:00</time>
      </trkpt>
      <trkpt lat="47.68902" lon="6.04276">
        <ele>217.2002</ele>
        <time>2026-05-16T15:28:12+02:00</time>
      </trkpt>
      <trkpt lat="47.68902" lon="6.04278">
        <ele>217.2002</ele>
        <time>2026-05-16T15:28:13+02:00</time>
      </trkpt>
      <trkpt lat="47.68901" lon="6.04281">
        <ele>217.2002</ele>
        <time>2026-05-16T15:28:14+02:00</time>
      </trkpt>
      <trkpt lat="47.689" lon="6.04285">
        <ele>217.7002</ele>
        <time>2026-05-16T15:28:15+02:00</time>
      </trkpt>
      <trkpt lat="47.68899" lon="6.04289">
        <ele>217.7002</ele>
        <time>2026-05-16T15:28:16+02:00</time>
      </trkpt>
      <trkpt lat="47.68898" lon="6.04293">
        <ele>218.2002</ele>
        <time>2026-05-16T15:28:17+02:00</time>
      </trkpt>
      <trkpt lat="47.68896" lon="6.04297">
        <ele>218.40039</ele>
        <time>2026-05-16T15:28:18+02:00</time>
      </trkpt>
      <trkpt lat="47.68894" lon="6.04303">
        <ele>218.90039</ele>
        <time>2026-05-16T15:28:19+02:00</time>
      </trkpt>
      <trkpt lat="47.68892" lon="6.04308">
        <ele>218.90039</ele>
        <time>2026-05-16T15:28:20+02:00</time>
      </trkpt>
      <trkpt lat="47.68891" lon="6.04314">
        <ele>219.5</ele>
        <time>2026-05-16T15:28:21+02:00</time>
      </trkpt>
      <trkpt lat="47.68889" lon="6.04319">
        <ele>220.2002</ele>
        <time>2026-05-16T15:28:22+02:00</time>
      </trkpt>
      <trkpt lat="47.68889" lon="6.04324">
        <ele>220.2002</ele>
        <time>2026-05-16T15:28:23+02:00</time>
      </trkpt>
      <trkpt lat="47.68892" lon="6.04328">
        <ele>220.2002</ele>
        <time>2026-05-16T15:28:24+02:00</time>
      </trkpt>
      <trkpt lat="47.68895" lon="6.04331">
        <ele>220.2002</ele>
        <time>2026-05-16T15:28:25+02:00</time>
      </trkpt>
      <trkpt lat="47.68899" lon="6.04333">
        <ele>219.90039</ele>
        <time>2026-05-16T15:28:26+02:00</time>
      </trkpt>
      <trkpt lat="47.68902" lon="6.04333">
        <ele>219.90039</ele>
        <time>2026-05-16T15:28:27+02:00</time>
      </trkpt>
      <trkpt lat="47.68906" lon="6.04334">
        <ele>220</ele>
        <time>2026-05-16T15:28:28+02:00</time>
      </trkpt>
      <trkpt lat="47.6891" lon="6.04334">
        <ele>219.7998</ele>
        <time>2026-05-16T15:28:29+02:00</time>
      </trkpt>
      <trkpt lat="47.68913" lon="6.04334">
        <ele>219.7998</ele>
        <time>2026-05-16T15:28:30+02:00</time>
      </trkpt>
      <trkpt lat="47.68917" lon="6.04333">
        <ele>219.60059</ele>
        <time>2026-05-16T15:28:31+02:00</time>
      </trkpt>
      <trkpt lat="47.68921" lon="6.04331">
        <ele>219.7002</ele>
        <time>2026-05-16T15:28:32+02:00</time>
      </trkpt>
      <trkpt lat="47.68925" lon="6.0433">
        <ele>219.7002</ele>
        <time>2026-05-16T15:28:33+02:00</time>
      </trkpt>
      <trkpt lat="47.68929" lon="6.0433">
        <ele>219.90039</ele>
        <time>2026-05-16T15:28:34+02:00</time>
      </trkpt>
      <trkpt lat="47.68933" lon="6.04329">
        <ele>220.10059</ele>
        <time>2026-05-16T15:28:35+02:00</time>
      </trkpt>
      <trkpt lat="47.68937" lon="6.04327">
        <ele>220.10059</ele>
        <time>2026-05-16T15:28:36+02:00</time>
      </trkpt>
      <trkpt lat="47.68941" lon="6.04326">
        <ele>220.40039</ele>
        <time>2026-05-16T15:28:37+02:00</time>
      </trkpt>
      <trkpt lat="47.68946" lon="6.04324">
        <ele>220.5</ele>
        <time>2026-05-16T15:28:38+02:00</time>
      </trkpt>
      <trkpt lat="47.68951" lon="6.04322">
        <ele>220.90039</ele>
        <time>2026-05-16T15:28:39+02:00</time>
      </trkpt>
      <trkpt lat="47.68956" lon="6.0432">
        <ele>221.2998</ele>
        <time>2026-05-16T15:28:40+02:00</time>
      </trkpt>
      <trkpt lat="47.6896" lon="6.04319">
        <ele>221.7998</ele>
        <time>2026-05-16T15:28:41+02:00</time>
      </trkpt>
      <trkpt lat="47.68965" lon="6.04318">
        <ele>221.7998</ele>
        <time>2026-05-16T15:28:42+02:00</time>
      </trkpt>
      <trkpt lat="47.6897" lon="6.04318">
        <ele>222.2998</ele>
        <time>2026-05-16T15:28:43+02:00</time>
      </trkpt>
      <trkpt lat="47.68975" lon="6.04316">
        <ele>222.2998</ele>
        <time>2026-05-16T15:28:44+02:00</time>
      </trkpt>
      <trkpt lat="47.68979" lon="6.04315">
        <ele>222.7998</ele>
        <time>2026-05-16T15:28:45+02:00</time>
      </trkpt>
      <trkpt lat="47.68985" lon="6.04313">
        <ele>223.2998</ele>
        <time>2026-05-16T15:28:46+02:00</time>
      </trkpt>
      <trkpt lat="47.6899" lon="6.04313">
        <ele>223.90039</ele>
        <time>2026-05-16T15:28:47+02:00</time>
      </trkpt>
      <trkpt lat="47.68996" lon="6.04313">
        <ele>224.40039</ele>
        <time>2026-05-16T15:28:48+02:00</time>
      </trkpt>
      <trkpt lat="47.69001" lon="6.04313">
        <ele>224.7998</ele>
        <time>2026-05-16T15:28:49+02:00</time>
      </trkpt>
      <trkpt lat="47.69006" lon="6.04314">
        <ele>224.7998</ele>
        <time>2026-05-16T15:28:50+02:00</time>
      </trkpt>
      <trkpt lat="47.69013" lon="6.04316">
        <ele>225.7998</ele>
        <time>2026-05-16T15:28:51+02:00</time>
      </trkpt>
      <trkpt lat="47.69019" lon="6.04317">
        <ele>226.7998</ele>
        <time>2026-05-16T15:28:52+02:00</time>
      </trkpt>
      <trkpt lat="47.69024" lon="6.04318">
        <ele>227.2002</ele>
        <time>2026-05-16T15:28:53+02:00</time>
      </trkpt>
      <trkpt lat="47.6903" lon="6.0432">
        <ele>227.5</ele>
        <time>2026-05-16T15:28:54+02:00</time>
      </trkpt>
      <trkpt lat="47.69035" lon="6.04322">
        <ele>227.5</ele>
        <time>2026-05-16T15:28:55+02:00</time>
      </trkpt>
      <trkpt lat="47.69042" lon="6.04325">
        <ele>227.90039</ele>
        <time>2026-05-16T15:28:56+02:00</time>
      </trkpt>
      <trkpt lat="47.69047" lon="6.04327">
        <ele>228.5</ele>
        <time>2026-05-16T15:28:57+02:00</time>
      </trkpt>
      <trkpt lat="47.69053" lon="6.04329">
        <ele>228.60059</ele>
        <time>2026-05-16T15:28:58+02:00</time>
      </trkpt>
      <trkpt lat="47.69056" lon="6.0433">
        <ele>228.60059</ele>
        <time>2026-05-16T15:28:59+02:00</time>
      </trkpt>
      <trkpt lat="47.69065" lon="6.04334">
        <ele>229.2998</ele>
        <time>2026-05-16T15:29:00+02:00</time>
      </trkpt>
      <trkpt lat="47.69071" lon="6.04336">
        <ele>229.2998</ele>
        <time>2026-05-16T15:29:01+02:00</time>
      </trkpt>
      <trkpt lat="47.69077" lon="6.04338">
        <ele>229.2998</ele>
        <time>2026-05-16T15:29:02+02:00</time>
      </trkpt>
      <trkpt lat="47.69082" lon="6.04339">
        <ele>229.2998</ele>
        <time>2026-05-16T15:29:03+02:00</time>
      </trkpt>
      <trkpt lat="47.69088" lon="6.0434">
        <ele>229.2002</ele>
        <time>2026-05-16T15:29:04+02:00</time>
      </trkpt>
      <trkpt lat="47.69094" lon="6.04342">
        <ele>229.2002</ele>
        <time>2026-05-16T15:29:05+02:00</time>
      </trkpt>
      <trkpt lat="47.691" lon="6.04343">
        <ele>230</ele>
        <time>2026-05-16T15:29:06+02:00</time>
      </trkpt>
      <trkpt lat="47.69107" lon="6.04345">
        <ele>230</ele>
        <time>2026-05-16T15:29:07+02:00</time>
      </trkpt>
      <trkpt lat="47.69113" lon="6.04346">
        <ele>229.90039</ele>
        <time>2026-05-16T15:29:08+02:00</time>
      </trkpt>
      <trkpt lat="47.6912" lon="6.04347">
        <ele>229.7998</ele>
        <time>2026-05-16T15:29:09+02:00</time>
      </trkpt>
      <trkpt lat="47.69127" lon="6.04349">
        <ele>229.60059</ele>
        <time>2026-05-16T15:29:10+02:00</time>
      </trkpt>
      <trkpt lat="47.69133" lon="6.0435">
        <ele>229.40039</ele>
        <time>2026-05-16T15:29:11+02:00</time>
      </trkpt>
      <trkpt lat="47.6914" lon="6.04352">
        <ele>229.90039</ele>
        <time>2026-05-16T15:29:12+02:00</time>
      </trkpt>
      <trkpt lat="47.69146" lon="6.04354">
        <ele>229.60059</ele>
        <time>2026-05-16T15:29:13+02:00</time>
      </trkpt>
      <trkpt lat="47.69152" lon="6.04357">
        <ele>229.2998</ele>
        <time>2026-05-16T15:29:14+02:00</time>
      </trkpt>
      <trkpt lat="47.69158" lon="6.04359">
        <ele>229</ele>
        <time>2026-05-16T15:29:15+02:00</time>
      </trkpt>
      <trkpt lat="47.69164" lon="6.04361">
        <ele>229.90039</ele>
        <time>2026-05-16T15:29:16+02:00</time>
      </trkpt>
      <trkpt lat="47.6917" lon="6.04363">
        <ele>229.60059</ele>
        <time>2026-05-16T15:29:17+02:00</time>
      </trkpt>
      <trkpt lat="47.69175" lon="6.04364">
        <ele>229.2998</ele>
        <time>2026-05-16T15:29:18+02:00</time>
      </trkpt>
      <trkpt lat="47.6918" lon="6.04366">
        <ele>229</ele>
        <time>2026-05-16T15:29:19+02:00</time>
      </trkpt>
      <trkpt lat="47.69186" lon="6.04367">
        <ele>228.60059</ele>
        <time>2026-05-16T15:29:20+02:00</time>
      </trkpt>
      <trkpt lat="47.69188" lon="6.04368">
        <ele>228.60059</ele>
        <time>2026-05-16T15:29:21+02:00</time>
      </trkpt>
      <trkpt lat="47.69196" lon="6.04371">
        <ele>229.10059</ele>
        <time>2026-05-16T15:29:22+02:00</time>
      </trkpt>
      <trkpt lat="47.692" lon="6.04373">
        <ele>228.2998</ele>
        <time>2026-05-16T15:29:23+02:00</time>
      </trkpt>
      <trkpt lat="47.69205" lon="6.04374">
        <ele>227.10059</ele>
        <time>2026-05-16T15:29:24+02:00</time>
      </trkpt>
      <trkpt lat="47.69208" lon="6.04376">
        <ele>227.10059</ele>
        <time>2026-05-16T15:29:25+02:00</time>
      </trkpt>
      <trkpt lat="47.69215" lon="6.04379">
        <ele>226.40039</ele>
        <time>2026-05-16T15:29:26+02:00</time>
      </trkpt>
      <trkpt lat="47.6922" lon="6.04381">
        <ele>226.40039</ele>
        <time>2026-05-16T15:29:27+02:00</time>
      </trkpt>
      <trkpt lat="47.69223" lon="6.04382">
        <ele>225.40039</ele>
        <time>2026-05-16T15:29:28+02:00</time>
      </trkpt>
      <trkpt lat="47.69231" lon="6.04386">
        <ele>226.2002</ele>
        <time>2026-05-16T15:29:29+02:00</time>
      </trkpt>
      <trkpt lat="47.69237" lon="6.04388">
        <ele>225.2002</ele>
        <time>2026-05-16T15:29:30+02:00</time>
      </trkpt>
      <trkpt lat="47.69243" lon="6.0439">
        <ele>224.10059</ele>
        <time>2026-05-16T15:29:31+02:00</time>
      </trkpt>
      <trkpt lat="47.69249" lon="6.04392">
        <ele>223</ele>
        <time>2026-05-16T15:29:32+02:00</time>
      </trkpt>
      <trkpt lat="47.69255" lon="6.04394">
        <ele>222.60059</ele>
        <time>2026-05-16T15:29:33+02:00</time>
      </trkpt>
      <trkpt lat="47.69261" lon="6.04396">
        <ele>221.60059</ele>
        <time>2026-05-16T15:29:34+02:00</time>
      </trkpt>
      <trkpt lat="47.69266" lon="6.04397">
        <ele>221.60059</ele>
        <time>2026-05-16T15:29:35+02:00</time>
      </trkpt>
      <trkpt lat="47.69272" lon="6.04399">
        <ele>220.60059</ele>
        <time>2026-05-16T15:29:36+02:00</time>
      </trkpt>
      <trkpt lat="47.69277" lon="6.044">
        <ele>219.60059</ele>
        <time>2026-05-16T15:29:37+02:00</time>
      </trkpt>
      <trkpt lat="47.69282" lon="6.04401">
        <ele>218.60059</ele>
        <time>2026-05-16T15:29:38+02:00</time>
      </trkpt>
      <trkpt lat="47.69287" lon="6.04402">
        <ele>217.7002</ele>
        <time>2026-05-16T15:29:39+02:00</time>
      </trkpt>
      <trkpt lat="47.69293" lon="6.04403">
        <ele>218.2998</ele>
        <time>2026-05-16T15:29:40+02:00</time>
      </trkpt>
      <trkpt lat="47.69299" lon="6.04404">
        <ele>217.5</ele>
        <time>2026-05-16T15:29:41+02:00</time>
      </trkpt>
      <trkpt lat="47.69304" lon="6.04405">
        <ele>216.7998</ele>
        <time>2026-05-16T15:29:42+02:00</time>
      </trkpt>
      <trkpt lat="47.6931" lon="6.04406">
        <ele>216.10059</ele>
        <time>2026-05-16T15:29:43+02:00</time>
      </trkpt>
      <trkpt lat="47.69316" lon="6.04407">
        <ele>215.7002</ele>
        <time>2026-05-16T15:29:44+02:00</time>
      </trkpt>
      <trkpt lat="47.69322" lon="6.04408">
        <ele>215.2998</ele>
        <time>2026-05-16T15:29:45+02:00</time>
      </trkpt>
      <trkpt lat="47.69328" lon="6.0441">
        <ele>214.90039</ele>
        <time>2026-05-16T15:29:46+02:00</time>
      </trkpt>
      <trkpt lat="47.69334" lon="6.04411">
        <ele>214.5</ele>
        <time>2026-05-16T15:29:47+02:00</time>
      </trkpt>
      <trkpt lat="47.6934" lon="6.04412">
        <ele>215.7002</ele>
        <time>2026-05-16T15:29:48+02:00</time>
      </trkpt>
      <trkpt lat="47.69346" lon="6.04413">
        <ele>215.2998</ele>
        <time>2026-05-16T15:29:49+02:00</time>
      </trkpt>
      <trkpt lat="47.69352" lon="6.04413">
        <ele>214.90039</ele>
        <time>2026-05-16T15:29:50+02:00</time>
      </trkpt>
      <trkpt lat="47.69358" lon="6.04414">
        <ele>214.5</ele>
        <time>2026-05-16T15:29:51+02:00</time>
      </trkpt>
      <trkpt lat="47.69364" lon="6.04415">
        <ele>214.10059</ele>
        <time>2026-05-16T15:29:52+02:00</time>
      </trkpt>
      <trkpt lat="47.6937" lon="6.04416">
        <ele>213.7002</ele>
        <time>2026-05-16T15:29:53+02:00</time>
      </trkpt>
      <trkpt lat="47.69376" lon="6.04417">
        <ele>213.40039</ele>
        <time>2026-05-16T15:29:54+02:00</time>
      </trkpt>
      <trkpt lat="47.69381" lon="6.04418">
        <ele>213.2002</ele>
        <time>2026-05-16T15:29:55+02:00</time>
      </trkpt>
      <trkpt lat="47.69387" lon="6.04419">
        <ele>213</ele>
        <time>2026-05-16T15:29:56+02:00</time>
      </trkpt>
      <trkpt lat="47.69393" lon="6.0442">
        <ele>214.5</ele>
        <time>2026-05-16T15:29:57+02:00</time>
      </trkpt>
      <trkpt lat="47.69399" lon="6.0442">
        <ele>214.5</ele>
        <time>2026-05-16T15:29:58+02:00</time>
      </trkpt>
      <trkpt lat="47.69405" lon="6.04421">
        <ele>214.5</ele>
        <time>2026-05-16T15:29:59+02:00</time>
      </trkpt>
      <trkpt lat="47.69411" lon="6.04422">
        <ele>214.2002</ele>
        <time>2026-05-16T15:30:00+02:00</time>
      </trkpt>
      <trkpt lat="47.69417" lon="6.04422">
        <ele>214.10059</ele>
        <time>2026-05-16T15:30:01+02:00</time>
      </trkpt>
      <trkpt lat="47.69423" lon="6.04423">
        <ele>213.7998</ele>
        <time>2026-05-16T15:30:02+02:00</time>
      </trkpt>
      <trkpt lat="47.69429" lon="6.04423">
        <ele>213.60059</ele>
        <time>2026-05-16T15:30:03+02:00</time>
      </trkpt>
      <trkpt lat="47.69435" lon="6.04424">
        <ele>213.2002</ele>
        <time>2026-05-16T15:30:04+02:00</time>
      </trkpt>
      <trkpt lat="47.69441" lon="6.04425">
        <ele>212.90039</ele>
        <time>2026-05-16T15:30:05+02:00</time>
      </trkpt>
      <trkpt lat="47.69447" lon="6.04426">
        <ele>212.7002</ele>
        <time>2026-05-16T15:30:06+02:00</time>
      </trkpt>
      <trkpt lat="47.69453" lon="6.04427">
        <ele>212.5</ele>
        <time>2026-05-16T15:30:07+02:00</time>
      </trkpt>
      <trkpt lat="47.69459" lon="6.04428">
        <ele>212.5</ele>
        <time>2026-05-16T15:30:08+02:00</time>
      </trkpt>
      <trkpt lat="47.69465" lon="6.04429">
        <ele>214.2998</ele>
        <time>2026-05-16T15:30:09+02:00</time>
      </trkpt>
      <trkpt lat="47.69471" lon="6.0443">
        <ele>214.2998</ele>
        <time>2026-05-16T15:30:10+02:00</time>
      </trkpt>
      <trkpt lat="47.69476" lon="6.04431">
        <ele>214.40039</ele>
        <time>2026-05-16T15:30:11+02:00</time>
      </trkpt>
      <trkpt lat="47.69483" lon="6.04432">
        <ele>214.5</ele>
        <time>2026-05-16T15:30:12+02:00</time>
      </trkpt>
      <trkpt lat="47.69488" lon="6.04433">
        <ele>214.60059</ele>
        <time>2026-05-16T15:30:13+02:00</time>
      </trkpt>
      <trkpt lat="47.69494" lon="6.04433">
        <ele>214.5</ele>
        <time>2026-05-16T15:30:14+02:00</time>
      </trkpt>
      <trkpt lat="47.695" lon="6.04434">
        <ele>214.2002</ele>
        <time>2026-05-16T15:30:15+02:00</time>
      </trkpt>
      <trkpt lat="47.69506" lon="6.04434">
        <ele>213.60059</ele>
        <time>2026-05-16T15:30:16+02:00</time>
      </trkpt>
      <trkpt lat="47.69512" lon="6.04434">
        <ele>213.10059</ele>
        <time>2026-05-16T15:30:17+02:00</time>
      </trkpt>
      <trkpt lat="47.69517" lon="6.04435">
        <ele>212.7002</ele>
        <time>2026-05-16T15:30:18+02:00</time>
      </trkpt>
      <trkpt lat="47.69523" lon="6.04435">
        <ele>212.5</ele>
        <time>2026-05-16T15:30:19+02:00</time>
      </trkpt>
      <trkpt lat="47.69526" lon="6.04435">
        <ele>212.5</ele>
        <time>2026-05-16T15:30:20+02:00</time>
      </trkpt>
      <trkpt lat="47.69534" lon="6.04436">
        <ele>212</ele>
        <time>2026-05-16T15:30:21+02:00</time>
      </trkpt>
      <trkpt lat="47.6954" lon="6.04436">
        <ele>211.7998</ele>
        <time>2026-05-16T15:30:22+02:00</time>
      </trkpt>
      <trkpt lat="47.69545" lon="6.04436">
        <ele>211.7002</ele>
        <time>2026-05-16T15:30:23+02:00</time>
      </trkpt>
      <trkpt lat="47.6955" lon="6.04436">
        <ele>211.60059</ele>
        <time>2026-05-16T15:30:24+02:00</time>
      </trkpt>
      <trkpt lat="47.69556" lon="6.04436">
        <ele>211.5</ele>
        <time>2026-05-16T15:30:25+02:00</time>
      </trkpt>
      <trkpt lat="47.69561" lon="6.04436">
        <ele>211.40039</ele>
        <time>2026-05-16T15:30:26+02:00</time>
      </trkpt>
      <trkpt lat="47.69566" lon="6.04436">
        <ele>211.40039</ele>
        <time>2026-05-16T15:30:27+02:00</time>
      </trkpt>
      <trkpt lat="47.69572" lon="6.04436">
        <ele>211.40039</ele>
        <time>2026-05-16T15:30:28+02:00</time>
      </trkpt>
      <trkpt lat="47.69577" lon="6.04436">
        <ele>211.5</ele>
        <time>2026-05-16T15:30:29+02:00</time>
      </trkpt>
      <trkpt lat="47.69582" lon="6.04436">
        <ele>211.7002</ele>
        <time>2026-05-16T15:30:30+02:00</time>
      </trkpt>
      <trkpt lat="47.69588" lon="6.04436">
        <ele>212</ele>
        <time>2026-05-16T15:30:31+02:00</time>
      </trkpt>
      <trkpt lat="47.69593" lon="6.04436">
        <ele>212.5</ele>
        <time>2026-05-16T15:30:32+02:00</time>
      </trkpt>
      <trkpt lat="47.69599" lon="6.04436">
        <ele>213.10059</ele>
        <time>2026-05-16T15:30:33+02:00</time>
      </trkpt>
      <trkpt lat="47.69604" lon="6.04436">
        <ele>213.7998</ele>
        <time>2026-05-16T15:30:34+02:00</time>
      </trkpt>
      <trkpt lat="47.69609" lon="6.04436">
        <ele>214.5</ele>
        <time>2026-05-16T15:30:35+02:00</time>
      </trkpt>
      <trkpt lat="47.69615" lon="6.04436">
        <ele>215.2002</ele>
        <time>2026-05-16T15:30:36+02:00</time>
      </trkpt>
      <trkpt lat="47.6962" lon="6.04436">
        <ele>215.90039</ele>
        <time>2026-05-16T15:30:37+02:00</time>
      </trkpt>
      <trkpt lat="47.69626" lon="6.04435">
        <ele>216.60059</ele>
        <time>2026-05-16T15:30:38+02:00</time>
      </trkpt>
      <trkpt lat="47.69631" lon="6.04435">
        <ele>217.2998</ele>
        <time>2026-05-16T15:30:39+02:00</time>
      </trkpt>
      <trkpt lat="47.69636" lon="6.04435">
        <ele>218</ele>
        <time>2026-05-16T15:30:40+02:00</time>
      </trkpt>
      <trkpt lat="47.69642" lon="6.04435">
        <ele>218.7002</ele>
        <time>2026-05-16T15:30:41+02:00</time>
      </trkpt>
      <trkpt lat="47.69648" lon="6.04435">
        <ele>219.40039</ele>
        <time>2026-05-16T15:30:42+02:00</time>
      </trkpt>
      <trkpt lat="47.69653" lon="6.04435">
        <ele>219.40039</ele>
        <time>2026-05-16T15:30:43+02:00</time>
      </trkpt>
      <trkpt lat="47.69659" lon="6.04434">
        <ele>220.10059</ele>
        <time>2026-05-16T15:30:44+02:00</time>
      </trkpt>
      <trkpt lat="47.69664" lon="6.04434">
        <ele>220.7002</ele>
        <time>2026-05-16T15:30:45+02:00</time>
      </trkpt>
      <trkpt lat="47.6967" lon="6.04433">
        <ele>221.40039</ele>
        <time>2026-05-16T15:30:46+02:00</time>
      </trkpt>
      <trkpt lat="47.69676" lon="6.04433">
        <ele>222.10059</ele>
        <time>2026-05-16T15:30:47+02:00</time>
      </trkpt>
      <trkpt lat="47.69681" lon="6.04433">
        <ele>222.7998</ele>
        <time>2026-05-16T15:30:48+02:00</time>
      </trkpt>
      <trkpt lat="47.69687" lon="6.04432">
        <ele>223.5</ele>
        <time>2026-05-16T15:30:49+02:00</time>
      </trkpt>
      <trkpt lat="47.69692" lon="6.04432">
        <ele>224.2998</ele>
        <time>2026-05-16T15:30:50+02:00</time>
      </trkpt>
      <trkpt lat="47.69697" lon="6.04432">
        <ele>225.10059</ele>
        <time>2026-05-16T15:30:51+02:00</time>
      </trkpt>
      <trkpt lat="47.69703" lon="6.04431">
        <ele>226.2002</ele>
        <time>2026-05-16T15:30:52+02:00</time>
      </trkpt>
      <trkpt lat="47.69708" lon="6.04431">
        <ele>227.5</ele>
        <time>2026-05-16T15:30:53+02:00</time>
      </trkpt>
      <trkpt lat="47.69713" lon="6.04431">
        <ele>228.2998</ele>
        <time>2026-05-16T15:30:54+02:00</time>
      </trkpt>
      <trkpt lat="47.69719" lon="6.04431">
        <ele>228.2002</ele>
        <time>2026-05-16T15:30:55+02:00</time>
      </trkpt>
      <trkpt lat="47.69724" lon="6.0443">
        <ele>226.7998</ele>
        <time>2026-05-16T15:30:56+02:00</time>
      </trkpt>
      <trkpt lat="47.69729" lon="6.0443">
        <ele>223.7998</ele>
        <time>2026-05-16T15:30:57+02:00</time>
      </trkpt>
      <trkpt lat="47.69735" lon="6.0443">
        <ele>221.10059</ele>
        <time>2026-05-16T15:30:58+02:00</time>
      </trkpt>
      <trkpt lat="47.6974" lon="6.0443">
        <ele>221.10059</ele>
        <time>2026-05-16T15:30:59+02:00</time>
      </trkpt>
      <trkpt lat="47.69746" lon="6.0443">
        <ele>221.60059</ele>
        <time>2026-05-16T15:31:00+02:00</time>
      </trkpt>
      <trkpt lat="47.69751" lon="6.0443">
        <ele>221.60059</ele>
        <time>2026-05-16T15:31:01+02:00</time>
      </trkpt>
      <trkpt lat="47.69756" lon="6.0443">
        <ele>223</ele>
        <time>2026-05-16T15:31:02+02:00</time>
      </trkpt>
      <trkpt lat="47.69761" lon="6.0443">
        <ele>224.2998</ele>
        <time>2026-05-16T15:31:03+02:00</time>
      </trkpt>
      <trkpt lat="47.69766" lon="6.0443">
        <ele>224.60059</ele>
        <time>2026-05-16T15:31:04+02:00</time>
      </trkpt>
      <trkpt lat="47.69771" lon="6.04431">
        <ele>224.5</ele>
        <time>2026-05-16T15:31:05+02:00</time>
      </trkpt>
      <trkpt lat="47.69776" lon="6.04431">
        <ele>224.2998</ele>
        <time>2026-05-16T15:31:06+02:00</time>
      </trkpt>
      <trkpt lat="47.69781" lon="6.04432">
        <ele>224.10059</ele>
        <time>2026-05-16T15:31:07+02:00</time>
      </trkpt>
      <trkpt lat="47.69785" lon="6.04432">
        <ele>224.10059</ele>
        <time>2026-05-16T15:31:08+02:00</time>
      </trkpt>
      <trkpt lat="47.6979" lon="6.04433">
        <ele>223.90039</ele>
        <time>2026-05-16T15:31:09+02:00</time>
      </trkpt>
      <trkpt lat="47.69795" lon="6.04433">
        <ele>223.60059</ele>
        <time>2026-05-16T15:31:10+02:00</time>
      </trkpt>
      <trkpt lat="47.69799" lon="6.04434">
        <ele>223.2998</ele>
        <time>2026-05-16T15:31:11+02:00</time>
      </trkpt>
      <trkpt lat="47.69804" lon="6.04435">
        <ele>222.90039</ele>
        <time>2026-05-16T15:31:12+02:00</time>
      </trkpt>
      <trkpt lat="47.69808" lon="6.04435">
        <ele>222.90039</ele>
        <time>2026-05-16T15:31:13+02:00</time>
      </trkpt>
      <trkpt lat="47.69813" lon="6.04435">
        <ele>222.60059</ele>
        <time>2026-05-16T15:31:14+02:00</time>
      </trkpt>
      <trkpt lat="47.69817" lon="6.04436">
        <ele>222.2002</ele>
        <time>2026-05-16T15:31:15+02:00</time>
      </trkpt>
      <trkpt lat="47.69821" lon="6.04436">
        <ele>221.7002</ele>
        <time>2026-05-16T15:31:16+02:00</time>
      </trkpt>
      <trkpt lat="47.69824" lon="6.04436">
        <ele>221.7002</ele>
        <time>2026-05-16T15:31:17+02:00</time>
      </trkpt>
      <trkpt lat="47.6983" lon="6.04437">
        <ele>224.2002</ele>
        <time>2026-05-16T15:31:18+02:00</time>
      </trkpt>
      <trkpt lat="47.69835" lon="6.04437">
        <ele>223.2002</ele>
        <time>2026-05-16T15:31:19+02:00</time>
      </trkpt>
      <trkpt lat="47.69839" lon="6.04437">
        <ele>222</ele>
        <time>2026-05-16T15:31:20+02:00</time>
      </trkpt>
      <trkpt lat="47.69842" lon="6.04437">
        <ele>222</ele>
        <time>2026-05-16T15:31:21+02:00</time>
      </trkpt>
      <trkpt lat="47.69848" lon="6.04438">
        <ele>220.7998</ele>
        <time>2026-05-16T15:31:22+02:00</time>
      </trkpt>
      <trkpt lat="47.69853" lon="6.04438">
        <ele>219.7002</ele>
        <time>2026-05-16T15:31:23+02:00</time>
      </trkpt>
      <trkpt lat="47.69858" lon="6.04438">
        <ele>218.5</ele>
        <time>2026-05-16T15:31:24+02:00</time>
      </trkpt>
      <trkpt lat="47.69859" lon="6.04439">
        <ele>218.5</ele>
        <time>2026-05-16T15:31:25+02:00</time>
      </trkpt>
      <trkpt lat="47.69867" lon="6.04439">
        <ele>217.2002</ele>
        <time>2026-05-16T15:31:26+02:00</time>
      </trkpt>
      <trkpt lat="47.69871" lon="6.04439">
        <ele>216</ele>
        <time>2026-05-16T15:31:27+02:00</time>
      </trkpt>
      <trkpt lat="47.69875" lon="6.04439">
        <ele>215</ele>
        <time>2026-05-16T15:31:28+02:00</time>
      </trkpt>
      <trkpt lat="47.69878" lon="6.04439">
        <ele>215</ele>
        <time>2026-05-16T15:31:29+02:00</time>
      </trkpt>
      <trkpt lat="47.69885" lon="6.04439">
        <ele>213.40039</ele>
        <time>2026-05-16T15:31:30+02:00</time>
      </trkpt>
      <trkpt lat="47.69889" lon="6.0444">
        <ele>213.40039</ele>
        <time>2026-05-16T15:31:31+02:00</time>
      </trkpt>
      <trkpt lat="47.69893" lon="6.0444">
        <ele>213</ele>
        <time>2026-05-16T15:31:32+02:00</time>
      </trkpt>
      <trkpt lat="47.69898" lon="6.0444">
        <ele>212.7002</ele>
        <time>2026-05-16T15:31:33+02:00</time>
      </trkpt>
      <trkpt lat="47.69903" lon="6.0444">
        <ele>212.5</ele>
        <time>2026-05-16T15:31:34+02:00</time>
      </trkpt>
      <trkpt lat="47.69907" lon="6.0444">
        <ele>212.5</ele>
        <time>2026-05-16T15:31:35+02:00</time>
      </trkpt>
      <trkpt lat="47.69912" lon="6.0444">
        <ele>212.5</ele>
        <time>2026-05-16T15:31:36+02:00</time>
      </trkpt>
      <trkpt lat="47.69916" lon="6.0444">
        <ele>212.60059</ele>
        <time>2026-05-16T15:31:37+02:00</time>
      </trkpt>
      <trkpt lat="47.69921" lon="6.0444">
        <ele>212.7002</ele>
        <time>2026-05-16T15:31:38+02:00</time>
      </trkpt>
      <trkpt lat="47.69924" lon="6.0444">
        <ele>212.7002</ele>
        <time>2026-05-16T15:31:39+02:00</time>
      </trkpt>
      <trkpt lat="47.69931" lon="6.0444">
        <ele>213.40039</ele>
        <time>2026-05-16T15:31:40+02:00</time>
      </trkpt>
      <trkpt lat="47.69936" lon="6.0444">
        <ele>213.40039</ele>
        <time>2026-05-16T15:31:41+02:00</time>
      </trkpt>
      <trkpt lat="47.69941" lon="6.04441">
        <ele>213.7002</ele>
        <time>2026-05-16T15:31:42+02:00</time>
      </trkpt>
      <trkpt lat="47.69945" lon="6.04441">
        <ele>214</ele>
        <time>2026-05-16T15:31:43+02:00</time>
      </trkpt>
      <trkpt lat="47.6995" lon="6.04442">
        <ele>214.40039</ele>
        <time>2026-05-16T15:31:44+02:00</time>
      </trkpt>
      <trkpt lat="47.69955" lon="6.04443">
        <ele>214.7998</ele>
        <time>2026-05-16T15:31:45+02:00</time>
      </trkpt>
      <trkpt lat="47.6996" lon="6.04444">
        <ele>215.2002</ele>
        <time>2026-05-16T15:31:46+02:00</time>
      </trkpt>
      <trkpt lat="47.69965" lon="6.04444">
        <ele>215.2002</ele>
        <time>2026-05-16T15:31:47+02:00</time>
      </trkpt>
      <trkpt lat="47.6997" lon="6.04445">
        <ele>215.5</ele>
        <time>2026-05-16T15:31:48+02:00</time>
      </trkpt>
      <trkpt lat="47.69973" lon="6.04446">
        <ele>217.7002</ele>
        <time>2026-05-16T15:31:49+02:00</time>
      </trkpt>
      <trkpt lat="47.69981" lon="6.04448">
        <ele>218.2002</ele>
        <time>2026-05-16T15:31:50+02:00</time>
      </trkpt>
      <trkpt lat="47.69986" lon="6.04449">
        <ele>218.60059</ele>
        <time>2026-05-16T15:31:51+02:00</time>
      </trkpt>
      <trkpt lat="47.69991" lon="6.0445">
        <ele>219</ele>
        <time>2026-05-16T15:31:52+02:00</time>
      </trkpt>
      <trkpt lat="47.69996" lon="6.04451">
        <ele>219.2998</ele>
        <time>2026-05-16T15:31:53+02:00</time>
      </trkpt>
      <trkpt lat="47.70002" lon="6.04452">
        <ele>219.40039</ele>
        <time>2026-05-16T15:31:54+02:00</time>
      </trkpt>
      <trkpt lat="47.70007" lon="6.04453">
        <ele>219.60059</ele>
        <time>2026-05-16T15:31:55+02:00</time>
      </trkpt>
      <trkpt lat="47.7001" lon="6.04453">
        <ele>219.60059</ele>
        <time>2026-05-16T15:31:56+02:00</time>
      </trkpt>
      <trkpt lat="47.70017" lon="6.04454">
        <ele>219.7002</ele>
        <time>2026-05-16T15:31:57+02:00</time>
      </trkpt>
      <trkpt lat="47.70022" lon="6.04453">
        <ele>219.7002</ele>
        <time>2026-05-16T15:31:58+02:00</time>
      </trkpt>
      <trkpt lat="47.70025" lon="6.04452">
        <ele>219.7998</ele>
        <time>2026-05-16T15:31:59+02:00</time>
      </trkpt>
      <trkpt lat="47.70029" lon="6.04449">
        <ele>219.7998</ele>
        <time>2026-05-16T15:32:00+02:00</time>
      </trkpt>
      <trkpt lat="47.70033" lon="6.04445">
        <ele>216.90039</ele>
        <time>2026-05-16T15:32:01+02:00</time>
      </trkpt>
      <trkpt lat="47.70038" lon="6.04442">
        <ele>216.7998</ele>
        <time>2026-05-16T15:32:02+02:00</time>
      </trkpt>
      <trkpt lat="47.70044" lon="6.04437">
        <ele>216.7002</ele>
        <time>2026-05-16T15:32:03+02:00</time>
      </trkpt>
      <trkpt lat="47.70051" lon="6.04432">
        <ele>213.5</ele>
        <time>2026-05-16T15:32:04+02:00</time>
      </trkpt>
      <trkpt lat="47.70059" lon="6.04426">
        <ele>210.90039</ele>
        <time>2026-05-16T15:32:05+02:00</time>
      </trkpt>
      <trkpt lat="47.70066" lon="6.04421">
        <ele>210.40039</ele>
        <time>2026-05-16T15:32:06+02:00</time>
      </trkpt>
      <trkpt lat="47.70074" lon="6.04415">
        <ele>209.5</ele>
        <time>2026-05-16T15:32:07+02:00</time>
      </trkpt>
      <trkpt lat="47.70081" lon="6.0441">
        <ele>210.2002</ele>
        <time>2026-05-16T15:32:08+02:00</time>
      </trkpt>
      <trkpt lat="47.70087" lon="6.04404">
        <ele>211.5</ele>
        <time>2026-05-16T15:32:09+02:00</time>
      </trkpt>
      <trkpt lat="47.70093" lon="6.04397">
        <ele>210.90039</ele>
        <time>2026-05-16T15:32:10+02:00</time>
      </trkpt>
      <trkpt lat="47.70099" lon="6.0439">
        <ele>209.5</ele>
        <time>2026-05-16T15:32:11+02:00</time>
      </trkpt>
      <trkpt lat="47.70104" lon="6.04384">
        <ele>208.2998</ele>
        <time>2026-05-16T15:32:12+02:00</time>
      </trkpt>
      <trkpt lat="47.70109" lon="6.04377">
        <ele>208.60059</ele>
        <time>2026-05-16T15:32:13+02:00</time>
      </trkpt>
      <trkpt lat="47.70114" lon="6.04371">
        <ele>207.7998</ele>
        <time>2026-05-16T15:32:14+02:00</time>
      </trkpt>
      <trkpt lat="47.70119" lon="6.04364">
        <ele>207</ele>
        <time>2026-05-16T15:32:15+02:00</time>
      </trkpt>
      <trkpt lat="47.70124" lon="6.04358">
        <ele>206.40039</ele>
        <time>2026-05-16T15:32:16+02:00</time>
      </trkpt>
      <trkpt lat="47.70129" lon="6.04352">
        <ele>207</ele>
        <time>2026-05-16T15:32:17+02:00</time>
      </trkpt>
      <trkpt lat="47.70133" lon="6.04346">
        <ele>206.90039</ele>
        <time>2026-05-16T15:32:18+02:00</time>
      </trkpt>
      <trkpt lat="47.70138" lon="6.0434">
        <ele>206.7998</ele>
        <time>2026-05-16T15:32:19+02:00</time>
      </trkpt>
      <trkpt lat="47.70142" lon="6.04334">
        <ele>207.2998</ele>
        <time>2026-05-16T15:32:20+02:00</time>
      </trkpt>
      <trkpt lat="47.70147" lon="6.04327">
        <ele>207.10059</ele>
        <time>2026-05-16T15:32:21+02:00</time>
      </trkpt>
      <trkpt lat="47.70152" lon="6.04321">
        <ele>207</ele>
        <time>2026-05-16T15:32:22+02:00</time>
      </trkpt>
      <trkpt lat="47.70157" lon="6.04316">
        <ele>207.10059</ele>
        <time>2026-05-16T15:32:23+02:00</time>
      </trkpt>
      <trkpt lat="47.70162" lon="6.04311">
        <ele>207.60059</ele>
        <time>2026-05-16T15:32:24+02:00</time>
      </trkpt>
      <trkpt lat="47.70166" lon="6.04306">
        <ele>207.10059</ele>
        <time>2026-05-16T15:32:25+02:00</time>
      </trkpt>
      <trkpt lat="47.70171" lon="6.04302">
        <ele>207.40039</ele>
        <time>2026-05-16T15:32:26+02:00</time>
      </trkpt>
      <trkpt lat="47.70174" lon="6.043">
        <ele>207.7998</ele>
        <time>2026-05-16T15:32:27+02:00</time>
      </trkpt>
      <trkpt lat="47.70181" lon="6.04292">
        <ele>207.7002</ele>
        <time>2026-05-16T15:32:28+02:00</time>
      </trkpt>
      <trkpt lat="47.70186" lon="6.04287">
        <ele>207.60059</ele>
        <time>2026-05-16T15:32:29+02:00</time>
      </trkpt>
      <trkpt lat="47.70189" lon="6.04285">
        <ele>207.60059</ele>
        <time>2026-05-16T15:32:30+02:00</time>
      </trkpt>
      <trkpt lat="47.70196" lon="6.04277">
        <ele>207.40039</ele>
        <time>2026-05-16T15:32:31+02:00</time>
      </trkpt>
      <trkpt lat="47.70201" lon="6.04273">
        <ele>207.10059</ele>
        <time>2026-05-16T15:32:32+02:00</time>
      </trkpt>
      <trkpt lat="47.70206" lon="6.0427">
        <ele>207.2998</ele>
        <time>2026-05-16T15:32:33+02:00</time>
      </trkpt>
      <trkpt lat="47.70212" lon="6.04266">
        <ele>207.60059</ele>
        <time>2026-05-16T15:32:34+02:00</time>
      </trkpt>
      <trkpt lat="47.70217" lon="6.04263">
        <ele>207.2998</ele>
        <time>2026-05-16T15:32:35+02:00</time>
      </trkpt>
      <trkpt lat="47.70221" lon="6.04259">
        <ele>207.7002</ele>
        <time>2026-05-16T15:32:36+02:00</time>
      </trkpt>
      <trkpt lat="47.70226" lon="6.04255">
        <ele>207.60059</ele>
        <time>2026-05-16T15:32:37+02:00</time>
      </trkpt>
      <trkpt lat="47.70232" lon="6.04251">
        <ele>208.10059</ele>
        <time>2026-05-16T15:32:38+02:00</time>
      </trkpt>
      <trkpt lat="47.70237" lon="6.04248">
        <ele>207.7998</ele>
        <time>2026-05-16T15:32:39+02:00</time>
      </trkpt>
      <trkpt lat="47.70242" lon="6.04244">
        <ele>207.7998</ele>
        <time>2026-05-16T15:32:40+02:00</time>
      </trkpt>
      <trkpt lat="47.70247" lon="6.0424">
        <ele>208</ele>
        <time>2026-05-16T15:32:41+02:00</time>
      </trkpt>
      <trkpt lat="47.70252" lon="6.04236">
        <ele>207.60059</ele>
        <time>2026-05-16T15:32:42+02:00</time>
      </trkpt>
      <trkpt lat="47.70257" lon="6.04232">
        <ele>207.90039</ele>
        <time>2026-05-16T15:32:43+02:00</time>
      </trkpt>
      <trkpt lat="47.70263" lon="6.04228">
        <ele>207.60059</ele>
        <time>2026-05-16T15:32:44+02:00</time>
      </trkpt>
      <trkpt lat="47.70268" lon="6.04224">
        <ele>208.10059</ele>
        <time>2026-05-16T15:32:45+02:00</time>
      </trkpt>
      <trkpt lat="47.70273" lon="6.04221">
        <ele>207.90039</ele>
        <time>2026-05-16T15:32:46+02:00</time>
      </trkpt>
      <trkpt lat="47.70278" lon="6.04217">
        <ele>208.2998</ele>
        <time>2026-05-16T15:32:47+02:00</time>
      </trkpt>
      <trkpt lat="47.70283" lon="6.04213">
        <ele>208</ele>
        <time>2026-05-16T15:32:48+02:00</time>
      </trkpt>
      <trkpt lat="47.70288" lon="6.0421">
        <ele>208</ele>
        <time>2026-05-16T15:32:49+02:00</time>
      </trkpt>
      <trkpt lat="47.70294" lon="6.04206">
        <ele>208.2998</ele>
        <time>2026-05-16T15:32:50+02:00</time>
      </trkpt>
      <trkpt lat="47.70299" lon="6.04202">
        <ele>207.90039</ele>
        <time>2026-05-16T15:32:51+02:00</time>
      </trkpt>
      <trkpt lat="47.70304" lon="6.04198">
        <ele>208.10059</ele>
        <time>2026-05-16T15:32:52+02:00</time>
      </trkpt>
      <trkpt lat="47.70309" lon="6.04194">
        <ele>207.7998</ele>
        <time>2026-05-16T15:32:53+02:00</time>
      </trkpt>
      <trkpt lat="47.70315" lon="6.04191">
        <ele>208.2998</ele>
        <time>2026-05-16T15:32:54+02:00</time>
      </trkpt>
      <trkpt lat="47.70319" lon="6.04187">
        <ele>208.2002</ele>
        <time>2026-05-16T15:32:55+02:00</time>
      </trkpt>
      <trkpt lat="47.70325" lon="6.04183">
        <ele>208.60059</ele>
        <time>2026-05-16T15:32:56+02:00</time>
      </trkpt>
      <trkpt lat="47.7033" lon="6.04179">
        <ele>208.2002</ele>
        <time>2026-05-16T15:32:57+02:00</time>
      </trkpt>
      <trkpt lat="47.70332" lon="6.04176">
        <ele>208.2002</ele>
        <time>2026-05-16T15:32:58+02:00</time>
      </trkpt>
      <trkpt lat="47.7034" lon="6.0417">
        <ele>207.7998</ele>
        <time>2026-05-16T15:32:59+02:00</time>
      </trkpt>
      <trkpt lat="47.70345" lon="6.04165">
        <ele>208</ele>
        <time>2026-05-16T15:33:00+02:00</time>
      </trkpt>
      <trkpt lat="47.7035" lon="6.04159">
        <ele>207.60059</ele>
        <time>2026-05-16T15:33:01+02:00</time>
      </trkpt>
      <trkpt lat="47.70355" lon="6.04154">
        <ele>207.90039</ele>
        <time>2026-05-16T15:33:02+02:00</time>
      </trkpt>
      <trkpt lat="47.70359" lon="6.04148">
        <ele>207.7998</ele>
        <time>2026-05-16T15:33:03+02:00</time>
      </trkpt>
      <trkpt lat="47.70364" lon="6.04142">
        <ele>207.60059</ele>
        <time>2026-05-16T15:33:04+02:00</time>
      </trkpt>
      <trkpt lat="47.70369" lon="6.04136">
        <ele>207.10059</ele>
        <time>2026-05-16T15:33:05+02:00</time>
      </trkpt>
      <trkpt lat="47.70374" lon="6.04131">
        <ele>207.2998</ele>
        <time>2026-05-16T15:33:06+02:00</time>
      </trkpt>
      <trkpt lat="47.70379" lon="6.04126">
        <ele>207</ele>
        <time>2026-05-16T15:33:07+02:00</time>
      </trkpt>
      <trkpt lat="47.70384" lon="6.04121">
        <ele>207.10059</ele>
        <time>2026-05-16T15:33:08+02:00</time>
      </trkpt>
      <trkpt lat="47.70389" lon="6.04116">
        <ele>206.90039</ele>
        <time>2026-05-16T15:33:09+02:00</time>
      </trkpt>
      <trkpt lat="47.70395" lon="6.04112">
        <ele>207.10059</ele>
        <time>2026-05-16T15:33:10+02:00</time>
      </trkpt>
      <trkpt lat="47.704" lon="6.04109">
        <ele>207</ele>
        <time>2026-05-16T15:33:11+02:00</time>
      </trkpt>
      <trkpt lat="47.70406" lon="6.04105">
        <ele>207.2002</ele>
        <time>2026-05-16T15:33:12+02:00</time>
      </trkpt>
      <trkpt lat="47.70411" lon="6.04102">
        <ele>207</ele>
        <time>2026-05-16T15:33:13+02:00</time>
      </trkpt>
      <trkpt lat="47.70417" lon="6.04098">
        <ele>207.2002</ele>
        <time>2026-05-16T15:33:14+02:00</time>
      </trkpt>
      <trkpt lat="47.70422" lon="6.04094">
        <ele>207.2998</ele>
        <time>2026-05-16T15:33:15+02:00</time>
      </trkpt>
      <trkpt lat="47.70428" lon="6.04091">
        <ele>207.10059</ele>
        <time>2026-05-16T15:33:16+02:00</time>
      </trkpt>
      <trkpt lat="47.70434" lon="6.04087">
        <ele>207.2002</ele>
        <time>2026-05-16T15:33:17+02:00</time>
      </trkpt>
      <trkpt lat="47.70439" lon="6.04083">
        <ele>207.10059</ele>
        <time>2026-05-16T15:33:18+02:00</time>
      </trkpt>
      <trkpt lat="47.70444" lon="6.04079">
        <ele>207.10059</ele>
        <time>2026-05-16T15:33:19+02:00</time>
      </trkpt>
      <trkpt lat="47.70449" lon="6.04075">
        <ele>207</ele>
        <time>2026-05-16T15:33:20+02:00</time>
      </trkpt>
      <trkpt lat="47.70451" lon="6.04073">
        <ele>207.2002</ele>
        <time>2026-05-16T15:33:21+02:00</time>
      </trkpt>
      <trkpt lat="47.70459" lon="6.04067">
        <ele>207</ele>
        <time>2026-05-16T15:33:22+02:00</time>
      </trkpt>
      <trkpt lat="47.70464" lon="6.04064">
        <ele>207.10059</ele>
        <time>2026-05-16T15:33:23+02:00</time>
      </trkpt>
      <trkpt lat="47.70469" lon="6.04062">
        <ele>207.2002</ele>
        <time>2026-05-16T15:33:24+02:00</time>
      </trkpt>
      <trkpt lat="47.70475" lon="6.0406">
        <ele>207.2998</ele>
        <time>2026-05-16T15:33:25+02:00</time>
      </trkpt>
      <trkpt lat="47.7048" lon="6.04059">
        <ele>206.90039</ele>
        <time>2026-05-16T15:33:26+02:00</time>
      </trkpt>
      <trkpt lat="47.70486" lon="6.04057">
        <ele>207</ele>
        <time>2026-05-16T15:33:27+02:00</time>
      </trkpt>
      <trkpt lat="47.70491" lon="6.04054">
        <ele>207.10059</ele>
        <time>2026-05-16T15:33:28+02:00</time>
      </trkpt>
      <trkpt lat="47.70497" lon="6.04052">
        <ele>207.2002</ele>
        <time>2026-05-16T15:33:29+02:00</time>
      </trkpt>
      <trkpt lat="47.70502" lon="6.0405">
        <ele>206.7998</ele>
        <time>2026-05-16T15:33:30+02:00</time>
      </trkpt>
      <trkpt lat="47.70505" lon="6.04048">
        <ele>207</ele>
        <time>2026-05-16T15:33:31+02:00</time>
      </trkpt>
      <trkpt lat="47.70513" lon="6.04046">
        <ele>207.10059</ele>
        <time>2026-05-16T15:33:32+02:00</time>
      </trkpt>
      <trkpt lat="47.70519" lon="6.04044">
        <ele>207.2998</ele>
        <time>2026-05-16T15:33:33+02:00</time>
      </trkpt>
      <trkpt lat="47.70524" lon="6.04041">
        <ele>207.2998</ele>
        <time>2026-05-16T15:33:34+02:00</time>
      </trkpt>
      <trkpt lat="47.70529" lon="6.04039">
        <ele>207.5</ele>
        <time>2026-05-16T15:33:35+02:00</time>
      </trkpt>
      <trkpt lat="47.70534" lon="6.04037">
        <ele>207.7002</ele>
        <time>2026-05-16T15:33:36+02:00</time>
      </trkpt>
      <trkpt lat="47.70539" lon="6.04036">
        <ele>208</ele>
        <time>2026-05-16T15:33:37+02:00</time>
      </trkpt>
      <trkpt lat="47.70545" lon="6.04036">
        <ele>208.2002</ele>
        <time>2026-05-16T15:33:38+02:00</time>
      </trkpt>
      <trkpt lat="47.7055" lon="6.04037">
        <ele>208.40039</ele>
        <time>2026-05-16T15:33:39+02:00</time>
      </trkpt>
      <trkpt lat="47.70555" lon="6.04038">
        <ele>208.7002</ele>
        <time>2026-05-16T15:33:40+02:00</time>
      </trkpt>
      <trkpt lat="47.70561" lon="6.04039">
        <ele>209</ele>
        <time>2026-05-16T15:33:41+02:00</time>
      </trkpt>
      <trkpt lat="47.70566" lon="6.0404">
        <ele>209.2998</ele>
        <time>2026-05-16T15:33:42+02:00</time>
      </trkpt>
      <trkpt lat="47.70572" lon="6.04041">
        <ele>209.60059</ele>
        <time>2026-05-16T15:33:43+02:00</time>
      </trkpt>
      <trkpt lat="47.70577" lon="6.04042">
        <ele>209.60059</ele>
        <time>2026-05-16T15:33:44+02:00</time>
      </trkpt>
      <trkpt lat="47.70583" lon="6.04044">
        <ele>210.90039</ele>
        <time>2026-05-16T15:33:45+02:00</time>
      </trkpt>
      <trkpt lat="47.70588" lon="6.04045">
        <ele>211.2998</ele>
        <time>2026-05-16T15:33:46+02:00</time>
      </trkpt>
      <trkpt lat="47.70593" lon="6.04046">
        <ele>211.7002</ele>
        <time>2026-05-16T15:33:47+02:00</time>
      </trkpt>
      <trkpt lat="47.70598" lon="6.04046">
        <ele>212</ele>
        <time>2026-05-16T15:33:48+02:00</time>
      </trkpt>
      <trkpt lat="47.70603" lon="6.04047">
        <ele>212.2998</ele>
        <time>2026-05-16T15:33:49+02:00</time>
      </trkpt>
      <trkpt lat="47.70607" lon="6.04047">
        <ele>212.60059</ele>
        <time>2026-05-16T15:33:50+02:00</time>
      </trkpt>
      <trkpt lat="47.70612" lon="6.04049">
        <ele>212.60059</ele>
        <time>2026-05-16T15:33:51+02:00</time>
      </trkpt>
      <trkpt lat="47.70614" lon="6.04049">
        <ele>212.7002</ele>
        <time>2026-05-16T15:33:52+02:00</time>
      </trkpt>
      <trkpt lat="47.70621" lon="6.04049">
        <ele>212.90039</ele>
        <time>2026-05-16T15:33:53+02:00</time>
      </trkpt>
      <trkpt lat="47.70625" lon="6.04048">
        <ele>213</ele>
        <time>2026-05-16T15:33:54+02:00</time>
      </trkpt>
      <trkpt lat="47.7063" lon="6.04046">
        <ele>213</ele>
        <time>2026-05-16T15:33:55+02:00</time>
      </trkpt>
      <trkpt lat="47.70635" lon="6.04046">
        <ele>213</ele>
        <time>2026-05-16T15:33:56+02:00</time>
      </trkpt>
      <trkpt lat="47.7064" lon="6.04045">
        <ele>213.10059</ele>
        <time>2026-05-16T15:33:57+02:00</time>
      </trkpt>
      <trkpt lat="47.70645" lon="6.04044">
        <ele>213.10059</ele>
        <time>2026-05-16T15:33:58+02:00</time>
      </trkpt>
      <trkpt lat="47.7065" lon="6.04043">
        <ele>213.2002</ele>
        <time>2026-05-16T15:33:59+02:00</time>
      </trkpt>
      <trkpt lat="47.70655" lon="6.04042">
        <ele>212.10059</ele>
        <time>2026-05-16T15:34:00+02:00</time>
      </trkpt>
      <trkpt lat="47.7066" lon="6.0404">
        <ele>212.2002</ele>
        <time>2026-05-16T15:34:01+02:00</time>
      </trkpt>
      <trkpt lat="47.70665" lon="6.04039">
        <ele>212.40039</ele>
        <time>2026-05-16T15:34:02+02:00</time>
      </trkpt>
      <trkpt lat="47.7067" lon="6.04037">
        <ele>212.40039</ele>
        <time>2026-05-16T15:34:03+02:00</time>
      </trkpt>
      <trkpt lat="47.70674" lon="6.04035">
        <ele>212.5</ele>
        <time>2026-05-16T15:34:04+02:00</time>
      </trkpt>
      <trkpt lat="47.70679" lon="6.04032">
        <ele>211.2998</ele>
        <time>2026-05-16T15:34:05+02:00</time>
      </trkpt>
      <trkpt lat="47.70684" lon="6.04029">
        <ele>211.5</ele>
        <time>2026-05-16T15:34:06+02:00</time>
      </trkpt>
      <trkpt lat="47.70689" lon="6.04026">
        <ele>211.7002</ele>
        <time>2026-05-16T15:34:07+02:00</time>
      </trkpt>
      <trkpt lat="47.70694" lon="6.04022">
        <ele>210.40039</ele>
        <time>2026-05-16T15:34:08+02:00</time>
      </trkpt>
      <trkpt lat="47.70699" lon="6.04018">
        <ele>210.5</ele>
        <time>2026-05-16T15:34:09+02:00</time>
      </trkpt>
      <trkpt lat="47.70704" lon="6.04013">
        <ele>209.2998</ele>
        <time>2026-05-16T15:34:10+02:00</time>
      </trkpt>
      <trkpt lat="47.70709" lon="6.04009">
        <ele>209.5</ele>
        <time>2026-05-16T15:34:11+02:00</time>
      </trkpt>
      <trkpt lat="47.70714" lon="6.04005">
        <ele>208.7998</ele>
        <time>2026-05-16T15:34:12+02:00</time>
      </trkpt>
      <trkpt lat="47.70719" lon="6.04">
        <ele>209.10059</ele>
        <time>2026-05-16T15:34:13+02:00</time>
      </trkpt>
      <trkpt lat="47.70724" lon="6.03996">
        <ele>208.2002</ele>
        <time>2026-05-16T15:34:14+02:00</time>
      </trkpt>
      <trkpt lat="47.70729" lon="6.03991">
        <ele>208.5</ele>
        <time>2026-05-16T15:34:15+02:00</time>
      </trkpt>
      <trkpt lat="47.70731" lon="6.03989">
        <ele>207.2002</ele>
        <time>2026-05-16T15:34:16+02:00</time>
      </trkpt>
      <trkpt lat="47.70739" lon="6.03982">
        <ele>207.5</ele>
        <time>2026-05-16T15:34:17+02:00</time>
      </trkpt>
      <trkpt lat="47.70744" lon="6.03977">
        <ele>206.90039</ele>
        <time>2026-05-16T15:34:18+02:00</time>
      </trkpt>
      <trkpt lat="47.70749" lon="6.03972">
        <ele>207</ele>
        <time>2026-05-16T15:34:19+02:00</time>
      </trkpt>
      <trkpt lat="47.70753" lon="6.03967">
        <ele>207.7998</ele>
        <time>2026-05-16T15:34:20+02:00</time>
      </trkpt>
      <trkpt lat="47.70757" lon="6.03962">
        <ele>207.7002</ele>
        <time>2026-05-16T15:34:21+02:00</time>
      </trkpt>
      <trkpt lat="47.70762" lon="6.03957">
        <ele>207.7002</ele>
        <time>2026-05-16T15:34:22+02:00</time>
      </trkpt>
      <trkpt lat="47.70766" lon="6.03952">
        <ele>207.2002</ele>
        <time>2026-05-16T15:34:23+02:00</time>
      </trkpt>
      <trkpt lat="47.70771" lon="6.03947">
        <ele>206.5</ele>
        <time>2026-05-16T15:34:24+02:00</time>
      </trkpt>
      <trkpt lat="47.70775" lon="6.03942">
        <ele>206.5</ele>
        <time>2026-05-16T15:34:25+02:00</time>
      </trkpt>
      <trkpt lat="47.70779" lon="6.03936">
        <ele>206.10059</ele>
        <time>2026-05-16T15:34:26+02:00</time>
      </trkpt>
      <trkpt lat="47.70784" lon="6.03932">
        <ele>206.2002</ele>
        <time>2026-05-16T15:34:27+02:00</time>
      </trkpt>
      <trkpt lat="47.70789" lon="6.03927">
        <ele>206.60059</ele>
        <time>2026-05-16T15:34:28+02:00</time>
      </trkpt>
      <trkpt lat="47.70793" lon="6.03922">
        <ele>207.10059</ele>
        <time>2026-05-16T15:34:29+02:00</time>
      </trkpt>
      <trkpt lat="47.70796" lon="6.0392">
        <ele>206.7002</ele>
        <time>2026-05-16T15:34:30+02:00</time>
      </trkpt>
      <trkpt lat="47.70802" lon="6.03913">
        <ele>206.5</ele>
        <time>2026-05-16T15:34:31+02:00</time>
      </trkpt>
      <trkpt lat="47.70806" lon="6.03908">
        <ele>206.7998</ele>
        <time>2026-05-16T15:34:32+02:00</time>
      </trkpt>
      <trkpt lat="47.70809" lon="6.03903">
        <ele>206.7998</ele>
        <time>2026-05-16T15:34:33+02:00</time>
      </trkpt>
      <trkpt lat="47.70812" lon="6.03898">
        <ele>206.7998</ele>
        <time>2026-05-16T15:34:34+02:00</time>
      </trkpt>
      <trkpt lat="47.70815" lon="6.03893">
        <ele>207.10059</ele>
        <time>2026-05-16T15:34:35+02:00</time>
      </trkpt>
      <trkpt lat="47.70818" lon="6.03889">
        <ele>207.10059</ele>
        <time>2026-05-16T15:34:36+02:00</time>
      </trkpt>
      <trkpt lat="47.70821" lon="6.03886">
        <ele>207</ele>
        <time>2026-05-16T15:34:37+02:00</time>
      </trkpt>
      <trkpt lat="47.70825" lon="6.03882">
        <ele>207</ele>
        <time>2026-05-16T15:34:38+02:00</time>
      </trkpt>
      <trkpt lat="47.70827" lon="6.03878">
        <ele>206.90039</ele>
        <time>2026-05-16T15:34:39+02:00</time>
      </trkpt>
      <trkpt lat="47.7083" lon="6.03874">
        <ele>206.90039</ele>
        <time>2026-05-16T15:34:40+02:00</time>
      </trkpt>
      <trkpt lat="47.70833" lon="6.0387">
        <ele>206.7998</ele>
        <time>2026-05-16T15:34:41+02:00</time>
      </trkpt>
      <trkpt lat="47.70836" lon="6.03866">
        <ele>206.7998</ele>
        <time>2026-05-16T15:34:42+02:00</time>
      </trkpt>
      <trkpt lat="47.70839" lon="6.03862">
        <ele>207.40039</ele>
        <time>2026-05-16T15:34:43+02:00</time>
      </trkpt>
      <trkpt lat="47.70843" lon="6.03857">
        <ele>207.10059</ele>
        <time>2026-05-16T15:34:44+02:00</time>
      </trkpt>
      <trkpt lat="47.70847" lon="6.03853">
        <ele>207</ele>
        <time>2026-05-16T15:34:45+02:00</time>
      </trkpt>
      <trkpt lat="47.7085" lon="6.03848">
        <ele>207.2998</ele>
        <time>2026-05-16T15:34:46+02:00</time>
      </trkpt>
      <trkpt lat="47.70854" lon="6.03843">
        <ele>206.90039</ele>
        <time>2026-05-16T15:34:47+02:00</time>
      </trkpt>
      <trkpt lat="47.70857" lon="6.03838">
        <ele>207.2998</ele>
        <time>2026-05-16T15:34:48+02:00</time>
      </trkpt>
      <trkpt lat="47.7086" lon="6.03832">
        <ele>206.7998</ele>
        <time>2026-05-16T15:34:49+02:00</time>
      </trkpt>
      <trkpt lat="47.70864" lon="6.03827">
        <ele>207</ele>
        <time>2026-05-16T15:34:50+02:00</time>
      </trkpt>
      <trkpt lat="47.70867" lon="6.03822">
        <ele>207.2002</ele>
        <time>2026-05-16T15:34:51+02:00</time>
      </trkpt>
      <trkpt lat="47.70871" lon="6.03816">
        <ele>206.90039</ele>
        <time>2026-05-16T15:34:52+02:00</time>
      </trkpt>
      <trkpt lat="47.70874" lon="6.03811">
        <ele>207.10059</ele>
        <time>2026-05-16T15:34:53+02:00</time>
      </trkpt>
      <trkpt lat="47.70877" lon="6.03805">
        <ele>206.7998</ele>
        <time>2026-05-16T15:34:54+02:00</time>
      </trkpt>
      <trkpt lat="47.7088" lon="6.03798">
        <ele>206.7998</ele>
        <time>2026-05-16T15:34:55+02:00</time>
      </trkpt>
      <trkpt lat="47.70883" lon="6.03792">
        <ele>206.60059</ele>
        <time>2026-05-16T15:34:56+02:00</time>
      </trkpt>
      <trkpt lat="47.70886" lon="6.03785">
        <ele>206.7998</ele>
        <time>2026-05-16T15:34:57+02:00</time>
      </trkpt>
      <trkpt lat="47.70889" lon="6.03779">
        <ele>206.60059</ele>
        <time>2026-05-16T15:34:58+02:00</time>
      </trkpt>
      <trkpt lat="47.70892" lon="6.03772">
        <ele>206.5</ele>
        <time>2026-05-16T15:34:59+02:00</time>
      </trkpt>
      <trkpt lat="47.70894" lon="6.03765">
        <ele>206.2998</ele>
        <time>2026-05-16T15:35:00+02:00</time>
      </trkpt>
      <trkpt lat="47.70897" lon="6.03758">
        <ele>206.40039</ele>
        <time>2026-05-16T15:35:01+02:00</time>
      </trkpt>
      <trkpt lat="47.70899" lon="6.03751">
        <ele>206.40039</ele>
        <time>2026-05-16T15:35:02+02:00</time>
      </trkpt>
      <trkpt lat="47.70902" lon="6.03744">
        <ele>206.40039</ele>
        <time>2026-05-16T15:35:03+02:00</time>
      </trkpt>
      <trkpt lat="47.70904" lon="6.03737">
        <ele>206.2998</ele>
        <time>2026-05-16T15:35:04+02:00</time>
      </trkpt>
      <trkpt lat="47.70906" lon="6.0373">
        <ele>206.2002</ele>
        <time>2026-05-16T15:35:05+02:00</time>
      </trkpt>
      <trkpt lat="47.70908" lon="6.03723">
        <ele>206.2002</ele>
        <time>2026-05-16T15:35:06+02:00</time>
      </trkpt>
      <trkpt lat="47.7091" lon="6.03715">
        <ele>206.2002</ele>
        <time>2026-05-16T15:35:07+02:00</time>
      </trkpt>
      <trkpt lat="47.70913" lon="6.03708">
        <ele>206.2998</ele>
        <time>2026-05-16T15:35:08+02:00</time>
      </trkpt>
      <trkpt lat="47.70915" lon="6.03701">
        <ele>206.2002</ele>
        <time>2026-05-16T15:35:09+02:00</time>
      </trkpt>
      <trkpt lat="47.70916" lon="6.03693">
        <ele>206.2002</ele>
        <time>2026-05-16T15:35:10+02:00</time>
      </trkpt>
      <trkpt lat="47.70918" lon="6.03685">
        <ele>206.2002</ele>
        <time>2026-05-16T15:35:11+02:00</time>
      </trkpt>
      <trkpt lat="47.70919" lon="6.03678">
        <ele>206.2002</ele>
        <time>2026-05-16T15:35:12+02:00</time>
      </trkpt>
      <trkpt lat="47.70921" lon="6.0367">
        <ele>206.2002</ele>
        <time>2026-05-16T15:35:13+02:00</time>
      </trkpt>
      <trkpt lat="47.70922" lon="6.03663">
        <ele>206.2002</ele>
        <time>2026-05-16T15:35:14+02:00</time>
      </trkpt>
      <trkpt lat="47.70923" lon="6.03656">
        <ele>206.2002</ele>
        <time>2026-05-16T15:35:15+02:00</time>
      </trkpt>
      <trkpt lat="47.70924" lon="6.03648">
        <ele>206.2002</ele>
        <time>2026-05-16T15:35:16+02:00</time>
      </trkpt>
      <trkpt lat="47.70925" lon="6.0364">
        <ele>206.2002</ele>
        <time>2026-05-16T15:35:17+02:00</time>
      </trkpt>
      <trkpt lat="47.70926" lon="6.03632">
        <ele>206.2002</ele>
        <time>2026-05-16T15:35:18+02:00</time>
      </trkpt>
      <trkpt lat="47.70926" lon="6.03624">
        <ele>206.2002</ele>
        <time>2026-05-16T15:35:19+02:00</time>
      </trkpt>
      <trkpt lat="47.70927" lon="6.03616">
        <ele>206.2002</ele>
        <time>2026-05-16T15:35:20+02:00</time>
      </trkpt>
      <trkpt lat="47.70928" lon="6.03608">
        <ele>206.2002</ele>
        <time>2026-05-16T15:35:21+02:00</time>
      </trkpt>
      <trkpt lat="47.70928" lon="6.03601">
        <ele>206.2002</ele>
        <time>2026-05-16T15:35:22+02:00</time>
      </trkpt>
      <trkpt lat="47.70928" lon="6.03593">
        <ele>206.2998</ele>
        <time>2026-05-16T15:35:23+02:00</time>
      </trkpt>
      <trkpt lat="47.70928" lon="6.03585">
        <ele>206.2002</ele>
        <time>2026-05-16T15:35:24+02:00</time>
      </trkpt>
      <trkpt lat="47.70929" lon="6.03578">
        <ele>206.2002</ele>
        <time>2026-05-16T15:35:25+02:00</time>
      </trkpt>
      <trkpt lat="47.7093" lon="6.0357">
        <ele>206.2002</ele>
        <time>2026-05-16T15:35:26+02:00</time>
      </trkpt>
      <trkpt lat="47.70932" lon="6.03562">
        <ele>206.2002</ele>
        <time>2026-05-16T15:35:27+02:00</time>
      </trkpt>
      <trkpt lat="47.70933" lon="6.03555">
        <ele>206.2002</ele>
        <time>2026-05-16T15:35:28+02:00</time>
      </trkpt>
      <trkpt lat="47.70934" lon="6.03547">
        <ele>206.2002</ele>
        <time>2026-05-16T15:35:29+02:00</time>
      </trkpt>
      <trkpt lat="47.70936" lon="6.0354">
        <ele>206.2002</ele>
        <time>2026-05-16T15:35:30+02:00</time>
      </trkpt>
      <trkpt lat="47.70936" lon="6.03536">
        <ele>206.2002</ele>
        <time>2026-05-16T15:35:31+02:00</time>
      </trkpt>
      <trkpt lat="47.70938" lon="6.03526">
        <ele>206.2002</ele>
        <time>2026-05-16T15:35:32+02:00</time>
      </trkpt>
      <trkpt lat="47.70939" lon="6.03518">
        <ele>206.2002</ele>
        <time>2026-05-16T15:35:33+02:00</time>
      </trkpt>
      <trkpt lat="47.70941" lon="6.03509">
        <ele>206.2002</ele>
        <time>2026-05-16T15:35:34+02:00</time>
      </trkpt>
      <trkpt lat="47.70942" lon="6.03501">
        <ele>206.2002</ele>
        <time>2026-05-16T15:35:35+02:00</time>
      </trkpt>
      <trkpt lat="47.70944" lon="6.03492">
        <ele>206.2002</ele>
        <time>2026-05-16T15:35:36+02:00</time>
      </trkpt>
      <trkpt lat="47.70945" lon="6.03484">
        <ele>206.2002</ele>
        <time>2026-05-16T15:35:37+02:00</time>
      </trkpt>
      <trkpt lat="47.70946" lon="6.03476">
        <ele>206.2002</ele>
        <time>2026-05-16T15:35:38+02:00</time>
      </trkpt>
      <trkpt lat="47.70947" lon="6.03467">
        <ele>206.2002</ele>
        <time>2026-05-16T15:35:39+02:00</time>
      </trkpt>
      <trkpt lat="47.70949" lon="6.03459">
        <ele>206.2002</ele>
        <time>2026-05-16T15:35:40+02:00</time>
      </trkpt>
      <trkpt lat="47.7095" lon="6.0345">
        <ele>206.2002</ele>
        <time>2026-05-16T15:35:41+02:00</time>
      </trkpt>
      <trkpt lat="47.70952" lon="6.03442">
        <ele>206.2002</ele>
        <time>2026-05-16T15:35:42+02:00</time>
      </trkpt>
      <trkpt lat="47.70954" lon="6.03433">
        <ele>206.2002</ele>
        <time>2026-05-16T15:35:43+02:00</time>
      </trkpt>
      <trkpt lat="47.70957" lon="6.03425">
        <ele>206.2002</ele>
        <time>2026-05-16T15:35:44+02:00</time>
      </trkpt>
      <trkpt lat="47.7096" lon="6.03418">
        <ele>206.2002</ele>
        <time>2026-05-16T15:35:45+02:00</time>
      </trkpt>
      <trkpt lat="47.70962" lon="6.0341">
        <ele>206.2002</ele>
        <time>2026-05-16T15:35:46+02:00</time>
      </trkpt>
      <trkpt lat="47.70965" lon="6.03403">
        <ele>206.2998</ele>
        <time>2026-05-16T15:35:47+02:00</time>
      </trkpt>
      <trkpt lat="47.70968" lon="6.03395">
        <ele>206.2998</ele>
        <time>2026-05-16T15:35:48+02:00</time>
      </trkpt>
      <trkpt lat="47.70972" lon="6.03388">
        <ele>206.40039</ele>
        <time>2026-05-16T15:35:49+02:00</time>
      </trkpt>
      <trkpt lat="47.70976" lon="6.03381">
        <ele>206.40039</ele>
        <time>2026-05-16T15:35:50+02:00</time>
      </trkpt>
      <trkpt lat="47.7098" lon="6.03375">
        <ele>206.5</ele>
        <time>2026-05-16T15:35:51+02:00</time>
      </trkpt>
      <trkpt lat="47.70982" lon="6.03372">
        <ele>206.5</ele>
        <time>2026-05-16T15:35:52+02:00</time>
      </trkpt>
      <trkpt lat="47.70989" lon="6.03364">
        <ele>206.7002</ele>
        <time>2026-05-16T15:35:53+02:00</time>
      </trkpt>
      <trkpt lat="47.70993" lon="6.03359">
        <ele>206.5</ele>
        <time>2026-05-16T15:35:54+02:00</time>
      </trkpt>
      <trkpt lat="47.70998" lon="6.03355">
        <ele>206.7002</ele>
        <time>2026-05-16T15:35:55+02:00</time>
      </trkpt>
      <trkpt lat="47.71003" lon="6.0335">
        <ele>206.90039</ele>
        <time>2026-05-16T15:35:56+02:00</time>
      </trkpt>
      <trkpt lat="47.71008" lon="6.03346">
        <ele>207</ele>
        <time>2026-05-16T15:35:57+02:00</time>
      </trkpt>
      <trkpt lat="47.71013" lon="6.03341">
        <ele>207.2002</ele>
        <time>2026-05-16T15:35:58+02:00</time>
      </trkpt>
      <trkpt lat="47.71018" lon="6.03337">
        <ele>207.10059</ele>
        <time>2026-05-16T15:35:59+02:00</time>
      </trkpt>
      <trkpt lat="47.71023" lon="6.03332">
        <ele>207.40039</ele>
        <time>2026-05-16T15:36:00+02:00</time>
      </trkpt>
      <trkpt lat="47.71027" lon="6.03327">
        <ele>207.2002</ele>
        <time>2026-05-16T15:36:01+02:00</time>
      </trkpt>
      <trkpt lat="47.71032" lon="6.03322">
        <ele>207.5</ele>
        <time>2026-05-16T15:36:02+02:00</time>
      </trkpt>
      <trkpt lat="47.71037" lon="6.03318">
        <ele>207.40039</ele>
        <time>2026-05-16T15:36:03+02:00</time>
      </trkpt>
      <trkpt lat="47.71042" lon="6.03313">
        <ele>207.60059</ele>
        <time>2026-05-16T15:36:04+02:00</time>
      </trkpt>
      <trkpt lat="47.71047" lon="6.03309">
        <ele>207.2998</ele>
        <time>2026-05-16T15:36:05+02:00</time>
      </trkpt>
      <trkpt lat="47.71052" lon="6.03304">
        <ele>207.5</ele>
        <time>2026-05-16T15:36:06+02:00</time>
      </trkpt>
      <trkpt lat="47.71056" lon="6.033">
        <ele>207</ele>
        <time>2026-05-16T15:36:07+02:00</time>
      </trkpt>
      <trkpt lat="47.71061" lon="6.03296">
        <ele>207.2998</ele>
        <time>2026-05-16T15:36:08+02:00</time>
      </trkpt>
      <trkpt lat="47.71066" lon="6.03291">
        <ele>207.2002</ele>
        <time>2026-05-16T15:36:09+02:00</time>
      </trkpt>
      <trkpt lat="47.71071" lon="6.03287">
        <ele>207.60059</ele>
        <time>2026-05-16T15:36:10+02:00</time>
      </trkpt>
      <trkpt lat="47.71076" lon="6.03283">
        <ele>207.60059</ele>
        <time>2026-05-16T15:36:11+02:00</time>
      </trkpt>
      <trkpt lat="47.71081" lon="6.03279">
        <ele>207.90039</ele>
        <time>2026-05-16T15:36:12+02:00</time>
      </trkpt>
      <trkpt lat="47.71086" lon="6.03275">
        <ele>207.7002</ele>
        <time>2026-05-16T15:36:13+02:00</time>
      </trkpt>
      <trkpt lat="47.71089" lon="6.03272">
        <ele>207.7002</ele>
        <time>2026-05-16T15:36:14+02:00</time>
      </trkpt>
      <trkpt lat="47.71096" lon="6.03266">
        <ele>207.2998</ele>
        <time>2026-05-16T15:36:15+02:00</time>
      </trkpt>
      <trkpt lat="47.71101" lon="6.03262">
        <ele>207.60059</ele>
        <time>2026-05-16T15:36:16+02:00</time>
      </trkpt>
      <trkpt lat="47.71106" lon="6.03257">
        <ele>207.60059</ele>
        <time>2026-05-16T15:36:17+02:00</time>
      </trkpt>
      <trkpt lat="47.71111" lon="6.03253">
        <ele>208.10059</ele>
        <time>2026-05-16T15:36:18+02:00</time>
      </trkpt>
      <trkpt lat="47.71116" lon="6.03249">
        <ele>208.2002</ele>
        <time>2026-05-16T15:36:19+02:00</time>
      </trkpt>
      <trkpt lat="47.71121" lon="6.03244">
        <ele>208.60059</ele>
        <time>2026-05-16T15:36:20+02:00</time>
      </trkpt>
      <trkpt lat="47.71125" lon="6.0324">
        <ele>208.2002</ele>
        <time>2026-05-16T15:36:21+02:00</time>
      </trkpt>
      <trkpt lat="47.7113" lon="6.03236">
        <ele>208.5</ele>
        <time>2026-05-16T15:36:22+02:00</time>
      </trkpt>
      <trkpt lat="47.71135" lon="6.03232">
        <ele>208.40039</ele>
        <time>2026-05-16T15:36:23+02:00</time>
      </trkpt>
      <trkpt lat="47.7114" lon="6.03228">
        <ele>209</ele>
        <time>2026-05-16T15:36:24+02:00</time>
      </trkpt>
      <trkpt lat="47.71145" lon="6.03224">
        <ele>209.2002</ele>
        <time>2026-05-16T15:36:25+02:00</time>
      </trkpt>
      <trkpt lat="47.7115" lon="6.03219">
        <ele>210</ele>
        <time>2026-05-16T15:36:26+02:00</time>
      </trkpt>
      <trkpt lat="47.71155" lon="6.03215">
        <ele>208.7998</ele>
        <time>2026-05-16T15:36:27+02:00</time>
      </trkpt>
      <trkpt lat="47.7116" lon="6.03211">
        <ele>209.2002</ele>
        <time>2026-05-16T15:36:28+02:00</time>
      </trkpt>
      <trkpt lat="47.71165" lon="6.03207">
        <ele>208.2998</ele>
        <time>2026-05-16T15:36:29+02:00</time>
      </trkpt>
      <trkpt lat="47.71168" lon="6.03205">
        <ele>208.5</ele>
        <time>2026-05-16T15:36:30+02:00</time>
      </trkpt>
      <trkpt lat="47.71176" lon="6.03198">
        <ele>207.90039</ele>
        <time>2026-05-16T15:36:31+02:00</time>
      </trkpt>
      <trkpt lat="47.71181" lon="6.03194">
        <ele>208.2002</ele>
        <time>2026-05-16T15:36:32+02:00</time>
      </trkpt>
      <trkpt lat="47.71186" lon="6.0319">
        <ele>207.5</ele>
        <time>2026-05-16T15:36:33+02:00</time>
      </trkpt>
      <trkpt lat="47.71191" lon="6.03185">
        <ele>207.90039</ele>
        <time>2026-05-16T15:36:34+02:00</time>
      </trkpt>
      <trkpt lat="47.71196" lon="6.03181">
        <ele>207.7998</ele>
        <time>2026-05-16T15:36:35+02:00</time>
      </trkpt>
      <trkpt lat="47.71201" lon="6.03177">
        <ele>207.7998</ele>
        <time>2026-05-16T15:36:36+02:00</time>
      </trkpt>
      <trkpt lat="47.71206" lon="6.03172">
        <ele>207.90039</ele>
        <time>2026-05-16T15:36:37+02:00</time>
      </trkpt>
      <trkpt lat="47.71211" lon="6.03168">
        <ele>208.2002</ele>
        <time>2026-05-16T15:36:38+02:00</time>
      </trkpt>
      <trkpt lat="47.71216" lon="6.03165">
        <ele>207.90039</ele>
        <time>2026-05-16T15:36:39+02:00</time>
      </trkpt>
      <trkpt lat="47.71221" lon="6.03161">
        <ele>208.2002</ele>
        <time>2026-05-16T15:36:40+02:00</time>
      </trkpt>
      <trkpt lat="47.71226" lon="6.03158">
        <ele>208.5</ele>
        <time>2026-05-16T15:36:41+02:00</time>
      </trkpt>
      <trkpt lat="47.71231" lon="6.03155">
        <ele>208</ele>
        <time>2026-05-16T15:36:42+02:00</time>
      </trkpt>
      <trkpt lat="47.71236" lon="6.03151">
        <ele>208</ele>
        <time>2026-05-16T15:36:43+02:00</time>
      </trkpt>
      <trkpt lat="47.71241" lon="6.03147">
        <ele>207.7998</ele>
        <time>2026-05-16T15:36:44+02:00</time>
      </trkpt>
      <trkpt lat="47.71244" lon="6.03146">
        <ele>208.40039</ele>
        <time>2026-05-16T15:36:45+02:00</time>
      </trkpt>
      <trkpt lat="47.71251" lon="6.0314">
        <ele>208.2998</ele>
        <time>2026-05-16T15:36:46+02:00</time>
      </trkpt>
      <trkpt lat="47.71257" lon="6.03136">
        <ele>208.7002</ele>
        <time>2026-05-16T15:36:47+02:00</time>
      </trkpt>
      <trkpt lat="47.71262" lon="6.03133">
        <ele>209.2002</ele>
        <time>2026-05-16T15:36:48+02:00</time>
      </trkpt>
      <trkpt lat="47.71267" lon="6.03129">
        <ele>208.60059</ele>
        <time>2026-05-16T15:36:49+02:00</time>
      </trkpt>
      <trkpt lat="47.71272" lon="6.03125">
        <ele>208.90039</ele>
        <time>2026-05-16T15:36:50+02:00</time>
      </trkpt>
      <trkpt lat="47.71278" lon="6.03121">
        <ele>208.40039</ele>
        <time>2026-05-16T15:36:51+02:00</time>
      </trkpt>
      <trkpt lat="47.71283" lon="6.03118">
        <ele>208.7998</ele>
        <time>2026-05-16T15:36:52+02:00</time>
      </trkpt>
      <trkpt lat="47.71288" lon="6.03114">
        <ele>208.2998</ele>
        <time>2026-05-16T15:36:53+02:00</time>
      </trkpt>
      <trkpt lat="47.71293" lon="6.03111">
        <ele>208.7002</ele>
        <time>2026-05-16T15:36:54+02:00</time>
      </trkpt>
      <trkpt lat="47.71299" lon="6.03108">
        <ele>209.2002</ele>
        <time>2026-05-16T15:36:55+02:00</time>
      </trkpt>
      <trkpt lat="47.71304" lon="6.03104">
        <ele>208.90039</ele>
        <time>2026-05-16T15:36:56+02:00</time>
      </trkpt>
      <trkpt lat="47.7131" lon="6.03101">
        <ele>209.2002</ele>
        <time>2026-05-16T15:36:57+02:00</time>
      </trkpt>
      <trkpt lat="47.71315" lon="6.03098">
        <ele>209.5</ele>
        <time>2026-05-16T15:36:58+02:00</time>
      </trkpt>
      <trkpt lat="47.7132" lon="6.03094">
        <ele>208.90039</ele>
        <time>2026-05-16T15:36:59+02:00</time>
      </trkpt>
      <trkpt lat="47.71326" lon="6.03091">
        <ele>209.10059</ele>
        <time>2026-05-16T15:37:00+02:00</time>
      </trkpt>
      <trkpt lat="47.71331" lon="6.03088">
        <ele>208.60059</ele>
        <time>2026-05-16T15:37:01+02:00</time>
      </trkpt>
      <trkpt lat="47.71336" lon="6.03084">
        <ele>208.7998</ele>
        <time>2026-05-16T15:37:02+02:00</time>
      </trkpt>
      <trkpt lat="47.71341" lon="6.03081">
        <ele>208.90039</ele>
        <time>2026-05-16T15:37:03+02:00</time>
      </trkpt>
      <trkpt lat="47.71347" lon="6.03077">
        <ele>208.60059</ele>
        <time>2026-05-16T15:37:04+02:00</time>
      </trkpt>
      <trkpt lat="47.71352" lon="6.03073">
        <ele>208.90039</ele>
        <time>2026-05-16T15:37:05+02:00</time>
      </trkpt>
      <trkpt lat="47.71357" lon="6.0307">
        <ele>208.5</ele>
        <time>2026-05-16T15:37:06+02:00</time>
      </trkpt>
      <trkpt lat="47.71363" lon="6.03067">
        <ele>208.7998</ele>
        <time>2026-05-16T15:37:07+02:00</time>
      </trkpt>
      <trkpt lat="47.71368" lon="6.03063">
        <ele>208.5</ele>
        <time>2026-05-16T15:37:08+02:00</time>
      </trkpt>
      <trkpt lat="47.71374" lon="6.0306">
        <ele>208.60059</ele>
        <time>2026-05-16T15:37:09+02:00</time>
      </trkpt>
      <trkpt lat="47.71379" lon="6.03057">
        <ele>208.7998</ele>
        <time>2026-05-16T15:37:10+02:00</time>
      </trkpt>
      <trkpt lat="47.71385" lon="6.03054">
        <ele>208.40039</ele>
        <time>2026-05-16T15:37:11+02:00</time>
      </trkpt>
      <trkpt lat="47.7139" lon="6.03052">
        <ele>208.5</ele>
        <time>2026-05-16T15:37:12+02:00</time>
      </trkpt>
      <trkpt lat="47.71395" lon="6.03049">
        <ele>208.60059</ele>
        <time>2026-05-16T15:37:13+02:00</time>
      </trkpt>
      <trkpt lat="47.71401" lon="6.03047">
        <ele>208.7002</ele>
        <time>2026-05-16T15:37:14+02:00</time>
      </trkpt>
      <trkpt lat="47.71406" lon="6.03045">
        <ele>208.2998</ele>
        <time>2026-05-16T15:37:15+02:00</time>
      </trkpt>
      <trkpt lat="47.71412" lon="6.03043">
        <ele>208.40039</ele>
        <time>2026-05-16T15:37:16+02:00</time>
      </trkpt>
      <trkpt lat="47.71417" lon="6.03041">
        <ele>208.5</ele>
        <time>2026-05-16T15:37:17+02:00</time>
      </trkpt>
      <trkpt lat="47.71422" lon="6.03038">
        <ele>208.7998</ele>
        <time>2026-05-16T15:37:18+02:00</time>
      </trkpt>
      <trkpt lat="47.71428" lon="6.03036">
        <ele>208.7998</ele>
        <time>2026-05-16T15:37:19+02:00</time>
      </trkpt>
      <trkpt lat="47.71431" lon="6.03035">
        <ele>208.7998</ele>
        <time>2026-05-16T15:37:20+02:00</time>
      </trkpt>
      <trkpt lat="47.71439" lon="6.03031">
        <ele>209.60059</ele>
        <time>2026-05-16T15:37:21+02:00</time>
      </trkpt>
      <trkpt lat="47.71444" lon="6.03029">
        <ele>208.7998</ele>
        <time>2026-05-16T15:37:22+02:00</time>
      </trkpt>
      <trkpt lat="47.71449" lon="6.03026">
        <ele>209</ele>
        <time>2026-05-16T15:37:23+02:00</time>
      </trkpt>
      <trkpt lat="47.71455" lon="6.03024">
        <ele>209.2002</ele>
        <time>2026-05-16T15:37:24+02:00</time>
      </trkpt>
      <trkpt lat="47.7146" lon="6.03022">
        <ele>209.2998</ele>
        <time>2026-05-16T15:37:25+02:00</time>
      </trkpt>
      <trkpt lat="47.71466" lon="6.03019">
        <ele>208.7998</ele>
        <time>2026-05-16T15:37:26+02:00</time>
      </trkpt>
      <trkpt lat="47.71472" lon="6.03016">
        <ele>208.90039</ele>
        <time>2026-05-16T15:37:27+02:00</time>
      </trkpt>
      <trkpt lat="47.71477" lon="6.03014">
        <ele>209</ele>
        <time>2026-05-16T15:37:28+02:00</time>
      </trkpt>
      <trkpt lat="47.71482" lon="6.03011">
        <ele>208.7002</ele>
        <time>2026-05-16T15:37:29+02:00</time>
      </trkpt>
      <trkpt lat="47.71488" lon="6.03009">
        <ele>208.7998</ele>
        <time>2026-05-16T15:37:30+02:00</time>
      </trkpt>
      <trkpt lat="47.71493" lon="6.03007">
        <ele>209</ele>
        <time>2026-05-16T15:37:31+02:00</time>
      </trkpt>
      <trkpt lat="47.71499" lon="6.03005">
        <ele>209.2998</ele>
        <time>2026-05-16T15:37:32+02:00</time>
      </trkpt>
      <trkpt lat="47.71505" lon="6.03003">
        <ele>209.2002</ele>
        <time>2026-05-16T15:37:33+02:00</time>
      </trkpt>
      <trkpt lat="47.7151" lon="6.03">
        <ele>209.5</ele>
        <time>2026-05-16T15:37:34+02:00</time>
      </trkpt>
      <trkpt lat="47.71516" lon="6.02998">
        <ele>209.7002</ele>
        <time>2026-05-16T15:37:35+02:00</time>
      </trkpt>
      <trkpt lat="47.71522" lon="6.02996">
        <ele>209.7998</ele>
        <time>2026-05-16T15:37:36+02:00</time>
      </trkpt>
      <trkpt lat="47.71527" lon="6.02993">
        <ele>209.2998</ele>
        <time>2026-05-16T15:37:37+02:00</time>
      </trkpt>
      <trkpt lat="47.71533" lon="6.02991">
        <ele>209.40039</ele>
        <time>2026-05-16T15:37:38+02:00</time>
      </trkpt>
      <trkpt lat="47.71538" lon="6.02988">
        <ele>209.60059</ele>
        <time>2026-05-16T15:37:39+02:00</time>
      </trkpt>
      <trkpt lat="47.71543" lon="6.02985">
        <ele>209.10059</ele>
        <time>2026-05-16T15:37:40+02:00</time>
      </trkpt>
      <trkpt lat="47.71549" lon="6.02983">
        <ele>209.2998</ele>
        <time>2026-05-16T15:37:41+02:00</time>
      </trkpt>
      <trkpt lat="47.71555" lon="6.02981">
        <ele>209.40039</ele>
        <time>2026-05-16T15:37:42+02:00</time>
      </trkpt>
      <trkpt lat="47.7156" lon="6.02979">
        <ele>209.60059</ele>
        <time>2026-05-16T15:37:43+02:00</time>
      </trkpt>
      <trkpt lat="47.71566" lon="6.02977">
        <ele>209</ele>
        <time>2026-05-16T15:37:44+02:00</time>
      </trkpt>
      <trkpt lat="47.71572" lon="6.02975">
        <ele>209.2002</ele>
        <time>2026-05-16T15:37:45+02:00</time>
      </trkpt>
      <trkpt lat="47.71578" lon="6.02973">
        <ele>209.5</ele>
        <time>2026-05-16T15:37:46+02:00</time>
      </trkpt>
      <trkpt lat="47.71583" lon="6.02971">
        <ele>209.90039</ele>
        <time>2026-05-16T15:37:47+02:00</time>
      </trkpt>
      <trkpt lat="47.71589" lon="6.02969">
        <ele>210.2002</ele>
        <time>2026-05-16T15:37:48+02:00</time>
      </trkpt>
      <trkpt lat="47.71595" lon="6.02967">
        <ele>211</ele>
        <time>2026-05-16T15:37:49+02:00</time>
      </trkpt>
      <trkpt lat="47.716" lon="6.02965">
        <ele>211.60059</ele>
        <time>2026-05-16T15:37:50+02:00</time>
      </trkpt>
      <trkpt lat="47.71607" lon="6.02964">
        <ele>211.7998</ele>
        <time>2026-05-16T15:37:51+02:00</time>
      </trkpt>
      <trkpt lat="47.71612" lon="6.02962">
        <ele>212</ele>
        <time>2026-05-16T15:37:52+02:00</time>
      </trkpt>
      <trkpt lat="47.71618" lon="6.02961">
        <ele>212.2002</ele>
        <time>2026-05-16T15:37:53+02:00</time>
      </trkpt>
      <trkpt lat="47.71623" lon="6.02959">
        <ele>211.2002</ele>
        <time>2026-05-16T15:37:54+02:00</time>
      </trkpt>
      <trkpt lat="47.71629" lon="6.02958">
        <ele>211.90039</ele>
        <time>2026-05-16T15:37:55+02:00</time>
      </trkpt>
      <trkpt lat="47.71632" lon="6.02957">
        <ele>211.90039</ele>
        <time>2026-05-16T15:37:56+02:00</time>
      </trkpt>
      <trkpt lat="47.71641" lon="6.02955">
        <ele>212.7002</ele>
        <time>2026-05-16T15:37:57+02:00</time>
      </trkpt>
      <trkpt lat="47.71646" lon="6.02953">
        <ele>213.2002</ele>
        <time>2026-05-16T15:37:58+02:00</time>
      </trkpt>
      <trkpt lat="47.71652" lon="6.02952">
        <ele>211.90039</ele>
        <time>2026-05-16T15:37:59+02:00</time>
      </trkpt>
      <trkpt lat="47.71655" lon="6.02951">
        <ele>211.90039</ele>
        <time>2026-05-16T15:38:00+02:00</time>
      </trkpt>
      <trkpt lat="47.71664" lon="6.02949">
        <ele>212.60059</ele>
        <time>2026-05-16T15:38:01+02:00</time>
      </trkpt>
      <trkpt lat="47.7167" lon="6.02948">
        <ele>212.90039</ele>
        <time>2026-05-16T15:38:02+02:00</time>
      </trkpt>
      <trkpt lat="47.71675" lon="6.02947">
        <ele>213.2998</ele>
        <time>2026-05-16T15:38:03+02:00</time>
      </trkpt>
      <trkpt lat="47.71681" lon="6.02945">
        <ele>213.60059</ele>
        <time>2026-05-16T15:38:04+02:00</time>
      </trkpt>
      <trkpt lat="47.71687" lon="6.02944">
        <ele>213.90039</ele>
        <time>2026-05-16T15:38:05+02:00</time>
      </trkpt>
      <trkpt lat="47.71693" lon="6.02942">
        <ele>212</ele>
        <time>2026-05-16T15:38:06+02:00</time>
      </trkpt>
      <trkpt lat="47.71699" lon="6.02941">
        <ele>212.2002</ele>
        <time>2026-05-16T15:38:07+02:00</time>
      </trkpt>
      <trkpt lat="47.71702" lon="6.0294">
        <ele>212.2002</ele>
        <time>2026-05-16T15:38:08+02:00</time>
      </trkpt>
      <trkpt lat="47.7171" lon="6.02938">
        <ele>212.40039</ele>
        <time>2026-05-16T15:38:09+02:00</time>
      </trkpt>
      <trkpt lat="47.71716" lon="6.02936">
        <ele>212.5</ele>
        <time>2026-05-16T15:38:10+02:00</time>
      </trkpt>
      <trkpt lat="47.71722" lon="6.02935">
        <ele>212.60059</ele>
        <time>2026-05-16T15:38:11+02:00</time>
      </trkpt>
      <trkpt lat="47.71728" lon="6.02935">
        <ele>212.60059</ele>
        <time>2026-05-16T15:38:12+02:00</time>
      </trkpt>
      <trkpt lat="47.71733" lon="6.02934">
        <ele>210.90039</ele>
        <time>2026-05-16T15:38:13+02:00</time>
      </trkpt>
      <trkpt lat="47.71739" lon="6.02933">
        <ele>210.90039</ele>
        <time>2026-05-16T15:38:14+02:00</time>
      </trkpt>
      <trkpt lat="47.71745" lon="6.02932">
        <ele>210.90039</ele>
        <time>2026-05-16T15:38:15+02:00</time>
      </trkpt>
      <trkpt lat="47.7175" lon="6.02931">
        <ele>210.90039</ele>
        <time>2026-05-16T15:38:16+02:00</time>
      </trkpt>
      <trkpt lat="47.71756" lon="6.02931">
        <ele>211</ele>
        <time>2026-05-16T15:38:17+02:00</time>
      </trkpt>
      <trkpt lat="47.71762" lon="6.0293">
        <ele>211</ele>
        <time>2026-05-16T15:38:18+02:00</time>
      </trkpt>
      <trkpt lat="47.71768" lon="6.0293">
        <ele>211</ele>
        <time>2026-05-16T15:38:19+02:00</time>
      </trkpt>
      <trkpt lat="47.71774" lon="6.02929">
        <ele>211</ele>
        <time>2026-05-16T15:38:20+02:00</time>
      </trkpt>
      <trkpt lat="47.71779" lon="6.02929">
        <ele>211</ele>
        <time>2026-05-16T15:38:21+02:00</time>
      </trkpt>
      <trkpt lat="47.71785" lon="6.02928">
        <ele>211</ele>
        <time>2026-05-16T15:38:22+02:00</time>
      </trkpt>
      <trkpt lat="47.71791" lon="6.02928">
        <ele>211</ele>
        <time>2026-05-16T15:38:23+02:00</time>
      </trkpt>
      <trkpt lat="47.71797" lon="6.02927">
        <ele>210.90039</ele>
        <time>2026-05-16T15:38:24+02:00</time>
      </trkpt>
      <trkpt lat="47.71803" lon="6.02926">
        <ele>209.7002</ele>
        <time>2026-05-16T15:38:25+02:00</time>
      </trkpt>
      <trkpt lat="47.71809" lon="6.02925">
        <ele>209.60059</ele>
        <time>2026-05-16T15:38:26+02:00</time>
      </trkpt>
      <trkpt lat="47.71815" lon="6.02925">
        <ele>209.60059</ele>
        <time>2026-05-16T15:38:27+02:00</time>
      </trkpt>
      <trkpt lat="47.71821" lon="6.02924">
        <ele>209.5</ele>
        <time>2026-05-16T15:38:28+02:00</time>
      </trkpt>
      <trkpt lat="47.71824" lon="6.02923">
        <ele>209.5</ele>
        <time>2026-05-16T15:38:29+02:00</time>
      </trkpt>
      <trkpt lat="47.71833" lon="6.02922">
        <ele>209.2998</ele>
        <time>2026-05-16T15:38:30+02:00</time>
      </trkpt>
      <trkpt lat="47.71839" lon="6.02922">
        <ele>209.2998</ele>
        <time>2026-05-16T15:38:31+02:00</time>
      </trkpt>
      <trkpt lat="47.71845" lon="6.02922">
        <ele>209.2002</ele>
        <time>2026-05-16T15:38:32+02:00</time>
      </trkpt>
      <trkpt lat="47.71851" lon="6.02922">
        <ele>209.10059</ele>
        <time>2026-05-16T15:38:33+02:00</time>
      </trkpt>
      <trkpt lat="47.71856" lon="6.02922">
        <ele>209.10059</ele>
        <time>2026-05-16T15:38:34+02:00</time>
      </trkpt>
      <trkpt lat="47.71863" lon="6.02921">
        <ele>209</ele>
        <time>2026-05-16T15:38:35+02:00</time>
      </trkpt>
      <trkpt lat="47.71869" lon="6.02921">
        <ele>209</ele>
        <time>2026-05-16T15:38:36+02:00</time>
      </trkpt>
      <trkpt lat="47.71875" lon="6.02922">
        <ele>208.90039</ele>
        <time>2026-05-16T15:38:37+02:00</time>
      </trkpt>
      <trkpt lat="47.7188" lon="6.02922">
        <ele>208.90039</ele>
        <time>2026-05-16T15:38:38+02:00</time>
      </trkpt>
      <trkpt lat="47.71887" lon="6.02923">
        <ele>208.90039</ele>
        <time>2026-05-16T15:38:39+02:00</time>
      </trkpt>
      <trkpt lat="47.71892" lon="6.02924">
        <ele>208.90039</ele>
        <time>2026-05-16T15:38:40+02:00</time>
      </trkpt>
      <trkpt lat="47.71898" lon="6.02925">
        <ele>208.90039</ele>
        <time>2026-05-16T15:38:41+02:00</time>
      </trkpt>
      <trkpt lat="47.71904" lon="6.02927">
        <ele>209.7998</ele>
        <time>2026-05-16T15:38:42+02:00</time>
      </trkpt>
      <trkpt lat="47.71909" lon="6.02929">
        <ele>209.90039</ele>
        <time>2026-05-16T15:38:43+02:00</time>
      </trkpt>
      <trkpt lat="47.71916" lon="6.0293">
        <ele>210.10059</ele>
        <time>2026-05-16T15:38:44+02:00</time>
      </trkpt>
      <trkpt lat="47.71921" lon="6.02932">
        <ele>210.2002</ele>
        <time>2026-05-16T15:38:45+02:00</time>
      </trkpt>
      <trkpt lat="47.71927" lon="6.02934">
        <ele>210.40039</ele>
        <time>2026-05-16T15:38:46+02:00</time>
      </trkpt>
      <trkpt lat="47.71933" lon="6.02936">
        <ele>211.60059</ele>
        <time>2026-05-16T15:38:47+02:00</time>
      </trkpt>
      <trkpt lat="47.71939" lon="6.02939">
        <ele>211.7002</ele>
        <time>2026-05-16T15:38:48+02:00</time>
      </trkpt>
      <trkpt lat="47.71944" lon="6.02941">
        <ele>211.60059</ele>
        <time>2026-05-16T15:38:49+02:00</time>
      </trkpt>
      <trkpt lat="47.7195" lon="6.02944">
        <ele>211.40039</ele>
        <time>2026-05-16T15:38:50+02:00</time>
      </trkpt>
      <trkpt lat="47.71955" lon="6.02947">
        <ele>210.5</ele>
        <time>2026-05-16T15:38:51+02:00</time>
      </trkpt>
      <trkpt lat="47.71961" lon="6.0295">
        <ele>209.7002</ele>
        <time>2026-05-16T15:38:52+02:00</time>
      </trkpt>
      <trkpt lat="47.71967" lon="6.02954">
        <ele>210</ele>
        <time>2026-05-16T15:38:53+02:00</time>
      </trkpt>
      <trkpt lat="47.71972" lon="6.02957">
        <ele>210.10059</ele>
        <time>2026-05-16T15:38:54+02:00</time>
      </trkpt>
      <trkpt lat="47.71978" lon="6.0296">
        <ele>210.2998</ele>
        <time>2026-05-16T15:38:55+02:00</time>
      </trkpt>
      <trkpt lat="47.71983" lon="6.02962">
        <ele>211.7002</ele>
        <time>2026-05-16T15:38:56+02:00</time>
      </trkpt>
      <trkpt lat="47.7199" lon="6.02964">
        <ele>211.5</ele>
        <time>2026-05-16T15:38:57+02:00</time>
      </trkpt>
      <trkpt lat="47.71995" lon="6.02966">
        <ele>211.10059</ele>
        <time>2026-05-16T15:38:58+02:00</time>
      </trkpt>
      <trkpt lat="47.72001" lon="6.02968">
        <ele>210.5</ele>
        <time>2026-05-16T15:38:59+02:00</time>
      </trkpt>
      <trkpt lat="47.72007" lon="6.0297">
        <ele>210.60059</ele>
        <time>2026-05-16T15:39:00+02:00</time>
      </trkpt>
      <trkpt lat="47.72012" lon="6.02972">
        <ele>210.40039</ele>
        <time>2026-05-16T15:39:01+02:00</time>
      </trkpt>
      <trkpt lat="47.72018" lon="6.02973">
        <ele>210.2998</ele>
        <time>2026-05-16T15:39:02+02:00</time>
      </trkpt>
      <trkpt lat="47.72024" lon="6.02975">
        <ele>210.2998</ele>
        <time>2026-05-16T15:39:03+02:00</time>
      </trkpt>
      <trkpt lat="47.7203" lon="6.02977">
        <ele>210.2002</ele>
        <time>2026-05-16T15:39:04+02:00</time>
      </trkpt>
      <trkpt lat="47.72032" lon="6.02978">
        <ele>211.2998</ele>
        <time>2026-05-16T15:39:05+02:00</time>
      </trkpt>
      <trkpt lat="47.72041" lon="6.02981">
        <ele>211.5</ele>
        <time>2026-05-16T15:39:06+02:00</time>
      </trkpt>
      <trkpt lat="47.72046" lon="6.02983">
        <ele>211.60059</ele>
        <time>2026-05-16T15:39:07+02:00</time>
      </trkpt>
      <trkpt lat="47.72052" lon="6.02986">
        <ele>211.5</ele>
        <time>2026-05-16T15:39:08+02:00</time>
      </trkpt>
      <trkpt lat="47.72057" lon="6.02989">
        <ele>213.2998</ele>
        <time>2026-05-16T15:39:09+02:00</time>
      </trkpt>
      <trkpt lat="47.72063" lon="6.02991">
        <ele>211.7998</ele>
        <time>2026-05-16T15:39:10+02:00</time>
      </trkpt>
      <trkpt lat="47.72069" lon="6.02994">
        <ele>209.7998</ele>
        <time>2026-05-16T15:39:11+02:00</time>
      </trkpt>
      <trkpt lat="47.72074" lon="6.02998">
        <ele>208.40039</ele>
        <time>2026-05-16T15:39:12+02:00</time>
      </trkpt>
      <trkpt lat="47.72079" lon="6.03001">
        <ele>208.40039</ele>
        <time>2026-05-16T15:39:13+02:00</time>
      </trkpt>
      <trkpt lat="47.72085" lon="6.03004">
        <ele>209.7998</ele>
        <time>2026-05-16T15:39:14+02:00</time>
      </trkpt>
      <trkpt lat="47.72091" lon="6.03007">
        <ele>210.60059</ele>
        <time>2026-05-16T15:39:15+02:00</time>
      </trkpt>
      <trkpt lat="47.72096" lon="6.03011">
        <ele>210.60059</ele>
        <time>2026-05-16T15:39:16+02:00</time>
      </trkpt>
      <trkpt lat="47.72102" lon="6.03014">
        <ele>213.2002</ele>
        <time>2026-05-16T15:39:17+02:00</time>
      </trkpt>
      <trkpt lat="47.72108" lon="6.03017">
        <ele>212</ele>
        <time>2026-05-16T15:39:18+02:00</time>
      </trkpt>
      <trkpt lat="47.72114" lon="6.03021">
        <ele>212.2998</ele>
        <time>2026-05-16T15:39:19+02:00</time>
      </trkpt>
      <trkpt lat="47.72119" lon="6.03024">
        <ele>212.2998</ele>
        <time>2026-05-16T15:39:20+02:00</time>
      </trkpt>
      <trkpt lat="47.72125" lon="6.03027">
        <ele>211.10059</ele>
        <time>2026-05-16T15:39:21+02:00</time>
      </trkpt>
      <trkpt lat="47.7213" lon="6.03031">
        <ele>211.40039</ele>
        <time>2026-05-16T15:39:22+02:00</time>
      </trkpt>
      <trkpt lat="47.72136" lon="6.03035">
        <ele>211</ele>
        <time>2026-05-16T15:39:23+02:00</time>
      </trkpt>
      <trkpt lat="47.72141" lon="6.03039">
        <ele>211.7998</ele>
        <time>2026-05-16T15:39:24+02:00</time>
      </trkpt>
      <trkpt lat="47.72146" lon="6.03043">
        <ele>211.40039</ele>
        <time>2026-05-16T15:39:25+02:00</time>
      </trkpt>
      <trkpt lat="47.72151" lon="6.03048">
        <ele>211.90039</ele>
        <time>2026-05-16T15:39:26+02:00</time>
      </trkpt>
      <trkpt lat="47.72155" lon="6.03053">
        <ele>211.10059</ele>
        <time>2026-05-16T15:39:27+02:00</time>
      </trkpt>
      <trkpt lat="47.7216" lon="6.03058">
        <ele>212</ele>
        <time>2026-05-16T15:39:28+02:00</time>
      </trkpt>
      <trkpt lat="47.72165" lon="6.03063">
        <ele>211</ele>
        <time>2026-05-16T15:39:29+02:00</time>
      </trkpt>
      <trkpt lat="47.72169" lon="6.03068">
        <ele>211.10059</ele>
        <time>2026-05-16T15:39:30+02:00</time>
      </trkpt>
      <trkpt lat="47.72173" lon="6.03073">
        <ele>211.90039</ele>
        <time>2026-05-16T15:39:31+02:00</time>
      </trkpt>
      <trkpt lat="47.72178" lon="6.03079">
        <ele>211.10059</ele>
        <time>2026-05-16T15:39:32+02:00</time>
      </trkpt>
      <trkpt lat="47.72182" lon="6.03085">
        <ele>212.2998</ele>
        <time>2026-05-16T15:39:33+02:00</time>
      </trkpt>
      <trkpt lat="47.72186" lon="6.03091">
        <ele>211.5</ele>
        <time>2026-05-16T15:39:34+02:00</time>
      </trkpt>
      <trkpt lat="47.72191" lon="6.03097">
        <ele>210.2998</ele>
        <time>2026-05-16T15:39:35+02:00</time>
      </trkpt>
      <trkpt lat="47.72194" lon="6.03103">
        <ele>211.2002</ele>
        <time>2026-05-16T15:39:36+02:00</time>
      </trkpt>
      <trkpt lat="47.72198" lon="6.0311">
        <ele>211.60059</ele>
        <time>2026-05-16T15:39:37+02:00</time>
      </trkpt>
      <trkpt lat="47.72202" lon="6.03117">
        <ele>211.60059</ele>
        <time>2026-05-16T15:39:38+02:00</time>
      </trkpt>
      <trkpt lat="47.72205" lon="6.03124">
        <ele>212.2002</ele>
        <time>2026-05-16T15:39:39+02:00</time>
      </trkpt>
      <trkpt lat="47.72208" lon="6.03131">
        <ele>210.5</ele>
        <time>2026-05-16T15:39:40+02:00</time>
      </trkpt>
      <trkpt lat="47.7221" lon="6.03139">
        <ele>210.60059</ele>
        <time>2026-05-16T15:39:41+02:00</time>
      </trkpt>
      <trkpt lat="47.72213" lon="6.03146">
        <ele>209.2998</ele>
        <time>2026-05-16T15:39:42+02:00</time>
      </trkpt>
      <trkpt lat="47.72215" lon="6.03154">
        <ele>209.2998</ele>
        <time>2026-05-16T15:39:43+02:00</time>
      </trkpt>
      <trkpt lat="47.72217" lon="6.03162">
        <ele>209.2998</ele>
        <time>2026-05-16T15:39:44+02:00</time>
      </trkpt>
      <trkpt lat="47.72218" lon="6.0317">
        <ele>208.7998</ele>
        <time>2026-05-16T15:39:45+02:00</time>
      </trkpt>
      <trkpt lat="47.72218" lon="6.03178">
        <ele>208.7998</ele>
        <time>2026-05-16T15:39:46+02:00</time>
      </trkpt>
      <trkpt lat="47.72219" lon="6.03187">
        <ele>208.7998</ele>
        <time>2026-05-16T15:39:47+02:00</time>
      </trkpt>
      <trkpt lat="47.7222" lon="6.03196">
        <ele>208.7998</ele>
        <time>2026-05-16T15:39:48+02:00</time>
      </trkpt>
      <trkpt lat="47.7222" lon="6.03204">
        <ele>208.90039</ele>
        <time>2026-05-16T15:39:49+02:00</time>
      </trkpt>
      <trkpt lat="47.72221" lon="6.03213">
        <ele>208.90039</ele>
        <time>2026-05-16T15:39:50+02:00</time>
      </trkpt>
      <trkpt lat="47.72221" lon="6.03222">
        <ele>208.90039</ele>
        <time>2026-05-16T15:39:51+02:00</time>
      </trkpt>
      <trkpt lat="47.72221" lon="6.0323">
        <ele>208.90039</ele>
        <time>2026-05-16T15:39:52+02:00</time>
      </trkpt>
      <trkpt lat="47.72221" lon="6.03238">
        <ele>208.90039</ele>
        <time>2026-05-16T15:39:53+02:00</time>
      </trkpt>
      <trkpt lat="47.7222" lon="6.03247">
        <ele>208.7998</ele>
        <time>2026-05-16T15:39:54+02:00</time>
      </trkpt>
      <trkpt lat="47.72219" lon="6.03255">
        <ele>208.7998</ele>
        <time>2026-05-16T15:39:55+02:00</time>
      </trkpt>
      <trkpt lat="47.72218" lon="6.03264">
        <ele>208.7998</ele>
        <time>2026-05-16T15:39:56+02:00</time>
      </trkpt>
      <trkpt lat="47.72217" lon="6.03272">
        <ele>209.5</ele>
        <time>2026-05-16T15:39:57+02:00</time>
      </trkpt>
      <trkpt lat="47.72215" lon="6.03281">
        <ele>209.40039</ele>
        <time>2026-05-16T15:39:58+02:00</time>
      </trkpt>
      <trkpt lat="47.72213" lon="6.03289">
        <ele>209.2998</ele>
        <time>2026-05-16T15:39:59+02:00</time>
      </trkpt>
      <trkpt lat="47.72211" lon="6.03297">
        <ele>210</ele>
        <time>2026-05-16T15:40:00+02:00</time>
      </trkpt>
      <trkpt lat="47.72209" lon="6.03305">
        <ele>209.7002</ele>
        <time>2026-05-16T15:40:01+02:00</time>
      </trkpt>
      <trkpt lat="47.72207" lon="6.03313">
        <ele>209.40039</ele>
        <time>2026-05-16T15:40:02+02:00</time>
      </trkpt>
      <trkpt lat="47.72204" lon="6.03321">
        <ele>210</ele>
        <time>2026-05-16T15:40:03+02:00</time>
      </trkpt>
      <trkpt lat="47.72202" lon="6.03329">
        <ele>209.7002</ele>
        <time>2026-05-16T15:40:04+02:00</time>
      </trkpt>
      <trkpt lat="47.72201" lon="6.03333">
        <ele>209.5</ele>
        <time>2026-05-16T15:40:05+02:00</time>
      </trkpt>
      <trkpt lat="47.72198" lon="6.03345">
        <ele>210</ele>
        <time>2026-05-16T15:40:06+02:00</time>
      </trkpt>
      <trkpt lat="47.72196" lon="6.03352">
        <ele>209.90039</ele>
        <time>2026-05-16T15:40:07+02:00</time>
      </trkpt>
      <trkpt lat="47.72194" lon="6.03361">
        <ele>210.7002</ele>
        <time>2026-05-16T15:40:08+02:00</time>
      </trkpt>
      <trkpt lat="47.72193" lon="6.03369">
        <ele>210.40039</ele>
        <time>2026-05-16T15:40:09+02:00</time>
      </trkpt>
      <trkpt lat="47.7219" lon="6.03378">
        <ele>209.90039</ele>
        <time>2026-05-16T15:40:10+02:00</time>
      </trkpt>
      <trkpt lat="47.72188" lon="6.03386">
        <ele>210.10059</ele>
        <time>2026-05-16T15:40:11+02:00</time>
      </trkpt>
      <trkpt lat="47.72186" lon="6.03394">
        <ele>209.7002</ele>
        <time>2026-05-16T15:40:12+02:00</time>
      </trkpt>
      <trkpt lat="47.72183" lon="6.03403">
        <ele>209.7002</ele>
        <time>2026-05-16T15:40:13+02:00</time>
      </trkpt>
      <trkpt lat="47.72181" lon="6.03411">
        <ele>209.40039</ele>
        <time>2026-05-16T15:40:14+02:00</time>
      </trkpt>
      <trkpt lat="47.72179" lon="6.03419">
        <ele>209.2002</ele>
        <time>2026-05-16T15:40:15+02:00</time>
      </trkpt>
      <trkpt lat="47.72177" lon="6.03428">
        <ele>209.5</ele>
        <time>2026-05-16T15:40:16+02:00</time>
      </trkpt>
      <trkpt lat="47.72176" lon="6.03436">
        <ele>209.40039</ele>
        <time>2026-05-16T15:40:17+02:00</time>
      </trkpt>
      <trkpt lat="47.72174" lon="6.03445">
        <ele>209.40039</ele>
        <time>2026-05-16T15:40:18+02:00</time>
      </trkpt>
      <trkpt lat="47.72173" lon="6.03453">
        <ele>209.2998</ele>
        <time>2026-05-16T15:40:19+02:00</time>
      </trkpt>
      <trkpt lat="47.72172" lon="6.03457">
        <ele>209.2998</ele>
        <time>2026-05-16T15:40:20+02:00</time>
      </trkpt>
      <trkpt lat="47.7217" lon="6.03469">
        <ele>209.90039</ele>
        <time>2026-05-16T15:40:21+02:00</time>
      </trkpt>
      <trkpt lat="47.7217" lon="6.03477">
        <ele>210</ele>
        <time>2026-05-16T15:40:22+02:00</time>
      </trkpt>
      <trkpt lat="47.72169" lon="6.03484">
        <ele>210</ele>
        <time>2026-05-16T15:40:23+02:00</time>
      </trkpt>
      <trkpt lat="47.72168" lon="6.03492">
        <ele>210</ele>
        <time>2026-05-16T15:40:24+02:00</time>
      </trkpt>
      <trkpt lat="47.72167" lon="6.03499">
        <ele>210</ele>
        <time>2026-05-16T15:40:25+02:00</time>
      </trkpt>
      <trkpt lat="47.72167" lon="6.03506">
        <ele>210</ele>
        <time>2026-05-16T15:40:26+02:00</time>
      </trkpt>
      <trkpt lat="47.72166" lon="6.03512">
        <ele>210.10059</ele>
        <time>2026-05-16T15:40:27+02:00</time>
      </trkpt>
      <trkpt lat="47.72165" lon="6.03518">
        <ele>210.40039</ele>
        <time>2026-05-16T15:40:28+02:00</time>
      </trkpt>
      <trkpt lat="47.72165" lon="6.03524">
        <ele>210.40039</ele>
        <time>2026-05-16T15:40:29+02:00</time>
      </trkpt>
      <trkpt lat="47.72164" lon="6.03529">
        <ele>210.5</ele>
        <time>2026-05-16T15:40:30+02:00</time>
      </trkpt>
      <trkpt lat="47.72162" lon="6.03534">
        <ele>210.5</ele>
        <time>2026-05-16T15:40:31+02:00</time>
      </trkpt>
      <trkpt lat="47.72162" lon="6.03541">
        <ele>210.60059</ele>
        <time>2026-05-16T15:40:32+02:00</time>
      </trkpt>
      <trkpt lat="47.72161" lon="6.03547">
        <ele>210.7002</ele>
        <time>2026-05-16T15:40:33+02:00</time>
      </trkpt>
      <trkpt lat="47.72161" lon="6.03554">
        <ele>210.90039</ele>
        <time>2026-05-16T15:40:34+02:00</time>
      </trkpt>
      <trkpt lat="47.72161" lon="6.0356">
        <ele>210.90039</ele>
        <time>2026-05-16T15:40:35+02:00</time>
      </trkpt>
      <trkpt lat="47.72162" lon="6.03567">
        <ele>211.2002</ele>
        <time>2026-05-16T15:40:36+02:00</time>
      </trkpt>
      <trkpt lat="47.72162" lon="6.03574">
        <ele>212</ele>
        <time>2026-05-16T15:40:37+02:00</time>
      </trkpt>
      <trkpt lat="47.72163" lon="6.03581">
        <ele>212.90039</ele>
        <time>2026-05-16T15:40:38+02:00</time>
      </trkpt>
      <trkpt lat="47.72164" lon="6.03587">
        <ele>212.90039</ele>
        <time>2026-05-16T15:40:39+02:00</time>
      </trkpt>
      <trkpt lat="47.72165" lon="6.03594">
        <ele>213.7002</ele>
        <time>2026-05-16T15:40:40+02:00</time>
      </trkpt>
      <trkpt lat="47.72165" lon="6.036">
        <ele>213.7998</ele>
        <time>2026-05-16T15:40:41+02:00</time>
      </trkpt>
      <trkpt lat="47.72165" lon="6.03604">
        <ele>213.7998</ele>
        <time>2026-05-16T15:40:42+02:00</time>
      </trkpt>
      <trkpt lat="47.72166" lon="6.03614">
        <ele>209.40039</ele>
        <time>2026-05-16T15:40:43+02:00</time>
      </trkpt>
      <trkpt lat="47.72166" lon="6.03621">
        <ele>209.40039</ele>
        <time>2026-05-16T15:40:44+02:00</time>
      </trkpt>
      <trkpt lat="47.72167" lon="6.03627">
        <ele>207.90039</ele>
        <time>2026-05-16T15:40:45+02:00</time>
      </trkpt>
      <trkpt lat="47.72167" lon="6.03634">
        <ele>207.10059</ele>
        <time>2026-05-16T15:40:46+02:00</time>
      </trkpt>
      <trkpt lat="47.72168" lon="6.0364">
        <ele>206.90039</ele>
        <time>2026-05-16T15:40:47+02:00</time>
      </trkpt>
      <trkpt lat="47.72169" lon="6.03645">
        <ele>206.90039</ele>
        <time>2026-05-16T15:40:48+02:00</time>
      </trkpt>
      <trkpt lat="47.7217" lon="6.03651">
        <ele>207</ele>
        <time>2026-05-16T15:40:49+02:00</time>
      </trkpt>
      <trkpt lat="47.72171" lon="6.03657">
        <ele>207.2002</ele>
        <time>2026-05-16T15:40:50+02:00</time>
      </trkpt>
      <trkpt lat="47.72173" lon="6.03684">
        <ele>207.2002</ele>
        <time>2026-05-16T15:40:51+02:00</time>
      </trkpt>
      <trkpt lat="47.72173" lon="6.03687">
        <ele>207.2002</ele>
        <time>2026-05-16T15:40:52+02:00</time>
      </trkpt>
      <trkpt lat="47.72174" lon="6.03697">
        <ele>207.60059</ele>
        <time>2026-05-16T15:40:53+02:00</time>
      </trkpt>
      <trkpt lat="47.72175" lon="6.03705">
        <ele>209.2998</ele>
        <time>2026-05-16T15:40:54+02:00</time>
      </trkpt>
      <trkpt lat="47.72175" lon="6.03712">
        <ele>211.2998</ele>
        <time>2026-05-16T15:40:55+02:00</time>
      </trkpt>
      <trkpt lat="47.72176" lon="6.03719">
        <ele>213.7002</ele>
        <time>2026-05-16T15:40:56+02:00</time>
      </trkpt>
      <trkpt lat="47.72177" lon="6.03726">
        <ele>215</ele>
        <time>2026-05-16T15:40:57+02:00</time>
      </trkpt>
      <trkpt lat="47.72178" lon="6.03733">
        <ele>213</ele>
        <time>2026-05-16T15:40:58+02:00</time>
      </trkpt>
      <trkpt lat="47.72179" lon="6.03741">
        <ele>213.5</ele>
        <time>2026-05-16T15:40:59+02:00</time>
      </trkpt>
      <trkpt lat="47.7218" lon="6.03748">
        <ele>213.60059</ele>
        <time>2026-05-16T15:41:00+02:00</time>
      </trkpt>
      <trkpt lat="47.7218" lon="6.03755">
        <ele>213.40039</ele>
        <time>2026-05-16T15:41:01+02:00</time>
      </trkpt>
      <trkpt lat="47.72181" lon="6.03762">
        <ele>213.2998</ele>
        <time>2026-05-16T15:41:02+02:00</time>
      </trkpt>
      <trkpt lat="47.72181" lon="6.03766">
        <ele>213.2998</ele>
        <time>2026-05-16T15:41:03+02:00</time>
      </trkpt>
      <trkpt lat="47.72183" lon="6.03777">
        <ele>213.2998</ele>
        <time>2026-05-16T15:41:04+02:00</time>
      </trkpt>
      <trkpt lat="47.72183" lon="6.03784">
        <ele>213.2998</ele>
        <time>2026-05-16T15:41:05+02:00</time>
      </trkpt>
      <trkpt lat="47.72184" lon="6.03792">
        <ele>211.7002</ele>
        <time>2026-05-16T15:41:06+02:00</time>
      </trkpt>
      <trkpt lat="47.72185" lon="6.03799">
        <ele>211.7002</ele>
        <time>2026-05-16T15:41:07+02:00</time>
      </trkpt>
      <trkpt lat="47.72185" lon="6.03806">
        <ele>211.7002</ele>
        <time>2026-05-16T15:41:08+02:00</time>
      </trkpt>
      <trkpt lat="47.72186" lon="6.03814">
        <ele>211.7002</ele>
        <time>2026-05-16T15:41:09+02:00</time>
      </trkpt>
      <trkpt lat="47.72186" lon="6.03822">
        <ele>211.7002</ele>
        <time>2026-05-16T15:41:10+02:00</time>
      </trkpt>
      <trkpt lat="47.72187" lon="6.03829">
        <ele>211.60059</ele>
        <time>2026-05-16T15:41:11+02:00</time>
      </trkpt>
      <trkpt lat="47.72188" lon="6.03837">
        <ele>211.60059</ele>
        <time>2026-05-16T15:41:12+02:00</time>
      </trkpt>
      <trkpt lat="47.72188" lon="6.03846">
        <ele>211.60059</ele>
        <time>2026-05-16T15:41:13+02:00</time>
      </trkpt>
      <trkpt lat="47.72189" lon="6.03854">
        <ele>210.40039</ele>
        <time>2026-05-16T15:41:14+02:00</time>
      </trkpt>
      <trkpt lat="47.7219" lon="6.03862">
        <ele>210.2998</ele>
        <time>2026-05-16T15:41:15+02:00</time>
      </trkpt>
      <trkpt lat="47.72191" lon="6.0387">
        <ele>210.2998</ele>
        <time>2026-05-16T15:41:16+02:00</time>
      </trkpt>
      <trkpt lat="47.72192" lon="6.03878">
        <ele>210.2998</ele>
        <time>2026-05-16T15:41:17+02:00</time>
      </trkpt>
      <trkpt lat="47.72193" lon="6.03886">
        <ele>210.2998</ele>
        <time>2026-05-16T15:41:18+02:00</time>
      </trkpt>
      <trkpt lat="47.72193" lon="6.03894">
        <ele>210.2002</ele>
        <time>2026-05-16T15:41:19+02:00</time>
      </trkpt>
      <trkpt lat="47.72194" lon="6.03903">
        <ele>210.2002</ele>
        <time>2026-05-16T15:41:20+02:00</time>
      </trkpt>
      <trkpt lat="47.72194" lon="6.03911">
        <ele>210.2002</ele>
        <time>2026-05-16T15:41:21+02:00</time>
      </trkpt>
      <trkpt lat="47.72194" lon="6.03919">
        <ele>210.2002</ele>
        <time>2026-05-16T15:41:22+02:00</time>
      </trkpt>
      <trkpt lat="47.72194" lon="6.03926">
        <ele>210.10059</ele>
        <time>2026-05-16T15:41:23+02:00</time>
      </trkpt>
      <trkpt lat="47.72194" lon="6.03934">
        <ele>210.10059</ele>
        <time>2026-05-16T15:41:24+02:00</time>
      </trkpt>
      <trkpt lat="47.72194" lon="6.03942">
        <ele>210.10059</ele>
        <time>2026-05-16T15:41:25+02:00</time>
      </trkpt>
      <trkpt lat="47.72195" lon="6.0395">
        <ele>209.2998</ele>
        <time>2026-05-16T15:41:26+02:00</time>
      </trkpt>
      <trkpt lat="47.72195" lon="6.03958">
        <ele>209.2002</ele>
        <time>2026-05-16T15:41:27+02:00</time>
      </trkpt>
      <trkpt lat="47.72195" lon="6.03966">
        <ele>209.2002</ele>
        <time>2026-05-16T15:41:28+02:00</time>
      </trkpt>
      <trkpt lat="47.72195" lon="6.03974">
        <ele>209.2002</ele>
        <time>2026-05-16T15:41:29+02:00</time>
      </trkpt>
      <trkpt lat="47.72195" lon="6.03978">
        <ele>209.2002</ele>
        <time>2026-05-16T15:41:30+02:00</time>
      </trkpt>
      <trkpt lat="47.72195" lon="6.03989">
        <ele>209.2002</ele>
        <time>2026-05-16T15:41:31+02:00</time>
      </trkpt>
      <trkpt lat="47.72195" lon="6.03997">
        <ele>209.10059</ele>
        <time>2026-05-16T15:41:32+02:00</time>
      </trkpt>
      <trkpt lat="47.72195" lon="6.04005">
        <ele>209.10059</ele>
        <time>2026-05-16T15:41:33+02:00</time>
      </trkpt>
      <trkpt lat="47.72195" lon="6.04013">
        <ele>209</ele>
        <time>2026-05-16T15:41:34+02:00</time>
      </trkpt>
      <trkpt lat="47.72194" lon="6.04017">
        <ele>209.60059</ele>
        <time>2026-05-16T15:41:35+02:00</time>
      </trkpt>
      <trkpt lat="47.72195" lon="6.04029">
        <ele>208.90039</ele>
        <time>2026-05-16T15:41:36+02:00</time>
      </trkpt>
      <trkpt lat="47.72195" lon="6.04038">
        <ele>208.7998</ele>
        <time>2026-05-16T15:41:37+02:00</time>
      </trkpt>
      <trkpt lat="47.72195" lon="6.04046">
        <ele>208.7998</ele>
        <time>2026-05-16T15:41:38+02:00</time>
      </trkpt>
      <trkpt lat="47.72195" lon="6.04054">
        <ele>208.7002</ele>
        <time>2026-05-16T15:41:39+02:00</time>
      </trkpt>
      <trkpt lat="47.72195" lon="6.04058">
        <ele>208.7002</ele>
        <time>2026-05-16T15:41:40+02:00</time>
      </trkpt>
      <trkpt lat="47.72194" lon="6.0407">
        <ele>209</ele>
        <time>2026-05-16T15:41:41+02:00</time>
      </trkpt>
      <trkpt lat="47.72194" lon="6.04078">
        <ele>208.90039</ele>
        <time>2026-05-16T15:41:42+02:00</time>
      </trkpt>
      <trkpt lat="47.72195" lon="6.04086">
        <ele>208.5</ele>
        <time>2026-05-16T15:41:43+02:00</time>
      </trkpt>
      <trkpt lat="47.72195" lon="6.04094">
        <ele>208.60059</ele>
        <time>2026-05-16T15:41:44+02:00</time>
      </trkpt>
      <trkpt lat="47.72195" lon="6.04102">
        <ele>208.60059</ele>
        <time>2026-05-16T15:41:45+02:00</time>
      </trkpt>
      <trkpt lat="47.72195" lon="6.0411">
        <ele>208.7998</ele>
        <time>2026-05-16T15:41:46+02:00</time>
      </trkpt>
      <trkpt lat="47.72195" lon="6.04118">
        <ele>209</ele>
        <time>2026-05-16T15:41:47+02:00</time>
      </trkpt>
      <trkpt lat="47.72195" lon="6.04125">
        <ele>209.10059</ele>
        <time>2026-05-16T15:41:48+02:00</time>
      </trkpt>
      <trkpt lat="47.72195" lon="6.04133">
        <ele>210.10059</ele>
        <time>2026-05-16T15:41:49+02:00</time>
      </trkpt>
      <trkpt lat="47.72195" lon="6.0414">
        <ele>213.10059</ele>
        <time>2026-05-16T15:41:50+02:00</time>
      </trkpt>
      <trkpt lat="47.72196" lon="6.04148">
        <ele>216.90039</ele>
        <time>2026-05-16T15:41:51+02:00</time>
      </trkpt>
      <trkpt lat="47.72196" lon="6.04156">
        <ele>220.7998</ele>
        <time>2026-05-16T15:41:52+02:00</time>
      </trkpt>
      <trkpt lat="47.72196" lon="6.04164">
        <ele>222.2998</ele>
        <time>2026-05-16T15:41:53+02:00</time>
      </trkpt>
      <trkpt lat="47.72197" lon="6.04168">
        <ele>222.2998</ele>
        <time>2026-05-16T15:41:54+02:00</time>
      </trkpt>
      <trkpt lat="47.72198" lon="6.0418">
        <ele>223.2998</ele>
        <time>2026-05-16T15:41:55+02:00</time>
      </trkpt>
      <trkpt lat="47.72199" lon="6.04188">
        <ele>223.60059</ele>
        <time>2026-05-16T15:41:56+02:00</time>
      </trkpt>
      <trkpt lat="47.72199" lon="6.04196">
        <ele>223.60059</ele>
        <time>2026-05-16T15:41:57+02:00</time>
      </trkpt>
      <trkpt lat="47.722" lon="6.04205">
        <ele>224.10059</ele>
        <time>2026-05-16T15:41:58+02:00</time>
      </trkpt>
      <trkpt lat="47.722" lon="6.04213">
        <ele>224.7002</ele>
        <time>2026-05-16T15:41:59+02:00</time>
      </trkpt>
      <trkpt lat="47.72201" lon="6.04221">
        <ele>220.2998</ele>
        <time>2026-05-16T15:42:00+02:00</time>
      </trkpt>
      <trkpt lat="47.72201" lon="6.04229">
        <ele>220.7998</ele>
        <time>2026-05-16T15:42:01+02:00</time>
      </trkpt>
      <trkpt lat="47.72202" lon="6.04237">
        <ele>221.40039</ele>
        <time>2026-05-16T15:42:02+02:00</time>
      </trkpt>
      <trkpt lat="47.72202" lon="6.04244">
        <ele>222</ele>
        <time>2026-05-16T15:42:03+02:00</time>
      </trkpt>
      <trkpt lat="47.72203" lon="6.04252">
        <ele>222.7002</ele>
        <time>2026-05-16T15:42:04+02:00</time>
      </trkpt>
      <trkpt lat="47.72204" lon="6.0426">
        <ele>223.40039</ele>
        <time>2026-05-16T15:42:05+02:00</time>
      </trkpt>
      <trkpt lat="47.72205" lon="6.04269">
        <ele>224.10059</ele>
        <time>2026-05-16T15:42:06+02:00</time>
      </trkpt>
      <trkpt lat="47.72205" lon="6.04277">
        <ele>224.90039</ele>
        <time>2026-05-16T15:42:07+02:00</time>
      </trkpt>
      <trkpt lat="47.72206" lon="6.04285">
        <ele>225.60059</ele>
        <time>2026-05-16T15:42:08+02:00</time>
      </trkpt>
      <trkpt lat="47.72207" lon="6.04293">
        <ele>222.60059</ele>
        <time>2026-05-16T15:42:09+02:00</time>
      </trkpt>
      <trkpt lat="47.72209" lon="6.04301">
        <ele>225.10059</ele>
        <time>2026-05-16T15:42:10+02:00</time>
      </trkpt>
      <trkpt lat="47.7221" lon="6.04309">
        <ele>228.2998</ele>
        <time>2026-05-16T15:42:11+02:00</time>
      </trkpt>
      <trkpt lat="47.72212" lon="6.04318">
        <ele>230.90039</ele>
        <time>2026-05-16T15:42:12+02:00</time>
      </trkpt>
      <trkpt lat="47.72214" lon="6.04326">
        <ele>230.7002</ele>
        <time>2026-05-16T15:42:13+02:00</time>
      </trkpt>
      <trkpt lat="47.72216" lon="6.04334">
        <ele>231.60059</ele>
        <time>2026-05-16T15:42:14+02:00</time>
      </trkpt>
      <trkpt lat="47.72219" lon="6.04341">
        <ele>229.40039</ele>
        <time>2026-05-16T15:42:15+02:00</time>
      </trkpt>
      <trkpt lat="47.72222" lon="6.04348">
        <ele>229.90039</ele>
        <time>2026-05-16T15:42:16+02:00</time>
      </trkpt>
      <trkpt lat="47.72226" lon="6.04355">
        <ele>226.40039</ele>
        <time>2026-05-16T15:42:17+02:00</time>
      </trkpt>
      <trkpt lat="47.7223" lon="6.04361">
        <ele>223.7998</ele>
        <time>2026-05-16T15:42:18+02:00</time>
      </trkpt>
      <trkpt lat="47.72234" lon="6.04367">
        <ele>223.7998</ele>
        <time>2026-05-16T15:42:19+02:00</time>
      </trkpt>
      <trkpt lat="47.72239" lon="6.04373">
        <ele>224.10059</ele>
        <time>2026-05-16T15:42:20+02:00</time>
      </trkpt>
      <trkpt lat="47.72243" lon="6.04379">
        <ele>225.2998</ele>
        <time>2026-05-16T15:42:21+02:00</time>
      </trkpt>
      <trkpt lat="47.72247" lon="6.04385">
        <ele>222.2002</ele>
        <time>2026-05-16T15:42:22+02:00</time>
      </trkpt>
      <trkpt lat="47.72252" lon="6.04391">
        <ele>223.90039</ele>
        <time>2026-05-16T15:42:23+02:00</time>
      </trkpt>
      <trkpt lat="47.72254" lon="6.04393">
        <ele>219.90039</ele>
        <time>2026-05-16T15:42:24+02:00</time>
      </trkpt>
      <trkpt lat="47.7226" lon="6.04401">
        <ele>218.7002</ele>
        <time>2026-05-16T15:42:25+02:00</time>
      </trkpt>
      <trkpt lat="47.72265" lon="6.04406">
        <ele>219.40039</ele>
        <time>2026-05-16T15:42:26+02:00</time>
      </trkpt>
      <trkpt lat="47.72269" lon="6.04411">
        <ele>219.40039</ele>
        <time>2026-05-16T15:42:27+02:00</time>
      </trkpt>
      <trkpt lat="47.72271" lon="6.04413">
        <ele>219.40039</ele>
        <time>2026-05-16T15:42:28+02:00</time>
      </trkpt>
      <trkpt lat="47.72278" lon="6.0442">
        <ele>217.60059</ele>
        <time>2026-05-16T15:42:29+02:00</time>
      </trkpt>
      <trkpt lat="47.72283" lon="6.04425">
        <ele>214.90039</ele>
        <time>2026-05-16T15:42:30+02:00</time>
      </trkpt>
      <trkpt lat="47.72288" lon="6.04429">
        <ele>214.7002</ele>
        <time>2026-05-16T15:42:31+02:00</time>
      </trkpt>
      <trkpt lat="47.72292" lon="6.04433">
        <ele>214.7002</ele>
        <time>2026-05-16T15:42:32+02:00</time>
      </trkpt>
      <trkpt lat="47.72297" lon="6.04437">
        <ele>214.7002</ele>
        <time>2026-05-16T15:42:33+02:00</time>
      </trkpt>
      <trkpt lat="47.72301" lon="6.04442">
        <ele>213.10059</ele>
        <time>2026-05-16T15:42:34+02:00</time>
      </trkpt>
      <trkpt lat="47.72305" lon="6.04446">
        <ele>212.5</ele>
        <time>2026-05-16T15:42:35+02:00</time>
      </trkpt>
      <trkpt lat="47.72309" lon="6.04451">
        <ele>212.5</ele>
        <time>2026-05-16T15:42:36+02:00</time>
      </trkpt>
      <trkpt lat="47.72313" lon="6.04455">
        <ele>212.2002</ele>
        <time>2026-05-16T15:42:37+02:00</time>
      </trkpt>
      <trkpt lat="47.72318" lon="6.0446">
        <ele>211.5</ele>
        <time>2026-05-16T15:42:38+02:00</time>
      </trkpt>
      <trkpt lat="47.72322" lon="6.04464">
        <ele>212</ele>
        <time>2026-05-16T15:42:39+02:00</time>
      </trkpt>
      <trkpt lat="47.72326" lon="6.04468">
        <ele>212</ele>
        <time>2026-05-16T15:42:40+02:00</time>
      </trkpt>
      <trkpt lat="47.7233" lon="6.04472">
        <ele>212.60059</ele>
        <time>2026-05-16T15:42:41+02:00</time>
      </trkpt>
      <trkpt lat="47.72333" lon="6.04474">
        <ele>212.60059</ele>
        <time>2026-05-16T15:42:42+02:00</time>
      </trkpt>
      <trkpt lat="47.72338" lon="6.04479">
        <ele>212.10059</ele>
        <time>2026-05-16T15:42:43+02:00</time>
      </trkpt>
      <trkpt lat="47.72341" lon="6.04482">
        <ele>211.7002</ele>
        <time>2026-05-16T15:42:44+02:00</time>
      </trkpt>
      <trkpt lat="47.72343" lon="6.04484">
        <ele>211.7002</ele>
        <time>2026-05-16T15:42:45+02:00</time>
      </trkpt>
      <trkpt lat="47.72344" lon="6.04484">
        <ele>211.7002</ele>
        <time>2026-05-16T15:42:46+02:00</time>
      </trkpt>
      <trkpt lat="47.72344" lon="6.04484">
        <ele>211.7002</ele>
        <time>2026-05-16T15:42:47+02:00</time>
      </trkpt>
      <trkpt lat="47.72344" lon="6.04484">
        <ele>211.7002</ele>
        <time>2026-05-16T15:42:48+02:00</time>
      </trkpt>
      <trkpt lat="47.72344" lon="6.04484">
        <ele>211.7002</ele>
        <time>2026-05-16T15:42:49+02:00</time>
      </trkpt>
      <trkpt lat="47.72344" lon="6.04484">
        <ele>211.7002</ele>
        <time>2026-05-16T15:42:50+02:00</time>
      </trkpt>
      <trkpt lat="47.72355" lon="6.04496">
        <ele>209.90039</ele>
        <time>2026-05-16T15:43:10+02:00</time>
      </trkpt>
      <trkpt lat="47.72357" lon="6.04498">
        <ele>209.7002</ele>
        <time>2026-05-16T15:43:11+02:00</time>
      </trkpt>
      <trkpt lat="47.72359" lon="6.04501">
        <ele>209.7002</ele>
        <time>2026-05-16T15:43:12+02:00</time>
      </trkpt>
      <trkpt lat="47.72361" lon="6.04503">
        <ele>209.7002</ele>
        <time>2026-05-16T15:43:13+02:00</time>
      </trkpt>
      <trkpt lat="47.72363" lon="6.04505">
        <ele>209.2998</ele>
        <time>2026-05-16T15:43:14+02:00</time>
      </trkpt>
      <trkpt lat="47.72366" lon="6.04507">
        <ele>209.60059</ele>
        <time>2026-05-16T15:43:15+02:00</time>
      </trkpt>
      <trkpt lat="47.72369" lon="6.0451">
        <ele>209.2002</ele>
        <time>2026-05-16T15:43:16+02:00</time>
      </trkpt>
      <trkpt lat="47.72371" lon="6.04512">
        <ele>209.2002</ele>
        <time>2026-05-16T15:43:17+02:00</time>
      </trkpt>
      <trkpt lat="47.72374" lon="6.04515">
        <ele>209.2002</ele>
        <time>2026-05-16T15:43:18+02:00</time>
      </trkpt>
      <trkpt lat="47.72377" lon="6.04518">
        <ele>209.2002</ele>
        <time>2026-05-16T15:43:19+02:00</time>
      </trkpt>
      <trkpt lat="47.72379" lon="6.04521">
        <ele>209.2002</ele>
        <time>2026-05-16T15:43:20+02:00</time>
      </trkpt>
      <trkpt lat="47.72383" lon="6.04523">
        <ele>209.40039</ele>
        <time>2026-05-16T15:43:21+02:00</time>
      </trkpt>
      <trkpt lat="47.72386" lon="6.04525">
        <ele>209.10059</ele>
        <time>2026-05-16T15:43:22+02:00</time>
      </trkpt>
      <trkpt lat="47.72389" lon="6.04528">
        <ele>209.10059</ele>
        <time>2026-05-16T15:43:23+02:00</time>
      </trkpt>
      <trkpt lat="47.72391" lon="6.04531">
        <ele>208.7998</ele>
        <time>2026-05-16T15:43:24+02:00</time>
      </trkpt>
      <trkpt lat="47.72394" lon="6.04535">
        <ele>209.2002</ele>
        <time>2026-05-16T15:43:25+02:00</time>
      </trkpt>
      <trkpt lat="47.72397" lon="6.04539">
        <ele>208.7998</ele>
        <time>2026-05-16T15:43:26+02:00</time>
      </trkpt>
      <trkpt lat="47.724" lon="6.04542">
        <ele>209.10059</ele>
        <time>2026-05-16T15:43:27+02:00</time>
      </trkpt>
      <trkpt lat="47.72404" lon="6.04545">
        <ele>208.90039</ele>
        <time>2026-05-16T15:43:28+02:00</time>
      </trkpt>
      <trkpt lat="47.72407" lon="6.04548">
        <ele>208.90039</ele>
        <time>2026-05-16T15:43:29+02:00</time>
      </trkpt>
      <trkpt lat="47.72411" lon="6.04552">
        <ele>209.10059</ele>
        <time>2026-05-16T15:43:30+02:00</time>
      </trkpt>
      <trkpt lat="47.72415" lon="6.04555">
        <ele>209.10059</ele>
        <time>2026-05-16T15:43:31+02:00</time>
      </trkpt>
      <trkpt lat="47.72418" lon="6.04558">
        <ele>209.7002</ele>
        <time>2026-05-16T15:43:32+02:00</time>
      </trkpt>
      <trkpt lat="47.72421" lon="6.04561">
        <ele>209.7002</ele>
        <time>2026-05-16T15:43:33+02:00</time>
      </trkpt>
      <trkpt lat="47.72425" lon="6.04565">
        <ele>209.7002</ele>
        <time>2026-05-16T15:43:34+02:00</time>
      </trkpt>
      <trkpt lat="47.72429" lon="6.04569">
        <ele>210.10059</ele>
        <time>2026-05-16T15:43:35+02:00</time>
      </trkpt>
      <trkpt lat="47.72432" lon="6.04573">
        <ele>209.7998</ele>
        <time>2026-05-16T15:43:36+02:00</time>
      </trkpt>
      <trkpt lat="47.72436" lon="6.04577">
        <ele>210.10059</ele>
        <time>2026-05-16T15:43:37+02:00</time>
      </trkpt>
      <trkpt lat="47.7244" lon="6.04581">
        <ele>209.60059</ele>
        <time>2026-05-16T15:43:38+02:00</time>
      </trkpt>
      <trkpt lat="47.72444" lon="6.04585">
        <ele>209.60059</ele>
        <time>2026-05-16T15:43:39+02:00</time>
      </trkpt>
      <trkpt lat="47.72445" lon="6.04587">
        <ele>209.60059</ele>
        <time>2026-05-16T15:43:40+02:00</time>
      </trkpt>
      <trkpt lat="47.72452" lon="6.04594">
        <ele>210</ele>
        <time>2026-05-16T15:43:41+02:00</time>
      </trkpt>
      <trkpt lat="47.72455" lon="6.04598">
        <ele>209.7002</ele>
        <time>2026-05-16T15:43:42+02:00</time>
      </trkpt>
      <trkpt lat="47.7246" lon="6.04602">
        <ele>210.2002</ele>
        <time>2026-05-16T15:43:43+02:00</time>
      </trkpt>
      <trkpt lat="47.72464" lon="6.04606">
        <ele>209.7998</ele>
        <time>2026-05-16T15:43:44+02:00</time>
      </trkpt>
      <trkpt lat="47.72468" lon="6.04611">
        <ele>209.60059</ele>
        <time>2026-05-16T15:43:45+02:00</time>
      </trkpt>
      <trkpt lat="47.72472" lon="6.04616">
        <ele>209.40039</ele>
        <time>2026-05-16T15:43:46+02:00</time>
      </trkpt>
      <trkpt lat="47.72476" lon="6.04621">
        <ele>210</ele>
        <time>2026-05-16T15:43:47+02:00</time>
      </trkpt>
      <trkpt lat="47.7248" lon="6.04626">
        <ele>210.60059</ele>
        <time>2026-05-16T15:43:48+02:00</time>
      </trkpt>
      <trkpt lat="47.72484" lon="6.0463">
        <ele>210.7002</ele>
        <time>2026-05-16T15:43:49+02:00</time>
      </trkpt>
      <trkpt lat="47.72487" lon="6.04635">
        <ele>211.10059</ele>
        <time>2026-05-16T15:43:50+02:00</time>
      </trkpt>
      <trkpt lat="47.72492" lon="6.04639">
        <ele>211.2002</ele>
        <time>2026-05-16T15:43:51+02:00</time>
      </trkpt>
      <trkpt lat="47.72495" lon="6.04644">
        <ele>211.2998</ele>
        <time>2026-05-16T15:43:52+02:00</time>
      </trkpt>
      <trkpt lat="47.72499" lon="6.04648">
        <ele>211.2998</ele>
        <time>2026-05-16T15:43:53+02:00</time>
      </trkpt>
      <trkpt lat="47.72503" lon="6.04652">
        <ele>211.10059</ele>
        <time>2026-05-16T15:43:54+02:00</time>
      </trkpt>
      <trkpt lat="47.72507" lon="6.04656">
        <ele>210.90039</ele>
        <time>2026-05-16T15:43:55+02:00</time>
      </trkpt>
      <trkpt lat="47.72511" lon="6.0466">
        <ele>210.90039</ele>
        <time>2026-05-16T15:43:56+02:00</time>
      </trkpt>
      <trkpt lat="47.72514" lon="6.04665">
        <ele>211.10059</ele>
        <time>2026-05-16T15:43:57+02:00</time>
      </trkpt>
      <trkpt lat="47.72518" lon="6.04669">
        <ele>211.10059</ele>
        <time>2026-05-16T15:43:58+02:00</time>
      </trkpt>
      <trkpt lat="47.72522" lon="6.04674">
        <ele>211.10059</ele>
        <time>2026-05-16T15:43:59+02:00</time>
      </trkpt>
      <trkpt lat="47.72527" lon="6.04678">
        <ele>210.7998</ele>
        <time>2026-05-16T15:44:00+02:00</time>
      </trkpt>
      <trkpt lat="47.72531" lon="6.04683">
        <ele>210.2998</ele>
        <time>2026-05-16T15:44:01+02:00</time>
      </trkpt>
      <trkpt lat="47.72533" lon="6.04685">
        <ele>210.2998</ele>
        <time>2026-05-16T15:44:02+02:00</time>
      </trkpt>
      <trkpt lat="47.7254" lon="6.04692">
        <ele>210.10059</ele>
        <time>2026-05-16T15:44:03+02:00</time>
      </trkpt>
      <trkpt lat="47.72544" lon="6.04697">
        <ele>210.2002</ele>
        <time>2026-05-16T15:44:04+02:00</time>
      </trkpt>
      <trkpt lat="47.72546" lon="6.04699">
        <ele>210.2002</ele>
        <time>2026-05-16T15:44:05+02:00</time>
      </trkpt>
      <trkpt lat="47.72553" lon="6.04706">
        <ele>209.40039</ele>
        <time>2026-05-16T15:44:06+02:00</time>
      </trkpt>
      <trkpt lat="47.72557" lon="6.04711">
        <ele>209.40039</ele>
        <time>2026-05-16T15:44:07+02:00</time>
      </trkpt>
      <trkpt lat="47.72561" lon="6.04715">
        <ele>208.90039</ele>
        <time>2026-05-16T15:44:08+02:00</time>
      </trkpt>
      <trkpt lat="47.72564" lon="6.04718">
        <ele>208.90039</ele>
        <time>2026-05-16T15:44:09+02:00</time>
      </trkpt>
      <trkpt lat="47.72571" lon="6.04724">
        <ele>208.60059</ele>
        <time>2026-05-16T15:44:10+02:00</time>
      </trkpt>
      <trkpt lat="47.72576" lon="6.04728">
        <ele>208.60059</ele>
        <time>2026-05-16T15:44:11+02:00</time>
      </trkpt>
      <trkpt lat="47.7258" lon="6.04732">
        <ele>208.7998</ele>
        <time>2026-05-16T15:44:12+02:00</time>
      </trkpt>
      <trkpt lat="47.72585" lon="6.04737">
        <ele>208.7002</ele>
        <time>2026-05-16T15:44:13+02:00</time>
      </trkpt>
      <trkpt lat="47.7259" lon="6.04741">
        <ele>208.7002</ele>
        <time>2026-05-16T15:44:14+02:00</time>
      </trkpt>
      <trkpt lat="47.72595" lon="6.04745">
        <ele>208.7002</ele>
        <time>2026-05-16T15:44:15+02:00</time>
      </trkpt>
      <trkpt lat="47.726" lon="6.04749">
        <ele>208.90039</ele>
        <time>2026-05-16T15:44:16+02:00</time>
      </trkpt>
      <trkpt lat="47.72604" lon="6.04753">
        <ele>208.90039</ele>
        <time>2026-05-16T15:44:17+02:00</time>
      </trkpt>
      <trkpt lat="47.72609" lon="6.04758">
        <ele>209.2998</ele>
        <time>2026-05-16T15:44:18+02:00</time>
      </trkpt>
      <trkpt lat="47.72612" lon="6.0476">
        <ele>209.40039</ele>
        <time>2026-05-16T15:44:19+02:00</time>
      </trkpt>
      <trkpt lat="47.72619" lon="6.04765">
        <ele>209.7002</ele>
        <time>2026-05-16T15:44:20+02:00</time>
      </trkpt>
      <trkpt lat="47.72624" lon="6.04769">
        <ele>209.7002</ele>
        <time>2026-05-16T15:44:21+02:00</time>
      </trkpt>
      <trkpt lat="47.72629" lon="6.04773">
        <ele>210.10059</ele>
        <time>2026-05-16T15:44:22+02:00</time>
      </trkpt>
      <trkpt lat="47.72632" lon="6.04775">
        <ele>210.10059</ele>
        <time>2026-05-16T15:44:23+02:00</time>
      </trkpt>
      <trkpt lat="47.72639" lon="6.0478">
        <ele>210.2002</ele>
        <time>2026-05-16T15:44:24+02:00</time>
      </trkpt>
      <trkpt lat="47.72645" lon="6.04783">
        <ele>211</ele>
        <time>2026-05-16T15:44:25+02:00</time>
      </trkpt>
      <trkpt lat="47.7265" lon="6.04786">
        <ele>211</ele>
        <time>2026-05-16T15:44:26+02:00</time>
      </trkpt>
      <trkpt lat="47.72655" lon="6.04789">
        <ele>211.60059</ele>
        <time>2026-05-16T15:44:27+02:00</time>
      </trkpt>
      <trkpt lat="47.7266" lon="6.04792">
        <ele>211.60059</ele>
        <time>2026-05-16T15:44:28+02:00</time>
      </trkpt>
      <trkpt lat="47.72666" lon="6.04795">
        <ele>211.40039</ele>
        <time>2026-05-16T15:44:29+02:00</time>
      </trkpt>
      <trkpt lat="47.7267" lon="6.04797">
        <ele>211.2002</ele>
        <time>2026-05-16T15:44:30+02:00</time>
      </trkpt>
      <trkpt lat="47.72675" lon="6.048">
        <ele>211.2002</ele>
        <time>2026-05-16T15:44:31+02:00</time>
      </trkpt>
      <trkpt lat="47.7268" lon="6.04803">
        <ele>211</ele>
        <time>2026-05-16T15:44:32+02:00</time>
      </trkpt>
      <trkpt lat="47.72686" lon="6.04806">
        <ele>211.10059</ele>
        <time>2026-05-16T15:44:33+02:00</time>
      </trkpt>
      <trkpt lat="47.72691" lon="6.04809">
        <ele>211.10059</ele>
        <time>2026-05-16T15:44:34+02:00</time>
      </trkpt>
      <trkpt lat="47.72696" lon="6.04812">
        <ele>211</ele>
        <time>2026-05-16T15:44:35+02:00</time>
      </trkpt>
      <trkpt lat="47.72701" lon="6.04815">
        <ele>211.2998</ele>
        <time>2026-05-16T15:44:36+02:00</time>
      </trkpt>
      <trkpt lat="47.72706" lon="6.04818">
        <ele>211.2002</ele>
        <time>2026-05-16T15:44:37+02:00</time>
      </trkpt>
      <trkpt lat="47.72712" lon="6.0482">
        <ele>211.2002</ele>
        <time>2026-05-16T15:44:38+02:00</time>
      </trkpt>
      <trkpt lat="47.72717" lon="6.04823">
        <ele>211.10059</ele>
        <time>2026-05-16T15:44:39+02:00</time>
      </trkpt>
      <trkpt lat="47.72722" lon="6.04825">
        <ele>211.2998</ele>
        <time>2026-05-16T15:44:40+02:00</time>
      </trkpt>
      <trkpt lat="47.72727" lon="6.04828">
        <ele>211.2002</ele>
        <time>2026-05-16T15:44:41+02:00</time>
      </trkpt>
      <trkpt lat="47.72732" lon="6.04832">
        <ele>211.2998</ele>
        <time>2026-05-16T15:44:42+02:00</time>
      </trkpt>
      <trkpt lat="47.72737" lon="6.04835">
        <ele>211.2998</ele>
        <time>2026-05-16T15:44:43+02:00</time>
      </trkpt>
      <trkpt lat="47.72742" lon="6.04838">
        <ele>211.10059</ele>
        <time>2026-05-16T15:44:44+02:00</time>
      </trkpt>
      <trkpt lat="47.72748" lon="6.04842">
        <ele>211.5</ele>
        <time>2026-05-16T15:44:45+02:00</time>
      </trkpt>
      <trkpt lat="47.72753" lon="6.04845">
        <ele>211.5</ele>
        <time>2026-05-16T15:44:46+02:00</time>
      </trkpt>
      <trkpt lat="47.72758" lon="6.04848">
        <ele>211.5</ele>
        <time>2026-05-16T15:44:47+02:00</time>
      </trkpt>
      <trkpt lat="47.72763" lon="6.04852">
        <ele>212</ele>
        <time>2026-05-16T15:44:48+02:00</time>
      </trkpt>
      <trkpt lat="47.72768" lon="6.04855">
        <ele>212</ele>
        <time>2026-05-16T15:44:49+02:00</time>
      </trkpt>
      <trkpt lat="47.72773" lon="6.04859">
        <ele>212.2002</ele>
        <time>2026-05-16T15:44:50+02:00</time>
      </trkpt>
      <trkpt lat="47.72778" lon="6.04863">
        <ele>212.10059</ele>
        <time>2026-05-16T15:44:51+02:00</time>
      </trkpt>
      <trkpt lat="47.72783" lon="6.04867">
        <ele>212.5</ele>
        <time>2026-05-16T15:44:52+02:00</time>
      </trkpt>
      <trkpt lat="47.72788" lon="6.04871">
        <ele>212.60059</ele>
        <time>2026-05-16T15:44:53+02:00</time>
      </trkpt>
      <trkpt lat="47.72793" lon="6.04876">
        <ele>213.2998</ele>
        <time>2026-05-16T15:44:54+02:00</time>
      </trkpt>
      <trkpt lat="47.72798" lon="6.04881">
        <ele>213.40039</ele>
        <time>2026-05-16T15:44:55+02:00</time>
      </trkpt>
      <trkpt lat="47.72802" lon="6.04886">
        <ele>213.7002</ele>
        <time>2026-05-16T15:44:56+02:00</time>
      </trkpt>
      <trkpt lat="47.72807" lon="6.04891">
        <ele>213.40039</ele>
        <time>2026-05-16T15:44:57+02:00</time>
      </trkpt>
      <trkpt lat="47.72811" lon="6.04896">
        <ele>213.60059</ele>
        <time>2026-05-16T15:44:58+02:00</time>
      </trkpt>
      <trkpt lat="47.72816" lon="6.04901">
        <ele>213.7002</ele>
        <time>2026-05-16T15:44:59+02:00</time>
      </trkpt>
      <trkpt lat="47.72821" lon="6.04906">
        <ele>213.7002</ele>
        <time>2026-05-16T15:45:00+02:00</time>
      </trkpt>
      <trkpt lat="47.72826" lon="6.0491">
        <ele>213.90039</ele>
        <time>2026-05-16T15:45:01+02:00</time>
      </trkpt>
      <trkpt lat="47.72831" lon="6.04915">
        <ele>213.7998</ele>
        <time>2026-05-16T15:45:02+02:00</time>
      </trkpt>
      <trkpt lat="47.72836" lon="6.04919">
        <ele>213.90039</ele>
        <time>2026-05-16T15:45:03+02:00</time>
      </trkpt>
      <trkpt lat="47.72841" lon="6.04922">
        <ele>213.90039</ele>
        <time>2026-05-16T15:45:04+02:00</time>
      </trkpt>
      <trkpt lat="47.72846" lon="6.04926">
        <ele>213.90039</ele>
        <time>2026-05-16T15:45:05+02:00</time>
      </trkpt>
      <trkpt lat="47.72851" lon="6.04929">
        <ele>214</ele>
        <time>2026-05-16T15:45:06+02:00</time>
      </trkpt>
      <trkpt lat="47.72857" lon="6.04932">
        <ele>213.90039</ele>
        <time>2026-05-16T15:45:07+02:00</time>
      </trkpt>
      <trkpt lat="47.72862" lon="6.04935">
        <ele>213.90039</ele>
        <time>2026-05-16T15:45:08+02:00</time>
      </trkpt>
      <trkpt lat="47.72867" lon="6.04937">
        <ele>213.7998</ele>
        <time>2026-05-16T15:45:09+02:00</time>
      </trkpt>
      <trkpt lat="47.72873" lon="6.0494">
        <ele>213.7002</ele>
        <time>2026-05-16T15:45:10+02:00</time>
      </trkpt>
      <trkpt lat="47.72878" lon="6.04942">
        <ele>213.60059</ele>
        <time>2026-05-16T15:45:11+02:00</time>
      </trkpt>
      <trkpt lat="47.72883" lon="6.04944">
        <ele>213.60059</ele>
        <time>2026-05-16T15:45:12+02:00</time>
      </trkpt>
      <trkpt lat="47.72888" lon="6.04945">
        <ele>213.5</ele>
        <time>2026-05-16T15:45:13+02:00</time>
      </trkpt>
      <trkpt lat="47.72894" lon="6.04947">
        <ele>213.5</ele>
        <time>2026-05-16T15:45:14+02:00</time>
      </trkpt>
      <trkpt lat="47.72899" lon="6.04949">
        <ele>213.5</ele>
        <time>2026-05-16T15:45:15+02:00</time>
      </trkpt>
      <trkpt lat="47.72905" lon="6.0495">
        <ele>213.40039</ele>
        <time>2026-05-16T15:45:16+02:00</time>
      </trkpt>
      <trkpt lat="47.7291" lon="6.04952">
        <ele>213.2998</ele>
        <time>2026-05-16T15:45:17+02:00</time>
      </trkpt>
      <trkpt lat="47.72916" lon="6.04953">
        <ele>213.2998</ele>
        <time>2026-05-16T15:45:18+02:00</time>
      </trkpt>
      <trkpt lat="47.72922" lon="6.04955">
        <ele>213.2002</ele>
        <time>2026-05-16T15:45:19+02:00</time>
      </trkpt>
      <trkpt lat="47.72927" lon="6.04956">
        <ele>213.2002</ele>
        <time>2026-05-16T15:45:20+02:00</time>
      </trkpt>
      <trkpt lat="47.72933" lon="6.04957">
        <ele>213.2002</ele>
        <time>2026-05-16T15:45:21+02:00</time>
      </trkpt>
      <trkpt lat="47.72938" lon="6.04957">
        <ele>213.2998</ele>
        <time>2026-05-16T15:45:22+02:00</time>
      </trkpt>
      <trkpt lat="47.72944" lon="6.04958">
        <ele>213.40039</ele>
        <time>2026-05-16T15:45:23+02:00</time>
      </trkpt>
      <trkpt lat="47.72949" lon="6.04958">
        <ele>213.60059</ele>
        <time>2026-05-16T15:45:24+02:00</time>
      </trkpt>
      <trkpt lat="47.72955" lon="6.04958">
        <ele>213.7002</ele>
        <time>2026-05-16T15:45:25+02:00</time>
      </trkpt>
      <trkpt lat="47.7296" lon="6.04958">
        <ele>213.7998</ele>
        <time>2026-05-16T15:45:26+02:00</time>
      </trkpt>
      <trkpt lat="47.72966" lon="6.04957">
        <ele>213.90039</ele>
        <time>2026-05-16T15:45:27+02:00</time>
      </trkpt>
      <trkpt lat="47.72971" lon="6.04956">
        <ele>214</ele>
        <time>2026-05-16T15:45:28+02:00</time>
      </trkpt>
      <trkpt lat="47.72977" lon="6.04955">
        <ele>214.10059</ele>
        <time>2026-05-16T15:45:29+02:00</time>
      </trkpt>
      <trkpt lat="47.72982" lon="6.04953">
        <ele>214.2002</ele>
        <time>2026-05-16T15:45:30+02:00</time>
      </trkpt>
      <trkpt lat="47.72984" lon="6.04952">
        <ele>214.2002</ele>
        <time>2026-05-16T15:45:31+02:00</time>
      </trkpt>
      <trkpt lat="47.72992" lon="6.0495">
        <ele>214.40039</ele>
        <time>2026-05-16T15:45:32+02:00</time>
      </trkpt>
      <trkpt lat="47.72998" lon="6.04948">
        <ele>214.5</ele>
        <time>2026-05-16T15:45:33+02:00</time>
      </trkpt>
      <trkpt lat="47.73004" lon="6.04945">
        <ele>214.5</ele>
        <time>2026-05-16T15:45:34+02:00</time>
      </trkpt>
      <trkpt lat="47.73009" lon="6.04943">
        <ele>214.5</ele>
        <time>2026-05-16T15:45:35+02:00</time>
      </trkpt>
      <trkpt lat="47.73015" lon="6.04941">
        <ele>214.40039</ele>
        <time>2026-05-16T15:45:36+02:00</time>
      </trkpt>
      <trkpt lat="47.7302" lon="6.04938">
        <ele>214.40039</ele>
        <time>2026-05-16T15:45:37+02:00</time>
      </trkpt>
      <trkpt lat="47.73024" lon="6.04935">
        <ele>214.40039</ele>
        <time>2026-05-16T15:45:38+02:00</time>
      </trkpt>
      <trkpt lat="47.73029" lon="6.04932">
        <ele>214.40039</ele>
        <time>2026-05-16T15:45:39+02:00</time>
      </trkpt>
      <trkpt lat="47.73033" lon="6.0493">
        <ele>214.2998</ele>
        <time>2026-05-16T15:45:40+02:00</time>
      </trkpt>
      <trkpt lat="47.73036" lon="6.04928">
        <ele>214.2998</ele>
        <time>2026-05-16T15:45:41+02:00</time>
      </trkpt>
      <trkpt lat="47.73039" lon="6.04927">
        <ele>214.2998</ele>
        <time>2026-05-16T15:45:42+02:00</time>
      </trkpt>
      <trkpt lat="47.73041" lon="6.04926">
        <ele>214.2998</ele>
        <time>2026-05-16T15:45:43+02:00</time>
      </trkpt>
      <trkpt lat="47.73044" lon="6.04924">
        <ele>214.2002</ele>
        <time>2026-05-16T15:45:44+02:00</time>
      </trkpt>
      <trkpt lat="47.73045" lon="6.04923">
        <ele>214.2002</ele>
        <time>2026-05-16T15:45:45+02:00</time>
      </trkpt>
      <trkpt lat="47.73051" lon="6.04919">
        <ele>214.2002</ele>
        <time>2026-05-16T15:45:46+02:00</time>
      </trkpt>
      <trkpt lat="47.73055" lon="6.04917">
        <ele>214.2002</ele>
        <time>2026-05-16T15:45:47+02:00</time>
      </trkpt>
      <trkpt lat="47.73058" lon="6.04914">
        <ele>214.2002</ele>
        <time>2026-05-16T15:45:48+02:00</time>
      </trkpt>
      <trkpt lat="47.73061" lon="6.04911">
        <ele>214.2002</ele>
        <time>2026-05-16T15:45:49+02:00</time>
      </trkpt>
      <trkpt lat="47.73065" lon="6.04909">
        <ele>214.2002</ele>
        <time>2026-05-16T15:45:50+02:00</time>
      </trkpt>
      <trkpt lat="47.73068" lon="6.04906">
        <ele>214.2998</ele>
        <time>2026-05-16T15:45:51+02:00</time>
      </trkpt>
      <trkpt lat="47.7307" lon="6.04904">
        <ele>214.2998</ele>
        <time>2026-05-16T15:45:52+02:00</time>
      </trkpt>
      <trkpt lat="47.73073" lon="6.04901">
        <ele>214.2998</ele>
        <time>2026-05-16T15:45:53+02:00</time>
      </trkpt>
      <trkpt lat="47.73074" lon="6.04899">
        <ele>214.40039</ele>
        <time>2026-05-16T15:45:54+02:00</time>
      </trkpt>
      <trkpt lat="47.73076" lon="6.04897">
        <ele>214.40039</ele>
        <time>2026-05-16T15:45:55+02:00</time>
      </trkpt>
      <trkpt lat="47.73078" lon="6.04895">
        <ele>214.40039</ele>
        <time>2026-05-16T15:45:56+02:00</time>
      </trkpt>
      <trkpt lat="47.7308" lon="6.04895">
        <ele>214.40039</ele>
        <time>2026-05-16T15:45:57+02:00</time>
      </trkpt>
      <trkpt lat="47.73082" lon="6.04894">
        <ele>214.40039</ele>
        <time>2026-05-16T15:45:58+02:00</time>
      </trkpt>
      <trkpt lat="47.73083" lon="6.04893">
        <ele>214.40039</ele>
        <time>2026-05-16T15:45:59+02:00</time>
      </trkpt>
      <trkpt lat="47.73085" lon="6.04892">
        <ele>214.40039</ele>
        <time>2026-05-16T15:46:00+02:00</time>
      </trkpt>
      <trkpt lat="47.73086" lon="6.0489">
        <ele>214.5</ele>
        <time>2026-05-16T15:46:01+02:00</time>
      </trkpt>
      <trkpt lat="47.73087" lon="6.04888">
        <ele>214.5</ele>
        <time>2026-05-16T15:46:02+02:00</time>
      </trkpt>
      <trkpt lat="47.73089" lon="6.04887">
        <ele>214.5</ele>
        <time>2026-05-16T15:46:03+02:00</time>
      </trkpt>
      <trkpt lat="47.7309" lon="6.04885">
        <ele>214.5</ele>
        <time>2026-05-16T15:46:04+02:00</time>
      </trkpt>
      <trkpt lat="47.73092" lon="6.04883">
        <ele>214.60059</ele>
        <time>2026-05-16T15:46:05+02:00</time>
      </trkpt>
      <trkpt lat="47.73094" lon="6.04882">
        <ele>214.60059</ele>
        <time>2026-05-16T15:46:06+02:00</time>
      </trkpt>
      <trkpt lat="47.73097" lon="6.04879">
        <ele>214.60059</ele>
        <time>2026-05-16T15:46:07+02:00</time>
      </trkpt>
      <trkpt lat="47.73099" lon="6.04877">
        <ele>214.60059</ele>
        <time>2026-05-16T15:46:08+02:00</time>
      </trkpt>
      <trkpt lat="47.73099" lon="6.04876">
        <ele>214.60059</ele>
        <time>2026-05-16T15:46:09+02:00</time>
      </trkpt>
      <trkpt lat="47.73101" lon="6.04875">
        <ele>214.60059</ele>
        <time>2026-05-16T15:46:10+02:00</time>
      </trkpt>
      <trkpt lat="47.73103" lon="6.04872">
        <ele>214.60059</ele>
        <time>2026-05-16T15:46:11+02:00</time>
      </trkpt>
      <trkpt lat="47.73107" lon="6.04867">
        <ele>214.60059</ele>
        <time>2026-05-16T15:46:12+02:00</time>
      </trkpt>
      <trkpt lat="47.7311" lon="6.04864">
        <ele>214.60059</ele>
        <time>2026-05-16T15:46:13+02:00</time>
      </trkpt>
      <trkpt lat="47.73113" lon="6.04861">
        <ele>214.60059</ele>
        <time>2026-05-16T15:46:14+02:00</time>
      </trkpt>
      <trkpt lat="47.73116" lon="6.04857">
        <ele>214.7002</ele>
        <time>2026-05-16T15:46:15+02:00</time>
      </trkpt>
      <trkpt lat="47.73119" lon="6.04853">
        <ele>214.60059</ele>
        <time>2026-05-16T15:46:16+02:00</time>
      </trkpt>
      <trkpt lat="47.73123" lon="6.04849">
        <ele>214.60059</ele>
        <time>2026-05-16T15:46:17+02:00</time>
      </trkpt>
      <trkpt lat="47.73125" lon="6.04845">
        <ele>214.60059</ele>
        <time>2026-05-16T15:46:18+02:00</time>
      </trkpt>
      <trkpt lat="47.73128" lon="6.04841">
        <ele>214.60059</ele>
        <time>2026-05-16T15:46:19+02:00</time>
      </trkpt>
      <trkpt lat="47.73131" lon="6.04837">
        <ele>214.60059</ele>
        <time>2026-05-16T15:46:20+02:00</time>
      </trkpt>
      <trkpt lat="47.73133" lon="6.04835">
        <ele>214.60059</ele>
        <time>2026-05-16T15:46:21+02:00</time>
      </trkpt>
      <trkpt lat="47.73137" lon="6.04828">
        <ele>214.60059</ele>
        <time>2026-05-16T15:46:22+02:00</time>
      </trkpt>
      <trkpt lat="47.7314" lon="6.04823">
        <ele>214.60059</ele>
        <time>2026-05-16T15:46:23+02:00</time>
      </trkpt>
      <trkpt lat="47.73142" lon="6.04819">
        <ele>214.5</ele>
        <time>2026-05-16T15:46:24+02:00</time>
      </trkpt>
      <trkpt lat="47.73144" lon="6.04817">
        <ele>214.5</ele>
        <time>2026-05-16T15:46:25+02:00</time>
      </trkpt>
      <trkpt lat="47.73147" lon="6.04812">
        <ele>214.60059</ele>
        <time>2026-05-16T15:46:26+02:00</time>
      </trkpt>
      <trkpt lat="47.73149" lon="6.04808">
        <ele>214.5</ele>
        <time>2026-05-16T15:46:27+02:00</time>
      </trkpt>
      <trkpt lat="47.73152" lon="6.04804">
        <ele>214.5</ele>
        <time>2026-05-16T15:46:28+02:00</time>
      </trkpt>
      <trkpt lat="47.73154" lon="6.04799">
        <ele>214.40039</ele>
        <time>2026-05-16T15:46:29+02:00</time>
      </trkpt>
      <trkpt lat="47.73156" lon="6.04795">
        <ele>214.40039</ele>
        <time>2026-05-16T15:46:30+02:00</time>
      </trkpt>
      <trkpt lat="47.73158" lon="6.04791">
        <ele>214.40039</ele>
        <time>2026-05-16T15:46:31+02:00</time>
      </trkpt>
      <trkpt lat="47.7316" lon="6.04787">
        <ele>214.2998</ele>
        <time>2026-05-16T15:46:32+02:00</time>
      </trkpt>
      <trkpt lat="47.73162" lon="6.04783">
        <ele>214.2998</ele>
        <time>2026-05-16T15:46:33+02:00</time>
      </trkpt>
      <trkpt lat="47.73163" lon="6.04778">
        <ele>214.2998</ele>
        <time>2026-05-16T15:46:34+02:00</time>
      </trkpt>
      <trkpt lat="47.73165" lon="6.04772">
        <ele>214.2998</ele>
        <time>2026-05-16T15:46:35+02:00</time>
      </trkpt>
      <trkpt lat="47.73165" lon="6.04769">
        <ele>214.2998</ele>
        <time>2026-05-16T15:46:36+02:00</time>
      </trkpt>
      <trkpt lat="47.73168" lon="6.0476">
        <ele>214.2998</ele>
        <time>2026-05-16T15:46:37+02:00</time>
      </trkpt>
      <trkpt lat="47.73169" lon="6.04754">
        <ele>214.2998</ele>
        <time>2026-05-16T15:46:38+02:00</time>
      </trkpt>
      <trkpt lat="47.73171" lon="6.04749">
        <ele>214.2002</ele>
        <time>2026-05-16T15:46:39+02:00</time>
      </trkpt>
      <trkpt lat="47.73174" lon="6.04744">
        <ele>214.2998</ele>
        <time>2026-05-16T15:46:40+02:00</time>
      </trkpt>
      <trkpt lat="47.73176" lon="6.04738">
        <ele>214.2998</ele>
        <time>2026-05-16T15:46:41+02:00</time>
      </trkpt>
      <trkpt lat="47.73178" lon="6.04733">
        <ele>214.2002</ele>
        <time>2026-05-16T15:46:42+02:00</time>
      </trkpt>
      <trkpt lat="47.7318" lon="6.04727">
        <ele>214.2002</ele>
        <time>2026-05-16T15:46:43+02:00</time>
      </trkpt>
      <trkpt lat="47.73182" lon="6.04722">
        <ele>214.10059</ele>
        <time>2026-05-16T15:46:44+02:00</time>
      </trkpt>
      <trkpt lat="47.73185" lon="6.04716">
        <ele>214.2002</ele>
        <time>2026-05-16T15:46:45+02:00</time>
      </trkpt>
      <trkpt lat="47.73188" lon="6.0471">
        <ele>214.2002</ele>
        <time>2026-05-16T15:46:46+02:00</time>
      </trkpt>
      <trkpt lat="47.73191" lon="6.04703">
        <ele>214.2002</ele>
        <time>2026-05-16T15:46:47+02:00</time>
      </trkpt>
      <trkpt lat="47.73194" lon="6.04697">
        <ele>214.10059</ele>
        <time>2026-05-16T15:46:48+02:00</time>
      </trkpt>
      <trkpt lat="47.73197" lon="6.04691">
        <ele>214.2002</ele>
        <time>2026-05-16T15:46:49+02:00</time>
      </trkpt>
      <trkpt lat="47.73199" lon="6.04687">
        <ele>214.2002</ele>
        <time>2026-05-16T15:46:50+02:00</time>
      </trkpt>
      <trkpt lat="47.73204" lon="6.04677">
        <ele>214.10059</ele>
        <time>2026-05-16T15:46:51+02:00</time>
      </trkpt>
      <trkpt lat="47.73207" lon="6.0467">
        <ele>214</ele>
        <time>2026-05-16T15:46:52+02:00</time>
      </trkpt>
      <trkpt lat="47.7321" lon="6.04663">
        <ele>214</ele>
        <time>2026-05-16T15:46:53+02:00</time>
      </trkpt>
      <trkpt lat="47.73214" lon="6.04656">
        <ele>213.90039</ele>
        <time>2026-05-16T15:46:54+02:00</time>
      </trkpt>
      <trkpt lat="47.73217" lon="6.04649">
        <ele>213.7002</ele>
        <time>2026-05-16T15:46:55+02:00</time>
      </trkpt>
      <trkpt lat="47.7322" lon="6.04642">
        <ele>213.7002</ele>
        <time>2026-05-16T15:46:56+02:00</time>
      </trkpt>
      <trkpt lat="47.73224" lon="6.04635">
        <ele>213.60059</ele>
        <time>2026-05-16T15:46:57+02:00</time>
      </trkpt>
      <trkpt lat="47.73225" lon="6.04632">
        <ele>213.60059</ele>
        <time>2026-05-16T15:46:58+02:00</time>
      </trkpt>
      <trkpt lat="47.7323" lon="6.04621">
        <ele>213.40039</ele>
        <time>2026-05-16T15:46:59+02:00</time>
      </trkpt>
      <trkpt lat="47.73233" lon="6.04614">
        <ele>213.40039</ele>
        <time>2026-05-16T15:47:00+02:00</time>
      </trkpt>
      <trkpt lat="47.73237" lon="6.04607">
        <ele>213.10059</ele>
        <time>2026-05-16T15:47:01+02:00</time>
      </trkpt>
      <trkpt lat="47.7324" lon="6.046">
        <ele>213.10059</ele>
        <time>2026-05-16T15:47:02+02:00</time>
      </trkpt>
      <trkpt lat="47.73243" lon="6.04592">
        <ele>212.7998</ele>
        <time>2026-05-16T15:47:03+02:00</time>
      </trkpt>
      <trkpt lat="47.73246" lon="6.04585">
        <ele>212.5</ele>
        <time>2026-05-16T15:47:04+02:00</time>
      </trkpt>
      <trkpt lat="47.73249" lon="6.04577">
        <ele>212.2002</ele>
        <time>2026-05-16T15:47:05+02:00</time>
      </trkpt>
      <trkpt lat="47.73252" lon="6.04569">
        <ele>211.7998</ele>
        <time>2026-05-16T15:47:06+02:00</time>
      </trkpt>
      <trkpt lat="47.73255" lon="6.04561">
        <ele>211.40039</ele>
        <time>2026-05-16T15:47:07+02:00</time>
      </trkpt>
      <trkpt lat="47.73259" lon="6.04552">
        <ele>211.10059</ele>
        <time>2026-05-16T15:47:08+02:00</time>
      </trkpt>
      <trkpt lat="47.73262" lon="6.04544">
        <ele>210.7002</ele>
        <time>2026-05-16T15:47:09+02:00</time>
      </trkpt>
      <trkpt lat="47.73265" lon="6.04535">
        <ele>210.7998</ele>
        <time>2026-05-16T15:47:10+02:00</time>
      </trkpt>
      <trkpt lat="47.73267" lon="6.04526">
        <ele>210.40039</ele>
        <time>2026-05-16T15:47:11+02:00</time>
      </trkpt>
      <trkpt lat="47.73271" lon="6.04517">
        <ele>210.40039</ele>
        <time>2026-05-16T15:47:12+02:00</time>
      </trkpt>
      <trkpt lat="47.73274" lon="6.04509">
        <ele>209.7998</ele>
        <time>2026-05-16T15:47:13+02:00</time>
      </trkpt>
      <trkpt lat="47.73277" lon="6.045">
        <ele>209.7998</ele>
        <time>2026-05-16T15:47:14+02:00</time>
      </trkpt>
      <trkpt lat="47.7328" lon="6.04493">
        <ele>209.40039</ele>
        <time>2026-05-16T15:47:15+02:00</time>
      </trkpt>
      <trkpt lat="47.73283" lon="6.04487">
        <ele>209.5</ele>
        <time>2026-05-16T15:47:16+02:00</time>
      </trkpt>
      <trkpt lat="47.73287" lon="6.04482">
        <ele>210</ele>
        <time>2026-05-16T15:47:17+02:00</time>
      </trkpt>
      <trkpt lat="47.73289" lon="6.04478">
        <ele>209.5</ele>
        <time>2026-05-16T15:47:18+02:00</time>
      </trkpt>
      <trkpt lat="47.73292" lon="6.04475">
        <ele>209.90039</ele>
        <time>2026-05-16T15:47:19+02:00</time>
      </trkpt>
      <trkpt lat="47.73294" lon="6.04472">
        <ele>209.90039</ele>
        <time>2026-05-16T15:47:20+02:00</time>
      </trkpt>
      <trkpt lat="47.73295" lon="6.04468">
        <ele>209.5</ele>
        <time>2026-05-16T15:47:21+02:00</time>
      </trkpt>
      <trkpt lat="47.73296" lon="6.04464">
        <ele>209.5</ele>
        <time>2026-05-16T15:47:22+02:00</time>
      </trkpt>
      <trkpt lat="47.73296" lon="6.0446">
        <ele>209.10059</ele>
        <time>2026-05-16T15:47:23+02:00</time>
      </trkpt>
      <trkpt lat="47.73297" lon="6.04457">
        <ele>209.10059</ele>
        <time>2026-05-16T15:47:24+02:00</time>
      </trkpt>
      <trkpt lat="47.73298" lon="6.04453">
        <ele>209.2002</ele>
        <time>2026-05-16T15:47:25+02:00</time>
      </trkpt>
      <trkpt lat="47.73299" lon="6.04448">
        <ele>209.2002</ele>
        <time>2026-05-16T15:47:26+02:00</time>
      </trkpt>
      <trkpt lat="47.733" lon="6.04444">
        <ele>208.7002</ele>
        <time>2026-05-16T15:47:27+02:00</time>
      </trkpt>
      <trkpt lat="47.73301" lon="6.04439">
        <ele>208.7002</ele>
        <time>2026-05-16T15:47:28+02:00</time>
      </trkpt>
      <trkpt lat="47.73302" lon="6.04434">
        <ele>208.2998</ele>
        <time>2026-05-16T15:47:29+02:00</time>
      </trkpt>
      <trkpt lat="47.73303" lon="6.04429">
        <ele>208.2998</ele>
        <time>2026-05-16T15:47:30+02:00</time>
      </trkpt>
      <trkpt lat="47.73304" lon="6.04424">
        <ele>208.10059</ele>
        <time>2026-05-16T15:47:31+02:00</time>
      </trkpt>
      <trkpt lat="47.73305" lon="6.0442">
        <ele>208.10059</ele>
        <time>2026-05-16T15:47:32+02:00</time>
      </trkpt>
      <trkpt lat="47.73306" lon="6.04415">
        <ele>207.7002</ele>
        <time>2026-05-16T15:47:33+02:00</time>
      </trkpt>
      <trkpt lat="47.73308" lon="6.04411">
        <ele>207.5</ele>
        <time>2026-05-16T15:47:34+02:00</time>
      </trkpt>
      <trkpt lat="47.73308" lon="6.04406">
        <ele>207.5</ele>
        <time>2026-05-16T15:47:35+02:00</time>
      </trkpt>
      <trkpt lat="47.73308" lon="6.04401">
        <ele>207.60059</ele>
        <time>2026-05-16T15:47:36+02:00</time>
      </trkpt>
      <trkpt lat="47.73309" lon="6.04395">
        <ele>208</ele>
        <time>2026-05-16T15:47:37+02:00</time>
      </trkpt>
      <trkpt lat="47.73309" lon="6.0439">
        <ele>207.90039</ele>
        <time>2026-05-16T15:47:38+02:00</time>
      </trkpt>
      <trkpt lat="47.7331" lon="6.04384">
        <ele>207.7998</ele>
        <time>2026-05-16T15:47:39+02:00</time>
      </trkpt>
      <trkpt lat="47.73311" lon="6.04378">
        <ele>207.7998</ele>
        <time>2026-05-16T15:47:40+02:00</time>
      </trkpt>
      <trkpt lat="47.73312" lon="6.04372">
        <ele>207.7002</ele>
        <time>2026-05-16T15:47:41+02:00</time>
      </trkpt>
      <trkpt lat="47.73313" lon="6.04366">
        <ele>207.5</ele>
        <time>2026-05-16T15:47:42+02:00</time>
      </trkpt>
      <trkpt lat="47.73313" lon="6.04362">
        <ele>207.5</ele>
        <time>2026-05-16T15:47:43+02:00</time>
      </trkpt>
      <trkpt lat="47.73314" lon="6.04353">
        <ele>207.2998</ele>
        <time>2026-05-16T15:47:44+02:00</time>
      </trkpt>
      <trkpt lat="47.73315" lon="6.04348">
        <ele>207.2002</ele>
        <time>2026-05-16T15:47:45+02:00</time>
      </trkpt>
      <trkpt lat="47.73316" lon="6.04344">
        <ele>207.2002</ele>
        <time>2026-05-16T15:47:46+02:00</time>
      </trkpt>
      <trkpt lat="47.73317" lon="6.0434">
        <ele>207.2002</ele>
        <time>2026-05-16T15:47:47+02:00</time>
      </trkpt>
      <trkpt lat="47.73317" lon="6.04337">
        <ele>207.2002</ele>
        <time>2026-05-16T15:47:48+02:00</time>
      </trkpt>
      <trkpt lat="47.73317" lon="6.04333">
        <ele>207.2002</ele>
        <time>2026-05-16T15:47:49+02:00</time>
      </trkpt>
      <trkpt lat="47.73317" lon="6.0433">
        <ele>207.2002</ele>
        <time>2026-05-16T15:47:50+02:00</time>
      </trkpt>
      <trkpt lat="47.73317" lon="6.04327">
        <ele>207.2002</ele>
        <time>2026-05-16T15:47:51+02:00</time>
      </trkpt>
      <trkpt lat="47.73318" lon="6.04324">
        <ele>207.2002</ele>
        <time>2026-05-16T15:47:52+02:00</time>
      </trkpt>
      <trkpt lat="47.73319" lon="6.0432">
        <ele>207.2002</ele>
        <time>2026-05-16T15:47:53+02:00</time>
      </trkpt>
      <trkpt lat="47.73319" lon="6.04317">
        <ele>207.2002</ele>
        <time>2026-05-16T15:47:54+02:00</time>
      </trkpt>
      <trkpt lat="47.7332" lon="6.04314">
        <ele>207.2002</ele>
        <time>2026-05-16T15:47:55+02:00</time>
      </trkpt>
      <trkpt lat="47.7332" lon="6.04312">
        <ele>207.2002</ele>
        <time>2026-05-16T15:47:56+02:00</time>
      </trkpt>
      <trkpt lat="47.73319" lon="6.04311">
        <ele>207.2002</ele>
        <time>2026-05-16T15:47:57+02:00</time>
      </trkpt>
      <trkpt lat="47.73319" lon="6.04311">
        <ele>207.2002</ele>
        <time>2026-05-16T15:47:58+02:00</time>
      </trkpt>
      <trkpt lat="47.73318" lon="6.04311">
        <ele>207.2002</ele>
        <time>2026-05-16T15:47:59+02:00</time>
      </trkpt>
      <trkpt lat="47.73318" lon="6.04311">
        <ele>207.2002</ele>
        <time>2026-05-16T15:48:00+02:00</time>
      </trkpt>
      <trkpt lat="47.73318" lon="6.04311">
        <ele>207.2002</ele>
        <time>2026-05-16T15:48:01+02:00</time>
      </trkpt>
      <trkpt lat="47.73318" lon="6.04311">
        <ele>207.2002</ele>
        <time>2026-05-16T15:49:46+02:00</time>
      </trkpt>
      <trkpt lat="47.73318" lon="6.04311">
        <ele>207.2002</ele>
        <time>2026-05-16T15:49:47+02:00</time>
      </trkpt>
      <trkpt lat="47.73318" lon="6.04311">
        <ele>207.2002</ele>
        <time>2026-05-16T15:49:48+02:00</time>
      </trkpt>
      <trkpt lat="47.73318" lon="6.04311">
        <ele>207.2002</ele>
        <time>2026-05-16T15:49:49+02:00</time>
      </trkpt>
      <trkpt lat="47.73318" lon="6.04311">
        <ele>207.2002</ele>
        <time>2026-05-16T15:49:50+02:00</time>
      </trkpt>
      <trkpt lat="47.73318" lon="6.04311">
        <ele>207.2002</ele>
        <time>2026-05-16T15:49:51+02:00</time>
      </trkpt>
      <trkpt lat="47.73318" lon="6.04311">
        <ele>207.2002</ele>
        <time>2026-05-16T15:49:52+02:00</time>
      </trkpt>
      <trkpt lat="47.73318" lon="6.04311">
        <ele>207.2002</ele>
        <time>2026-05-16T15:49:53+02:00</time>
      </trkpt>
      <trkpt lat="47.73318" lon="6.04311">
        <ele>207.2002</ele>
        <time>2026-05-16T15:49:54+02:00</time>
      </trkpt>
      <trkpt lat="47.73318" lon="6.04311">
        <ele>207.2002</ele>
        <time>2026-05-16T15:49:55+02:00</time>
      </trkpt>
      <trkpt lat="47.73318" lon="6.04311">
        <ele>207.2002</ele>
        <time>2026-05-16T15:49:56+02:00</time>
      </trkpt>
      <trkpt lat="47.73318" lon="6.04311">
        <ele>207.2002</ele>
        <time>2026-05-16T15:49:57+02:00</time>
      </trkpt>
      <trkpt lat="47.73318" lon="6.04311">
        <ele>207.2002</ele>
        <time>2026-05-16T15:49:58+02:00</time>
      </trkpt>
      <trkpt lat="47.73318" lon="6.04311">
        <ele>207.2002</ele>
        <time>2026-05-16T15:49:59+02:00</time>
      </trkpt>
      <trkpt lat="47.73318" lon="6.04311">
        <ele>207.2002</ele>
        <time>2026-05-16T15:50:00+02:00</time>
      </trkpt>
      <trkpt lat="47.73321" lon="6.04311">
        <ele>207.5</ele>
        <time>2026-05-16T15:50:01+02:00</time>
      </trkpt>
      <trkpt lat="47.73322" lon="6.0431">
        <ele>207.5</ele>
        <time>2026-05-16T15:50:02+02:00</time>
      </trkpt>
      <trkpt lat="47.73323" lon="6.04307">
        <ele>207.5</ele>
        <time>2026-05-16T15:50:03+02:00</time>
      </trkpt>
      <trkpt lat="47.73323" lon="6.04304">
        <ele>207.5</ele>
        <time>2026-05-16T15:50:04+02:00</time>
      </trkpt>
      <trkpt lat="47.73324" lon="6.04301">
        <ele>207.5</ele>
        <time>2026-05-16T15:50:05+02:00</time>
      </trkpt>
      <trkpt lat="47.73324" lon="6.04298">
        <ele>207.40039</ele>
        <time>2026-05-16T15:50:06+02:00</time>
      </trkpt>
      <trkpt lat="47.73325" lon="6.04295">
        <ele>207.40039</ele>
        <time>2026-05-16T15:50:07+02:00</time>
      </trkpt>
      <trkpt lat="47.73325" lon="6.04291">
        <ele>207.40039</ele>
        <time>2026-05-16T15:50:08+02:00</time>
      </trkpt>
      <trkpt lat="47.73325" lon="6.04287">
        <ele>207.2002</ele>
        <time>2026-05-16T15:50:09+02:00</time>
      </trkpt>
      <trkpt lat="47.73326" lon="6.04283">
        <ele>207.2002</ele>
        <time>2026-05-16T15:50:10+02:00</time>
      </trkpt>
      <trkpt lat="47.73327" lon="6.04278">
        <ele>207</ele>
        <time>2026-05-16T15:50:11+02:00</time>
      </trkpt>
      <trkpt lat="47.73328" lon="6.04274">
        <ele>207</ele>
        <time>2026-05-16T15:50:12+02:00</time>
      </trkpt>
      <trkpt lat="47.73329" lon="6.04271">
        <ele>207</ele>
        <time>2026-05-16T15:50:13+02:00</time>
      </trkpt>
      <trkpt lat="47.7333" lon="6.04268">
        <ele>207</ele>
        <time>2026-05-16T15:50:14+02:00</time>
      </trkpt>
      <trkpt lat="47.73331" lon="6.04265">
        <ele>207</ele>
        <time>2026-05-16T15:50:15+02:00</time>
      </trkpt>
      <trkpt lat="47.73332" lon="6.04261">
        <ele>207</ele>
        <time>2026-05-16T15:50:16+02:00</time>
      </trkpt>
      <trkpt lat="47.73333" lon="6.04258">
        <ele>207</ele>
        <time>2026-05-16T15:50:17+02:00</time>
      </trkpt>
      <trkpt lat="47.73334" lon="6.04254">
        <ele>207.10059</ele>
        <time>2026-05-16T15:50:18+02:00</time>
      </trkpt>
      <trkpt lat="47.73335" lon="6.0425">
        <ele>207.10059</ele>
        <time>2026-05-16T15:50:19+02:00</time>
      </trkpt>
      <trkpt lat="47.73336" lon="6.04247">
        <ele>207.10059</ele>
        <time>2026-05-16T15:50:20+02:00</time>
      </trkpt>
      <trkpt lat="47.73337" lon="6.04243">
        <ele>207.10059</ele>
        <time>2026-05-16T15:50:21+02:00</time>
      </trkpt>
      <trkpt lat="47.73338" lon="6.0424">
        <ele>207.40039</ele>
        <time>2026-05-16T15:50:22+02:00</time>
      </trkpt>
      <trkpt lat="47.7334" lon="6.04235">
        <ele>207.40039</ele>
        <time>2026-05-16T15:50:23+02:00</time>
      </trkpt>
      <trkpt lat="47.73341" lon="6.04231">
        <ele>207.40039</ele>
        <time>2026-05-16T15:50:24+02:00</time>
      </trkpt>
      <trkpt lat="47.73342" lon="6.04226">
        <ele>207.40039</ele>
        <time>2026-05-16T15:50:25+02:00</time>
      </trkpt>
      <trkpt lat="47.73343" lon="6.0422">
        <ele>207.40039</ele>
        <time>2026-05-16T15:50:26+02:00</time>
      </trkpt>
      <trkpt lat="47.73345" lon="6.04215">
        <ele>207.7998</ele>
        <time>2026-05-16T15:50:27+02:00</time>
      </trkpt>
      <trkpt lat="47.73346" lon="6.04208">
        <ele>207.7998</ele>
        <time>2026-05-16T15:50:28+02:00</time>
      </trkpt>
      <trkpt lat="47.73347" lon="6.04202">
        <ele>207.7002</ele>
        <time>2026-05-16T15:50:29+02:00</time>
      </trkpt>
      <trkpt lat="47.73349" lon="6.04197">
        <ele>207.7002</ele>
        <time>2026-05-16T15:50:30+02:00</time>
      </trkpt>
      <trkpt lat="47.73351" lon="6.04191">
        <ele>207.7002</ele>
        <time>2026-05-16T15:50:31+02:00</time>
      </trkpt>
      <trkpt lat="47.73353" lon="6.04186">
        <ele>207.40039</ele>
        <time>2026-05-16T15:50:32+02:00</time>
      </trkpt>
      <trkpt lat="47.73354" lon="6.04183">
        <ele>207.40039</ele>
        <time>2026-05-16T15:50:33+02:00</time>
      </trkpt>
      <trkpt lat="47.73356" lon="6.04179">
        <ele>207.2998</ele>
        <time>2026-05-16T15:50:34+02:00</time>
      </trkpt>
      <trkpt lat="47.73356" lon="6.04176">
        <ele>207.2998</ele>
        <time>2026-05-16T15:50:35+02:00</time>
      </trkpt>
      <trkpt lat="47.73356" lon="6.04173">
        <ele>207.2998</ele>
        <time>2026-05-16T15:50:36+02:00</time>
      </trkpt>
      <trkpt lat="47.73354" lon="6.04171">
        <ele>207.10059</ele>
        <time>2026-05-16T15:50:37+02:00</time>
      </trkpt>
      <trkpt lat="47.73352" lon="6.04169">
        <ele>207</ele>
        <time>2026-05-16T15:50:38+02:00</time>
      </trkpt>
      <trkpt lat="47.7335" lon="6.04168">
        <ele>207</ele>
        <time>2026-05-16T15:50:39+02:00</time>
      </trkpt>
      <trkpt lat="47.73347" lon="6.04167">
        <ele>206.90039</ele>
        <time>2026-05-16T15:50:40+02:00</time>
      </trkpt>
      <trkpt lat="47.73344" lon="6.04166">
        <ele>206.90039</ele>
        <time>2026-05-16T15:50:41+02:00</time>
      </trkpt>
      <trkpt lat="47.73341" lon="6.04164">
        <ele>207</ele>
        <time>2026-05-16T15:50:42+02:00</time>
      </trkpt>
      <trkpt lat="47.73337" lon="6.04162">
        <ele>207.2002</ele>
        <time>2026-05-16T15:50:43+02:00</time>
      </trkpt>
      <trkpt lat="47.73334" lon="6.0416">
        <ele>207.2002</ele>
        <time>2026-05-16T15:50:44+02:00</time>
      </trkpt>
      <trkpt lat="47.73332" lon="6.04159">
        <ele>207.7002</ele>
        <time>2026-05-16T15:50:45+02:00</time>
      </trkpt>
      <trkpt lat="47.73327" lon="6.04157">
        <ele>207.7002</ele>
        <time>2026-05-16T15:50:46+02:00</time>
      </trkpt>
      <trkpt lat="47.73324" lon="6.04155">
        <ele>208.40039</ele>
        <time>2026-05-16T15:50:47+02:00</time>
      </trkpt>
      <trkpt lat="47.7332" lon="6.04153">
        <ele>209.60059</ele>
        <time>2026-05-16T15:50:48+02:00</time>
      </trkpt>
      <trkpt lat="47.73316" lon="6.04151">
        <ele>209.60059</ele>
        <time>2026-05-16T15:50:49+02:00</time>
      </trkpt>
      <trkpt lat="47.73312" lon="6.0415">
        <ele>211.10059</ele>
        <time>2026-05-16T15:50:50+02:00</time>
      </trkpt>
      <trkpt lat="47.73308" lon="6.04147">
        <ele>212.90039</ele>
        <time>2026-05-16T15:50:51+02:00</time>
      </trkpt>
      <trkpt lat="47.73305" lon="6.04144">
        <ele>213.40039</ele>
        <time>2026-05-16T15:50:52+02:00</time>
      </trkpt>
      <trkpt lat="47.73302" lon="6.0414">
        <ele>215.7002</ele>
        <time>2026-05-16T15:50:53+02:00</time>
      </trkpt>
      <trkpt lat="47.73301" lon="6.04134">
        <ele>216.5</ele>
        <time>2026-05-16T15:50:54+02:00</time>
      </trkpt>
      <trkpt lat="47.73302" lon="6.04128">
        <ele>216.5</ele>
        <time>2026-05-16T15:50:55+02:00</time>
      </trkpt>
      <trkpt lat="47.73303" lon="6.04125">
        <ele>217.10059</ele>
        <time>2026-05-16T15:50:56+02:00</time>
      </trkpt>
      <trkpt lat="47.73308" lon="6.04112">
        <ele>215</ele>
        <time>2026-05-16T15:50:57+02:00</time>
      </trkpt>
      <trkpt lat="47.73311" lon="6.04103">
        <ele>213.2998</ele>
        <time>2026-05-16T15:50:58+02:00</time>
      </trkpt>
      <trkpt lat="47.73314" lon="6.04093">
        <ele>214.5</ele>
        <time>2026-05-16T15:50:59+02:00</time>
      </trkpt>
      <trkpt lat="47.73317" lon="6.04082">
        <ele>213.40039</ele>
        <time>2026-05-16T15:51:00+02:00</time>
      </trkpt>
      <trkpt lat="47.7332" lon="6.04071">
        <ele>214.10059</ele>
        <time>2026-05-16T15:51:01+02:00</time>
      </trkpt>
      <trkpt lat="47.73322" lon="6.0406">
        <ele>213.10059</ele>
        <time>2026-05-16T15:51:02+02:00</time>
      </trkpt>
      <trkpt lat="47.73324" lon="6.04049">
        <ele>214.5</ele>
        <time>2026-05-16T15:51:03+02:00</time>
      </trkpt>
      <trkpt lat="47.73326" lon="6.04038">
        <ele>215.2002</ele>
        <time>2026-05-16T15:51:04+02:00</time>
      </trkpt>
      <trkpt lat="47.73328" lon="6.04028">
        <ele>213.7998</ele>
        <time>2026-05-16T15:51:05+02:00</time>
      </trkpt>
      <trkpt lat="47.73329" lon="6.04018">
        <ele>214.5</ele>
        <time>2026-05-16T15:51:06+02:00</time>
      </trkpt>
      <trkpt lat="47.7333" lon="6.04013">
        <ele>215.40039</ele>
        <time>2026-05-16T15:51:07+02:00</time>
      </trkpt>
      <trkpt lat="47.73332" lon="6.03999">
        <ele>218.10059</ele>
        <time>2026-05-16T15:51:08+02:00</time>
      </trkpt>
      <trkpt lat="47.73334" lon="6.0399">
        <ele>217.90039</ele>
        <time>2026-05-16T15:51:09+02:00</time>
      </trkpt>
      <trkpt lat="47.73337" lon="6.03981">
        <ele>219.60059</ele>
        <time>2026-05-16T15:51:10+02:00</time>
      </trkpt>
      <trkpt lat="47.73338" lon="6.03971">
        <ele>217</ele>
        <time>2026-05-16T15:51:11+02:00</time>
      </trkpt>
      <trkpt lat="47.7334" lon="6.03962">
        <ele>217.40039</ele>
        <time>2026-05-16T15:51:12+02:00</time>
      </trkpt>
      <trkpt lat="47.73342" lon="6.03953">
        <ele>217.7002</ele>
        <time>2026-05-16T15:51:13+02:00</time>
      </trkpt>
      <trkpt lat="47.73344" lon="6.03944">
        <ele>215</ele>
        <time>2026-05-16T15:51:14+02:00</time>
      </trkpt>
      <trkpt lat="47.73346" lon="6.03935">
        <ele>215.40039</ele>
        <time>2026-05-16T15:51:15+02:00</time>
      </trkpt>
      <trkpt lat="47.73349" lon="6.03926">
        <ele>215.7998</ele>
        <time>2026-05-16T15:51:16+02:00</time>
      </trkpt>
      <trkpt lat="47.73352" lon="6.03917">
        <ele>214.10059</ele>
        <time>2026-05-16T15:51:17+02:00</time>
      </trkpt>
      <trkpt lat="47.73353" lon="6.03913">
        <ele>214.90039</ele>
        <time>2026-05-16T15:51:18+02:00</time>
      </trkpt>
      <trkpt lat="47.73358" lon="6.039">
        <ele>213.90039</ele>
        <time>2026-05-16T15:51:19+02:00</time>
      </trkpt>
      <trkpt lat="47.73361" lon="6.03893">
        <ele>215</ele>
        <time>2026-05-16T15:51:20+02:00</time>
      </trkpt>
      <trkpt lat="47.73365" lon="6.03885">
        <ele>214</ele>
        <time>2026-05-16T15:51:21+02:00</time>
      </trkpt>
      <trkpt lat="47.73366" lon="6.03881">
        <ele>214</ele>
        <time>2026-05-16T15:51:22+02:00</time>
      </trkpt>
      <trkpt lat="47.73372" lon="6.0387">
        <ele>213.10059</ele>
        <time>2026-05-16T15:51:23+02:00</time>
      </trkpt>
      <trkpt lat="47.73375" lon="6.03863">
        <ele>211.2998</ele>
        <time>2026-05-16T15:51:24+02:00</time>
      </trkpt>
      <trkpt lat="47.7338" lon="6.03856">
        <ele>210.40039</ele>
        <time>2026-05-16T15:51:25+02:00</time>
      </trkpt>
      <trkpt lat="47.73383" lon="6.03849">
        <ele>211.2998</ele>
        <time>2026-05-16T15:51:26+02:00</time>
      </trkpt>
      <trkpt lat="47.73388" lon="6.03842">
        <ele>211</ele>
        <time>2026-05-16T15:51:27+02:00</time>
      </trkpt>
      <trkpt lat="47.73392" lon="6.03835">
        <ele>210.5</ele>
        <time>2026-05-16T15:51:28+02:00</time>
      </trkpt>
      <trkpt lat="47.73397" lon="6.03829">
        <ele>209.5</ele>
        <time>2026-05-16T15:51:29+02:00</time>
      </trkpt>
      <trkpt lat="47.73401" lon="6.03822">
        <ele>210</ele>
        <time>2026-05-16T15:51:30+02:00</time>
      </trkpt>
      <trkpt lat="47.73406" lon="6.03816">
        <ele>209.7002</ele>
        <time>2026-05-16T15:51:31+02:00</time>
      </trkpt>
      <trkpt lat="47.73411" lon="6.03809">
        <ele>209.60059</ele>
        <time>2026-05-16T15:51:32+02:00</time>
      </trkpt>
      <trkpt lat="47.73415" lon="6.03803">
        <ele>209</ele>
        <time>2026-05-16T15:51:33+02:00</time>
      </trkpt>
      <trkpt lat="47.7342" lon="6.03796">
        <ele>208.7998</ele>
        <time>2026-05-16T15:51:34+02:00</time>
      </trkpt>
      <trkpt lat="47.73424" lon="6.0379">
        <ele>209.2002</ele>
        <time>2026-05-16T15:51:35+02:00</time>
      </trkpt>
      <trkpt lat="47.73428" lon="6.03782">
        <ele>209</ele>
        <time>2026-05-16T15:51:36+02:00</time>
      </trkpt>
      <trkpt lat="47.73432" lon="6.03775">
        <ele>208.90039</ele>
        <time>2026-05-16T15:51:37+02:00</time>
      </trkpt>
      <trkpt lat="47.73435" lon="6.03767">
        <ele>209.2998</ele>
        <time>2026-05-16T15:51:38+02:00</time>
      </trkpt>
      <trkpt lat="47.73436" lon="6.03763">
        <ele>208.7998</ele>
        <time>2026-05-16T15:51:39+02:00</time>
      </trkpt>
      <trkpt lat="47.73441" lon="6.0375">
        <ele>209.40039</ele>
        <time>2026-05-16T15:51:40+02:00</time>
      </trkpt>
      <trkpt lat="47.73443" lon="6.03741">
        <ele>209.40039</ele>
        <time>2026-05-16T15:51:41+02:00</time>
      </trkpt>
      <trkpt lat="47.73446" lon="6.03733">
        <ele>209.60059</ele>
        <time>2026-05-16T15:51:42+02:00</time>
      </trkpt>
      <trkpt lat="47.73448" lon="6.03724">
        <ele>209.60059</ele>
        <time>2026-05-16T15:51:43+02:00</time>
      </trkpt>
      <trkpt lat="47.73451" lon="6.03715">
        <ele>209.90039</ele>
        <time>2026-05-16T15:51:44+02:00</time>
      </trkpt>
      <trkpt lat="47.73453" lon="6.03706">
        <ele>210.10059</ele>
        <time>2026-05-16T15:51:45+02:00</time>
      </trkpt>
      <trkpt lat="47.73456" lon="6.03698">
        <ele>210.10059</ele>
        <time>2026-05-16T15:51:46+02:00</time>
      </trkpt>
      <trkpt lat="47.73458" lon="6.03689">
        <ele>210.2998</ele>
        <time>2026-05-16T15:51:47+02:00</time>
      </trkpt>
      <trkpt lat="47.7346" lon="6.0368">
        <ele>210.2998</ele>
        <time>2026-05-16T15:51:48+02:00</time>
      </trkpt>
      <trkpt lat="47.73462" lon="6.03671">
        <ele>210.5</ele>
        <time>2026-05-16T15:51:49+02:00</time>
      </trkpt>
      <trkpt lat="47.73465" lon="6.03663">
        <ele>210.7002</ele>
        <time>2026-05-16T15:51:50+02:00</time>
      </trkpt>
      <trkpt lat="47.73467" lon="6.03654">
        <ele>210.90039</ele>
        <time>2026-05-16T15:51:51+02:00</time>
      </trkpt>
      <trkpt lat="47.7347" lon="6.03645">
        <ele>211</ele>
        <time>2026-05-16T15:51:52+02:00</time>
      </trkpt>
      <trkpt lat="47.73472" lon="6.03636">
        <ele>211</ele>
        <time>2026-05-16T15:51:53+02:00</time>
      </trkpt>
      <trkpt lat="47.73474" lon="6.03627">
        <ele>211.10059</ele>
        <time>2026-05-16T15:51:54+02:00</time>
      </trkpt>
      <trkpt lat="47.73477" lon="6.03618">
        <ele>211.10059</ele>
        <time>2026-05-16T15:51:55+02:00</time>
      </trkpt>
      <trkpt lat="47.73479" lon="6.03609">
        <ele>211.2002</ele>
        <time>2026-05-16T15:51:56+02:00</time>
      </trkpt>
      <trkpt lat="47.73481" lon="6.036">
        <ele>211.2998</ele>
        <time>2026-05-16T15:51:57+02:00</time>
      </trkpt>
      <trkpt lat="47.73484" lon="6.03591">
        <ele>211.2002</ele>
        <time>2026-05-16T15:51:58+02:00</time>
      </trkpt>
      <trkpt lat="47.73486" lon="6.03582">
        <ele>211.2998</ele>
        <time>2026-05-16T15:51:59+02:00</time>
      </trkpt>
      <trkpt lat="47.73489" lon="6.03572">
        <ele>211.10059</ele>
        <time>2026-05-16T15:52:00+02:00</time>
      </trkpt>
      <trkpt lat="47.73491" lon="6.03563">
        <ele>211.10059</ele>
        <time>2026-05-16T15:52:01+02:00</time>
      </trkpt>
      <trkpt lat="47.73494" lon="6.03554">
        <ele>211.10059</ele>
        <time>2026-05-16T15:52:02+02:00</time>
      </trkpt>
      <trkpt lat="47.73497" lon="6.03544">
        <ele>211.40039</ele>
        <time>2026-05-16T15:52:03+02:00</time>
      </trkpt>
      <trkpt lat="47.735" lon="6.03535">
        <ele>211.2998</ele>
        <time>2026-05-16T15:52:04+02:00</time>
      </trkpt>
      <trkpt lat="47.73503" lon="6.03526">
        <ele>211.40039</ele>
        <time>2026-05-16T15:52:05+02:00</time>
      </trkpt>
      <trkpt lat="47.73506" lon="6.03517">
        <ele>211.2998</ele>
        <time>2026-05-16T15:52:06+02:00</time>
      </trkpt>
      <trkpt lat="47.73509" lon="6.03508">
        <ele>211.5</ele>
        <time>2026-05-16T15:52:07+02:00</time>
      </trkpt>
      <trkpt lat="47.73511" lon="6.03499">
        <ele>211.40039</ele>
        <time>2026-05-16T15:52:08+02:00</time>
      </trkpt>
      <trkpt lat="47.73514" lon="6.0349">
        <ele>211.60059</ele>
        <time>2026-05-16T15:52:09+02:00</time>
      </trkpt>
      <trkpt lat="47.73517" lon="6.03481">
        <ele>211.60059</ele>
        <time>2026-05-16T15:52:10+02:00</time>
      </trkpt>
      <trkpt lat="47.7352" lon="6.03471">
        <ele>211.7002</ele>
        <time>2026-05-16T15:52:11+02:00</time>
      </trkpt>
      <trkpt lat="47.73522" lon="6.03462">
        <ele>211.90039</ele>
        <time>2026-05-16T15:52:12+02:00</time>
      </trkpt>
      <trkpt lat="47.73525" lon="6.03453">
        <ele>211.90039</ele>
        <time>2026-05-16T15:52:13+02:00</time>
      </trkpt>
      <trkpt lat="47.73527" lon="6.03444">
        <ele>212.10059</ele>
        <time>2026-05-16T15:52:14+02:00</time>
      </trkpt>
      <trkpt lat="47.73529" lon="6.03435">
        <ele>212.10059</ele>
        <time>2026-05-16T15:52:15+02:00</time>
      </trkpt>
      <trkpt lat="47.7353" lon="6.03426">
        <ele>212.2998</ele>
        <time>2026-05-16T15:52:16+02:00</time>
      </trkpt>
      <trkpt lat="47.73531" lon="6.03417">
        <ele>212.5</ele>
        <time>2026-05-16T15:52:17+02:00</time>
      </trkpt>
      <trkpt lat="47.73532" lon="6.03408">
        <ele>212.60059</ele>
        <time>2026-05-16T15:52:18+02:00</time>
      </trkpt>
      <trkpt lat="47.73533" lon="6.034">
        <ele>212.7002</ele>
        <time>2026-05-16T15:52:19+02:00</time>
      </trkpt>
      <trkpt lat="47.73533" lon="6.03392">
        <ele>212.7998</ele>
        <time>2026-05-16T15:52:20+02:00</time>
      </trkpt>
      <trkpt lat="47.73533" lon="6.03384">
        <ele>212.90039</ele>
        <time>2026-05-16T15:52:21+02:00</time>
      </trkpt>
      <trkpt lat="47.73534" lon="6.03377">
        <ele>212.90039</ele>
        <time>2026-05-16T15:52:22+02:00</time>
      </trkpt>
      <trkpt lat="47.73534" lon="6.03369">
        <ele>213</ele>
        <time>2026-05-16T15:52:23+02:00</time>
      </trkpt>
      <trkpt lat="47.73534" lon="6.03361">
        <ele>213</ele>
        <time>2026-05-16T15:52:24+02:00</time>
      </trkpt>
      <trkpt lat="47.73534" lon="6.03354">
        <ele>213.10059</ele>
        <time>2026-05-16T15:52:25+02:00</time>
      </trkpt>
      <trkpt lat="47.73533" lon="6.03346">
        <ele>213.2002</ele>
        <time>2026-05-16T15:52:26+02:00</time>
      </trkpt>
      <trkpt lat="47.73534" lon="6.03339">
        <ele>213.2002</ele>
        <time>2026-05-16T15:52:27+02:00</time>
      </trkpt>
      <trkpt lat="47.73535" lon="6.03331">
        <ele>213.2998</ele>
        <time>2026-05-16T15:52:28+02:00</time>
      </trkpt>
      <trkpt lat="47.73536" lon="6.03324">
        <ele>213.5</ele>
        <time>2026-05-16T15:52:29+02:00</time>
      </trkpt>
      <trkpt lat="47.73539" lon="6.03318">
        <ele>213.7002</ele>
        <time>2026-05-16T15:52:30+02:00</time>
      </trkpt>
      <trkpt lat="47.73544" lon="6.03312">
        <ele>213.90039</ele>
        <time>2026-05-16T15:52:31+02:00</time>
      </trkpt>
      <trkpt lat="47.73548" lon="6.03308">
        <ele>214</ele>
        <time>2026-05-16T15:52:32+02:00</time>
      </trkpt>
      <trkpt lat="47.73554" lon="6.03305">
        <ele>214</ele>
        <time>2026-05-16T15:52:33+02:00</time>
      </trkpt>
      <trkpt lat="47.73559" lon="6.03301">
        <ele>214.2998</ele>
        <time>2026-05-16T15:52:34+02:00</time>
      </trkpt>
      <trkpt lat="47.73564" lon="6.03298">
        <ele>214.40039</ele>
        <time>2026-05-16T15:52:35+02:00</time>
      </trkpt>
      <trkpt lat="47.73568" lon="6.03294">
        <ele>214.7002</ele>
        <time>2026-05-16T15:52:36+02:00</time>
      </trkpt>
      <trkpt lat="47.73573" lon="6.0329">
        <ele>214.7002</ele>
        <time>2026-05-16T15:52:37+02:00</time>
      </trkpt>
      <trkpt lat="47.73577" lon="6.03286">
        <ele>215</ele>
        <time>2026-05-16T15:52:38+02:00</time>
      </trkpt>
      <trkpt lat="47.73582" lon="6.03281">
        <ele>215</ele>
        <time>2026-05-16T15:52:39+02:00</time>
      </trkpt>
      <trkpt lat="47.73586" lon="6.03276">
        <ele>215.2998</ele>
        <time>2026-05-16T15:52:40+02:00</time>
      </trkpt>
      <trkpt lat="47.7359" lon="6.03271">
        <ele>215.2002</ele>
        <time>2026-05-16T15:52:41+02:00</time>
      </trkpt>
      <trkpt lat="47.73594" lon="6.03265">
        <ele>215.40039</ele>
        <time>2026-05-16T15:52:42+02:00</time>
      </trkpt>
      <trkpt lat="47.73597" lon="6.03259">
        <ele>215.60059</ele>
        <time>2026-05-16T15:52:43+02:00</time>
      </trkpt>
      <trkpt lat="47.736" lon="6.03253">
        <ele>215.5</ele>
        <time>2026-05-16T15:52:44+02:00</time>
      </trkpt>
      <trkpt lat="47.73602" lon="6.03246">
        <ele>215.7002</ele>
        <time>2026-05-16T15:52:45+02:00</time>
      </trkpt>
      <trkpt lat="47.73604" lon="6.03239">
        <ele>215.7998</ele>
        <time>2026-05-16T15:52:46+02:00</time>
      </trkpt>
      <trkpt lat="47.73606" lon="6.03232">
        <ele>216</ele>
        <time>2026-05-16T15:52:47+02:00</time>
      </trkpt>
      <trkpt lat="47.73606" lon="6.03224">
        <ele>216.2002</ele>
        <time>2026-05-16T15:52:48+02:00</time>
      </trkpt>
      <trkpt lat="47.73607" lon="6.03216">
        <ele>216.40039</ele>
        <time>2026-05-16T15:52:49+02:00</time>
      </trkpt>
      <trkpt lat="47.73606" lon="6.03208">
        <ele>216.60059</ele>
        <time>2026-05-16T15:52:50+02:00</time>
      </trkpt>
      <trkpt lat="47.73605" lon="6.032">
        <ele>216.60059</ele>
        <time>2026-05-16T15:52:51+02:00</time>
      </trkpt>
      <trkpt lat="47.73604" lon="6.03193">
        <ele>216.60059</ele>
        <time>2026-05-16T15:52:52+02:00</time>
      </trkpt>
      <trkpt lat="47.73604" lon="6.03185">
        <ele>216.7002</ele>
        <time>2026-05-16T15:52:53+02:00</time>
      </trkpt>
      <trkpt lat="47.73603" lon="6.03181">
        <ele>217.10059</ele>
        <time>2026-05-16T15:52:54+02:00</time>
      </trkpt>
      <trkpt lat="47.73602" lon="6.0317">
        <ele>217.2002</ele>
        <time>2026-05-16T15:52:55+02:00</time>
      </trkpt>
      <trkpt lat="47.73601" lon="6.03162">
        <ele>217.2002</ele>
        <time>2026-05-16T15:52:56+02:00</time>
      </trkpt>
      <trkpt lat="47.736" lon="6.03155">
        <ele>217.2998</ele>
        <time>2026-05-16T15:52:57+02:00</time>
      </trkpt>
      <trkpt lat="47.73599" lon="6.03147">
        <ele>217.2998</ele>
        <time>2026-05-16T15:52:58+02:00</time>
      </trkpt>
      <trkpt lat="47.73597" lon="6.0314">
        <ele>217.60059</ele>
        <time>2026-05-16T15:52:59+02:00</time>
      </trkpt>
      <trkpt lat="47.73597" lon="6.03132">
        <ele>217.7002</ele>
        <time>2026-05-16T15:53:00+02:00</time>
      </trkpt>
      <trkpt lat="47.73597" lon="6.03124">
        <ele>217.7002</ele>
        <time>2026-05-16T15:53:01+02:00</time>
      </trkpt>
      <trkpt lat="47.73596" lon="6.03117">
        <ele>217.7002</ele>
        <time>2026-05-16T15:53:02+02:00</time>
      </trkpt>
      <trkpt lat="47.73596" lon="6.0311">
        <ele>217.7002</ele>
        <time>2026-05-16T15:53:03+02:00</time>
      </trkpt>
      <trkpt lat="47.73596" lon="6.03102">
        <ele>217.7002</ele>
        <time>2026-05-16T15:53:04+02:00</time>
      </trkpt>
      <trkpt lat="47.73596" lon="6.03095">
        <ele>217.7002</ele>
        <time>2026-05-16T15:53:05+02:00</time>
      </trkpt>
      <trkpt lat="47.73596" lon="6.03087">
        <ele>217.7002</ele>
        <time>2026-05-16T15:53:06+02:00</time>
      </trkpt>
      <trkpt lat="47.73597" lon="6.0308">
        <ele>217.7002</ele>
        <time>2026-05-16T15:53:07+02:00</time>
      </trkpt>
      <trkpt lat="47.73597" lon="6.03072">
        <ele>217.7002</ele>
        <time>2026-05-16T15:53:08+02:00</time>
      </trkpt>
      <trkpt lat="47.73598" lon="6.03065">
        <ele>217.40039</ele>
        <time>2026-05-16T15:53:09+02:00</time>
      </trkpt>
      <trkpt lat="47.73599" lon="6.03057">
        <ele>217.40039</ele>
        <time>2026-05-16T15:53:10+02:00</time>
      </trkpt>
      <trkpt lat="47.736" lon="6.03049">
        <ele>217.40039</ele>
        <time>2026-05-16T15:53:11+02:00</time>
      </trkpt>
      <trkpt lat="47.73601" lon="6.03042">
        <ele>217.40039</ele>
        <time>2026-05-16T15:53:12+02:00</time>
      </trkpt>
      <trkpt lat="47.73602" lon="6.03035">
        <ele>217.5</ele>
        <time>2026-05-16T15:53:13+02:00</time>
      </trkpt>
      <trkpt lat="47.73602" lon="6.03028">
        <ele>217.60059</ele>
        <time>2026-05-16T15:53:14+02:00</time>
      </trkpt>
      <trkpt lat="47.73604" lon="6.0302">
        <ele>217.2998</ele>
        <time>2026-05-16T15:53:15+02:00</time>
      </trkpt>
      <trkpt lat="47.73604" lon="6.03013">
        <ele>217.2998</ele>
        <time>2026-05-16T15:53:16+02:00</time>
      </trkpt>
      <trkpt lat="47.73605" lon="6.03006">
        <ele>217.40039</ele>
        <time>2026-05-16T15:53:17+02:00</time>
      </trkpt>
      <trkpt lat="47.73606" lon="6.02998">
        <ele>217.40039</ele>
        <time>2026-05-16T15:53:18+02:00</time>
      </trkpt>
      <trkpt lat="47.73607" lon="6.02991">
        <ele>217.5</ele>
        <time>2026-05-16T15:53:19+02:00</time>
      </trkpt>
      <trkpt lat="47.73608" lon="6.02984">
        <ele>217.5</ele>
        <time>2026-05-16T15:53:20+02:00</time>
      </trkpt>
      <trkpt lat="47.73609" lon="6.02976">
        <ele>217.2002</ele>
        <time>2026-05-16T15:53:21+02:00</time>
      </trkpt>
      <trkpt lat="47.7361" lon="6.02969">
        <ele>217.2998</ele>
        <time>2026-05-16T15:53:22+02:00</time>
      </trkpt>
      <trkpt lat="47.73611" lon="6.02961">
        <ele>217.2998</ele>
        <time>2026-05-16T15:53:23+02:00</time>
      </trkpt>
      <trkpt lat="47.73612" lon="6.02954">
        <ele>217.40039</ele>
        <time>2026-05-16T15:53:24+02:00</time>
      </trkpt>
      <trkpt lat="47.73613" lon="6.02947">
        <ele>217.5</ele>
        <time>2026-05-16T15:53:25+02:00</time>
      </trkpt>
      <trkpt lat="47.73614" lon="6.02939">
        <ele>217.5</ele>
        <time>2026-05-16T15:53:26+02:00</time>
      </trkpt>
      <trkpt lat="47.73615" lon="6.02932">
        <ele>217.2002</ele>
        <time>2026-05-16T15:53:27+02:00</time>
      </trkpt>
      <trkpt lat="47.73615" lon="6.02925">
        <ele>217.2998</ele>
        <time>2026-05-16T15:53:28+02:00</time>
      </trkpt>
      <trkpt lat="47.73617" lon="6.02918">
        <ele>217.2998</ele>
        <time>2026-05-16T15:53:29+02:00</time>
      </trkpt>
      <trkpt lat="47.73617" lon="6.02911">
        <ele>217.2998</ele>
        <time>2026-05-16T15:53:30+02:00</time>
      </trkpt>
      <trkpt lat="47.73618" lon="6.02904">
        <ele>217.2998</ele>
        <time>2026-05-16T15:53:31+02:00</time>
      </trkpt>
      <trkpt lat="47.73619" lon="6.02896">
        <ele>217.40039</ele>
        <time>2026-05-16T15:53:32+02:00</time>
      </trkpt>
      <trkpt lat="47.7362" lon="6.02889">
        <ele>217.40039</ele>
        <time>2026-05-16T15:53:33+02:00</time>
      </trkpt>
      <trkpt lat="47.73621" lon="6.02882">
        <ele>217.10059</ele>
        <time>2026-05-16T15:53:34+02:00</time>
      </trkpt>
      <trkpt lat="47.73622" lon="6.02875">
        <ele>217.10059</ele>
        <time>2026-05-16T15:53:35+02:00</time>
      </trkpt>
      <trkpt lat="47.73623" lon="6.02868">
        <ele>217.10059</ele>
        <time>2026-05-16T15:53:36+02:00</time>
      </trkpt>
      <trkpt lat="47.73625" lon="6.02861">
        <ele>217.10059</ele>
        <time>2026-05-16T15:53:37+02:00</time>
      </trkpt>
      <trkpt lat="47.73626" lon="6.02854">
        <ele>217.2002</ele>
        <time>2026-05-16T15:53:38+02:00</time>
      </trkpt>
      <trkpt lat="47.73628" lon="6.02847">
        <ele>216.90039</ele>
        <time>2026-05-16T15:53:39+02:00</time>
      </trkpt>
      <trkpt lat="47.73629" lon="6.0284">
        <ele>217</ele>
        <time>2026-05-16T15:53:40+02:00</time>
      </trkpt>
      <trkpt lat="47.73631" lon="6.02833">
        <ele>217</ele>
        <time>2026-05-16T15:53:41+02:00</time>
      </trkpt>
      <trkpt lat="47.73632" lon="6.02826">
        <ele>217.2998</ele>
        <time>2026-05-16T15:53:42+02:00</time>
      </trkpt>
      <trkpt lat="47.73634" lon="6.02819">
        <ele>216.7998</ele>
        <time>2026-05-16T15:53:43+02:00</time>
      </trkpt>
      <trkpt lat="47.73636" lon="6.02812">
        <ele>217</ele>
        <time>2026-05-16T15:53:44+02:00</time>
      </trkpt>
      <trkpt lat="47.73638" lon="6.02805">
        <ele>216.7002</ele>
        <time>2026-05-16T15:53:45+02:00</time>
      </trkpt>
      <trkpt lat="47.73638" lon="6.02802">
        <ele>216.7002</ele>
        <time>2026-05-16T15:53:46+02:00</time>
      </trkpt>
      <trkpt lat="47.73642" lon="6.02792">
        <ele>217</ele>
        <time>2026-05-16T15:53:47+02:00</time>
      </trkpt>
      <trkpt lat="47.73644" lon="6.02786">
        <ele>216.7002</ele>
        <time>2026-05-16T15:53:48+02:00</time>
      </trkpt>
      <trkpt lat="47.73647" lon="6.0278">
        <ele>216.90039</ele>
        <time>2026-05-16T15:53:49+02:00</time>
      </trkpt>
      <trkpt lat="47.7365" lon="6.02774">
        <ele>216.40039</ele>
        <time>2026-05-16T15:53:50+02:00</time>
      </trkpt>
      <trkpt lat="47.73652" lon="6.02768">
        <ele>216.40039</ele>
        <time>2026-05-16T15:53:51+02:00</time>
      </trkpt>
      <trkpt lat="47.73656" lon="6.02763">
        <ele>216</ele>
        <time>2026-05-16T15:53:52+02:00</time>
      </trkpt>
      <trkpt lat="47.7366" lon="6.02758">
        <ele>216</ele>
        <time>2026-05-16T15:53:53+02:00</time>
      </trkpt>
      <trkpt lat="47.73663" lon="6.02754">
        <ele>215.7002</ele>
        <time>2026-05-16T15:53:54+02:00</time>
      </trkpt>
      <trkpt lat="47.73667" lon="6.0275">
        <ele>215.40039</ele>
        <time>2026-05-16T15:53:55+02:00</time>
      </trkpt>
      <trkpt lat="47.73671" lon="6.02746">
        <ele>215.40039</ele>
        <time>2026-05-16T15:53:56+02:00</time>
      </trkpt>
      <trkpt lat="47.73675" lon="6.02742">
        <ele>215.40039</ele>
        <time>2026-05-16T15:53:57+02:00</time>
      </trkpt>
      <trkpt lat="47.73679" lon="6.02738">
        <ele>215.2998</ele>
        <time>2026-05-16T15:53:58+02:00</time>
      </trkpt>
      <trkpt lat="47.73683" lon="6.02735">
        <ele>215.5</ele>
        <time>2026-05-16T15:53:59+02:00</time>
      </trkpt>
      <trkpt lat="47.73687" lon="6.02731">
        <ele>215.40039</ele>
        <time>2026-05-16T15:54:00+02:00</time>
      </trkpt>
      <trkpt lat="47.73691" lon="6.02728">
        <ele>215.5</ele>
        <time>2026-05-16T15:54:01+02:00</time>
      </trkpt>
      <trkpt lat="47.73696" lon="6.02724">
        <ele>215.5</ele>
        <time>2026-05-16T15:54:02+02:00</time>
      </trkpt>
      <trkpt lat="47.737" lon="6.02721">
        <ele>215.5</ele>
        <time>2026-05-16T15:54:03+02:00</time>
      </trkpt>
      <trkpt lat="47.73704" lon="6.02717">
        <ele>215.60059</ele>
        <time>2026-05-16T15:54:04+02:00</time>
      </trkpt>
      <trkpt lat="47.73708" lon="6.02714">
        <ele>215.60059</ele>
        <time>2026-05-16T15:54:05+02:00</time>
      </trkpt>
      <trkpt lat="47.73713" lon="6.0271">
        <ele>215.7998</ele>
        <time>2026-05-16T15:54:06+02:00</time>
      </trkpt>
      <trkpt lat="47.73717" lon="6.02707">
        <ele>215.7998</ele>
        <time>2026-05-16T15:54:07+02:00</time>
      </trkpt>
      <trkpt lat="47.73721" lon="6.02703">
        <ele>215.90039</ele>
        <time>2026-05-16T15:54:08+02:00</time>
      </trkpt>
      <trkpt lat="47.73726" lon="6.027">
        <ele>215.90039</ele>
        <time>2026-05-16T15:54:09+02:00</time>
      </trkpt>
      <trkpt lat="47.73728" lon="6.02698">
        <ele>215.90039</ele>
        <time>2026-05-16T15:54:10+02:00</time>
      </trkpt>
      <trkpt lat="47.73734" lon="6.02693">
        <ele>216</ele>
        <time>2026-05-16T15:54:11+02:00</time>
      </trkpt>
      <trkpt lat="47.73738" lon="6.02689">
        <ele>216</ele>
        <time>2026-05-16T15:54:12+02:00</time>
      </trkpt>
      <trkpt lat="47.73743" lon="6.02685">
        <ele>216.10059</ele>
        <time>2026-05-16T15:54:13+02:00</time>
      </trkpt>
      <trkpt lat="47.73747" lon="6.02682">
        <ele>216.10059</ele>
        <time>2026-05-16T15:54:14+02:00</time>
      </trkpt>
      <trkpt lat="47.73752" lon="6.02679">
        <ele>216.2002</ele>
        <time>2026-05-16T15:54:15+02:00</time>
      </trkpt>
      <trkpt lat="47.73756" lon="6.02675">
        <ele>216.2998</ele>
        <time>2026-05-16T15:54:16+02:00</time>
      </trkpt>
      <trkpt lat="47.7376" lon="6.02671">
        <ele>216.2998</ele>
        <time>2026-05-16T15:54:17+02:00</time>
      </trkpt>
      <trkpt lat="47.73764" lon="6.02668">
        <ele>216.40039</ele>
        <time>2026-05-16T15:54:18+02:00</time>
      </trkpt>
      <trkpt lat="47.73769" lon="6.02664">
        <ele>216.40039</ele>
        <time>2026-05-16T15:54:19+02:00</time>
      </trkpt>
      <trkpt lat="47.73771" lon="6.02663">
        <ele>216.5</ele>
        <time>2026-05-16T15:54:20+02:00</time>
      </trkpt>
      <trkpt lat="47.73778" lon="6.02657">
        <ele>216.60059</ele>
        <time>2026-05-16T15:54:21+02:00</time>
      </trkpt>
      <trkpt lat="47.73782" lon="6.02653">
        <ele>216.60059</ele>
        <time>2026-05-16T15:54:22+02:00</time>
      </trkpt>
      <trkpt lat="47.73786" lon="6.0265">
        <ele>216.60059</ele>
        <time>2026-05-16T15:54:23+02:00</time>
      </trkpt>
      <trkpt lat="47.7379" lon="6.02646">
        <ele>216.7002</ele>
        <time>2026-05-16T15:54:24+02:00</time>
      </trkpt>
      <trkpt lat="47.73795" lon="6.02642">
        <ele>216.7002</ele>
        <time>2026-05-16T15:54:25+02:00</time>
      </trkpt>
      <trkpt lat="47.73799" lon="6.02639">
        <ele>216.7002</ele>
        <time>2026-05-16T15:54:26+02:00</time>
      </trkpt>
      <trkpt lat="47.73804" lon="6.02635">
        <ele>216.7998</ele>
        <time>2026-05-16T15:54:27+02:00</time>
      </trkpt>
      <trkpt lat="47.73808" lon="6.02631">
        <ele>216.7002</ele>
        <time>2026-05-16T15:54:28+02:00</time>
      </trkpt>
      <trkpt lat="47.73813" lon="6.02628">
        <ele>216.7002</ele>
        <time>2026-05-16T15:54:29+02:00</time>
      </trkpt>
      <trkpt lat="47.73818" lon="6.02624">
        <ele>216.60059</ele>
        <time>2026-05-16T15:54:30+02:00</time>
      </trkpt>
      <trkpt lat="47.73822" lon="6.0262">
        <ele>216.60059</ele>
        <time>2026-05-16T15:54:31+02:00</time>
      </trkpt>
      <trkpt lat="47.73827" lon="6.02617">
        <ele>216.5</ele>
        <time>2026-05-16T15:54:32+02:00</time>
      </trkpt>
      <trkpt lat="47.73832" lon="6.02613">
        <ele>216.5</ele>
        <time>2026-05-16T15:54:33+02:00</time>
      </trkpt>
      <trkpt lat="47.73836" lon="6.02609">
        <ele>216.5</ele>
        <time>2026-05-16T15:54:34+02:00</time>
      </trkpt>
      <trkpt lat="47.7384" lon="6.02605">
        <ele>216.40039</ele>
        <time>2026-05-16T15:54:35+02:00</time>
      </trkpt>
      <trkpt lat="47.73843" lon="6.02604">
        <ele>216.2998</ele>
        <time>2026-05-16T15:54:36+02:00</time>
      </trkpt>
      <trkpt lat="47.7385" lon="6.02598">
        <ele>216.2002</ele>
        <time>2026-05-16T15:54:37+02:00</time>
      </trkpt>
      <trkpt lat="47.73855" lon="6.02595">
        <ele>216.10059</ele>
        <time>2026-05-16T15:54:38+02:00</time>
      </trkpt>
      <trkpt lat="47.73859" lon="6.02591">
        <ele>216.10059</ele>
        <time>2026-05-16T15:54:39+02:00</time>
      </trkpt>
      <trkpt lat="47.73864" lon="6.02587">
        <ele>216</ele>
        <time>2026-05-16T15:54:40+02:00</time>
      </trkpt>
      <trkpt lat="47.73869" lon="6.02583">
        <ele>215.90039</ele>
        <time>2026-05-16T15:54:41+02:00</time>
      </trkpt>
      <trkpt lat="47.73874" lon="6.0258">
        <ele>216</ele>
        <time>2026-05-16T15:54:42+02:00</time>
      </trkpt>
      <trkpt lat="47.73878" lon="6.02577">
        <ele>215.90039</ele>
        <time>2026-05-16T15:54:43+02:00</time>
      </trkpt>
      <trkpt lat="47.73883" lon="6.02573">
        <ele>215.90039</ele>
        <time>2026-05-16T15:54:44+02:00</time>
      </trkpt>
      <trkpt lat="47.73888" lon="6.02569">
        <ele>215.7998</ele>
        <time>2026-05-16T15:54:45+02:00</time>
      </trkpt>
      <trkpt lat="47.73892" lon="6.02565">
        <ele>216</ele>
        <time>2026-05-16T15:54:46+02:00</time>
      </trkpt>
      <trkpt lat="47.73897" lon="6.02561">
        <ele>215.90039</ele>
        <time>2026-05-16T15:54:47+02:00</time>
      </trkpt>
      <trkpt lat="47.73901" lon="6.02558">
        <ele>215.90039</ele>
        <time>2026-05-16T15:54:48+02:00</time>
      </trkpt>
      <trkpt lat="47.73906" lon="6.02554">
        <ele>216</ele>
        <time>2026-05-16T15:54:49+02:00</time>
      </trkpt>
      <trkpt lat="47.73911" lon="6.02551">
        <ele>215.90039</ele>
        <time>2026-05-16T15:54:50+02:00</time>
      </trkpt>
      <trkpt lat="47.73916" lon="6.02547">
        <ele>216.10059</ele>
        <time>2026-05-16T15:54:51+02:00</time>
      </trkpt>
      <trkpt lat="47.73921" lon="6.02543">
        <ele>216</ele>
        <time>2026-05-16T15:54:52+02:00</time>
      </trkpt>
      <trkpt lat="47.73925" lon="6.02539">
        <ele>216.2002</ele>
        <time>2026-05-16T15:54:53+02:00</time>
      </trkpt>
      <trkpt lat="47.7393" lon="6.02534">
        <ele>216.10059</ele>
        <time>2026-05-16T15:54:54+02:00</time>
      </trkpt>
      <trkpt lat="47.73934" lon="6.02529">
        <ele>216.2002</ele>
        <time>2026-05-16T15:54:55+02:00</time>
      </trkpt>
      <trkpt lat="47.73938" lon="6.02524">
        <ele>216.2002</ele>
        <time>2026-05-16T15:54:56+02:00</time>
      </trkpt>
      <trkpt lat="47.73941" lon="6.02518">
        <ele>216.2002</ele>
        <time>2026-05-16T15:54:57+02:00</time>
      </trkpt>
      <trkpt lat="47.73945" lon="6.02511">
        <ele>216.2998</ele>
        <time>2026-05-16T15:54:58+02:00</time>
      </trkpt>
      <trkpt lat="47.73947" lon="6.02505">
        <ele>216.40039</ele>
        <time>2026-05-16T15:54:59+02:00</time>
      </trkpt>
      <trkpt lat="47.7395" lon="6.02498">
        <ele>216.2998</ele>
        <time>2026-05-16T15:55:00+02:00</time>
      </trkpt>
      <trkpt lat="47.73952" lon="6.02491">
        <ele>216.40039</ele>
        <time>2026-05-16T15:55:01+02:00</time>
      </trkpt>
      <trkpt lat="47.73955" lon="6.02484">
        <ele>216.60059</ele>
        <time>2026-05-16T15:55:02+02:00</time>
      </trkpt>
      <trkpt lat="47.73957" lon="6.02477">
        <ele>216.60059</ele>
        <time>2026-05-16T15:55:03+02:00</time>
      </trkpt>
      <trkpt lat="47.73959" lon="6.0247">
        <ele>216.7998</ele>
        <time>2026-05-16T15:55:04+02:00</time>
      </trkpt>
      <trkpt lat="47.73961" lon="6.02463">
        <ele>216.7998</ele>
        <time>2026-05-16T15:55:05+02:00</time>
      </trkpt>
      <trkpt lat="47.73964" lon="6.02456">
        <ele>216.7998</ele>
        <time>2026-05-16T15:55:06+02:00</time>
      </trkpt>
      <trkpt lat="47.73966" lon="6.02449">
        <ele>217.10059</ele>
        <time>2026-05-16T15:55:07+02:00</time>
      </trkpt>
      <trkpt lat="47.73968" lon="6.02442">
        <ele>217.2002</ele>
        <time>2026-05-16T15:55:08+02:00</time>
      </trkpt>
      <trkpt lat="47.7397" lon="6.02435">
        <ele>217.5</ele>
        <time>2026-05-16T15:55:09+02:00</time>
      </trkpt>
      <trkpt lat="47.73972" lon="6.02428">
        <ele>217.7998</ele>
        <time>2026-05-16T15:55:10+02:00</time>
      </trkpt>
      <trkpt lat="47.73975" lon="6.02421">
        <ele>217.7998</ele>
        <time>2026-05-16T15:55:11+02:00</time>
      </trkpt>
      <trkpt lat="47.73977" lon="6.02415">
        <ele>218</ele>
        <time>2026-05-16T15:55:12+02:00</time>
      </trkpt>
      <trkpt lat="47.73979" lon="6.02408">
        <ele>218.10059</ele>
        <time>2026-05-16T15:55:13+02:00</time>
      </trkpt>
      <trkpt lat="47.73982" lon="6.02401">
        <ele>218.2998</ele>
        <time>2026-05-16T15:55:14+02:00</time>
      </trkpt>
      <trkpt lat="47.73983" lon="6.02398">
        <ele>218.2998</ele>
        <time>2026-05-16T15:55:15+02:00</time>
      </trkpt>
      <trkpt lat="47.73986" lon="6.02387">
        <ele>218.5</ele>
        <time>2026-05-16T15:55:16+02:00</time>
      </trkpt>
      <trkpt lat="47.73988" lon="6.0238">
        <ele>218.60059</ele>
        <time>2026-05-16T15:55:17+02:00</time>
      </trkpt>
      <trkpt lat="47.7399" lon="6.02373">
        <ele>218.7002</ele>
        <time>2026-05-16T15:55:18+02:00</time>
      </trkpt>
      <trkpt lat="47.73993" lon="6.02366">
        <ele>218.7998</ele>
        <time>2026-05-16T15:55:19+02:00</time>
      </trkpt>
      <trkpt lat="47.73995" lon="6.02359">
        <ele>218.90039</ele>
        <time>2026-05-16T15:55:20+02:00</time>
      </trkpt>
      <trkpt lat="47.73997" lon="6.02352">
        <ele>218.90039</ele>
        <time>2026-05-16T15:55:21+02:00</time>
      </trkpt>
      <trkpt lat="47.73999" lon="6.02345">
        <ele>219</ele>
        <time>2026-05-16T15:55:22+02:00</time>
      </trkpt>
      <trkpt lat="47.74001" lon="6.02337">
        <ele>219.10059</ele>
        <time>2026-05-16T15:55:23+02:00</time>
      </trkpt>
      <trkpt lat="47.74003" lon="6.0233">
        <ele>219.2002</ele>
        <time>2026-05-16T15:55:24+02:00</time>
      </trkpt>
      <trkpt lat="47.74005" lon="6.02323">
        <ele>219.40039</ele>
        <time>2026-05-16T15:55:25+02:00</time>
      </trkpt>
      <trkpt lat="47.74007" lon="6.02316">
        <ele>219.5</ele>
        <time>2026-05-16T15:55:26+02:00</time>
      </trkpt>
      <trkpt lat="47.74009" lon="6.02309">
        <ele>219.5</ele>
        <time>2026-05-16T15:55:27+02:00</time>
      </trkpt>
      <trkpt lat="47.74011" lon="6.02302">
        <ele>219.60059</ele>
        <time>2026-05-16T15:55:28+02:00</time>
      </trkpt>
      <trkpt lat="47.74013" lon="6.02295">
        <ele>219.7002</ele>
        <time>2026-05-16T15:55:29+02:00</time>
      </trkpt>
      <trkpt lat="47.74015" lon="6.02288">
        <ele>219.90039</ele>
        <time>2026-05-16T15:55:30+02:00</time>
      </trkpt>
      <trkpt lat="47.74017" lon="6.02281">
        <ele>220</ele>
        <time>2026-05-16T15:55:31+02:00</time>
      </trkpt>
      <trkpt lat="47.74019" lon="6.02274">
        <ele>220</ele>
        <time>2026-05-16T15:55:32+02:00</time>
      </trkpt>
      <trkpt lat="47.74021" lon="6.02267">
        <ele>220.10059</ele>
        <time>2026-05-16T15:55:33+02:00</time>
      </trkpt>
      <trkpt lat="47.74023" lon="6.0226">
        <ele>220.2002</ele>
        <time>2026-05-16T15:55:34+02:00</time>
      </trkpt>
      <trkpt lat="47.74025" lon="6.02254">
        <ele>220.40039</ele>
        <time>2026-05-16T15:55:35+02:00</time>
      </trkpt>
      <trkpt lat="47.74027" lon="6.02248">
        <ele>220.5</ele>
        <time>2026-05-16T15:55:36+02:00</time>
      </trkpt>
      <trkpt lat="47.7403" lon="6.02243">
        <ele>220.5</ele>
        <time>2026-05-16T15:55:37+02:00</time>
      </trkpt>
      <trkpt lat="47.74034" lon="6.0224">
        <ele>220.60059</ele>
        <time>2026-05-16T15:55:38+02:00</time>
      </trkpt>
      <trkpt lat="47.74038" lon="6.02241">
        <ele>220.7002</ele>
        <time>2026-05-16T15:55:39+02:00</time>
      </trkpt>
      <trkpt lat="47.74043" lon="6.02244">
        <ele>220.7998</ele>
        <time>2026-05-16T15:55:40+02:00</time>
      </trkpt>
      <trkpt lat="47.74047" lon="6.02248">
        <ele>220.7998</ele>
        <time>2026-05-16T15:55:41+02:00</time>
      </trkpt>
      <trkpt lat="47.74052" lon="6.02252">
        <ele>220.7002</ele>
        <time>2026-05-16T15:55:42+02:00</time>
      </trkpt>
      <trkpt lat="47.74057" lon="6.02256">
        <ele>220.7998</ele>
        <time>2026-05-16T15:55:43+02:00</time>
      </trkpt>
      <trkpt lat="47.74063" lon="6.02259">
        <ele>220.7002</ele>
        <time>2026-05-16T15:55:44+02:00</time>
      </trkpt>
      <trkpt lat="47.74069" lon="6.02262">
        <ele>220.7998</ele>
        <time>2026-05-16T15:55:45+02:00</time>
      </trkpt>
      <trkpt lat="47.74074" lon="6.02265">
        <ele>220.7998</ele>
        <time>2026-05-16T15:55:46+02:00</time>
      </trkpt>
      <trkpt lat="47.7408" lon="6.02268">
        <ele>220.7002</ele>
        <time>2026-05-16T15:55:47+02:00</time>
      </trkpt>
      <trkpt lat="47.74085" lon="6.02271">
        <ele>220.7998</ele>
        <time>2026-05-16T15:55:48+02:00</time>
      </trkpt>
      <trkpt lat="47.74091" lon="6.02275">
        <ele>220.7002</ele>
        <time>2026-05-16T15:55:49+02:00</time>
      </trkpt>
      <trkpt lat="47.74096" lon="6.02278">
        <ele>220.7998</ele>
        <time>2026-05-16T15:55:50+02:00</time>
      </trkpt>
      <trkpt lat="47.74102" lon="6.02281">
        <ele>220.7998</ele>
        <time>2026-05-16T15:55:51+02:00</time>
      </trkpt>
      <trkpt lat="47.74104" lon="6.02282">
        <ele>220.7998</ele>
        <time>2026-05-16T15:55:52+02:00</time>
      </trkpt>
      <trkpt lat="47.74113" lon="6.02287">
        <ele>220.90039</ele>
        <time>2026-05-16T15:55:53+02:00</time>
      </trkpt>
      <trkpt lat="47.74119" lon="6.0229">
        <ele>220.90039</ele>
        <time>2026-05-16T15:55:54+02:00</time>
      </trkpt>
      <trkpt lat="47.74125" lon="6.02294">
        <ele>221</ele>
        <time>2026-05-16T15:55:55+02:00</time>
      </trkpt>
      <trkpt lat="47.7413" lon="6.02297">
        <ele>221.2002</ele>
        <time>2026-05-16T15:55:56+02:00</time>
      </trkpt>
      <trkpt lat="47.74135" lon="6.02301">
        <ele>221.2998</ele>
        <time>2026-05-16T15:55:57+02:00</time>
      </trkpt>
      <trkpt lat="47.74141" lon="6.02306">
        <ele>221.5</ele>
        <time>2026-05-16T15:55:58+02:00</time>
      </trkpt>
      <trkpt lat="47.74145" lon="6.02312">
        <ele>221.5</ele>
        <time>2026-05-16T15:55:59+02:00</time>
      </trkpt>
      <trkpt lat="47.74149" lon="6.02318">
        <ele>221.7002</ele>
        <time>2026-05-16T15:56:00+02:00</time>
      </trkpt>
      <trkpt lat="47.74154" lon="6.02324">
        <ele>221.90039</ele>
        <time>2026-05-16T15:56:01+02:00</time>
      </trkpt>
      <trkpt lat="47.74158" lon="6.02331">
        <ele>222.10059</ele>
        <time>2026-05-16T15:56:02+02:00</time>
      </trkpt>
      <trkpt lat="47.74161" lon="6.02338">
        <ele>222</ele>
        <time>2026-05-16T15:56:03+02:00</time>
      </trkpt>
      <trkpt lat="47.74164" lon="6.02346">
        <ele>222.2002</ele>
        <time>2026-05-16T15:56:04+02:00</time>
      </trkpt>
      <trkpt lat="47.74167" lon="6.02354">
        <ele>222</ele>
        <time>2026-05-16T15:56:05+02:00</time>
      </trkpt>
      <trkpt lat="47.7417" lon="6.02362">
        <ele>222.10059</ele>
        <time>2026-05-16T15:56:06+02:00</time>
      </trkpt>
      <trkpt lat="47.74172" lon="6.0237">
        <ele>221.90039</ele>
        <time>2026-05-16T15:56:07+02:00</time>
      </trkpt>
      <trkpt lat="47.74174" lon="6.02379">
        <ele>221.7998</ele>
        <time>2026-05-16T15:56:08+02:00</time>
      </trkpt>
      <trkpt lat="47.74177" lon="6.02387">
        <ele>221.7998</ele>
        <time>2026-05-16T15:56:09+02:00</time>
      </trkpt>
      <trkpt lat="47.7418" lon="6.02395">
        <ele>221.60059</ele>
        <time>2026-05-16T15:56:10+02:00</time>
      </trkpt>
      <trkpt lat="47.74183" lon="6.02403">
        <ele>221.60059</ele>
        <time>2026-05-16T15:56:11+02:00</time>
      </trkpt>
      <trkpt lat="47.74186" lon="6.02412">
        <ele>221.5</ele>
        <time>2026-05-16T15:56:12+02:00</time>
      </trkpt>
      <trkpt lat="47.74189" lon="6.0242">
        <ele>221.5</ele>
        <time>2026-05-16T15:56:13+02:00</time>
      </trkpt>
      <trkpt lat="47.74192" lon="6.02427">
        <ele>221.5</ele>
        <time>2026-05-16T15:56:14+02:00</time>
      </trkpt>
      <trkpt lat="47.74196" lon="6.02435">
        <ele>221.60059</ele>
        <time>2026-05-16T15:56:15+02:00</time>
      </trkpt>
      <trkpt lat="47.74199" lon="6.02443">
        <ele>221.7002</ele>
        <time>2026-05-16T15:56:16+02:00</time>
      </trkpt>
      <trkpt lat="47.74203" lon="6.0245">
        <ele>221.60059</ele>
        <time>2026-05-16T15:56:17+02:00</time>
      </trkpt>
      <trkpt lat="47.74207" lon="6.02457">
        <ele>221.60059</ele>
        <time>2026-05-16T15:56:18+02:00</time>
      </trkpt>
      <trkpt lat="47.7421" lon="6.02465">
        <ele>221.7002</ele>
        <time>2026-05-16T15:56:19+02:00</time>
      </trkpt>
      <trkpt lat="47.74214" lon="6.02471">
        <ele>221.7002</ele>
        <time>2026-05-16T15:56:20+02:00</time>
      </trkpt>
      <trkpt lat="47.74219" lon="6.02477">
        <ele>221.7002</ele>
        <time>2026-05-16T15:56:21+02:00</time>
      </trkpt>
      <trkpt lat="47.74223" lon="6.02483">
        <ele>221.60059</ele>
        <time>2026-05-16T15:56:22+02:00</time>
      </trkpt>
      <trkpt lat="47.74227" lon="6.02488">
        <ele>221.7998</ele>
        <time>2026-05-16T15:56:23+02:00</time>
      </trkpt>
      <trkpt lat="47.74232" lon="6.02492">
        <ele>221.5</ele>
        <time>2026-05-16T15:56:24+02:00</time>
      </trkpt>
      <trkpt lat="47.74237" lon="6.02496">
        <ele>221.7002</ele>
        <time>2026-05-16T15:56:25+02:00</time>
      </trkpt>
      <trkpt lat="47.74242" lon="6.02501">
        <ele>221.60059</ele>
        <time>2026-05-16T15:56:26+02:00</time>
      </trkpt>
      <trkpt lat="47.74247" lon="6.02505">
        <ele>221.7998</ele>
        <time>2026-05-16T15:56:27+02:00</time>
      </trkpt>
      <trkpt lat="47.74252" lon="6.02509">
        <ele>221.7998</ele>
        <time>2026-05-16T15:56:28+02:00</time>
      </trkpt>
      <trkpt lat="47.74257" lon="6.02513">
        <ele>222</ele>
        <time>2026-05-16T15:56:29+02:00</time>
      </trkpt>
      <trkpt lat="47.74262" lon="6.02518">
        <ele>222</ele>
        <time>2026-05-16T15:56:30+02:00</time>
      </trkpt>
      <trkpt lat="47.74267" lon="6.02522">
        <ele>222</ele>
        <time>2026-05-16T15:56:31+02:00</time>
      </trkpt>
      <trkpt lat="47.74272" lon="6.02526">
        <ele>221.90039</ele>
        <time>2026-05-16T15:56:32+02:00</time>
      </trkpt>
      <trkpt lat="47.74276" lon="6.0253">
        <ele>222.2002</ele>
        <time>2026-05-16T15:56:33+02:00</time>
      </trkpt>
      <trkpt lat="47.74281" lon="6.02534">
        <ele>222.2002</ele>
        <time>2026-05-16T15:56:34+02:00</time>
      </trkpt>
      <trkpt lat="47.74286" lon="6.02538">
        <ele>222.40039</ele>
        <time>2026-05-16T15:56:35+02:00</time>
      </trkpt>
      <trkpt lat="47.74291" lon="6.02543">
        <ele>222.5</ele>
        <time>2026-05-16T15:56:36+02:00</time>
      </trkpt>
      <trkpt lat="47.74296" lon="6.02547">
        <ele>222.7002</ele>
        <time>2026-05-16T15:56:37+02:00</time>
      </trkpt>
      <trkpt lat="47.74301" lon="6.02552">
        <ele>222.5</ele>
        <time>2026-05-16T15:56:38+02:00</time>
      </trkpt>
      <trkpt lat="47.74306" lon="6.02556">
        <ele>222.7998</ele>
        <time>2026-05-16T15:56:39+02:00</time>
      </trkpt>
      <trkpt lat="47.74311" lon="6.02561">
        <ele>222.90039</ele>
        <time>2026-05-16T15:56:40+02:00</time>
      </trkpt>
      <trkpt lat="47.74315" lon="6.02567">
        <ele>223.10059</ele>
        <time>2026-05-16T15:56:41+02:00</time>
      </trkpt>
      <trkpt lat="47.7432" lon="6.02573">
        <ele>223.2998</ele>
        <time>2026-05-16T15:56:42+02:00</time>
      </trkpt>
      <trkpt lat="47.74323" lon="6.02579">
        <ele>223.2998</ele>
        <time>2026-05-16T15:56:43+02:00</time>
      </trkpt>
      <trkpt lat="47.74328" lon="6.02585">
        <ele>223.5</ele>
        <time>2026-05-16T15:56:44+02:00</time>
      </trkpt>
      <trkpt lat="47.74331" lon="6.02591">
        <ele>223.7002</ele>
        <time>2026-05-16T15:56:45+02:00</time>
      </trkpt>
      <trkpt lat="47.74335" lon="6.02597">
        <ele>223.7002</ele>
        <time>2026-05-16T15:56:46+02:00</time>
      </trkpt>
      <trkpt lat="47.74339" lon="6.02603">
        <ele>223.7998</ele>
        <time>2026-05-16T15:56:47+02:00</time>
      </trkpt>
      <trkpt lat="47.74343" lon="6.02609">
        <ele>223.90039</ele>
        <time>2026-05-16T15:56:48+02:00</time>
      </trkpt>
      <trkpt lat="47.74347" lon="6.02615">
        <ele>223.90039</ele>
        <time>2026-05-16T15:56:49+02:00</time>
      </trkpt>
      <trkpt lat="47.7435" lon="6.02621">
        <ele>224</ele>
        <time>2026-05-16T15:56:50+02:00</time>
      </trkpt>
      <trkpt lat="47.74365" lon="6.02643">
        <ele>224.2002</ele>
        <time>2026-05-16T15:56:51+02:00</time>
      </trkpt>
      <trkpt lat="47.7437" lon="6.02648">
        <ele>224.40039</ele>
        <time>2026-05-16T15:56:52+02:00</time>
      </trkpt>
      <trkpt lat="47.74375" lon="6.02654">
        <ele>224.40039</ele>
        <time>2026-05-16T15:56:53+02:00</time>
      </trkpt>
      <trkpt lat="47.74379" lon="6.02659">
        <ele>224.5</ele>
        <time>2026-05-16T15:56:54+02:00</time>
      </trkpt>
      <trkpt lat="47.74384" lon="6.02665">
        <ele>224.60059</ele>
        <time>2026-05-16T15:56:55+02:00</time>
      </trkpt>
      <trkpt lat="47.74389" lon="6.02671">
        <ele>224.5</ele>
        <time>2026-05-16T15:56:56+02:00</time>
      </trkpt>
      <trkpt lat="47.74394" lon="6.02676">
        <ele>224.5</ele>
        <time>2026-05-16T15:56:57+02:00</time>
      </trkpt>
      <trkpt lat="47.74399" lon="6.02682">
        <ele>224.5</ele>
        <time>2026-05-16T15:56:58+02:00</time>
      </trkpt>
      <trkpt lat="47.74404" lon="6.02688">
        <ele>224.2998</ele>
        <time>2026-05-16T15:56:59+02:00</time>
      </trkpt>
      <trkpt lat="47.74409" lon="6.02694">
        <ele>224.2998</ele>
        <time>2026-05-16T15:57:00+02:00</time>
      </trkpt>
      <trkpt lat="47.74414" lon="6.027">
        <ele>223.90039</ele>
        <time>2026-05-16T15:57:01+02:00</time>
      </trkpt>
      <trkpt lat="47.74419" lon="6.02706">
        <ele>223.5</ele>
        <time>2026-05-16T15:57:02+02:00</time>
      </trkpt>
      <trkpt lat="47.74424" lon="6.02712">
        <ele>223.10059</ele>
        <time>2026-05-16T15:57:03+02:00</time>
      </trkpt>
      <trkpt lat="47.74429" lon="6.02718">
        <ele>222.90039</ele>
        <time>2026-05-16T15:57:04+02:00</time>
      </trkpt>
      <trkpt lat="47.74434" lon="6.02724">
        <ele>222.5</ele>
        <time>2026-05-16T15:57:05+02:00</time>
      </trkpt>
      <trkpt lat="47.74439" lon="6.0273">
        <ele>221.90039</ele>
        <time>2026-05-16T15:57:06+02:00</time>
      </trkpt>
      <trkpt lat="47.74444" lon="6.02736">
        <ele>221.7002</ele>
        <time>2026-05-16T15:57:07+02:00</time>
      </trkpt>
      <trkpt lat="47.7445" lon="6.02743">
        <ele>221</ele>
        <time>2026-05-16T15:57:08+02:00</time>
      </trkpt>
      <trkpt lat="47.74455" lon="6.02749">
        <ele>220.2998</ele>
        <time>2026-05-16T15:57:09+02:00</time>
      </trkpt>
      <trkpt lat="47.7446" lon="6.02755">
        <ele>219.7002</ele>
        <time>2026-05-16T15:57:10+02:00</time>
      </trkpt>
      <trkpt lat="47.74465" lon="6.02761">
        <ele>219.5</ele>
        <time>2026-05-16T15:57:11+02:00</time>
      </trkpt>
      <trkpt lat="47.7447" lon="6.02767">
        <ele>219</ele>
        <time>2026-05-16T15:57:12+02:00</time>
      </trkpt>
      <trkpt lat="47.74475" lon="6.02773">
        <ele>218.7002</ele>
        <time>2026-05-16T15:57:13+02:00</time>
      </trkpt>
      <trkpt lat="47.74479" lon="6.02781">
        <ele>218.5</ele>
        <time>2026-05-16T15:57:14+02:00</time>
      </trkpt>
      <trkpt lat="47.74483" lon="6.02789">
        <ele>218.2002</ele>
        <time>2026-05-16T15:57:15+02:00</time>
      </trkpt>
      <trkpt lat="47.74486" lon="6.02798">
        <ele>218.10059</ele>
        <time>2026-05-16T15:57:16+02:00</time>
      </trkpt>
      <trkpt lat="47.74489" lon="6.02807">
        <ele>217.90039</ele>
        <time>2026-05-16T15:57:17+02:00</time>
      </trkpt>
      <trkpt lat="47.74491" lon="6.02816">
        <ele>217.7002</ele>
        <time>2026-05-16T15:57:18+02:00</time>
      </trkpt>
      <trkpt lat="47.74493" lon="6.02825">
        <ele>217.5</ele>
        <time>2026-05-16T15:57:19+02:00</time>
      </trkpt>
      <trkpt lat="47.74495" lon="6.02835">
        <ele>217.2002</ele>
        <time>2026-05-16T15:57:20+02:00</time>
      </trkpt>
      <trkpt lat="47.74498" lon="6.02845">
        <ele>216.90039</ele>
        <time>2026-05-16T15:57:21+02:00</time>
      </trkpt>
      <trkpt lat="47.74499" lon="6.02855">
        <ele>216.7002</ele>
        <time>2026-05-16T15:57:22+02:00</time>
      </trkpt>
      <trkpt lat="47.74502" lon="6.02866">
        <ele>216.40039</ele>
        <time>2026-05-16T15:57:23+02:00</time>
      </trkpt>
      <trkpt lat="47.74503" lon="6.02876">
        <ele>215.7998</ele>
        <time>2026-05-16T15:57:24+02:00</time>
      </trkpt>
      <trkpt lat="47.74505" lon="6.02886">
        <ele>215.5</ele>
        <time>2026-05-16T15:57:25+02:00</time>
      </trkpt>
      <trkpt lat="47.74507" lon="6.02895">
        <ele>215.2998</ele>
        <time>2026-05-16T15:57:26+02:00</time>
      </trkpt>
      <trkpt lat="47.74508" lon="6.02905">
        <ele>215.10059</ele>
        <time>2026-05-16T15:57:27+02:00</time>
      </trkpt>
      <trkpt lat="47.7451" lon="6.02913">
        <ele>215</ele>
        <time>2026-05-16T15:57:28+02:00</time>
      </trkpt>
      <trkpt lat="47.74511" lon="6.02921">
        <ele>214.7998</ele>
        <time>2026-05-16T15:57:29+02:00</time>
      </trkpt>
      <trkpt lat="47.74513" lon="6.02927">
        <ele>214.7998</ele>
        <time>2026-05-16T15:57:30+02:00</time>
      </trkpt>
      <trkpt lat="47.74516" lon="6.02931">
        <ele>214.7998</ele>
        <time>2026-05-16T15:57:31+02:00</time>
      </trkpt>
      <trkpt lat="47.7452" lon="6.02932">
        <ele>214.7998</ele>
        <time>2026-05-16T15:57:32+02:00</time>
      </trkpt>
      <trkpt lat="47.74524" lon="6.02931">
        <ele>214.7998</ele>
        <time>2026-05-16T15:57:33+02:00</time>
      </trkpt>
      <trkpt lat="47.74529" lon="6.02929">
        <ele>214.7998</ele>
        <time>2026-05-16T15:57:34+02:00</time>
      </trkpt>
      <trkpt lat="47.74533" lon="6.02928">
        <ele>214.7002</ele>
        <time>2026-05-16T15:57:35+02:00</time>
      </trkpt>
      <trkpt lat="47.74538" lon="6.02926">
        <ele>214.7998</ele>
        <time>2026-05-16T15:57:36+02:00</time>
      </trkpt>
      <trkpt lat="47.74543" lon="6.02925">
        <ele>214.7998</ele>
        <time>2026-05-16T15:57:37+02:00</time>
      </trkpt>
      <trkpt lat="47.74548" lon="6.02923">
        <ele>214.7998</ele>
        <time>2026-05-16T15:57:38+02:00</time>
      </trkpt>
      <trkpt lat="47.74554" lon="6.02921">
        <ele>214.7998</ele>
        <time>2026-05-16T15:57:39+02:00</time>
      </trkpt>
      <trkpt lat="47.7456" lon="6.02919">
        <ele>214.7998</ele>
        <time>2026-05-16T15:57:40+02:00</time>
      </trkpt>
      <trkpt lat="47.74568" lon="6.02916">
        <ele>215</ele>
        <time>2026-05-16T15:57:41+02:00</time>
      </trkpt>
      <trkpt lat="47.74571" lon="6.02916">
        <ele>215</ele>
        <time>2026-05-16T15:57:42+02:00</time>
      </trkpt>
      <trkpt lat="47.74576" lon="6.02914">
        <ele>215.10059</ele>
        <time>2026-05-16T15:57:43+02:00</time>
      </trkpt>
      <trkpt lat="47.74582" lon="6.02913">
        <ele>215.2002</ele>
        <time>2026-05-16T15:57:44+02:00</time>
      </trkpt>
      <trkpt lat="47.74588" lon="6.02911">
        <ele>215.2998</ele>
        <time>2026-05-16T15:57:45+02:00</time>
      </trkpt>
      <trkpt lat="47.74594" lon="6.02909">
        <ele>215.7998</ele>
        <time>2026-05-16T15:57:46+02:00</time>
      </trkpt>
      <trkpt lat="47.746" lon="6.02907">
        <ele>215.90039</ele>
        <time>2026-05-16T15:57:47+02:00</time>
      </trkpt>
      <trkpt lat="47.74605" lon="6.02905">
        <ele>216.10059</ele>
        <time>2026-05-16T15:57:48+02:00</time>
      </trkpt>
      <trkpt lat="47.74611" lon="6.02903">
        <ele>216.2998</ele>
        <time>2026-05-16T15:57:49+02:00</time>
      </trkpt>
      <trkpt lat="47.74617" lon="6.02901">
        <ele>216.5</ele>
        <time>2026-05-16T15:57:50+02:00</time>
      </trkpt>
      <trkpt lat="47.74622" lon="6.02899">
        <ele>217</ele>
        <time>2026-05-16T15:57:51+02:00</time>
      </trkpt>
      <trkpt lat="47.74628" lon="6.02896">
        <ele>217.10059</ele>
        <time>2026-05-16T15:57:52+02:00</time>
      </trkpt>
      <trkpt lat="47.74634" lon="6.02894">
        <ele>217.2998</ele>
        <time>2026-05-16T15:57:53+02:00</time>
      </trkpt>
      <trkpt lat="47.74639" lon="6.02893">
        <ele>217.5</ele>
        <time>2026-05-16T15:57:54+02:00</time>
      </trkpt>
      <trkpt lat="47.74645" lon="6.02892">
        <ele>217.60059</ele>
        <time>2026-05-16T15:57:55+02:00</time>
      </trkpt>
      <trkpt lat="47.7465" lon="6.02891">
        <ele>218.10059</ele>
        <time>2026-05-16T15:57:56+02:00</time>
      </trkpt>
      <trkpt lat="47.74655" lon="6.02891">
        <ele>218.2002</ele>
        <time>2026-05-16T15:57:57+02:00</time>
      </trkpt>
      <trkpt lat="47.7466" lon="6.02891">
        <ele>218.40039</ele>
        <time>2026-05-16T15:57:58+02:00</time>
      </trkpt>
      <trkpt lat="47.74665" lon="6.02892">
        <ele>217.90039</ele>
        <time>2026-05-16T15:57:59+02:00</time>
      </trkpt>
      <trkpt lat="47.7467" lon="6.02892">
        <ele>218.10059</ele>
        <time>2026-05-16T15:58:00+02:00</time>
      </trkpt>
      <trkpt lat="47.74675" lon="6.02892">
        <ele>218.2002</ele>
        <time>2026-05-16T15:58:01+02:00</time>
      </trkpt>
      <trkpt lat="47.7468" lon="6.02891">
        <ele>218.7002</ele>
        <time>2026-05-16T15:58:02+02:00</time>
      </trkpt>
      <trkpt lat="47.74685" lon="6.02892">
        <ele>218.2998</ele>
        <time>2026-05-16T15:58:03+02:00</time>
      </trkpt>
      <trkpt lat="47.7469" lon="6.02892">
        <ele>218.2998</ele>
        <time>2026-05-16T15:58:04+02:00</time>
      </trkpt>
      <trkpt lat="47.74695" lon="6.02893">
        <ele>218.2002</ele>
        <time>2026-05-16T15:58:05+02:00</time>
      </trkpt>
      <trkpt lat="47.747" lon="6.02893">
        <ele>218.10059</ele>
        <time>2026-05-16T15:58:06+02:00</time>
      </trkpt>
      <trkpt lat="47.74705" lon="6.02893">
        <ele>218.10059</ele>
        <time>2026-05-16T15:58:07+02:00</time>
      </trkpt>
      <trkpt lat="47.7471" lon="6.02893">
        <ele>218.10059</ele>
        <time>2026-05-16T15:58:08+02:00</time>
      </trkpt>
      <trkpt lat="47.74715" lon="6.02894">
        <ele>218</ele>
        <time>2026-05-16T15:58:09+02:00</time>
      </trkpt>
      <trkpt lat="47.7472" lon="6.02894">
        <ele>218</ele>
        <time>2026-05-16T15:58:10+02:00</time>
      </trkpt>
      <trkpt lat="47.74725" lon="6.02894">
        <ele>217.90039</ele>
        <time>2026-05-16T15:58:11+02:00</time>
      </trkpt>
      <trkpt lat="47.74729" lon="6.02895">
        <ele>217.90039</ele>
        <time>2026-05-16T15:58:12+02:00</time>
      </trkpt>
      <trkpt lat="47.74734" lon="6.02895">
        <ele>217.90039</ele>
        <time>2026-05-16T15:58:13+02:00</time>
      </trkpt>
      <trkpt lat="47.74739" lon="6.02895">
        <ele>217.90039</ele>
        <time>2026-05-16T15:58:14+02:00</time>
      </trkpt>
      <trkpt lat="47.74744" lon="6.02895">
        <ele>217.7998</ele>
        <time>2026-05-16T15:58:15+02:00</time>
      </trkpt>
      <trkpt lat="47.74749" lon="6.02896">
        <ele>217.7998</ele>
        <time>2026-05-16T15:58:16+02:00</time>
      </trkpt>
      <trkpt lat="47.74754" lon="6.02896">
        <ele>217.7998</ele>
        <time>2026-05-16T15:58:17+02:00</time>
      </trkpt>
      <trkpt lat="47.74758" lon="6.02896">
        <ele>217.7002</ele>
        <time>2026-05-16T15:58:18+02:00</time>
      </trkpt>
      <trkpt lat="47.74762" lon="6.02896">
        <ele>217.7002</ele>
        <time>2026-05-16T15:58:19+02:00</time>
      </trkpt>
      <trkpt lat="47.74766" lon="6.02896">
        <ele>217.60059</ele>
        <time>2026-05-16T15:58:20+02:00</time>
      </trkpt>
      <trkpt lat="47.7477" lon="6.02896">
        <ele>217.60059</ele>
        <time>2026-05-16T15:58:21+02:00</time>
      </trkpt>
      <trkpt lat="47.74775" lon="6.02897">
        <ele>217.60059</ele>
        <time>2026-05-16T15:58:22+02:00</time>
      </trkpt>
      <trkpt lat="47.7478" lon="6.02897">
        <ele>217.5</ele>
        <time>2026-05-16T15:58:23+02:00</time>
      </trkpt>
      <trkpt lat="47.74785" lon="6.02897">
        <ele>217.40039</ele>
        <time>2026-05-16T15:58:24+02:00</time>
      </trkpt>
      <trkpt lat="47.74787" lon="6.02898">
        <ele>217.2998</ele>
        <time>2026-05-16T15:58:25+02:00</time>
      </trkpt>
      <trkpt lat="47.74795" lon="6.02898">
        <ele>217.2002</ele>
        <time>2026-05-16T15:58:26+02:00</time>
      </trkpt>
      <trkpt lat="47.748" lon="6.02899">
        <ele>217.10059</ele>
        <time>2026-05-16T15:58:27+02:00</time>
      </trkpt>
      <trkpt lat="47.74805" lon="6.02899">
        <ele>216.90039</ele>
        <time>2026-05-16T15:58:28+02:00</time>
      </trkpt>
      <trkpt lat="47.74811" lon="6.029">
        <ele>216.7998</ele>
        <time>2026-05-16T15:58:29+02:00</time>
      </trkpt>
      <trkpt lat="47.74816" lon="6.02901">
        <ele>216.5</ele>
        <time>2026-05-16T15:58:30+02:00</time>
      </trkpt>
      <trkpt lat="47.74822" lon="6.02902">
        <ele>216.40039</ele>
        <time>2026-05-16T15:58:31+02:00</time>
      </trkpt>
      <trkpt lat="47.74828" lon="6.02902">
        <ele>216.2998</ele>
        <time>2026-05-16T15:58:32+02:00</time>
      </trkpt>
      <trkpt lat="47.74834" lon="6.02903">
        <ele>216.2998</ele>
        <time>2026-05-16T15:58:33+02:00</time>
      </trkpt>
      <trkpt lat="47.7484" lon="6.02904">
        <ele>216.2998</ele>
        <time>2026-05-16T15:58:34+02:00</time>
      </trkpt>
      <trkpt lat="47.74846" lon="6.02905">
        <ele>216.40039</ele>
        <time>2026-05-16T15:58:35+02:00</time>
      </trkpt>
      <trkpt lat="47.74852" lon="6.02905">
        <ele>216.40039</ele>
        <time>2026-05-16T15:58:36+02:00</time>
      </trkpt>
      <trkpt lat="47.74858" lon="6.02906">
        <ele>216.5</ele>
        <time>2026-05-16T15:58:37+02:00</time>
      </trkpt>
      <trkpt lat="47.74864" lon="6.02907">
        <ele>216.5</ele>
        <time>2026-05-16T15:58:38+02:00</time>
      </trkpt>
      <trkpt lat="47.7487" lon="6.02907">
        <ele>216.7002</ele>
        <time>2026-05-16T15:58:39+02:00</time>
      </trkpt>
      <trkpt lat="47.74877" lon="6.02908">
        <ele>216.90039</ele>
        <time>2026-05-16T15:58:40+02:00</time>
      </trkpt>
      <trkpt lat="47.74886" lon="6.0291">
        <ele>217.2998</ele>
        <time>2026-05-16T15:58:41+02:00</time>
      </trkpt>
      <trkpt lat="47.74889" lon="6.0291">
        <ele>217.2998</ele>
        <time>2026-05-16T15:58:42+02:00</time>
      </trkpt>
      <trkpt lat="47.74895" lon="6.02911">
        <ele>217.5</ele>
        <time>2026-05-16T15:58:43+02:00</time>
      </trkpt>
      <trkpt lat="47.74901" lon="6.02912">
        <ele>217.7002</ele>
        <time>2026-05-16T15:58:44+02:00</time>
      </trkpt>
      <trkpt lat="47.74907" lon="6.02914">
        <ele>217.90039</ele>
        <time>2026-05-16T15:58:45+02:00</time>
      </trkpt>
      <trkpt lat="47.74913" lon="6.02915">
        <ele>218.10059</ele>
        <time>2026-05-16T15:58:46+02:00</time>
      </trkpt>
      <trkpt lat="47.74918" lon="6.02916">
        <ele>218.40039</ele>
        <time>2026-05-16T15:58:47+02:00</time>
      </trkpt>
      <trkpt lat="47.74925" lon="6.02917">
        <ele>218.7998</ele>
        <time>2026-05-16T15:58:48+02:00</time>
      </trkpt>
      <trkpt lat="47.74931" lon="6.02918">
        <ele>219.10059</ele>
        <time>2026-05-16T15:58:49+02:00</time>
      </trkpt>
      <trkpt lat="47.74936" lon="6.02919">
        <ele>219.10059</ele>
        <time>2026-05-16T15:58:50+02:00</time>
      </trkpt>
      <trkpt lat="47.74943" lon="6.0292">
        <ele>219.40039</ele>
        <time>2026-05-16T15:58:51+02:00</time>
      </trkpt>
      <trkpt lat="47.74949" lon="6.02921">
        <ele>219.40039</ele>
        <time>2026-05-16T15:58:52+02:00</time>
      </trkpt>
      <trkpt lat="47.74955" lon="6.02923">
        <ele>219.40039</ele>
        <time>2026-05-16T15:58:53+02:00</time>
      </trkpt>
      <trkpt lat="47.74961" lon="6.02924">
        <ele>219.40039</ele>
        <time>2026-05-16T15:58:54+02:00</time>
      </trkpt>
      <trkpt lat="47.74967" lon="6.02925">
        <ele>219.40039</ele>
        <time>2026-05-16T15:58:55+02:00</time>
      </trkpt>
      <trkpt lat="47.74974" lon="6.02927">
        <ele>218.90039</ele>
        <time>2026-05-16T15:58:56+02:00</time>
      </trkpt>
      <trkpt lat="47.7498" lon="6.02928">
        <ele>218.7002</ele>
        <time>2026-05-16T15:58:57+02:00</time>
      </trkpt>
      <trkpt lat="47.74987" lon="6.02929">
        <ele>218.5</ele>
        <time>2026-05-16T15:58:58+02:00</time>
      </trkpt>
      <trkpt lat="47.74994" lon="6.0293">
        <ele>218.2002</ele>
        <time>2026-05-16T15:58:59+02:00</time>
      </trkpt>
      <trkpt lat="47.75" lon="6.02931">
        <ele>217.90039</ele>
        <time>2026-05-16T15:59:00+02:00</time>
      </trkpt>
      <trkpt lat="47.75007" lon="6.02931">
        <ele>217.2998</ele>
        <time>2026-05-16T15:59:01+02:00</time>
      </trkpt>
      <trkpt lat="47.75013" lon="6.02931">
        <ele>216.90039</ele>
        <time>2026-05-16T15:59:02+02:00</time>
      </trkpt>
      <trkpt lat="47.7502" lon="6.02931">
        <ele>216.60059</ele>
        <time>2026-05-16T15:59:03+02:00</time>
      </trkpt>
      <trkpt lat="47.75027" lon="6.0293">
        <ele>216.2998</ele>
        <time>2026-05-16T15:59:04+02:00</time>
      </trkpt>
      <trkpt lat="47.75034" lon="6.0293">
        <ele>216.10059</ele>
        <time>2026-05-16T15:59:05+02:00</time>
      </trkpt>
      <trkpt lat="47.75037" lon="6.0293">
        <ele>216</ele>
        <time>2026-05-16T15:59:06+02:00</time>
      </trkpt>
      <trkpt lat="47.75047" lon="6.02929">
        <ele>215.7002</ele>
        <time>2026-05-16T15:59:07+02:00</time>
      </trkpt>
      <trkpt lat="47.75054" lon="6.02928">
        <ele>215.60059</ele>
        <time>2026-05-16T15:59:08+02:00</time>
      </trkpt>
      <trkpt lat="47.75061" lon="6.02927">
        <ele>215.40039</ele>
        <time>2026-05-16T15:59:09+02:00</time>
      </trkpt>
      <trkpt lat="47.75068" lon="6.02925">
        <ele>215.40039</ele>
        <time>2026-05-16T15:59:10+02:00</time>
      </trkpt>
      <trkpt lat="47.75075" lon="6.02924">
        <ele>215.10059</ele>
        <time>2026-05-16T15:59:11+02:00</time>
      </trkpt>
      <trkpt lat="47.75081" lon="6.02922">
        <ele>215</ele>
        <time>2026-05-16T15:59:12+02:00</time>
      </trkpt>
      <trkpt lat="47.75088" lon="6.0292">
        <ele>214.7998</ele>
        <time>2026-05-16T15:59:13+02:00</time>
      </trkpt>
      <trkpt lat="47.75095" lon="6.02918">
        <ele>214.7002</ele>
        <time>2026-05-16T15:59:14+02:00</time>
      </trkpt>
      <trkpt lat="47.75101" lon="6.02916">
        <ele>214.60059</ele>
        <time>2026-05-16T15:59:15+02:00</time>
      </trkpt>
      <trkpt lat="47.75107" lon="6.02914">
        <ele>214.5</ele>
        <time>2026-05-16T15:59:16+02:00</time>
      </trkpt>
      <trkpt lat="47.75114" lon="6.02912">
        <ele>214.40039</ele>
        <time>2026-05-16T15:59:17+02:00</time>
      </trkpt>
      <trkpt lat="47.7512" lon="6.0291">
        <ele>214.2998</ele>
        <time>2026-05-16T15:59:18+02:00</time>
      </trkpt>
      <trkpt lat="47.75127" lon="6.02908">
        <ele>214.2998</ele>
        <time>2026-05-16T15:59:19+02:00</time>
      </trkpt>
      <trkpt lat="47.75134" lon="6.02906">
        <ele>214.2998</ele>
        <time>2026-05-16T15:59:20+02:00</time>
      </trkpt>
      <trkpt lat="47.7514" lon="6.02906">
        <ele>214.40039</ele>
        <time>2026-05-16T15:59:21+02:00</time>
      </trkpt>
      <trkpt lat="47.75147" lon="6.02905">
        <ele>214.40039</ele>
        <time>2026-05-16T15:59:22+02:00</time>
      </trkpt>
      <trkpt lat="47.75153" lon="6.02905">
        <ele>214.5</ele>
        <time>2026-05-16T15:59:23+02:00</time>
      </trkpt>
      <trkpt lat="47.7516" lon="6.02906">
        <ele>214.5</ele>
        <time>2026-05-16T15:59:24+02:00</time>
      </trkpt>
      <trkpt lat="47.75166" lon="6.02909">
        <ele>214.40039</ele>
        <time>2026-05-16T15:59:25+02:00</time>
      </trkpt>
      <trkpt lat="47.7517" lon="6.02911">
        <ele>214.2998</ele>
        <time>2026-05-16T15:59:26+02:00</time>
      </trkpt>
      <trkpt lat="47.75179" lon="6.02917">
        <ele>214.2002</ele>
        <time>2026-05-16T15:59:27+02:00</time>
      </trkpt>
      <trkpt lat="47.75186" lon="6.0292">
        <ele>214</ele>
        <time>2026-05-16T15:59:28+02:00</time>
      </trkpt>
      <trkpt lat="47.75193" lon="6.02922">
        <ele>213.90039</ele>
        <time>2026-05-16T15:59:29+02:00</time>
      </trkpt>
      <trkpt lat="47.752" lon="6.02924">
        <ele>213.7998</ele>
        <time>2026-05-16T15:59:30+02:00</time>
      </trkpt>
      <trkpt lat="47.75207" lon="6.02924">
        <ele>213.7002</ele>
        <time>2026-05-16T15:59:31+02:00</time>
      </trkpt>
      <trkpt lat="47.75213" lon="6.02924">
        <ele>213.60059</ele>
        <time>2026-05-16T15:59:32+02:00</time>
      </trkpt>
      <trkpt lat="47.75217" lon="6.02923">
        <ele>213.5</ele>
        <time>2026-05-16T15:59:33+02:00</time>
      </trkpt>
      <trkpt lat="47.75227" lon="6.02921">
        <ele>213.2998</ele>
        <time>2026-05-16T15:59:34+02:00</time>
      </trkpt>
      <trkpt lat="47.75233" lon="6.02918">
        <ele>213.2002</ele>
        <time>2026-05-16T15:59:35+02:00</time>
      </trkpt>
      <trkpt lat="47.7524" lon="6.02915">
        <ele>213.2002</ele>
        <time>2026-05-16T15:59:36+02:00</time>
      </trkpt>
      <trkpt lat="47.75246" lon="6.02912">
        <ele>213.10059</ele>
        <time>2026-05-16T15:59:37+02:00</time>
      </trkpt>
      <trkpt lat="47.75252" lon="6.02907">
        <ele>213</ele>
        <time>2026-05-16T15:59:38+02:00</time>
      </trkpt>
      <trkpt lat="47.75258" lon="6.02902">
        <ele>212.7002</ele>
        <time>2026-05-16T15:59:39+02:00</time>
      </trkpt>
      <trkpt lat="47.75264" lon="6.02897">
        <ele>212.5</ele>
        <time>2026-05-16T15:59:40+02:00</time>
      </trkpt>
      <trkpt lat="47.75269" lon="6.02891">
        <ele>212.2998</ele>
        <time>2026-05-16T15:59:41+02:00</time>
      </trkpt>
      <trkpt lat="47.75275" lon="6.02885">
        <ele>212.10059</ele>
        <time>2026-05-16T15:59:42+02:00</time>
      </trkpt>
      <trkpt lat="47.7528" lon="6.02879">
        <ele>212</ele>
        <time>2026-05-16T15:59:43+02:00</time>
      </trkpt>
      <trkpt lat="47.75286" lon="6.02873">
        <ele>211.90039</ele>
        <time>2026-05-16T15:59:44+02:00</time>
      </trkpt>
      <trkpt lat="47.75291" lon="6.02867">
        <ele>211.7998</ele>
        <time>2026-05-16T15:59:45+02:00</time>
      </trkpt>
      <trkpt lat="47.75297" lon="6.02861">
        <ele>211.7998</ele>
        <time>2026-05-16T15:59:46+02:00</time>
      </trkpt>
      <trkpt lat="47.75302" lon="6.02855">
        <ele>211.90039</ele>
        <time>2026-05-16T15:59:47+02:00</time>
      </trkpt>
      <trkpt lat="47.75307" lon="6.02848">
        <ele>212</ele>
        <time>2026-05-16T15:59:48+02:00</time>
      </trkpt>
      <trkpt lat="47.75313" lon="6.02842">
        <ele>212</ele>
        <time>2026-05-16T15:59:49+02:00</time>
      </trkpt>
      <trkpt lat="47.75318" lon="6.02836">
        <ele>212.10059</ele>
        <time>2026-05-16T15:59:50+02:00</time>
      </trkpt>
      <trkpt lat="47.75323" lon="6.0283">
        <ele>212.2002</ele>
        <time>2026-05-16T15:59:51+02:00</time>
      </trkpt>
      <trkpt lat="47.75329" lon="6.02823">
        <ele>212.2998</ele>
        <time>2026-05-16T15:59:52+02:00</time>
      </trkpt>
      <trkpt lat="47.75334" lon="6.02817">
        <ele>212.2998</ele>
        <time>2026-05-16T15:59:53+02:00</time>
      </trkpt>
      <trkpt lat="47.75336" lon="6.02814">
        <ele>212.2998</ele>
        <time>2026-05-16T15:59:54+02:00</time>
      </trkpt>
      <trkpt lat="47.75344" lon="6.02804">
        <ele>212.40039</ele>
        <time>2026-05-16T15:59:55+02:00</time>
      </trkpt>
      <trkpt lat="47.75349" lon="6.02797">
        <ele>212.40039</ele>
        <time>2026-05-16T15:59:56+02:00</time>
      </trkpt>
      <trkpt lat="47.75354" lon="6.02791">
        <ele>212.2998</ele>
        <time>2026-05-16T15:59:57+02:00</time>
      </trkpt>
      <trkpt lat="47.75358" lon="6.02785">
        <ele>212.40039</ele>
        <time>2026-05-16T15:59:58+02:00</time>
      </trkpt>
      <trkpt lat="47.75363" lon="6.02779">
        <ele>212.40039</ele>
        <time>2026-05-16T15:59:59+02:00</time>
      </trkpt>
      <trkpt lat="47.75368" lon="6.02773">
        <ele>212.2002</ele>
        <time>2026-05-16T16:00:00+02:00</time>
      </trkpt>
      <trkpt lat="47.75371" lon="6.02771">
        <ele>212.2002</ele>
        <time>2026-05-16T16:00:01+02:00</time>
      </trkpt>
      <trkpt lat="47.75379" lon="6.02764">
        <ele>212</ele>
        <time>2026-05-16T16:00:02+02:00</time>
      </trkpt>
      <trkpt lat="47.75384" lon="6.02762">
        <ele>211.90039</ele>
        <time>2026-05-16T16:00:03+02:00</time>
      </trkpt>
      <trkpt lat="47.7539" lon="6.0276">
        <ele>211.7002</ele>
        <time>2026-05-16T16:00:04+02:00</time>
      </trkpt>
      <trkpt lat="47.75396" lon="6.02761">
        <ele>211.5</ele>
        <time>2026-05-16T16:00:05+02:00</time>
      </trkpt>
      <trkpt lat="47.75401" lon="6.02764">
        <ele>211.2002</ele>
        <time>2026-05-16T16:00:06+02:00</time>
      </trkpt>
      <trkpt lat="47.75407" lon="6.02768">
        <ele>211</ele>
        <time>2026-05-16T16:00:07+02:00</time>
      </trkpt>
      <trkpt lat="47.75413" lon="6.02771">
        <ele>210.7998</ele>
        <time>2026-05-16T16:00:08+02:00</time>
      </trkpt>
      <trkpt lat="47.75419" lon="6.02774">
        <ele>210.60059</ele>
        <time>2026-05-16T16:00:09+02:00</time>
      </trkpt>
      <trkpt lat="47.75424" lon="6.02777">
        <ele>210.5</ele>
        <time>2026-05-16T16:00:10+02:00</time>
      </trkpt>
      <trkpt lat="47.7543" lon="6.02781">
        <ele>210.60059</ele>
        <time>2026-05-16T16:00:11+02:00</time>
      </trkpt>
      <trkpt lat="47.75435" lon="6.02786">
        <ele>210.7998</ele>
        <time>2026-05-16T16:00:12+02:00</time>
      </trkpt>
      <trkpt lat="47.75441" lon="6.0279">
        <ele>211</ele>
        <time>2026-05-16T16:00:13+02:00</time>
      </trkpt>
      <trkpt lat="47.75446" lon="6.02794">
        <ele>211.2002</ele>
        <time>2026-05-16T16:00:14+02:00</time>
      </trkpt>
      <trkpt lat="47.75452" lon="6.02799">
        <ele>211.40039</ele>
        <time>2026-05-16T16:00:15+02:00</time>
      </trkpt>
      <trkpt lat="47.75458" lon="6.02802">
        <ele>211.60059</ele>
        <time>2026-05-16T16:00:16+02:00</time>
      </trkpt>
      <trkpt lat="47.75464" lon="6.02805">
        <ele>211.7998</ele>
        <time>2026-05-16T16:00:17+02:00</time>
      </trkpt>
      <trkpt lat="47.75467" lon="6.02806">
        <ele>211.7998</ele>
        <time>2026-05-16T16:00:18+02:00</time>
      </trkpt>
      <trkpt lat="47.75476" lon="6.02809">
        <ele>212.10059</ele>
        <time>2026-05-16T16:00:19+02:00</time>
      </trkpt>
      <trkpt lat="47.75482" lon="6.0281">
        <ele>212.10059</ele>
        <time>2026-05-16T16:00:20+02:00</time>
      </trkpt>
      <trkpt lat="47.75488" lon="6.0281">
        <ele>212.10059</ele>
        <time>2026-05-16T16:00:21+02:00</time>
      </trkpt>
      <trkpt lat="47.75494" lon="6.0281">
        <ele>212.10059</ele>
        <time>2026-05-16T16:00:22+02:00</time>
      </trkpt>
      <trkpt lat="47.755" lon="6.02809">
        <ele>212.10059</ele>
        <time>2026-05-16T16:00:23+02:00</time>
      </trkpt>
      <trkpt lat="47.75506" lon="6.02807">
        <ele>212.10059</ele>
        <time>2026-05-16T16:00:24+02:00</time>
      </trkpt>
      <trkpt lat="47.75512" lon="6.02806">
        <ele>212.2002</ele>
        <time>2026-05-16T16:00:25+02:00</time>
      </trkpt>
      <trkpt lat="47.75517" lon="6.02805">
        <ele>212.2002</ele>
        <time>2026-05-16T16:00:26+02:00</time>
      </trkpt>
      <trkpt lat="47.75524" lon="6.02804">
        <ele>212.10059</ele>
        <time>2026-05-16T16:00:27+02:00</time>
      </trkpt>
      <trkpt lat="47.75529" lon="6.02803">
        <ele>212.10059</ele>
        <time>2026-05-16T16:00:28+02:00</time>
      </trkpt>
      <trkpt lat="47.75535" lon="6.02802">
        <ele>212.10059</ele>
        <time>2026-05-16T16:00:29+02:00</time>
      </trkpt>
      <trkpt lat="47.75541" lon="6.028">
        <ele>212.10059</ele>
        <time>2026-05-16T16:00:30+02:00</time>
      </trkpt>
      <trkpt lat="47.75547" lon="6.02799">
        <ele>212.10059</ele>
        <time>2026-05-16T16:00:31+02:00</time>
      </trkpt>
      <trkpt lat="47.7555" lon="6.02798">
        <ele>212.10059</ele>
        <time>2026-05-16T16:00:32+02:00</time>
      </trkpt>
      <trkpt lat="47.75559" lon="6.02796">
        <ele>212.2002</ele>
        <time>2026-05-16T16:00:33+02:00</time>
      </trkpt>
      <trkpt lat="47.75565" lon="6.02794">
        <ele>212.2002</ele>
        <time>2026-05-16T16:00:34+02:00</time>
      </trkpt>
      <trkpt lat="47.7557" lon="6.02793">
        <ele>212.2002</ele>
        <time>2026-05-16T16:00:35+02:00</time>
      </trkpt>
      <trkpt lat="47.75576" lon="6.02792">
        <ele>212.2002</ele>
        <time>2026-05-16T16:00:36+02:00</time>
      </trkpt>
      <trkpt lat="47.75581" lon="6.0279">
        <ele>212.2002</ele>
        <time>2026-05-16T16:00:37+02:00</time>
      </trkpt>
      <trkpt lat="47.75586" lon="6.02788">
        <ele>212.40039</ele>
        <time>2026-05-16T16:00:38+02:00</time>
      </trkpt>
      <trkpt lat="47.75592" lon="6.02785">
        <ele>212.40039</ele>
        <time>2026-05-16T16:00:39+02:00</time>
      </trkpt>
      <trkpt lat="47.75597" lon="6.02782">
        <ele>212.5</ele>
        <time>2026-05-16T16:00:40+02:00</time>
      </trkpt>
      <trkpt lat="47.75602" lon="6.02777">
        <ele>212.7002</ele>
        <time>2026-05-16T16:00:41+02:00</time>
      </trkpt>
      <trkpt lat="47.75607" lon="6.02773">
        <ele>212.7998</ele>
        <time>2026-05-16T16:00:42+02:00</time>
      </trkpt>
      <trkpt lat="47.75612" lon="6.02768">
        <ele>213.10059</ele>
        <time>2026-05-16T16:00:43+02:00</time>
      </trkpt>
      <trkpt lat="47.75616" lon="6.02762">
        <ele>213.2998</ele>
        <time>2026-05-16T16:00:44+02:00</time>
      </trkpt>
      <trkpt lat="47.75623" lon="6.02755">
        <ele>213.40039</ele>
        <time>2026-05-16T16:00:45+02:00</time>
      </trkpt>
      <trkpt lat="47.75623" lon="6.02755">
        <ele>213.40039</ele>
        <time>2026-05-16T16:00:46+02:00</time>
      </trkpt>
      <trkpt lat="47.75631" lon="6.02749">
        <ele>213.90039</ele>
        <time>2026-05-16T16:00:47+02:00</time>
      </trkpt>
      <trkpt lat="47.75636" lon="6.02745">
        <ele>214.2002</ele>
        <time>2026-05-16T16:00:48+02:00</time>
      </trkpt>
      <trkpt lat="47.75642" lon="6.02742">
        <ele>214.2998</ele>
        <time>2026-05-16T16:00:49+02:00</time>
      </trkpt>
      <trkpt lat="47.75647" lon="6.02738">
        <ele>214.5</ele>
        <time>2026-05-16T16:00:50+02:00</time>
      </trkpt>
      <trkpt lat="47.75653" lon="6.02735">
        <ele>214.7998</ele>
        <time>2026-05-16T16:00:51+02:00</time>
      </trkpt>
      <trkpt lat="47.75659" lon="6.02732">
        <ele>214.90039</ele>
        <time>2026-05-16T16:00:52+02:00</time>
      </trkpt>
      <trkpt lat="47.75664" lon="6.02729">
        <ele>215</ele>
        <time>2026-05-16T16:00:53+02:00</time>
      </trkpt>
      <trkpt lat="47.7567" lon="6.02726">
        <ele>215.40039</ele>
        <time>2026-05-16T16:00:54+02:00</time>
      </trkpt>
      <trkpt lat="47.75675" lon="6.02723">
        <ele>215.40039</ele>
        <time>2026-05-16T16:00:55+02:00</time>
      </trkpt>
      <trkpt lat="47.75678" lon="6.02722">
        <ele>215.5</ele>
        <time>2026-05-16T16:00:56+02:00</time>
      </trkpt>
      <trkpt lat="47.75687" lon="6.02718">
        <ele>215.7998</ele>
        <time>2026-05-16T16:00:57+02:00</time>
      </trkpt>
      <trkpt lat="47.75692" lon="6.02716">
        <ele>215.7998</ele>
        <time>2026-05-16T16:00:58+02:00</time>
      </trkpt>
      <trkpt lat="47.75698" lon="6.02713">
        <ele>215.90039</ele>
        <time>2026-05-16T16:00:59+02:00</time>
      </trkpt>
      <trkpt lat="47.75703" lon="6.02711">
        <ele>216.2002</ele>
        <time>2026-05-16T16:01:00+02:00</time>
      </trkpt>
      <trkpt lat="47.75709" lon="6.02709">
        <ele>216.2998</ele>
        <time>2026-05-16T16:01:01+02:00</time>
      </trkpt>
      <trkpt lat="47.75714" lon="6.02707">
        <ele>216.2998</ele>
        <time>2026-05-16T16:01:02+02:00</time>
      </trkpt>
      <trkpt lat="47.7572" lon="6.02705">
        <ele>216.40039</ele>
        <time>2026-05-16T16:01:03+02:00</time>
      </trkpt>
      <trkpt lat="47.75725" lon="6.02702">
        <ele>216.60059</ele>
        <time>2026-05-16T16:01:04+02:00</time>
      </trkpt>
      <trkpt lat="47.75731" lon="6.027">
        <ele>216.7002</ele>
        <time>2026-05-16T16:01:05+02:00</time>
      </trkpt>
      <trkpt lat="47.75736" lon="6.02699">
        <ele>216.7998</ele>
        <time>2026-05-16T16:01:06+02:00</time>
      </trkpt>
      <trkpt lat="47.75742" lon="6.02697">
        <ele>216.7998</ele>
        <time>2026-05-16T16:01:07+02:00</time>
      </trkpt>
      <trkpt lat="47.75747" lon="6.02695">
        <ele>216.90039</ele>
        <time>2026-05-16T16:01:08+02:00</time>
      </trkpt>
      <trkpt lat="47.75753" lon="6.02694">
        <ele>217.10059</ele>
        <time>2026-05-16T16:01:09+02:00</time>
      </trkpt>
      <trkpt lat="47.75758" lon="6.02693">
        <ele>217.2002</ele>
        <time>2026-05-16T16:01:10+02:00</time>
      </trkpt>
      <trkpt lat="47.75764" lon="6.02692">
        <ele>217.2002</ele>
        <time>2026-05-16T16:01:11+02:00</time>
      </trkpt>
      <trkpt lat="47.75769" lon="6.0269">
        <ele>217.2998</ele>
        <time>2026-05-16T16:01:12+02:00</time>
      </trkpt>
      <trkpt lat="47.75775" lon="6.02688">
        <ele>217.2998</ele>
        <time>2026-05-16T16:01:13+02:00</time>
      </trkpt>
      <trkpt lat="47.7578" lon="6.02686">
        <ele>217.2998</ele>
        <time>2026-05-16T16:01:14+02:00</time>
      </trkpt>
      <trkpt lat="47.75784" lon="6.02684">
        <ele>217.5</ele>
        <time>2026-05-16T16:01:15+02:00</time>
      </trkpt>
      <trkpt lat="47.75789" lon="6.02682">
        <ele>217.5</ele>
        <time>2026-05-16T16:01:16+02:00</time>
      </trkpt>
      <trkpt lat="47.75794" lon="6.0268">
        <ele>217.5</ele>
        <time>2026-05-16T16:01:17+02:00</time>
      </trkpt>
      <trkpt lat="47.75798" lon="6.02678">
        <ele>217.5</ele>
        <time>2026-05-16T16:01:18+02:00</time>
      </trkpt>
      <trkpt lat="47.75803" lon="6.02677">
        <ele>217.7002</ele>
        <time>2026-05-16T16:01:19+02:00</time>
      </trkpt>
      <trkpt lat="47.75808" lon="6.02675">
        <ele>217.60059</ele>
        <time>2026-05-16T16:01:20+02:00</time>
      </trkpt>
      <trkpt lat="47.75812" lon="6.02674">
        <ele>217.60059</ele>
        <time>2026-05-16T16:01:21+02:00</time>
      </trkpt>
      <trkpt lat="47.75817" lon="6.02672">
        <ele>217.60059</ele>
        <time>2026-05-16T16:01:22+02:00</time>
      </trkpt>
      <trkpt lat="47.75823" lon="6.0267">
        <ele>217.40039</ele>
        <time>2026-05-16T16:01:23+02:00</time>
      </trkpt>
      <trkpt lat="47.75825" lon="6.02669">
        <ele>217.40039</ele>
        <time>2026-05-16T16:01:24+02:00</time>
      </trkpt>
      <trkpt lat="47.75832" lon="6.02664">
        <ele>217.2998</ele>
        <time>2026-05-16T16:01:25+02:00</time>
      </trkpt>
      <trkpt lat="47.75837" lon="6.02659">
        <ele>217.40039</ele>
        <time>2026-05-16T16:01:26+02:00</time>
      </trkpt>
      <trkpt lat="47.75841" lon="6.02654">
        <ele>217.40039</ele>
        <time>2026-05-16T16:01:27+02:00</time>
      </trkpt>
      <trkpt lat="47.75844" lon="6.02648">
        <ele>217.40039</ele>
        <time>2026-05-16T16:01:28+02:00</time>
      </trkpt>
      <trkpt lat="47.75847" lon="6.02641">
        <ele>217.5</ele>
        <time>2026-05-16T16:01:29+02:00</time>
      </trkpt>
      <trkpt lat="47.75852" lon="6.02631">
        <ele>217.5</ele>
        <time>2026-05-16T16:01:30+02:00</time>
      </trkpt>
      <trkpt lat="47.75853" lon="6.02627">
        <ele>217.5</ele>
        <time>2026-05-16T16:01:31+02:00</time>
      </trkpt>
      <trkpt lat="47.75856" lon="6.02622">
        <ele>217.5</ele>
        <time>2026-05-16T16:01:32+02:00</time>
      </trkpt>
      <trkpt lat="47.75858" lon="6.02617">
        <ele>217.7002</ele>
        <time>2026-05-16T16:01:33+02:00</time>
      </trkpt>
      <trkpt lat="47.75861" lon="6.02612">
        <ele>217.5</ele>
        <time>2026-05-16T16:01:34+02:00</time>
      </trkpt>
      <trkpt lat="47.75863" lon="6.0261">
        <ele>217.5</ele>
        <time>2026-05-16T16:01:35+02:00</time>
      </trkpt>
      <trkpt lat="47.75867" lon="6.02604">
        <ele>217.5</ele>
        <time>2026-05-16T16:01:36+02:00</time>
      </trkpt>
      <trkpt lat="47.7587" lon="6.02599">
        <ele>217.7002</ele>
        <time>2026-05-16T16:01:37+02:00</time>
      </trkpt>
      <trkpt lat="47.75871" lon="6.02596">
        <ele>217.7002</ele>
        <time>2026-05-16T16:01:38+02:00</time>
      </trkpt>
      <trkpt lat="47.75874" lon="6.02593">
        <ele>217.5</ele>
        <time>2026-05-16T16:01:39+02:00</time>
      </trkpt>
      <trkpt lat="47.75876" lon="6.02592">
        <ele>217.5</ele>
        <time>2026-05-16T16:01:40+02:00</time>
      </trkpt>
      <trkpt lat="47.75879" lon="6.02592">
        <ele>217.40039</ele>
        <time>2026-05-16T16:01:41+02:00</time>
      </trkpt>
      <trkpt lat="47.75881" lon="6.02593">
        <ele>217.40039</ele>
        <time>2026-05-16T16:01:42+02:00</time>
      </trkpt>
      <trkpt lat="47.75884" lon="6.02596">
        <ele>217.2998</ele>
        <time>2026-05-16T16:01:43+02:00</time>
      </trkpt>
      <trkpt lat="47.75886" lon="6.02599">
        <ele>217.2998</ele>
        <time>2026-05-16T16:01:44+02:00</time>
      </trkpt>
      <trkpt lat="47.75889" lon="6.02602">
        <ele>217</ele>
        <time>2026-05-16T16:01:45+02:00</time>
      </trkpt>
      <trkpt lat="47.75891" lon="6.02604">
        <ele>217</ele>
        <time>2026-05-16T16:01:46+02:00</time>
      </trkpt>
      <trkpt lat="47.75897" lon="6.02608">
        <ele>216.7998</ele>
        <time>2026-05-16T16:01:47+02:00</time>
      </trkpt>
      <trkpt lat="47.759" lon="6.02611">
        <ele>216.60059</ele>
        <time>2026-05-16T16:01:48+02:00</time>
      </trkpt>
      <trkpt lat="47.75904" lon="6.02615">
        <ele>216.5</ele>
        <time>2026-05-16T16:01:49+02:00</time>
      </trkpt>
      <trkpt lat="47.75908" lon="6.02618">
        <ele>216.2002</ele>
        <time>2026-05-16T16:01:50+02:00</time>
      </trkpt>
      <trkpt lat="47.75913" lon="6.02621">
        <ele>216.10059</ele>
        <time>2026-05-16T16:01:51+02:00</time>
      </trkpt>
      <trkpt lat="47.75918" lon="6.02624">
        <ele>215.90039</ele>
        <time>2026-05-16T16:01:52+02:00</time>
      </trkpt>
      <trkpt lat="47.75923" lon="6.02627">
        <ele>215.7002</ele>
        <time>2026-05-16T16:01:53+02:00</time>
      </trkpt>
      <trkpt lat="47.75929" lon="6.02629">
        <ele>215.5</ele>
        <time>2026-05-16T16:01:54+02:00</time>
      </trkpt>
      <trkpt lat="47.75934" lon="6.02631">
        <ele>215.2998</ele>
        <time>2026-05-16T16:01:55+02:00</time>
      </trkpt>
      <trkpt lat="47.7594" lon="6.02632">
        <ele>215.2002</ele>
        <time>2026-05-16T16:01:56+02:00</time>
      </trkpt>
      <trkpt lat="47.75945" lon="6.02634">
        <ele>215.10059</ele>
        <time>2026-05-16T16:01:57+02:00</time>
      </trkpt>
      <trkpt lat="47.75952" lon="6.02634">
        <ele>215.10059</ele>
        <time>2026-05-16T16:01:58+02:00</time>
      </trkpt>
      <trkpt lat="47.75957" lon="6.02635">
        <ele>214.7998</ele>
        <time>2026-05-16T16:01:59+02:00</time>
      </trkpt>
      <trkpt lat="47.75963" lon="6.02635">
        <ele>214.5</ele>
        <time>2026-05-16T16:02:00+02:00</time>
      </trkpt>
      <trkpt lat="47.75969" lon="6.02636">
        <ele>214</ele>
        <time>2026-05-16T16:02:01+02:00</time>
      </trkpt>
      <trkpt lat="47.75975" lon="6.02636">
        <ele>213</ele>
        <time>2026-05-16T16:02:02+02:00</time>
      </trkpt>
      <trkpt lat="47.75981" lon="6.02637">
        <ele>211</ele>
        <time>2026-05-16T16:02:03+02:00</time>
      </trkpt>
      <trkpt lat="47.75986" lon="6.02638">
        <ele>211</ele>
        <time>2026-05-16T16:02:04+02:00</time>
      </trkpt>
      <trkpt lat="47.75992" lon="6.02638">
        <ele>210.5</ele>
        <time>2026-05-16T16:02:05+02:00</time>
      </trkpt>
      <trkpt lat="47.75996" lon="6.02638">
        <ele>210</ele>
        <time>2026-05-16T16:02:06+02:00</time>
      </trkpt>
      <trkpt lat="47.76001" lon="6.02638">
        <ele>209.5</ele>
        <time>2026-05-16T16:02:07+02:00</time>
      </trkpt>
      <trkpt lat="47.76006" lon="6.02638">
        <ele>209.10059</ele>
        <time>2026-05-16T16:02:08+02:00</time>
      </trkpt>
      <trkpt lat="47.76014" lon="6.02639">
        <ele>208.7998</ele>
        <time>2026-05-16T16:02:09+02:00</time>
      </trkpt>
      <trkpt lat="47.76014" lon="6.02639">
        <ele>208.7998</ele>
        <time>2026-05-16T16:02:10+02:00</time>
      </trkpt>
      <trkpt lat="47.76022" lon="6.0264">
        <ele>208.2998</ele>
        <time>2026-05-16T16:02:11+02:00</time>
      </trkpt>
      <trkpt lat="47.76027" lon="6.02641">
        <ele>208.2998</ele>
        <time>2026-05-16T16:02:12+02:00</time>
      </trkpt>
      <trkpt lat="47.76033" lon="6.02641">
        <ele>208.10059</ele>
        <time>2026-05-16T16:02:13+02:00</time>
      </trkpt>
      <trkpt lat="47.76039" lon="6.02641">
        <ele>208.10059</ele>
        <time>2026-05-16T16:02:14+02:00</time>
      </trkpt>
      <trkpt lat="47.76045" lon="6.02642">
        <ele>208.2002</ele>
        <time>2026-05-16T16:02:15+02:00</time>
      </trkpt>
      <trkpt lat="47.76051" lon="6.02643">
        <ele>208.2998</ele>
        <time>2026-05-16T16:02:16+02:00</time>
      </trkpt>
      <trkpt lat="47.76056" lon="6.02643">
        <ele>208.2998</ele>
        <time>2026-05-16T16:02:17+02:00</time>
      </trkpt>
      <trkpt lat="47.76063" lon="6.02644">
        <ele>208.90039</ele>
        <time>2026-05-16T16:02:18+02:00</time>
      </trkpt>
      <trkpt lat="47.76069" lon="6.02644">
        <ele>209.2998</ele>
        <time>2026-05-16T16:02:19+02:00</time>
      </trkpt>
      <trkpt lat="47.76075" lon="6.02645">
        <ele>209.7002</ele>
        <time>2026-05-16T16:02:20+02:00</time>
      </trkpt>
      <trkpt lat="47.76081" lon="6.02646">
        <ele>210.2998</ele>
        <time>2026-05-16T16:02:21+02:00</time>
      </trkpt>
      <trkpt lat="47.76088" lon="6.02648">
        <ele>210.90039</ele>
        <time>2026-05-16T16:02:22+02:00</time>
      </trkpt>
      <trkpt lat="47.76094" lon="6.0265">
        <ele>211.40039</ele>
        <time>2026-05-16T16:02:23+02:00</time>
      </trkpt>
      <trkpt lat="47.761" lon="6.02651">
        <ele>211.5</ele>
        <time>2026-05-16T16:02:24+02:00</time>
      </trkpt>
      <trkpt lat="47.76107" lon="6.02654">
        <ele>211.40039</ele>
        <time>2026-05-16T16:02:25+02:00</time>
      </trkpt>
      <trkpt lat="47.76113" lon="6.02657">
        <ele>211.40039</ele>
        <time>2026-05-16T16:02:26+02:00</time>
      </trkpt>
      <trkpt lat="47.76116" lon="6.02658">
        <ele>211.40039</ele>
        <time>2026-05-16T16:02:27+02:00</time>
      </trkpt>
      <trkpt lat="47.76124" lon="6.02664">
        <ele>211.40039</ele>
        <time>2026-05-16T16:02:28+02:00</time>
      </trkpt>
      <trkpt lat="47.76129" lon="6.02669">
        <ele>211.5</ele>
        <time>2026-05-16T16:02:29+02:00</time>
      </trkpt>
      <trkpt lat="47.76135" lon="6.02674">
        <ele>211.5</ele>
        <time>2026-05-16T16:02:30+02:00</time>
      </trkpt>
      <trkpt lat="47.7614" lon="6.02678">
        <ele>211.7002</ele>
        <time>2026-05-16T16:02:31+02:00</time>
      </trkpt>
      <trkpt lat="47.76145" lon="6.02684">
        <ele>211.7002</ele>
        <time>2026-05-16T16:02:32+02:00</time>
      </trkpt>
      <trkpt lat="47.76151" lon="6.02689">
        <ele>211.7998</ele>
        <time>2026-05-16T16:02:33+02:00</time>
      </trkpt>
      <trkpt lat="47.76156" lon="6.02694">
        <ele>211.7998</ele>
        <time>2026-05-16T16:02:34+02:00</time>
      </trkpt>
      <trkpt lat="47.76161" lon="6.027">
        <ele>211.90039</ele>
        <time>2026-05-16T16:02:35+02:00</time>
      </trkpt>
      <trkpt lat="47.76165" lon="6.02707">
        <ele>212.10059</ele>
        <time>2026-05-16T16:02:36+02:00</time>
      </trkpt>
      <trkpt lat="47.7617" lon="6.02713">
        <ele>212.2002</ele>
        <time>2026-05-16T16:02:37+02:00</time>
      </trkpt>
      <trkpt lat="47.76174" lon="6.02719">
        <ele>212.2002</ele>
        <time>2026-05-16T16:02:38+02:00</time>
      </trkpt>
      <trkpt lat="47.76178" lon="6.02726">
        <ele>212.2002</ele>
        <time>2026-05-16T16:02:39+02:00</time>
      </trkpt>
      <trkpt lat="47.76182" lon="6.02734">
        <ele>212.2998</ele>
        <time>2026-05-16T16:02:40+02:00</time>
      </trkpt>
      <trkpt lat="47.76185" lon="6.02741">
        <ele>212.2998</ele>
        <time>2026-05-16T16:02:41+02:00</time>
      </trkpt>
      <trkpt lat="47.76188" lon="6.02749">
        <ele>212.2998</ele>
        <time>2026-05-16T16:02:42+02:00</time>
      </trkpt>
      <trkpt lat="47.76191" lon="6.02757">
        <ele>212.2002</ele>
        <time>2026-05-16T16:02:43+02:00</time>
      </trkpt>
      <trkpt lat="47.76194" lon="6.02766">
        <ele>212.10059</ele>
        <time>2026-05-16T16:02:44+02:00</time>
      </trkpt>
      <trkpt lat="47.76197" lon="6.02774">
        <ele>211.90039</ele>
        <time>2026-05-16T16:02:45+02:00</time>
      </trkpt>
      <trkpt lat="47.76199" lon="6.02783">
        <ele>211.7998</ele>
        <time>2026-05-16T16:02:46+02:00</time>
      </trkpt>
      <trkpt lat="47.76201" lon="6.02792">
        <ele>211.60059</ele>
        <time>2026-05-16T16:02:47+02:00</time>
      </trkpt>
      <trkpt lat="47.76203" lon="6.02801">
        <ele>211.5</ele>
        <time>2026-05-16T16:02:48+02:00</time>
      </trkpt>
      <trkpt lat="47.76204" lon="6.02809">
        <ele>211.40039</ele>
        <time>2026-05-16T16:02:49+02:00</time>
      </trkpt>
      <trkpt lat="47.76206" lon="6.02818">
        <ele>211.40039</ele>
        <time>2026-05-16T16:02:50+02:00</time>
      </trkpt>
      <trkpt lat="47.76207" lon="6.02827">
        <ele>211.2002</ele>
        <time>2026-05-16T16:02:51+02:00</time>
      </trkpt>
      <trkpt lat="47.76209" lon="6.02836">
        <ele>211.2002</ele>
        <time>2026-05-16T16:02:52+02:00</time>
      </trkpt>
      <trkpt lat="47.76211" lon="6.02844">
        <ele>211.2002</ele>
        <time>2026-05-16T16:02:53+02:00</time>
      </trkpt>
      <trkpt lat="47.76212" lon="6.02853">
        <ele>211</ele>
        <time>2026-05-16T16:02:54+02:00</time>
      </trkpt>
      <trkpt lat="47.76213" lon="6.02862">
        <ele>211</ele>
        <time>2026-05-16T16:02:55+02:00</time>
      </trkpt>
      <trkpt lat="47.76215" lon="6.02871">
        <ele>211</ele>
        <time>2026-05-16T16:02:56+02:00</time>
      </trkpt>
      <trkpt lat="47.76216" lon="6.02879">
        <ele>211</ele>
        <time>2026-05-16T16:02:57+02:00</time>
      </trkpt>
      <trkpt lat="47.76217" lon="6.02888">
        <ele>211</ele>
        <time>2026-05-16T16:02:58+02:00</time>
      </trkpt>
      <trkpt lat="47.76219" lon="6.02897">
        <ele>210.90039</ele>
        <time>2026-05-16T16:02:59+02:00</time>
      </trkpt>
      <trkpt lat="47.7622" lon="6.02905">
        <ele>210.90039</ele>
        <time>2026-05-16T16:03:00+02:00</time>
      </trkpt>
      <trkpt lat="47.76222" lon="6.02914">
        <ele>210.90039</ele>
        <time>2026-05-16T16:03:01+02:00</time>
      </trkpt>
      <trkpt lat="47.76224" lon="6.02922">
        <ele>210.90039</ele>
        <time>2026-05-16T16:03:02+02:00</time>
      </trkpt>
      <trkpt lat="47.76225" lon="6.0293">
        <ele>210.90039</ele>
        <time>2026-05-16T16:03:03+02:00</time>
      </trkpt>
      <trkpt lat="47.76227" lon="6.02938">
        <ele>210.90039</ele>
        <time>2026-05-16T16:03:04+02:00</time>
      </trkpt>
      <trkpt lat="47.76227" lon="6.02946">
        <ele>211</ele>
        <time>2026-05-16T16:03:05+02:00</time>
      </trkpt>
      <trkpt lat="47.76228" lon="6.02955">
        <ele>211</ele>
        <time>2026-05-16T16:03:06+02:00</time>
      </trkpt>
      <trkpt lat="47.7623" lon="6.02963">
        <ele>211</ele>
        <time>2026-05-16T16:03:07+02:00</time>
      </trkpt>
      <trkpt lat="47.76231" lon="6.02971">
        <ele>211.10059</ele>
        <time>2026-05-16T16:03:08+02:00</time>
      </trkpt>
      <trkpt lat="47.76232" lon="6.0298">
        <ele>211.2002</ele>
        <time>2026-05-16T16:03:09+02:00</time>
      </trkpt>
      <trkpt lat="47.76233" lon="6.02984">
        <ele>211.2002</ele>
        <time>2026-05-16T16:03:10+02:00</time>
      </trkpt>
      <trkpt lat="47.76235" lon="6.02996">
        <ele>211.2998</ele>
        <time>2026-05-16T16:03:11+02:00</time>
      </trkpt>
      <trkpt lat="47.76236" lon="6.03005">
        <ele>211.40039</ele>
        <time>2026-05-16T16:03:12+02:00</time>
      </trkpt>
      <trkpt lat="47.76239" lon="6.03017">
        <ele>211.5</ele>
        <time>2026-05-16T16:03:13+02:00</time>
      </trkpt>
      <trkpt lat="47.76239" lon="6.03021">
        <ele>211.60059</ele>
        <time>2026-05-16T16:03:14+02:00</time>
      </trkpt>
      <trkpt lat="47.76241" lon="6.0303">
        <ele>211.7002</ele>
        <time>2026-05-16T16:03:15+02:00</time>
      </trkpt>
      <trkpt lat="47.76242" lon="6.03039">
        <ele>211.7002</ele>
        <time>2026-05-16T16:03:16+02:00</time>
      </trkpt>
      <trkpt lat="47.76244" lon="6.03047">
        <ele>211.90039</ele>
        <time>2026-05-16T16:03:17+02:00</time>
      </trkpt>
      <trkpt lat="47.76245" lon="6.03056">
        <ele>212</ele>
        <time>2026-05-16T16:03:18+02:00</time>
      </trkpt>
      <trkpt lat="47.76247" lon="6.03065">
        <ele>212.2002</ele>
        <time>2026-05-16T16:03:19+02:00</time>
      </trkpt>
      <trkpt lat="47.76249" lon="6.03073">
        <ele>212.2998</ele>
        <time>2026-05-16T16:03:20+02:00</time>
      </trkpt>
      <trkpt lat="47.7625" lon="6.03082">
        <ele>212.60059</ele>
        <time>2026-05-16T16:03:21+02:00</time>
      </trkpt>
      <trkpt lat="47.76252" lon="6.03091">
        <ele>212.7998</ele>
        <time>2026-05-16T16:03:22+02:00</time>
      </trkpt>
      <trkpt lat="47.76253" lon="6.031">
        <ele>213.10059</ele>
        <time>2026-05-16T16:03:23+02:00</time>
      </trkpt>
      <trkpt lat="47.76254" lon="6.03109">
        <ele>213.40039</ele>
        <time>2026-05-16T16:03:24+02:00</time>
      </trkpt>
      <trkpt lat="47.76256" lon="6.03118">
        <ele>213.7002</ele>
        <time>2026-05-16T16:03:25+02:00</time>
      </trkpt>
      <trkpt lat="47.76258" lon="6.03126">
        <ele>214</ele>
        <time>2026-05-16T16:03:26+02:00</time>
      </trkpt>
      <trkpt lat="47.76259" lon="6.03135">
        <ele>214.2998</ele>
        <time>2026-05-16T16:03:27+02:00</time>
      </trkpt>
      <trkpt lat="47.76261" lon="6.03144">
        <ele>214.60059</ele>
        <time>2026-05-16T16:03:28+02:00</time>
      </trkpt>
      <trkpt lat="47.76262" lon="6.03153">
        <ele>214.90039</ele>
        <time>2026-05-16T16:03:29+02:00</time>
      </trkpt>
      <trkpt lat="47.76264" lon="6.03161">
        <ele>215.2002</ele>
        <time>2026-05-16T16:03:30+02:00</time>
      </trkpt>
      <trkpt lat="47.76265" lon="6.0317">
        <ele>215.40039</ele>
        <time>2026-05-16T16:03:31+02:00</time>
      </trkpt>
      <trkpt lat="47.76266" lon="6.03179">
        <ele>215.60059</ele>
        <time>2026-05-16T16:03:32+02:00</time>
      </trkpt>
      <trkpt lat="47.76267" lon="6.03188">
        <ele>215.7998</ele>
        <time>2026-05-16T16:03:33+02:00</time>
      </trkpt>
      <trkpt lat="47.76269" lon="6.03197">
        <ele>216</ele>
        <time>2026-05-16T16:03:34+02:00</time>
      </trkpt>
      <trkpt lat="47.7627" lon="6.03206">
        <ele>216.2998</ele>
        <time>2026-05-16T16:03:35+02:00</time>
      </trkpt>
      <trkpt lat="47.76272" lon="6.03214">
        <ele>216.5</ele>
        <time>2026-05-16T16:03:36+02:00</time>
      </trkpt>
      <trkpt lat="47.76273" lon="6.03223">
        <ele>216.60059</ele>
        <time>2026-05-16T16:03:37+02:00</time>
      </trkpt>
      <trkpt lat="47.76273" lon="6.03227">
        <ele>216.7998</ele>
        <time>2026-05-16T16:03:38+02:00</time>
      </trkpt>
      <trkpt lat="47.76276" lon="6.0324">
        <ele>217.10059</ele>
        <time>2026-05-16T16:03:39+02:00</time>
      </trkpt>
      <trkpt lat="47.76277" lon="6.03249">
        <ele>217.2002</ele>
        <time>2026-05-16T16:03:40+02:00</time>
      </trkpt>
      <trkpt lat="47.76278" lon="6.03257">
        <ele>217.40039</ele>
        <time>2026-05-16T16:03:41+02:00</time>
      </trkpt>
      <trkpt lat="47.7628" lon="6.03266">
        <ele>217.5</ele>
        <time>2026-05-16T16:03:42+02:00</time>
      </trkpt>
      <trkpt lat="47.76281" lon="6.03274">
        <ele>217.60059</ele>
        <time>2026-05-16T16:03:43+02:00</time>
      </trkpt>
      <trkpt lat="47.76283" lon="6.03283">
        <ele>217.90039</ele>
        <time>2026-05-16T16:03:44+02:00</time>
      </trkpt>
      <trkpt lat="47.76285" lon="6.03291">
        <ele>218</ele>
        <time>2026-05-16T16:03:45+02:00</time>
      </trkpt>
      <trkpt lat="47.76286" lon="6.033">
        <ele>218.10059</ele>
        <time>2026-05-16T16:03:46+02:00</time>
      </trkpt>
      <trkpt lat="47.76288" lon="6.03308">
        <ele>218.2002</ele>
        <time>2026-05-16T16:03:47+02:00</time>
      </trkpt>
      <trkpt lat="47.76289" lon="6.03317">
        <ele>218.2002</ele>
        <time>2026-05-16T16:03:48+02:00</time>
      </trkpt>
      <trkpt lat="47.7629" lon="6.03325">
        <ele>218.2002</ele>
        <time>2026-05-16T16:03:49+02:00</time>
      </trkpt>
      <trkpt lat="47.76292" lon="6.03334">
        <ele>218.2002</ele>
        <time>2026-05-16T16:03:50+02:00</time>
      </trkpt>
      <trkpt lat="47.76293" lon="6.03342">
        <ele>218.10059</ele>
        <time>2026-05-16T16:03:51+02:00</time>
      </trkpt>
      <trkpt lat="47.76295" lon="6.0335">
        <ele>218</ele>
        <time>2026-05-16T16:03:52+02:00</time>
      </trkpt>
      <trkpt lat="47.76296" lon="6.03359">
        <ele>217.90039</ele>
        <time>2026-05-16T16:03:53+02:00</time>
      </trkpt>
      <trkpt lat="47.76298" lon="6.03367">
        <ele>217.7998</ele>
        <time>2026-05-16T16:03:54+02:00</time>
      </trkpt>
      <trkpt lat="47.76299" lon="6.03376">
        <ele>217.7002</ele>
        <time>2026-05-16T16:03:55+02:00</time>
      </trkpt>
      <trkpt lat="47.763" lon="6.03384">
        <ele>217.60059</ele>
        <time>2026-05-16T16:03:56+02:00</time>
      </trkpt>
      <trkpt lat="47.76302" lon="6.03393">
        <ele>217.5</ele>
        <time>2026-05-16T16:03:57+02:00</time>
      </trkpt>
      <trkpt lat="47.76302" lon="6.03398">
        <ele>217.5</ele>
        <time>2026-05-16T16:03:58+02:00</time>
      </trkpt>
      <trkpt lat="47.76305" lon="6.03411">
        <ele>217.40039</ele>
        <time>2026-05-16T16:03:59+02:00</time>
      </trkpt>
      <trkpt lat="47.76306" lon="6.0342">
        <ele>217.2998</ele>
        <time>2026-05-16T16:04:00+02:00</time>
      </trkpt>
      <trkpt lat="47.76307" lon="6.03428">
        <ele>217.2998</ele>
        <time>2026-05-16T16:04:01+02:00</time>
      </trkpt>
      <trkpt lat="47.76308" lon="6.03433">
        <ele>217.2998</ele>
        <time>2026-05-16T16:04:02+02:00</time>
      </trkpt>
      <trkpt lat="47.7631" lon="6.03445">
        <ele>217.2002</ele>
        <time>2026-05-16T16:04:03+02:00</time>
      </trkpt>
      <trkpt lat="47.76312" lon="6.03454">
        <ele>217.2002</ele>
        <time>2026-05-16T16:04:04+02:00</time>
      </trkpt>
      <trkpt lat="47.76314" lon="6.03462">
        <ele>217.2002</ele>
        <time>2026-05-16T16:04:05+02:00</time>
      </trkpt>
      <trkpt lat="47.76315" lon="6.0347">
        <ele>217.2002</ele>
        <time>2026-05-16T16:04:06+02:00</time>
      </trkpt>
      <trkpt lat="47.76316" lon="6.03479">
        <ele>217.2002</ele>
        <time>2026-05-16T16:04:07+02:00</time>
      </trkpt>
      <trkpt lat="47.76318" lon="6.03492">
        <ele>217.2002</ele>
        <time>2026-05-16T16:04:08+02:00</time>
      </trkpt>
      <trkpt lat="47.76318" lon="6.03492">
        <ele>217.2002</ele>
        <time>2026-05-16T16:04:09+02:00</time>
      </trkpt>
      <trkpt lat="47.7632" lon="6.03505">
        <ele>217.10059</ele>
        <time>2026-05-16T16:04:10+02:00</time>
      </trkpt>
      <trkpt lat="47.76322" lon="6.03514">
        <ele>217.10059</ele>
        <time>2026-05-16T16:04:11+02:00</time>
      </trkpt>
      <trkpt lat="47.76323" lon="6.03522">
        <ele>217.10059</ele>
        <time>2026-05-16T16:04:12+02:00</time>
      </trkpt>
      <trkpt lat="47.76325" lon="6.03531">
        <ele>217.10059</ele>
        <time>2026-05-16T16:04:13+02:00</time>
      </trkpt>
      <trkpt lat="47.76326" lon="6.0354">
        <ele>217</ele>
        <time>2026-05-16T16:04:14+02:00</time>
      </trkpt>
      <trkpt lat="47.76328" lon="6.03553">
        <ele>216.7998</ele>
        <time>2026-05-16T16:04:15+02:00</time>
      </trkpt>
      <trkpt lat="47.76328" lon="6.03553">
        <ele>216.7998</ele>
        <time>2026-05-16T16:04:16+02:00</time>
      </trkpt>
      <trkpt lat="47.7633" lon="6.03566">
        <ele>216.7002</ele>
        <time>2026-05-16T16:04:17+02:00</time>
      </trkpt>
      <trkpt lat="47.76332" lon="6.03574">
        <ele>216.60059</ele>
        <time>2026-05-16T16:04:18+02:00</time>
      </trkpt>
      <trkpt lat="47.76333" lon="6.03583">
        <ele>216.5</ele>
        <time>2026-05-16T16:04:19+02:00</time>
      </trkpt>
      <trkpt lat="47.76335" lon="6.03591">
        <ele>216.40039</ele>
        <time>2026-05-16T16:04:20+02:00</time>
      </trkpt>
      <trkpt lat="47.76336" lon="6.03599">
        <ele>216.2998</ele>
        <time>2026-05-16T16:04:21+02:00</time>
      </trkpt>
      <trkpt lat="47.76337" lon="6.03606">
        <ele>216.2998</ele>
        <time>2026-05-16T16:04:22+02:00</time>
      </trkpt>
      <trkpt lat="47.76338" lon="6.03612">
        <ele>216.2998</ele>
        <time>2026-05-16T16:04:23+02:00</time>
      </trkpt>
      <trkpt lat="47.76339" lon="6.03616">
        <ele>216.2002</ele>
        <time>2026-05-16T16:04:24+02:00</time>
      </trkpt>
      <trkpt lat="47.7634" lon="6.03621">
        <ele>216.2002</ele>
        <time>2026-05-16T16:04:25+02:00</time>
      </trkpt>
      <trkpt lat="47.7634" lon="6.03625">
        <ele>216</ele>
        <time>2026-05-16T16:04:26+02:00</time>
      </trkpt>
      <trkpt lat="47.76341" lon="6.03631">
        <ele>215.90039</ele>
        <time>2026-05-16T16:04:27+02:00</time>
      </trkpt>
      <trkpt lat="47.76343" lon="6.03636">
        <ele>215.90039</ele>
        <time>2026-05-16T16:04:28+02:00</time>
      </trkpt>
      <trkpt lat="47.76344" lon="6.03642">
        <ele>215.7998</ele>
        <time>2026-05-16T16:04:29+02:00</time>
      </trkpt>
      <trkpt lat="47.76346" lon="6.03649">
        <ele>215.60059</ele>
        <time>2026-05-16T16:04:30+02:00</time>
      </trkpt>
      <trkpt lat="47.76348" lon="6.03655">
        <ele>215.60059</ele>
        <time>2026-05-16T16:04:31+02:00</time>
      </trkpt>
      <trkpt lat="47.7635" lon="6.03661">
        <ele>215.5</ele>
        <time>2026-05-16T16:04:32+02:00</time>
      </trkpt>
      <trkpt lat="47.76352" lon="6.03667">
        <ele>215.40039</ele>
        <time>2026-05-16T16:04:33+02:00</time>
      </trkpt>
      <trkpt lat="47.76355" lon="6.03672">
        <ele>215.40039</ele>
        <time>2026-05-16T16:04:34+02:00</time>
      </trkpt>
      <trkpt lat="47.76356" lon="6.03678">
        <ele>215.2998</ele>
        <time>2026-05-16T16:04:35+02:00</time>
      </trkpt>
      <trkpt lat="47.76358" lon="6.03682">
        <ele>215.2002</ele>
        <time>2026-05-16T16:04:36+02:00</time>
      </trkpt>
      <trkpt lat="47.7636" lon="6.03687">
        <ele>215.2002</ele>
        <time>2026-05-16T16:04:37+02:00</time>
      </trkpt>
      <trkpt lat="47.76362" lon="6.03692">
        <ele>215.2002</ele>
        <time>2026-05-16T16:04:38+02:00</time>
      </trkpt>
      <trkpt lat="47.76364" lon="6.03698">
        <ele>215.2002</ele>
        <time>2026-05-16T16:04:39+02:00</time>
      </trkpt>
      <trkpt lat="47.76366" lon="6.03703">
        <ele>215.10059</ele>
        <time>2026-05-16T16:04:40+02:00</time>
      </trkpt>
      <trkpt lat="47.76368" lon="6.03708">
        <ele>215</ele>
        <time>2026-05-16T16:04:41+02:00</time>
      </trkpt>
      <trkpt lat="47.76371" lon="6.03714">
        <ele>215</ele>
        <time>2026-05-16T16:04:42+02:00</time>
      </trkpt>
      <trkpt lat="47.76373" lon="6.03719">
        <ele>215</ele>
        <time>2026-05-16T16:04:43+02:00</time>
      </trkpt>
      <trkpt lat="47.76375" lon="6.03725">
        <ele>215</ele>
        <time>2026-05-16T16:04:44+02:00</time>
      </trkpt>
      <trkpt lat="47.76378" lon="6.0373">
        <ele>215</ele>
        <time>2026-05-16T16:04:45+02:00</time>
      </trkpt>
      <trkpt lat="47.76381" lon="6.03736">
        <ele>215</ele>
        <time>2026-05-16T16:04:46+02:00</time>
      </trkpt>
      <trkpt lat="47.76383" lon="6.03742">
        <ele>215</ele>
        <time>2026-05-16T16:04:47+02:00</time>
      </trkpt>
      <trkpt lat="47.76386" lon="6.03748">
        <ele>215</ele>
        <time>2026-05-16T16:04:48+02:00</time>
      </trkpt>
      <trkpt lat="47.76389" lon="6.03754">
        <ele>215</ele>
        <time>2026-05-16T16:04:49+02:00</time>
      </trkpt>
      <trkpt lat="47.76393" lon="6.03762">
        <ele>215</ele>
        <time>2026-05-16T16:04:50+02:00</time>
      </trkpt>
      <trkpt lat="47.76393" lon="6.03762">
        <ele>215</ele>
        <time>2026-05-16T16:04:51+02:00</time>
      </trkpt>
      <trkpt lat="47.76398" lon="6.0377">
        <ele>214.90039</ele>
        <time>2026-05-16T16:04:52+02:00</time>
      </trkpt>
      <trkpt lat="47.76401" lon="6.03775">
        <ele>214.90039</ele>
        <time>2026-05-16T16:04:53+02:00</time>
      </trkpt>
      <trkpt lat="47.76404" lon="6.03781">
        <ele>214.90039</ele>
        <time>2026-05-16T16:04:54+02:00</time>
      </trkpt>
      <trkpt lat="47.76407" lon="6.03786">
        <ele>214.90039</ele>
        <time>2026-05-16T16:04:55+02:00</time>
      </trkpt>
      <trkpt lat="47.7641" lon="6.03791">
        <ele>214.90039</ele>
        <time>2026-05-16T16:04:56+02:00</time>
      </trkpt>
      <trkpt lat="47.76413" lon="6.03796">
        <ele>215</ele>
        <time>2026-05-16T16:04:57+02:00</time>
      </trkpt>
      <trkpt lat="47.76417" lon="6.038">
        <ele>215</ele>
        <time>2026-05-16T16:04:58+02:00</time>
      </trkpt>
      <trkpt lat="47.7642" lon="6.03805">
        <ele>215.10059</ele>
        <time>2026-05-16T16:04:59+02:00</time>
      </trkpt>
      <trkpt lat="47.76423" lon="6.0381">
        <ele>215.10059</ele>
        <time>2026-05-16T16:05:00+02:00</time>
      </trkpt>
      <trkpt lat="47.76427" lon="6.03816">
        <ele>215.2998</ele>
        <time>2026-05-16T16:05:01+02:00</time>
      </trkpt>
      <trkpt lat="47.76428" lon="6.03819">
        <ele>215.2998</ele>
        <time>2026-05-16T16:05:02+02:00</time>
      </trkpt>
      <trkpt lat="47.76431" lon="6.03823">
        <ele>215.2998</ele>
        <time>2026-05-16T16:05:03+02:00</time>
      </trkpt>
      <trkpt lat="47.76433" lon="6.03827">
        <ele>215.5</ele>
        <time>2026-05-16T16:05:04+02:00</time>
      </trkpt>
      <trkpt lat="47.76438" lon="6.03834">
        <ele>215.7002</ele>
        <time>2026-05-16T16:05:05+02:00</time>
      </trkpt>
      <trkpt lat="47.76439" lon="6.03836">
        <ele>215.7002</ele>
        <time>2026-05-16T16:05:06+02:00</time>
      </trkpt>
      <trkpt lat="47.76441" lon="6.0384">
        <ele>215.7998</ele>
        <time>2026-05-16T16:05:07+02:00</time>
      </trkpt>
      <trkpt lat="47.76443" lon="6.03844">
        <ele>216</ele>
        <time>2026-05-16T16:05:08+02:00</time>
      </trkpt>
      <trkpt lat="47.76446" lon="6.03848">
        <ele>216</ele>
        <time>2026-05-16T16:05:09+02:00</time>
      </trkpt>
      <trkpt lat="47.76449" lon="6.03851">
        <ele>216.2998</ele>
        <time>2026-05-16T16:05:10+02:00</time>
      </trkpt>
      <trkpt lat="47.7645" lon="6.03855">
        <ele>216.2998</ele>
        <time>2026-05-16T16:05:11+02:00</time>
      </trkpt>
      <trkpt lat="47.76452" lon="6.0386">
        <ele>216.2998</ele>
        <time>2026-05-16T16:05:12+02:00</time>
      </trkpt>
      <trkpt lat="47.76454" lon="6.03863">
        <ele>216.60059</ele>
        <time>2026-05-16T16:05:13+02:00</time>
      </trkpt>
      <trkpt lat="47.76456" lon="6.03866">
        <ele>216.60059</ele>
        <time>2026-05-16T16:05:14+02:00</time>
      </trkpt>
      <trkpt lat="47.76459" lon="6.0387">
        <ele>216.60059</ele>
        <time>2026-05-16T16:05:15+02:00</time>
      </trkpt>
      <trkpt lat="47.76462" lon="6.03873">
        <ele>216.90039</ele>
        <time>2026-05-16T16:05:16+02:00</time>
      </trkpt>
      <trkpt lat="47.76465" lon="6.03877">
        <ele>216.90039</ele>
        <time>2026-05-16T16:05:17+02:00</time>
      </trkpt>
      <trkpt lat="47.76468" lon="6.03881">
        <ele>217.2002</ele>
        <time>2026-05-16T16:05:18+02:00</time>
      </trkpt>
      <trkpt lat="47.76472" lon="6.03886">
        <ele>217.5</ele>
        <time>2026-05-16T16:05:19+02:00</time>
      </trkpt>
      <trkpt lat="47.76475" lon="6.03891">
        <ele>217.60059</ele>
        <time>2026-05-16T16:05:20+02:00</time>
      </trkpt>
      <trkpt lat="47.76478" lon="6.03896">
        <ele>217.90039</ele>
        <time>2026-05-16T16:05:21+02:00</time>
      </trkpt>
      <trkpt lat="47.76482" lon="6.03902">
        <ele>218</ele>
        <time>2026-05-16T16:05:22+02:00</time>
      </trkpt>
      <trkpt lat="47.76486" lon="6.03908">
        <ele>218.2998</ele>
        <time>2026-05-16T16:05:23+02:00</time>
      </trkpt>
      <trkpt lat="47.76489" lon="6.03914">
        <ele>218.7002</ele>
        <time>2026-05-16T16:05:24+02:00</time>
      </trkpt>
      <trkpt lat="47.76493" lon="6.03919">
        <ele>218.7002</ele>
        <time>2026-05-16T16:05:25+02:00</time>
      </trkpt>
      <trkpt lat="47.76497" lon="6.03925">
        <ele>219.10059</ele>
        <time>2026-05-16T16:05:26+02:00</time>
      </trkpt>
      <trkpt lat="47.765" lon="6.03931">
        <ele>218.90039</ele>
        <time>2026-05-16T16:05:27+02:00</time>
      </trkpt>
      <trkpt lat="47.76502" lon="6.03934">
        <ele>219.40039</ele>
        <time>2026-05-16T16:05:28+02:00</time>
      </trkpt>
      <trkpt lat="47.76508" lon="6.03943">
        <ele>219.7002</ele>
        <time>2026-05-16T16:05:29+02:00</time>
      </trkpt>
      <trkpt lat="47.76513" lon="6.03949">
        <ele>220</ele>
        <time>2026-05-16T16:05:30+02:00</time>
      </trkpt>
      <trkpt lat="47.76519" lon="6.03958">
        <ele>220.2998</ele>
        <time>2026-05-16T16:05:31+02:00</time>
      </trkpt>
      <trkpt lat="47.76521" lon="6.03961">
        <ele>220.2998</ele>
        <time>2026-05-16T16:05:32+02:00</time>
      </trkpt>
      <trkpt lat="47.76525" lon="6.03968">
        <ele>220.60059</ele>
        <time>2026-05-16T16:05:33+02:00</time>
      </trkpt>
      <trkpt lat="47.76529" lon="6.03974">
        <ele>220.2998</ele>
        <time>2026-05-16T16:05:34+02:00</time>
      </trkpt>
      <trkpt lat="47.76536" lon="6.03983">
        <ele>221.2002</ele>
        <time>2026-05-16T16:05:35+02:00</time>
      </trkpt>
      <trkpt lat="47.76536" lon="6.03983">
        <ele>221.2002</ele>
        <time>2026-05-16T16:05:36+02:00</time>
      </trkpt>
      <trkpt lat="47.76541" lon="6.03991">
        <ele>221.5</ele>
        <time>2026-05-16T16:05:37+02:00</time>
      </trkpt>
      <trkpt lat="47.76544" lon="6.03998">
        <ele>221.5</ele>
        <time>2026-05-16T16:05:38+02:00</time>
      </trkpt>
      <trkpt lat="47.76548" lon="6.04004">
        <ele>221.90039</ele>
        <time>2026-05-16T16:05:39+02:00</time>
      </trkpt>
      <trkpt lat="47.76551" lon="6.0401">
        <ele>221.7002</ele>
        <time>2026-05-16T16:05:40+02:00</time>
      </trkpt>
      <trkpt lat="47.76555" lon="6.04017">
        <ele>222.10059</ele>
        <time>2026-05-16T16:05:41+02:00</time>
      </trkpt>
      <trkpt lat="47.76558" lon="6.04023">
        <ele>222.10059</ele>
        <time>2026-05-16T16:05:42+02:00</time>
      </trkpt>
      <trkpt lat="47.76562" lon="6.0403">
        <ele>222.5</ele>
        <time>2026-05-16T16:05:43+02:00</time>
      </trkpt>
      <trkpt lat="47.76565" lon="6.04036">
        <ele>223</ele>
        <time>2026-05-16T16:05:44+02:00</time>
      </trkpt>
      <trkpt lat="47.76568" lon="6.04043">
        <ele>222.90039</ele>
        <time>2026-05-16T16:05:45+02:00</time>
      </trkpt>
      <trkpt lat="47.7657" lon="6.0405">
        <ele>223.60059</ele>
        <time>2026-05-16T16:05:46+02:00</time>
      </trkpt>
      <trkpt lat="47.76571" lon="6.04054">
        <ele>223.5</ele>
        <time>2026-05-16T16:05:47+02:00</time>
      </trkpt>
      <trkpt lat="47.76574" lon="6.04064">
        <ele>223.40039</ele>
        <time>2026-05-16T16:05:48+02:00</time>
      </trkpt>
      <trkpt lat="47.76576" lon="6.04072">
        <ele>223.90039</ele>
        <time>2026-05-16T16:05:49+02:00</time>
      </trkpt>
      <trkpt lat="47.76578" lon="6.04079">
        <ele>223.7998</ele>
        <time>2026-05-16T16:05:50+02:00</time>
      </trkpt>
      <trkpt lat="47.7658" lon="6.04086">
        <ele>223.7002</ele>
        <time>2026-05-16T16:05:51+02:00</time>
      </trkpt>
      <trkpt lat="47.76582" lon="6.04094">
        <ele>224.2002</ele>
        <time>2026-05-16T16:05:52+02:00</time>
      </trkpt>
      <trkpt lat="47.76584" lon="6.04105">
        <ele>224.2002</ele>
        <time>2026-05-16T16:05:53+02:00</time>
      </trkpt>
      <trkpt lat="47.76584" lon="6.04105">
        <ele>224.2002</ele>
        <time>2026-05-16T16:05:54+02:00</time>
      </trkpt>
      <trkpt lat="47.76587" lon="6.04117">
        <ele>224.60059</ele>
        <time>2026-05-16T16:05:55+02:00</time>
      </trkpt>
      <trkpt lat="47.76589" lon="6.04125">
        <ele>224.5</ele>
        <time>2026-05-16T16:05:56+02:00</time>
      </trkpt>
      <trkpt lat="47.76592" lon="6.04137">
        <ele>224.40039</ele>
        <time>2026-05-16T16:05:57+02:00</time>
      </trkpt>
      <trkpt lat="47.76592" lon="6.04141">
        <ele>224.40039</ele>
        <time>2026-05-16T16:05:58+02:00</time>
      </trkpt>
      <trkpt lat="47.76594" lon="6.0415">
        <ele>224.90039</ele>
        <time>2026-05-16T16:05:59+02:00</time>
      </trkpt>
      <trkpt lat="47.76596" lon="6.04158">
        <ele>224.90039</ele>
        <time>2026-05-16T16:06:00+02:00</time>
      </trkpt>
      <trkpt lat="47.76598" lon="6.04166">
        <ele>224.90039</ele>
        <time>2026-05-16T16:06:01+02:00</time>
      </trkpt>
      <trkpt lat="47.766" lon="6.04175">
        <ele>225.40039</ele>
        <time>2026-05-16T16:06:02+02:00</time>
      </trkpt>
      <trkpt lat="47.76602" lon="6.04183">
        <ele>225.40039</ele>
        <time>2026-05-16T16:06:03+02:00</time>
      </trkpt>
      <trkpt lat="47.76604" lon="6.04191">
        <ele>225.5</ele>
        <time>2026-05-16T16:06:04+02:00</time>
      </trkpt>
      <trkpt lat="47.76606" lon="6.042">
        <ele>225.7998</ele>
        <time>2026-05-16T16:06:05+02:00</time>
      </trkpt>
      <trkpt lat="47.76608" lon="6.04208">
        <ele>225.7998</ele>
        <time>2026-05-16T16:06:06+02:00</time>
      </trkpt>
      <trkpt lat="47.7661" lon="6.0422">
        <ele>226</ele>
        <time>2026-05-16T16:06:07+02:00</time>
      </trkpt>
      <trkpt lat="47.76611" lon="6.04225">
        <ele>226</ele>
        <time>2026-05-16T16:06:08+02:00</time>
      </trkpt>
      <trkpt lat="47.76613" lon="6.04233">
        <ele>226</ele>
        <time>2026-05-16T16:06:09+02:00</time>
      </trkpt>
      <trkpt lat="47.76615" lon="6.04241">
        <ele>226.10059</ele>
        <time>2026-05-16T16:06:10+02:00</time>
      </trkpt>
      <trkpt lat="47.76617" lon="6.0425">
        <ele>226</ele>
        <time>2026-05-16T16:06:11+02:00</time>
      </trkpt>
      <trkpt lat="47.76619" lon="6.04258">
        <ele>226.10059</ele>
        <time>2026-05-16T16:06:12+02:00</time>
      </trkpt>
      <trkpt lat="47.7662" lon="6.04266">
        <ele>226.10059</ele>
        <time>2026-05-16T16:06:13+02:00</time>
      </trkpt>
      <trkpt lat="47.76622" lon="6.04275">
        <ele>226</ele>
        <time>2026-05-16T16:06:14+02:00</time>
      </trkpt>
      <trkpt lat="47.76624" lon="6.04283">
        <ele>226</ele>
        <time>2026-05-16T16:06:15+02:00</time>
      </trkpt>
      <trkpt lat="47.76626" lon="6.04292">
        <ele>226</ele>
        <time>2026-05-16T16:06:16+02:00</time>
      </trkpt>
      <trkpt lat="47.76628" lon="6.04301">
        <ele>225.7002</ele>
        <time>2026-05-16T16:06:17+02:00</time>
      </trkpt>
      <trkpt lat="47.76631" lon="6.04313">
        <ele>225.60059</ele>
        <time>2026-05-16T16:06:18+02:00</time>
      </trkpt>
      <trkpt lat="47.76631" lon="6.04313">
        <ele>225.60059</ele>
        <time>2026-05-16T16:06:19+02:00</time>
      </trkpt>
      <trkpt lat="47.76634" lon="6.04325">
        <ele>225.2998</ele>
        <time>2026-05-16T16:06:20+02:00</time>
      </trkpt>
      <trkpt lat="47.76635" lon="6.04334">
        <ele>224.90039</ele>
        <time>2026-05-16T16:06:21+02:00</time>
      </trkpt>
      <trkpt lat="47.76636" lon="6.04338">
        <ele>224.90039</ele>
        <time>2026-05-16T16:06:22+02:00</time>
      </trkpt>
      <trkpt lat="47.7664" lon="6.0435">
        <ele>224.60059</ele>
        <time>2026-05-16T16:06:23+02:00</time>
      </trkpt>
      <trkpt lat="47.76642" lon="6.04358">
        <ele>224.40039</ele>
        <time>2026-05-16T16:06:24+02:00</time>
      </trkpt>
      <trkpt lat="47.76643" lon="6.04365">
        <ele>224.10059</ele>
        <time>2026-05-16T16:06:25+02:00</time>
      </trkpt>
      <trkpt lat="47.76644" lon="6.04369">
        <ele>223.90039</ele>
        <time>2026-05-16T16:06:26+02:00</time>
      </trkpt>
      <trkpt lat="47.76644" lon="6.0437">
        <ele>223.90039</ele>
        <time>2026-05-16T16:06:27+02:00</time>
      </trkpt>
      <trkpt lat="47.76644" lon="6.0437">
        <ele>223.90039</ele>
        <time>2026-05-16T16:06:28+02:00</time>
      </trkpt>
      <trkpt lat="47.76644" lon="6.0437">
        <ele>223.90039</ele>
        <time>2026-05-16T16:06:29+02:00</time>
      </trkpt>
      <trkpt lat="47.76644" lon="6.0437">
        <ele>223.90039</ele>
        <time>2026-05-16T16:06:30+02:00</time>
      </trkpt>
      <trkpt lat="47.76644" lon="6.0437">
        <ele>223.90039</ele>
        <time>2026-05-16T16:06:31+02:00</time>
      </trkpt>
      <trkpt lat="47.76644" lon="6.04356">
        <ele>224.40039</ele>
        <time>2026-05-16T16:07:11+02:00</time>
      </trkpt>
      <trkpt lat="47.76644" lon="6.04352">
        <ele>224.40039</ele>
        <time>2026-05-16T16:07:12+02:00</time>
      </trkpt>
      <trkpt lat="47.76642" lon="6.04347">
        <ele>224.60059</ele>
        <time>2026-05-16T16:07:13+02:00</time>
      </trkpt>
      <trkpt lat="47.76641" lon="6.04342">
        <ele>224.7998</ele>
        <time>2026-05-16T16:07:14+02:00</time>
      </trkpt>
      <trkpt lat="47.7664" lon="6.04337">
        <ele>224.7998</ele>
        <time>2026-05-16T16:07:15+02:00</time>
      </trkpt>
      <trkpt lat="47.76639" lon="6.04332">
        <ele>225</ele>
        <time>2026-05-16T16:07:16+02:00</time>
      </trkpt>
      <trkpt lat="47.76638" lon="6.04326">
        <ele>225.10059</ele>
        <time>2026-05-16T16:07:17+02:00</time>
      </trkpt>
      <trkpt lat="47.76636" lon="6.0432">
        <ele>225.2998</ele>
        <time>2026-05-16T16:07:18+02:00</time>
      </trkpt>
      <trkpt lat="47.76635" lon="6.04314">
        <ele>225.40039</ele>
        <time>2026-05-16T16:07:19+02:00</time>
      </trkpt>
      <trkpt lat="47.76634" lon="6.04308">
        <ele>225.60059</ele>
        <time>2026-05-16T16:07:20+02:00</time>
      </trkpt>
      <trkpt lat="47.76632" lon="6.04302">
        <ele>225.7002</ele>
        <time>2026-05-16T16:07:21+02:00</time>
      </trkpt>
      <trkpt lat="47.76631" lon="6.04295">
        <ele>225.7998</ele>
        <time>2026-05-16T16:07:22+02:00</time>
      </trkpt>
      <trkpt lat="47.76629" lon="6.04289">
        <ele>225.7998</ele>
        <time>2026-05-16T16:07:23+02:00</time>
      </trkpt>
      <trkpt lat="47.76627" lon="6.04278">
        <ele>226</ele>
        <time>2026-05-16T16:07:24+02:00</time>
      </trkpt>
      <trkpt lat="47.76627" lon="6.04278">
        <ele>226</ele>
        <time>2026-05-16T16:07:25+02:00</time>
      </trkpt>
      <trkpt lat="47.76625" lon="6.04267">
        <ele>226</ele>
        <time>2026-05-16T16:07:26+02:00</time>
      </trkpt>
      <trkpt lat="47.76624" lon="6.04259">
        <ele>226</ele>
        <time>2026-05-16T16:07:27+02:00</time>
      </trkpt>
      <trkpt lat="47.76622" lon="6.04252">
        <ele>226</ele>
        <time>2026-05-16T16:07:28+02:00</time>
      </trkpt>
      <trkpt lat="47.7662" lon="6.04245">
        <ele>226</ele>
        <time>2026-05-16T16:07:29+02:00</time>
      </trkpt>
      <trkpt lat="47.76618" lon="6.04237">
        <ele>226</ele>
        <time>2026-05-16T16:07:30+02:00</time>
      </trkpt>
      <trkpt lat="47.76616" lon="6.04229">
        <ele>226</ele>
        <time>2026-05-16T16:07:31+02:00</time>
      </trkpt>
      <trkpt lat="47.76615" lon="6.04222">
        <ele>226</ele>
        <time>2026-05-16T16:07:32+02:00</time>
      </trkpt>
      <trkpt lat="47.76613" lon="6.04214">
        <ele>226</ele>
        <time>2026-05-16T16:07:33+02:00</time>
      </trkpt>
      <trkpt lat="47.76611" lon="6.04206">
        <ele>225.90039</ele>
        <time>2026-05-16T16:07:34+02:00</time>
      </trkpt>
      <trkpt lat="47.7661" lon="6.04198">
        <ele>225.90039</ele>
        <time>2026-05-16T16:07:35+02:00</time>
      </trkpt>
      <trkpt lat="47.76608" lon="6.0419">
        <ele>225.7002</ele>
        <time>2026-05-16T16:07:36+02:00</time>
      </trkpt>
      <trkpt lat="47.76606" lon="6.04182">
        <ele>225.7002</ele>
        <time>2026-05-16T16:07:37+02:00</time>
      </trkpt>
      <trkpt lat="47.76605" lon="6.04174">
        <ele>225.60059</ele>
        <time>2026-05-16T16:07:38+02:00</time>
      </trkpt>
      <trkpt lat="47.76603" lon="6.04166">
        <ele>225.2998</ele>
        <time>2026-05-16T16:07:39+02:00</time>
      </trkpt>
      <trkpt lat="47.76601" lon="6.04158">
        <ele>225.2998</ele>
        <time>2026-05-16T16:07:40+02:00</time>
      </trkpt>
      <trkpt lat="47.76599" lon="6.04149">
        <ele>225.2998</ele>
        <time>2026-05-16T16:07:41+02:00</time>
      </trkpt>
      <trkpt lat="47.76598" lon="6.04141">
        <ele>224.90039</ele>
        <time>2026-05-16T16:07:42+02:00</time>
      </trkpt>
      <trkpt lat="47.76596" lon="6.04133">
        <ele>225</ele>
        <time>2026-05-16T16:07:43+02:00</time>
      </trkpt>
      <trkpt lat="47.76594" lon="6.04125">
        <ele>225.10059</ele>
        <time>2026-05-16T16:07:44+02:00</time>
      </trkpt>
      <trkpt lat="47.76592" lon="6.04117">
        <ele>224.60059</ele>
        <time>2026-05-16T16:07:45+02:00</time>
      </trkpt>
      <trkpt lat="47.7659" lon="6.0411">
        <ele>224.7002</ele>
        <time>2026-05-16T16:07:46+02:00</time>
      </trkpt>
      <trkpt lat="47.76587" lon="6.04102">
        <ele>224.7998</ele>
        <time>2026-05-16T16:07:47+02:00</time>
      </trkpt>
      <trkpt lat="47.76585" lon="6.04094">
        <ele>224.2002</ele>
        <time>2026-05-16T16:07:48+02:00</time>
      </trkpt>
      <trkpt lat="47.76583" lon="6.04086">
        <ele>224.2998</ele>
        <time>2026-05-16T16:07:49+02:00</time>
      </trkpt>
      <trkpt lat="47.76581" lon="6.04078">
        <ele>223.7998</ele>
        <time>2026-05-16T16:07:50+02:00</time>
      </trkpt>
      <trkpt lat="47.76579" lon="6.0407">
        <ele>223.90039</ele>
        <time>2026-05-16T16:07:51+02:00</time>
      </trkpt>
      <trkpt lat="47.76576" lon="6.04061">
        <ele>224</ele>
        <time>2026-05-16T16:07:52+02:00</time>
      </trkpt>
      <trkpt lat="47.76574" lon="6.04053">
        <ele>223.5</ele>
        <time>2026-05-16T16:07:53+02:00</time>
      </trkpt>
      <trkpt lat="47.76571" lon="6.04045">
        <ele>223.60059</ele>
        <time>2026-05-16T16:07:54+02:00</time>
      </trkpt>
      <trkpt lat="47.76568" lon="6.04037">
        <ele>223</ele>
        <time>2026-05-16T16:07:55+02:00</time>
      </trkpt>
      <trkpt lat="47.76565" lon="6.0403">
        <ele>223.2002</ele>
        <time>2026-05-16T16:07:56+02:00</time>
      </trkpt>
      <trkpt lat="47.76561" lon="6.04023">
        <ele>222.7002</ele>
        <time>2026-05-16T16:07:57+02:00</time>
      </trkpt>
      <trkpt lat="47.76558" lon="6.04015">
        <ele>222.2002</ele>
        <time>2026-05-16T16:07:58+02:00</time>
      </trkpt>
      <trkpt lat="47.76552" lon="6.04005">
        <ele>221.90039</ele>
        <time>2026-05-16T16:07:59+02:00</time>
      </trkpt>
      <trkpt lat="47.76552" lon="6.04005">
        <ele>221.90039</ele>
        <time>2026-05-16T16:08:00+02:00</time>
      </trkpt>
      <trkpt lat="47.76545" lon="6.03994">
        <ele>221.5</ele>
        <time>2026-05-16T16:08:01+02:00</time>
      </trkpt>
      <trkpt lat="47.76541" lon="6.03988">
        <ele>221.7998</ele>
        <time>2026-05-16T16:08:02+02:00</time>
      </trkpt>
      <trkpt lat="47.76537" lon="6.03981">
        <ele>221.40039</ele>
        <time>2026-05-16T16:08:03+02:00</time>
      </trkpt>
      <trkpt lat="47.76535" lon="6.03977">
        <ele>221.40039</ele>
        <time>2026-05-16T16:08:04+02:00</time>
      </trkpt>
      <trkpt lat="47.76528" lon="6.03967">
        <ele>220.60059</ele>
        <time>2026-05-16T16:08:05+02:00</time>
      </trkpt>
      <trkpt lat="47.76524" lon="6.0396">
        <ele>220.7998</ele>
        <time>2026-05-16T16:08:06+02:00</time>
      </trkpt>
      <trkpt lat="47.7652" lon="6.03953">
        <ele>220.5</ele>
        <time>2026-05-16T16:08:07+02:00</time>
      </trkpt>
      <trkpt lat="47.76516" lon="6.03947">
        <ele>220.2998</ele>
        <time>2026-05-16T16:08:08+02:00</time>
      </trkpt>
      <trkpt lat="47.76512" lon="6.0394">
        <ele>220.2998</ele>
        <time>2026-05-16T16:08:09+02:00</time>
      </trkpt>
      <trkpt lat="47.76507" lon="6.03933">
        <ele>220</ele>
        <time>2026-05-16T16:08:10+02:00</time>
      </trkpt>
      <trkpt lat="47.76503" lon="6.03927">
        <ele>219.60059</ele>
        <time>2026-05-16T16:08:11+02:00</time>
      </trkpt>
      <trkpt lat="47.76499" lon="6.0392">
        <ele>219.2002</ele>
        <time>2026-05-16T16:08:12+02:00</time>
      </trkpt>
      <trkpt lat="47.76494" lon="6.03914">
        <ele>218.7002</ele>
        <time>2026-05-16T16:08:13+02:00</time>
      </trkpt>
      <trkpt lat="47.7649" lon="6.03908">
        <ele>218.7998</ele>
        <time>2026-05-16T16:08:14+02:00</time>
      </trkpt>
      <trkpt lat="47.76486" lon="6.03901">
        <ele>218.40039</ele>
        <time>2026-05-16T16:08:15+02:00</time>
      </trkpt>
      <trkpt lat="47.76482" lon="6.03895">
        <ele>217.90039</ele>
        <time>2026-05-16T16:08:16+02:00</time>
      </trkpt>
      <trkpt lat="47.76475" lon="6.03885">
        <ele>217.5</ele>
        <time>2026-05-16T16:08:17+02:00</time>
      </trkpt>
      <trkpt lat="47.76475" lon="6.03885">
        <ele>217.5</ele>
        <time>2026-05-16T16:08:18+02:00</time>
      </trkpt>
      <trkpt lat="47.76469" lon="6.03875">
        <ele>217.10059</ele>
        <time>2026-05-16T16:08:19+02:00</time>
      </trkpt>
      <trkpt lat="47.76465" lon="6.03869">
        <ele>216.7998</ele>
        <time>2026-05-16T16:08:20+02:00</time>
      </trkpt>
      <trkpt lat="47.76461" lon="6.03863">
        <ele>216.7998</ele>
        <time>2026-05-16T16:08:21+02:00</time>
      </trkpt>
      <trkpt lat="47.76457" lon="6.03858">
        <ele>216.60059</ele>
        <time>2026-05-16T16:08:22+02:00</time>
      </trkpt>
      <trkpt lat="47.76453" lon="6.03852">
        <ele>216.2998</ele>
        <time>2026-05-16T16:08:23+02:00</time>
      </trkpt>
      <trkpt lat="47.76448" lon="6.03845">
        <ele>216</ele>
        <time>2026-05-16T16:08:24+02:00</time>
      </trkpt>
      <trkpt lat="47.76447" lon="6.03843">
        <ele>216</ele>
        <time>2026-05-16T16:08:25+02:00</time>
      </trkpt>
      <trkpt lat="47.76444" lon="6.03839">
        <ele>216</ele>
        <time>2026-05-16T16:08:26+02:00</time>
      </trkpt>
      <trkpt lat="47.76442" lon="6.03834">
        <ele>215.7002</ele>
        <time>2026-05-16T16:08:27+02:00</time>
      </trkpt>
      <trkpt lat="47.76438" lon="6.03828">
        <ele>215.7002</ele>
        <time>2026-05-16T16:08:28+02:00</time>
      </trkpt>
      <trkpt lat="47.76438" lon="6.03828">
        <ele>215.7002</ele>
        <time>2026-05-16T16:08:29+02:00</time>
      </trkpt>
      <trkpt lat="47.76434" lon="6.03822">
        <ele>215.5</ele>
        <time>2026-05-16T16:08:30+02:00</time>
      </trkpt>
      <trkpt lat="47.76431" lon="6.03819">
        <ele>215.2998</ele>
        <time>2026-05-16T16:08:31+02:00</time>
      </trkpt>
      <trkpt lat="47.76426" lon="6.03812">
        <ele>215.2998</ele>
        <time>2026-05-16T16:08:32+02:00</time>
      </trkpt>
      <trkpt lat="47.76426" lon="6.03812">
        <ele>215.2998</ele>
        <time>2026-05-16T16:08:33+02:00</time>
      </trkpt>
      <trkpt lat="47.76421" lon="6.03805">
        <ele>215.10059</ele>
        <time>2026-05-16T16:08:34+02:00</time>
      </trkpt>
      <trkpt lat="47.76418" lon="6.038">
        <ele>215</ele>
        <time>2026-05-16T16:08:35+02:00</time>
      </trkpt>
      <trkpt lat="47.76415" lon="6.03795">
        <ele>215</ele>
        <time>2026-05-16T16:08:36+02:00</time>
      </trkpt>
      <trkpt lat="47.76413" lon="6.03793">
        <ele>214.90039</ele>
        <time>2026-05-16T16:08:37+02:00</time>
      </trkpt>
      <trkpt lat="47.7641" lon="6.03785">
        <ele>214.90039</ele>
        <time>2026-05-16T16:08:38+02:00</time>
      </trkpt>
      <trkpt lat="47.76408" lon="6.03783">
        <ele>214.90039</ele>
        <time>2026-05-16T16:08:39+02:00</time>
      </trkpt>
      <trkpt lat="47.76405" lon="6.03784">
        <ele>214.90039</ele>
        <time>2026-05-16T16:08:40+02:00</time>
      </trkpt>
      <trkpt lat="47.76404" lon="6.03786">
        <ele>214.90039</ele>
        <time>2026-05-16T16:08:41+02:00</time>
      </trkpt>
      <trkpt lat="47.76405" lon="6.03791">
        <ele>214.90039</ele>
        <time>2026-05-16T16:08:42+02:00</time>
      </trkpt>
      <trkpt lat="47.76407" lon="6.03794">
        <ele>215</ele>
        <time>2026-05-16T16:08:43+02:00</time>
      </trkpt>
      <trkpt lat="47.76409" lon="6.03797">
        <ele>215</ele>
        <time>2026-05-16T16:08:44+02:00</time>
      </trkpt>
      <trkpt lat="47.7641" lon="6.038">
        <ele>215</ele>
        <time>2026-05-16T16:08:45+02:00</time>
      </trkpt>
      <trkpt lat="47.76411" lon="6.03801">
        <ele>215</ele>
        <time>2026-05-16T16:08:46+02:00</time>
      </trkpt>
      <trkpt lat="47.76412" lon="6.03801">
        <ele>215</ele>
        <time>2026-05-16T16:08:47+02:00</time>
      </trkpt>
      <trkpt lat="47.76412" lon="6.03801">
        <ele>215</ele>
        <time>2026-05-16T16:08:48+02:00</time>
      </trkpt>
      <trkpt lat="47.76412" lon="6.03801">
        <ele>215</ele>
        <time>2026-05-16T16:08:49+02:00</time>
      </trkpt>
      <trkpt lat="47.76412" lon="6.03801">
        <ele>215</ele>
        <time>2026-05-16T16:08:50+02:00</time>
      </trkpt>
      <trkpt lat="47.76406" lon="6.03779">
        <ele>214.90039</ele>
        <time>2026-05-16T16:09:18+02:00</time>
      </trkpt>
      <trkpt lat="47.76403" lon="6.03774">
        <ele>214.90039</ele>
        <time>2026-05-16T16:09:19+02:00</time>
      </trkpt>
      <trkpt lat="47.76401" lon="6.03769">
        <ele>214.90039</ele>
        <time>2026-05-16T16:09:20+02:00</time>
      </trkpt>
      <trkpt lat="47.76398" lon="6.03764">
        <ele>214.90039</ele>
        <time>2026-05-16T16:09:21+02:00</time>
      </trkpt>
      <trkpt lat="47.76395" lon="6.03758">
        <ele>215</ele>
        <time>2026-05-16T16:09:22+02:00</time>
      </trkpt>
      <trkpt lat="47.76392" lon="6.03752">
        <ele>215</ele>
        <time>2026-05-16T16:09:23+02:00</time>
      </trkpt>
      <trkpt lat="47.7639" lon="6.03745">
        <ele>215</ele>
        <time>2026-05-16T16:09:24+02:00</time>
      </trkpt>
      <trkpt lat="47.76387" lon="6.0374">
        <ele>215</ele>
        <time>2026-05-16T16:09:25+02:00</time>
      </trkpt>
      <trkpt lat="47.76383" lon="6.03731">
        <ele>215</ele>
        <time>2026-05-16T16:09:26+02:00</time>
      </trkpt>
      <trkpt lat="47.76381" lon="6.03728">
        <ele>215</ele>
        <time>2026-05-16T16:09:27+02:00</time>
      </trkpt>
      <trkpt lat="47.76378" lon="6.03722">
        <ele>215</ele>
        <time>2026-05-16T16:09:28+02:00</time>
      </trkpt>
      <trkpt lat="47.76375" lon="6.03716">
        <ele>215</ele>
        <time>2026-05-16T16:09:29+02:00</time>
      </trkpt>
      <trkpt lat="47.76373" lon="6.0371">
        <ele>215</ele>
        <time>2026-05-16T16:09:30+02:00</time>
      </trkpt>
      <trkpt lat="47.7637" lon="6.03704">
        <ele>215.10059</ele>
        <time>2026-05-16T16:09:31+02:00</time>
      </trkpt>
      <trkpt lat="47.76367" lon="6.03698">
        <ele>215.2002</ele>
        <time>2026-05-16T16:09:32+02:00</time>
      </trkpt>
      <trkpt lat="47.76364" lon="6.03691">
        <ele>215.2002</ele>
        <time>2026-05-16T16:09:33+02:00</time>
      </trkpt>
      <trkpt lat="47.76362" lon="6.03685">
        <ele>215.2998</ele>
        <time>2026-05-16T16:09:34+02:00</time>
      </trkpt>
      <trkpt lat="47.76359" lon="6.03678">
        <ele>215.2998</ele>
        <time>2026-05-16T16:09:35+02:00</time>
      </trkpt>
      <trkpt lat="47.76357" lon="6.03672">
        <ele>215.40039</ele>
        <time>2026-05-16T16:09:36+02:00</time>
      </trkpt>
      <trkpt lat="47.76355" lon="6.03665">
        <ele>215.40039</ele>
        <time>2026-05-16T16:09:37+02:00</time>
      </trkpt>
      <trkpt lat="47.76352" lon="6.03659">
        <ele>215.5</ele>
        <time>2026-05-16T16:09:38+02:00</time>
      </trkpt>
      <trkpt lat="47.76349" lon="6.03652">
        <ele>215.60059</ele>
        <time>2026-05-16T16:09:39+02:00</time>
      </trkpt>
      <trkpt lat="47.76348" lon="6.03645">
        <ele>215.7998</ele>
        <time>2026-05-16T16:09:40+02:00</time>
      </trkpt>
      <trkpt lat="47.76348" lon="6.03638">
        <ele>215.90039</ele>
        <time>2026-05-16T16:09:41+02:00</time>
      </trkpt>
      <trkpt lat="47.7635" lon="6.03632">
        <ele>215.90039</ele>
        <time>2026-05-16T16:09:42+02:00</time>
      </trkpt>
      <trkpt lat="47.76354" lon="6.03625">
        <ele>216</ele>
        <time>2026-05-16T16:09:43+02:00</time>
      </trkpt>
      <trkpt lat="47.76356" lon="6.03622">
        <ele>215.90039</ele>
        <time>2026-05-16T16:09:44+02:00</time>
      </trkpt>
      <trkpt lat="47.7636" lon="6.03619">
        <ele>216.10059</ele>
        <time>2026-05-16T16:09:45+02:00</time>
      </trkpt>
      <trkpt lat="47.76365" lon="6.03616">
        <ele>216</ele>
        <time>2026-05-16T16:09:46+02:00</time>
      </trkpt>
      <trkpt lat="47.76369" lon="6.03613">
        <ele>216</ele>
        <time>2026-05-16T16:09:47+02:00</time>
      </trkpt>
      <trkpt lat="47.76373" lon="6.0361">
        <ele>216</ele>
        <time>2026-05-16T16:09:48+02:00</time>
      </trkpt>
      <trkpt lat="47.76377" lon="6.03607">
        <ele>216</ele>
        <time>2026-05-16T16:09:49+02:00</time>
      </trkpt>
      <trkpt lat="47.76382" lon="6.03605">
        <ele>215.90039</ele>
        <time>2026-05-16T16:09:50+02:00</time>
      </trkpt>
      <trkpt lat="47.76387" lon="6.03602">
        <ele>215.90039</ele>
        <time>2026-05-16T16:09:51+02:00</time>
      </trkpt>
      <trkpt lat="47.76391" lon="6.03599">
        <ele>215.7998</ele>
        <time>2026-05-16T16:09:52+02:00</time>
      </trkpt>
      <trkpt lat="47.76397" lon="6.03596">
        <ele>215.7002</ele>
        <time>2026-05-16T16:09:53+02:00</time>
      </trkpt>
      <trkpt lat="47.76402" lon="6.03593">
        <ele>215.7002</ele>
        <time>2026-05-16T16:09:54+02:00</time>
      </trkpt>
      <trkpt lat="47.76407" lon="6.0359">
        <ele>215.60059</ele>
        <time>2026-05-16T16:09:55+02:00</time>
      </trkpt>
      <trkpt lat="47.76413" lon="6.03587">
        <ele>215.60059</ele>
        <time>2026-05-16T16:09:56+02:00</time>
      </trkpt>
      <trkpt lat="47.76418" lon="6.03583">
        <ele>215.5</ele>
        <time>2026-05-16T16:09:57+02:00</time>
      </trkpt>
      <trkpt lat="47.76423" lon="6.0358">
        <ele>215.40039</ele>
        <time>2026-05-16T16:09:58+02:00</time>
      </trkpt>
      <trkpt lat="47.76429" lon="6.03577">
        <ele>215.40039</ele>
        <time>2026-05-16T16:09:59+02:00</time>
      </trkpt>
      <trkpt lat="47.76434" lon="6.03573">
        <ele>215.2998</ele>
        <time>2026-05-16T16:10:00+02:00</time>
      </trkpt>
      <trkpt lat="47.76443" lon="6.03568">
        <ele>215.2002</ele>
        <time>2026-05-16T16:10:01+02:00</time>
      </trkpt>
      <trkpt lat="47.76443" lon="6.03568">
        <ele>215.2002</ele>
        <time>2026-05-16T16:10:02+02:00</time>
      </trkpt>
      <trkpt lat="47.76451" lon="6.03563">
        <ele>215.2002</ele>
        <time>2026-05-16T16:10:03+02:00</time>
      </trkpt>
      <trkpt lat="47.76457" lon="6.0356">
        <ele>215.10059</ele>
        <time>2026-05-16T16:10:04+02:00</time>
      </trkpt>
      <trkpt lat="47.76462" lon="6.03557">
        <ele>215.10059</ele>
        <time>2026-05-16T16:10:05+02:00</time>
      </trkpt>
      <trkpt lat="47.76468" lon="6.03554">
        <ele>215</ele>
        <time>2026-05-16T16:10:06+02:00</time>
      </trkpt>
      <trkpt lat="47.76474" lon="6.0355">
        <ele>215</ele>
        <time>2026-05-16T16:10:07+02:00</time>
      </trkpt>
      <trkpt lat="47.7648" lon="6.03547">
        <ele>214.90039</ele>
        <time>2026-05-16T16:10:08+02:00</time>
      </trkpt>
      <trkpt lat="47.76486" lon="6.03543">
        <ele>214.90039</ele>
        <time>2026-05-16T16:10:09+02:00</time>
      </trkpt>
      <trkpt lat="47.76492" lon="6.0354">
        <ele>214.90039</ele>
        <time>2026-05-16T16:10:10+02:00</time>
      </trkpt>
      <trkpt lat="47.76497" lon="6.03537">
        <ele>214.90039</ele>
        <time>2026-05-16T16:10:11+02:00</time>
      </trkpt>
      <trkpt lat="47.76503" lon="6.03533">
        <ele>214.90039</ele>
        <time>2026-05-16T16:10:12+02:00</time>
      </trkpt>
      <trkpt lat="47.76509" lon="6.0353">
        <ele>214.90039</ele>
        <time>2026-05-16T16:10:13+02:00</time>
      </trkpt>
      <trkpt lat="47.76515" lon="6.03527">
        <ele>214.90039</ele>
        <time>2026-05-16T16:10:14+02:00</time>
      </trkpt>
      <trkpt lat="47.76521" lon="6.03523">
        <ele>214.90039</ele>
        <time>2026-05-16T16:10:15+02:00</time>
      </trkpt>
      <trkpt lat="47.76526" lon="6.0352">
        <ele>214.90039</ele>
        <time>2026-05-16T16:10:16+02:00</time>
      </trkpt>
      <trkpt lat="47.76532" lon="6.03517">
        <ele>215</ele>
        <time>2026-05-16T16:10:17+02:00</time>
      </trkpt>
      <trkpt lat="47.76537" lon="6.03514">
        <ele>215.10059</ele>
        <time>2026-05-16T16:10:18+02:00</time>
      </trkpt>
      <trkpt lat="47.76543" lon="6.0351">
        <ele>215.2002</ele>
        <time>2026-05-16T16:10:19+02:00</time>
      </trkpt>
      <trkpt lat="47.76549" lon="6.03507">
        <ele>215.5</ele>
        <time>2026-05-16T16:10:20+02:00</time>
      </trkpt>
      <trkpt lat="47.76554" lon="6.03504">
        <ele>215.60059</ele>
        <time>2026-05-16T16:10:21+02:00</time>
      </trkpt>
      <trkpt lat="47.7656" lon="6.03501">
        <ele>216</ele>
        <time>2026-05-16T16:10:22+02:00</time>
      </trkpt>
      <trkpt lat="47.76565" lon="6.03497">
        <ele>216.2002</ele>
        <time>2026-05-16T16:10:23+02:00</time>
      </trkpt>
      <trkpt lat="47.76571" lon="6.03494">
        <ele>216.5</ele>
        <time>2026-05-16T16:10:24+02:00</time>
      </trkpt>
      <trkpt lat="47.76576" lon="6.0349">
        <ele>216.90039</ele>
        <time>2026-05-16T16:10:25+02:00</time>
      </trkpt>
      <trkpt lat="47.76582" lon="6.03487">
        <ele>217.10059</ele>
        <time>2026-05-16T16:10:26+02:00</time>
      </trkpt>
      <trkpt lat="47.76587" lon="6.03484">
        <ele>217.60059</ele>
        <time>2026-05-16T16:10:27+02:00</time>
      </trkpt>
      <trkpt lat="47.76593" lon="6.03481">
        <ele>217.90039</ele>
        <time>2026-05-16T16:10:28+02:00</time>
      </trkpt>
      <trkpt lat="47.76599" lon="6.03477">
        <ele>218.2002</ele>
        <time>2026-05-16T16:10:29+02:00</time>
      </trkpt>
      <trkpt lat="47.76605" lon="6.03474">
        <ele>218.5</ele>
        <time>2026-05-16T16:10:30+02:00</time>
      </trkpt>
      <trkpt lat="47.7661" lon="6.03471">
        <ele>218.7002</ele>
        <time>2026-05-16T16:10:31+02:00</time>
      </trkpt>
      <trkpt lat="47.76615" lon="6.03467">
        <ele>218.7998</ele>
        <time>2026-05-16T16:10:32+02:00</time>
      </trkpt>
      <trkpt lat="47.7662" lon="6.03464">
        <ele>219</ele>
        <time>2026-05-16T16:10:33+02:00</time>
      </trkpt>
      <trkpt lat="47.76626" lon="6.03461">
        <ele>219.2998</ele>
        <time>2026-05-16T16:10:34+02:00</time>
      </trkpt>
      <trkpt lat="47.76631" lon="6.03458">
        <ele>219.60059</ele>
        <time>2026-05-16T16:10:35+02:00</time>
      </trkpt>
      <trkpt lat="47.76636" lon="6.03455">
        <ele>219.90039</ele>
        <time>2026-05-16T16:10:36+02:00</time>
      </trkpt>
      <trkpt lat="47.76644" lon="6.03451">
        <ele>220.10059</ele>
        <time>2026-05-16T16:10:37+02:00</time>
      </trkpt>
      <trkpt lat="47.76647" lon="6.0345">
        <ele>220.40039</ele>
        <time>2026-05-16T16:10:38+02:00</time>
      </trkpt>
      <trkpt lat="47.76652" lon="6.03446">
        <ele>220.60059</ele>
        <time>2026-05-16T16:10:39+02:00</time>
      </trkpt>
      <trkpt lat="47.76658" lon="6.03443">
        <ele>220.7998</ele>
        <time>2026-05-16T16:10:40+02:00</time>
      </trkpt>
      <trkpt lat="47.76663" lon="6.03439">
        <ele>220.90039</ele>
        <time>2026-05-16T16:10:41+02:00</time>
      </trkpt>
      <trkpt lat="47.76669" lon="6.03436">
        <ele>221.10059</ele>
        <time>2026-05-16T16:10:42+02:00</time>
      </trkpt>
      <trkpt lat="47.76674" lon="6.03432">
        <ele>221.2002</ele>
        <time>2026-05-16T16:10:43+02:00</time>
      </trkpt>
      <trkpt lat="47.7668" lon="6.03429">
        <ele>221.2998</ele>
        <time>2026-05-16T16:10:44+02:00</time>
      </trkpt>
      <trkpt lat="47.76683" lon="6.03427">
        <ele>221.2998</ele>
        <time>2026-05-16T16:10:45+02:00</time>
      </trkpt>
      <trkpt lat="47.76692" lon="6.03422">
        <ele>221.40039</ele>
        <time>2026-05-16T16:10:46+02:00</time>
      </trkpt>
      <trkpt lat="47.76697" lon="6.03419">
        <ele>221.5</ele>
        <time>2026-05-16T16:10:47+02:00</time>
      </trkpt>
      <trkpt lat="47.76703" lon="6.03416">
        <ele>221.5</ele>
        <time>2026-05-16T16:10:48+02:00</time>
      </trkpt>
      <trkpt lat="47.76709" lon="6.03412">
        <ele>221.40039</ele>
        <time>2026-05-16T16:10:49+02:00</time>
      </trkpt>
      <trkpt lat="47.76715" lon="6.03409">
        <ele>221.2998</ele>
        <time>2026-05-16T16:10:50+02:00</time>
      </trkpt>
      <trkpt lat="47.76721" lon="6.03405">
        <ele>221.10059</ele>
        <time>2026-05-16T16:10:51+02:00</time>
      </trkpt>
      <trkpt lat="47.76726" lon="6.03402">
        <ele>221.10059</ele>
        <time>2026-05-16T16:10:52+02:00</time>
      </trkpt>
      <trkpt lat="47.76732" lon="6.03398">
        <ele>220.7998</ele>
        <time>2026-05-16T16:10:53+02:00</time>
      </trkpt>
      <trkpt lat="47.76738" lon="6.03395">
        <ele>220.7998</ele>
        <time>2026-05-16T16:10:54+02:00</time>
      </trkpt>
      <trkpt lat="47.76743" lon="6.03392">
        <ele>220.7002</ele>
        <time>2026-05-16T16:10:55+02:00</time>
      </trkpt>
      <trkpt lat="47.7675" lon="6.03389">
        <ele>220.5</ele>
        <time>2026-05-16T16:10:56+02:00</time>
      </trkpt>
      <trkpt lat="47.76755" lon="6.03386">
        <ele>220.2998</ele>
        <time>2026-05-16T16:10:57+02:00</time>
      </trkpt>
      <trkpt lat="47.76764" lon="6.0338">
        <ele>220.10059</ele>
        <time>2026-05-16T16:10:58+02:00</time>
      </trkpt>
      <trkpt lat="47.76767" lon="6.03379">
        <ele>219.90039</ele>
        <time>2026-05-16T16:10:59+02:00</time>
      </trkpt>
      <trkpt lat="47.76772" lon="6.03375">
        <ele>219.7002</ele>
        <time>2026-05-16T16:11:00+02:00</time>
      </trkpt>
      <trkpt lat="47.76778" lon="6.03372">
        <ele>219.2998</ele>
        <time>2026-05-16T16:11:01+02:00</time>
      </trkpt>
      <trkpt lat="47.76784" lon="6.03369">
        <ele>219.10059</ele>
        <time>2026-05-16T16:11:02+02:00</time>
      </trkpt>
      <trkpt lat="47.7679" lon="6.03365">
        <ele>218.7998</ele>
        <time>2026-05-16T16:11:03+02:00</time>
      </trkpt>
      <trkpt lat="47.76795" lon="6.03362">
        <ele>218.5</ele>
        <time>2026-05-16T16:11:04+02:00</time>
      </trkpt>
      <trkpt lat="47.76804" lon="6.03357">
        <ele>218.2998</ele>
        <time>2026-05-16T16:11:05+02:00</time>
      </trkpt>
      <trkpt lat="47.76806" lon="6.03355">
        <ele>218.2002</ele>
        <time>2026-05-16T16:11:06+02:00</time>
      </trkpt>
      <trkpt lat="47.76812" lon="6.03352">
        <ele>217.7002</ele>
        <time>2026-05-16T16:11:07+02:00</time>
      </trkpt>
      <trkpt lat="47.76818" lon="6.03348">
        <ele>217.5</ele>
        <time>2026-05-16T16:11:08+02:00</time>
      </trkpt>
      <trkpt lat="47.76824" lon="6.03345">
        <ele>217.2998</ele>
        <time>2026-05-16T16:11:09+02:00</time>
      </trkpt>
      <trkpt lat="47.76829" lon="6.03342">
        <ele>217.2998</ele>
        <time>2026-05-16T16:11:10+02:00</time>
      </trkpt>
      <trkpt lat="47.76834" lon="6.03338">
        <ele>217</ele>
        <time>2026-05-16T16:11:11+02:00</time>
      </trkpt>
      <trkpt lat="47.7684" lon="6.03335">
        <ele>216.90039</ele>
        <time>2026-05-16T16:11:12+02:00</time>
      </trkpt>
      <trkpt lat="47.76846" lon="6.03332">
        <ele>216.7002</ele>
        <time>2026-05-16T16:11:13+02:00</time>
      </trkpt>
      <trkpt lat="47.76851" lon="6.03328">
        <ele>216.5</ele>
        <time>2026-05-16T16:11:14+02:00</time>
      </trkpt>
      <trkpt lat="47.76857" lon="6.03325">
        <ele>216.40039</ele>
        <time>2026-05-16T16:11:15+02:00</time>
      </trkpt>
      <trkpt lat="47.76862" lon="6.03322">
        <ele>216.2002</ele>
        <time>2026-05-16T16:11:16+02:00</time>
      </trkpt>
      <trkpt lat="47.76868" lon="6.03318">
        <ele>216.10059</ele>
        <time>2026-05-16T16:11:17+02:00</time>
      </trkpt>
      <trkpt lat="47.76876" lon="6.03313">
        <ele>215.90039</ele>
        <time>2026-05-16T16:11:18+02:00</time>
      </trkpt>
      <trkpt lat="47.76879" lon="6.03311">
        <ele>215.90039</ele>
        <time>2026-05-16T16:11:19+02:00</time>
      </trkpt>
      <trkpt lat="47.76885" lon="6.03308">
        <ele>215.7998</ele>
        <time>2026-05-16T16:11:20+02:00</time>
      </trkpt>
      <trkpt lat="47.7689" lon="6.03305">
        <ele>215.7002</ele>
        <time>2026-05-16T16:11:21+02:00</time>
      </trkpt>
      <trkpt lat="47.76896" lon="6.03302">
        <ele>215.7002</ele>
        <time>2026-05-16T16:11:22+02:00</time>
      </trkpt>
      <trkpt lat="47.76901" lon="6.03299">
        <ele>215.60059</ele>
        <time>2026-05-16T16:11:23+02:00</time>
      </trkpt>
      <trkpt lat="47.76907" lon="6.03295">
        <ele>215.60059</ele>
        <time>2026-05-16T16:11:24+02:00</time>
      </trkpt>
      <trkpt lat="47.76915" lon="6.0329">
        <ele>215.5</ele>
        <time>2026-05-16T16:11:25+02:00</time>
      </trkpt>
      <trkpt lat="47.76918" lon="6.03288">
        <ele>215.40039</ele>
        <time>2026-05-16T16:11:26+02:00</time>
      </trkpt>
      <trkpt lat="47.76924" lon="6.03285">
        <ele>215.2998</ele>
        <time>2026-05-16T16:11:27+02:00</time>
      </trkpt>
      <trkpt lat="47.76929" lon="6.03281">
        <ele>215.2998</ele>
        <time>2026-05-16T16:11:28+02:00</time>
      </trkpt>
      <trkpt lat="47.76935" lon="6.03278">
        <ele>215.2002</ele>
        <time>2026-05-16T16:11:29+02:00</time>
      </trkpt>
      <trkpt lat="47.7694" lon="6.03274">
        <ele>215.2002</ele>
        <time>2026-05-16T16:11:30+02:00</time>
      </trkpt>
      <trkpt lat="47.76946" lon="6.03271">
        <ele>215.2002</ele>
        <time>2026-05-16T16:11:31+02:00</time>
      </trkpt>
      <trkpt lat="47.76951" lon="6.03268">
        <ele>215.10059</ele>
        <time>2026-05-16T16:11:32+02:00</time>
      </trkpt>
      <trkpt lat="47.76957" lon="6.03264">
        <ele>215.2002</ele>
        <time>2026-05-16T16:11:33+02:00</time>
      </trkpt>
      <trkpt lat="47.76962" lon="6.03261">
        <ele>215.2002</ele>
        <time>2026-05-16T16:11:34+02:00</time>
      </trkpt>
      <trkpt lat="47.76968" lon="6.03257">
        <ele>215.2002</ele>
        <time>2026-05-16T16:11:35+02:00</time>
      </trkpt>
      <trkpt lat="47.76973" lon="6.03254">
        <ele>215.2002</ele>
        <time>2026-05-16T16:11:36+02:00</time>
      </trkpt>
      <trkpt lat="47.76979" lon="6.03251">
        <ele>215.2002</ele>
        <time>2026-05-16T16:11:37+02:00</time>
      </trkpt>
      <trkpt lat="47.76985" lon="6.03247">
        <ele>215.40039</ele>
        <time>2026-05-16T16:11:38+02:00</time>
      </trkpt>
      <trkpt lat="47.76994" lon="6.03242">
        <ele>215.40039</ele>
        <time>2026-05-16T16:11:39+02:00</time>
      </trkpt>
      <trkpt lat="47.76997" lon="6.03241">
        <ele>215.60059</ele>
        <time>2026-05-16T16:11:40+02:00</time>
      </trkpt>
      <trkpt lat="47.77002" lon="6.03237">
        <ele>215.60059</ele>
        <time>2026-05-16T16:11:41+02:00</time>
      </trkpt>
      <trkpt lat="47.77008" lon="6.03234">
        <ele>215.7998</ele>
        <time>2026-05-16T16:11:42+02:00</time>
      </trkpt>
      <trkpt lat="47.77014" lon="6.03231">
        <ele>215.90039</ele>
        <time>2026-05-16T16:11:43+02:00</time>
      </trkpt>
      <trkpt lat="47.7702" lon="6.03227">
        <ele>216.10059</ele>
        <time>2026-05-16T16:11:44+02:00</time>
      </trkpt>
      <trkpt lat="47.77025" lon="6.03224">
        <ele>215.90039</ele>
        <time>2026-05-16T16:11:45+02:00</time>
      </trkpt>
      <trkpt lat="47.77034" lon="6.03219">
        <ele>216.2002</ele>
        <time>2026-05-16T16:11:46+02:00</time>
      </trkpt>
      <trkpt lat="47.77037" lon="6.03217">
        <ele>216.2998</ele>
        <time>2026-05-16T16:11:47+02:00</time>
      </trkpt>
      <trkpt lat="47.77043" lon="6.03214">
        <ele>216.40039</ele>
        <time>2026-05-16T16:11:48+02:00</time>
      </trkpt>
      <trkpt lat="47.77052" lon="6.03209">
        <ele>216.40039</ele>
        <time>2026-05-16T16:11:49+02:00</time>
      </trkpt>
      <trkpt lat="47.77054" lon="6.03207">
        <ele>216.40039</ele>
        <time>2026-05-16T16:11:50+02:00</time>
      </trkpt>
      <trkpt lat="47.7706" lon="6.03204">
        <ele>216.7998</ele>
        <time>2026-05-16T16:11:51+02:00</time>
      </trkpt>
      <trkpt lat="47.77066" lon="6.032">
        <ele>216.7998</ele>
        <time>2026-05-16T16:11:52+02:00</time>
      </trkpt>
      <trkpt lat="47.77071" lon="6.03197">
        <ele>216.7998</ele>
        <time>2026-05-16T16:11:53+02:00</time>
      </trkpt>
      <trkpt lat="47.77086" lon="6.03183">
        <ele>216.90039</ele>
        <time>2026-05-16T16:11:54+02:00</time>
      </trkpt>
      <trkpt lat="47.77091" lon="6.03179">
        <ele>217</ele>
        <time>2026-05-16T16:11:55+02:00</time>
      </trkpt>
      <trkpt lat="47.77098" lon="6.03172">
        <ele>216.90039</ele>
        <time>2026-05-16T16:11:56+02:00</time>
      </trkpt>
      <trkpt lat="47.771" lon="6.0317">
        <ele>216.90039</ele>
        <time>2026-05-16T16:11:57+02:00</time>
      </trkpt>
      <trkpt lat="47.77105" lon="6.03166">
        <ele>216.7998</ele>
        <time>2026-05-16T16:11:58+02:00</time>
      </trkpt>
      <trkpt lat="47.7711" lon="6.03161">
        <ele>216.7998</ele>
        <time>2026-05-16T16:11:59+02:00</time>
      </trkpt>
      <trkpt lat="47.77117" lon="6.03153">
        <ele>216.7002</ele>
        <time>2026-05-16T16:12:00+02:00</time>
      </trkpt>
      <trkpt lat="47.77119" lon="6.03151">
        <ele>216.7998</ele>
        <time>2026-05-16T16:12:01+02:00</time>
      </trkpt>
      <trkpt lat="47.77123" lon="6.03146">
        <ele>216.60059</ele>
        <time>2026-05-16T16:12:02+02:00</time>
      </trkpt>
      <trkpt lat="47.77127" lon="6.0314">
        <ele>216.5</ele>
        <time>2026-05-16T16:12:03+02:00</time>
      </trkpt>
      <trkpt lat="47.77131" lon="6.03134">
        <ele>216.5</ele>
        <time>2026-05-16T16:12:04+02:00</time>
      </trkpt>
      <trkpt lat="47.77135" lon="6.03127">
        <ele>216.40039</ele>
        <time>2026-05-16T16:12:05+02:00</time>
      </trkpt>
      <trkpt lat="47.77139" lon="6.0312">
        <ele>216.2998</ele>
        <time>2026-05-16T16:12:06+02:00</time>
      </trkpt>
      <trkpt lat="47.77145" lon="6.03109">
        <ele>216.2002</ele>
        <time>2026-05-16T16:12:07+02:00</time>
      </trkpt>
      <trkpt lat="47.77145" lon="6.03109">
        <ele>216.2002</ele>
        <time>2026-05-16T16:12:08+02:00</time>
      </trkpt>
      <trkpt lat="47.7715" lon="6.03098">
        <ele>216.10059</ele>
        <time>2026-05-16T16:12:09+02:00</time>
      </trkpt>
      <trkpt lat="47.77155" lon="6.0309">
        <ele>216</ele>
        <time>2026-05-16T16:12:10+02:00</time>
      </trkpt>
      <trkpt lat="47.7716" lon="6.03078">
        <ele>215.7998</ele>
        <time>2026-05-16T16:12:11+02:00</time>
      </trkpt>
      <trkpt lat="47.77163" lon="6.03074">
        <ele>215.7998</ele>
        <time>2026-05-16T16:12:12+02:00</time>
      </trkpt>
      <trkpt lat="47.77167" lon="6.03065">
        <ele>215.7002</ele>
        <time>2026-05-16T16:12:13+02:00</time>
      </trkpt>
      <trkpt lat="47.77171" lon="6.03056">
        <ele>215.60059</ele>
        <time>2026-05-16T16:12:14+02:00</time>
      </trkpt>
      <trkpt lat="47.77175" lon="6.03048">
        <ele>215.5</ele>
        <time>2026-05-16T16:12:15+02:00</time>
      </trkpt>
      <trkpt lat="47.77179" lon="6.0304">
        <ele>215.40039</ele>
        <time>2026-05-16T16:12:16+02:00</time>
      </trkpt>
      <trkpt lat="47.77183" lon="6.03031">
        <ele>215.2998</ele>
        <time>2026-05-16T16:12:17+02:00</time>
      </trkpt>
      <trkpt lat="47.77189" lon="6.03019">
        <ele>215.2002</ele>
        <time>2026-05-16T16:12:18+02:00</time>
      </trkpt>
      <trkpt lat="47.77191" lon="6.03014">
        <ele>215.2002</ele>
        <time>2026-05-16T16:12:19+02:00</time>
      </trkpt>
      <trkpt lat="47.77195" lon="6.03006">
        <ele>215.10059</ele>
        <time>2026-05-16T16:12:20+02:00</time>
      </trkpt>
      <trkpt lat="47.77199" lon="6.02998">
        <ele>214.90039</ele>
        <time>2026-05-16T16:12:21+02:00</time>
      </trkpt>
      <trkpt lat="47.77201" lon="6.02994">
        <ele>214.7998</ele>
        <time>2026-05-16T16:12:22+02:00</time>
      </trkpt>
      <trkpt lat="47.77207" lon="6.02981">
        <ele>214.7002</ele>
        <time>2026-05-16T16:12:23+02:00</time>
      </trkpt>
      <trkpt lat="47.77211" lon="6.02972">
        <ele>214.5</ele>
        <time>2026-05-16T16:12:24+02:00</time>
      </trkpt>
      <trkpt lat="47.77215" lon="6.02963">
        <ele>214.2998</ele>
        <time>2026-05-16T16:12:25+02:00</time>
      </trkpt>
      <trkpt lat="47.77219" lon="6.02954">
        <ele>214.2002</ele>
        <time>2026-05-16T16:12:26+02:00</time>
      </trkpt>
      <trkpt lat="47.77223" lon="6.02946">
        <ele>214</ele>
        <time>2026-05-16T16:12:27+02:00</time>
      </trkpt>
      <trkpt lat="47.77229" lon="6.02932">
        <ele>213.7002</ele>
        <time>2026-05-16T16:12:28+02:00</time>
      </trkpt>
      <trkpt lat="47.77231" lon="6.02928">
        <ele>213.7002</ele>
        <time>2026-05-16T16:12:29+02:00</time>
      </trkpt>
      <trkpt lat="47.77235" lon="6.02919">
        <ele>213.5</ele>
        <time>2026-05-16T16:12:30+02:00</time>
      </trkpt>
      <trkpt lat="47.77242" lon="6.02906">
        <ele>213.2998</ele>
        <time>2026-05-16T16:12:31+02:00</time>
      </trkpt>
      <trkpt lat="47.77244" lon="6.02902">
        <ele>213.2998</ele>
        <time>2026-05-16T16:12:32+02:00</time>
      </trkpt>
      <trkpt lat="47.77248" lon="6.02893">
        <ele>213.10059</ele>
        <time>2026-05-16T16:12:33+02:00</time>
      </trkpt>
      <trkpt lat="47.77252" lon="6.02884">
        <ele>213</ele>
        <time>2026-05-16T16:12:34+02:00</time>
      </trkpt>
      <trkpt lat="47.77257" lon="6.02876">
        <ele>212.90039</ele>
        <time>2026-05-16T16:12:35+02:00</time>
      </trkpt>
      <trkpt lat="47.7726" lon="6.02867">
        <ele>212.7998</ele>
        <time>2026-05-16T16:12:36+02:00</time>
      </trkpt>
      <trkpt lat="47.77265" lon="6.02859">
        <ele>212.7002</ele>
        <time>2026-05-16T16:12:37+02:00</time>
      </trkpt>
      <trkpt lat="47.7727" lon="6.02846">
        <ele>212.5</ele>
        <time>2026-05-16T16:12:38+02:00</time>
      </trkpt>
      <trkpt lat="47.7727" lon="6.02846">
        <ele>212.5</ele>
        <time>2026-05-16T16:12:39+02:00</time>
      </trkpt>
      <trkpt lat="47.77276" lon="6.02834">
        <ele>212.40039</ele>
        <time>2026-05-16T16:12:40+02:00</time>
      </trkpt>
      <trkpt lat="47.7728" lon="6.02826">
        <ele>212.2998</ele>
        <time>2026-05-16T16:12:41+02:00</time>
      </trkpt>
      <trkpt lat="47.77284" lon="6.02817">
        <ele>212.2998</ele>
        <time>2026-05-16T16:12:42+02:00</time>
      </trkpt>
      <trkpt lat="47.77286" lon="6.02813">
        <ele>212.2998</ele>
        <time>2026-05-16T16:12:43+02:00</time>
      </trkpt>
      <trkpt lat="47.77291" lon="6.02801">
        <ele>212.2002</ele>
        <time>2026-05-16T16:12:44+02:00</time>
      </trkpt>
      <trkpt lat="47.77295" lon="6.02793">
        <ele>212.2002</ele>
        <time>2026-05-16T16:12:45+02:00</time>
      </trkpt>
      <trkpt lat="47.77302" lon="6.02781">
        <ele>212.10059</ele>
        <time>2026-05-16T16:12:46+02:00</time>
      </trkpt>
      <trkpt lat="47.77303" lon="6.02777">
        <ele>212</ele>
        <time>2026-05-16T16:12:47+02:00</time>
      </trkpt>
      <trkpt lat="47.77308" lon="6.02768">
        <ele>212</ele>
        <time>2026-05-16T16:12:48+02:00</time>
      </trkpt>
      <trkpt lat="47.77312" lon="6.0276">
        <ele>211.7998</ele>
        <time>2026-05-16T16:12:49+02:00</time>
      </trkpt>
      <trkpt lat="47.77316" lon="6.02752">
        <ele>211.7002</ele>
        <time>2026-05-16T16:12:50+02:00</time>
      </trkpt>
      <trkpt lat="47.7732" lon="6.02744">
        <ele>211.60059</ele>
        <time>2026-05-16T16:12:51+02:00</time>
      </trkpt>
      <trkpt lat="47.77324" lon="6.02736">
        <ele>211.5</ele>
        <time>2026-05-16T16:12:52+02:00</time>
      </trkpt>
      <trkpt lat="47.77329" lon="6.02728">
        <ele>211.40039</ele>
        <time>2026-05-16T16:12:53+02:00</time>
      </trkpt>
      <trkpt lat="47.77336" lon="6.02717">
        <ele>211.40039</ele>
        <time>2026-05-16T16:12:54+02:00</time>
      </trkpt>
      <trkpt lat="47.77338" lon="6.02713">
        <ele>211.40039</ele>
        <time>2026-05-16T16:12:55+02:00</time>
      </trkpt>
      <trkpt lat="47.77343" lon="6.02706">
        <ele>211.40039</ele>
        <time>2026-05-16T16:12:56+02:00</time>
      </trkpt>
      <trkpt lat="47.77347" lon="6.02699">
        <ele>211.40039</ele>
        <time>2026-05-16T16:12:57+02:00</time>
      </trkpt>
      <trkpt lat="47.77355" lon="6.02688">
        <ele>211.5</ele>
        <time>2026-05-16T16:12:58+02:00</time>
      </trkpt>
      <trkpt lat="47.77357" lon="6.02684">
        <ele>211.5</ele>
        <time>2026-05-16T16:12:59+02:00</time>
      </trkpt>
      <trkpt lat="47.77362" lon="6.02677">
        <ele>211.60059</ele>
        <time>2026-05-16T16:13:00+02:00</time>
      </trkpt>
      <trkpt lat="47.77367" lon="6.0267">
        <ele>211.7002</ele>
        <time>2026-05-16T16:13:01+02:00</time>
      </trkpt>
      <trkpt lat="47.77371" lon="6.02664">
        <ele>211.7998</ele>
        <time>2026-05-16T16:13:02+02:00</time>
      </trkpt>
      <trkpt lat="47.77376" lon="6.02657">
        <ele>211.90039</ele>
        <time>2026-05-16T16:13:03+02:00</time>
      </trkpt>
      <trkpt lat="47.77381" lon="6.0265">
        <ele>212.10059</ele>
        <time>2026-05-16T16:13:04+02:00</time>
      </trkpt>
      <trkpt lat="47.77388" lon="6.02641">
        <ele>212.2998</ele>
        <time>2026-05-16T16:13:05+02:00</time>
      </trkpt>
      <trkpt lat="47.77388" lon="6.02641">
        <ele>212.2998</ele>
        <time>2026-05-16T16:13:06+02:00</time>
      </trkpt>
      <trkpt lat="47.77395" lon="6.02631">
        <ele>212.7002</ele>
        <time>2026-05-16T16:13:07+02:00</time>
      </trkpt>
      <trkpt lat="47.774" lon="6.02624">
        <ele>212.90039</ele>
        <time>2026-05-16T16:13:08+02:00</time>
      </trkpt>
      <trkpt lat="47.77405" lon="6.02618">
        <ele>213</ele>
        <time>2026-05-16T16:13:09+02:00</time>
      </trkpt>
      <trkpt lat="47.77409" lon="6.02611">
        <ele>213.2002</ele>
        <time>2026-05-16T16:13:10+02:00</time>
      </trkpt>
      <trkpt lat="47.77414" lon="6.02605">
        <ele>213.2998</ele>
        <time>2026-05-16T16:13:11+02:00</time>
      </trkpt>
      <trkpt lat="47.77421" lon="6.02595">
        <ele>213.10059</ele>
        <time>2026-05-16T16:13:12+02:00</time>
      </trkpt>
      <trkpt lat="47.77421" lon="6.02595">
        <ele>213.10059</ele>
        <time>2026-05-16T16:13:13+02:00</time>
      </trkpt>
      <trkpt lat="47.77427" lon="6.02586">
        <ele>212.7998</ele>
        <time>2026-05-16T16:13:14+02:00</time>
      </trkpt>
      <trkpt lat="47.77432" lon="6.0258">
        <ele>212.2998</ele>
        <time>2026-05-16T16:13:15+02:00</time>
      </trkpt>
      <trkpt lat="47.77438" lon="6.0257">
        <ele>211.60059</ele>
        <time>2026-05-16T16:13:16+02:00</time>
      </trkpt>
      <trkpt lat="47.7744" lon="6.02567">
        <ele>211.60059</ele>
        <time>2026-05-16T16:13:17+02:00</time>
      </trkpt>
      <trkpt lat="47.77443" lon="6.02561">
        <ele>210.90039</ele>
        <time>2026-05-16T16:13:18+02:00</time>
      </trkpt>
      <trkpt lat="47.77447" lon="6.02554">
        <ele>210.40039</ele>
        <time>2026-05-16T16:13:19+02:00</time>
      </trkpt>
      <trkpt lat="47.77454" lon="6.02545">
        <ele>210.5</ele>
        <time>2026-05-16T16:13:20+02:00</time>
      </trkpt>
      <trkpt lat="47.77456" lon="6.02542">
        <ele>210.5</ele>
        <time>2026-05-16T16:13:21+02:00</time>
      </trkpt>
      <trkpt lat="47.7746" lon="6.02535">
        <ele>211.10059</ele>
        <time>2026-05-16T16:13:22+02:00</time>
      </trkpt>
      <trkpt lat="47.77467" lon="6.02524">
        <ele>211.90039</ele>
        <time>2026-05-16T16:13:23+02:00</time>
      </trkpt>
      <trkpt lat="47.77469" lon="6.02521">
        <ele>212.2002</ele>
        <time>2026-05-16T16:13:24+02:00</time>
      </trkpt>
      <trkpt lat="47.77474" lon="6.02513">
        <ele>213.10059</ele>
        <time>2026-05-16T16:13:25+02:00</time>
      </trkpt>
      <trkpt lat="47.77478" lon="6.02506">
        <ele>213.7002</ele>
        <time>2026-05-16T16:13:26+02:00</time>
      </trkpt>
      <trkpt lat="47.77483" lon="6.02499">
        <ele>215</ele>
        <time>2026-05-16T16:13:27+02:00</time>
      </trkpt>
      <trkpt lat="47.77487" lon="6.02491">
        <ele>216.2002</ele>
        <time>2026-05-16T16:13:28+02:00</time>
      </trkpt>
      <trkpt lat="47.77492" lon="6.02484">
        <ele>216.7002</ele>
        <time>2026-05-16T16:13:29+02:00</time>
      </trkpt>
      <trkpt lat="47.77496" lon="6.02478">
        <ele>216.90039</ele>
        <time>2026-05-16T16:13:30+02:00</time>
      </trkpt>
      <trkpt lat="47.77501" lon="6.02471">
        <ele>217.10059</ele>
        <time>2026-05-16T16:13:31+02:00</time>
      </trkpt>
      <trkpt lat="47.77506" lon="6.02464">
        <ele>217.10059</ele>
        <time>2026-05-16T16:13:32+02:00</time>
      </trkpt>
      <trkpt lat="47.77511" lon="6.02457">
        <ele>217.2002</ele>
        <time>2026-05-16T16:13:33+02:00</time>
      </trkpt>
      <trkpt lat="47.77517" lon="6.02447">
        <ele>217.40039</ele>
        <time>2026-05-16T16:13:34+02:00</time>
      </trkpt>
      <trkpt lat="47.7752" lon="6.02444">
        <ele>217.5</ele>
        <time>2026-05-16T16:13:35+02:00</time>
      </trkpt>
      <trkpt lat="47.77525" lon="6.02438">
        <ele>217.60059</ele>
        <time>2026-05-16T16:13:36+02:00</time>
      </trkpt>
      <trkpt lat="47.77532" lon="6.02428">
        <ele>217.7998</ele>
        <time>2026-05-16T16:13:37+02:00</time>
      </trkpt>
      <trkpt lat="47.77532" lon="6.02428">
        <ele>217.7998</ele>
        <time>2026-05-16T16:13:38+02:00</time>
      </trkpt>
      <trkpt lat="47.7754" lon="6.02419">
        <ele>218.10059</ele>
        <time>2026-05-16T16:13:39+02:00</time>
      </trkpt>
      <trkpt lat="47.77545" lon="6.02412">
        <ele>218.10059</ele>
        <time>2026-05-16T16:13:40+02:00</time>
      </trkpt>
      <trkpt lat="47.77552" lon="6.02403">
        <ele>218.40039</ele>
        <time>2026-05-16T16:13:41+02:00</time>
      </trkpt>
      <trkpt lat="47.77554" lon="6.024">
        <ele>218.60059</ele>
        <time>2026-05-16T16:13:42+02:00</time>
      </trkpt>
      <trkpt lat="47.77559" lon="6.02394">
        <ele>218.90039</ele>
        <time>2026-05-16T16:13:43+02:00</time>
      </trkpt>
      <trkpt lat="47.77567" lon="6.02384">
        <ele>219.2998</ele>
        <time>2026-05-16T16:13:44+02:00</time>
      </trkpt>
      <trkpt lat="47.77569" lon="6.02381">
        <ele>219.5</ele>
        <time>2026-05-16T16:13:45+02:00</time>
      </trkpt>
      <trkpt lat="47.77573" lon="6.02375">
        <ele>219.7998</ele>
        <time>2026-05-16T16:13:46+02:00</time>
      </trkpt>
      <trkpt lat="47.77577" lon="6.02369">
        <ele>220</ele>
        <time>2026-05-16T16:13:47+02:00</time>
      </trkpt>
      <trkpt lat="47.77582" lon="6.02363">
        <ele>220.5</ele>
        <time>2026-05-16T16:13:48+02:00</time>
      </trkpt>
      <trkpt lat="47.77585" lon="6.02357">
        <ele>221</ele>
        <time>2026-05-16T16:13:49+02:00</time>
      </trkpt>
      <trkpt lat="47.77589" lon="6.0235">
        <ele>221.10059</ele>
        <time>2026-05-16T16:13:50+02:00</time>
      </trkpt>
      <trkpt lat="47.77595" lon="6.0234">
        <ele>221.40039</ele>
        <time>2026-05-16T16:13:51+02:00</time>
      </trkpt>
      <trkpt lat="47.77597" lon="6.02336">
        <ele>221.5</ele>
        <time>2026-05-16T16:13:52+02:00</time>
      </trkpt>
      <trkpt lat="47.77601" lon="6.02329">
        <ele>221.5</ele>
        <time>2026-05-16T16:13:53+02:00</time>
      </trkpt>
      <trkpt lat="47.77605" lon="6.02322">
        <ele>221.60059</ele>
        <time>2026-05-16T16:13:54+02:00</time>
      </trkpt>
      <trkpt lat="47.77607" lon="6.02319">
        <ele>221.60059</ele>
        <time>2026-05-16T16:13:55+02:00</time>
      </trkpt>
      <trkpt lat="47.77613" lon="6.02308">
        <ele>221.60059</ele>
        <time>2026-05-16T16:13:56+02:00</time>
      </trkpt>
      <trkpt lat="47.77617" lon="6.02301">
        <ele>221.7002</ele>
        <time>2026-05-16T16:13:57+02:00</time>
      </trkpt>
      <trkpt lat="47.77624" lon="6.0229">
        <ele>221.7002</ele>
        <time>2026-05-16T16:13:58+02:00</time>
      </trkpt>
      <trkpt lat="47.77626" lon="6.02286">
        <ele>221.7998</ele>
        <time>2026-05-16T16:13:59+02:00</time>
      </trkpt>
      <trkpt lat="47.77631" lon="6.02279">
        <ele>221.7998</ele>
        <time>2026-05-16T16:14:00+02:00</time>
      </trkpt>
      <trkpt lat="47.77636" lon="6.02273">
        <ele>221.60059</ele>
        <time>2026-05-16T16:14:01+02:00</time>
      </trkpt>
      <trkpt lat="47.7764" lon="6.02266">
        <ele>221.7002</ele>
        <time>2026-05-16T16:14:02+02:00</time>
      </trkpt>
      <trkpt lat="47.77645" lon="6.0226">
        <ele>221.5</ele>
        <time>2026-05-16T16:14:03+02:00</time>
      </trkpt>
      <trkpt lat="47.7765" lon="6.02254">
        <ele>221.2002</ele>
        <time>2026-05-16T16:14:04+02:00</time>
      </trkpt>
      <trkpt lat="47.77658" lon="6.02246">
        <ele>220.7998</ele>
        <time>2026-05-16T16:14:05+02:00</time>
      </trkpt>
      <trkpt lat="47.77661" lon="6.02243">
        <ele>220.7002</ele>
        <time>2026-05-16T16:14:06+02:00</time>
      </trkpt>
      <trkpt lat="47.77665" lon="6.02238">
        <ele>220.2998</ele>
        <time>2026-05-16T16:14:07+02:00</time>
      </trkpt>
      <trkpt lat="47.7767" lon="6.02232">
        <ele>220.2002</ele>
        <time>2026-05-16T16:14:08+02:00</time>
      </trkpt>
      <trkpt lat="47.77675" lon="6.02227">
        <ele>219.5</ele>
        <time>2026-05-16T16:14:09+02:00</time>
      </trkpt>
      <trkpt lat="47.7768" lon="6.02221">
        <ele>218.60059</ele>
        <time>2026-05-16T16:14:10+02:00</time>
      </trkpt>
      <trkpt lat="47.77685" lon="6.02216">
        <ele>218.40039</ele>
        <time>2026-05-16T16:14:11+02:00</time>
      </trkpt>
      <trkpt lat="47.77693" lon="6.02207">
        <ele>217.5</ele>
        <time>2026-05-16T16:14:12+02:00</time>
      </trkpt>
      <trkpt lat="47.77695" lon="6.02204">
        <ele>216.60059</ele>
        <time>2026-05-16T16:14:13+02:00</time>
      </trkpt>
      <trkpt lat="47.777" lon="6.02199">
        <ele>216.60059</ele>
        <time>2026-05-16T16:14:14+02:00</time>
      </trkpt>
      <trkpt lat="47.77705" lon="6.02193">
        <ele>215.7998</ele>
        <time>2026-05-16T16:14:15+02:00</time>
      </trkpt>
      <trkpt lat="47.7771" lon="6.02188">
        <ele>215.2998</ele>
        <time>2026-05-16T16:14:16+02:00</time>
      </trkpt>
      <trkpt lat="47.77715" lon="6.02182">
        <ele>215.10059</ele>
        <time>2026-05-16T16:14:17+02:00</time>
      </trkpt>
      <trkpt lat="47.7772" lon="6.02176">
        <ele>214.7998</ele>
        <time>2026-05-16T16:14:18+02:00</time>
      </trkpt>
      <trkpt lat="47.77725" lon="6.02171">
        <ele>214.7002</ele>
        <time>2026-05-16T16:14:19+02:00</time>
      </trkpt>
      <trkpt lat="47.77731" lon="6.02165">
        <ele>214.60059</ele>
        <time>2026-05-16T16:14:20+02:00</time>
      </trkpt>
      <trkpt lat="47.77736" lon="6.02159">
        <ele>214.40039</ele>
        <time>2026-05-16T16:14:21+02:00</time>
      </trkpt>
      <trkpt lat="47.77741" lon="6.02153">
        <ele>214.40039</ele>
        <time>2026-05-16T16:14:22+02:00</time>
      </trkpt>
      <trkpt lat="47.77746" lon="6.02147">
        <ele>214.40039</ele>
        <time>2026-05-16T16:14:23+02:00</time>
      </trkpt>
      <trkpt lat="47.77751" lon="6.02142">
        <ele>214.2998</ele>
        <time>2026-05-16T16:14:24+02:00</time>
      </trkpt>
      <trkpt lat="47.77758" lon="6.02133">
        <ele>214.10059</ele>
        <time>2026-05-16T16:14:25+02:00</time>
      </trkpt>
      <trkpt lat="47.77761" lon="6.0213">
        <ele>214.10059</ele>
        <time>2026-05-16T16:14:26+02:00</time>
      </trkpt>
      <trkpt lat="47.77766" lon="6.02124">
        <ele>214</ele>
        <time>2026-05-16T16:14:27+02:00</time>
      </trkpt>
      <trkpt lat="47.77771" lon="6.02118">
        <ele>213.90039</ele>
        <time>2026-05-16T16:14:28+02:00</time>
      </trkpt>
      <trkpt lat="47.77776" lon="6.02112">
        <ele>213.7998</ele>
        <time>2026-05-16T16:14:29+02:00</time>
      </trkpt>
      <trkpt lat="47.77781" lon="6.02106">
        <ele>213.7002</ele>
        <time>2026-05-16T16:14:30+02:00</time>
      </trkpt>
      <trkpt lat="47.77786" lon="6.021">
        <ele>213.60059</ele>
        <time>2026-05-16T16:14:31+02:00</time>
      </trkpt>
      <trkpt lat="47.77791" lon="6.02095">
        <ele>213.5</ele>
        <time>2026-05-16T16:14:32+02:00</time>
      </trkpt>
      <trkpt lat="47.77796" lon="6.02089">
        <ele>213.2998</ele>
        <time>2026-05-16T16:14:33+02:00</time>
      </trkpt>
      <trkpt lat="47.77801" lon="6.02083">
        <ele>213.10059</ele>
        <time>2026-05-16T16:14:34+02:00</time>
      </trkpt>
      <trkpt lat="47.77806" lon="6.02077">
        <ele>213</ele>
        <time>2026-05-16T16:14:35+02:00</time>
      </trkpt>
      <trkpt lat="47.77811" lon="6.02071">
        <ele>212.7998</ele>
        <time>2026-05-16T16:14:36+02:00</time>
      </trkpt>
      <trkpt lat="47.77816" lon="6.02065">
        <ele>212.60059</ele>
        <time>2026-05-16T16:14:37+02:00</time>
      </trkpt>
      <trkpt lat="47.77824" lon="6.02057">
        <ele>212.5</ele>
        <time>2026-05-16T16:14:38+02:00</time>
      </trkpt>
      <trkpt lat="47.77826" lon="6.02054">
        <ele>212.5</ele>
        <time>2026-05-16T16:14:39+02:00</time>
      </trkpt>
      <trkpt lat="47.77831" lon="6.02048">
        <ele>212.40039</ele>
        <time>2026-05-16T16:14:40+02:00</time>
      </trkpt>
      <trkpt lat="47.77836" lon="6.02043">
        <ele>212.40039</ele>
        <time>2026-05-16T16:14:41+02:00</time>
      </trkpt>
      <trkpt lat="47.77841" lon="6.02037">
        <ele>212.2998</ele>
        <time>2026-05-16T16:14:42+02:00</time>
      </trkpt>
      <trkpt lat="47.77846" lon="6.02031">
        <ele>212.2998</ele>
        <time>2026-05-16T16:14:43+02:00</time>
      </trkpt>
      <trkpt lat="47.77851" lon="6.02026">
        <ele>212.2998</ele>
        <time>2026-05-16T16:14:44+02:00</time>
      </trkpt>
      <trkpt lat="47.77858" lon="6.02018">
        <ele>212.2998</ele>
        <time>2026-05-16T16:14:45+02:00</time>
      </trkpt>
      <trkpt lat="47.77861" lon="6.02015">
        <ele>212.2998</ele>
        <time>2026-05-16T16:14:46+02:00</time>
      </trkpt>
      <trkpt lat="47.77866" lon="6.02009">
        <ele>212.2998</ele>
        <time>2026-05-16T16:14:47+02:00</time>
      </trkpt>
      <trkpt lat="47.7787" lon="6.02004">
        <ele>212.2998</ele>
        <time>2026-05-16T16:14:48+02:00</time>
      </trkpt>
      <trkpt lat="47.77875" lon="6.01998">
        <ele>212.40039</ele>
        <time>2026-05-16T16:14:49+02:00</time>
      </trkpt>
      <trkpt lat="47.77881" lon="6.01992">
        <ele>212.40039</ele>
        <time>2026-05-16T16:14:50+02:00</time>
      </trkpt>
      <trkpt lat="47.77886" lon="6.01986">
        <ele>212.40039</ele>
        <time>2026-05-16T16:14:51+02:00</time>
      </trkpt>
      <trkpt lat="47.77891" lon="6.01981">
        <ele>212.5</ele>
        <time>2026-05-16T16:14:52+02:00</time>
      </trkpt>
      <trkpt lat="47.77896" lon="6.01975">
        <ele>212.5</ele>
        <time>2026-05-16T16:14:53+02:00</time>
      </trkpt>
      <trkpt lat="47.77901" lon="6.01969">
        <ele>212.60059</ele>
        <time>2026-05-16T16:14:54+02:00</time>
      </trkpt>
      <trkpt lat="47.77907" lon="6.01963">
        <ele>212.7002</ele>
        <time>2026-05-16T16:14:55+02:00</time>
      </trkpt>
      <trkpt lat="47.77915" lon="6.01954">
        <ele>212.7998</ele>
        <time>2026-05-16T16:14:56+02:00</time>
      </trkpt>
      <trkpt lat="47.77917" lon="6.01951">
        <ele>212.7998</ele>
        <time>2026-05-16T16:14:57+02:00</time>
      </trkpt>
      <trkpt lat="47.77922" lon="6.01945">
        <ele>212.90039</ele>
        <time>2026-05-16T16:14:58+02:00</time>
      </trkpt>
      <trkpt lat="47.7793" lon="6.01936">
        <ele>213</ele>
        <time>2026-05-16T16:14:59+02:00</time>
      </trkpt>
      <trkpt lat="47.77933" lon="6.01933">
        <ele>213</ele>
        <time>2026-05-16T16:15:00+02:00</time>
      </trkpt>
      <trkpt lat="47.77938" lon="6.01928">
        <ele>213.10059</ele>
        <time>2026-05-16T16:15:01+02:00</time>
      </trkpt>
      <trkpt lat="47.77943" lon="6.01922">
        <ele>213.10059</ele>
        <time>2026-05-16T16:15:02+02:00</time>
      </trkpt>
      <trkpt lat="47.77949" lon="6.01916">
        <ele>213.10059</ele>
        <time>2026-05-16T16:15:03+02:00</time>
      </trkpt>
      <trkpt lat="47.77954" lon="6.0191">
        <ele>213.10059</ele>
        <time>2026-05-16T16:15:04+02:00</time>
      </trkpt>
      <trkpt lat="47.77959" lon="6.01905">
        <ele>213.10059</ele>
        <time>2026-05-16T16:15:05+02:00</time>
      </trkpt>
      <trkpt lat="47.77967" lon="6.01896">
        <ele>213.2002</ele>
        <time>2026-05-16T16:15:06+02:00</time>
      </trkpt>
      <trkpt lat="47.77967" lon="6.01896">
        <ele>213.2002</ele>
        <time>2026-05-16T16:15:07+02:00</time>
      </trkpt>
      <trkpt lat="47.77976" lon="6.01887">
        <ele>213.2002</ele>
        <time>2026-05-16T16:15:08+02:00</time>
      </trkpt>
      <trkpt lat="47.77981" lon="6.01881">
        <ele>213.2002</ele>
        <time>2026-05-16T16:15:09+02:00</time>
      </trkpt>
      <trkpt lat="47.77987" lon="6.01875">
        <ele>213.2002</ele>
        <time>2026-05-16T16:15:10+02:00</time>
      </trkpt>
      <trkpt lat="47.77992" lon="6.01869">
        <ele>213.2002</ele>
        <time>2026-05-16T16:15:11+02:00</time>
      </trkpt>
      <trkpt lat="47.77997" lon="6.01863">
        <ele>213.2002</ele>
        <time>2026-05-16T16:15:12+02:00</time>
      </trkpt>
      <trkpt lat="47.78005" lon="6.01855">
        <ele>213.2002</ele>
        <time>2026-05-16T16:15:13+02:00</time>
      </trkpt>
      <trkpt lat="47.78008" lon="6.01852">
        <ele>213.2002</ele>
        <time>2026-05-16T16:15:14+02:00</time>
      </trkpt>
      <trkpt lat="47.78013" lon="6.01847">
        <ele>213.2002</ele>
        <time>2026-05-16T16:15:15+02:00</time>
      </trkpt>
      <trkpt lat="47.78018" lon="6.01841">
        <ele>213.2002</ele>
        <time>2026-05-16T16:15:16+02:00</time>
      </trkpt>
      <trkpt lat="47.78023" lon="6.01836">
        <ele>213.2998</ele>
        <time>2026-05-16T16:15:17+02:00</time>
      </trkpt>
      <trkpt lat="47.78028" lon="6.0183">
        <ele>213.2998</ele>
        <time>2026-05-16T16:15:18+02:00</time>
      </trkpt>
      <trkpt lat="47.78033" lon="6.01824">
        <ele>213.40039</ele>
        <time>2026-05-16T16:15:19+02:00</time>
      </trkpt>
      <trkpt lat="47.78041" lon="6.01816">
        <ele>213.5</ele>
        <time>2026-05-16T16:15:20+02:00</time>
      </trkpt>
      <trkpt lat="47.78043" lon="6.01813">
        <ele>213.5</ele>
        <time>2026-05-16T16:15:21+02:00</time>
      </trkpt>
      <trkpt lat="47.78048" lon="6.01808">
        <ele>213.60059</ele>
        <time>2026-05-16T16:15:22+02:00</time>
      </trkpt>
      <trkpt lat="47.78053" lon="6.01802">
        <ele>213.60059</ele>
        <time>2026-05-16T16:15:23+02:00</time>
      </trkpt>
      <trkpt lat="47.78058" lon="6.01797">
        <ele>213.7002</ele>
        <time>2026-05-16T16:15:24+02:00</time>
      </trkpt>
      <trkpt lat="47.78063" lon="6.01791">
        <ele>213.7998</ele>
        <time>2026-05-16T16:15:25+02:00</time>
      </trkpt>
      <trkpt lat="47.78068" lon="6.01786">
        <ele>213.7998</ele>
        <time>2026-05-16T16:15:26+02:00</time>
      </trkpt>
      <trkpt lat="47.78072" lon="6.01781">
        <ele>213.90039</ele>
        <time>2026-05-16T16:15:27+02:00</time>
      </trkpt>
      <trkpt lat="47.78077" lon="6.01776">
        <ele>214</ele>
        <time>2026-05-16T16:15:28+02:00</time>
      </trkpt>
      <trkpt lat="47.78081" lon="6.0177">
        <ele>214.10059</ele>
        <time>2026-05-16T16:15:29+02:00</time>
      </trkpt>
      <trkpt lat="47.78085" lon="6.01765">
        <ele>214.10059</ele>
        <time>2026-05-16T16:15:30+02:00</time>
      </trkpt>
      <trkpt lat="47.7809" lon="6.0176">
        <ele>214.10059</ele>
        <time>2026-05-16T16:15:31+02:00</time>
      </trkpt>
      <trkpt lat="47.78096" lon="6.01753">
        <ele>214.2002</ele>
        <time>2026-05-16T16:15:32+02:00</time>
      </trkpt>
      <trkpt lat="47.78096" lon="6.01753">
        <ele>214.2002</ele>
        <time>2026-05-16T16:15:33+02:00</time>
      </trkpt>
      <trkpt lat="47.78102" lon="6.01745">
        <ele>214.2002</ele>
        <time>2026-05-16T16:15:34+02:00</time>
      </trkpt>
      <trkpt lat="47.78107" lon="6.0174">
        <ele>214.2002</ele>
        <time>2026-05-16T16:15:35+02:00</time>
      </trkpt>
      <trkpt lat="47.78111" lon="6.01735">
        <ele>214.2002</ele>
        <time>2026-05-16T16:15:36+02:00</time>
      </trkpt>
      <trkpt lat="47.78116" lon="6.01731">
        <ele>214.2998</ele>
        <time>2026-05-16T16:15:37+02:00</time>
      </trkpt>
      <trkpt lat="47.78121" lon="6.01726">
        <ele>214.2998</ele>
        <time>2026-05-16T16:15:38+02:00</time>
      </trkpt>
      <trkpt lat="47.78125" lon="6.0172">
        <ele>214.2998</ele>
        <time>2026-05-16T16:15:39+02:00</time>
      </trkpt>
      <trkpt lat="47.7813" lon="6.01715">
        <ele>214.40039</ele>
        <time>2026-05-16T16:15:40+02:00</time>
      </trkpt>
      <trkpt lat="47.78134" lon="6.01709">
        <ele>214.40039</ele>
        <time>2026-05-16T16:15:41+02:00</time>
      </trkpt>
      <trkpt lat="47.78138" lon="6.01704">
        <ele>214.5</ele>
        <time>2026-05-16T16:15:42+02:00</time>
      </trkpt>
      <trkpt lat="47.78143" lon="6.01698">
        <ele>214.60059</ele>
        <time>2026-05-16T16:15:43+02:00</time>
      </trkpt>
      <trkpt lat="47.78148" lon="6.01693">
        <ele>214.7002</ele>
        <time>2026-05-16T16:15:44+02:00</time>
      </trkpt>
      <trkpt lat="47.78153" lon="6.01688">
        <ele>214.7998</ele>
        <time>2026-05-16T16:15:45+02:00</time>
      </trkpt>
      <trkpt lat="47.78157" lon="6.01683">
        <ele>214.90039</ele>
        <time>2026-05-16T16:15:46+02:00</time>
      </trkpt>
      <trkpt lat="47.78164" lon="6.01675">
        <ele>215.10059</ele>
        <time>2026-05-16T16:15:47+02:00</time>
      </trkpt>
      <trkpt lat="47.78167" lon="6.01672">
        <ele>215.10059</ele>
        <time>2026-05-16T16:15:48+02:00</time>
      </trkpt>
      <trkpt lat="47.78171" lon="6.01667">
        <ele>215.2002</ele>
        <time>2026-05-16T16:15:49+02:00</time>
      </trkpt>
      <trkpt lat="47.78176" lon="6.01661">
        <ele>215.2998</ele>
        <time>2026-05-16T16:15:50+02:00</time>
      </trkpt>
      <trkpt lat="47.78181" lon="6.01656">
        <ele>215.40039</ele>
        <time>2026-05-16T16:15:51+02:00</time>
      </trkpt>
      <trkpt lat="47.78186" lon="6.01651">
        <ele>215.40039</ele>
        <time>2026-05-16T16:15:52+02:00</time>
      </trkpt>
      <trkpt lat="47.78192" lon="6.01647">
        <ele>215.40039</ele>
        <time>2026-05-16T16:15:53+02:00</time>
      </trkpt>
      <trkpt lat="47.782" lon="6.01641">
        <ele>215.5</ele>
        <time>2026-05-16T16:15:54+02:00</time>
      </trkpt>
      <trkpt lat="47.78203" lon="6.0164">
        <ele>215.7002</ele>
        <time>2026-05-16T16:15:55+02:00</time>
      </trkpt>
      <trkpt lat="47.78209" lon="6.01636">
        <ele>215.7002</ele>
        <time>2026-05-16T16:15:56+02:00</time>
      </trkpt>
      <trkpt lat="47.78214" lon="6.01633">
        <ele>215.7998</ele>
        <time>2026-05-16T16:15:57+02:00</time>
      </trkpt>
      <trkpt lat="47.7822" lon="6.01631">
        <ele>215.90039</ele>
        <time>2026-05-16T16:15:58+02:00</time>
      </trkpt>
      <trkpt lat="47.78227" lon="6.01628">
        <ele>215.90039</ele>
        <time>2026-05-16T16:15:59+02:00</time>
      </trkpt>
      <trkpt lat="47.78232" lon="6.01626">
        <ele>216</ele>
        <time>2026-05-16T16:16:00+02:00</time>
      </trkpt>
      <trkpt lat="47.78241" lon="6.01622">
        <ele>216.10059</ele>
        <time>2026-05-16T16:16:01+02:00</time>
      </trkpt>
      <trkpt lat="47.78244" lon="6.01621">
        <ele>216.2002</ele>
        <time>2026-05-16T16:16:02+02:00</time>
      </trkpt>
      <trkpt lat="47.7825" lon="6.01619">
        <ele>216.2998</ele>
        <time>2026-05-16T16:16:03+02:00</time>
      </trkpt>
      <trkpt lat="47.78256" lon="6.01617">
        <ele>216.40039</ele>
        <time>2026-05-16T16:16:04+02:00</time>
      </trkpt>
      <trkpt lat="47.78264" lon="6.01614">
        <ele>216.5</ele>
        <time>2026-05-16T16:16:05+02:00</time>
      </trkpt>
      <trkpt lat="47.78266" lon="6.01613">
        <ele>216.60059</ele>
        <time>2026-05-16T16:16:06+02:00</time>
      </trkpt>
      <trkpt lat="47.78271" lon="6.01611">
        <ele>216.60059</ele>
        <time>2026-05-16T16:16:07+02:00</time>
      </trkpt>
      <trkpt lat="47.78278" lon="6.01608">
        <ele>216.7998</ele>
        <time>2026-05-16T16:16:08+02:00</time>
      </trkpt>
      <trkpt lat="47.78281" lon="6.01607">
        <ele>216.7998</ele>
        <time>2026-05-16T16:16:09+02:00</time>
      </trkpt>
      <trkpt lat="47.78285" lon="6.01605">
        <ele>216.90039</ele>
        <time>2026-05-16T16:16:10+02:00</time>
      </trkpt>
      <trkpt lat="47.7829" lon="6.01603">
        <ele>216.90039</ele>
        <time>2026-05-16T16:16:11+02:00</time>
      </trkpt>
      <trkpt lat="47.78294" lon="6.01601">
        <ele>216.90039</ele>
        <time>2026-05-16T16:16:12+02:00</time>
      </trkpt>
      <trkpt lat="47.78298" lon="6.016">
        <ele>217</ele>
        <time>2026-05-16T16:16:13+02:00</time>
      </trkpt>
      <trkpt lat="47.78301" lon="6.01599">
        <ele>217.10059</ele>
        <time>2026-05-16T16:16:14+02:00</time>
      </trkpt>
      <trkpt lat="47.78304" lon="6.01598">
        <ele>217.10059</ele>
        <time>2026-05-16T16:16:15+02:00</time>
      </trkpt>
      <trkpt lat="47.78307" lon="6.01598">
        <ele>217.2002</ele>
        <time>2026-05-16T16:16:16+02:00</time>
      </trkpt>
      <trkpt lat="47.78308" lon="6.01598">
        <ele>217.2002</ele>
        <time>2026-05-16T16:16:17+02:00</time>
      </trkpt>
      <trkpt lat="47.78309" lon="6.01598">
        <ele>217.2002</ele>
        <time>2026-05-16T16:16:18+02:00</time>
      </trkpt>
      <trkpt lat="47.78309" lon="6.01597">
        <ele>217.2002</ele>
        <time>2026-05-16T16:16:19+02:00</time>
      </trkpt>
      <trkpt lat="47.78309" lon="6.01597">
        <ele>217.2002</ele>
        <time>2026-05-16T16:16:20+02:00</time>
      </trkpt>
      <trkpt lat="47.78309" lon="6.01597">
        <ele>217.2002</ele>
        <time>2026-05-16T16:16:21+02:00</time>
      </trkpt>
      <trkpt lat="47.78321" lon="6.01586">
        <ele>217.2998</ele>
        <time>2026-05-16T16:17:15+02:00</time>
      </trkpt>
      <trkpt lat="47.78324" lon="6.01585">
        <ele>217.40039</ele>
        <time>2026-05-16T16:17:16+02:00</time>
      </trkpt>
      <trkpt lat="47.78327" lon="6.01584">
        <ele>217.40039</ele>
        <time>2026-05-16T16:17:17+02:00</time>
      </trkpt>
      <trkpt lat="47.7833" lon="6.01583">
        <ele>217.5</ele>
        <time>2026-05-16T16:17:18+02:00</time>
      </trkpt>
      <trkpt lat="47.78335" lon="6.0158">
        <ele>217.60059</ele>
        <time>2026-05-16T16:17:19+02:00</time>
      </trkpt>
      <trkpt lat="47.78336" lon="6.01579">
        <ele>217.60059</ele>
        <time>2026-05-16T16:17:20+02:00</time>
      </trkpt>
      <trkpt lat="47.7834" lon="6.01577">
        <ele>217.5</ele>
        <time>2026-05-16T16:17:21+02:00</time>
      </trkpt>
      <trkpt lat="47.78345" lon="6.01573">
        <ele>217.60059</ele>
        <time>2026-05-16T16:17:22+02:00</time>
      </trkpt>
      <trkpt lat="47.78345" lon="6.01573">
        <ele>217.60059</ele>
        <time>2026-05-16T16:17:23+02:00</time>
      </trkpt>
      <trkpt lat="47.78351" lon="6.01569">
        <ele>217.60059</ele>
        <time>2026-05-16T16:17:24+02:00</time>
      </trkpt>
      <trkpt lat="47.78354" lon="6.01567">
        <ele>217.7002</ele>
        <time>2026-05-16T16:17:25+02:00</time>
      </trkpt>
      <trkpt lat="47.7836" lon="6.01564">
        <ele>217.90039</ele>
        <time>2026-05-16T16:17:26+02:00</time>
      </trkpt>
      <trkpt lat="47.78361" lon="6.01562">
        <ele>217.90039</ele>
        <time>2026-05-16T16:17:27+02:00</time>
      </trkpt>
      <trkpt lat="47.78365" lon="6.0156">
        <ele>217.90039</ele>
        <time>2026-05-16T16:17:28+02:00</time>
      </trkpt>
      <trkpt lat="47.78369" lon="6.01558">
        <ele>217.90039</ele>
        <time>2026-05-16T16:17:29+02:00</time>
      </trkpt>
      <trkpt lat="47.78372" lon="6.01555">
        <ele>218.10059</ele>
        <time>2026-05-16T16:17:30+02:00</time>
      </trkpt>
      <trkpt lat="47.78375" lon="6.01552">
        <ele>218</ele>
        <time>2026-05-16T16:17:31+02:00</time>
      </trkpt>
      <trkpt lat="47.78378" lon="6.01549">
        <ele>218.2002</ele>
        <time>2026-05-16T16:17:32+02:00</time>
      </trkpt>
      <trkpt lat="47.78382" lon="6.01546">
        <ele>218.40039</ele>
        <time>2026-05-16T16:17:33+02:00</time>
      </trkpt>
      <trkpt lat="47.78385" lon="6.01544">
        <ele>218.2998</ele>
        <time>2026-05-16T16:17:34+02:00</time>
      </trkpt>
      <trkpt lat="47.78391" lon="6.0154">
        <ele>218.60059</ele>
        <time>2026-05-16T16:17:35+02:00</time>
      </trkpt>
      <trkpt lat="47.78391" lon="6.0154">
        <ele>218.60059</ele>
        <time>2026-05-16T16:17:36+02:00</time>
      </trkpt>
      <trkpt lat="47.78396" lon="6.01536">
        <ele>218.90039</ele>
        <time>2026-05-16T16:17:37+02:00</time>
      </trkpt>
      <trkpt lat="47.78399" lon="6.01533">
        <ele>219.10059</ele>
        <time>2026-05-16T16:17:38+02:00</time>
      </trkpt>
      <trkpt lat="47.78403" lon="6.01529">
        <ele>219.10059</ele>
        <time>2026-05-16T16:17:39+02:00</time>
      </trkpt>
      <trkpt lat="47.78408" lon="6.01523">
        <ele>219.2998</ele>
        <time>2026-05-16T16:17:40+02:00</time>
      </trkpt>
      <trkpt lat="47.78409" lon="6.01521">
        <ele>219.2998</ele>
        <time>2026-05-16T16:17:41+02:00</time>
      </trkpt>
      <trkpt lat="47.78412" lon="6.01517">
        <ele>219.60059</ele>
        <time>2026-05-16T16:17:42+02:00</time>
      </trkpt>
      <trkpt lat="47.78415" lon="6.01513">
        <ele>219.60059</ele>
        <time>2026-05-16T16:17:43+02:00</time>
      </trkpt>
      <trkpt lat="47.78419" lon="6.01506">
        <ele>219.90039</ele>
        <time>2026-05-16T16:17:44+02:00</time>
      </trkpt>
      <trkpt lat="47.78419" lon="6.01506">
        <ele>219.90039</ele>
        <time>2026-05-16T16:17:45+02:00</time>
      </trkpt>
      <trkpt lat="47.78424" lon="6.015">
        <ele>220.2002</ele>
        <time>2026-05-16T16:17:46+02:00</time>
      </trkpt>
      <trkpt lat="47.78426" lon="6.01495">
        <ele>220.2002</ele>
        <time>2026-05-16T16:17:47+02:00</time>
      </trkpt>
      <trkpt lat="47.78431" lon="6.01488">
        <ele>220.5</ele>
        <time>2026-05-16T16:17:48+02:00</time>
      </trkpt>
      <trkpt lat="47.78433" lon="6.01485">
        <ele>220.7998</ele>
        <time>2026-05-16T16:17:49+02:00</time>
      </trkpt>
      <trkpt lat="47.78435" lon="6.01481">
        <ele>220.7998</ele>
        <time>2026-05-16T16:17:50+02:00</time>
      </trkpt>
      <trkpt lat="47.78438" lon="6.01476">
        <ele>220.7998</ele>
        <time>2026-05-16T16:17:51+02:00</time>
      </trkpt>
      <trkpt lat="47.78443" lon="6.01469">
        <ele>221.10059</ele>
        <time>2026-05-16T16:17:52+02:00</time>
      </trkpt>
      <trkpt lat="47.78444" lon="6.01466">
        <ele>221</ele>
        <time>2026-05-16T16:17:53+02:00</time>
      </trkpt>
      <trkpt lat="47.78447" lon="6.01461">
        <ele>221.2998</ele>
        <time>2026-05-16T16:17:54+02:00</time>
      </trkpt>
      <trkpt lat="47.7845" lon="6.01456">
        <ele>221.40039</ele>
        <time>2026-05-16T16:17:55+02:00</time>
      </trkpt>
      <trkpt lat="47.78453" lon="6.01451">
        <ele>221.40039</ele>
        <time>2026-05-16T16:17:56+02:00</time>
      </trkpt>
      <trkpt lat="47.78456" lon="6.01446">
        <ele>221.5</ele>
        <time>2026-05-16T16:17:57+02:00</time>
      </trkpt>
      <trkpt lat="47.78459" lon="6.01441">
        <ele>221.40039</ele>
        <time>2026-05-16T16:17:58+02:00</time>
      </trkpt>
      <trkpt lat="47.78462" lon="6.01435">
        <ele>221.60059</ele>
        <time>2026-05-16T16:17:59+02:00</time>
      </trkpt>
      <trkpt lat="47.78465" lon="6.0143">
        <ele>221.40039</ele>
        <time>2026-05-16T16:18:00+02:00</time>
      </trkpt>
      <trkpt lat="47.78469" lon="6.01425">
        <ele>221.60059</ele>
        <time>2026-05-16T16:18:01+02:00</time>
      </trkpt>
      <trkpt lat="47.78472" lon="6.01419">
        <ele>221.40039</ele>
        <time>2026-05-16T16:18:02+02:00</time>
      </trkpt>
      <trkpt lat="47.78475" lon="6.01413">
        <ele>221.2998</ele>
        <time>2026-05-16T16:18:03+02:00</time>
      </trkpt>
      <trkpt lat="47.78477" lon="6.0141">
        <ele>221.2998</ele>
        <time>2026-05-16T16:18:04+02:00</time>
      </trkpt>
      <trkpt lat="47.78482" lon="6.01402">
        <ele>221.40039</ele>
        <time>2026-05-16T16:18:05+02:00</time>
      </trkpt>
      <trkpt lat="47.78485" lon="6.01396">
        <ele>221.5</ele>
        <time>2026-05-16T16:18:06+02:00</time>
      </trkpt>
      <trkpt lat="47.7849" lon="6.01387">
        <ele>221.40039</ele>
        <time>2026-05-16T16:18:07+02:00</time>
      </trkpt>
      <trkpt lat="47.78492" lon="6.01384">
        <ele>221.60059</ele>
        <time>2026-05-16T16:18:08+02:00</time>
      </trkpt>
      <trkpt lat="47.78495" lon="6.01377">
        <ele>221.60059</ele>
        <time>2026-05-16T16:18:09+02:00</time>
      </trkpt>
      <trkpt lat="47.78499" lon="6.01371">
        <ele>221.7002</ele>
        <time>2026-05-16T16:18:10+02:00</time>
      </trkpt>
      <trkpt lat="47.78502" lon="6.01365">
        <ele>221.90039</ele>
        <time>2026-05-16T16:18:11+02:00</time>
      </trkpt>
      <trkpt lat="47.78505" lon="6.01359">
        <ele>221.7998</ele>
        <time>2026-05-16T16:18:12+02:00</time>
      </trkpt>
      <trkpt lat="47.78509" lon="6.01353">
        <ele>221.90039</ele>
        <time>2026-05-16T16:18:13+02:00</time>
      </trkpt>
      <trkpt lat="47.78512" lon="6.01346">
        <ele>221.7998</ele>
        <time>2026-05-16T16:18:14+02:00</time>
      </trkpt>
      <trkpt lat="47.78515" lon="6.0134">
        <ele>222</ele>
        <time>2026-05-16T16:18:15+02:00</time>
      </trkpt>
      <trkpt lat="47.78519" lon="6.01334">
        <ele>221.90039</ele>
        <time>2026-05-16T16:18:16+02:00</time>
      </trkpt>
      <trkpt lat="47.78522" lon="6.01327">
        <ele>221.90039</ele>
        <time>2026-05-16T16:18:17+02:00</time>
      </trkpt>
      <trkpt lat="47.78525" lon="6.01321">
        <ele>222</ele>
        <time>2026-05-16T16:18:18+02:00</time>
      </trkpt>
      <trkpt lat="47.78531" lon="6.01313">
        <ele>222.10059</ele>
        <time>2026-05-16T16:18:19+02:00</time>
      </trkpt>
      <trkpt lat="47.78533" lon="6.0131">
        <ele>222</ele>
        <time>2026-05-16T16:18:20+02:00</time>
      </trkpt>
      <trkpt lat="47.78536" lon="6.01304">
        <ele>221.90039</ele>
        <time>2026-05-16T16:18:21+02:00</time>
      </trkpt>
      <trkpt lat="47.78539" lon="6.01298">
        <ele>222.10059</ele>
        <time>2026-05-16T16:18:22+02:00</time>
      </trkpt>
      <trkpt lat="47.78545" lon="6.01289">
        <ele>222.10059</ele>
        <time>2026-05-16T16:18:23+02:00</time>
      </trkpt>
      <trkpt lat="47.78546" lon="6.01286">
        <ele>221.90039</ele>
        <time>2026-05-16T16:18:24+02:00</time>
      </trkpt>
      <trkpt lat="47.7855" lon="6.0128">
        <ele>222</ele>
        <time>2026-05-16T16:18:25+02:00</time>
      </trkpt>
      <trkpt lat="47.78553" lon="6.01274">
        <ele>221.7998</ele>
        <time>2026-05-16T16:18:26+02:00</time>
      </trkpt>
      <trkpt lat="47.78556" lon="6.01269">
        <ele>221.7002</ele>
        <time>2026-05-16T16:18:27+02:00</time>
      </trkpt>
      <trkpt lat="47.78559" lon="6.01263">
        <ele>221.7002</ele>
        <time>2026-05-16T16:18:28+02:00</time>
      </trkpt>
      <trkpt lat="47.78563" lon="6.01257">
        <ele>221.60059</ele>
        <time>2026-05-16T16:18:29+02:00</time>
      </trkpt>
      <trkpt lat="47.78566" lon="6.01252">
        <ele>221.60059</ele>
        <time>2026-05-16T16:18:30+02:00</time>
      </trkpt>
      <trkpt lat="47.78569" lon="6.01246">
        <ele>221.60059</ele>
        <time>2026-05-16T16:18:31+02:00</time>
      </trkpt>
      <trkpt lat="47.78572" lon="6.0124">
        <ele>221.7002</ele>
        <time>2026-05-16T16:18:32+02:00</time>
      </trkpt>
      <trkpt lat="47.78575" lon="6.01234">
        <ele>221.7998</ele>
        <time>2026-05-16T16:18:33+02:00</time>
      </trkpt>
      <trkpt lat="47.7858" lon="6.01226">
        <ele>222.2002</ele>
        <time>2026-05-16T16:18:34+02:00</time>
      </trkpt>
      <trkpt lat="47.78581" lon="6.01223">
        <ele>222.2002</ele>
        <time>2026-05-16T16:18:35+02:00</time>
      </trkpt>
      <trkpt lat="47.78585" lon="6.01218">
        <ele>222.60059</ele>
        <time>2026-05-16T16:18:36+02:00</time>
      </trkpt>
      <trkpt lat="47.78588" lon="6.01213">
        <ele>222.60059</ele>
        <time>2026-05-16T16:18:37+02:00</time>
      </trkpt>
      <trkpt lat="47.78592" lon="6.01209">
        <ele>223.2002</ele>
        <time>2026-05-16T16:18:38+02:00</time>
      </trkpt>
      <trkpt lat="47.78595" lon="6.01204">
        <ele>223.5</ele>
        <time>2026-05-16T16:18:39+02:00</time>
      </trkpt>
      <trkpt lat="47.78599" lon="6.012">
        <ele>223.7998</ele>
        <time>2026-05-16T16:18:40+02:00</time>
      </trkpt>
      <trkpt lat="47.78605" lon="6.01193">
        <ele>224.10059</ele>
        <time>2026-05-16T16:18:41+02:00</time>
      </trkpt>
      <trkpt lat="47.78607" lon="6.01191">
        <ele>224.7002</ele>
        <time>2026-05-16T16:18:42+02:00</time>
      </trkpt>
      <trkpt lat="47.7861" lon="6.01188">
        <ele>224.7002</ele>
        <time>2026-05-16T16:18:43+02:00</time>
      </trkpt>
      <trkpt lat="47.78613" lon="6.01184">
        <ele>225</ele>
        <time>2026-05-16T16:18:44+02:00</time>
      </trkpt>
      <trkpt lat="47.78615" lon="6.01182">
        <ele>225.2002</ele>
        <time>2026-05-16T16:18:45+02:00</time>
      </trkpt>
      <trkpt lat="47.78619" lon="6.01176">
        <ele>225.5</ele>
        <time>2026-05-16T16:18:46+02:00</time>
      </trkpt>
      <trkpt lat="47.78621" lon="6.01172">
        <ele>225.60059</ele>
        <time>2026-05-16T16:18:47+02:00</time>
      </trkpt>
      <trkpt lat="47.78623" lon="6.01168">
        <ele>225.60059</ele>
        <time>2026-05-16T16:18:48+02:00</time>
      </trkpt>
      <trkpt lat="47.78625" lon="6.01165">
        <ele>225.90039</ele>
        <time>2026-05-16T16:18:49+02:00</time>
      </trkpt>
      <trkpt lat="47.78627" lon="6.01161">
        <ele>225.90039</ele>
        <time>2026-05-16T16:18:50+02:00</time>
      </trkpt>
      <trkpt lat="47.78629" lon="6.01158">
        <ele>226.10059</ele>
        <time>2026-05-16T16:18:51+02:00</time>
      </trkpt>
      <trkpt lat="47.78633" lon="6.01156">
        <ele>226.10059</ele>
        <time>2026-05-16T16:18:52+02:00</time>
      </trkpt>
      <trkpt lat="47.78634" lon="6.01156">
        <ele>226.10059</ele>
        <time>2026-05-16T16:18:53+02:00</time>
      </trkpt>
      <trkpt lat="47.78636" lon="6.01159">
        <ele>226.2998</ele>
        <time>2026-05-16T16:18:54+02:00</time>
      </trkpt>
      <trkpt lat="47.78636" lon="6.01164">
        <ele>226.2998</ele>
        <time>2026-05-16T16:18:55+02:00</time>
      </trkpt>
      <trkpt lat="47.78636" lon="6.01166">
        <ele>226.2998</ele>
        <time>2026-05-16T16:18:56+02:00</time>
      </trkpt>
      <trkpt lat="47.78636" lon="6.0117">
        <ele>226.40039</ele>
        <time>2026-05-16T16:18:57+02:00</time>
      </trkpt>
      <trkpt lat="47.78635" lon="6.01175">
        <ele>226.40039</ele>
        <time>2026-05-16T16:18:58+02:00</time>
      </trkpt>
      <trkpt lat="47.78634" lon="6.0118">
        <ele>226.10059</ele>
        <time>2026-05-16T16:18:59+02:00</time>
      </trkpt>
      <trkpt lat="47.78634" lon="6.01186">
        <ele>226</ele>
        <time>2026-05-16T16:19:00+02:00</time>
      </trkpt>
      <trkpt lat="47.78633" lon="6.01192">
        <ele>226</ele>
        <time>2026-05-16T16:19:01+02:00</time>
      </trkpt>
      <trkpt lat="47.78633" lon="6.01198">
        <ele>226</ele>
        <time>2026-05-16T16:19:02+02:00</time>
      </trkpt>
      <trkpt lat="47.78633" lon="6.01205">
        <ele>225.90039</ele>
        <time>2026-05-16T16:19:03+02:00</time>
      </trkpt>
      <trkpt lat="47.78632" lon="6.01212">
        <ele>225.90039</ele>
        <time>2026-05-16T16:19:04+02:00</time>
      </trkpt>
      <trkpt lat="47.78632" lon="6.01219">
        <ele>226</ele>
        <time>2026-05-16T16:19:05+02:00</time>
      </trkpt>
      <trkpt lat="47.78632" lon="6.01229">
        <ele>226.2002</ele>
        <time>2026-05-16T16:19:06+02:00</time>
      </trkpt>
      <trkpt lat="47.78632" lon="6.01232">
        <ele>226.2002</ele>
        <time>2026-05-16T16:19:07+02:00</time>
      </trkpt>
      <trkpt lat="47.78632" lon="6.01239">
        <ele>226.5</ele>
        <time>2026-05-16T16:19:08+02:00</time>
      </trkpt>
      <trkpt lat="47.78632" lon="6.01249">
        <ele>226.7998</ele>
        <time>2026-05-16T16:19:09+02:00</time>
      </trkpt>
      <trkpt lat="47.78632" lon="6.01253">
        <ele>227.2002</ele>
        <time>2026-05-16T16:19:10+02:00</time>
      </trkpt>
      <trkpt lat="47.78632" lon="6.0126">
        <ele>227.2002</ele>
        <time>2026-05-16T16:19:11+02:00</time>
      </trkpt>
      <trkpt lat="47.78631" lon="6.01267">
        <ele>227.5</ele>
        <time>2026-05-16T16:19:12+02:00</time>
      </trkpt>
      <trkpt lat="47.78631" lon="6.01275">
        <ele>227.90039</ele>
        <time>2026-05-16T16:19:13+02:00</time>
      </trkpt>
      <trkpt lat="47.7863" lon="6.01283">
        <ele>228.2998</ele>
        <time>2026-05-16T16:19:14+02:00</time>
      </trkpt>
      <trkpt lat="47.78629" lon="6.01291">
        <ele>228.60059</ele>
        <time>2026-05-16T16:19:15+02:00</time>
      </trkpt>
      <trkpt lat="47.78628" lon="6.01298">
        <ele>227.90039</ele>
        <time>2026-05-16T16:19:16+02:00</time>
      </trkpt>
      <trkpt lat="47.78628" lon="6.01306">
        <ele>228.10059</ele>
        <time>2026-05-16T16:19:17+02:00</time>
      </trkpt>
      <trkpt lat="47.78627" lon="6.01314">
        <ele>228.2998</ele>
        <time>2026-05-16T16:19:18+02:00</time>
      </trkpt>
      <trkpt lat="47.78625" lon="6.01322">
        <ele>228.40039</ele>
        <time>2026-05-16T16:19:19+02:00</time>
      </trkpt>
      <trkpt lat="47.78624" lon="6.01329">
        <ele>228.40039</ele>
        <time>2026-05-16T16:19:20+02:00</time>
      </trkpt>
      <trkpt lat="47.78623" lon="6.01339">
        <ele>227.7998</ele>
        <time>2026-05-16T16:19:21+02:00</time>
      </trkpt>
      <trkpt lat="47.78622" lon="6.01343">
        <ele>227.7998</ele>
        <time>2026-05-16T16:19:22+02:00</time>
      </trkpt>
      <trkpt lat="47.78621" lon="6.01349">
        <ele>227.7998</ele>
        <time>2026-05-16T16:19:23+02:00</time>
      </trkpt>
      <trkpt lat="47.7862" lon="6.01356">
        <ele>227.7998</ele>
        <time>2026-05-16T16:19:24+02:00</time>
      </trkpt>
      <trkpt lat="47.78618" lon="6.01366">
        <ele>227.7002</ele>
        <time>2026-05-16T16:19:25+02:00</time>
      </trkpt>
      <trkpt lat="47.78618" lon="6.01369">
        <ele>227.7002</ele>
        <time>2026-05-16T16:19:26+02:00</time>
      </trkpt>
      <trkpt lat="47.78616" lon="6.01376">
        <ele>227.10059</ele>
        <time>2026-05-16T16:19:27+02:00</time>
      </trkpt>
      <trkpt lat="47.78615" lon="6.01384">
        <ele>227.10059</ele>
        <time>2026-05-16T16:19:28+02:00</time>
      </trkpt>
      <trkpt lat="47.78612" lon="6.01394">
        <ele>227.10059</ele>
        <time>2026-05-16T16:19:29+02:00</time>
      </trkpt>
      <trkpt lat="47.78612" lon="6.01398">
        <ele>227.10059</ele>
        <time>2026-05-16T16:19:30+02:00</time>
      </trkpt>
      <trkpt lat="47.7861" lon="6.01405">
        <ele>226.7998</ele>
        <time>2026-05-16T16:19:31+02:00</time>
      </trkpt>
      <trkpt lat="47.78608" lon="6.01413">
        <ele>226.90039</ele>
        <time>2026-05-16T16:19:32+02:00</time>
      </trkpt>
      <trkpt lat="47.78605" lon="6.01424">
        <ele>226.7998</ele>
        <time>2026-05-16T16:19:33+02:00</time>
      </trkpt>
      <trkpt lat="47.78604" lon="6.01427">
        <ele>227</ele>
        <time>2026-05-16T16:19:34+02:00</time>
      </trkpt>
      <trkpt lat="47.78602" lon="6.01435">
        <ele>227.2002</ele>
        <time>2026-05-16T16:19:35+02:00</time>
      </trkpt>
      <trkpt lat="47.78601" lon="6.01441">
        <ele>227.2002</ele>
        <time>2026-05-16T16:19:36+02:00</time>
      </trkpt>
      <trkpt lat="47.78599" lon="6.01448">
        <ele>227.2002</ele>
        <time>2026-05-16T16:19:37+02:00</time>
      </trkpt>
      <trkpt lat="47.78596" lon="6.01458">
        <ele>227.5</ele>
        <time>2026-05-16T16:19:38+02:00</time>
      </trkpt>
      <trkpt lat="47.78596" lon="6.01461">
        <ele>227.7002</ele>
        <time>2026-05-16T16:19:39+02:00</time>
      </trkpt>
      <trkpt lat="47.78595" lon="6.01468">
        <ele>228</ele>
        <time>2026-05-16T16:19:40+02:00</time>
      </trkpt>
      <trkpt lat="47.78594" lon="6.01474">
        <ele>227.7998</ele>
        <time>2026-05-16T16:19:41+02:00</time>
      </trkpt>
      <trkpt lat="47.78596" lon="6.01483">
        <ele>228.2002</ele>
        <time>2026-05-16T16:19:42+02:00</time>
      </trkpt>
      <trkpt lat="47.78598" lon="6.01485">
        <ele>228.5</ele>
        <time>2026-05-16T16:19:43+02:00</time>
      </trkpt>
      <trkpt lat="47.786" lon="6.01489">
        <ele>228.60059</ele>
        <time>2026-05-16T16:19:44+02:00</time>
      </trkpt>
      <trkpt lat="47.78603" lon="6.01493">
        <ele>228.90039</ele>
        <time>2026-05-16T16:19:45+02:00</time>
      </trkpt>
      <trkpt lat="47.78607" lon="6.01498">
        <ele>229</ele>
        <time>2026-05-16T16:19:46+02:00</time>
      </trkpt>
      <trkpt lat="47.78608" lon="6.01499">
        <ele>229</ele>
        <time>2026-05-16T16:19:47+02:00</time>
      </trkpt>
      <trkpt lat="47.7861" lon="6.01503">
        <ele>229.2002</ele>
        <time>2026-05-16T16:19:48+02:00</time>
      </trkpt>
      <trkpt lat="47.78612" lon="6.01506">
        <ele>229.2998</ele>
        <time>2026-05-16T16:19:49+02:00</time>
      </trkpt>
      <trkpt lat="47.78613" lon="6.01509">
        <ele>229.2998</ele>
        <time>2026-05-16T16:19:50+02:00</time>
      </trkpt>
      <trkpt lat="47.78615" lon="6.01512">
        <ele>229.60059</ele>
        <time>2026-05-16T16:19:51+02:00</time>
      </trkpt>
      <trkpt lat="47.78617" lon="6.01515">
        <ele>229.60059</ele>
        <time>2026-05-16T16:19:52+02:00</time>
      </trkpt>
      <trkpt lat="47.78619" lon="6.01518">
        <ele>229.7002</ele>
        <time>2026-05-16T16:19:53+02:00</time>
      </trkpt>
      <trkpt lat="47.78622" lon="6.01522">
        <ele>230</ele>
        <time>2026-05-16T16:19:54+02:00</time>
      </trkpt>
      <trkpt lat="47.78623" lon="6.01523">
        <ele>230</ele>
        <time>2026-05-16T16:19:55+02:00</time>
      </trkpt>
      <trkpt lat="47.78625" lon="6.01524">
        <ele>230.10059</ele>
        <time>2026-05-16T16:19:56+02:00</time>
      </trkpt>
      <trkpt lat="47.78627" lon="6.01526">
        <ele>230.10059</ele>
        <time>2026-05-16T16:19:57+02:00</time>
      </trkpt>
      <trkpt lat="47.78629" lon="6.01527">
        <ele>230.2998</ele>
        <time>2026-05-16T16:19:58+02:00</time>
      </trkpt>
      <trkpt lat="47.78631" lon="6.01528">
        <ele>230.5</ele>
        <time>2026-05-16T16:19:59+02:00</time>
      </trkpt>
      <trkpt lat="47.78632" lon="6.01529">
        <ele>230.5</ele>
        <time>2026-05-16T16:20:00+02:00</time>
      </trkpt>
      <trkpt lat="47.78634" lon="6.0153">
        <ele>230.5</ele>
        <time>2026-05-16T16:20:01+02:00</time>
      </trkpt>
      <trkpt lat="47.78636" lon="6.01532">
        <ele>230.7002</ele>
        <time>2026-05-16T16:20:02+02:00</time>
      </trkpt>
      <trkpt lat="47.78638" lon="6.01533">
        <ele>230.7002</ele>
        <time>2026-05-16T16:20:03+02:00</time>
      </trkpt>
      <trkpt lat="47.7864" lon="6.01535">
        <ele>230.7002</ele>
        <time>2026-05-16T16:20:04+02:00</time>
      </trkpt>
      <trkpt lat="47.78642" lon="6.01536">
        <ele>231.2002</ele>
        <time>2026-05-16T16:20:05+02:00</time>
      </trkpt>
      <trkpt lat="47.78642" lon="6.01536">
        <ele>231.2002</ele>
        <time>2026-05-16T16:20:06+02:00</time>
      </trkpt>
      <trkpt lat="47.78642" lon="6.01536">
        <ele>231.2002</ele>
        <time>2026-05-16T16:20:07+02:00</time>
      </trkpt>
      <trkpt lat="47.78642" lon="6.01536">
        <ele>231.2002</ele>
        <time>2026-05-16T16:20:08+02:00</time>
      </trkpt>
    </trkseg>
  </trk>
</gpx>